<?xml version="1.0" encoding="UTF-8" standalone="no" ?>
<gpx xmlns="http://www.topografix.com/GPX/1/1" xmlns:xsi="http://www.w3.org/2001/XMLSchema-instance" xsi:schemaLocation="http://www.topografix.com/GPX/1/1 http://www.topografix.com/GPX/1/1/gpx.xsd" version="1.1" creator="VisuGPX - https://www.visugpx.com">
  <metadata>
    <name>2018-11-02 Bike ride-Saule d'Oingt v42k</name>
    <desc><![CDATA[2018-11-02 Bike ride-Saule d'Oingt v42k]]></desc>
  </metadata>
  <wpt lat="45.92458" lon="4.73717">
    <ele>174</ele>
    <name><![CDATA[2018-11-02 10:39 (Start)]]></name>
  </wpt>
  <wpt lat="45.92462" lon="4.73709">
    <ele>174</ele>
    <name><![CDATA[2018-11-02 10:39 (End)]]></name>
  </wpt>
  <trk>
    <name><![CDATA[2018-11-02 10:39]]></name>
    <trkseg>
      <trkpt lat="45.92458" lon="4.73717">
        <ele>174</ele>
        <time>2018-11-02T09:39:28.679Z</time>
      </trkpt>
      <trkpt lat="45.92464" lon="4.73708">
        <ele>174</ele>
        <time>2018-11-02T09:40:18Z</time>
      </trkpt>
      <trkpt lat="45.92465" lon="4.73706">
        <ele>174</ele>
        <time>2018-11-02T09:40:19Z</time>
      </trkpt>
      <trkpt lat="45.92467" lon="4.73695">
        <ele>174</ele>
        <time>2018-11-02T09:40:23Z</time>
      </trkpt>
      <trkpt lat="45.92467" lon="4.73692">
        <ele>174</ele>
        <time>2018-11-02T09:40:24Z</time>
      </trkpt>
      <trkpt lat="45.92468" lon="4.73679">
        <ele>174</ele>
        <time>2018-11-02T09:40:30Z</time>
      </trkpt>
      <trkpt lat="45.92468" lon="4.73678">
        <ele>174</ele>
        <time>2018-11-02T09:40:31Z</time>
      </trkpt>
      <trkpt lat="45.92467" lon="4.73669">
        <ele>174</ele>
        <time>2018-11-02T09:41:15Z</time>
      </trkpt>
      <trkpt lat="45.92467" lon="4.73665">
        <ele>174</ele>
        <time>2018-11-02T09:41:16Z</time>
      </trkpt>
      <trkpt lat="45.92468" lon="4.73653">
        <ele>174</ele>
        <time>2018-11-02T09:41:19Z</time>
      </trkpt>
      <trkpt lat="45.92469" lon="4.73644">
        <ele>174</ele>
        <time>2018-11-02T09:41:20Z</time>
      </trkpt>
      <trkpt lat="45.9247" lon="4.73633">
        <ele>174</ele>
        <time>2018-11-02T09:41:22Z</time>
      </trkpt>
      <trkpt lat="45.9247" lon="4.73626">
        <ele>174</ele>
        <time>2018-11-02T09:41:23Z</time>
      </trkpt>
      <trkpt lat="45.92469" lon="4.73619">
        <ele>174</ele>
        <time>2018-11-02T09:41:24Z</time>
      </trkpt>
      <trkpt lat="45.92469" lon="4.73613">
        <ele>174</ele>
        <time>2018-11-02T09:41:25Z</time>
      </trkpt>
      <trkpt lat="45.92468" lon="4.73606">
        <ele>174</ele>
        <time>2018-11-02T09:41:26Z</time>
      </trkpt>
      <trkpt lat="45.92468" lon="4.73599">
        <ele>174</ele>
        <time>2018-11-02T09:41:27Z</time>
      </trkpt>
      <trkpt lat="45.92469" lon="4.73592">
        <ele>174</ele>
        <time>2018-11-02T09:41:28Z</time>
      </trkpt>
      <trkpt lat="45.92469" lon="4.73584">
        <ele>174</ele>
        <time>2018-11-02T09:41:29Z</time>
      </trkpt>
      <trkpt lat="45.92468" lon="4.73577">
        <ele>173</ele>
        <time>2018-11-02T09:41:30Z</time>
      </trkpt>
      <trkpt lat="45.92468" lon="4.73568">
        <ele>173</ele>
        <time>2018-11-02T09:41:31Z</time>
      </trkpt>
      <trkpt lat="45.92467" lon="4.73561">
        <ele>173</ele>
        <time>2018-11-02T09:41:32Z</time>
      </trkpt>
      <trkpt lat="45.92467" lon="4.73555">
        <ele>173</ele>
        <time>2018-11-02T09:41:33Z</time>
      </trkpt>
      <trkpt lat="45.92467" lon="4.73544">
        <ele>173</ele>
        <time>2018-11-02T09:41:35Z</time>
      </trkpt>
      <trkpt lat="45.92466" lon="4.73538">
        <ele>174</ele>
        <time>2018-11-02T09:41:36Z</time>
      </trkpt>
      <trkpt lat="45.92467" lon="4.73526">
        <ele>174</ele>
        <time>2018-11-02T09:41:38Z</time>
      </trkpt>
      <trkpt lat="45.92463" lon="4.73519">
        <ele>174</ele>
        <time>2018-11-02T09:41:39Z</time>
      </trkpt>
      <trkpt lat="45.92464" lon="4.73512">
        <ele>174</ele>
        <time>2018-11-02T09:41:40Z</time>
      </trkpt>
      <trkpt lat="45.92464" lon="4.73504">
        <ele>174</ele>
        <time>2018-11-02T09:41:41Z</time>
      </trkpt>
      <trkpt lat="45.92464" lon="4.73497">
        <ele>173</ele>
        <time>2018-11-02T09:41:42Z</time>
      </trkpt>
      <trkpt lat="45.92465" lon="4.7349">
        <ele>173</ele>
        <time>2018-11-02T09:41:43Z</time>
      </trkpt>
      <trkpt lat="45.92466" lon="4.73483">
        <ele>173</ele>
        <time>2018-11-02T09:41:44Z</time>
      </trkpt>
      <trkpt lat="45.92467" lon="4.73476">
        <ele>173</ele>
        <time>2018-11-02T09:41:45Z</time>
      </trkpt>
      <trkpt lat="45.92467" lon="4.73468">
        <ele>173</ele>
        <time>2018-11-02T09:41:46Z</time>
      </trkpt>
      <trkpt lat="45.92467" lon="4.73461">
        <ele>173</ele>
        <time>2018-11-02T09:41:47Z</time>
      </trkpt>
      <trkpt lat="45.92465" lon="4.73451">
        <ele>173</ele>
        <time>2018-11-02T09:41:48Z</time>
      </trkpt>
      <trkpt lat="45.92465" lon="4.73445">
        <ele>173</ele>
        <time>2018-11-02T09:41:49Z</time>
      </trkpt>
      <trkpt lat="45.92463" lon="4.73438">
        <ele>173</ele>
        <time>2018-11-02T09:41:50Z</time>
      </trkpt>
      <trkpt lat="45.9246" lon="4.73432">
        <ele>173</ele>
        <time>2018-11-02T09:41:51Z</time>
      </trkpt>
      <trkpt lat="45.92457" lon="4.73427">
        <ele>173</ele>
        <time>2018-11-02T09:41:52Z</time>
      </trkpt>
      <trkpt lat="45.92453" lon="4.73424">
        <ele>173</ele>
        <time>2018-11-02T09:41:53Z</time>
      </trkpt>
      <trkpt lat="45.92447" lon="4.73418">
        <ele>173</ele>
        <time>2018-11-02T09:41:55Z</time>
      </trkpt>
      <trkpt lat="45.92443" lon="4.73415">
        <ele>172</ele>
        <time>2018-11-02T09:41:56Z</time>
      </trkpt>
      <trkpt lat="45.92439" lon="4.73413">
        <ele>172</ele>
        <time>2018-11-02T09:41:57Z</time>
      </trkpt>
      <trkpt lat="45.92435" lon="4.73408">
        <ele>172</ele>
        <time>2018-11-02T09:41:58Z</time>
      </trkpt>
      <trkpt lat="45.92431" lon="4.73404">
        <ele>172</ele>
        <time>2018-11-02T09:41:59Z</time>
      </trkpt>
      <trkpt lat="45.92428" lon="4.73399">
        <ele>172</ele>
        <time>2018-11-02T09:42:00Z</time>
      </trkpt>
      <trkpt lat="45.92427" lon="4.73394">
        <ele>172</ele>
        <time>2018-11-02T09:42:01Z</time>
      </trkpt>
      <trkpt lat="45.92425" lon="4.73387">
        <ele>172</ele>
        <time>2018-11-02T09:42:02Z</time>
      </trkpt>
      <trkpt lat="45.92423" lon="4.7338">
        <ele>172</ele>
        <time>2018-11-02T09:42:03Z</time>
      </trkpt>
      <trkpt lat="45.92422" lon="4.73373">
        <ele>172</ele>
        <time>2018-11-02T09:42:04Z</time>
      </trkpt>
      <trkpt lat="45.92421" lon="4.73366">
        <ele>172</ele>
        <time>2018-11-02T09:42:05Z</time>
      </trkpt>
      <trkpt lat="45.9242" lon="4.73359">
        <ele>171</ele>
        <time>2018-11-02T09:42:06Z</time>
      </trkpt>
      <trkpt lat="45.9242" lon="4.73352">
        <ele>171</ele>
        <time>2018-11-02T09:42:07Z</time>
      </trkpt>
      <trkpt lat="45.92419" lon="4.73346">
        <ele>171</ele>
        <time>2018-11-02T09:42:08Z</time>
      </trkpt>
      <trkpt lat="45.92417" lon="4.73339">
        <ele>171</ele>
        <time>2018-11-02T09:42:09Z</time>
      </trkpt>
      <trkpt lat="45.92416" lon="4.73332">
        <ele>171</ele>
        <time>2018-11-02T09:42:10Z</time>
      </trkpt>
      <trkpt lat="45.92415" lon="4.73325">
        <ele>171</ele>
        <time>2018-11-02T09:42:11Z</time>
      </trkpt>
      <trkpt lat="45.92414" lon="4.73318">
        <ele>171</ele>
        <time>2018-11-02T09:42:12Z</time>
      </trkpt>
      <trkpt lat="45.92413" lon="4.73311">
        <ele>171</ele>
        <time>2018-11-02T09:42:13Z</time>
      </trkpt>
      <trkpt lat="45.92412" lon="4.73304">
        <ele>171</ele>
        <time>2018-11-02T09:42:14Z</time>
      </trkpt>
      <trkpt lat="45.92411" lon="4.73297">
        <ele>171</ele>
        <time>2018-11-02T09:42:15Z</time>
      </trkpt>
      <trkpt lat="45.92411" lon="4.73288">
        <ele>171</ele>
        <time>2018-11-02T09:42:16Z</time>
      </trkpt>
      <trkpt lat="45.9241" lon="4.73281">
        <ele>171</ele>
        <time>2018-11-02T09:42:17Z</time>
      </trkpt>
      <trkpt lat="45.9241" lon="4.73273">
        <ele>171</ele>
        <time>2018-11-02T09:42:18Z</time>
      </trkpt>
      <trkpt lat="45.9241" lon="4.73265">
        <ele>171</ele>
        <time>2018-11-02T09:42:19Z</time>
      </trkpt>
      <trkpt lat="45.92409" lon="4.73258">
        <ele>171</ele>
        <time>2018-11-02T09:42:20Z</time>
      </trkpt>
      <trkpt lat="45.92409" lon="4.73251">
        <ele>171</ele>
        <time>2018-11-02T09:42:21Z</time>
      </trkpt>
      <trkpt lat="45.92409" lon="4.73245">
        <ele>171</ele>
        <time>2018-11-02T09:42:22Z</time>
      </trkpt>
      <trkpt lat="45.92409" lon="4.73238">
        <ele>171</ele>
        <time>2018-11-02T09:42:23Z</time>
      </trkpt>
      <trkpt lat="45.92408" lon="4.73231">
        <ele>171</ele>
        <time>2018-11-02T09:42:24Z</time>
      </trkpt>
      <trkpt lat="45.92408" lon="4.73224">
        <ele>171</ele>
        <time>2018-11-02T09:42:25Z</time>
      </trkpt>
      <trkpt lat="45.92408" lon="4.73218">
        <ele>171</ele>
        <time>2018-11-02T09:42:26Z</time>
      </trkpt>
      <trkpt lat="45.92408" lon="4.7321">
        <ele>171</ele>
        <time>2018-11-02T09:42:27Z</time>
      </trkpt>
      <trkpt lat="45.92407" lon="4.73203">
        <ele>171</ele>
        <time>2018-11-02T09:42:28Z</time>
      </trkpt>
      <trkpt lat="45.92407" lon="4.73196">
        <ele>171</ele>
        <time>2018-11-02T09:42:29Z</time>
      </trkpt>
      <trkpt lat="45.92408" lon="4.7319">
        <ele>171</ele>
        <time>2018-11-02T09:42:30Z</time>
      </trkpt>
      <trkpt lat="45.92408" lon="4.73183">
        <ele>171</ele>
        <time>2018-11-02T09:42:31Z</time>
      </trkpt>
      <trkpt lat="45.92407" lon="4.73176">
        <ele>171</ele>
        <time>2018-11-02T09:42:32Z</time>
      </trkpt>
      <trkpt lat="45.92407" lon="4.73169">
        <ele>170</ele>
        <time>2018-11-02T09:42:33Z</time>
      </trkpt>
      <trkpt lat="45.92407" lon="4.73161">
        <ele>170</ele>
        <time>2018-11-02T09:42:34Z</time>
      </trkpt>
      <trkpt lat="45.92406" lon="4.73154">
        <ele>171</ele>
        <time>2018-11-02T09:42:35Z</time>
      </trkpt>
      <trkpt lat="45.92406" lon="4.73147">
        <ele>171</ele>
        <time>2018-11-02T09:42:36Z</time>
      </trkpt>
      <trkpt lat="45.92405" lon="4.73141">
        <ele>171</ele>
        <time>2018-11-02T09:42:37Z</time>
      </trkpt>
      <trkpt lat="45.92407" lon="4.73132">
        <ele>171</ele>
        <time>2018-11-02T09:42:38Z</time>
      </trkpt>
      <trkpt lat="45.92409" lon="4.73119">
        <ele>171</ele>
        <time>2018-11-02T09:42:40Z</time>
      </trkpt>
      <trkpt lat="45.92412" lon="4.73115">
        <ele>171</ele>
        <time>2018-11-02T09:42:41Z</time>
      </trkpt>
      <trkpt lat="45.92416" lon="4.7311">
        <ele>171</ele>
        <time>2018-11-02T09:42:42Z</time>
      </trkpt>
      <trkpt lat="45.9242" lon="4.73106">
        <ele>171</ele>
        <time>2018-11-02T09:42:43Z</time>
      </trkpt>
      <trkpt lat="45.92424" lon="4.73103">
        <ele>171</ele>
        <time>2018-11-02T09:42:44Z</time>
      </trkpt>
      <trkpt lat="45.92428" lon="4.731">
        <ele>171</ele>
        <time>2018-11-02T09:42:45Z</time>
      </trkpt>
      <trkpt lat="45.92433" lon="4.73096">
        <ele>171</ele>
        <time>2018-11-02T09:42:46Z</time>
      </trkpt>
      <trkpt lat="45.92438" lon="4.73092">
        <ele>171</ele>
        <time>2018-11-02T09:42:47Z</time>
      </trkpt>
      <trkpt lat="45.92443" lon="4.73088">
        <ele>170</ele>
        <time>2018-11-02T09:42:48Z</time>
      </trkpt>
      <trkpt lat="45.92447" lon="4.73083">
        <ele>170</ele>
        <time>2018-11-02T09:42:49Z</time>
      </trkpt>
      <trkpt lat="45.92452" lon="4.73079">
        <ele>170</ele>
        <time>2018-11-02T09:42:50Z</time>
      </trkpt>
      <trkpt lat="45.92458" lon="4.73075">
        <ele>170</ele>
        <time>2018-11-02T09:42:51Z</time>
      </trkpt>
      <trkpt lat="45.92462" lon="4.73072">
        <ele>170</ele>
        <time>2018-11-02T09:42:52Z</time>
      </trkpt>
      <trkpt lat="45.92467" lon="4.73069">
        <ele>170</ele>
        <time>2018-11-02T09:42:53Z</time>
      </trkpt>
      <trkpt lat="45.92472" lon="4.73065">
        <ele>170</ele>
        <time>2018-11-02T09:42:54Z</time>
      </trkpt>
      <trkpt lat="45.92476" lon="4.7306">
        <ele>170</ele>
        <time>2018-11-02T09:42:55Z</time>
      </trkpt>
      <trkpt lat="45.9248" lon="4.73056">
        <ele>170</ele>
        <time>2018-11-02T09:42:56Z</time>
      </trkpt>
      <trkpt lat="45.92485" lon="4.73052">
        <ele>170</ele>
        <time>2018-11-02T09:42:57Z</time>
      </trkpt>
      <trkpt lat="45.92491" lon="4.73048">
        <ele>170</ele>
        <time>2018-11-02T09:42:58Z</time>
      </trkpt>
      <trkpt lat="45.92496" lon="4.73044">
        <ele>170</ele>
        <time>2018-11-02T09:42:59Z</time>
      </trkpt>
      <trkpt lat="45.925" lon="4.73041">
        <ele>170</ele>
        <time>2018-11-02T09:43:00Z</time>
      </trkpt>
      <trkpt lat="45.92504" lon="4.73036">
        <ele>169</ele>
        <time>2018-11-02T09:43:01Z</time>
      </trkpt>
      <trkpt lat="45.92511" lon="4.73029">
        <ele>169</ele>
        <time>2018-11-02T09:43:03Z</time>
      </trkpt>
      <trkpt lat="45.92515" lon="4.73026">
        <ele>169</ele>
        <time>2018-11-02T09:43:04Z</time>
      </trkpt>
      <trkpt lat="45.92519" lon="4.73023">
        <ele>169</ele>
        <time>2018-11-02T09:43:05Z</time>
      </trkpt>
      <trkpt lat="45.92524" lon="4.73019">
        <ele>169</ele>
        <time>2018-11-02T09:43:06Z</time>
      </trkpt>
      <trkpt lat="45.92529" lon="4.73015">
        <ele>169</ele>
        <time>2018-11-02T09:43:07Z</time>
      </trkpt>
      <trkpt lat="45.92534" lon="4.7301">
        <ele>169</ele>
        <time>2018-11-02T09:43:08Z</time>
      </trkpt>
      <trkpt lat="45.92538" lon="4.73006">
        <ele>169</ele>
        <time>2018-11-02T09:43:09Z</time>
      </trkpt>
      <trkpt lat="45.92543" lon="4.73001">
        <ele>169</ele>
        <time>2018-11-02T09:43:10Z</time>
      </trkpt>
      <trkpt lat="45.92547" lon="4.72996">
        <ele>169</ele>
        <time>2018-11-02T09:43:11Z</time>
      </trkpt>
      <trkpt lat="45.92552" lon="4.72992">
        <ele>169</ele>
        <time>2018-11-02T09:43:12Z</time>
      </trkpt>
      <trkpt lat="45.92556" lon="4.72987">
        <ele>169</ele>
        <time>2018-11-02T09:43:13Z</time>
      </trkpt>
      <trkpt lat="45.92561" lon="4.72982">
        <ele>169</ele>
        <time>2018-11-02T09:43:14Z</time>
      </trkpt>
      <trkpt lat="45.92565" lon="4.72977">
        <ele>169</ele>
        <time>2018-11-02T09:43:15Z</time>
      </trkpt>
      <trkpt lat="45.92569" lon="4.72973">
        <ele>169</ele>
        <time>2018-11-02T09:43:16Z</time>
      </trkpt>
      <trkpt lat="45.92573" lon="4.72968">
        <ele>169</ele>
        <time>2018-11-02T09:43:17Z</time>
      </trkpt>
      <trkpt lat="45.92579" lon="4.72965">
        <ele>169</ele>
        <time>2018-11-02T09:43:18Z</time>
      </trkpt>
      <trkpt lat="45.92583" lon="4.7296">
        <ele>169</ele>
        <time>2018-11-02T09:43:19Z</time>
      </trkpt>
      <trkpt lat="45.92587" lon="4.72955">
        <ele>169</ele>
        <time>2018-11-02T09:43:20Z</time>
      </trkpt>
      <trkpt lat="45.92592" lon="4.7295">
        <ele>169</ele>
        <time>2018-11-02T09:43:21Z</time>
      </trkpt>
      <trkpt lat="45.92596" lon="4.72945">
        <ele>169</ele>
        <time>2018-11-02T09:43:22Z</time>
      </trkpt>
      <trkpt lat="45.92599" lon="4.72938">
        <ele>169</ele>
        <time>2018-11-02T09:43:23Z</time>
      </trkpt>
      <trkpt lat="45.92604" lon="4.72933">
        <ele>169</ele>
        <time>2018-11-02T09:43:24Z</time>
      </trkpt>
      <trkpt lat="45.92608" lon="4.72929">
        <ele>169</ele>
        <time>2018-11-02T09:43:25Z</time>
      </trkpt>
      <trkpt lat="45.92613" lon="4.72924">
        <ele>169</ele>
        <time>2018-11-02T09:43:26Z</time>
      </trkpt>
      <trkpt lat="45.92618" lon="4.7292">
        <ele>169</ele>
        <time>2018-11-02T09:43:27Z</time>
      </trkpt>
      <trkpt lat="45.92622" lon="4.72916">
        <ele>169</ele>
        <time>2018-11-02T09:43:28Z</time>
      </trkpt>
      <trkpt lat="45.92626" lon="4.72913">
        <ele>169</ele>
        <time>2018-11-02T09:43:29Z</time>
      </trkpt>
      <trkpt lat="45.9263" lon="4.72908">
        <ele>169</ele>
        <time>2018-11-02T09:43:30Z</time>
      </trkpt>
      <trkpt lat="45.92633" lon="4.72904">
        <ele>169</ele>
        <time>2018-11-02T09:43:31Z</time>
      </trkpt>
      <trkpt lat="45.92638" lon="4.72901">
        <ele>169</ele>
        <time>2018-11-02T09:43:32Z</time>
      </trkpt>
      <trkpt lat="45.92642" lon="4.72897">
        <ele>169</ele>
        <time>2018-11-02T09:43:33Z</time>
      </trkpt>
      <trkpt lat="45.92647" lon="4.72895">
        <ele>169</ele>
        <time>2018-11-02T09:43:34Z</time>
      </trkpt>
      <trkpt lat="45.92652" lon="4.72892">
        <ele>169</ele>
        <time>2018-11-02T09:43:35Z</time>
      </trkpt>
      <trkpt lat="45.92659" lon="4.72887">
        <ele>169</ele>
        <time>2018-11-02T09:43:36Z</time>
      </trkpt>
      <trkpt lat="45.92664" lon="4.72883">
        <ele>169</ele>
        <time>2018-11-02T09:43:37Z</time>
      </trkpt>
      <trkpt lat="45.92669" lon="4.72879">
        <ele>170</ele>
        <time>2018-11-02T09:43:38Z</time>
      </trkpt>
      <trkpt lat="45.92674" lon="4.72875">
        <ele>169</ele>
        <time>2018-11-02T09:43:39Z</time>
      </trkpt>
      <trkpt lat="45.92679" lon="4.72871">
        <ele>169</ele>
        <time>2018-11-02T09:43:40Z</time>
      </trkpt>
      <trkpt lat="45.92684" lon="4.72867">
        <ele>169</ele>
        <time>2018-11-02T09:43:41Z</time>
      </trkpt>
      <trkpt lat="45.92688" lon="4.72863">
        <ele>169</ele>
        <time>2018-11-02T09:43:42Z</time>
      </trkpt>
      <trkpt lat="45.92692" lon="4.72859">
        <ele>169</ele>
        <time>2018-11-02T09:43:43Z</time>
      </trkpt>
      <trkpt lat="45.92697" lon="4.72855">
        <ele>169</ele>
        <time>2018-11-02T09:43:44Z</time>
      </trkpt>
      <trkpt lat="45.92702" lon="4.72852">
        <ele>169</ele>
        <time>2018-11-02T09:43:45Z</time>
      </trkpt>
      <trkpt lat="45.92706" lon="4.72849">
        <ele>169</ele>
        <time>2018-11-02T09:43:46Z</time>
      </trkpt>
      <trkpt lat="45.92711" lon="4.72846">
        <ele>169</ele>
        <time>2018-11-02T09:43:47Z</time>
      </trkpt>
      <trkpt lat="45.92716" lon="4.72842">
        <ele>169</ele>
        <time>2018-11-02T09:43:48Z</time>
      </trkpt>
      <trkpt lat="45.92721" lon="4.72839">
        <ele>169</ele>
        <time>2018-11-02T09:43:49Z</time>
      </trkpt>
      <trkpt lat="45.92726" lon="4.72835">
        <ele>169</ele>
        <time>2018-11-02T09:43:50Z</time>
      </trkpt>
      <trkpt lat="45.92733" lon="4.7283">
        <ele>169</ele>
        <time>2018-11-02T09:43:51Z</time>
      </trkpt>
      <trkpt lat="45.92737" lon="4.72826">
        <ele>169</ele>
        <time>2018-11-02T09:43:52Z</time>
      </trkpt>
      <trkpt lat="45.92741" lon="4.72822">
        <ele>169</ele>
        <time>2018-11-02T09:43:53Z</time>
      </trkpt>
      <trkpt lat="45.92746" lon="4.72818">
        <ele>169</ele>
        <time>2018-11-02T09:43:54Z</time>
      </trkpt>
      <trkpt lat="45.92751" lon="4.72815">
        <ele>170</ele>
        <time>2018-11-02T09:43:55Z</time>
      </trkpt>
      <trkpt lat="45.92755" lon="4.72811">
        <ele>170</ele>
        <time>2018-11-02T09:43:56Z</time>
      </trkpt>
      <trkpt lat="45.92759" lon="4.72808">
        <ele>170</ele>
        <time>2018-11-02T09:43:57Z</time>
      </trkpt>
      <trkpt lat="45.92763" lon="4.72805">
        <ele>170</ele>
        <time>2018-11-02T09:43:58Z</time>
      </trkpt>
      <trkpt lat="45.92768" lon="4.72801">
        <ele>170</ele>
        <time>2018-11-02T09:43:59Z</time>
      </trkpt>
      <trkpt lat="45.92773" lon="4.72797">
        <ele>170</ele>
        <time>2018-11-02T09:44:00Z</time>
      </trkpt>
      <trkpt lat="45.92778" lon="4.72794">
        <ele>170</ele>
        <time>2018-11-02T09:44:01Z</time>
      </trkpt>
      <trkpt lat="45.92782" lon="4.72791">
        <ele>170</ele>
        <time>2018-11-02T09:44:02Z</time>
      </trkpt>
      <trkpt lat="45.9279" lon="4.72785">
        <ele>171</ele>
        <time>2018-11-02T09:44:04Z</time>
      </trkpt>
      <trkpt lat="45.92794" lon="4.72784">
        <ele>171</ele>
        <time>2018-11-02T09:44:05Z</time>
      </trkpt>
      <trkpt lat="45.92802" lon="4.72783">
        <ele>171</ele>
        <time>2018-11-02T09:44:07Z</time>
      </trkpt>
      <trkpt lat="45.92802" lon="4.72794">
        <ele>171</ele>
        <time>2018-11-02T09:44:08Z</time>
      </trkpt>
      <trkpt lat="45.92803" lon="4.72801">
        <ele>171</ele>
        <time>2018-11-02T09:44:09Z</time>
      </trkpt>
      <trkpt lat="45.92804" lon="4.72807">
        <ele>171</ele>
        <time>2018-11-02T09:44:10Z</time>
      </trkpt>
      <trkpt lat="45.92805" lon="4.72813">
        <ele>171</ele>
        <time>2018-11-02T09:44:11Z</time>
      </trkpt>
      <trkpt lat="45.92806" lon="4.72821">
        <ele>171</ele>
        <time>2018-11-02T09:44:12Z</time>
      </trkpt>
      <trkpt lat="45.92807" lon="4.72829">
        <ele>171</ele>
        <time>2018-11-02T09:44:13Z</time>
      </trkpt>
      <trkpt lat="45.92809" lon="4.72835">
        <ele>170</ele>
        <time>2018-11-02T09:44:14Z</time>
      </trkpt>
      <trkpt lat="45.9281" lon="4.72843">
        <ele>170</ele>
        <time>2018-11-02T09:44:15Z</time>
      </trkpt>
      <trkpt lat="45.92812" lon="4.72851">
        <ele>170</ele>
        <time>2018-11-02T09:44:16Z</time>
      </trkpt>
      <trkpt lat="45.92813" lon="4.72859">
        <ele>170</ele>
        <time>2018-11-02T09:44:17Z</time>
      </trkpt>
      <trkpt lat="45.92815" lon="4.72867">
        <ele>170</ele>
        <time>2018-11-02T09:44:18Z</time>
      </trkpt>
      <trkpt lat="45.92817" lon="4.72874">
        <ele>170</ele>
        <time>2018-11-02T09:44:19Z</time>
      </trkpt>
      <trkpt lat="45.92818" lon="4.72882">
        <ele>170</ele>
        <time>2018-11-02T09:44:20Z</time>
      </trkpt>
      <trkpt lat="45.9282" lon="4.7289">
        <ele>170</ele>
        <time>2018-11-02T09:44:21Z</time>
      </trkpt>
      <trkpt lat="45.92821" lon="4.72898">
        <ele>170</ele>
        <time>2018-11-02T09:44:22Z</time>
      </trkpt>
      <trkpt lat="45.92822" lon="4.72906">
        <ele>170</ele>
        <time>2018-11-02T09:44:23Z</time>
      </trkpt>
      <trkpt lat="45.92823" lon="4.72914">
        <ele>170</ele>
        <time>2018-11-02T09:44:24Z</time>
      </trkpt>
      <trkpt lat="45.92823" lon="4.7292">
        <ele>170</ele>
        <time>2018-11-02T09:44:25Z</time>
      </trkpt>
      <trkpt lat="45.92824" lon="4.72928">
        <ele>170</ele>
        <time>2018-11-02T09:44:26Z</time>
      </trkpt>
      <trkpt lat="45.92825" lon="4.72936">
        <ele>170</ele>
        <time>2018-11-02T09:44:27Z</time>
      </trkpt>
      <trkpt lat="45.92826" lon="4.72944">
        <ele>170</ele>
        <time>2018-11-02T09:44:28Z</time>
      </trkpt>
      <trkpt lat="45.92827" lon="4.72952">
        <ele>170</ele>
        <time>2018-11-02T09:44:29Z</time>
      </trkpt>
      <trkpt lat="45.92828" lon="4.7296">
        <ele>170</ele>
        <time>2018-11-02T09:44:30Z</time>
      </trkpt>
      <trkpt lat="45.92829" lon="4.72969">
        <ele>170</ele>
        <time>2018-11-02T09:44:31Z</time>
      </trkpt>
      <trkpt lat="45.9283" lon="4.72976">
        <ele>170</ele>
        <time>2018-11-02T09:44:32Z</time>
      </trkpt>
      <trkpt lat="45.9283" lon="4.72984">
        <ele>170</ele>
        <time>2018-11-02T09:44:33Z</time>
      </trkpt>
      <trkpt lat="45.92831" lon="4.72991">
        <ele>170</ele>
        <time>2018-11-02T09:44:34Z</time>
      </trkpt>
      <trkpt lat="45.92831" lon="4.72999">
        <ele>170</ele>
        <time>2018-11-02T09:44:35Z</time>
      </trkpt>
      <trkpt lat="45.92832" lon="4.73007">
        <ele>170</ele>
        <time>2018-11-02T09:44:36Z</time>
      </trkpt>
      <trkpt lat="45.92834" lon="4.73015">
        <ele>171</ele>
        <time>2018-11-02T09:44:37Z</time>
      </trkpt>
      <trkpt lat="45.92836" lon="4.73023">
        <ele>171</ele>
        <time>2018-11-02T09:44:38Z</time>
      </trkpt>
      <trkpt lat="45.92837" lon="4.7303">
        <ele>171</ele>
        <time>2018-11-02T09:44:39Z</time>
      </trkpt>
      <trkpt lat="45.92838" lon="4.73038">
        <ele>171</ele>
        <time>2018-11-02T09:44:40Z</time>
      </trkpt>
      <trkpt lat="45.92839" lon="4.73045">
        <ele>171</ele>
        <time>2018-11-02T09:44:41Z</time>
      </trkpt>
      <trkpt lat="45.9284" lon="4.73052">
        <ele>171</ele>
        <time>2018-11-02T09:44:42Z</time>
      </trkpt>
      <trkpt lat="45.92842" lon="4.73059">
        <ele>171</ele>
        <time>2018-11-02T09:44:43Z</time>
      </trkpt>
      <trkpt lat="45.92842" lon="4.73065">
        <ele>171</ele>
        <time>2018-11-02T09:44:44Z</time>
      </trkpt>
      <trkpt lat="45.92843" lon="4.73071">
        <ele>171</ele>
        <time>2018-11-02T09:44:45Z</time>
      </trkpt>
      <trkpt lat="45.92844" lon="4.73078">
        <ele>171</ele>
        <time>2018-11-02T09:44:46Z</time>
      </trkpt>
      <trkpt lat="45.92846" lon="4.73089">
        <ele>171</ele>
        <time>2018-11-02T09:44:48Z</time>
      </trkpt>
      <trkpt lat="45.92847" lon="4.73095">
        <ele>171</ele>
        <time>2018-11-02T09:44:49Z</time>
      </trkpt>
      <trkpt lat="45.92851" lon="4.73102">
        <ele>171</ele>
        <time>2018-11-02T09:44:51Z</time>
      </trkpt>
      <trkpt lat="45.92853" lon="4.73104">
        <ele>171</ele>
        <time>2018-11-02T09:44:52Z</time>
      </trkpt>
      <trkpt lat="45.92861" lon="4.73102">
        <ele>171</ele>
        <time>2018-11-02T09:44:54Z</time>
      </trkpt>
      <trkpt lat="45.92864" lon="4.73097">
        <ele>171</ele>
        <time>2018-11-02T09:44:55Z</time>
      </trkpt>
      <trkpt lat="45.92869" lon="4.73089">
        <ele>172</ele>
        <time>2018-11-02T09:44:57Z</time>
      </trkpt>
      <trkpt lat="45.9287" lon="4.73086">
        <ele>172</ele>
        <time>2018-11-02T09:44:58Z</time>
      </trkpt>
      <trkpt lat="45.92874" lon="4.73081">
        <ele>172</ele>
        <time>2018-11-02T09:44:59Z</time>
      </trkpt>
      <trkpt lat="45.92878" lon="4.73078">
        <ele>172</ele>
        <time>2018-11-02T09:45:00Z</time>
      </trkpt>
      <trkpt lat="45.92886" lon="4.73074">
        <ele>172</ele>
        <time>2018-11-02T09:45:02Z</time>
      </trkpt>
      <trkpt lat="45.92889" lon="4.7307">
        <ele>172</ele>
        <time>2018-11-02T09:45:03Z</time>
      </trkpt>
      <trkpt lat="45.92892" lon="4.73064">
        <ele>172</ele>
        <time>2018-11-02T09:45:04Z</time>
      </trkpt>
      <trkpt lat="45.92896" lon="4.73059">
        <ele>172</ele>
        <time>2018-11-02T09:45:05Z</time>
      </trkpt>
      <trkpt lat="45.929" lon="4.73054">
        <ele>172</ele>
        <time>2018-11-02T09:45:06Z</time>
      </trkpt>
      <trkpt lat="45.92904" lon="4.73048">
        <ele>172</ele>
        <time>2018-11-02T09:45:07Z</time>
      </trkpt>
      <trkpt lat="45.92907" lon="4.73042">
        <ele>172</ele>
        <time>2018-11-02T09:45:08Z</time>
      </trkpt>
      <trkpt lat="45.92911" lon="4.73037">
        <ele>172</ele>
        <time>2018-11-02T09:45:09Z</time>
      </trkpt>
      <trkpt lat="45.92915" lon="4.73031">
        <ele>172</ele>
        <time>2018-11-02T09:45:10Z</time>
      </trkpt>
      <trkpt lat="45.92919" lon="4.73026">
        <ele>172</ele>
        <time>2018-11-02T09:45:11Z</time>
      </trkpt>
      <trkpt lat="45.92922" lon="4.73021">
        <ele>172</ele>
        <time>2018-11-02T09:45:12Z</time>
      </trkpt>
      <trkpt lat="45.92926" lon="4.73016">
        <ele>172</ele>
        <time>2018-11-02T09:45:13Z</time>
      </trkpt>
      <trkpt lat="45.9293" lon="4.73011">
        <ele>171</ele>
        <time>2018-11-02T09:45:14Z</time>
      </trkpt>
      <trkpt lat="45.92934" lon="4.73006">
        <ele>171</ele>
        <time>2018-11-02T09:45:15Z</time>
      </trkpt>
      <trkpt lat="45.92938" lon="4.73">
        <ele>171</ele>
        <time>2018-11-02T09:45:16Z</time>
      </trkpt>
      <trkpt lat="45.92942" lon="4.72995">
        <ele>171</ele>
        <time>2018-11-02T09:45:17Z</time>
      </trkpt>
      <trkpt lat="45.92946" lon="4.7299">
        <ele>171</ele>
        <time>2018-11-02T09:45:18Z</time>
      </trkpt>
      <trkpt lat="45.92951" lon="4.72983">
        <ele>171</ele>
        <time>2018-11-02T09:45:19Z</time>
      </trkpt>
      <trkpt lat="45.92955" lon="4.72979">
        <ele>171</ele>
        <time>2018-11-02T09:45:20Z</time>
      </trkpt>
      <trkpt lat="45.92959" lon="4.72974">
        <ele>171</ele>
        <time>2018-11-02T09:45:21Z</time>
      </trkpt>
      <trkpt lat="45.92964" lon="4.72969">
        <ele>171</ele>
        <time>2018-11-02T09:45:22Z</time>
      </trkpt>
      <trkpt lat="45.92968" lon="4.72964">
        <ele>171</ele>
        <time>2018-11-02T09:45:23Z</time>
      </trkpt>
      <trkpt lat="45.92973" lon="4.72959">
        <ele>171</ele>
        <time>2018-11-02T09:45:24Z</time>
      </trkpt>
      <trkpt lat="45.92977" lon="4.72953">
        <ele>171</ele>
        <time>2018-11-02T09:45:25Z</time>
      </trkpt>
      <trkpt lat="45.92981" lon="4.72948">
        <ele>171</ele>
        <time>2018-11-02T09:45:26Z</time>
      </trkpt>
      <trkpt lat="45.92986" lon="4.72942">
        <ele>171</ele>
        <time>2018-11-02T09:45:27Z</time>
      </trkpt>
      <trkpt lat="45.92991" lon="4.72936">
        <ele>171</ele>
        <time>2018-11-02T09:45:28Z</time>
      </trkpt>
      <trkpt lat="45.92996" lon="4.72931">
        <ele>171</ele>
        <time>2018-11-02T09:45:29Z</time>
      </trkpt>
      <trkpt lat="45.93001" lon="4.72922">
        <ele>171</ele>
        <time>2018-11-02T09:45:31Z</time>
      </trkpt>
      <trkpt lat="45.93005" lon="4.72918">
        <ele>171</ele>
        <time>2018-11-02T09:45:32Z</time>
      </trkpt>
      <trkpt lat="45.93009" lon="4.72913">
        <ele>171</ele>
        <time>2018-11-02T09:45:33Z</time>
      </trkpt>
      <trkpt lat="45.93013" lon="4.72909">
        <ele>171</ele>
        <time>2018-11-02T09:45:34Z</time>
      </trkpt>
      <trkpt lat="45.93017" lon="4.72904">
        <ele>172</ele>
        <time>2018-11-02T09:45:35Z</time>
      </trkpt>
      <trkpt lat="45.93022" lon="4.729">
        <ele>172</ele>
        <time>2018-11-02T09:45:36Z</time>
      </trkpt>
      <trkpt lat="45.93026" lon="4.72894">
        <ele>172</ele>
        <time>2018-11-02T09:45:37Z</time>
      </trkpt>
      <trkpt lat="45.93031" lon="4.72889">
        <ele>172</ele>
        <time>2018-11-02T09:45:38Z</time>
      </trkpt>
      <trkpt lat="45.93035" lon="4.72884">
        <ele>172</ele>
        <time>2018-11-02T09:45:39Z</time>
      </trkpt>
      <trkpt lat="45.93039" lon="4.72879">
        <ele>172</ele>
        <time>2018-11-02T09:45:40Z</time>
      </trkpt>
      <trkpt lat="45.93045" lon="4.72875">
        <ele>172</ele>
        <time>2018-11-02T09:45:41Z</time>
      </trkpt>
      <trkpt lat="45.93049" lon="4.72869">
        <ele>172</ele>
        <time>2018-11-02T09:45:42Z</time>
      </trkpt>
      <trkpt lat="45.93054" lon="4.72863">
        <ele>172</ele>
        <time>2018-11-02T09:45:43Z</time>
      </trkpt>
      <trkpt lat="45.93057" lon="4.72858">
        <ele>172</ele>
        <time>2018-11-02T09:45:44Z</time>
      </trkpt>
      <trkpt lat="45.93062" lon="4.72853">
        <ele>172</ele>
        <time>2018-11-02T09:45:45Z</time>
      </trkpt>
      <trkpt lat="45.93066" lon="4.7285">
        <ele>172</ele>
        <time>2018-11-02T09:45:46Z</time>
      </trkpt>
      <trkpt lat="45.93072" lon="4.72844">
        <ele>173</ele>
        <time>2018-11-02T09:45:48Z</time>
      </trkpt>
      <trkpt lat="45.93075" lon="4.72842">
        <ele>173</ele>
        <time>2018-11-02T09:45:49Z</time>
      </trkpt>
      <trkpt lat="45.93079" lon="4.72839">
        <ele>173</ele>
        <time>2018-11-02T09:45:50Z</time>
      </trkpt>
      <trkpt lat="45.93084" lon="4.72835">
        <ele>173</ele>
        <time>2018-11-02T09:45:51Z</time>
      </trkpt>
      <trkpt lat="45.93082" lon="4.72827">
        <ele>173</ele>
        <time>2018-11-02T09:45:52Z</time>
      </trkpt>
      <trkpt lat="45.93086" lon="4.72822">
        <ele>172</ele>
        <time>2018-11-02T09:45:53Z</time>
      </trkpt>
      <trkpt lat="45.93092" lon="4.72819">
        <ele>172</ele>
        <time>2018-11-02T09:45:54Z</time>
      </trkpt>
      <trkpt lat="45.93099" lon="4.72812">
        <ele>172</ele>
        <time>2018-11-02T09:45:55Z</time>
      </trkpt>
      <trkpt lat="45.93106" lon="4.72808">
        <ele>171</ele>
        <time>2018-11-02T09:45:56Z</time>
      </trkpt>
      <trkpt lat="45.93113" lon="4.72804">
        <ele>171</ele>
        <time>2018-11-02T09:45:57Z</time>
      </trkpt>
      <trkpt lat="45.93117" lon="4.72798">
        <ele>171</ele>
        <time>2018-11-02T09:45:58Z</time>
      </trkpt>
      <trkpt lat="45.9312" lon="4.72793">
        <ele>171</ele>
        <time>2018-11-02T09:45:59Z</time>
      </trkpt>
      <trkpt lat="45.93125" lon="4.72791">
        <ele>171</ele>
        <time>2018-11-02T09:46:00Z</time>
      </trkpt>
      <trkpt lat="45.93129" lon="4.72786">
        <ele>171</ele>
        <time>2018-11-02T09:46:01Z</time>
      </trkpt>
      <trkpt lat="45.93134" lon="4.7278">
        <ele>171</ele>
        <time>2018-11-02T09:46:02Z</time>
      </trkpt>
      <trkpt lat="45.93137" lon="4.72773">
        <ele>171</ele>
        <time>2018-11-02T09:46:03Z</time>
      </trkpt>
      <trkpt lat="45.93141" lon="4.72767">
        <ele>171</ele>
        <time>2018-11-02T09:46:04Z</time>
      </trkpt>
      <trkpt lat="45.93147" lon="4.72762">
        <ele>171</ele>
        <time>2018-11-02T09:46:05Z</time>
      </trkpt>
      <trkpt lat="45.93152" lon="4.72756">
        <ele>170</ele>
        <time>2018-11-02T09:46:06Z</time>
      </trkpt>
      <trkpt lat="45.93156" lon="4.72751">
        <ele>170</ele>
        <time>2018-11-02T09:46:07Z</time>
      </trkpt>
      <trkpt lat="45.93161" lon="4.72746">
        <ele>170</ele>
        <time>2018-11-02T09:46:08Z</time>
      </trkpt>
      <trkpt lat="45.93165" lon="4.7274">
        <ele>170</ele>
        <time>2018-11-02T09:46:09Z</time>
      </trkpt>
      <trkpt lat="45.93169" lon="4.72734">
        <ele>170</ele>
        <time>2018-11-02T09:46:10Z</time>
      </trkpt>
      <trkpt lat="45.93172" lon="4.7273">
        <ele>170</ele>
        <time>2018-11-02T09:46:11Z</time>
      </trkpt>
      <trkpt lat="45.93176" lon="4.72724">
        <ele>170</ele>
        <time>2018-11-02T09:46:12Z</time>
      </trkpt>
      <trkpt lat="45.9318" lon="4.7272">
        <ele>169</ele>
        <time>2018-11-02T09:46:13Z</time>
      </trkpt>
      <trkpt lat="45.93184" lon="4.72716">
        <ele>169</ele>
        <time>2018-11-02T09:46:14Z</time>
      </trkpt>
      <trkpt lat="45.93188" lon="4.72712">
        <ele>169</ele>
        <time>2018-11-02T09:46:15Z</time>
      </trkpt>
      <trkpt lat="45.93193" lon="4.72707">
        <ele>169</ele>
        <time>2018-11-02T09:46:16Z</time>
      </trkpt>
      <trkpt lat="45.93199" lon="4.72698">
        <ele>169</ele>
        <time>2018-11-02T09:46:17Z</time>
      </trkpt>
      <trkpt lat="45.93202" lon="4.72694">
        <ele>169</ele>
        <time>2018-11-02T09:46:18Z</time>
      </trkpt>
      <trkpt lat="45.93207" lon="4.72689">
        <ele>169</ele>
        <time>2018-11-02T09:46:19Z</time>
      </trkpt>
      <trkpt lat="45.93211" lon="4.72682">
        <ele>169</ele>
        <time>2018-11-02T09:46:20Z</time>
      </trkpt>
      <trkpt lat="45.93215" lon="4.72678">
        <ele>169</ele>
        <time>2018-11-02T09:46:21Z</time>
      </trkpt>
      <trkpt lat="45.93218" lon="4.72674">
        <ele>169</ele>
        <time>2018-11-02T09:46:22Z</time>
      </trkpt>
      <trkpt lat="45.93222" lon="4.7267">
        <ele>169</ele>
        <time>2018-11-02T09:46:23Z</time>
      </trkpt>
      <trkpt lat="45.93226" lon="4.72663">
        <ele>170</ele>
        <time>2018-11-02T09:46:24Z</time>
      </trkpt>
      <trkpt lat="45.9323" lon="4.72658">
        <ele>169</ele>
        <time>2018-11-02T09:46:25Z</time>
      </trkpt>
      <trkpt lat="45.93233" lon="4.72654">
        <ele>169</ele>
        <time>2018-11-02T09:46:26Z</time>
      </trkpt>
      <trkpt lat="45.93237" lon="4.72649">
        <ele>170</ele>
        <time>2018-11-02T09:46:27Z</time>
      </trkpt>
      <trkpt lat="45.93241" lon="4.72644">
        <ele>170</ele>
        <time>2018-11-02T09:46:28Z</time>
      </trkpt>
      <trkpt lat="45.93245" lon="4.72639">
        <ele>170</ele>
        <time>2018-11-02T09:46:29Z</time>
      </trkpt>
      <trkpt lat="45.9325" lon="4.72635">
        <ele>170</ele>
        <time>2018-11-02T09:46:30Z</time>
      </trkpt>
      <trkpt lat="45.93256" lon="4.72627">
        <ele>170</ele>
        <time>2018-11-02T09:46:31Z</time>
      </trkpt>
      <trkpt lat="45.9326" lon="4.72622">
        <ele>170</ele>
        <time>2018-11-02T09:46:32Z</time>
      </trkpt>
      <trkpt lat="45.93264" lon="4.72616">
        <ele>170</ele>
        <time>2018-11-02T09:46:33Z</time>
      </trkpt>
      <trkpt lat="45.93269" lon="4.7261">
        <ele>170</ele>
        <time>2018-11-02T09:46:34Z</time>
      </trkpt>
      <trkpt lat="45.93274" lon="4.72605">
        <ele>170</ele>
        <time>2018-11-02T09:46:35Z</time>
      </trkpt>
      <trkpt lat="45.93278" lon="4.726">
        <ele>170</ele>
        <time>2018-11-02T09:46:36Z</time>
      </trkpt>
      <trkpt lat="45.93284" lon="4.72594">
        <ele>170</ele>
        <time>2018-11-02T09:46:37Z</time>
      </trkpt>
      <trkpt lat="45.93289" lon="4.72588">
        <ele>170</ele>
        <time>2018-11-02T09:46:38Z</time>
      </trkpt>
      <trkpt lat="45.93293" lon="4.72581">
        <ele>171</ele>
        <time>2018-11-02T09:46:39Z</time>
      </trkpt>
      <trkpt lat="45.93299" lon="4.72574">
        <ele>171</ele>
        <time>2018-11-02T09:46:40Z</time>
      </trkpt>
      <trkpt lat="45.93303" lon="4.72568">
        <ele>171</ele>
        <time>2018-11-02T09:46:41Z</time>
      </trkpt>
      <trkpt lat="45.93306" lon="4.72563">
        <ele>171</ele>
        <time>2018-11-02T09:46:42Z</time>
      </trkpt>
      <trkpt lat="45.9331" lon="4.72558">
        <ele>172</ele>
        <time>2018-11-02T09:46:43Z</time>
      </trkpt>
      <trkpt lat="45.93314" lon="4.72553">
        <ele>172</ele>
        <time>2018-11-02T09:46:44Z</time>
      </trkpt>
      <trkpt lat="45.93319" lon="4.72549">
        <ele>172</ele>
        <time>2018-11-02T09:46:45Z</time>
      </trkpt>
      <trkpt lat="45.93322" lon="4.72543">
        <ele>172</ele>
        <time>2018-11-02T09:46:46Z</time>
      </trkpt>
      <trkpt lat="45.93326" lon="4.72539">
        <ele>172</ele>
        <time>2018-11-02T09:46:47Z</time>
      </trkpt>
      <trkpt lat="45.93331" lon="4.72533">
        <ele>172</ele>
        <time>2018-11-02T09:46:48Z</time>
      </trkpt>
      <trkpt lat="45.93335" lon="4.72528">
        <ele>172</ele>
        <time>2018-11-02T09:46:49Z</time>
      </trkpt>
      <trkpt lat="45.9334" lon="4.72524">
        <ele>172</ele>
        <time>2018-11-02T09:46:50Z</time>
      </trkpt>
      <trkpt lat="45.93345" lon="4.72518">
        <ele>172</ele>
        <time>2018-11-02T09:46:51Z</time>
      </trkpt>
      <trkpt lat="45.93349" lon="4.72513">
        <ele>172</ele>
        <time>2018-11-02T09:46:52Z</time>
      </trkpt>
      <trkpt lat="45.93354" lon="4.72508">
        <ele>172</ele>
        <time>2018-11-02T09:46:53Z</time>
      </trkpt>
      <trkpt lat="45.9336" lon="4.72502">
        <ele>172</ele>
        <time>2018-11-02T09:46:54Z</time>
      </trkpt>
      <trkpt lat="45.93364" lon="4.72496">
        <ele>173</ele>
        <time>2018-11-02T09:46:55Z</time>
      </trkpt>
      <trkpt lat="45.93367" lon="4.7249">
        <ele>173</ele>
        <time>2018-11-02T09:46:56Z</time>
      </trkpt>
      <trkpt lat="45.93372" lon="4.72486">
        <ele>173</ele>
        <time>2018-11-02T09:46:57Z</time>
      </trkpt>
      <trkpt lat="45.93376" lon="4.72481">
        <ele>173</ele>
        <time>2018-11-02T09:46:58Z</time>
      </trkpt>
      <trkpt lat="45.9338" lon="4.72475">
        <ele>173</ele>
        <time>2018-11-02T09:46:59Z</time>
      </trkpt>
      <trkpt lat="45.93382" lon="4.72469">
        <ele>173</ele>
        <time>2018-11-02T09:47:00Z</time>
      </trkpt>
      <trkpt lat="45.93386" lon="4.72464">
        <ele>173</ele>
        <time>2018-11-02T09:47:01Z</time>
      </trkpt>
      <trkpt lat="45.93391" lon="4.72454">
        <ele>173</ele>
        <time>2018-11-02T09:47:03Z</time>
      </trkpt>
      <trkpt lat="45.93393" lon="4.72448">
        <ele>173</ele>
        <time>2018-11-02T09:47:04Z</time>
      </trkpt>
      <trkpt lat="45.93396" lon="4.72437">
        <ele>173</ele>
        <time>2018-11-02T09:47:06Z</time>
      </trkpt>
      <trkpt lat="45.93398" lon="4.72431">
        <ele>173</ele>
        <time>2018-11-02T09:47:07Z</time>
      </trkpt>
      <trkpt lat="45.93401" lon="4.72425">
        <ele>173</ele>
        <time>2018-11-02T09:47:08Z</time>
      </trkpt>
      <trkpt lat="45.93404" lon="4.7242">
        <ele>174</ele>
        <time>2018-11-02T09:47:09Z</time>
      </trkpt>
      <trkpt lat="45.93409" lon="4.72416">
        <ele>174</ele>
        <time>2018-11-02T09:47:10Z</time>
      </trkpt>
      <trkpt lat="45.93413" lon="4.72414">
        <ele>174</ele>
        <time>2018-11-02T09:47:11Z</time>
      </trkpt>
      <trkpt lat="45.93418" lon="4.7241">
        <ele>174</ele>
        <time>2018-11-02T09:47:12Z</time>
      </trkpt>
      <trkpt lat="45.93422" lon="4.72408">
        <ele>174</ele>
        <time>2018-11-02T09:47:13Z</time>
      </trkpt>
      <trkpt lat="45.93427" lon="4.72406">
        <ele>174</ele>
        <time>2018-11-02T09:47:14Z</time>
      </trkpt>
      <trkpt lat="45.93434" lon="4.72403">
        <ele>174</ele>
        <time>2018-11-02T09:47:15Z</time>
      </trkpt>
      <trkpt lat="45.93439" lon="4.724">
        <ele>173</ele>
        <time>2018-11-02T09:47:16Z</time>
      </trkpt>
      <trkpt lat="45.93444" lon="4.72396">
        <ele>173</ele>
        <time>2018-11-02T09:47:17Z</time>
      </trkpt>
      <trkpt lat="45.93449" lon="4.72392">
        <ele>173</ele>
        <time>2018-11-02T09:47:18Z</time>
      </trkpt>
      <trkpt lat="45.93454" lon="4.72387">
        <ele>173</ele>
        <time>2018-11-02T09:47:19Z</time>
      </trkpt>
      <trkpt lat="45.93459" lon="4.72382">
        <ele>173</ele>
        <time>2018-11-02T09:47:20Z</time>
      </trkpt>
      <trkpt lat="45.93464" lon="4.72376">
        <ele>173</ele>
        <time>2018-11-02T09:47:21Z</time>
      </trkpt>
      <trkpt lat="45.93469" lon="4.7237">
        <ele>173</ele>
        <time>2018-11-02T09:47:22Z</time>
      </trkpt>
      <trkpt lat="45.93473" lon="4.72364">
        <ele>173</ele>
        <time>2018-11-02T09:47:23Z</time>
      </trkpt>
      <trkpt lat="45.93477" lon="4.72357">
        <ele>173</ele>
        <time>2018-11-02T09:47:24Z</time>
      </trkpt>
      <trkpt lat="45.93481" lon="4.72353">
        <ele>173</ele>
        <time>2018-11-02T09:47:25Z</time>
      </trkpt>
      <trkpt lat="45.93485" lon="4.72347">
        <ele>173</ele>
        <time>2018-11-02T09:47:26Z</time>
      </trkpt>
      <trkpt lat="45.93489" lon="4.72342">
        <ele>173</ele>
        <time>2018-11-02T09:47:27Z</time>
      </trkpt>
      <trkpt lat="45.93493" lon="4.72337">
        <ele>173</ele>
        <time>2018-11-02T09:47:28Z</time>
      </trkpt>
      <trkpt lat="45.93496" lon="4.72332">
        <ele>173</ele>
        <time>2018-11-02T09:47:29Z</time>
      </trkpt>
      <trkpt lat="45.93499" lon="4.72328">
        <ele>173</ele>
        <time>2018-11-02T09:47:30Z</time>
      </trkpt>
      <trkpt lat="45.93503" lon="4.72323">
        <ele>173</ele>
        <time>2018-11-02T09:47:31Z</time>
      </trkpt>
      <trkpt lat="45.93506" lon="4.72318">
        <ele>173</ele>
        <time>2018-11-02T09:47:32Z</time>
      </trkpt>
      <trkpt lat="45.9351" lon="4.72313">
        <ele>173</ele>
        <time>2018-11-02T09:47:33Z</time>
      </trkpt>
      <trkpt lat="45.93513" lon="4.72308">
        <ele>173</ele>
        <time>2018-11-02T09:47:34Z</time>
      </trkpt>
      <trkpt lat="45.93515" lon="4.72303">
        <ele>172</ele>
        <time>2018-11-02T09:47:35Z</time>
      </trkpt>
      <trkpt lat="45.9352" lon="4.72292">
        <ele>172</ele>
        <time>2018-11-02T09:47:37Z</time>
      </trkpt>
      <trkpt lat="45.93523" lon="4.72286">
        <ele>172</ele>
        <time>2018-11-02T09:47:38Z</time>
      </trkpt>
      <trkpt lat="45.93525" lon="4.72281">
        <ele>172</ele>
        <time>2018-11-02T09:47:39Z</time>
      </trkpt>
      <trkpt lat="45.93529" lon="4.72275">
        <ele>172</ele>
        <time>2018-11-02T09:47:40Z</time>
      </trkpt>
      <trkpt lat="45.93532" lon="4.72269">
        <ele>172</ele>
        <time>2018-11-02T09:47:41Z</time>
      </trkpt>
      <trkpt lat="45.93534" lon="4.72262">
        <ele>172</ele>
        <time>2018-11-02T09:47:42Z</time>
      </trkpt>
      <trkpt lat="45.93536" lon="4.72256">
        <ele>172</ele>
        <time>2018-11-02T09:47:43Z</time>
      </trkpt>
      <trkpt lat="45.93539" lon="4.7225">
        <ele>172</ele>
        <time>2018-11-02T09:47:44Z</time>
      </trkpt>
      <trkpt lat="45.9354" lon="4.72245">
        <ele>172</ele>
        <time>2018-11-02T09:47:45Z</time>
      </trkpt>
      <trkpt lat="45.93543" lon="4.72238">
        <ele>172</ele>
        <time>2018-11-02T09:47:46Z</time>
      </trkpt>
      <trkpt lat="45.93546" lon="4.72231">
        <ele>172</ele>
        <time>2018-11-02T09:47:47Z</time>
      </trkpt>
      <trkpt lat="45.9355" lon="4.72224">
        <ele>172</ele>
        <time>2018-11-02T09:47:48Z</time>
      </trkpt>
      <trkpt lat="45.93555" lon="4.72218">
        <ele>173</ele>
        <time>2018-11-02T09:47:49Z</time>
      </trkpt>
      <trkpt lat="45.93559" lon="4.72212">
        <ele>173</ele>
        <time>2018-11-02T09:47:50Z</time>
      </trkpt>
      <trkpt lat="45.93564" lon="4.72206">
        <ele>173</ele>
        <time>2018-11-02T09:47:51Z</time>
      </trkpt>
      <trkpt lat="45.93566" lon="4.72203">
        <ele>173</ele>
        <time>2018-11-02T09:47:52Z</time>
      </trkpt>
      <trkpt lat="45.93571" lon="4.72198">
        <ele>173</ele>
        <time>2018-11-02T09:47:53Z</time>
      </trkpt>
      <trkpt lat="45.93577" lon="4.72194">
        <ele>173</ele>
        <time>2018-11-02T09:47:54Z</time>
      </trkpt>
      <trkpt lat="45.93583" lon="4.7219">
        <ele>173</ele>
        <time>2018-11-02T09:47:55Z</time>
      </trkpt>
      <trkpt lat="45.93587" lon="4.72185">
        <ele>173</ele>
        <time>2018-11-02T09:47:56Z</time>
      </trkpt>
      <trkpt lat="45.93593" lon="4.72182">
        <ele>173</ele>
        <time>2018-11-02T09:47:57Z</time>
      </trkpt>
      <trkpt lat="45.93598" lon="4.72176">
        <ele>173</ele>
        <time>2018-11-02T09:47:58Z</time>
      </trkpt>
      <trkpt lat="45.93602" lon="4.7217">
        <ele>173</ele>
        <time>2018-11-02T09:47:59Z</time>
      </trkpt>
      <trkpt lat="45.93607" lon="4.72164">
        <ele>173</ele>
        <time>2018-11-02T09:48:00Z</time>
      </trkpt>
      <trkpt lat="45.93611" lon="4.72158">
        <ele>173</ele>
        <time>2018-11-02T09:48:01Z</time>
      </trkpt>
      <trkpt lat="45.93616" lon="4.72152">
        <ele>173</ele>
        <time>2018-11-02T09:48:02Z</time>
      </trkpt>
      <trkpt lat="45.93621" lon="4.72147">
        <ele>173</ele>
        <time>2018-11-02T09:48:03Z</time>
      </trkpt>
      <trkpt lat="45.93625" lon="4.72142">
        <ele>173</ele>
        <time>2018-11-02T09:48:04Z</time>
      </trkpt>
      <trkpt lat="45.93629" lon="4.72136">
        <ele>173</ele>
        <time>2018-11-02T09:48:05Z</time>
      </trkpt>
      <trkpt lat="45.93633" lon="4.72131">
        <ele>173</ele>
        <time>2018-11-02T09:48:06Z</time>
      </trkpt>
      <trkpt lat="45.93637" lon="4.72126">
        <ele>173</ele>
        <time>2018-11-02T09:48:07Z</time>
      </trkpt>
      <trkpt lat="45.93642" lon="4.72119">
        <ele>173</ele>
        <time>2018-11-02T09:48:08Z</time>
      </trkpt>
      <trkpt lat="45.93645" lon="4.72113">
        <ele>173</ele>
        <time>2018-11-02T09:48:09Z</time>
      </trkpt>
      <trkpt lat="45.93649" lon="4.72107">
        <ele>173</ele>
        <time>2018-11-02T09:48:10Z</time>
      </trkpt>
      <trkpt lat="45.93653" lon="4.72101">
        <ele>173</ele>
        <time>2018-11-02T09:48:11Z</time>
      </trkpt>
      <trkpt lat="45.93656" lon="4.72093">
        <ele>173</ele>
        <time>2018-11-02T09:48:12Z</time>
      </trkpt>
      <trkpt lat="45.9366" lon="4.72087">
        <ele>172</ele>
        <time>2018-11-02T09:48:13Z</time>
      </trkpt>
      <trkpt lat="45.93663" lon="4.7208">
        <ele>172</ele>
        <time>2018-11-02T09:48:14Z</time>
      </trkpt>
      <trkpt lat="45.93667" lon="4.72073">
        <ele>172</ele>
        <time>2018-11-02T09:48:15Z</time>
      </trkpt>
      <trkpt lat="45.93671" lon="4.72066">
        <ele>172</ele>
        <time>2018-11-02T09:48:16Z</time>
      </trkpt>
      <trkpt lat="45.93675" lon="4.7206">
        <ele>172</ele>
        <time>2018-11-02T09:48:17Z</time>
      </trkpt>
      <trkpt lat="45.93678" lon="4.72053">
        <ele>172</ele>
        <time>2018-11-02T09:48:18Z</time>
      </trkpt>
      <trkpt lat="45.93681" lon="4.72047">
        <ele>172</ele>
        <time>2018-11-02T09:48:19Z</time>
      </trkpt>
      <trkpt lat="45.93684" lon="4.72041">
        <ele>173</ele>
        <time>2018-11-02T09:48:20Z</time>
      </trkpt>
      <trkpt lat="45.93685" lon="4.72034">
        <ele>173</ele>
        <time>2018-11-02T09:48:21Z</time>
      </trkpt>
      <trkpt lat="45.93686" lon="4.72027">
        <ele>173</ele>
        <time>2018-11-02T09:48:22Z</time>
      </trkpt>
      <trkpt lat="45.93684" lon="4.72021">
        <ele>173</ele>
        <time>2018-11-02T09:48:23Z</time>
      </trkpt>
      <trkpt lat="45.93683" lon="4.72015">
        <ele>173</ele>
        <time>2018-11-02T09:48:24Z</time>
      </trkpt>
      <trkpt lat="45.9368" lon="4.72009">
        <ele>173</ele>
        <time>2018-11-02T09:48:25Z</time>
      </trkpt>
      <trkpt lat="45.93679" lon="4.72003">
        <ele>173</ele>
        <time>2018-11-02T09:48:26Z</time>
      </trkpt>
      <trkpt lat="45.93678" lon="4.71996">
        <ele>173</ele>
        <time>2018-11-02T09:48:27Z</time>
      </trkpt>
      <trkpt lat="45.93675" lon="4.7199">
        <ele>173</ele>
        <time>2018-11-02T09:48:28Z</time>
      </trkpt>
      <trkpt lat="45.93674" lon="4.71984">
        <ele>173</ele>
        <time>2018-11-02T09:48:29Z</time>
      </trkpt>
      <trkpt lat="45.93671" lon="4.71978">
        <ele>173</ele>
        <time>2018-11-02T09:48:30Z</time>
      </trkpt>
      <trkpt lat="45.93669" lon="4.71966">
        <ele>173</ele>
        <time>2018-11-02T09:48:54Z</time>
      </trkpt>
      <trkpt lat="45.93669" lon="4.71965">
        <ele>173</ele>
        <time>2018-11-02T09:48:55Z</time>
      </trkpt>
      <trkpt lat="45.93665" lon="4.71957">
        <ele>175</ele>
        <time>2018-11-02T09:49:01Z</time>
      </trkpt>
      <trkpt lat="45.93663" lon="4.71955">
        <ele>175</ele>
        <time>2018-11-02T09:49:02Z</time>
      </trkpt>
      <trkpt lat="45.9366" lon="4.71943">
        <ele>175</ele>
        <time>2018-11-02T09:49:04Z</time>
      </trkpt>
      <trkpt lat="45.93658" lon="4.71938">
        <ele>175</ele>
        <time>2018-11-02T09:49:05Z</time>
      </trkpt>
      <trkpt lat="45.93656" lon="4.71931">
        <ele>175</ele>
        <time>2018-11-02T09:49:06Z</time>
      </trkpt>
      <trkpt lat="45.93653" lon="4.71925">
        <ele>175</ele>
        <time>2018-11-02T09:49:07Z</time>
      </trkpt>
      <trkpt lat="45.9365" lon="4.71918">
        <ele>175</ele>
        <time>2018-11-02T09:49:08Z</time>
      </trkpt>
      <trkpt lat="45.93648" lon="4.71912">
        <ele>176</ele>
        <time>2018-11-02T09:49:09Z</time>
      </trkpt>
      <trkpt lat="45.93645" lon="4.71907">
        <ele>177</ele>
        <time>2018-11-02T09:49:10Z</time>
      </trkpt>
      <trkpt lat="45.93642" lon="4.719">
        <ele>177</ele>
        <time>2018-11-02T09:49:11Z</time>
      </trkpt>
      <trkpt lat="45.9364" lon="4.71894">
        <ele>177</ele>
        <time>2018-11-02T09:49:12Z</time>
      </trkpt>
      <trkpt lat="45.93637" lon="4.71888">
        <ele>177</ele>
        <time>2018-11-02T09:49:13Z</time>
      </trkpt>
      <trkpt lat="45.93635" lon="4.71882">
        <ele>177</ele>
        <time>2018-11-02T09:49:14Z</time>
      </trkpt>
      <trkpt lat="45.93633" lon="4.71876">
        <ele>177</ele>
        <time>2018-11-02T09:49:15Z</time>
      </trkpt>
      <trkpt lat="45.93628" lon="4.71866">
        <ele>178</ele>
        <time>2018-11-02T09:49:17Z</time>
      </trkpt>
      <trkpt lat="45.93626" lon="4.71859">
        <ele>178</ele>
        <time>2018-11-02T09:49:18Z</time>
      </trkpt>
      <trkpt lat="45.93623" lon="4.71849">
        <ele>178</ele>
        <time>2018-11-02T09:49:20Z</time>
      </trkpt>
      <trkpt lat="45.93622" lon="4.71844">
        <ele>178</ele>
        <time>2018-11-02T09:49:21Z</time>
      </trkpt>
      <trkpt lat="45.9362" lon="4.71834">
        <ele>178</ele>
        <time>2018-11-02T09:49:23Z</time>
      </trkpt>
      <trkpt lat="45.93619" lon="4.71831">
        <ele>179</ele>
        <time>2018-11-02T09:49:24Z</time>
      </trkpt>
      <trkpt lat="45.93613" lon="4.71821">
        <ele>179</ele>
        <time>2018-11-02T09:49:28Z</time>
      </trkpt>
      <trkpt lat="45.9361" lon="4.71819">
        <ele>179</ele>
        <time>2018-11-02T09:49:29Z</time>
      </trkpt>
      <trkpt lat="45.93607" lon="4.71818">
        <ele>179</ele>
        <time>2018-11-02T09:49:30Z</time>
      </trkpt>
      <trkpt lat="45.93601" lon="4.71818">
        <ele>179</ele>
        <time>2018-11-02T09:49:31Z</time>
      </trkpt>
      <trkpt lat="45.93597" lon="4.7182">
        <ele>179</ele>
        <time>2018-11-02T09:49:32Z</time>
      </trkpt>
      <trkpt lat="45.93592" lon="4.71828">
        <ele>180</ele>
        <time>2018-11-02T09:49:33Z</time>
      </trkpt>
      <trkpt lat="45.93587" lon="4.7183">
        <ele>180</ele>
        <time>2018-11-02T09:49:34Z</time>
      </trkpt>
      <trkpt lat="45.93583" lon="4.71834">
        <ele>180</ele>
        <time>2018-11-02T09:49:35Z</time>
      </trkpt>
      <trkpt lat="45.93574" lon="4.71834">
        <ele>180</ele>
        <time>2018-11-02T09:49:37Z</time>
      </trkpt>
      <trkpt lat="45.9357" lon="4.71835">
        <ele>179</ele>
        <time>2018-11-02T09:49:38Z</time>
      </trkpt>
      <trkpt lat="45.93566" lon="4.71835">
        <ele>179</ele>
        <time>2018-11-02T09:49:39Z</time>
      </trkpt>
      <trkpt lat="45.93561" lon="4.71835">
        <ele>179</ele>
        <time>2018-11-02T09:49:40Z</time>
      </trkpt>
      <trkpt lat="45.93553" lon="4.71834">
        <ele>179</ele>
        <time>2018-11-02T09:49:42Z</time>
      </trkpt>
      <trkpt lat="45.93549" lon="4.71835">
        <ele>179</ele>
        <time>2018-11-02T09:49:43Z</time>
      </trkpt>
      <trkpt lat="45.93543" lon="4.71836">
        <ele>179</ele>
        <time>2018-11-02T09:49:44Z</time>
      </trkpt>
      <trkpt lat="45.93539" lon="4.71837">
        <ele>179</ele>
        <time>2018-11-02T09:49:45Z</time>
      </trkpt>
      <trkpt lat="45.93531" lon="4.7184">
        <ele>179</ele>
        <time>2018-11-02T09:49:47Z</time>
      </trkpt>
      <trkpt lat="45.93526" lon="4.71842">
        <ele>179</ele>
        <time>2018-11-02T09:49:48Z</time>
      </trkpt>
      <trkpt lat="45.93518" lon="4.71843">
        <ele>179</ele>
        <time>2018-11-02T09:49:50Z</time>
      </trkpt>
      <trkpt lat="45.93515" lon="4.71844">
        <ele>179</ele>
        <time>2018-11-02T09:49:51Z</time>
      </trkpt>
      <trkpt lat="45.93506" lon="4.71844">
        <ele>179</ele>
        <time>2018-11-02T09:49:53Z</time>
      </trkpt>
      <trkpt lat="45.93501" lon="4.71844">
        <ele>179</ele>
        <time>2018-11-02T09:49:54Z</time>
      </trkpt>
      <trkpt lat="45.93496" lon="4.71845">
        <ele>179</ele>
        <time>2018-11-02T09:49:55Z</time>
      </trkpt>
      <trkpt lat="45.93492" lon="4.71846">
        <ele>180</ele>
        <time>2018-11-02T09:49:56Z</time>
      </trkpt>
      <trkpt lat="45.93487" lon="4.71847">
        <ele>180</ele>
        <time>2018-11-02T09:49:57Z</time>
      </trkpt>
      <trkpt lat="45.93482" lon="4.71847">
        <ele>180</ele>
        <time>2018-11-02T09:49:58Z</time>
      </trkpt>
      <trkpt lat="45.93473" lon="4.71848">
        <ele>180</ele>
        <time>2018-11-02T09:50:00Z</time>
      </trkpt>
      <trkpt lat="45.93469" lon="4.71847">
        <ele>180</ele>
        <time>2018-11-02T09:50:01Z</time>
      </trkpt>
      <trkpt lat="45.93463" lon="4.71846">
        <ele>180</ele>
        <time>2018-11-02T09:50:02Z</time>
      </trkpt>
      <trkpt lat="45.93458" lon="4.71845">
        <ele>181</ele>
        <time>2018-11-02T09:50:03Z</time>
      </trkpt>
      <trkpt lat="45.93454" lon="4.71841">
        <ele>181</ele>
        <time>2018-11-02T09:50:04Z</time>
      </trkpt>
      <trkpt lat="45.93451" lon="4.71837">
        <ele>181</ele>
        <time>2018-11-02T09:50:05Z</time>
      </trkpt>
      <trkpt lat="45.93447" lon="4.71829">
        <ele>182</ele>
        <time>2018-11-02T09:50:07Z</time>
      </trkpt>
      <trkpt lat="45.93445" lon="4.71824">
        <ele>182</ele>
        <time>2018-11-02T09:50:08Z</time>
      </trkpt>
      <trkpt lat="45.9344" lon="4.71816">
        <ele>182</ele>
        <time>2018-11-02T09:50:10Z</time>
      </trkpt>
      <trkpt lat="45.93439" lon="4.71813">
        <ele>182</ele>
        <time>2018-11-02T09:50:11Z</time>
      </trkpt>
      <trkpt lat="45.93436" lon="4.71803">
        <ele>182</ele>
        <time>2018-11-02T09:50:13Z</time>
      </trkpt>
      <trkpt lat="45.93434" lon="4.71797">
        <ele>182</ele>
        <time>2018-11-02T09:50:14Z</time>
      </trkpt>
      <trkpt lat="45.9343" lon="4.71788">
        <ele>182</ele>
        <time>2018-11-02T09:50:16Z</time>
      </trkpt>
      <trkpt lat="45.93428" lon="4.71783">
        <ele>182</ele>
        <time>2018-11-02T09:50:17Z</time>
      </trkpt>
      <trkpt lat="45.93423" lon="4.71774">
        <ele>182</ele>
        <time>2018-11-02T09:50:19Z</time>
      </trkpt>
      <trkpt lat="45.93421" lon="4.7177">
        <ele>182</ele>
        <time>2018-11-02T09:50:20Z</time>
      </trkpt>
      <trkpt lat="45.93417" lon="4.7176">
        <ele>182</ele>
        <time>2018-11-02T09:50:22Z</time>
      </trkpt>
      <trkpt lat="45.93415" lon="4.71755">
        <ele>183</ele>
        <time>2018-11-02T09:50:23Z</time>
      </trkpt>
      <trkpt lat="45.93411" lon="4.71746">
        <ele>183</ele>
        <time>2018-11-02T09:50:25Z</time>
      </trkpt>
      <trkpt lat="45.93409" lon="4.71741">
        <ele>184</ele>
        <time>2018-11-02T09:50:26Z</time>
      </trkpt>
      <trkpt lat="45.93405" lon="4.71731">
        <ele>184</ele>
        <time>2018-11-02T09:50:28Z</time>
      </trkpt>
      <trkpt lat="45.93402" lon="4.71727">
        <ele>184</ele>
        <time>2018-11-02T09:50:29Z</time>
      </trkpt>
      <trkpt lat="45.93397" lon="4.71719">
        <ele>184</ele>
        <time>2018-11-02T09:50:31Z</time>
      </trkpt>
      <trkpt lat="45.93395" lon="4.71715">
        <ele>184</ele>
        <time>2018-11-02T09:50:32Z</time>
      </trkpt>
      <trkpt lat="45.9339" lon="4.71707">
        <ele>184</ele>
        <time>2018-11-02T09:50:34Z</time>
      </trkpt>
      <trkpt lat="45.93388" lon="4.71702">
        <ele>184</ele>
        <time>2018-11-02T09:50:35Z</time>
      </trkpt>
      <trkpt lat="45.93384" lon="4.71694">
        <ele>184</ele>
        <time>2018-11-02T09:50:37Z</time>
      </trkpt>
      <trkpt lat="45.93382" lon="4.71689">
        <ele>185</ele>
        <time>2018-11-02T09:50:38Z</time>
      </trkpt>
      <trkpt lat="45.93379" lon="4.71681">
        <ele>185</ele>
        <time>2018-11-02T09:50:40Z</time>
      </trkpt>
      <trkpt lat="45.93377" lon="4.71676">
        <ele>185</ele>
        <time>2018-11-02T09:50:41Z</time>
      </trkpt>
      <trkpt lat="45.93373" lon="4.71666">
        <ele>185</ele>
        <time>2018-11-02T09:50:43Z</time>
      </trkpt>
      <trkpt lat="45.93371" lon="4.71662">
        <ele>185</ele>
        <time>2018-11-02T09:50:44Z</time>
      </trkpt>
      <trkpt lat="45.93367" lon="4.71654">
        <ele>185</ele>
        <time>2018-11-02T09:50:46Z</time>
      </trkpt>
      <trkpt lat="45.93364" lon="4.71649">
        <ele>185</ele>
        <time>2018-11-02T09:50:47Z</time>
      </trkpt>
      <trkpt lat="45.9336" lon="4.71641">
        <ele>185</ele>
        <time>2018-11-02T09:50:49Z</time>
      </trkpt>
      <trkpt lat="45.93358" lon="4.71636">
        <ele>185</ele>
        <time>2018-11-02T09:50:50Z</time>
      </trkpt>
      <trkpt lat="45.93354" lon="4.71627">
        <ele>185</ele>
        <time>2018-11-02T09:50:52Z</time>
      </trkpt>
      <trkpt lat="45.93352" lon="4.71622">
        <ele>185</ele>
        <time>2018-11-02T09:50:53Z</time>
      </trkpt>
      <trkpt lat="45.93349" lon="4.71612">
        <ele>185</ele>
        <time>2018-11-02T09:50:55Z</time>
      </trkpt>
      <trkpt lat="45.93348" lon="4.71606">
        <ele>185</ele>
        <time>2018-11-02T09:50:56Z</time>
      </trkpt>
      <trkpt lat="45.93345" lon="4.71595">
        <ele>185</ele>
        <time>2018-11-02T09:50:58Z</time>
      </trkpt>
      <trkpt lat="45.93343" lon="4.7159">
        <ele>185</ele>
        <time>2018-11-02T09:50:59Z</time>
      </trkpt>
      <trkpt lat="45.93339" lon="4.71579">
        <ele>185</ele>
        <time>2018-11-02T09:51:01Z</time>
      </trkpt>
      <trkpt lat="45.93337" lon="4.71573">
        <ele>184</ele>
        <time>2018-11-02T09:51:02Z</time>
      </trkpt>
      <trkpt lat="45.93332" lon="4.71562">
        <ele>185</ele>
        <time>2018-11-02T09:51:04Z</time>
      </trkpt>
      <trkpt lat="45.9333" lon="4.71557">
        <ele>184</ele>
        <time>2018-11-02T09:51:05Z</time>
      </trkpt>
      <trkpt lat="45.93326" lon="4.71545">
        <ele>184</ele>
        <time>2018-11-02T09:51:07Z</time>
      </trkpt>
      <trkpt lat="45.93323" lon="4.7154">
        <ele>184</ele>
        <time>2018-11-02T09:51:08Z</time>
      </trkpt>
      <trkpt lat="45.93319" lon="4.71529">
        <ele>184</ele>
        <time>2018-11-02T09:51:10Z</time>
      </trkpt>
      <trkpt lat="45.93317" lon="4.71523">
        <ele>184</ele>
        <time>2018-11-02T09:51:11Z</time>
      </trkpt>
      <trkpt lat="45.93315" lon="4.71517">
        <ele>184</ele>
        <time>2018-11-02T09:51:12Z</time>
      </trkpt>
      <trkpt lat="45.93312" lon="4.71511">
        <ele>184</ele>
        <time>2018-11-02T09:51:13Z</time>
      </trkpt>
      <trkpt lat="45.93309" lon="4.71505">
        <ele>184</ele>
        <time>2018-11-02T09:51:14Z</time>
      </trkpt>
      <trkpt lat="45.93306" lon="4.71499">
        <ele>185</ele>
        <time>2018-11-02T09:51:15Z</time>
      </trkpt>
      <trkpt lat="45.93302" lon="4.71488">
        <ele>185</ele>
        <time>2018-11-02T09:51:17Z</time>
      </trkpt>
      <trkpt lat="45.933" lon="4.71482">
        <ele>185</ele>
        <time>2018-11-02T09:51:18Z</time>
      </trkpt>
      <trkpt lat="45.93297" lon="4.71477">
        <ele>185</ele>
        <time>2018-11-02T09:51:19Z</time>
      </trkpt>
      <trkpt lat="45.93294" lon="4.71471">
        <ele>185</ele>
        <time>2018-11-02T09:51:20Z</time>
      </trkpt>
      <trkpt lat="45.93293" lon="4.71465">
        <ele>185</ele>
        <time>2018-11-02T09:51:21Z</time>
      </trkpt>
      <trkpt lat="45.9329" lon="4.71459">
        <ele>185</ele>
        <time>2018-11-02T09:51:22Z</time>
      </trkpt>
      <trkpt lat="45.93285" lon="4.71449">
        <ele>185</ele>
        <time>2018-11-02T09:51:24Z</time>
      </trkpt>
      <trkpt lat="45.93283" lon="4.71443">
        <ele>185</ele>
        <time>2018-11-02T09:51:25Z</time>
      </trkpt>
      <trkpt lat="45.93278" lon="4.71434">
        <ele>185</ele>
        <time>2018-11-02T09:51:27Z</time>
      </trkpt>
      <trkpt lat="45.93276" lon="4.71427">
        <ele>185</ele>
        <time>2018-11-02T09:51:28Z</time>
      </trkpt>
      <trkpt lat="45.93271" lon="4.71419">
        <ele>185</ele>
        <time>2018-11-02T09:51:31Z</time>
      </trkpt>
      <trkpt lat="45.93269" lon="4.71417">
        <ele>186</ele>
        <time>2018-11-02T09:51:32Z</time>
      </trkpt>
      <trkpt lat="45.93266" lon="4.7141">
        <ele>186</ele>
        <time>2018-11-02T09:51:43Z</time>
      </trkpt>
      <trkpt lat="45.93263" lon="4.71403">
        <ele>186</ele>
        <time>2018-11-02T09:51:44Z</time>
      </trkpt>
      <trkpt lat="45.93258" lon="4.71393">
        <ele>186</ele>
        <time>2018-11-02T09:51:46Z</time>
      </trkpt>
      <trkpt lat="45.93256" lon="4.71389">
        <ele>186</ele>
        <time>2018-11-02T09:51:47Z</time>
      </trkpt>
      <trkpt lat="45.93251" lon="4.71378">
        <ele>186</ele>
        <time>2018-11-02T09:51:49Z</time>
      </trkpt>
      <trkpt lat="45.93249" lon="4.71374">
        <ele>186</ele>
        <time>2018-11-02T09:51:50Z</time>
      </trkpt>
      <trkpt lat="45.93246" lon="4.71365">
        <ele>186</ele>
        <time>2018-11-02T09:51:52Z</time>
      </trkpt>
      <trkpt lat="45.93244" lon="4.7136">
        <ele>186</ele>
        <time>2018-11-02T09:51:53Z</time>
      </trkpt>
      <trkpt lat="45.9324" lon="4.7135">
        <ele>186</ele>
        <time>2018-11-02T09:51:55Z</time>
      </trkpt>
      <trkpt lat="45.93237" lon="4.71344">
        <ele>186</ele>
        <time>2018-11-02T09:51:56Z</time>
      </trkpt>
      <trkpt lat="45.93234" lon="4.71338">
        <ele>186</ele>
        <time>2018-11-02T09:51:57Z</time>
      </trkpt>
      <trkpt lat="45.93231" lon="4.71332">
        <ele>187</ele>
        <time>2018-11-02T09:51:58Z</time>
      </trkpt>
      <trkpt lat="45.93225" lon="4.71322">
        <ele>187</ele>
        <time>2018-11-02T09:52:00Z</time>
      </trkpt>
      <trkpt lat="45.93222" lon="4.71317">
        <ele>187</ele>
        <time>2018-11-02T09:52:01Z</time>
      </trkpt>
      <trkpt lat="45.93219" lon="4.71311">
        <ele>188</ele>
        <time>2018-11-02T09:52:02Z</time>
      </trkpt>
      <trkpt lat="45.93216" lon="4.71306">
        <ele>188</ele>
        <time>2018-11-02T09:52:03Z</time>
      </trkpt>
      <trkpt lat="45.93213" lon="4.713">
        <ele>188</ele>
        <time>2018-11-02T09:52:04Z</time>
      </trkpt>
      <trkpt lat="45.9321" lon="4.71294">
        <ele>188</ele>
        <time>2018-11-02T09:52:05Z</time>
      </trkpt>
      <trkpt lat="45.93207" lon="4.71288">
        <ele>188</ele>
        <time>2018-11-02T09:52:06Z</time>
      </trkpt>
      <trkpt lat="45.93203" lon="4.71281">
        <ele>188</ele>
        <time>2018-11-02T09:52:07Z</time>
      </trkpt>
      <trkpt lat="45.93199" lon="4.71277">
        <ele>188</ele>
        <time>2018-11-02T09:52:08Z</time>
      </trkpt>
      <trkpt lat="45.93197" lon="4.7127">
        <ele>188</ele>
        <time>2018-11-02T09:52:09Z</time>
      </trkpt>
      <trkpt lat="45.93195" lon="4.71264">
        <ele>189</ele>
        <time>2018-11-02T09:52:10Z</time>
      </trkpt>
      <trkpt lat="45.93194" lon="4.71257">
        <ele>189</ele>
        <time>2018-11-02T09:52:11Z</time>
      </trkpt>
      <trkpt lat="45.93191" lon="4.71252">
        <ele>189</ele>
        <time>2018-11-02T09:52:12Z</time>
      </trkpt>
      <trkpt lat="45.93188" lon="4.71247">
        <ele>190</ele>
        <time>2018-11-02T09:52:13Z</time>
      </trkpt>
      <trkpt lat="45.93183" lon="4.71235">
        <ele>190</ele>
        <time>2018-11-02T09:52:15Z</time>
      </trkpt>
      <trkpt lat="45.93181" lon="4.71229">
        <ele>190</ele>
        <time>2018-11-02T09:52:16Z</time>
      </trkpt>
      <trkpt lat="45.93179" lon="4.71223">
        <ele>190</ele>
        <time>2018-11-02T09:52:17Z</time>
      </trkpt>
      <trkpt lat="45.93182" lon="4.71211">
        <ele>190</ele>
        <time>2018-11-02T09:52:18Z</time>
      </trkpt>
      <trkpt lat="45.93178" lon="4.71201">
        <ele>190</ele>
        <time>2018-11-02T09:52:20Z</time>
      </trkpt>
      <trkpt lat="45.93174" lon="4.71197">
        <ele>190</ele>
        <time>2018-11-02T09:52:21Z</time>
      </trkpt>
      <trkpt lat="45.9317" lon="4.71186">
        <ele>190</ele>
        <time>2018-11-02T09:52:23Z</time>
      </trkpt>
      <trkpt lat="45.93169" lon="4.7118">
        <ele>190</ele>
        <time>2018-11-02T09:52:24Z</time>
      </trkpt>
      <trkpt lat="45.93165" lon="4.71169">
        <ele>190</ele>
        <time>2018-11-02T09:52:26Z</time>
      </trkpt>
      <trkpt lat="45.93162" lon="4.71164">
        <ele>190</ele>
        <time>2018-11-02T09:52:27Z</time>
      </trkpt>
      <trkpt lat="45.93157" lon="4.71154">
        <ele>191</ele>
        <time>2018-11-02T09:52:29Z</time>
      </trkpt>
      <trkpt lat="45.93154" lon="4.71149">
        <ele>191</ele>
        <time>2018-11-02T09:52:30Z</time>
      </trkpt>
      <trkpt lat="45.93149" lon="4.71146">
        <ele>191</ele>
        <time>2018-11-02T09:52:31Z</time>
      </trkpt>
      <trkpt lat="45.93146" lon="4.71141">
        <ele>191</ele>
        <time>2018-11-02T09:52:32Z</time>
      </trkpt>
      <trkpt lat="45.93143" lon="4.71131">
        <ele>192</ele>
        <time>2018-11-02T09:52:34Z</time>
      </trkpt>
      <trkpt lat="45.93141" lon="4.71126">
        <ele>192</ele>
        <time>2018-11-02T09:52:35Z</time>
      </trkpt>
      <trkpt lat="45.93137" lon="4.71116">
        <ele>192</ele>
        <time>2018-11-02T09:52:37Z</time>
      </trkpt>
      <trkpt lat="45.93134" lon="4.71111">
        <ele>192</ele>
        <time>2018-11-02T09:52:38Z</time>
      </trkpt>
      <trkpt lat="45.93129" lon="4.71101">
        <ele>192</ele>
        <time>2018-11-02T09:52:40Z</time>
      </trkpt>
      <trkpt lat="45.93127" lon="4.71096">
        <ele>192</ele>
        <time>2018-11-02T09:52:41Z</time>
      </trkpt>
      <trkpt lat="45.93122" lon="4.71087">
        <ele>192</ele>
        <time>2018-11-02T09:52:43Z</time>
      </trkpt>
      <trkpt lat="45.93119" lon="4.71082">
        <ele>195</ele>
        <time>2018-11-02T09:52:44Z</time>
      </trkpt>
      <trkpt lat="45.93115" lon="4.71073">
        <ele>195</ele>
        <time>2018-11-02T09:52:46Z</time>
      </trkpt>
      <trkpt lat="45.93112" lon="4.71069">
        <ele>195</ele>
        <time>2018-11-02T09:52:47Z</time>
      </trkpt>
      <trkpt lat="45.93107" lon="4.7106">
        <ele>195</ele>
        <time>2018-11-02T09:52:49Z</time>
      </trkpt>
      <trkpt lat="45.93104" lon="4.71056">
        <ele>195</ele>
        <time>2018-11-02T09:52:50Z</time>
      </trkpt>
      <trkpt lat="45.93098" lon="4.71048">
        <ele>196</ele>
        <time>2018-11-02T09:52:52Z</time>
      </trkpt>
      <trkpt lat="45.93095" lon="4.71043">
        <ele>196</ele>
        <time>2018-11-02T09:52:53Z</time>
      </trkpt>
      <trkpt lat="45.93089" lon="4.71035">
        <ele>196</ele>
        <time>2018-11-02T09:52:55Z</time>
      </trkpt>
      <trkpt lat="45.93087" lon="4.71032">
        <ele>196</ele>
        <time>2018-11-02T09:52:56Z</time>
      </trkpt>
      <trkpt lat="45.93081" lon="4.71024">
        <ele>197</ele>
        <time>2018-11-02T09:52:58Z</time>
      </trkpt>
      <trkpt lat="45.93078" lon="4.7102">
        <ele>197</ele>
        <time>2018-11-02T09:52:59Z</time>
      </trkpt>
      <trkpt lat="45.93073" lon="4.71012">
        <ele>197</ele>
        <time>2018-11-02T09:53:01Z</time>
      </trkpt>
      <trkpt lat="45.93071" lon="4.71008">
        <ele>197</ele>
        <time>2018-11-02T09:53:02Z</time>
      </trkpt>
      <trkpt lat="45.93067" lon="4.70998">
        <ele>198</ele>
        <time>2018-11-02T09:53:04Z</time>
      </trkpt>
      <trkpt lat="45.93065" lon="4.70993">
        <ele>198</ele>
        <time>2018-11-02T09:53:05Z</time>
      </trkpt>
      <trkpt lat="45.93063" lon="4.70983">
        <ele>198</ele>
        <time>2018-11-02T09:53:07Z</time>
      </trkpt>
      <trkpt lat="45.93063" lon="4.70977">
        <ele>199</ele>
        <time>2018-11-02T09:53:08Z</time>
      </trkpt>
      <trkpt lat="45.9306" lon="4.70967">
        <ele>199</ele>
        <time>2018-11-02T09:53:10Z</time>
      </trkpt>
      <trkpt lat="45.93059" lon="4.70962">
        <ele>199</ele>
        <time>2018-11-02T09:53:11Z</time>
      </trkpt>
      <trkpt lat="45.93055" lon="4.70952">
        <ele>199</ele>
        <time>2018-11-02T09:53:13Z</time>
      </trkpt>
      <trkpt lat="45.93053" lon="4.70947">
        <ele>199</ele>
        <time>2018-11-02T09:53:14Z</time>
      </trkpt>
      <trkpt lat="45.93048" lon="4.70938">
        <ele>199</ele>
        <time>2018-11-02T09:53:16Z</time>
      </trkpt>
      <trkpt lat="45.93046" lon="4.70934">
        <ele>199</ele>
        <time>2018-11-02T09:53:17Z</time>
      </trkpt>
      <trkpt lat="45.93041" lon="4.70925">
        <ele>199</ele>
        <time>2018-11-02T09:53:19Z</time>
      </trkpt>
      <trkpt lat="45.9304" lon="4.70922">
        <ele>199</ele>
        <time>2018-11-02T09:53:20Z</time>
      </trkpt>
      <trkpt lat="45.93035" lon="4.70911">
        <ele>201</ele>
        <time>2018-11-02T09:53:22Z</time>
      </trkpt>
      <trkpt lat="45.93034" lon="4.70908">
        <ele>201</ele>
        <time>2018-11-02T09:53:23Z</time>
      </trkpt>
      <trkpt lat="45.93029" lon="4.70898">
        <ele>201</ele>
        <time>2018-11-02T09:53:26Z</time>
      </trkpt>
      <trkpt lat="45.93027" lon="4.70895">
        <ele>201</ele>
        <time>2018-11-02T09:53:27Z</time>
      </trkpt>
      <trkpt lat="45.93024" lon="4.70887">
        <ele>201</ele>
        <time>2018-11-02T09:53:29Z</time>
      </trkpt>
      <trkpt lat="45.93022" lon="4.70883">
        <ele>201</ele>
        <time>2018-11-02T09:53:30Z</time>
      </trkpt>
      <trkpt lat="45.93019" lon="4.70874">
        <ele>202</ele>
        <time>2018-11-02T09:53:32Z</time>
      </trkpt>
      <trkpt lat="45.93017" lon="4.7087">
        <ele>202</ele>
        <time>2018-11-02T09:53:33Z</time>
      </trkpt>
      <trkpt lat="45.93014" lon="4.70862">
        <ele>202</ele>
        <time>2018-11-02T09:53:35Z</time>
      </trkpt>
      <trkpt lat="45.93012" lon="4.70859">
        <ele>202</ele>
        <time>2018-11-02T09:53:36Z</time>
      </trkpt>
      <trkpt lat="45.93008" lon="4.70849">
        <ele>202</ele>
        <time>2018-11-02T09:53:39Z</time>
      </trkpt>
      <trkpt lat="45.93007" lon="4.70847">
        <ele>202</ele>
        <time>2018-11-02T09:53:40Z</time>
      </trkpt>
      <trkpt lat="45.93002" lon="4.70838">
        <ele>203</ele>
        <time>2018-11-02T09:53:43Z</time>
      </trkpt>
      <trkpt lat="45.93" lon="4.70835">
        <ele>203</ele>
        <time>2018-11-02T09:53:44Z</time>
      </trkpt>
      <trkpt lat="45.92995" lon="4.70825">
        <ele>203</ele>
        <time>2018-11-02T09:53:47Z</time>
      </trkpt>
      <trkpt lat="45.92994" lon="4.70821">
        <ele>203</ele>
        <time>2018-11-02T09:53:48Z</time>
      </trkpt>
      <trkpt lat="45.92989" lon="4.70812">
        <ele>203</ele>
        <time>2018-11-02T09:53:51Z</time>
      </trkpt>
      <trkpt lat="45.92988" lon="4.70808">
        <ele>204</ele>
        <time>2018-11-02T09:53:52Z</time>
      </trkpt>
      <trkpt lat="45.92984" lon="4.70798">
        <ele>204</ele>
        <time>2018-11-02T09:53:55Z</time>
      </trkpt>
      <trkpt lat="45.92983" lon="4.70794">
        <ele>204</ele>
        <time>2018-11-02T09:53:56Z</time>
      </trkpt>
      <trkpt lat="45.92979" lon="4.70785">
        <ele>204</ele>
        <time>2018-11-02T09:53:59Z</time>
      </trkpt>
      <trkpt lat="45.92977" lon="4.70781">
        <ele>204</ele>
        <time>2018-11-02T09:54:00Z</time>
      </trkpt>
      <trkpt lat="45.92974" lon="4.70772">
        <ele>204</ele>
        <time>2018-11-02T09:54:03Z</time>
      </trkpt>
      <trkpt lat="45.92973" lon="4.70769">
        <ele>204</ele>
        <time>2018-11-02T09:54:04Z</time>
      </trkpt>
      <trkpt lat="45.9297" lon="4.7076">
        <ele>204</ele>
        <time>2018-11-02T09:54:07Z</time>
      </trkpt>
      <trkpt lat="45.92969" lon="4.70757">
        <ele>204</ele>
        <time>2018-11-02T09:54:08Z</time>
      </trkpt>
      <trkpt lat="45.92966" lon="4.70747">
        <ele>207</ele>
        <time>2018-11-02T09:54:11Z</time>
      </trkpt>
      <trkpt lat="45.92965" lon="4.70744">
        <ele>207</ele>
        <time>2018-11-02T09:54:12Z</time>
      </trkpt>
      <trkpt lat="45.92961" lon="4.70735">
        <ele>207</ele>
        <time>2018-11-02T09:54:15Z</time>
      </trkpt>
      <trkpt lat="45.9296" lon="4.70732">
        <ele>208</ele>
        <time>2018-11-02T09:54:16Z</time>
      </trkpt>
      <trkpt lat="45.92956" lon="4.70723">
        <ele>208</ele>
        <time>2018-11-02T09:54:19Z</time>
      </trkpt>
      <trkpt lat="45.92955" lon="4.70721">
        <ele>208</ele>
        <time>2018-11-02T09:54:20Z</time>
      </trkpt>
      <trkpt lat="45.92949" lon="4.70711">
        <ele>208</ele>
        <time>2018-11-02T09:54:24Z</time>
      </trkpt>
      <trkpt lat="45.92948" lon="4.70709">
        <ele>208</ele>
        <time>2018-11-02T09:54:25Z</time>
      </trkpt>
      <trkpt lat="45.92943" lon="4.707">
        <ele>209</ele>
        <time>2018-11-02T09:54:28Z</time>
      </trkpt>
      <trkpt lat="45.92942" lon="4.70697">
        <ele>209</ele>
        <time>2018-11-02T09:54:29Z</time>
      </trkpt>
      <trkpt lat="45.92938" lon="4.70688">
        <ele>210</ele>
        <time>2018-11-02T09:54:32Z</time>
      </trkpt>
      <trkpt lat="45.92937" lon="4.70686">
        <ele>210</ele>
        <time>2018-11-02T09:54:33Z</time>
      </trkpt>
      <trkpt lat="45.92932" lon="4.70676">
        <ele>210</ele>
        <time>2018-11-02T09:54:37Z</time>
      </trkpt>
      <trkpt lat="45.92931" lon="4.70673">
        <ele>210</ele>
        <time>2018-11-02T09:54:38Z</time>
      </trkpt>
      <trkpt lat="45.92927" lon="4.70663">
        <ele>214</ele>
        <time>2018-11-02T09:54:42Z</time>
      </trkpt>
      <trkpt lat="45.92927" lon="4.7066">
        <ele>214</ele>
        <time>2018-11-02T09:54:43Z</time>
      </trkpt>
      <trkpt lat="45.92923" lon="4.70649">
        <ele>215</ele>
        <time>2018-11-02T09:54:47Z</time>
      </trkpt>
      <trkpt lat="45.92922" lon="4.70647">
        <ele>215</ele>
        <time>2018-11-02T09:54:48Z</time>
      </trkpt>
      <trkpt lat="45.92918" lon="4.70637">
        <ele>216</ele>
        <time>2018-11-02T09:54:52Z</time>
      </trkpt>
      <trkpt lat="45.92917" lon="4.70635">
        <ele>216</ele>
        <time>2018-11-02T09:54:53Z</time>
      </trkpt>
      <trkpt lat="45.92913" lon="4.70625">
        <ele>215</ele>
        <time>2018-11-02T09:54:57Z</time>
      </trkpt>
      <trkpt lat="45.92913" lon="4.70622">
        <ele>215</ele>
        <time>2018-11-02T09:54:58Z</time>
      </trkpt>
      <trkpt lat="45.92908" lon="4.70612">
        <ele>216</ele>
        <time>2018-11-02T09:55:02Z</time>
      </trkpt>
      <trkpt lat="45.92907" lon="4.7061">
        <ele>216</ele>
        <time>2018-11-02T09:55:03Z</time>
      </trkpt>
      <trkpt lat="45.92903" lon="4.70599">
        <ele>217</ele>
        <time>2018-11-02T09:55:07Z</time>
      </trkpt>
      <trkpt lat="45.92902" lon="4.70597">
        <ele>217</ele>
        <time>2018-11-02T09:55:08Z</time>
      </trkpt>
      <trkpt lat="45.92896" lon="4.70587">
        <ele>217</ele>
        <time>2018-11-02T09:55:12Z</time>
      </trkpt>
      <trkpt lat="45.92895" lon="4.70584">
        <ele>217</ele>
        <time>2018-11-02T09:55:13Z</time>
      </trkpt>
      <trkpt lat="45.92891" lon="4.70573">
        <ele>220</ele>
        <time>2018-11-02T09:55:17Z</time>
      </trkpt>
      <trkpt lat="45.9289" lon="4.70571">
        <ele>220</ele>
        <time>2018-11-02T09:55:18Z</time>
      </trkpt>
      <trkpt lat="45.92886" lon="4.7056">
        <ele>220</ele>
        <time>2018-11-02T09:55:21Z</time>
      </trkpt>
      <trkpt lat="45.92885" lon="4.70556">
        <ele>220</ele>
        <time>2018-11-02T09:55:22Z</time>
      </trkpt>
      <trkpt lat="45.92883" lon="4.70549">
        <ele>220</ele>
        <time>2018-11-02T09:55:24Z</time>
      </trkpt>
      <trkpt lat="45.92881" lon="4.70544">
        <ele>220</ele>
        <time>2018-11-02T09:55:25Z</time>
      </trkpt>
      <trkpt lat="45.92878" lon="4.70534">
        <ele>220</ele>
        <time>2018-11-02T09:55:28Z</time>
      </trkpt>
      <trkpt lat="45.92877" lon="4.70531">
        <ele>220</ele>
        <time>2018-11-02T09:55:29Z</time>
      </trkpt>
      <trkpt lat="45.92872" lon="4.70522">
        <ele>220</ele>
        <time>2018-11-02T09:55:32Z</time>
      </trkpt>
      <trkpt lat="45.9287" lon="4.70519">
        <ele>220</ele>
        <time>2018-11-02T09:55:33Z</time>
      </trkpt>
      <trkpt lat="45.92864" lon="4.70511">
        <ele>220</ele>
        <time>2018-11-02T09:55:36Z</time>
      </trkpt>
      <trkpt lat="45.92863" lon="4.70509">
        <ele>220</ele>
        <time>2018-11-02T09:55:37Z</time>
      </trkpt>
      <trkpt lat="45.92858" lon="4.70499">
        <ele>222</ele>
        <time>2018-11-02T09:55:41Z</time>
      </trkpt>
      <trkpt lat="45.92857" lon="4.70497">
        <ele>222</ele>
        <time>2018-11-02T09:55:42Z</time>
      </trkpt>
      <trkpt lat="45.92852" lon="4.70488">
        <ele>222</ele>
        <time>2018-11-02T09:55:46Z</time>
      </trkpt>
      <trkpt lat="45.92851" lon="4.70486">
        <ele>222</ele>
        <time>2018-11-02T09:55:47Z</time>
      </trkpt>
      <trkpt lat="45.92847" lon="4.70476">
        <ele>222</ele>
        <time>2018-11-02T09:55:51Z</time>
      </trkpt>
      <trkpt lat="45.92846" lon="4.70474">
        <ele>223</ele>
        <time>2018-11-02T09:55:52Z</time>
      </trkpt>
      <trkpt lat="45.92843" lon="4.70463">
        <ele>223</ele>
        <time>2018-11-02T09:55:57Z</time>
      </trkpt>
      <trkpt lat="45.92843" lon="4.7046">
        <ele>224</ele>
        <time>2018-11-02T09:55:58Z</time>
      </trkpt>
      <trkpt lat="45.92844" lon="4.70448">
        <ele>224</ele>
        <time>2018-11-02T09:56:03Z</time>
      </trkpt>
      <trkpt lat="45.92845" lon="4.70445">
        <ele>224</ele>
        <time>2018-11-02T09:56:04Z</time>
      </trkpt>
      <trkpt lat="45.92847" lon="4.70435">
        <ele>225</ele>
        <time>2018-11-02T09:56:08Z</time>
      </trkpt>
      <trkpt lat="45.92848" lon="4.70433">
        <ele>225</ele>
        <time>2018-11-02T09:56:09Z</time>
      </trkpt>
      <trkpt lat="45.92851" lon="4.70421">
        <ele>225</ele>
        <time>2018-11-02T09:56:13Z</time>
      </trkpt>
      <trkpt lat="45.92851" lon="4.70419">
        <ele>225</ele>
        <time>2018-11-02T09:56:14Z</time>
      </trkpt>
      <trkpt lat="45.92854" lon="4.70407">
        <ele>227</ele>
        <time>2018-11-02T09:56:18Z</time>
      </trkpt>
      <trkpt lat="45.92855" lon="4.70404">
        <ele>227</ele>
        <time>2018-11-02T09:56:19Z</time>
      </trkpt>
      <trkpt lat="45.92858" lon="4.70392">
        <ele>227</ele>
        <time>2018-11-02T09:56:23Z</time>
      </trkpt>
      <trkpt lat="45.92858" lon="4.70389">
        <ele>227</ele>
        <time>2018-11-02T09:56:24Z</time>
      </trkpt>
      <trkpt lat="45.9286" lon="4.70377">
        <ele>227</ele>
        <time>2018-11-02T09:56:28Z</time>
      </trkpt>
      <trkpt lat="45.92861" lon="4.70374">
        <ele>227</ele>
        <time>2018-11-02T09:56:29Z</time>
      </trkpt>
      <trkpt lat="45.92863" lon="4.70361">
        <ele>228</ele>
        <time>2018-11-02T09:56:33Z</time>
      </trkpt>
      <trkpt lat="45.92863" lon="4.70358">
        <ele>228</ele>
        <time>2018-11-02T09:56:34Z</time>
      </trkpt>
      <trkpt lat="45.92865" lon="4.70346">
        <ele>228</ele>
        <time>2018-11-02T09:56:38Z</time>
      </trkpt>
      <trkpt lat="45.92866" lon="4.70343">
        <ele>228</ele>
        <time>2018-11-02T09:56:39Z</time>
      </trkpt>
      <trkpt lat="45.92868" lon="4.70332">
        <ele>231</ele>
        <time>2018-11-02T09:56:43Z</time>
      </trkpt>
      <trkpt lat="45.92868" lon="4.70329">
        <ele>231</ele>
        <time>2018-11-02T09:56:44Z</time>
      </trkpt>
      <trkpt lat="45.9287" lon="4.70318">
        <ele>231</ele>
        <time>2018-11-02T09:56:48Z</time>
      </trkpt>
      <trkpt lat="45.9287" lon="4.70315">
        <ele>231</ele>
        <time>2018-11-02T09:56:49Z</time>
      </trkpt>
      <trkpt lat="45.92872" lon="4.70305">
        <ele>231</ele>
        <time>2018-11-02T09:56:53Z</time>
      </trkpt>
      <trkpt lat="45.92873" lon="4.70302">
        <ele>231</ele>
        <time>2018-11-02T09:56:54Z</time>
      </trkpt>
      <trkpt lat="45.92874" lon="4.70291">
        <ele>231</ele>
        <time>2018-11-02T09:56:58Z</time>
      </trkpt>
      <trkpt lat="45.92875" lon="4.70288">
        <ele>231</ele>
        <time>2018-11-02T09:56:59Z</time>
      </trkpt>
      <trkpt lat="45.92877" lon="4.70277">
        <ele>232</ele>
        <time>2018-11-02T09:57:03Z</time>
      </trkpt>
      <trkpt lat="45.92878" lon="4.70274">
        <ele>232</ele>
        <time>2018-11-02T09:57:04Z</time>
      </trkpt>
      <trkpt lat="45.92879" lon="4.70262">
        <ele>232</ele>
        <time>2018-11-02T09:57:08Z</time>
      </trkpt>
      <trkpt lat="45.9288" lon="4.70259">
        <ele>232</ele>
        <time>2018-11-02T09:57:09Z</time>
      </trkpt>
      <trkpt lat="45.92881" lon="4.70248">
        <ele>235</ele>
        <time>2018-11-02T09:57:13Z</time>
      </trkpt>
      <trkpt lat="45.92881" lon="4.70245">
        <ele>235</ele>
        <time>2018-11-02T09:57:14Z</time>
      </trkpt>
      <trkpt lat="45.92882" lon="4.70235">
        <ele>235</ele>
        <time>2018-11-02T09:57:17Z</time>
      </trkpt>
      <trkpt lat="45.92882" lon="4.70232">
        <ele>235</ele>
        <time>2018-11-02T09:57:18Z</time>
      </trkpt>
      <trkpt lat="45.92881" lon="4.70219">
        <ele>236</ele>
        <time>2018-11-02T09:57:22Z</time>
      </trkpt>
      <trkpt lat="45.92881" lon="4.70216">
        <ele>236</ele>
        <time>2018-11-02T09:57:23Z</time>
      </trkpt>
      <trkpt lat="45.9288" lon="4.70207">
        <ele>236</ele>
        <time>2018-11-02T09:57:26Z</time>
      </trkpt>
      <trkpt lat="45.9288" lon="4.70203">
        <ele>236</ele>
        <time>2018-11-02T09:57:27Z</time>
      </trkpt>
      <trkpt lat="45.9288" lon="4.7019">
        <ele>236</ele>
        <time>2018-11-02T09:57:31Z</time>
      </trkpt>
      <trkpt lat="45.92881" lon="4.70187">
        <ele>236</ele>
        <time>2018-11-02T09:57:32Z</time>
      </trkpt>
      <trkpt lat="45.92881" lon="4.70175">
        <ele>237</ele>
        <time>2018-11-02T09:57:36Z</time>
      </trkpt>
      <trkpt lat="45.92882" lon="4.70172">
        <ele>237</ele>
        <time>2018-11-02T09:57:37Z</time>
      </trkpt>
      <trkpt lat="45.92882" lon="4.70159">
        <ele>239</ele>
        <time>2018-11-02T09:57:41Z</time>
      </trkpt>
      <trkpt lat="45.92883" lon="4.70157">
        <ele>239</ele>
        <time>2018-11-02T09:57:42Z</time>
      </trkpt>
      <trkpt lat="45.92883" lon="4.70145">
        <ele>240</ele>
        <time>2018-11-02T09:57:46Z</time>
      </trkpt>
      <trkpt lat="45.92883" lon="4.70142">
        <ele>240</ele>
        <time>2018-11-02T09:57:47Z</time>
      </trkpt>
      <trkpt lat="45.92883" lon="4.70129">
        <ele>240</ele>
        <time>2018-11-02T09:57:51Z</time>
      </trkpt>
      <trkpt lat="45.92883" lon="4.70126">
        <ele>240</ele>
        <time>2018-11-02T09:57:52Z</time>
      </trkpt>
      <trkpt lat="45.92885" lon="4.70113">
        <ele>241</ele>
        <time>2018-11-02T09:57:56Z</time>
      </trkpt>
      <trkpt lat="45.92885" lon="4.70109">
        <ele>241</ele>
        <time>2018-11-02T09:57:57Z</time>
      </trkpt>
      <trkpt lat="45.92885" lon="4.70099">
        <ele>241</ele>
        <time>2018-11-02T09:58:00Z</time>
      </trkpt>
      <trkpt lat="45.92885" lon="4.70096">
        <ele>241</ele>
        <time>2018-11-02T09:58:01Z</time>
      </trkpt>
      <trkpt lat="45.92884" lon="4.70083">
        <ele>244</ele>
        <time>2018-11-02T09:58:05Z</time>
      </trkpt>
      <trkpt lat="45.92884" lon="4.7008">
        <ele>244</ele>
        <time>2018-11-02T09:58:06Z</time>
      </trkpt>
      <trkpt lat="45.92886" lon="4.7007">
        <ele>245</ele>
        <time>2018-11-02T09:58:09Z</time>
      </trkpt>
      <trkpt lat="45.92886" lon="4.70067">
        <ele>245</ele>
        <time>2018-11-02T09:58:10Z</time>
      </trkpt>
      <trkpt lat="45.92888" lon="4.70058">
        <ele>245</ele>
        <time>2018-11-02T09:58:13Z</time>
      </trkpt>
      <trkpt lat="45.92888" lon="4.70054">
        <ele>245</ele>
        <time>2018-11-02T09:58:14Z</time>
      </trkpt>
      <trkpt lat="45.92889" lon="4.70044">
        <ele>245</ele>
        <time>2018-11-02T09:58:17Z</time>
      </trkpt>
      <trkpt lat="45.92889" lon="4.70041">
        <ele>246</ele>
        <time>2018-11-02T09:58:18Z</time>
      </trkpt>
      <trkpt lat="45.9289" lon="4.70028">
        <ele>246</ele>
        <time>2018-11-02T09:58:22Z</time>
      </trkpt>
      <trkpt lat="45.9289" lon="4.70025">
        <ele>246</ele>
        <time>2018-11-02T09:58:23Z</time>
      </trkpt>
      <trkpt lat="45.92894" lon="4.70013">
        <ele>246</ele>
        <time>2018-11-02T09:58:27Z</time>
      </trkpt>
      <trkpt lat="45.92896" lon="4.70011">
        <ele>246</ele>
        <time>2018-11-02T09:58:28Z</time>
      </trkpt>
      <trkpt lat="45.92901" lon="4.70005">
        <ele>246</ele>
        <time>2018-11-02T09:58:31Z</time>
      </trkpt>
      <trkpt lat="45.92903" lon="4.70004">
        <ele>246</ele>
        <time>2018-11-02T09:58:32Z</time>
      </trkpt>
      <trkpt lat="45.92911" lon="4.70004">
        <ele>246</ele>
        <time>2018-11-02T09:58:35Z</time>
      </trkpt>
      <trkpt lat="45.92913" lon="4.70005">
        <ele>246</ele>
        <time>2018-11-02T09:58:36Z</time>
      </trkpt>
      <trkpt lat="45.92919" lon="4.7001">
        <ele>245</ele>
        <time>2018-11-02T09:58:39Z</time>
      </trkpt>
      <trkpt lat="45.92921" lon="4.70012">
        <ele>245</ele>
        <time>2018-11-02T09:58:40Z</time>
      </trkpt>
      <trkpt lat="45.92927" lon="4.70021">
        <ele>244</ele>
        <time>2018-11-02T09:58:44Z</time>
      </trkpt>
      <trkpt lat="45.92928" lon="4.70024">
        <ele>244</ele>
        <time>2018-11-02T09:58:45Z</time>
      </trkpt>
      <trkpt lat="45.92931" lon="4.70035">
        <ele>243</ele>
        <time>2018-11-02T09:58:49Z</time>
      </trkpt>
      <trkpt lat="45.92932" lon="4.70038">
        <ele>243</ele>
        <time>2018-11-02T09:58:50Z</time>
      </trkpt>
      <trkpt lat="45.92936" lon="4.70049">
        <ele>243</ele>
        <time>2018-11-02T09:58:54Z</time>
      </trkpt>
      <trkpt lat="45.92937" lon="4.70052">
        <ele>243</ele>
        <time>2018-11-02T09:58:55Z</time>
      </trkpt>
      <trkpt lat="45.92943" lon="4.70061">
        <ele>242</ele>
        <time>2018-11-02T09:58:59Z</time>
      </trkpt>
      <trkpt lat="45.92945" lon="4.70062">
        <ele>242</ele>
        <time>2018-11-02T09:59:00Z</time>
      </trkpt>
      <trkpt lat="45.92953" lon="4.70065">
        <ele>242</ele>
        <time>2018-11-02T09:59:04Z</time>
      </trkpt>
      <trkpt lat="45.92955" lon="4.70065">
        <ele>243</ele>
        <time>2018-11-02T09:59:05Z</time>
      </trkpt>
      <trkpt lat="45.92962" lon="4.70062">
        <ele>243</ele>
        <time>2018-11-02T09:59:08Z</time>
      </trkpt>
      <trkpt lat="45.92964" lon="4.70061">
        <ele>243</ele>
        <time>2018-11-02T09:59:09Z</time>
      </trkpt>
      <trkpt lat="45.9297" lon="4.70056">
        <ele>243</ele>
        <time>2018-11-02T09:59:12Z</time>
      </trkpt>
      <trkpt lat="45.92972" lon="4.70054">
        <ele>243</ele>
        <time>2018-11-02T09:59:13Z</time>
      </trkpt>
      <trkpt lat="45.92977" lon="4.70045">
        <ele>243</ele>
        <time>2018-11-02T09:59:17Z</time>
      </trkpt>
      <trkpt lat="45.92978" lon="4.70043">
        <ele>243</ele>
        <time>2018-11-02T09:59:18Z</time>
      </trkpt>
      <trkpt lat="45.92981" lon="4.70032">
        <ele>244</ele>
        <time>2018-11-02T09:59:22Z</time>
      </trkpt>
      <trkpt lat="45.92982" lon="4.70029">
        <ele>244</ele>
        <time>2018-11-02T09:59:23Z</time>
      </trkpt>
      <trkpt lat="45.92985" lon="4.70019">
        <ele>244</ele>
        <time>2018-11-02T09:59:27Z</time>
      </trkpt>
      <trkpt lat="45.92986" lon="4.70016">
        <ele>244</ele>
        <time>2018-11-02T09:59:28Z</time>
      </trkpt>
      <trkpt lat="45.92989" lon="4.70005">
        <ele>245</ele>
        <time>2018-11-02T09:59:32Z</time>
      </trkpt>
      <trkpt lat="45.9299" lon="4.70002">
        <ele>245</ele>
        <time>2018-11-02T09:59:33Z</time>
      </trkpt>
      <trkpt lat="45.92993" lon="4.6999">
        <ele>248</ele>
        <time>2018-11-02T09:59:37Z</time>
      </trkpt>
      <trkpt lat="45.92993" lon="4.69987">
        <ele>248</ele>
        <time>2018-11-02T09:59:38Z</time>
      </trkpt>
      <trkpt lat="45.92996" lon="4.69976">
        <ele>250</ele>
        <time>2018-11-02T09:59:42Z</time>
      </trkpt>
      <trkpt lat="45.92997" lon="4.69973">
        <ele>250</ele>
        <time>2018-11-02T09:59:43Z</time>
      </trkpt>
      <trkpt lat="45.93001" lon="4.69963">
        <ele>250</ele>
        <time>2018-11-02T09:59:47Z</time>
      </trkpt>
      <trkpt lat="45.93002" lon="4.69961">
        <ele>250</ele>
        <time>2018-11-02T09:59:48Z</time>
      </trkpt>
      <trkpt lat="45.93006" lon="4.69951">
        <ele>251</ele>
        <time>2018-11-02T09:59:52Z</time>
      </trkpt>
      <trkpt lat="45.93007" lon="4.69949">
        <ele>251</ele>
        <time>2018-11-02T09:59:53Z</time>
      </trkpt>
      <trkpt lat="45.93012" lon="4.6994">
        <ele>252</ele>
        <time>2018-11-02T09:59:57Z</time>
      </trkpt>
      <trkpt lat="45.93014" lon="4.69937">
        <ele>252</ele>
        <time>2018-11-02T09:59:58Z</time>
      </trkpt>
      <trkpt lat="45.93019" lon="4.69929">
        <ele>253</ele>
        <time>2018-11-02T10:00:02Z</time>
      </trkpt>
      <trkpt lat="45.93021" lon="4.69927">
        <ele>253</ele>
        <time>2018-11-02T10:00:03Z</time>
      </trkpt>
      <trkpt lat="45.93028" lon="4.69919">
        <ele>252</ele>
        <time>2018-11-02T10:00:07Z</time>
      </trkpt>
      <trkpt lat="45.93029" lon="4.69918">
        <ele>252</ele>
        <time>2018-11-02T10:00:08Z</time>
      </trkpt>
      <trkpt lat="45.93037" lon="4.6991">
        <ele>257</ele>
        <time>2018-11-02T10:00:12Z</time>
      </trkpt>
      <trkpt lat="45.93038" lon="4.69908">
        <ele>257</ele>
        <time>2018-11-02T10:00:13Z</time>
      </trkpt>
      <trkpt lat="45.93046" lon="4.69901">
        <ele>257</ele>
        <time>2018-11-02T10:00:17Z</time>
      </trkpt>
      <trkpt lat="45.93047" lon="4.699">
        <ele>257</ele>
        <time>2018-11-02T10:00:18Z</time>
      </trkpt>
      <trkpt lat="45.93054" lon="4.69892">
        <ele>257</ele>
        <time>2018-11-02T10:00:22Z</time>
      </trkpt>
      <trkpt lat="45.93056" lon="4.6989">
        <ele>257</ele>
        <time>2018-11-02T10:00:23Z</time>
      </trkpt>
      <trkpt lat="45.93063" lon="4.69884">
        <ele>257</ele>
        <time>2018-11-02T10:00:27Z</time>
      </trkpt>
      <trkpt lat="45.93064" lon="4.69882">
        <ele>257</ele>
        <time>2018-11-02T10:00:28Z</time>
      </trkpt>
      <trkpt lat="45.9307" lon="4.69874">
        <ele>257</ele>
        <time>2018-11-02T10:00:32Z</time>
      </trkpt>
      <trkpt lat="45.93072" lon="4.69872">
        <ele>258</ele>
        <time>2018-11-02T10:00:33Z</time>
      </trkpt>
      <trkpt lat="45.93079" lon="4.69864">
        <ele>258</ele>
        <time>2018-11-02T10:00:37Z</time>
      </trkpt>
      <trkpt lat="45.93081" lon="4.69863">
        <ele>258</ele>
        <time>2018-11-02T10:00:38Z</time>
      </trkpt>
      <trkpt lat="45.93087" lon="4.69857">
        <ele>256</ele>
        <time>2018-11-02T10:00:41Z</time>
      </trkpt>
      <trkpt lat="45.93088" lon="4.69856">
        <ele>256</ele>
        <time>2018-11-02T10:00:42Z</time>
      </trkpt>
      <trkpt lat="45.93095" lon="4.69847">
        <ele>257</ele>
        <time>2018-11-02T10:00:46Z</time>
      </trkpt>
      <trkpt lat="45.93097" lon="4.69846">
        <ele>257</ele>
        <time>2018-11-02T10:00:47Z</time>
      </trkpt>
      <trkpt lat="45.93103" lon="4.69837">
        <ele>257</ele>
        <time>2018-11-02T10:00:51Z</time>
      </trkpt>
      <trkpt lat="45.93105" lon="4.69836">
        <ele>257</ele>
        <time>2018-11-02T10:00:52Z</time>
      </trkpt>
      <trkpt lat="45.9311" lon="4.69829">
        <ele>263</ele>
        <time>2018-11-02T10:00:55Z</time>
      </trkpt>
      <trkpt lat="45.93112" lon="4.69827">
        <ele>263</ele>
        <time>2018-11-02T10:00:56Z</time>
      </trkpt>
      <trkpt lat="45.93118" lon="4.69822">
        <ele>264</ele>
        <time>2018-11-02T10:00:59Z</time>
      </trkpt>
      <trkpt lat="45.93119" lon="4.6982">
        <ele>264</ele>
        <time>2018-11-02T10:01:00Z</time>
      </trkpt>
      <trkpt lat="45.93126" lon="4.69814">
        <ele>264</ele>
        <time>2018-11-02T10:01:03Z</time>
      </trkpt>
      <trkpt lat="45.93128" lon="4.69812">
        <ele>264</ele>
        <time>2018-11-02T10:01:04Z</time>
      </trkpt>
      <trkpt lat="45.93136" lon="4.69807">
        <ele>264</ele>
        <time>2018-11-02T10:01:08Z</time>
      </trkpt>
      <trkpt lat="45.93138" lon="4.69805">
        <ele>264</ele>
        <time>2018-11-02T10:01:09Z</time>
      </trkpt>
      <trkpt lat="45.93146" lon="4.698">
        <ele>265</ele>
        <time>2018-11-02T10:01:13Z</time>
      </trkpt>
      <trkpt lat="45.93148" lon="4.69799">
        <ele>265</ele>
        <time>2018-11-02T10:01:14Z</time>
      </trkpt>
      <trkpt lat="45.93156" lon="4.69793">
        <ele>265</ele>
        <time>2018-11-02T10:01:18Z</time>
      </trkpt>
      <trkpt lat="45.93158" lon="4.69792">
        <ele>265</ele>
        <time>2018-11-02T10:01:19Z</time>
      </trkpt>
      <trkpt lat="45.93164" lon="4.69789">
        <ele>266</ele>
        <time>2018-11-02T10:01:22Z</time>
      </trkpt>
      <trkpt lat="45.93167" lon="4.69788">
        <ele>266</ele>
        <time>2018-11-02T10:01:23Z</time>
      </trkpt>
      <trkpt lat="45.93174" lon="4.69785">
        <ele>265</ele>
        <time>2018-11-02T10:01:26Z</time>
      </trkpt>
      <trkpt lat="45.93176" lon="4.69784">
        <ele>265</ele>
        <time>2018-11-02T10:01:27Z</time>
      </trkpt>
      <trkpt lat="45.93182" lon="4.6978">
        <ele>266</ele>
        <time>2018-11-02T10:01:30Z</time>
      </trkpt>
      <trkpt lat="45.93184" lon="4.6978">
        <ele>266</ele>
        <time>2018-11-02T10:01:31Z</time>
      </trkpt>
      <trkpt lat="45.93191" lon="4.69777">
        <ele>266</ele>
        <time>2018-11-02T10:01:34Z</time>
      </trkpt>
      <trkpt lat="45.93194" lon="4.69776">
        <ele>266</ele>
        <time>2018-11-02T10:01:35Z</time>
      </trkpt>
      <trkpt lat="45.932" lon="4.69772">
        <ele>266</ele>
        <time>2018-11-02T10:01:38Z</time>
      </trkpt>
      <trkpt lat="45.93202" lon="4.69771">
        <ele>266</ele>
        <time>2018-11-02T10:01:39Z</time>
      </trkpt>
      <trkpt lat="45.93211" lon="4.69768">
        <ele>266</ele>
        <time>2018-11-02T10:01:43Z</time>
      </trkpt>
      <trkpt lat="45.93213" lon="4.69767">
        <ele>266</ele>
        <time>2018-11-02T10:01:44Z</time>
      </trkpt>
      <trkpt lat="45.9322" lon="4.69764">
        <ele>267</ele>
        <time>2018-11-02T10:01:47Z</time>
      </trkpt>
      <trkpt lat="45.93222" lon="4.69763">
        <ele>267</ele>
        <time>2018-11-02T10:01:48Z</time>
      </trkpt>
      <trkpt lat="45.9323" lon="4.69759">
        <ele>267</ele>
        <time>2018-11-02T10:01:52Z</time>
      </trkpt>
      <trkpt lat="45.93232" lon="4.69758">
        <ele>268</ele>
        <time>2018-11-02T10:01:53Z</time>
      </trkpt>
      <trkpt lat="45.93241" lon="4.69756">
        <ele>269</ele>
        <time>2018-11-02T10:01:57Z</time>
      </trkpt>
      <trkpt lat="45.93243" lon="4.69755">
        <ele>269</ele>
        <time>2018-11-02T10:01:58Z</time>
      </trkpt>
      <trkpt lat="45.9325" lon="4.69755">
        <ele>270</ele>
        <time>2018-11-02T10:02:01Z</time>
      </trkpt>
      <trkpt lat="45.93252" lon="4.69754">
        <ele>270</ele>
        <time>2018-11-02T10:02:02Z</time>
      </trkpt>
      <trkpt lat="45.9326" lon="4.69753">
        <ele>269</ele>
        <time>2018-11-02T10:02:06Z</time>
      </trkpt>
      <trkpt lat="45.93262" lon="4.69752">
        <ele>269</ele>
        <time>2018-11-02T10:02:07Z</time>
      </trkpt>
      <trkpt lat="45.9327" lon="4.6975">
        <ele>268</ele>
        <time>2018-11-02T10:02:11Z</time>
      </trkpt>
      <trkpt lat="45.93272" lon="4.6975">
        <ele>273</ele>
        <time>2018-11-02T10:02:12Z</time>
      </trkpt>
      <trkpt lat="45.93281" lon="4.69746">
        <ele>273</ele>
        <time>2018-11-02T10:02:16Z</time>
      </trkpt>
      <trkpt lat="45.93283" lon="4.69745">
        <ele>273</ele>
        <time>2018-11-02T10:02:17Z</time>
      </trkpt>
      <trkpt lat="45.9329" lon="4.69739">
        <ele>273</ele>
        <time>2018-11-02T10:02:21Z</time>
      </trkpt>
      <trkpt lat="45.93292" lon="4.69736">
        <ele>273</ele>
        <time>2018-11-02T10:02:22Z</time>
      </trkpt>
      <trkpt lat="45.93295" lon="4.69726">
        <ele>274</ele>
        <time>2018-11-02T10:02:25Z</time>
      </trkpt>
      <trkpt lat="45.93295" lon="4.69723">
        <ele>274</ele>
        <time>2018-11-02T10:02:26Z</time>
      </trkpt>
      <trkpt lat="45.93294" lon="4.69712">
        <ele>275</ele>
        <time>2018-11-02T10:02:29Z</time>
      </trkpt>
      <trkpt lat="45.93293" lon="4.6971">
        <ele>275</ele>
        <time>2018-11-02T10:02:30Z</time>
      </trkpt>
      <trkpt lat="45.93288" lon="4.69703">
        <ele>276</ele>
        <time>2018-11-02T10:02:34Z</time>
      </trkpt>
      <trkpt lat="45.93285" lon="4.697">
        <ele>276</ele>
        <time>2018-11-02T10:02:35Z</time>
      </trkpt>
      <trkpt lat="45.93278" lon="4.69696">
        <ele>277</ele>
        <time>2018-11-02T10:02:38Z</time>
      </trkpt>
      <trkpt lat="45.93275" lon="4.69695">
        <ele>277</ele>
        <time>2018-11-02T10:02:39Z</time>
      </trkpt>
      <trkpt lat="45.93266" lon="4.69695">
        <ele>278</ele>
        <time>2018-11-02T10:02:42Z</time>
      </trkpt>
      <trkpt lat="45.93263" lon="4.69695">
        <ele>278</ele>
        <time>2018-11-02T10:02:43Z</time>
      </trkpt>
      <trkpt lat="45.93254" lon="4.69697">
        <ele>278</ele>
        <time>2018-11-02T10:02:46Z</time>
      </trkpt>
      <trkpt lat="45.93251" lon="4.69697">
        <ele>278</ele>
        <time>2018-11-02T10:02:47Z</time>
      </trkpt>
      <trkpt lat="45.93243" lon="4.69696">
        <ele>281</ele>
        <time>2018-11-02T10:02:51Z</time>
      </trkpt>
      <trkpt lat="45.93241" lon="4.69696">
        <ele>281</ele>
        <time>2018-11-02T10:02:52Z</time>
      </trkpt>
      <trkpt lat="45.93232" lon="4.69697">
        <ele>281</ele>
        <time>2018-11-02T10:02:56Z</time>
      </trkpt>
      <trkpt lat="45.9323" lon="4.69697">
        <ele>281</ele>
        <time>2018-11-02T10:02:57Z</time>
      </trkpt>
      <trkpt lat="45.93222" lon="4.69699">
        <ele>281</ele>
        <time>2018-11-02T10:03:00Z</time>
      </trkpt>
      <trkpt lat="45.9322" lon="4.69699">
        <ele>281</ele>
        <time>2018-11-02T10:03:01Z</time>
      </trkpt>
      <trkpt lat="45.93213" lon="4.69698">
        <ele>281</ele>
        <time>2018-11-02T10:03:04Z</time>
      </trkpt>
      <trkpt lat="45.9321" lon="4.69698">
        <ele>281</ele>
        <time>2018-11-02T10:03:05Z</time>
      </trkpt>
      <trkpt lat="45.93204" lon="4.69697">
        <ele>282</ele>
        <time>2018-11-02T10:03:08Z</time>
      </trkpt>
      <trkpt lat="45.93201" lon="4.69697">
        <ele>282</ele>
        <time>2018-11-02T10:03:09Z</time>
      </trkpt>
      <trkpt lat="45.93193" lon="4.69695">
        <ele>282</ele>
        <time>2018-11-02T10:03:13Z</time>
      </trkpt>
      <trkpt lat="45.93191" lon="4.69695">
        <ele>282</ele>
        <time>2018-11-02T10:03:14Z</time>
      </trkpt>
      <trkpt lat="45.93183" lon="4.69693">
        <ele>283</ele>
        <time>2018-11-02T10:03:18Z</time>
      </trkpt>
      <trkpt lat="45.9318" lon="4.69692">
        <ele>283</ele>
        <time>2018-11-02T10:03:19Z</time>
      </trkpt>
      <trkpt lat="45.93172" lon="4.6969">
        <ele>284</ele>
        <time>2018-11-02T10:03:23Z</time>
      </trkpt>
      <trkpt lat="45.9317" lon="4.6969">
        <ele>285</ele>
        <time>2018-11-02T10:03:24Z</time>
      </trkpt>
      <trkpt lat="45.93162" lon="4.69688">
        <ele>286</ele>
        <time>2018-11-02T10:03:28Z</time>
      </trkpt>
      <trkpt lat="45.93159" lon="4.69687">
        <ele>286</ele>
        <time>2018-11-02T10:03:29Z</time>
      </trkpt>
      <trkpt lat="45.93152" lon="4.69686">
        <ele>286</ele>
        <time>2018-11-02T10:03:33Z</time>
      </trkpt>
      <trkpt lat="45.9315" lon="4.69686">
        <ele>286</ele>
        <time>2018-11-02T10:03:34Z</time>
      </trkpt>
      <trkpt lat="45.93141" lon="4.69686">
        <ele>285</ele>
        <time>2018-11-02T10:03:38Z</time>
      </trkpt>
      <trkpt lat="45.93139" lon="4.69687">
        <ele>285</ele>
        <time>2018-11-02T10:03:39Z</time>
      </trkpt>
      <trkpt lat="45.9313" lon="4.69687">
        <ele>285</ele>
        <time>2018-11-02T10:03:43Z</time>
      </trkpt>
      <trkpt lat="45.93128" lon="4.69686">
        <ele>285</ele>
        <time>2018-11-02T10:03:44Z</time>
      </trkpt>
      <trkpt lat="45.93119" lon="4.69683">
        <ele>285</ele>
        <time>2018-11-02T10:03:48Z</time>
      </trkpt>
      <trkpt lat="45.93117" lon="4.69682">
        <ele>285</ele>
        <time>2018-11-02T10:03:49Z</time>
      </trkpt>
      <trkpt lat="45.93109" lon="4.69679">
        <ele>285</ele>
        <time>2018-11-02T10:03:53Z</time>
      </trkpt>
      <trkpt lat="45.93107" lon="4.69678">
        <ele>286</ele>
        <time>2018-11-02T10:03:54Z</time>
      </trkpt>
      <trkpt lat="45.93098" lon="4.69675">
        <ele>287</ele>
        <time>2018-11-02T10:03:58Z</time>
      </trkpt>
      <trkpt lat="45.93096" lon="4.69674">
        <ele>287</ele>
        <time>2018-11-02T10:03:59Z</time>
      </trkpt>
      <trkpt lat="45.93089" lon="4.69672">
        <ele>288</ele>
        <time>2018-11-02T10:04:02Z</time>
      </trkpt>
      <trkpt lat="45.93087" lon="4.69671">
        <ele>289</ele>
        <time>2018-11-02T10:04:03Z</time>
      </trkpt>
      <trkpt lat="45.9308" lon="4.69668">
        <ele>289</ele>
        <time>2018-11-02T10:04:06Z</time>
      </trkpt>
      <trkpt lat="45.93077" lon="4.69667">
        <ele>288</ele>
        <time>2018-11-02T10:04:07Z</time>
      </trkpt>
      <trkpt lat="45.9307" lon="4.69663">
        <ele>292</ele>
        <time>2018-11-02T10:04:10Z</time>
      </trkpt>
      <trkpt lat="45.93067" lon="4.69662">
        <ele>292</ele>
        <time>2018-11-02T10:04:11Z</time>
      </trkpt>
      <trkpt lat="45.93061" lon="4.69657">
        <ele>292</ele>
        <time>2018-11-02T10:04:14Z</time>
      </trkpt>
      <trkpt lat="45.93059" lon="4.69656">
        <ele>292</ele>
        <time>2018-11-02T10:04:15Z</time>
      </trkpt>
      <trkpt lat="45.93051" lon="4.69652">
        <ele>292</ele>
        <time>2018-11-02T10:04:19Z</time>
      </trkpt>
      <trkpt lat="45.93049" lon="4.69651">
        <ele>292</ele>
        <time>2018-11-02T10:04:20Z</time>
      </trkpt>
      <trkpt lat="45.93041" lon="4.69647">
        <ele>292</ele>
        <time>2018-11-02T10:04:24Z</time>
      </trkpt>
      <trkpt lat="45.93039" lon="4.69646">
        <ele>292</ele>
        <time>2018-11-02T10:04:25Z</time>
      </trkpt>
      <trkpt lat="45.93033" lon="4.69642">
        <ele>292</ele>
        <time>2018-11-02T10:04:28Z</time>
      </trkpt>
      <trkpt lat="45.93031" lon="4.6964">
        <ele>292</ele>
        <time>2018-11-02T10:04:29Z</time>
      </trkpt>
      <trkpt lat="45.93023" lon="4.69635">
        <ele>293</ele>
        <time>2018-11-02T10:04:33Z</time>
      </trkpt>
      <trkpt lat="45.93021" lon="4.69634">
        <ele>293</ele>
        <time>2018-11-02T10:04:34Z</time>
      </trkpt>
      <trkpt lat="45.93014" lon="4.6963">
        <ele>293</ele>
        <time>2018-11-02T10:04:37Z</time>
      </trkpt>
      <trkpt lat="45.93012" lon="4.69629">
        <ele>293</ele>
        <time>2018-11-02T10:04:38Z</time>
      </trkpt>
      <trkpt lat="45.93006" lon="4.69623">
        <ele>294</ele>
        <time>2018-11-02T10:04:41Z</time>
      </trkpt>
      <trkpt lat="45.93004" lon="4.69621">
        <ele>294</ele>
        <time>2018-11-02T10:04:42Z</time>
      </trkpt>
      <trkpt lat="45.92996" lon="4.69615">
        <ele>290</ele>
        <time>2018-11-02T10:04:46Z</time>
      </trkpt>
      <trkpt lat="45.92994" lon="4.69614">
        <ele>290</ele>
        <time>2018-11-02T10:04:47Z</time>
      </trkpt>
      <trkpt lat="45.92987" lon="4.69607">
        <ele>291</ele>
        <time>2018-11-02T10:04:51Z</time>
      </trkpt>
      <trkpt lat="45.92986" lon="4.69606">
        <ele>291</ele>
        <time>2018-11-02T10:04:52Z</time>
      </trkpt>
      <trkpt lat="45.9298" lon="4.69598">
        <ele>291</ele>
        <time>2018-11-02T10:04:56Z</time>
      </trkpt>
      <trkpt lat="45.92978" lon="4.69595">
        <ele>291</ele>
        <time>2018-11-02T10:04:57Z</time>
      </trkpt>
      <trkpt lat="45.92972" lon="4.69587">
        <ele>291</ele>
        <time>2018-11-02T10:05:01Z</time>
      </trkpt>
      <trkpt lat="45.9297" lon="4.69585">
        <ele>291</ele>
        <time>2018-11-02T10:05:02Z</time>
      </trkpt>
      <trkpt lat="45.92965" lon="4.69578">
        <ele>297</ele>
        <time>2018-11-02T10:05:05Z</time>
      </trkpt>
      <trkpt lat="45.92964" lon="4.69575">
        <ele>296</ele>
        <time>2018-11-02T10:05:06Z</time>
      </trkpt>
      <trkpt lat="45.92959" lon="4.69566">
        <ele>296</ele>
        <time>2018-11-02T10:05:09Z</time>
      </trkpt>
      <trkpt lat="45.92957" lon="4.69563">
        <ele>296</ele>
        <time>2018-11-02T10:05:10Z</time>
      </trkpt>
      <trkpt lat="45.92952" lon="4.69553">
        <ele>296</ele>
        <time>2018-11-02T10:05:14Z</time>
      </trkpt>
      <trkpt lat="45.9295" lon="4.69551">
        <ele>296</ele>
        <time>2018-11-02T10:05:15Z</time>
      </trkpt>
      <trkpt lat="45.92944" lon="4.69542">
        <ele>297</ele>
        <time>2018-11-02T10:05:19Z</time>
      </trkpt>
      <trkpt lat="45.92943" lon="4.6954">
        <ele>297</ele>
        <time>2018-11-02T10:05:20Z</time>
      </trkpt>
      <trkpt lat="45.92938" lon="4.69531">
        <ele>297</ele>
        <time>2018-11-02T10:05:24Z</time>
      </trkpt>
      <trkpt lat="45.92936" lon="4.69528">
        <ele>297</ele>
        <time>2018-11-02T10:05:25Z</time>
      </trkpt>
      <trkpt lat="45.92931" lon="4.69519">
        <ele>297</ele>
        <time>2018-11-02T10:05:29Z</time>
      </trkpt>
      <trkpt lat="45.92929" lon="4.69517">
        <ele>297</ele>
        <time>2018-11-02T10:05:30Z</time>
      </trkpt>
      <trkpt lat="45.92926" lon="4.69508">
        <ele>297</ele>
        <time>2018-11-02T10:05:34Z</time>
      </trkpt>
      <trkpt lat="45.92925" lon="4.69505">
        <ele>297</ele>
        <time>2018-11-02T10:05:35Z</time>
      </trkpt>
      <trkpt lat="45.9292" lon="4.69495">
        <ele>299</ele>
        <time>2018-11-02T10:05:39Z</time>
      </trkpt>
      <trkpt lat="45.92919" lon="4.69493">
        <ele>299</ele>
        <time>2018-11-02T10:05:40Z</time>
      </trkpt>
      <trkpt lat="45.92915" lon="4.69485">
        <ele>297</ele>
        <time>2018-11-02T10:05:43Z</time>
      </trkpt>
      <trkpt lat="45.92913" lon="4.69481">
        <ele>297</ele>
        <time>2018-11-02T10:05:44Z</time>
      </trkpt>
      <trkpt lat="45.92909" lon="4.69471">
        <ele>297</ele>
        <time>2018-11-02T10:05:48Z</time>
      </trkpt>
      <trkpt lat="45.92908" lon="4.69468">
        <ele>297</ele>
        <time>2018-11-02T10:05:49Z</time>
      </trkpt>
      <trkpt lat="45.92905" lon="4.69457">
        <ele>298</ele>
        <time>2018-11-02T10:05:53Z</time>
      </trkpt>
      <trkpt lat="45.92905" lon="4.69454">
        <ele>298</ele>
        <time>2018-11-02T10:05:54Z</time>
      </trkpt>
      <trkpt lat="45.92903" lon="4.69444">
        <ele>299</ele>
        <time>2018-11-02T10:05:57Z</time>
      </trkpt>
      <trkpt lat="45.92902" lon="4.6944">
        <ele>300</ele>
        <time>2018-11-02T10:05:58Z</time>
      </trkpt>
      <trkpt lat="45.929" lon="4.6943">
        <ele>301</ele>
        <time>2018-11-02T10:06:01Z</time>
      </trkpt>
      <trkpt lat="45.92899" lon="4.69426">
        <ele>301</ele>
        <time>2018-11-02T10:06:02Z</time>
      </trkpt>
      <trkpt lat="45.92896" lon="4.69416">
        <ele>306</ele>
        <time>2018-11-02T10:06:05Z</time>
      </trkpt>
      <trkpt lat="45.92895" lon="4.69413">
        <ele>306</ele>
        <time>2018-11-02T10:06:06Z</time>
      </trkpt>
      <trkpt lat="45.92891" lon="4.69402">
        <ele>306</ele>
        <time>2018-11-02T10:06:10Z</time>
      </trkpt>
      <trkpt lat="45.92891" lon="4.69399">
        <ele>306</ele>
        <time>2018-11-02T10:06:11Z</time>
      </trkpt>
      <trkpt lat="45.92888" lon="4.69388">
        <ele>307</ele>
        <time>2018-11-02T10:06:15Z</time>
      </trkpt>
      <trkpt lat="45.92887" lon="4.69385">
        <ele>307</ele>
        <time>2018-11-02T10:06:16Z</time>
      </trkpt>
      <trkpt lat="45.92884" lon="4.69375">
        <ele>307</ele>
        <time>2018-11-02T10:06:19Z</time>
      </trkpt>
      <trkpt lat="45.92883" lon="4.69372">
        <ele>307</ele>
        <time>2018-11-02T10:06:20Z</time>
      </trkpt>
      <trkpt lat="45.92881" lon="4.69363">
        <ele>308</ele>
        <time>2018-11-02T10:06:23Z</time>
      </trkpt>
      <trkpt lat="45.92879" lon="4.6936">
        <ele>308</ele>
        <time>2018-11-02T10:06:24Z</time>
      </trkpt>
      <trkpt lat="45.92876" lon="4.69351">
        <ele>308</ele>
        <time>2018-11-02T10:06:27Z</time>
      </trkpt>
      <trkpt lat="45.92875" lon="4.69348">
        <ele>308</ele>
        <time>2018-11-02T10:06:28Z</time>
      </trkpt>
      <trkpt lat="45.9287" lon="4.69339">
        <ele>308</ele>
        <time>2018-11-02T10:06:31Z</time>
      </trkpt>
      <trkpt lat="45.92869" lon="4.69336">
        <ele>308</ele>
        <time>2018-11-02T10:06:32Z</time>
      </trkpt>
      <trkpt lat="45.92864" lon="4.69325">
        <ele>313</ele>
        <time>2018-11-02T10:06:36Z</time>
      </trkpt>
      <trkpt lat="45.92863" lon="4.69323">
        <ele>313</ele>
        <time>2018-11-02T10:06:37Z</time>
      </trkpt>
      <trkpt lat="45.92859" lon="4.69313">
        <ele>313</ele>
        <time>2018-11-02T10:06:41Z</time>
      </trkpt>
      <trkpt lat="45.92858" lon="4.69311">
        <ele>313</ele>
        <time>2018-11-02T10:06:42Z</time>
      </trkpt>
      <trkpt lat="45.92851" lon="4.69304">
        <ele>313</ele>
        <time>2018-11-02T10:06:46Z</time>
      </trkpt>
      <trkpt lat="45.92848" lon="4.69302">
        <ele>313</ele>
        <time>2018-11-02T10:06:47Z</time>
      </trkpt>
      <trkpt lat="45.92842" lon="4.69294">
        <ele>314</ele>
        <time>2018-11-02T10:06:51Z</time>
      </trkpt>
      <trkpt lat="45.9284" lon="4.69292">
        <ele>314</ele>
        <time>2018-11-02T10:06:52Z</time>
      </trkpt>
      <trkpt lat="45.92835" lon="4.69286">
        <ele>315</ele>
        <time>2018-11-02T10:06:55Z</time>
      </trkpt>
      <trkpt lat="45.92833" lon="4.69285">
        <ele>312</ele>
        <time>2018-11-02T10:06:56Z</time>
      </trkpt>
      <trkpt lat="45.92827" lon="4.6928">
        <ele>312</ele>
        <time>2018-11-02T10:06:59Z</time>
      </trkpt>
      <trkpt lat="45.92824" lon="4.69278">
        <ele>313</ele>
        <time>2018-11-02T10:07:00Z</time>
      </trkpt>
      <trkpt lat="45.92821" lon="4.69269">
        <ele>313</ele>
        <time>2018-11-02T10:07:03Z</time>
      </trkpt>
      <trkpt lat="45.92819" lon="4.69266">
        <ele>314</ele>
        <time>2018-11-02T10:07:04Z</time>
      </trkpt>
      <trkpt lat="45.92814" lon="4.69255">
        <ele>314</ele>
        <time>2018-11-02T10:07:08Z</time>
      </trkpt>
      <trkpt lat="45.92813" lon="4.69252">
        <ele>314</ele>
        <time>2018-11-02T10:07:09Z</time>
      </trkpt>
      <trkpt lat="45.92811" lon="4.69243">
        <ele>318</ele>
        <time>2018-11-02T10:07:12Z</time>
      </trkpt>
      <trkpt lat="45.92811" lon="4.69239">
        <ele>318</ele>
        <time>2018-11-02T10:07:13Z</time>
      </trkpt>
      <trkpt lat="45.92811" lon="4.69227">
        <ele>319</ele>
        <time>2018-11-02T10:07:17Z</time>
      </trkpt>
      <trkpt lat="45.92811" lon="4.69225">
        <ele>319</ele>
        <time>2018-11-02T10:07:18Z</time>
      </trkpt>
      <trkpt lat="45.92812" lon="4.69213">
        <ele>319</ele>
        <time>2018-11-02T10:07:22Z</time>
      </trkpt>
      <trkpt lat="45.92812" lon="4.6921">
        <ele>319</ele>
        <time>2018-11-02T10:07:23Z</time>
      </trkpt>
      <trkpt lat="45.92812" lon="4.692">
        <ele>319</ele>
        <time>2018-11-02T10:07:26Z</time>
      </trkpt>
      <trkpt lat="45.92812" lon="4.69197">
        <ele>319</ele>
        <time>2018-11-02T10:07:27Z</time>
      </trkpt>
      <trkpt lat="45.92812" lon="4.69185">
        <ele>319</ele>
        <time>2018-11-02T10:07:31Z</time>
      </trkpt>
      <trkpt lat="45.92812" lon="4.69182">
        <ele>320</ele>
        <time>2018-11-02T10:07:32Z</time>
      </trkpt>
      <trkpt lat="45.92813" lon="4.69171">
        <ele>320</ele>
        <time>2018-11-02T10:07:35Z</time>
      </trkpt>
      <trkpt lat="45.92813" lon="4.69168">
        <ele>320</ele>
        <time>2018-11-02T10:07:36Z</time>
      </trkpt>
      <trkpt lat="45.92813" lon="4.69156">
        <ele>321</ele>
        <time>2018-11-02T10:07:40Z</time>
      </trkpt>
      <trkpt lat="45.92813" lon="4.69153">
        <ele>321</ele>
        <time>2018-11-02T10:07:41Z</time>
      </trkpt>
      <trkpt lat="45.92814" lon="4.69141">
        <ele>321</ele>
        <time>2018-11-02T10:07:45Z</time>
      </trkpt>
      <trkpt lat="45.92815" lon="4.69138">
        <ele>321</ele>
        <time>2018-11-02T10:07:46Z</time>
      </trkpt>
      <trkpt lat="45.92816" lon="4.69127">
        <ele>322</ele>
        <time>2018-11-02T10:07:50Z</time>
      </trkpt>
      <trkpt lat="45.92817" lon="4.69124">
        <ele>322</ele>
        <time>2018-11-02T10:07:51Z</time>
      </trkpt>
      <trkpt lat="45.92819" lon="4.69114">
        <ele>322</ele>
        <time>2018-11-02T10:07:54Z</time>
      </trkpt>
      <trkpt lat="45.92819" lon="4.69111">
        <ele>322</ele>
        <time>2018-11-02T10:07:55Z</time>
      </trkpt>
      <trkpt lat="45.92821" lon="4.69102">
        <ele>322</ele>
        <time>2018-11-02T10:07:58Z</time>
      </trkpt>
      <trkpt lat="45.92821" lon="4.69098">
        <ele>322</ele>
        <time>2018-11-02T10:07:59Z</time>
      </trkpt>
      <trkpt lat="45.92821" lon="4.69087">
        <ele>322</ele>
        <time>2018-11-02T10:08:02Z</time>
      </trkpt>
      <trkpt lat="45.92821" lon="4.69083">
        <ele>322</ele>
        <time>2018-11-02T10:08:03Z</time>
      </trkpt>
      <trkpt lat="45.9282" lon="4.69074">
        <ele>324</ele>
        <time>2018-11-02T10:08:06Z</time>
      </trkpt>
      <trkpt lat="45.92819" lon="4.6907">
        <ele>324</ele>
        <time>2018-11-02T10:08:07Z</time>
      </trkpt>
      <trkpt lat="45.92817" lon="4.6906">
        <ele>325</ele>
        <time>2018-11-02T10:08:10Z</time>
      </trkpt>
      <trkpt lat="45.92816" lon="4.69057">
        <ele>325</ele>
        <time>2018-11-02T10:08:11Z</time>
      </trkpt>
      <trkpt lat="45.92813" lon="4.69047">
        <ele>325</ele>
        <time>2018-11-02T10:08:14Z</time>
      </trkpt>
      <trkpt lat="45.92812" lon="4.69044">
        <ele>325</ele>
        <time>2018-11-02T10:08:15Z</time>
      </trkpt>
      <trkpt lat="45.92807" lon="4.69036">
        <ele>325</ele>
        <time>2018-11-02T10:08:18Z</time>
      </trkpt>
      <trkpt lat="45.92805" lon="4.69034">
        <ele>325</ele>
        <time>2018-11-02T10:08:19Z</time>
      </trkpt>
      <trkpt lat="45.92799" lon="4.69029">
        <ele>326</ele>
        <time>2018-11-02T10:08:22Z</time>
      </trkpt>
      <trkpt lat="45.92797" lon="4.69027">
        <ele>326</ele>
        <time>2018-11-02T10:08:23Z</time>
      </trkpt>
      <trkpt lat="45.92791" lon="4.69024">
        <ele>326</ele>
        <time>2018-11-02T10:08:26Z</time>
      </trkpt>
      <trkpt lat="45.92788" lon="4.69023">
        <ele>326</ele>
        <time>2018-11-02T10:08:27Z</time>
      </trkpt>
      <trkpt lat="45.92781" lon="4.69021">
        <ele>326</ele>
        <time>2018-11-02T10:08:30Z</time>
      </trkpt>
      <trkpt lat="45.92778" lon="4.6902">
        <ele>326</ele>
        <time>2018-11-02T10:08:31Z</time>
      </trkpt>
      <trkpt lat="45.92772" lon="4.69018">
        <ele>326</ele>
        <time>2018-11-02T10:08:34Z</time>
      </trkpt>
      <trkpt lat="45.92769" lon="4.69017">
        <ele>327</ele>
        <time>2018-11-02T10:08:35Z</time>
      </trkpt>
      <trkpt lat="45.92762" lon="4.69015">
        <ele>327</ele>
        <time>2018-11-02T10:08:38Z</time>
      </trkpt>
      <trkpt lat="45.92759" lon="4.69015">
        <ele>327</ele>
        <time>2018-11-02T10:08:39Z</time>
      </trkpt>
      <trkpt lat="45.92752" lon="4.69013">
        <ele>327</ele>
        <time>2018-11-02T10:08:42Z</time>
      </trkpt>
      <trkpt lat="45.9275" lon="4.69013">
        <ele>329</ele>
        <time>2018-11-02T10:08:43Z</time>
      </trkpt>
      <trkpt lat="45.92741" lon="4.69011">
        <ele>329</ele>
        <time>2018-11-02T10:08:47Z</time>
      </trkpt>
      <trkpt lat="45.92739" lon="4.6901">
        <ele>329</ele>
        <time>2018-11-02T10:08:48Z</time>
      </trkpt>
      <trkpt lat="45.92731" lon="4.69006">
        <ele>329</ele>
        <time>2018-11-02T10:08:52Z</time>
      </trkpt>
      <trkpt lat="45.92729" lon="4.69006">
        <ele>329</ele>
        <time>2018-11-02T10:08:53Z</time>
      </trkpt>
      <trkpt lat="45.9272" lon="4.69003">
        <ele>329</ele>
        <time>2018-11-02T10:08:57Z</time>
      </trkpt>
      <trkpt lat="45.92718" lon="4.69002">
        <ele>329</ele>
        <time>2018-11-02T10:08:58Z</time>
      </trkpt>
      <trkpt lat="45.92711" lon="4.69001">
        <ele>330</ele>
        <time>2018-11-02T10:09:01Z</time>
      </trkpt>
      <trkpt lat="45.92708" lon="4.69">
        <ele>330</ele>
        <time>2018-11-02T10:09:02Z</time>
      </trkpt>
      <trkpt lat="45.92701" lon="4.69002">
        <ele>330</ele>
        <time>2018-11-02T10:09:05Z</time>
      </trkpt>
      <trkpt lat="45.92699" lon="4.69002">
        <ele>330</ele>
        <time>2018-11-02T10:09:06Z</time>
      </trkpt>
      <trkpt lat="45.92692" lon="4.69007">
        <ele>330</ele>
        <time>2018-11-02T10:09:09Z</time>
      </trkpt>
      <trkpt lat="45.9269" lon="4.69009">
        <ele>331</ele>
        <time>2018-11-02T10:09:10Z</time>
      </trkpt>
      <trkpt lat="45.92684" lon="4.69018">
        <ele>331</ele>
        <time>2018-11-02T10:09:13Z</time>
      </trkpt>
      <trkpt lat="45.92683" lon="4.69021">
        <ele>331</ele>
        <time>2018-11-02T10:09:14Z</time>
      </trkpt>
      <trkpt lat="45.92678" lon="4.69031">
        <ele>330</ele>
        <time>2018-11-02T10:09:17Z</time>
      </trkpt>
      <trkpt lat="45.92677" lon="4.69035">
        <ele>330</ele>
        <time>2018-11-02T10:09:18Z</time>
      </trkpt>
      <trkpt lat="45.92675" lon="4.69047">
        <ele>330</ele>
        <time>2018-11-02T10:09:21Z</time>
      </trkpt>
      <trkpt lat="45.92674" lon="4.69051">
        <ele>330</ele>
        <time>2018-11-02T10:09:22Z</time>
      </trkpt>
      <trkpt lat="45.92674" lon="4.69062">
        <ele>330</ele>
        <time>2018-11-02T10:09:25Z</time>
      </trkpt>
      <trkpt lat="45.92673" lon="4.69066">
        <ele>330</ele>
        <time>2018-11-02T10:09:26Z</time>
      </trkpt>
      <trkpt lat="45.92673" lon="4.69079">
        <ele>331</ele>
        <time>2018-11-02T10:09:29Z</time>
      </trkpt>
      <trkpt lat="45.92673" lon="4.69083">
        <ele>331</ele>
        <time>2018-11-02T10:09:30Z</time>
      </trkpt>
      <trkpt lat="45.92672" lon="4.69096">
        <ele>330</ele>
        <time>2018-11-02T10:09:33Z</time>
      </trkpt>
      <trkpt lat="45.92672" lon="4.691">
        <ele>330</ele>
        <time>2018-11-02T10:09:34Z</time>
      </trkpt>
      <trkpt lat="45.92672" lon="4.69112">
        <ele>329</ele>
        <time>2018-11-02T10:09:37Z</time>
      </trkpt>
      <trkpt lat="45.92672" lon="4.69117">
        <ele>329</ele>
        <time>2018-11-02T10:09:38Z</time>
      </trkpt>
      <trkpt lat="45.92671" lon="4.69128">
        <ele>329</ele>
        <time>2018-11-02T10:09:41Z</time>
      </trkpt>
      <trkpt lat="45.92671" lon="4.69132">
        <ele>329</ele>
        <time>2018-11-02T10:09:42Z</time>
      </trkpt>
      <trkpt lat="45.92671" lon="4.69143">
        <ele>330</ele>
        <time>2018-11-02T10:09:45Z</time>
      </trkpt>
      <trkpt lat="45.92671" lon="4.69147">
        <ele>330</ele>
        <time>2018-11-02T10:09:46Z</time>
      </trkpt>
      <trkpt lat="45.92672" lon="4.69157">
        <ele>332</ele>
        <time>2018-11-02T10:09:49Z</time>
      </trkpt>
      <trkpt lat="45.92672" lon="4.69161">
        <ele>332</ele>
        <time>2018-11-02T10:09:50Z</time>
      </trkpt>
      <trkpt lat="45.92672" lon="4.69172">
        <ele>332</ele>
        <time>2018-11-02T10:09:53Z</time>
      </trkpt>
      <trkpt lat="45.92671" lon="4.69176">
        <ele>331</ele>
        <time>2018-11-02T10:09:54Z</time>
      </trkpt>
      <trkpt lat="45.92668" lon="4.69186">
        <ele>330</ele>
        <time>2018-11-02T10:09:57Z</time>
      </trkpt>
      <trkpt lat="45.92666" lon="4.69189">
        <ele>335</ele>
        <time>2018-11-02T10:09:58Z</time>
      </trkpt>
      <trkpt lat="45.92659" lon="4.69194">
        <ele>335</ele>
        <time>2018-11-02T10:10:01Z</time>
      </trkpt>
      <trkpt lat="45.92657" lon="4.69195">
        <ele>335</ele>
        <time>2018-11-02T10:10:02Z</time>
      </trkpt>
      <trkpt lat="45.9265" lon="4.69193">
        <ele>335</ele>
        <time>2018-11-02T10:10:05Z</time>
      </trkpt>
      <trkpt lat="45.92648" lon="4.69192">
        <ele>335</ele>
        <time>2018-11-02T10:10:06Z</time>
      </trkpt>
      <trkpt lat="45.92641" lon="4.69184">
        <ele>335</ele>
        <time>2018-11-02T10:10:10Z</time>
      </trkpt>
      <trkpt lat="45.9264" lon="4.69182">
        <ele>335</ele>
        <time>2018-11-02T10:10:11Z</time>
      </trkpt>
      <trkpt lat="45.92635" lon="4.69171">
        <ele>336</ele>
        <time>2018-11-02T10:10:15Z</time>
      </trkpt>
      <trkpt lat="45.92634" lon="4.69169">
        <ele>336</ele>
        <time>2018-11-02T10:10:16Z</time>
      </trkpt>
      <trkpt lat="45.9263" lon="4.69161">
        <ele>337</ele>
        <time>2018-11-02T10:10:19Z</time>
      </trkpt>
      <trkpt lat="45.92628" lon="4.69158">
        <ele>337</ele>
        <time>2018-11-02T10:10:20Z</time>
      </trkpt>
      <trkpt lat="45.92623" lon="4.6915">
        <ele>338</ele>
        <time>2018-11-02T10:10:24Z</time>
      </trkpt>
      <trkpt lat="45.92623" lon="4.69147">
        <ele>338</ele>
        <time>2018-11-02T10:10:25Z</time>
      </trkpt>
      <trkpt lat="45.92618" lon="4.69137">
        <ele>338</ele>
        <time>2018-11-02T10:10:29Z</time>
      </trkpt>
      <trkpt lat="45.92617" lon="4.69135">
        <ele>338</ele>
        <time>2018-11-02T10:10:30Z</time>
      </trkpt>
      <trkpt lat="45.92613" lon="4.69126">
        <ele>338</ele>
        <time>2018-11-02T10:10:33Z</time>
      </trkpt>
      <trkpt lat="45.92612" lon="4.69124">
        <ele>338</ele>
        <time>2018-11-02T10:10:34Z</time>
      </trkpt>
      <trkpt lat="45.92609" lon="4.69115">
        <ele>338</ele>
        <time>2018-11-02T10:10:37Z</time>
      </trkpt>
      <trkpt lat="45.92607" lon="4.69112">
        <ele>339</ele>
        <time>2018-11-02T10:10:38Z</time>
      </trkpt>
      <trkpt lat="45.92603" lon="4.69103">
        <ele>339</ele>
        <time>2018-11-02T10:10:41Z</time>
      </trkpt>
      <trkpt lat="45.92602" lon="4.69101">
        <ele>339</ele>
        <time>2018-11-02T10:10:42Z</time>
      </trkpt>
      <trkpt lat="45.92597" lon="4.69091">
        <ele>340</ele>
        <time>2018-11-02T10:10:46Z</time>
      </trkpt>
      <trkpt lat="45.92596" lon="4.69088">
        <ele>341</ele>
        <time>2018-11-02T10:10:47Z</time>
      </trkpt>
      <trkpt lat="45.92592" lon="4.69079">
        <ele>341</ele>
        <time>2018-11-02T10:10:51Z</time>
      </trkpt>
      <trkpt lat="45.9259" lon="4.69076">
        <ele>341</ele>
        <time>2018-11-02T10:10:52Z</time>
      </trkpt>
      <trkpt lat="45.92585" lon="4.69066">
        <ele>341</ele>
        <time>2018-11-02T10:10:56Z</time>
      </trkpt>
      <trkpt lat="45.92584" lon="4.69064">
        <ele>340</ele>
        <time>2018-11-02T10:10:57Z</time>
      </trkpt>
      <trkpt lat="45.9258" lon="4.69056">
        <ele>345</ele>
        <time>2018-11-02T10:11:01Z</time>
      </trkpt>
      <trkpt lat="45.92578" lon="4.69054">
        <ele>345</ele>
        <time>2018-11-02T10:11:02Z</time>
      </trkpt>
      <trkpt lat="45.92574" lon="4.69045">
        <ele>345</ele>
        <time>2018-11-02T10:11:06Z</time>
      </trkpt>
      <trkpt lat="45.92573" lon="4.69043">
        <ele>345</ele>
        <time>2018-11-02T10:11:07Z</time>
      </trkpt>
      <trkpt lat="45.92568" lon="4.69034">
        <ele>346</ele>
        <time>2018-11-02T10:11:11Z</time>
      </trkpt>
      <trkpt lat="45.92567" lon="4.69031">
        <ele>346</ele>
        <time>2018-11-02T10:11:12Z</time>
      </trkpt>
      <trkpt lat="45.92563" lon="4.69022">
        <ele>346</ele>
        <time>2018-11-02T10:11:16Z</time>
      </trkpt>
      <trkpt lat="45.92562" lon="4.6902">
        <ele>346</ele>
        <time>2018-11-02T10:11:17Z</time>
      </trkpt>
      <trkpt lat="45.92558" lon="4.6901">
        <ele>346</ele>
        <time>2018-11-02T10:11:22Z</time>
      </trkpt>
      <trkpt lat="45.92557" lon="4.69008">
        <ele>346</ele>
        <time>2018-11-02T10:11:23Z</time>
      </trkpt>
      <trkpt lat="45.92552" lon="4.68999">
        <ele>348</ele>
        <time>2018-11-02T10:11:28Z</time>
      </trkpt>
      <trkpt lat="45.9255" lon="4.68996">
        <ele>348</ele>
        <time>2018-11-02T10:11:29Z</time>
      </trkpt>
      <trkpt lat="45.92545" lon="4.68989">
        <ele>349</ele>
        <time>2018-11-02T10:11:33Z</time>
      </trkpt>
      <trkpt lat="45.92544" lon="4.68987">
        <ele>349</ele>
        <time>2018-11-02T10:11:34Z</time>
      </trkpt>
      <trkpt lat="45.92539" lon="4.68977">
        <ele>350</ele>
        <time>2018-11-02T10:11:39Z</time>
      </trkpt>
      <trkpt lat="45.92539" lon="4.68975">
        <ele>350</ele>
        <time>2018-11-02T10:11:40Z</time>
      </trkpt>
      <trkpt lat="45.92538" lon="4.68963">
        <ele>350</ele>
        <time>2018-11-02T10:11:45Z</time>
      </trkpt>
      <trkpt lat="45.92539" lon="4.6896">
        <ele>350</ele>
        <time>2018-11-02T10:11:46Z</time>
      </trkpt>
      <trkpt lat="45.92542" lon="4.68949">
        <ele>350</ele>
        <time>2018-11-02T10:11:51Z</time>
      </trkpt>
      <trkpt lat="45.92543" lon="4.68947">
        <ele>350</ele>
        <time>2018-11-02T10:11:52Z</time>
      </trkpt>
      <trkpt lat="45.92544" lon="4.68936">
        <ele>350</ele>
        <time>2018-11-02T10:11:56Z</time>
      </trkpt>
      <trkpt lat="45.92544" lon="4.68934">
        <ele>350</ele>
        <time>2018-11-02T10:11:57Z</time>
      </trkpt>
      <trkpt lat="45.92546" lon="4.68923">
        <ele>350</ele>
        <time>2018-11-02T10:12:01Z</time>
      </trkpt>
      <trkpt lat="45.92547" lon="4.68921">
        <ele>350</ele>
        <time>2018-11-02T10:12:02Z</time>
      </trkpt>
      <trkpt lat="45.92549" lon="4.6891">
        <ele>354</ele>
        <time>2018-11-02T10:12:07Z</time>
      </trkpt>
      <trkpt lat="45.9255" lon="4.68908">
        <ele>354</ele>
        <time>2018-11-02T10:12:08Z</time>
      </trkpt>
      <trkpt lat="45.92552" lon="4.68897">
        <ele>354</ele>
        <time>2018-11-02T10:12:13Z</time>
      </trkpt>
      <trkpt lat="45.92553" lon="4.68895">
        <ele>354</ele>
        <time>2018-11-02T10:12:14Z</time>
      </trkpt>
      <trkpt lat="45.92556" lon="4.68883">
        <ele>354</ele>
        <time>2018-11-02T10:12:20Z</time>
      </trkpt>
      <trkpt lat="45.92557" lon="4.68882">
        <ele>354</ele>
        <time>2018-11-02T10:12:21Z</time>
      </trkpt>
      <trkpt lat="45.9256" lon="4.68872">
        <ele>355</ele>
        <time>2018-11-02T10:12:26Z</time>
      </trkpt>
      <trkpt lat="45.9256" lon="4.6887">
        <ele>355</ele>
        <time>2018-11-02T10:12:27Z</time>
      </trkpt>
      <trkpt lat="45.92564" lon="4.68858">
        <ele>355</ele>
        <time>2018-11-02T10:12:33Z</time>
      </trkpt>
      <trkpt lat="45.92564" lon="4.68856">
        <ele>355</ele>
        <time>2018-11-02T10:12:34Z</time>
      </trkpt>
      <trkpt lat="45.92566" lon="4.68845">
        <ele>356</ele>
        <time>2018-11-02T10:12:39Z</time>
      </trkpt>
      <trkpt lat="45.92567" lon="4.68842">
        <ele>356</ele>
        <time>2018-11-02T10:12:40Z</time>
      </trkpt>
      <trkpt lat="45.92569" lon="4.68831">
        <ele>359</ele>
        <time>2018-11-02T10:12:45Z</time>
      </trkpt>
      <trkpt lat="45.92569" lon="4.68829">
        <ele>359</ele>
        <time>2018-11-02T10:12:46Z</time>
      </trkpt>
      <trkpt lat="45.92572" lon="4.68819">
        <ele>360</ele>
        <time>2018-11-02T10:12:51Z</time>
      </trkpt>
      <trkpt lat="45.92573" lon="4.68817">
        <ele>360</ele>
        <time>2018-11-02T10:12:52Z</time>
      </trkpt>
      <trkpt lat="45.92575" lon="4.68806">
        <ele>361</ele>
        <time>2018-11-02T10:12:57Z</time>
      </trkpt>
      <trkpt lat="45.92575" lon="4.68803">
        <ele>361</ele>
        <time>2018-11-02T10:12:58Z</time>
      </trkpt>
      <trkpt lat="45.92577" lon="4.68792">
        <ele>362</ele>
        <time>2018-11-02T10:13:03Z</time>
      </trkpt>
      <trkpt lat="45.92578" lon="4.6879">
        <ele>363</ele>
        <time>2018-11-02T10:13:04Z</time>
      </trkpt>
      <trkpt lat="45.9258" lon="4.68779">
        <ele>363</ele>
        <time>2018-11-02T10:13:09Z</time>
      </trkpt>
      <trkpt lat="45.9258" lon="4.68777">
        <ele>363</ele>
        <time>2018-11-02T10:13:10Z</time>
      </trkpt>
      <trkpt lat="45.92582" lon="4.68766">
        <ele>364</ele>
        <time>2018-11-02T10:13:15Z</time>
      </trkpt>
      <trkpt lat="45.92583" lon="4.68764">
        <ele>364</ele>
        <time>2018-11-02T10:13:16Z</time>
      </trkpt>
      <trkpt lat="45.92586" lon="4.68754">
        <ele>363</ele>
        <time>2018-11-02T10:13:21Z</time>
      </trkpt>
      <trkpt lat="45.92587" lon="4.68751">
        <ele>363</ele>
        <time>2018-11-02T10:13:22Z</time>
      </trkpt>
      <trkpt lat="45.9259" lon="4.68739">
        <ele>364</ele>
        <time>2018-11-02T10:13:27Z</time>
      </trkpt>
      <trkpt lat="45.9259" lon="4.68737">
        <ele>364</ele>
        <time>2018-11-02T10:13:28Z</time>
      </trkpt>
      <trkpt lat="45.92593" lon="4.68725">
        <ele>365</ele>
        <time>2018-11-02T10:13:33Z</time>
      </trkpt>
      <trkpt lat="45.92593" lon="4.68723">
        <ele>365</ele>
        <time>2018-11-02T10:13:34Z</time>
      </trkpt>
      <trkpt lat="45.92595" lon="4.6871">
        <ele>366</ele>
        <time>2018-11-02T10:13:39Z</time>
      </trkpt>
      <trkpt lat="45.92596" lon="4.68708">
        <ele>366</ele>
        <time>2018-11-02T10:13:40Z</time>
      </trkpt>
      <trkpt lat="45.92598" lon="4.68698">
        <ele>367</ele>
        <time>2018-11-02T10:13:44Z</time>
      </trkpt>
      <trkpt lat="45.92598" lon="4.68695">
        <ele>367</ele>
        <time>2018-11-02T10:13:45Z</time>
      </trkpt>
      <trkpt lat="45.92601" lon="4.68685">
        <ele>368</ele>
        <time>2018-11-02T10:13:49Z</time>
      </trkpt>
      <trkpt lat="45.92602" lon="4.68682">
        <ele>368</ele>
        <time>2018-11-02T10:13:50Z</time>
      </trkpt>
      <trkpt lat="45.92605" lon="4.6867">
        <ele>368</ele>
        <time>2018-11-02T10:13:54Z</time>
      </trkpt>
      <trkpt lat="45.92606" lon="4.68667">
        <ele>368</ele>
        <time>2018-11-02T10:13:55Z</time>
      </trkpt>
      <trkpt lat="45.92608" lon="4.68655">
        <ele>370</ele>
        <time>2018-11-02T10:13:58Z</time>
      </trkpt>
      <trkpt lat="45.92609" lon="4.68651">
        <ele>369</ele>
        <time>2018-11-02T10:13:59Z</time>
      </trkpt>
      <trkpt lat="45.92611" lon="4.6864">
        <ele>369</ele>
        <time>2018-11-02T10:14:03Z</time>
      </trkpt>
      <trkpt lat="45.92611" lon="4.68637">
        <ele>369</ele>
        <time>2018-11-02T10:14:04Z</time>
      </trkpt>
      <trkpt lat="45.92612" lon="4.68627">
        <ele>369</ele>
        <time>2018-11-02T10:14:07Z</time>
      </trkpt>
      <trkpt lat="45.92612" lon="4.68623">
        <ele>369</ele>
        <time>2018-11-02T10:14:08Z</time>
      </trkpt>
      <trkpt lat="45.9261" lon="4.68613">
        <ele>369</ele>
        <time>2018-11-02T10:14:11Z</time>
      </trkpt>
      <trkpt lat="45.92609" lon="4.68608">
        <ele>369</ele>
        <time>2018-11-02T10:14:12Z</time>
      </trkpt>
      <trkpt lat="45.92608" lon="4.68599">
        <ele>369</ele>
        <time>2018-11-02T10:14:13Z</time>
      </trkpt>
      <trkpt lat="45.92607" lon="4.68594">
        <ele>369</ele>
        <time>2018-11-02T10:14:14Z</time>
      </trkpt>
      <trkpt lat="45.92605" lon="4.68582">
        <ele>368</ele>
        <time>2018-11-02T10:14:16Z</time>
      </trkpt>
      <trkpt lat="45.92605" lon="4.68577">
        <ele>368</ele>
        <time>2018-11-02T10:14:17Z</time>
      </trkpt>
      <trkpt lat="45.92604" lon="4.6857">
        <ele>368</ele>
        <time>2018-11-02T10:14:18Z</time>
      </trkpt>
      <trkpt lat="45.92603" lon="4.68564">
        <ele>368</ele>
        <time>2018-11-02T10:14:19Z</time>
      </trkpt>
      <trkpt lat="45.92602" lon="4.68557">
        <ele>367</ele>
        <time>2018-11-02T10:14:20Z</time>
      </trkpt>
      <trkpt lat="45.92601" lon="4.6855">
        <ele>367</ele>
        <time>2018-11-02T10:14:21Z</time>
      </trkpt>
      <trkpt lat="45.926" lon="4.68543">
        <ele>367</ele>
        <time>2018-11-02T10:14:22Z</time>
      </trkpt>
      <trkpt lat="45.92599" lon="4.68535">
        <ele>366</ele>
        <time>2018-11-02T10:14:23Z</time>
      </trkpt>
      <trkpt lat="45.92598" lon="4.68527">
        <ele>366</ele>
        <time>2018-11-02T10:14:24Z</time>
      </trkpt>
      <trkpt lat="45.92596" lon="4.68518">
        <ele>366</ele>
        <time>2018-11-02T10:14:25Z</time>
      </trkpt>
      <trkpt lat="45.92595" lon="4.68508">
        <ele>366</ele>
        <time>2018-11-02T10:14:26Z</time>
      </trkpt>
      <trkpt lat="45.92593" lon="4.68498">
        <ele>364</ele>
        <time>2018-11-02T10:14:27Z</time>
      </trkpt>
      <trkpt lat="45.92592" lon="4.68488">
        <ele>364</ele>
        <time>2018-11-02T10:14:28Z</time>
      </trkpt>
      <trkpt lat="45.92592" lon="4.68476">
        <ele>363</ele>
        <time>2018-11-02T10:14:29Z</time>
      </trkpt>
      <trkpt lat="45.92592" lon="4.68463">
        <ele>363</ele>
        <time>2018-11-02T10:14:30Z</time>
      </trkpt>
      <trkpt lat="45.92591" lon="4.6845">
        <ele>362</ele>
        <time>2018-11-02T10:14:31Z</time>
      </trkpt>
      <trkpt lat="45.92592" lon="4.68437">
        <ele>361</ele>
        <time>2018-11-02T10:14:32Z</time>
      </trkpt>
      <trkpt lat="45.92593" lon="4.68422">
        <ele>360</ele>
        <time>2018-11-02T10:14:33Z</time>
      </trkpt>
      <trkpt lat="45.92593" lon="4.68407">
        <ele>358</ele>
        <time>2018-11-02T10:14:34Z</time>
      </trkpt>
      <trkpt lat="45.92592" lon="4.68391">
        <ele>358</ele>
        <time>2018-11-02T10:14:35Z</time>
      </trkpt>
      <trkpt lat="45.92592" lon="4.68377">
        <ele>357</ele>
        <time>2018-11-02T10:14:36Z</time>
      </trkpt>
      <trkpt lat="45.92592" lon="4.68362">
        <ele>356</ele>
        <time>2018-11-02T10:14:37Z</time>
      </trkpt>
      <trkpt lat="45.92592" lon="4.68347">
        <ele>355</ele>
        <time>2018-11-02T10:14:38Z</time>
      </trkpt>
      <trkpt lat="45.92592" lon="4.68332">
        <ele>352</ele>
        <time>2018-11-02T10:14:39Z</time>
      </trkpt>
      <trkpt lat="45.92593" lon="4.68318">
        <ele>351</ele>
        <time>2018-11-02T10:14:40Z</time>
      </trkpt>
      <trkpt lat="45.92593" lon="4.68303">
        <ele>350</ele>
        <time>2018-11-02T10:14:41Z</time>
      </trkpt>
      <trkpt lat="45.92592" lon="4.68289">
        <ele>349</ele>
        <time>2018-11-02T10:14:42Z</time>
      </trkpt>
      <trkpt lat="45.92592" lon="4.68274">
        <ele>348</ele>
        <time>2018-11-02T10:14:43Z</time>
      </trkpt>
      <trkpt lat="45.92594" lon="4.68259">
        <ele>347</ele>
        <time>2018-11-02T10:14:44Z</time>
      </trkpt>
      <trkpt lat="45.92594" lon="4.68244">
        <ele>344</ele>
        <time>2018-11-02T10:14:45Z</time>
      </trkpt>
      <trkpt lat="45.92592" lon="4.68229">
        <ele>342</ele>
        <time>2018-11-02T10:14:46Z</time>
      </trkpt>
      <trkpt lat="45.92593" lon="4.68213">
        <ele>341</ele>
        <time>2018-11-02T10:14:47Z</time>
      </trkpt>
      <trkpt lat="45.92592" lon="4.68197">
        <ele>340</ele>
        <time>2018-11-02T10:14:48Z</time>
      </trkpt>
      <trkpt lat="45.92592" lon="4.68182">
        <ele>339</ele>
        <time>2018-11-02T10:14:49Z</time>
      </trkpt>
      <trkpt lat="45.92592" lon="4.68167">
        <ele>339</ele>
        <time>2018-11-02T10:14:50Z</time>
      </trkpt>
      <trkpt lat="45.92593" lon="4.68152">
        <ele>335</ele>
        <time>2018-11-02T10:14:51Z</time>
      </trkpt>
      <trkpt lat="45.92594" lon="4.68136">
        <ele>333</ele>
        <time>2018-11-02T10:14:52Z</time>
      </trkpt>
      <trkpt lat="45.92594" lon="4.6812">
        <ele>333</ele>
        <time>2018-11-02T10:14:53Z</time>
      </trkpt>
      <trkpt lat="45.92594" lon="4.68104">
        <ele>332</ele>
        <time>2018-11-02T10:14:54Z</time>
      </trkpt>
      <trkpt lat="45.92594" lon="4.68088">
        <ele>333</ele>
        <time>2018-11-02T10:14:55Z</time>
      </trkpt>
      <trkpt lat="45.92593" lon="4.68073">
        <ele>330</ele>
        <time>2018-11-02T10:14:56Z</time>
      </trkpt>
      <trkpt lat="45.92592" lon="4.68057">
        <ele>329</ele>
        <time>2018-11-02T10:14:57Z</time>
      </trkpt>
      <trkpt lat="45.92591" lon="4.68042">
        <ele>328</ele>
        <time>2018-11-02T10:14:58Z</time>
      </trkpt>
      <trkpt lat="45.92589" lon="4.68029">
        <ele>328</ele>
        <time>2018-11-02T10:14:59Z</time>
      </trkpt>
      <trkpt lat="45.92587" lon="4.68014">
        <ele>329</ele>
        <time>2018-11-02T10:15:00Z</time>
      </trkpt>
      <trkpt lat="45.92585" lon="4.68">
        <ele>331</ele>
        <time>2018-11-02T10:15:01Z</time>
      </trkpt>
      <trkpt lat="45.92582" lon="4.67986">
        <ele>331</ele>
        <time>2018-11-02T10:15:02Z</time>
      </trkpt>
      <trkpt lat="45.92579" lon="4.67974">
        <ele>331</ele>
        <time>2018-11-02T10:15:03Z</time>
      </trkpt>
      <trkpt lat="45.92577" lon="4.67962">
        <ele>330</ele>
        <time>2018-11-02T10:15:04Z</time>
      </trkpt>
      <trkpt lat="45.92575" lon="4.6795">
        <ele>330</ele>
        <time>2018-11-02T10:15:05Z</time>
      </trkpt>
      <trkpt lat="45.92573" lon="4.6794">
        <ele>329</ele>
        <time>2018-11-02T10:15:06Z</time>
      </trkpt>
      <trkpt lat="45.92571" lon="4.67929">
        <ele>329</ele>
        <time>2018-11-02T10:15:07Z</time>
      </trkpt>
      <trkpt lat="45.9257" lon="4.67918">
        <ele>328</ele>
        <time>2018-11-02T10:15:08Z</time>
      </trkpt>
      <trkpt lat="45.92569" lon="4.67907">
        <ele>326</ele>
        <time>2018-11-02T10:15:09Z</time>
      </trkpt>
      <trkpt lat="45.9257" lon="4.67894">
        <ele>325</ele>
        <time>2018-11-02T10:15:10Z</time>
      </trkpt>
      <trkpt lat="45.92571" lon="4.67883">
        <ele>325</ele>
        <time>2018-11-02T10:15:11Z</time>
      </trkpt>
      <trkpt lat="45.92572" lon="4.67871">
        <ele>324</ele>
        <time>2018-11-02T10:15:12Z</time>
      </trkpt>
      <trkpt lat="45.92573" lon="4.67858">
        <ele>323</ele>
        <time>2018-11-02T10:15:13Z</time>
      </trkpt>
      <trkpt lat="45.92574" lon="4.67844">
        <ele>322</ele>
        <time>2018-11-02T10:15:14Z</time>
      </trkpt>
      <trkpt lat="45.92575" lon="4.67831">
        <ele>319</ele>
        <time>2018-11-02T10:15:15Z</time>
      </trkpt>
      <trkpt lat="45.92576" lon="4.67818">
        <ele>318</ele>
        <time>2018-11-02T10:15:16Z</time>
      </trkpt>
      <trkpt lat="45.92577" lon="4.67804">
        <ele>317</ele>
        <time>2018-11-02T10:15:17Z</time>
      </trkpt>
      <trkpt lat="45.92579" lon="4.67791">
        <ele>316</ele>
        <time>2018-11-02T10:15:18Z</time>
      </trkpt>
      <trkpt lat="45.92583" lon="4.67779">
        <ele>315</ele>
        <time>2018-11-02T10:15:19Z</time>
      </trkpt>
      <trkpt lat="45.92587" lon="4.67767">
        <ele>313</ele>
        <time>2018-11-02T10:15:20Z</time>
      </trkpt>
      <trkpt lat="45.92593" lon="4.67755">
        <ele>312</ele>
        <time>2018-11-02T10:15:21Z</time>
      </trkpt>
      <trkpt lat="45.92599" lon="4.67744">
        <ele>308</ele>
        <time>2018-11-02T10:15:22Z</time>
      </trkpt>
      <trkpt lat="45.92605" lon="4.67732">
        <ele>307</ele>
        <time>2018-11-02T10:15:23Z</time>
      </trkpt>
      <trkpt lat="45.9261" lon="4.67719">
        <ele>306</ele>
        <time>2018-11-02T10:15:24Z</time>
      </trkpt>
      <trkpt lat="45.92615" lon="4.67705">
        <ele>305</ele>
        <time>2018-11-02T10:15:25Z</time>
      </trkpt>
      <trkpt lat="45.92619" lon="4.67689">
        <ele>304</ele>
        <time>2018-11-02T10:15:26Z</time>
      </trkpt>
      <trkpt lat="45.92621" lon="4.67673">
        <ele>304</ele>
        <time>2018-11-02T10:15:27Z</time>
      </trkpt>
      <trkpt lat="45.92621" lon="4.67655">
        <ele>299</ele>
        <time>2018-11-02T10:15:28Z</time>
      </trkpt>
      <trkpt lat="45.9262" lon="4.67637">
        <ele>299</ele>
        <time>2018-11-02T10:15:29Z</time>
      </trkpt>
      <trkpt lat="45.92618" lon="4.67619">
        <ele>299</ele>
        <time>2018-11-02T10:15:30Z</time>
      </trkpt>
      <trkpt lat="45.92616" lon="4.67601">
        <ele>298</ele>
        <time>2018-11-02T10:15:31Z</time>
      </trkpt>
      <trkpt lat="45.92613" lon="4.67583">
        <ele>298</ele>
        <time>2018-11-02T10:15:32Z</time>
      </trkpt>
      <trkpt lat="45.92609" lon="4.67566">
        <ele>296</ele>
        <time>2018-11-02T10:15:33Z</time>
      </trkpt>
      <trkpt lat="45.92605" lon="4.67548">
        <ele>296</ele>
        <time>2018-11-02T10:15:34Z</time>
      </trkpt>
      <trkpt lat="45.92603" lon="4.67531">
        <ele>296</ele>
        <time>2018-11-02T10:15:35Z</time>
      </trkpt>
      <trkpt lat="45.926" lon="4.67515">
        <ele>296</ele>
        <time>2018-11-02T10:15:36Z</time>
      </trkpt>
      <trkpt lat="45.92598" lon="4.675">
        <ele>297</ele>
        <time>2018-11-02T10:15:37Z</time>
      </trkpt>
      <trkpt lat="45.92595" lon="4.67485">
        <ele>297</ele>
        <time>2018-11-02T10:15:38Z</time>
      </trkpt>
      <trkpt lat="45.92592" lon="4.6747">
        <ele>297</ele>
        <time>2018-11-02T10:15:39Z</time>
      </trkpt>
      <trkpt lat="45.92589" lon="4.67456">
        <ele>298</ele>
        <time>2018-11-02T10:15:40Z</time>
      </trkpt>
      <trkpt lat="45.92585" lon="4.67443">
        <ele>298</ele>
        <time>2018-11-02T10:15:41Z</time>
      </trkpt>
      <trkpt lat="45.92582" lon="4.67431">
        <ele>299</ele>
        <time>2018-11-02T10:15:42Z</time>
      </trkpt>
      <trkpt lat="45.92579" lon="4.6742">
        <ele>300</ele>
        <time>2018-11-02T10:15:43Z</time>
      </trkpt>
      <trkpt lat="45.92577" lon="4.67411">
        <ele>301</ele>
        <time>2018-11-02T10:15:44Z</time>
      </trkpt>
      <trkpt lat="45.92574" lon="4.67403">
        <ele>301</ele>
        <time>2018-11-02T10:15:45Z</time>
      </trkpt>
      <trkpt lat="45.92572" lon="4.67396">
        <ele>302</ele>
        <time>2018-11-02T10:15:46Z</time>
      </trkpt>
      <trkpt lat="45.92569" lon="4.67386">
        <ele>302</ele>
        <time>2018-11-02T10:15:48Z</time>
      </trkpt>
      <trkpt lat="45.92568" lon="4.67384">
        <ele>302</ele>
        <time>2018-11-02T10:15:49Z</time>
      </trkpt>
      <trkpt lat="45.92563" lon="4.67376">
        <ele>302</ele>
        <time>2018-11-02T10:15:52Z</time>
      </trkpt>
      <trkpt lat="45.92562" lon="4.67374">
        <ele>303</ele>
        <time>2018-11-02T10:15:53Z</time>
      </trkpt>
      <trkpt lat="45.92559" lon="4.67362">
        <ele>303</ele>
        <time>2018-11-02T10:16:04Z</time>
      </trkpt>
      <trkpt lat="45.92559" lon="4.67361">
        <ele>303</ele>
        <time>2018-11-02T10:16:05Z</time>
      </trkpt>
      <trkpt lat="45.92557" lon="4.67351">
        <ele>303</ele>
        <time>2018-11-02T10:16:58Z</time>
      </trkpt>
      <trkpt lat="45.92556" lon="4.67349">
        <ele>303</ele>
        <time>2018-11-02T10:16:59Z</time>
      </trkpt>
      <trkpt lat="45.92552" lon="4.67338">
        <ele>303</ele>
        <time>2018-11-02T10:17:04Z</time>
      </trkpt>
      <trkpt lat="45.92552" lon="4.67336">
        <ele>303</ele>
        <time>2018-11-02T10:17:05Z</time>
      </trkpt>
      <trkpt lat="45.92549" lon="4.67325">
        <ele>306</ele>
        <time>2018-11-02T10:17:09Z</time>
      </trkpt>
      <trkpt lat="45.92548" lon="4.67322">
        <ele>307</ele>
        <time>2018-11-02T10:17:10Z</time>
      </trkpt>
      <trkpt lat="45.92546" lon="4.67313">
        <ele>307</ele>
        <time>2018-11-02T10:17:14Z</time>
      </trkpt>
      <trkpt lat="45.92546" lon="4.6731">
        <ele>307</ele>
        <time>2018-11-02T10:17:15Z</time>
      </trkpt>
      <trkpt lat="45.92545" lon="4.673">
        <ele>307</ele>
        <time>2018-11-02T10:17:18Z</time>
      </trkpt>
      <trkpt lat="45.92545" lon="4.67297">
        <ele>307</ele>
        <time>2018-11-02T10:17:19Z</time>
      </trkpt>
      <trkpt lat="45.92544" lon="4.67287">
        <ele>307</ele>
        <time>2018-11-02T10:17:22Z</time>
      </trkpt>
      <trkpt lat="45.92544" lon="4.67283">
        <ele>307</ele>
        <time>2018-11-02T10:17:23Z</time>
      </trkpt>
      <trkpt lat="45.92544" lon="4.67273">
        <ele>308</ele>
        <time>2018-11-02T10:17:26Z</time>
      </trkpt>
      <trkpt lat="45.92545" lon="4.67269">
        <ele>308</ele>
        <time>2018-11-02T10:17:27Z</time>
      </trkpt>
      <trkpt lat="45.92546" lon="4.67258">
        <ele>308</ele>
        <time>2018-11-02T10:17:31Z</time>
      </trkpt>
      <trkpt lat="45.92546" lon="4.67255">
        <ele>308</ele>
        <time>2018-11-02T10:17:32Z</time>
      </trkpt>
      <trkpt lat="45.92548" lon="4.67243">
        <ele>312</ele>
        <time>2018-11-02T10:17:36Z</time>
      </trkpt>
      <trkpt lat="45.92548" lon="4.6724">
        <ele>312</ele>
        <time>2018-11-02T10:17:37Z</time>
      </trkpt>
      <trkpt lat="45.9255" lon="4.67229">
        <ele>312</ele>
        <time>2018-11-02T10:17:41Z</time>
      </trkpt>
      <trkpt lat="45.9255" lon="4.67226">
        <ele>312</ele>
        <time>2018-11-02T10:17:42Z</time>
      </trkpt>
      <trkpt lat="45.92552" lon="4.67214">
        <ele>313</ele>
        <time>2018-11-02T10:17:46Z</time>
      </trkpt>
      <trkpt lat="45.92553" lon="4.67211">
        <ele>313</ele>
        <time>2018-11-02T10:17:47Z</time>
      </trkpt>
      <trkpt lat="45.92557" lon="4.672">
        <ele>314</ele>
        <time>2018-11-02T10:17:51Z</time>
      </trkpt>
      <trkpt lat="45.92558" lon="4.67197">
        <ele>314</ele>
        <time>2018-11-02T10:17:52Z</time>
      </trkpt>
      <trkpt lat="45.92561" lon="4.67186">
        <ele>314</ele>
        <time>2018-11-02T10:17:56Z</time>
      </trkpt>
      <trkpt lat="45.92563" lon="4.67184">
        <ele>315</ele>
        <time>2018-11-02T10:17:57Z</time>
      </trkpt>
      <trkpt lat="45.92566" lon="4.67174">
        <ele>315</ele>
        <time>2018-11-02T10:18:01Z</time>
      </trkpt>
      <trkpt lat="45.92567" lon="4.67172">
        <ele>315</ele>
        <time>2018-11-02T10:18:02Z</time>
      </trkpt>
      <trkpt lat="45.92571" lon="4.67161">
        <ele>320</ele>
        <time>2018-11-02T10:18:07Z</time>
      </trkpt>
      <trkpt lat="45.92571" lon="4.67159">
        <ele>320</ele>
        <time>2018-11-02T10:18:08Z</time>
      </trkpt>
      <trkpt lat="45.92575" lon="4.67148">
        <ele>321</ele>
        <time>2018-11-02T10:18:13Z</time>
      </trkpt>
      <trkpt lat="45.92576" lon="4.67146">
        <ele>321</ele>
        <time>2018-11-02T10:18:14Z</time>
      </trkpt>
      <trkpt lat="45.92579" lon="4.67137">
        <ele>322</ele>
        <time>2018-11-02T10:18:19Z</time>
      </trkpt>
      <trkpt lat="45.9258" lon="4.67135">
        <ele>322</ele>
        <time>2018-11-02T10:18:20Z</time>
      </trkpt>
      <trkpt lat="45.92582" lon="4.67124">
        <ele>324</ele>
        <time>2018-11-02T10:18:25Z</time>
      </trkpt>
      <trkpt lat="45.92583" lon="4.67122">
        <ele>324</ele>
        <time>2018-11-02T10:18:26Z</time>
      </trkpt>
      <trkpt lat="45.92585" lon="4.67111">
        <ele>325</ele>
        <time>2018-11-02T10:18:31Z</time>
      </trkpt>
      <trkpt lat="45.92586" lon="4.67109">
        <ele>325</ele>
        <time>2018-11-02T10:18:32Z</time>
      </trkpt>
      <trkpt lat="45.92589" lon="4.67098">
        <ele>327</ele>
        <time>2018-11-02T10:18:38Z</time>
      </trkpt>
      <trkpt lat="45.92589" lon="4.67096">
        <ele>327</ele>
        <time>2018-11-02T10:18:39Z</time>
      </trkpt>
      <trkpt lat="45.92591" lon="4.67084">
        <ele>328</ele>
        <time>2018-11-02T10:18:44Z</time>
      </trkpt>
      <trkpt lat="45.92591" lon="4.67082">
        <ele>330</ele>
        <time>2018-11-02T10:18:45Z</time>
      </trkpt>
      <trkpt lat="45.92593" lon="4.67071">
        <ele>331</ele>
        <time>2018-11-02T10:18:50Z</time>
      </trkpt>
      <trkpt lat="45.92593" lon="4.67069">
        <ele>331</ele>
        <time>2018-11-02T10:18:51Z</time>
      </trkpt>
      <trkpt lat="45.92594" lon="4.67057">
        <ele>331</ele>
        <time>2018-11-02T10:18:57Z</time>
      </trkpt>
      <trkpt lat="45.92594" lon="4.67055">
        <ele>331</ele>
        <time>2018-11-02T10:18:58Z</time>
      </trkpt>
      <trkpt lat="45.92595" lon="4.67043">
        <ele>332</ele>
        <time>2018-11-02T10:19:04Z</time>
      </trkpt>
      <trkpt lat="45.92595" lon="4.67041">
        <ele>332</ele>
        <time>2018-11-02T10:19:05Z</time>
      </trkpt>
      <trkpt lat="45.92598" lon="4.6703">
        <ele>333</ele>
        <time>2018-11-02T10:19:10Z</time>
      </trkpt>
      <trkpt lat="45.92599" lon="4.67028">
        <ele>333</ele>
        <time>2018-11-02T10:19:11Z</time>
      </trkpt>
      <trkpt lat="45.926" lon="4.67018">
        <ele>334</ele>
        <time>2018-11-02T10:19:16Z</time>
      </trkpt>
      <trkpt lat="45.926" lon="4.67016">
        <ele>334</ele>
        <time>2018-11-02T10:19:17Z</time>
      </trkpt>
      <trkpt lat="45.92602" lon="4.67005">
        <ele>334</ele>
        <time>2018-11-02T10:19:22Z</time>
      </trkpt>
      <trkpt lat="45.92603" lon="4.67003">
        <ele>334</ele>
        <time>2018-11-02T10:19:23Z</time>
      </trkpt>
      <trkpt lat="45.92605" lon="4.66991">
        <ele>337</ele>
        <time>2018-11-02T10:19:28Z</time>
      </trkpt>
      <trkpt lat="45.92606" lon="4.66989">
        <ele>337</ele>
        <time>2018-11-02T10:19:29Z</time>
      </trkpt>
      <trkpt lat="45.92608" lon="4.66978">
        <ele>337</ele>
        <time>2018-11-02T10:19:34Z</time>
      </trkpt>
      <trkpt lat="45.92609" lon="4.66976">
        <ele>337</ele>
        <time>2018-11-02T10:19:35Z</time>
      </trkpt>
      <trkpt lat="45.92612" lon="4.66965">
        <ele>337</ele>
        <time>2018-11-02T10:19:40Z</time>
      </trkpt>
      <trkpt lat="45.92613" lon="4.66963">
        <ele>337</ele>
        <time>2018-11-02T10:19:41Z</time>
      </trkpt>
      <trkpt lat="45.92615" lon="4.66952">
        <ele>337</ele>
        <time>2018-11-02T10:19:45Z</time>
      </trkpt>
      <trkpt lat="45.92616" lon="4.66949">
        <ele>337</ele>
        <time>2018-11-02T10:19:46Z</time>
      </trkpt>
      <trkpt lat="45.92617" lon="4.66937">
        <ele>337</ele>
        <time>2018-11-02T10:19:51Z</time>
      </trkpt>
      <trkpt lat="45.92618" lon="4.66935">
        <ele>337</ele>
        <time>2018-11-02T10:19:52Z</time>
      </trkpt>
      <trkpt lat="45.92621" lon="4.66924">
        <ele>338</ele>
        <time>2018-11-02T10:19:56Z</time>
      </trkpt>
      <trkpt lat="45.92622" lon="4.66921">
        <ele>338</ele>
        <time>2018-11-02T10:19:57Z</time>
      </trkpt>
      <trkpt lat="45.92625" lon="4.66912">
        <ele>339</ele>
        <time>2018-11-02T10:20:00Z</time>
      </trkpt>
      <trkpt lat="45.92626" lon="4.66909">
        <ele>339</ele>
        <time>2018-11-02T10:20:01Z</time>
      </trkpt>
      <trkpt lat="45.92628" lon="4.66899">
        <ele>339</ele>
        <time>2018-11-02T10:20:04Z</time>
      </trkpt>
      <trkpt lat="45.92629" lon="4.66895">
        <ele>339</ele>
        <time>2018-11-02T10:20:05Z</time>
      </trkpt>
      <trkpt lat="45.9263" lon="4.66885">
        <ele>339</ele>
        <time>2018-11-02T10:20:08Z</time>
      </trkpt>
      <trkpt lat="45.92631" lon="4.66882">
        <ele>339</ele>
        <time>2018-11-02T10:20:09Z</time>
      </trkpt>
      <trkpt lat="45.92633" lon="4.66873">
        <ele>338</ele>
        <time>2018-11-02T10:20:11Z</time>
      </trkpt>
      <trkpt lat="45.92634" lon="4.66869">
        <ele>338</ele>
        <time>2018-11-02T10:20:12Z</time>
      </trkpt>
      <trkpt lat="45.92636" lon="4.66857">
        <ele>338</ele>
        <time>2018-11-02T10:20:15Z</time>
      </trkpt>
      <trkpt lat="45.92636" lon="4.66854">
        <ele>338</ele>
        <time>2018-11-02T10:20:16Z</time>
      </trkpt>
      <trkpt lat="45.92637" lon="4.66843">
        <ele>338</ele>
        <time>2018-11-02T10:20:19Z</time>
      </trkpt>
      <trkpt lat="45.92638" lon="4.66839">
        <ele>338</ele>
        <time>2018-11-02T10:20:20Z</time>
      </trkpt>
      <trkpt lat="45.92639" lon="4.66828">
        <ele>338</ele>
        <time>2018-11-02T10:20:23Z</time>
      </trkpt>
      <trkpt lat="45.9264" lon="4.66823">
        <ele>338</ele>
        <time>2018-11-02T10:20:24Z</time>
      </trkpt>
      <trkpt lat="45.92642" lon="4.66811">
        <ele>338</ele>
        <time>2018-11-02T10:20:27Z</time>
      </trkpt>
      <trkpt lat="45.92643" lon="4.66807">
        <ele>338</ele>
        <time>2018-11-02T10:20:28Z</time>
      </trkpt>
      <trkpt lat="45.92644" lon="4.66802">
        <ele>338</ele>
        <time>2018-11-02T10:20:29Z</time>
      </trkpt>
      <trkpt lat="45.92645" lon="4.66792">
        <ele>338</ele>
        <time>2018-11-02T10:20:30Z</time>
      </trkpt>
      <trkpt lat="45.92646" lon="4.66781">
        <ele>338</ele>
        <time>2018-11-02T10:20:32Z</time>
      </trkpt>
      <trkpt lat="45.92647" lon="4.66778">
        <ele>338</ele>
        <time>2018-11-02T10:20:33Z</time>
      </trkpt>
      <trkpt lat="45.92647" lon="4.66767">
        <ele>338</ele>
        <time>2018-11-02T10:20:36Z</time>
      </trkpt>
      <trkpt lat="45.92648" lon="4.66763">
        <ele>338</ele>
        <time>2018-11-02T10:20:37Z</time>
      </trkpt>
      <trkpt lat="45.92648" lon="4.66754">
        <ele>338</ele>
        <time>2018-11-02T10:20:39Z</time>
      </trkpt>
      <trkpt lat="45.92648" lon="4.66749">
        <ele>339</ele>
        <time>2018-11-02T10:20:40Z</time>
      </trkpt>
      <trkpt lat="45.92648" lon="4.66738">
        <ele>339</ele>
        <time>2018-11-02T10:20:42Z</time>
      </trkpt>
      <trkpt lat="45.92648" lon="4.66734">
        <ele>340</ele>
        <time>2018-11-02T10:20:43Z</time>
      </trkpt>
      <trkpt lat="45.92648" lon="4.66729">
        <ele>340</ele>
        <time>2018-11-02T10:20:44Z</time>
      </trkpt>
      <trkpt lat="45.92648" lon="4.66719">
        <ele>340</ele>
        <time>2018-11-02T10:20:45Z</time>
      </trkpt>
      <trkpt lat="45.92646" lon="4.66709">
        <ele>341</ele>
        <time>2018-11-02T10:20:48Z</time>
      </trkpt>
      <trkpt lat="45.92646" lon="4.66705">
        <ele>341</ele>
        <time>2018-11-02T10:20:49Z</time>
      </trkpt>
      <trkpt lat="45.92646" lon="4.66693">
        <ele>341</ele>
        <time>2018-11-02T10:20:52Z</time>
      </trkpt>
      <trkpt lat="45.92645" lon="4.6669">
        <ele>341</ele>
        <time>2018-11-02T10:20:53Z</time>
      </trkpt>
      <trkpt lat="45.92644" lon="4.6668">
        <ele>341</ele>
        <time>2018-11-02T10:20:54Z</time>
      </trkpt>
      <trkpt lat="45.92644" lon="4.66677">
        <ele>341</ele>
        <time>2018-11-02T10:20:55Z</time>
      </trkpt>
      <trkpt lat="45.92643" lon="4.66664">
        <ele>343</ele>
        <time>2018-11-02T10:20:57Z</time>
      </trkpt>
      <trkpt lat="45.92642" lon="4.66658">
        <ele>344</ele>
        <time>2018-11-02T10:20:58Z</time>
      </trkpt>
      <trkpt lat="45.92642" lon="4.66652">
        <ele>344</ele>
        <time>2018-11-02T10:20:59Z</time>
      </trkpt>
      <trkpt lat="45.92642" lon="4.66645">
        <ele>344</ele>
        <time>2018-11-02T10:21:00Z</time>
      </trkpt>
      <trkpt lat="45.92641" lon="4.66636">
        <ele>344</ele>
        <time>2018-11-02T10:21:02Z</time>
      </trkpt>
      <trkpt lat="45.92641" lon="4.6663">
        <ele>344</ele>
        <time>2018-11-02T10:21:03Z</time>
      </trkpt>
      <trkpt lat="45.9264" lon="4.66619">
        <ele>344</ele>
        <time>2018-11-02T10:21:05Z</time>
      </trkpt>
      <trkpt lat="45.92638" lon="4.66614">
        <ele>344</ele>
        <time>2018-11-02T10:21:06Z</time>
      </trkpt>
      <trkpt lat="45.92636" lon="4.66603">
        <ele>345</ele>
        <time>2018-11-02T10:21:08Z</time>
      </trkpt>
      <trkpt lat="45.92636" lon="4.66596">
        <ele>345</ele>
        <time>2018-11-02T10:21:09Z</time>
      </trkpt>
      <trkpt lat="45.92637" lon="4.66591">
        <ele>345</ele>
        <time>2018-11-02T10:21:10Z</time>
      </trkpt>
      <trkpt lat="45.92638" lon="4.66582">
        <ele>344</ele>
        <time>2018-11-02T10:21:11Z</time>
      </trkpt>
      <trkpt lat="45.92639" lon="4.66574">
        <ele>344</ele>
        <time>2018-11-02T10:21:12Z</time>
      </trkpt>
      <trkpt lat="45.92639" lon="4.66568">
        <ele>343</ele>
        <time>2018-11-02T10:21:13Z</time>
      </trkpt>
      <trkpt lat="45.9264" lon="4.66561">
        <ele>343</ele>
        <time>2018-11-02T10:21:14Z</time>
      </trkpt>
      <trkpt lat="45.92641" lon="4.66553">
        <ele>343</ele>
        <time>2018-11-02T10:21:15Z</time>
      </trkpt>
      <trkpt lat="45.92642" lon="4.66545">
        <ele>343</ele>
        <time>2018-11-02T10:21:16Z</time>
      </trkpt>
      <trkpt lat="45.92641" lon="4.66536">
        <ele>342</ele>
        <time>2018-11-02T10:21:17Z</time>
      </trkpt>
      <trkpt lat="45.92643" lon="4.66529">
        <ele>342</ele>
        <time>2018-11-02T10:21:18Z</time>
      </trkpt>
      <trkpt lat="45.92644" lon="4.6652">
        <ele>341</ele>
        <time>2018-11-02T10:21:19Z</time>
      </trkpt>
      <trkpt lat="45.92645" lon="4.66512">
        <ele>341</ele>
        <time>2018-11-02T10:21:20Z</time>
      </trkpt>
      <trkpt lat="45.92646" lon="4.66502">
        <ele>340</ele>
        <time>2018-11-02T10:21:21Z</time>
      </trkpt>
      <trkpt lat="45.92646" lon="4.66492">
        <ele>337</ele>
        <time>2018-11-02T10:21:22Z</time>
      </trkpt>
      <trkpt lat="45.92648" lon="4.66482">
        <ele>336</ele>
        <time>2018-11-02T10:21:23Z</time>
      </trkpt>
      <trkpt lat="45.92649" lon="4.6647">
        <ele>336</ele>
        <time>2018-11-02T10:21:24Z</time>
      </trkpt>
      <trkpt lat="45.92651" lon="4.66459">
        <ele>336</ele>
        <time>2018-11-02T10:21:25Z</time>
      </trkpt>
      <trkpt lat="45.92652" lon="4.66447">
        <ele>335</ele>
        <time>2018-11-02T10:21:26Z</time>
      </trkpt>
      <trkpt lat="45.92653" lon="4.66435">
        <ele>335</ele>
        <time>2018-11-02T10:21:27Z</time>
      </trkpt>
      <trkpt lat="45.92655" lon="4.66421">
        <ele>334</ele>
        <time>2018-11-02T10:21:28Z</time>
      </trkpt>
      <trkpt lat="45.92656" lon="4.66407">
        <ele>332</ele>
        <time>2018-11-02T10:21:29Z</time>
      </trkpt>
      <trkpt lat="45.92658" lon="4.66393">
        <ele>332</ele>
        <time>2018-11-02T10:21:30Z</time>
      </trkpt>
      <trkpt lat="45.9266" lon="4.66378">
        <ele>331</ele>
        <time>2018-11-02T10:21:31Z</time>
      </trkpt>
      <trkpt lat="45.92661" lon="4.66363">
        <ele>331</ele>
        <time>2018-11-02T10:21:32Z</time>
      </trkpt>
      <trkpt lat="45.92666" lon="4.66346">
        <ele>331</ele>
        <time>2018-11-02T10:21:33Z</time>
      </trkpt>
      <trkpt lat="45.92669" lon="4.6633">
        <ele>331</ele>
        <time>2018-11-02T10:21:34Z</time>
      </trkpt>
      <trkpt lat="45.9267" lon="4.66314">
        <ele>330</ele>
        <time>2018-11-02T10:21:35Z</time>
      </trkpt>
      <trkpt lat="45.92673" lon="4.66298">
        <ele>330</ele>
        <time>2018-11-02T10:21:36Z</time>
      </trkpt>
      <trkpt lat="45.92675" lon="4.66281">
        <ele>329</ele>
        <time>2018-11-02T10:21:37Z</time>
      </trkpt>
      <trkpt lat="45.92677" lon="4.66265">
        <ele>327</ele>
        <time>2018-11-02T10:21:38Z</time>
      </trkpt>
      <trkpt lat="45.9268" lon="4.6625">
        <ele>324</ele>
        <time>2018-11-02T10:21:39Z</time>
      </trkpt>
      <trkpt lat="45.92683" lon="4.66235">
        <ele>324</ele>
        <time>2018-11-02T10:21:40Z</time>
      </trkpt>
      <trkpt lat="45.92687" lon="4.66219">
        <ele>324</ele>
        <time>2018-11-02T10:21:41Z</time>
      </trkpt>
      <trkpt lat="45.9269" lon="4.66204">
        <ele>323</ele>
        <time>2018-11-02T10:21:42Z</time>
      </trkpt>
      <trkpt lat="45.92693" lon="4.66189">
        <ele>323</ele>
        <time>2018-11-02T10:21:43Z</time>
      </trkpt>
      <trkpt lat="45.92697" lon="4.66175">
        <ele>322</ele>
        <time>2018-11-02T10:21:44Z</time>
      </trkpt>
      <trkpt lat="45.92702" lon="4.66162">
        <ele>321</ele>
        <time>2018-11-02T10:21:45Z</time>
      </trkpt>
      <trkpt lat="45.92705" lon="4.66147">
        <ele>321</ele>
        <time>2018-11-02T10:21:46Z</time>
      </trkpt>
      <trkpt lat="45.92709" lon="4.66133">
        <ele>321</ele>
        <time>2018-11-02T10:21:47Z</time>
      </trkpt>
      <trkpt lat="45.92713" lon="4.66121">
        <ele>322</ele>
        <time>2018-11-02T10:21:48Z</time>
      </trkpt>
      <trkpt lat="45.92718" lon="4.66107">
        <ele>322</ele>
        <time>2018-11-02T10:21:49Z</time>
      </trkpt>
      <trkpt lat="45.92722" lon="4.66096">
        <ele>322</ele>
        <time>2018-11-02T10:21:50Z</time>
      </trkpt>
      <trkpt lat="45.92724" lon="4.66084">
        <ele>322</ele>
        <time>2018-11-02T10:21:51Z</time>
      </trkpt>
      <trkpt lat="45.92727" lon="4.6607">
        <ele>323</ele>
        <time>2018-11-02T10:21:52Z</time>
      </trkpt>
      <trkpt lat="45.92729" lon="4.66056">
        <ele>323</ele>
        <time>2018-11-02T10:21:53Z</time>
      </trkpt>
      <trkpt lat="45.92731" lon="4.66043">
        <ele>323</ele>
        <time>2018-11-02T10:21:54Z</time>
      </trkpt>
      <trkpt lat="45.92733" lon="4.66027">
        <ele>323</ele>
        <time>2018-11-02T10:21:55Z</time>
      </trkpt>
      <trkpt lat="45.92734" lon="4.66014">
        <ele>323</ele>
        <time>2018-11-02T10:21:56Z</time>
      </trkpt>
      <trkpt lat="45.92734" lon="4.65999">
        <ele>323</ele>
        <time>2018-11-02T10:21:57Z</time>
      </trkpt>
      <trkpt lat="45.92735" lon="4.65985">
        <ele>323</ele>
        <time>2018-11-02T10:21:58Z</time>
      </trkpt>
      <trkpt lat="45.92735" lon="4.65971">
        <ele>322</ele>
        <time>2018-11-02T10:21:59Z</time>
      </trkpt>
      <trkpt lat="45.92733" lon="4.65957">
        <ele>322</ele>
        <time>2018-11-02T10:22:00Z</time>
      </trkpt>
      <trkpt lat="45.92732" lon="4.65941">
        <ele>321</ele>
        <time>2018-11-02T10:22:01Z</time>
      </trkpt>
      <trkpt lat="45.92732" lon="4.65926">
        <ele>321</ele>
        <time>2018-11-02T10:22:02Z</time>
      </trkpt>
      <trkpt lat="45.92732" lon="4.65911">
        <ele>319</ele>
        <time>2018-11-02T10:22:03Z</time>
      </trkpt>
      <trkpt lat="45.92733" lon="4.65896">
        <ele>319</ele>
        <time>2018-11-02T10:22:04Z</time>
      </trkpt>
      <trkpt lat="45.92733" lon="4.65882">
        <ele>318</ele>
        <time>2018-11-02T10:22:05Z</time>
      </trkpt>
      <trkpt lat="45.92732" lon="4.65867">
        <ele>318</ele>
        <time>2018-11-02T10:22:06Z</time>
      </trkpt>
      <trkpt lat="45.9273" lon="4.65852">
        <ele>317</ele>
        <time>2018-11-02T10:22:07Z</time>
      </trkpt>
      <trkpt lat="45.9273" lon="4.65837">
        <ele>317</ele>
        <time>2018-11-02T10:22:08Z</time>
      </trkpt>
      <trkpt lat="45.9273" lon="4.65823">
        <ele>315</ele>
        <time>2018-11-02T10:22:09Z</time>
      </trkpt>
      <trkpt lat="45.9273" lon="4.65808">
        <ele>315</ele>
        <time>2018-11-02T10:22:10Z</time>
      </trkpt>
      <trkpt lat="45.92726" lon="4.65796">
        <ele>315</ele>
        <time>2018-11-02T10:22:11Z</time>
      </trkpt>
      <trkpt lat="45.92725" lon="4.65783">
        <ele>314</ele>
        <time>2018-11-02T10:22:12Z</time>
      </trkpt>
      <trkpt lat="45.92723" lon="4.6577">
        <ele>314</ele>
        <time>2018-11-02T10:22:13Z</time>
      </trkpt>
      <trkpt lat="45.92721" lon="4.65757">
        <ele>314</ele>
        <time>2018-11-02T10:22:14Z</time>
      </trkpt>
      <trkpt lat="45.92719" lon="4.65746">
        <ele>311</ele>
        <time>2018-11-02T10:22:15Z</time>
      </trkpt>
      <trkpt lat="45.92716" lon="4.65734">
        <ele>311</ele>
        <time>2018-11-02T10:22:16Z</time>
      </trkpt>
      <trkpt lat="45.92712" lon="4.65724">
        <ele>310</ele>
        <time>2018-11-02T10:22:17Z</time>
      </trkpt>
      <trkpt lat="45.9271" lon="4.65714">
        <ele>310</ele>
        <time>2018-11-02T10:22:18Z</time>
      </trkpt>
      <trkpt lat="45.92708" lon="4.65704">
        <ele>310</ele>
        <time>2018-11-02T10:22:19Z</time>
      </trkpt>
      <trkpt lat="45.92707" lon="4.65696">
        <ele>309</ele>
        <time>2018-11-02T10:22:20Z</time>
      </trkpt>
      <trkpt lat="45.92706" lon="4.65688">
        <ele>309</ele>
        <time>2018-11-02T10:22:21Z</time>
      </trkpt>
      <trkpt lat="45.92705" lon="4.65682">
        <ele>309</ele>
        <time>2018-11-02T10:22:22Z</time>
      </trkpt>
      <trkpt lat="45.92704" lon="4.6567">
        <ele>309</ele>
        <time>2018-11-02T10:22:25Z</time>
      </trkpt>
      <trkpt lat="45.92704" lon="4.65667">
        <ele>305</ele>
        <time>2018-11-02T10:22:26Z</time>
      </trkpt>
      <trkpt lat="45.92707" lon="4.65656">
        <ele>304</ele>
        <time>2018-11-02T10:22:29Z</time>
      </trkpt>
      <trkpt lat="45.92708" lon="4.65651">
        <ele>304</ele>
        <time>2018-11-02T10:22:30Z</time>
      </trkpt>
      <trkpt lat="45.92707" lon="4.65643">
        <ele>304</ele>
        <time>2018-11-02T10:22:31Z</time>
      </trkpt>
      <trkpt lat="45.92705" lon="4.65637">
        <ele>304</ele>
        <time>2018-11-02T10:22:32Z</time>
      </trkpt>
      <trkpt lat="45.92703" lon="4.65632">
        <ele>304</ele>
        <time>2018-11-02T10:22:33Z</time>
      </trkpt>
      <trkpt lat="45.927" lon="4.65625">
        <ele>304</ele>
        <time>2018-11-02T10:22:34Z</time>
      </trkpt>
      <trkpt lat="45.92699" lon="4.65619">
        <ele>303</ele>
        <time>2018-11-02T10:22:35Z</time>
      </trkpt>
      <trkpt lat="45.92698" lon="4.65612">
        <ele>303</ele>
        <time>2018-11-02T10:22:36Z</time>
      </trkpt>
      <trkpt lat="45.92696" lon="4.65605">
        <ele>303</ele>
        <time>2018-11-02T10:22:37Z</time>
      </trkpt>
      <trkpt lat="45.92694" lon="4.65599">
        <ele>303</ele>
        <time>2018-11-02T10:22:38Z</time>
      </trkpt>
      <trkpt lat="45.92693" lon="4.65593">
        <ele>302</ele>
        <time>2018-11-02T10:22:39Z</time>
      </trkpt>
      <trkpt lat="45.92692" lon="4.65586">
        <ele>302</ele>
        <time>2018-11-02T10:22:40Z</time>
      </trkpt>
      <trkpt lat="45.92691" lon="4.65579">
        <ele>301</ele>
        <time>2018-11-02T10:22:41Z</time>
      </trkpt>
      <trkpt lat="45.9269" lon="4.65572">
        <ele>301</ele>
        <time>2018-11-02T10:22:42Z</time>
      </trkpt>
      <trkpt lat="45.92689" lon="4.65564">
        <ele>301</ele>
        <time>2018-11-02T10:22:43Z</time>
      </trkpt>
      <trkpt lat="45.92688" lon="4.65556">
        <ele>301</ele>
        <time>2018-11-02T10:22:44Z</time>
      </trkpt>
      <trkpt lat="45.92688" lon="4.6555">
        <ele>301</ele>
        <time>2018-11-02T10:22:45Z</time>
      </trkpt>
      <trkpt lat="45.92688" lon="4.65542">
        <ele>301</ele>
        <time>2018-11-02T10:22:46Z</time>
      </trkpt>
      <trkpt lat="45.92689" lon="4.65536">
        <ele>301</ele>
        <time>2018-11-02T10:22:47Z</time>
      </trkpt>
      <trkpt lat="45.92689" lon="4.65529">
        <ele>301</ele>
        <time>2018-11-02T10:22:48Z</time>
      </trkpt>
      <trkpt lat="45.9269" lon="4.65519">
        <ele>302</ele>
        <time>2018-11-02T10:22:50Z</time>
      </trkpt>
      <trkpt lat="45.9269" lon="4.65513">
        <ele>302</ele>
        <time>2018-11-02T10:22:51Z</time>
      </trkpt>
      <trkpt lat="45.92691" lon="4.65502">
        <ele>302</ele>
        <time>2018-11-02T10:22:53Z</time>
      </trkpt>
      <trkpt lat="45.92693" lon="4.65496">
        <ele>303</ele>
        <time>2018-11-02T10:22:54Z</time>
      </trkpt>
      <trkpt lat="45.92696" lon="4.65484">
        <ele>303</ele>
        <time>2018-11-02T10:22:56Z</time>
      </trkpt>
      <trkpt lat="45.92697" lon="4.65478">
        <ele>303</ele>
        <time>2018-11-02T10:22:57Z</time>
      </trkpt>
      <trkpt lat="45.927" lon="4.65472">
        <ele>303</ele>
        <time>2018-11-02T10:22:58Z</time>
      </trkpt>
      <trkpt lat="45.92703" lon="4.65466">
        <ele>303</ele>
        <time>2018-11-02T10:22:59Z</time>
      </trkpt>
      <trkpt lat="45.92705" lon="4.65454">
        <ele>303</ele>
        <time>2018-11-02T10:23:01Z</time>
      </trkpt>
      <trkpt lat="45.92705" lon="4.65447">
        <ele>303</ele>
        <time>2018-11-02T10:23:02Z</time>
      </trkpt>
      <trkpt lat="45.92708" lon="4.65435">
        <ele>303</ele>
        <time>2018-11-02T10:23:04Z</time>
      </trkpt>
      <trkpt lat="45.92709" lon="4.65429">
        <ele>303</ele>
        <time>2018-11-02T10:23:05Z</time>
      </trkpt>
      <trkpt lat="45.92712" lon="4.65417">
        <ele>303</ele>
        <time>2018-11-02T10:23:07Z</time>
      </trkpt>
      <trkpt lat="45.92712" lon="4.65411">
        <ele>304</ele>
        <time>2018-11-02T10:23:08Z</time>
      </trkpt>
      <trkpt lat="45.92714" lon="4.65401">
        <ele>304</ele>
        <time>2018-11-02T10:23:10Z</time>
      </trkpt>
      <trkpt lat="45.92716" lon="4.65395">
        <ele>304</ele>
        <time>2018-11-02T10:23:11Z</time>
      </trkpt>
      <trkpt lat="45.92719" lon="4.65384">
        <ele>304</ele>
        <time>2018-11-02T10:23:13Z</time>
      </trkpt>
      <trkpt lat="45.9272" lon="4.65378">
        <ele>304</ele>
        <time>2018-11-02T10:23:14Z</time>
      </trkpt>
      <trkpt lat="45.92723" lon="4.65367">
        <ele>305</ele>
        <time>2018-11-02T10:23:16Z</time>
      </trkpt>
      <trkpt lat="45.92725" lon="4.65362">
        <ele>305</ele>
        <time>2018-11-02T10:23:17Z</time>
      </trkpt>
      <trkpt lat="45.92727" lon="4.65352">
        <ele>305</ele>
        <time>2018-11-02T10:23:19Z</time>
      </trkpt>
      <trkpt lat="45.92729" lon="4.65347">
        <ele>305</ele>
        <time>2018-11-02T10:23:20Z</time>
      </trkpt>
      <trkpt lat="45.92731" lon="4.65337">
        <ele>305</ele>
        <time>2018-11-02T10:23:22Z</time>
      </trkpt>
      <trkpt lat="45.92732" lon="4.65332">
        <ele>305</ele>
        <time>2018-11-02T10:23:23Z</time>
      </trkpt>
      <trkpt lat="45.92734" lon="4.65322">
        <ele>306</ele>
        <time>2018-11-02T10:23:25Z</time>
      </trkpt>
      <trkpt lat="45.92736" lon="4.65317">
        <ele>306</ele>
        <time>2018-11-02T10:23:26Z</time>
      </trkpt>
      <trkpt lat="45.92739" lon="4.65307">
        <ele>306</ele>
        <time>2018-11-02T10:23:28Z</time>
      </trkpt>
      <trkpt lat="45.9274" lon="4.65302">
        <ele>306</ele>
        <time>2018-11-02T10:23:29Z</time>
      </trkpt>
      <trkpt lat="45.92743" lon="4.65292">
        <ele>306</ele>
        <time>2018-11-02T10:23:31Z</time>
      </trkpt>
      <trkpt lat="45.92744" lon="4.65287">
        <ele>306</ele>
        <time>2018-11-02T10:23:32Z</time>
      </trkpt>
      <trkpt lat="45.92747" lon="4.65276">
        <ele>306</ele>
        <time>2018-11-02T10:23:34Z</time>
      </trkpt>
      <trkpt lat="45.92749" lon="4.65271">
        <ele>306</ele>
        <time>2018-11-02T10:23:35Z</time>
      </trkpt>
      <trkpt lat="45.92751" lon="4.65262">
        <ele>307</ele>
        <time>2018-11-02T10:23:37Z</time>
      </trkpt>
      <trkpt lat="45.92752" lon="4.65258">
        <ele>307</ele>
        <time>2018-11-02T10:23:38Z</time>
      </trkpt>
      <trkpt lat="45.92753" lon="4.6525">
        <ele>307</ele>
        <time>2018-11-02T10:23:40Z</time>
      </trkpt>
      <trkpt lat="45.92755" lon="4.65241">
        <ele>307</ele>
        <time>2018-11-02T10:23:41Z</time>
      </trkpt>
      <trkpt lat="45.92758" lon="4.6523">
        <ele>308</ele>
        <time>2018-11-02T10:23:44Z</time>
      </trkpt>
      <trkpt lat="45.92759" lon="4.65226">
        <ele>308</ele>
        <time>2018-11-02T10:23:45Z</time>
      </trkpt>
      <trkpt lat="45.92762" lon="4.65216">
        <ele>308</ele>
        <time>2018-11-02T10:23:47Z</time>
      </trkpt>
      <trkpt lat="45.92763" lon="4.65212">
        <ele>308</ele>
        <time>2018-11-02T10:23:48Z</time>
      </trkpt>
      <trkpt lat="45.92766" lon="4.65201">
        <ele>308</ele>
        <time>2018-11-02T10:23:50Z</time>
      </trkpt>
      <trkpt lat="45.92767" lon="4.65196">
        <ele>308</ele>
        <time>2018-11-02T10:23:51Z</time>
      </trkpt>
      <trkpt lat="45.9277" lon="4.65187">
        <ele>309</ele>
        <time>2018-11-02T10:23:53Z</time>
      </trkpt>
      <trkpt lat="45.92771" lon="4.65183">
        <ele>309</ele>
        <time>2018-11-02T10:23:54Z</time>
      </trkpt>
      <trkpt lat="45.92774" lon="4.65175">
        <ele>309</ele>
        <time>2018-11-02T10:23:56Z</time>
      </trkpt>
      <trkpt lat="45.92776" lon="4.6517">
        <ele>309</ele>
        <time>2018-11-02T10:23:57Z</time>
      </trkpt>
      <trkpt lat="45.92779" lon="4.65162">
        <ele>310</ele>
        <time>2018-11-02T10:23:59Z</time>
      </trkpt>
      <trkpt lat="45.92782" lon="4.65157">
        <ele>310</ele>
        <time>2018-11-02T10:24:00Z</time>
      </trkpt>
      <trkpt lat="45.92785" lon="4.65149">
        <ele>310</ele>
        <time>2018-11-02T10:24:02Z</time>
      </trkpt>
      <trkpt lat="45.92787" lon="4.65144">
        <ele>310</ele>
        <time>2018-11-02T10:24:03Z</time>
      </trkpt>
      <trkpt lat="45.9279" lon="4.65136">
        <ele>310</ele>
        <time>2018-11-02T10:24:05Z</time>
      </trkpt>
      <trkpt lat="45.92792" lon="4.65131">
        <ele>310</ele>
        <time>2018-11-02T10:24:06Z</time>
      </trkpt>
      <trkpt lat="45.92795" lon="4.65123">
        <ele>311</ele>
        <time>2018-11-02T10:24:08Z</time>
      </trkpt>
      <trkpt lat="45.92796" lon="4.65119">
        <ele>311</ele>
        <time>2018-11-02T10:24:09Z</time>
      </trkpt>
      <trkpt lat="45.92798" lon="4.6511">
        <ele>311</ele>
        <time>2018-11-02T10:24:11Z</time>
      </trkpt>
      <trkpt lat="45.928" lon="4.65106">
        <ele>311</ele>
        <time>2018-11-02T10:24:12Z</time>
      </trkpt>
      <trkpt lat="45.92802" lon="4.65096">
        <ele>311</ele>
        <time>2018-11-02T10:24:14Z</time>
      </trkpt>
      <trkpt lat="45.92804" lon="4.65092">
        <ele>311</ele>
        <time>2018-11-02T10:24:15Z</time>
      </trkpt>
      <trkpt lat="45.92806" lon="4.65082">
        <ele>313</ele>
        <time>2018-11-02T10:24:17Z</time>
      </trkpt>
      <trkpt lat="45.92807" lon="4.65077">
        <ele>313</ele>
        <time>2018-11-02T10:24:18Z</time>
      </trkpt>
      <trkpt lat="45.92809" lon="4.65067">
        <ele>313</ele>
        <time>2018-11-02T10:24:20Z</time>
      </trkpt>
      <trkpt lat="45.9281" lon="4.65063">
        <ele>314</ele>
        <time>2018-11-02T10:24:21Z</time>
      </trkpt>
      <trkpt lat="45.92813" lon="4.65052">
        <ele>314</ele>
        <time>2018-11-02T10:24:24Z</time>
      </trkpt>
      <trkpt lat="45.92814" lon="4.65047">
        <ele>314</ele>
        <time>2018-11-02T10:24:25Z</time>
      </trkpt>
      <trkpt lat="45.92815" lon="4.65038">
        <ele>314</ele>
        <time>2018-11-02T10:24:27Z</time>
      </trkpt>
      <trkpt lat="45.92816" lon="4.65033">
        <ele>315</ele>
        <time>2018-11-02T10:24:28Z</time>
      </trkpt>
      <trkpt lat="45.92817" lon="4.65023">
        <ele>315</ele>
        <time>2018-11-02T10:24:29Z</time>
      </trkpt>
      <trkpt lat="45.92817" lon="4.6502">
        <ele>315</ele>
        <time>2018-11-02T10:24:30Z</time>
      </trkpt>
      <trkpt lat="45.92817" lon="4.65012">
        <ele>316</ele>
        <time>2018-11-02T10:24:32Z</time>
      </trkpt>
      <trkpt lat="45.92817" lon="4.65007">
        <ele>316</ele>
        <time>2018-11-02T10:24:33Z</time>
      </trkpt>
      <trkpt lat="45.92817" lon="4.64998">
        <ele>317</ele>
        <time>2018-11-02T10:24:35Z</time>
      </trkpt>
      <trkpt lat="45.92818" lon="4.64992">
        <ele>317</ele>
        <time>2018-11-02T10:24:36Z</time>
      </trkpt>
      <trkpt lat="45.92818" lon="4.64983">
        <ele>317</ele>
        <time>2018-11-02T10:24:38Z</time>
      </trkpt>
      <trkpt lat="45.92818" lon="4.64979">
        <ele>317</ele>
        <time>2018-11-02T10:24:39Z</time>
      </trkpt>
      <trkpt lat="45.92818" lon="4.6497">
        <ele>317</ele>
        <time>2018-11-02T10:24:41Z</time>
      </trkpt>
      <trkpt lat="45.92818" lon="4.64965">
        <ele>317</ele>
        <time>2018-11-02T10:24:42Z</time>
      </trkpt>
      <trkpt lat="45.92819" lon="4.6496">
        <ele>317</ele>
        <time>2018-11-02T10:24:43Z</time>
      </trkpt>
      <trkpt lat="45.92818" lon="4.6495">
        <ele>316</ele>
        <time>2018-11-02T10:24:44Z</time>
      </trkpt>
      <trkpt lat="45.92818" lon="4.64943">
        <ele>316</ele>
        <time>2018-11-02T10:24:46Z</time>
      </trkpt>
      <trkpt lat="45.92818" lon="4.64934">
        <ele>316</ele>
        <time>2018-11-02T10:24:47Z</time>
      </trkpt>
      <trkpt lat="45.92817" lon="4.64926">
        <ele>316</ele>
        <time>2018-11-02T10:24:49Z</time>
      </trkpt>
      <trkpt lat="45.92817" lon="4.64919">
        <ele>316</ele>
        <time>2018-11-02T10:24:50Z</time>
      </trkpt>
      <trkpt lat="45.92817" lon="4.6491">
        <ele>316</ele>
        <time>2018-11-02T10:24:52Z</time>
      </trkpt>
      <trkpt lat="45.92817" lon="4.64903">
        <ele>316</ele>
        <time>2018-11-02T10:24:53Z</time>
      </trkpt>
      <trkpt lat="45.92817" lon="4.64892">
        <ele>316</ele>
        <time>2018-11-02T10:24:55Z</time>
      </trkpt>
      <trkpt lat="45.92816" lon="4.64887">
        <ele>316</ele>
        <time>2018-11-02T10:24:56Z</time>
      </trkpt>
      <trkpt lat="45.92816" lon="4.64876">
        <ele>316</ele>
        <time>2018-11-02T10:24:58Z</time>
      </trkpt>
      <trkpt lat="45.92816" lon="4.6487">
        <ele>316</ele>
        <time>2018-11-02T10:24:59Z</time>
      </trkpt>
      <trkpt lat="45.92816" lon="4.6486">
        <ele>316</ele>
        <time>2018-11-02T10:25:01Z</time>
      </trkpt>
      <trkpt lat="45.92816" lon="4.64854">
        <ele>316</ele>
        <time>2018-11-02T10:25:02Z</time>
      </trkpt>
      <trkpt lat="45.92816" lon="4.64843">
        <ele>317</ele>
        <time>2018-11-02T10:25:04Z</time>
      </trkpt>
      <trkpt lat="45.92816" lon="4.64837">
        <ele>317</ele>
        <time>2018-11-02T10:25:05Z</time>
      </trkpt>
      <trkpt lat="45.92816" lon="4.64825">
        <ele>318</ele>
        <time>2018-11-02T10:25:07Z</time>
      </trkpt>
      <trkpt lat="45.92816" lon="4.64819">
        <ele>318</ele>
        <time>2018-11-02T10:25:08Z</time>
      </trkpt>
      <trkpt lat="45.92816" lon="4.64807">
        <ele>318</ele>
        <time>2018-11-02T10:25:10Z</time>
      </trkpt>
      <trkpt lat="45.92816" lon="4.64801">
        <ele>318</ele>
        <time>2018-11-02T10:25:11Z</time>
      </trkpt>
      <trkpt lat="45.92816" lon="4.6479">
        <ele>318</ele>
        <time>2018-11-02T10:25:13Z</time>
      </trkpt>
      <trkpt lat="45.92816" lon="4.64784">
        <ele>318</ele>
        <time>2018-11-02T10:25:14Z</time>
      </trkpt>
      <trkpt lat="45.92816" lon="4.64773">
        <ele>319</ele>
        <time>2018-11-02T10:25:16Z</time>
      </trkpt>
      <trkpt lat="45.92815" lon="4.64768">
        <ele>319</ele>
        <time>2018-11-02T10:25:17Z</time>
      </trkpt>
      <trkpt lat="45.92815" lon="4.64756">
        <ele>319</ele>
        <time>2018-11-02T10:25:19Z</time>
      </trkpt>
      <trkpt lat="45.92815" lon="4.6475">
        <ele>319</ele>
        <time>2018-11-02T10:25:20Z</time>
      </trkpt>
      <trkpt lat="45.92815" lon="4.64738">
        <ele>319</ele>
        <time>2018-11-02T10:25:22Z</time>
      </trkpt>
      <trkpt lat="45.92815" lon="4.64732">
        <ele>320</ele>
        <time>2018-11-02T10:25:23Z</time>
      </trkpt>
      <trkpt lat="45.92815" lon="4.6472">
        <ele>320</ele>
        <time>2018-11-02T10:25:25Z</time>
      </trkpt>
      <trkpt lat="45.92815" lon="4.64714">
        <ele>320</ele>
        <time>2018-11-02T10:25:26Z</time>
      </trkpt>
      <trkpt lat="45.92815" lon="4.64702">
        <ele>320</ele>
        <time>2018-11-02T10:25:28Z</time>
      </trkpt>
      <trkpt lat="45.92815" lon="4.64696">
        <ele>320</ele>
        <time>2018-11-02T10:25:29Z</time>
      </trkpt>
      <trkpt lat="45.92815" lon="4.64684">
        <ele>319</ele>
        <time>2018-11-02T10:25:31Z</time>
      </trkpt>
      <trkpt lat="45.92815" lon="4.64677">
        <ele>319</ele>
        <time>2018-11-02T10:25:32Z</time>
      </trkpt>
      <trkpt lat="45.92815" lon="4.64665">
        <ele>320</ele>
        <time>2018-11-02T10:25:34Z</time>
      </trkpt>
      <trkpt lat="45.92814" lon="4.64659">
        <ele>320</ele>
        <time>2018-11-02T10:25:35Z</time>
      </trkpt>
      <trkpt lat="45.92813" lon="4.64648">
        <ele>320</ele>
        <time>2018-11-02T10:25:37Z</time>
      </trkpt>
      <trkpt lat="45.92813" lon="4.64641">
        <ele>320</ele>
        <time>2018-11-02T10:25:38Z</time>
      </trkpt>
      <trkpt lat="45.92813" lon="4.64629">
        <ele>320</ele>
        <time>2018-11-02T10:25:40Z</time>
      </trkpt>
      <trkpt lat="45.92814" lon="4.64622">
        <ele>320</ele>
        <time>2018-11-02T10:25:41Z</time>
      </trkpt>
      <trkpt lat="45.92814" lon="4.6461">
        <ele>320</ele>
        <time>2018-11-02T10:25:43Z</time>
      </trkpt>
      <trkpt lat="45.92814" lon="4.64604">
        <ele>320</ele>
        <time>2018-11-02T10:25:44Z</time>
      </trkpt>
      <trkpt lat="45.92813" lon="4.64592">
        <ele>321</ele>
        <time>2018-11-02T10:25:46Z</time>
      </trkpt>
      <trkpt lat="45.92813" lon="4.64586">
        <ele>321</ele>
        <time>2018-11-02T10:25:47Z</time>
      </trkpt>
      <trkpt lat="45.92814" lon="4.64573">
        <ele>321</ele>
        <time>2018-11-02T10:25:49Z</time>
      </trkpt>
      <trkpt lat="45.92813" lon="4.64567">
        <ele>321</ele>
        <time>2018-11-02T10:25:50Z</time>
      </trkpt>
      <trkpt lat="45.92812" lon="4.64556">
        <ele>322</ele>
        <time>2018-11-02T10:25:52Z</time>
      </trkpt>
      <trkpt lat="45.92812" lon="4.6455">
        <ele>322</ele>
        <time>2018-11-02T10:25:53Z</time>
      </trkpt>
      <trkpt lat="45.92811" lon="4.64538">
        <ele>322</ele>
        <time>2018-11-02T10:25:55Z</time>
      </trkpt>
      <trkpt lat="45.92811" lon="4.64533">
        <ele>322</ele>
        <time>2018-11-02T10:25:56Z</time>
      </trkpt>
      <trkpt lat="45.92811" lon="4.64521">
        <ele>322</ele>
        <time>2018-11-02T10:25:59Z</time>
      </trkpt>
      <trkpt lat="45.92811" lon="4.64518">
        <ele>322</ele>
        <time>2018-11-02T10:26:00Z</time>
      </trkpt>
      <trkpt lat="45.92814" lon="4.64512">
        <ele>322</ele>
        <time>2018-11-02T10:26:02Z</time>
      </trkpt>
      <trkpt lat="45.92819" lon="4.64506">
        <ele>322</ele>
        <time>2018-11-02T10:26:03Z</time>
      </trkpt>
      <trkpt lat="45.92822" lon="4.64502">
        <ele>322</ele>
        <time>2018-11-02T10:26:04Z</time>
      </trkpt>
      <trkpt lat="45.92828" lon="4.64498">
        <ele>322</ele>
        <time>2018-11-02T10:26:05Z</time>
      </trkpt>
      <trkpt lat="45.9283" lon="4.64492">
        <ele>323</ele>
        <time>2018-11-02T10:26:06Z</time>
      </trkpt>
      <trkpt lat="45.92832" lon="4.64486">
        <ele>323</ele>
        <time>2018-11-02T10:26:07Z</time>
      </trkpt>
      <trkpt lat="45.92833" lon="4.64474">
        <ele>324</ele>
        <time>2018-11-02T10:26:09Z</time>
      </trkpt>
      <trkpt lat="45.92831" lon="4.64469">
        <ele>324</ele>
        <time>2018-11-02T10:26:10Z</time>
      </trkpt>
      <trkpt lat="45.92825" lon="4.64462">
        <ele>324</ele>
        <time>2018-11-02T10:26:12Z</time>
      </trkpt>
      <trkpt lat="45.92822" lon="4.64459">
        <ele>324</ele>
        <time>2018-11-02T10:26:13Z</time>
      </trkpt>
      <trkpt lat="45.92817" lon="4.64449">
        <ele>324</ele>
        <time>2018-11-02T10:26:15Z</time>
      </trkpt>
      <trkpt lat="45.92816" lon="4.64444">
        <ele>325</ele>
        <time>2018-11-02T10:26:16Z</time>
      </trkpt>
      <trkpt lat="45.92813" lon="4.64432">
        <ele>325</ele>
        <time>2018-11-02T10:26:18Z</time>
      </trkpt>
      <trkpt lat="45.92812" lon="4.64426">
        <ele>325</ele>
        <time>2018-11-02T10:26:19Z</time>
      </trkpt>
      <trkpt lat="45.92812" lon="4.64415">
        <ele>326</ele>
        <time>2018-11-02T10:26:21Z</time>
      </trkpt>
      <trkpt lat="45.92812" lon="4.6441">
        <ele>326</ele>
        <time>2018-11-02T10:26:22Z</time>
      </trkpt>
      <trkpt lat="45.92813" lon="4.64398">
        <ele>326</ele>
        <time>2018-11-02T10:26:24Z</time>
      </trkpt>
      <trkpt lat="45.92813" lon="4.64392">
        <ele>326</ele>
        <time>2018-11-02T10:26:25Z</time>
      </trkpt>
      <trkpt lat="45.92813" lon="4.6438">
        <ele>326</ele>
        <time>2018-11-02T10:26:28Z</time>
      </trkpt>
      <trkpt lat="45.92814" lon="4.64372">
        <ele>326</ele>
        <time>2018-11-02T10:26:29Z</time>
      </trkpt>
      <trkpt lat="45.92816" lon="4.64361">
        <ele>327</ele>
        <time>2018-11-02T10:26:31Z</time>
      </trkpt>
      <trkpt lat="45.92818" lon="4.64356">
        <ele>327</ele>
        <time>2018-11-02T10:26:32Z</time>
      </trkpt>
      <trkpt lat="45.92821" lon="4.64345">
        <ele>327</ele>
        <time>2018-11-02T10:26:34Z</time>
      </trkpt>
      <trkpt lat="45.92822" lon="4.6434">
        <ele>327</ele>
        <time>2018-11-02T10:26:35Z</time>
      </trkpt>
      <trkpt lat="45.92825" lon="4.64329">
        <ele>328</ele>
        <time>2018-11-02T10:26:37Z</time>
      </trkpt>
      <trkpt lat="45.92826" lon="4.64326">
        <ele>327</ele>
        <time>2018-11-02T10:26:38Z</time>
      </trkpt>
      <trkpt lat="45.92828" lon="4.64316">
        <ele>327</ele>
        <time>2018-11-02T10:26:40Z</time>
      </trkpt>
      <trkpt lat="45.9283" lon="4.6431">
        <ele>327</ele>
        <time>2018-11-02T10:26:41Z</time>
      </trkpt>
      <trkpt lat="45.92833" lon="4.64298">
        <ele>327</ele>
        <time>2018-11-02T10:26:43Z</time>
      </trkpt>
      <trkpt lat="45.92834" lon="4.64293">
        <ele>326</ele>
        <time>2018-11-02T10:26:44Z</time>
      </trkpt>
      <trkpt lat="45.92835" lon="4.64281">
        <ele>326</ele>
        <time>2018-11-02T10:26:46Z</time>
      </trkpt>
      <trkpt lat="45.92837" lon="4.64274">
        <ele>326</ele>
        <time>2018-11-02T10:26:47Z</time>
      </trkpt>
      <trkpt lat="45.92838" lon="4.64269">
        <ele>326</ele>
        <time>2018-11-02T10:26:48Z</time>
      </trkpt>
      <trkpt lat="45.92839" lon="4.64261">
        <ele>326</ele>
        <time>2018-11-02T10:26:49Z</time>
      </trkpt>
      <trkpt lat="45.92841" lon="4.64254">
        <ele>326</ele>
        <time>2018-11-02T10:26:50Z</time>
      </trkpt>
      <trkpt lat="45.92843" lon="4.64248">
        <ele>325</ele>
        <time>2018-11-02T10:26:51Z</time>
      </trkpt>
      <trkpt lat="45.92843" lon="4.64242">
        <ele>325</ele>
        <time>2018-11-02T10:26:52Z</time>
      </trkpt>
      <trkpt lat="45.92844" lon="4.64235">
        <ele>324</ele>
        <time>2018-11-02T10:26:53Z</time>
      </trkpt>
      <trkpt lat="45.92847" lon="4.64223">
        <ele>324</ele>
        <time>2018-11-02T10:26:55Z</time>
      </trkpt>
      <trkpt lat="45.92848" lon="4.64215">
        <ele>323</ele>
        <time>2018-11-02T10:26:56Z</time>
      </trkpt>
      <trkpt lat="45.92849" lon="4.64209">
        <ele>323</ele>
        <time>2018-11-02T10:26:57Z</time>
      </trkpt>
      <trkpt lat="45.9285" lon="4.64202">
        <ele>323</ele>
        <time>2018-11-02T10:26:58Z</time>
      </trkpt>
      <trkpt lat="45.92851" lon="4.6419">
        <ele>323</ele>
        <time>2018-11-02T10:27:00Z</time>
      </trkpt>
      <trkpt lat="45.92851" lon="4.64184">
        <ele>323</ele>
        <time>2018-11-02T10:27:01Z</time>
      </trkpt>
      <trkpt lat="45.92851" lon="4.64178">
        <ele>323</ele>
        <time>2018-11-02T10:27:02Z</time>
      </trkpt>
      <trkpt lat="45.92852" lon="4.64171">
        <ele>323</ele>
        <time>2018-11-02T10:27:03Z</time>
      </trkpt>
      <trkpt lat="45.92852" lon="4.64165">
        <ele>322</ele>
        <time>2018-11-02T10:27:04Z</time>
      </trkpt>
      <trkpt lat="45.92853" lon="4.64158">
        <ele>322</ele>
        <time>2018-11-02T10:27:05Z</time>
      </trkpt>
      <trkpt lat="45.92854" lon="4.64149">
        <ele>321</ele>
        <time>2018-11-02T10:27:06Z</time>
      </trkpt>
      <trkpt lat="45.92852" lon="4.64141">
        <ele>321</ele>
        <time>2018-11-02T10:27:07Z</time>
      </trkpt>
      <trkpt lat="45.92852" lon="4.64133">
        <ele>321</ele>
        <time>2018-11-02T10:27:08Z</time>
      </trkpt>
      <trkpt lat="45.92852" lon="4.64126">
        <ele>321</ele>
        <time>2018-11-02T10:27:09Z</time>
      </trkpt>
      <trkpt lat="45.92851" lon="4.64117">
        <ele>321</ele>
        <time>2018-11-02T10:27:10Z</time>
      </trkpt>
      <trkpt lat="45.92851" lon="4.64111">
        <ele>321</ele>
        <time>2018-11-02T10:27:11Z</time>
      </trkpt>
      <trkpt lat="45.9285" lon="4.64103">
        <ele>322</ele>
        <time>2018-11-02T10:27:12Z</time>
      </trkpt>
      <trkpt lat="45.9285" lon="4.64096">
        <ele>322</ele>
        <time>2018-11-02T10:27:13Z</time>
      </trkpt>
      <trkpt lat="45.9285" lon="4.64087">
        <ele>322</ele>
        <time>2018-11-02T10:27:14Z</time>
      </trkpt>
      <trkpt lat="45.92851" lon="4.64079">
        <ele>323</ele>
        <time>2018-11-02T10:27:15Z</time>
      </trkpt>
      <trkpt lat="45.92849" lon="4.64066">
        <ele>323</ele>
        <time>2018-11-02T10:27:17Z</time>
      </trkpt>
      <trkpt lat="45.92849" lon="4.64061">
        <ele>323</ele>
        <time>2018-11-02T10:27:18Z</time>
      </trkpt>
      <trkpt lat="45.92849" lon="4.64055">
        <ele>324</ele>
        <time>2018-11-02T10:27:19Z</time>
      </trkpt>
      <trkpt lat="45.92851" lon="4.64047">
        <ele>324</ele>
        <time>2018-11-02T10:27:20Z</time>
      </trkpt>
      <trkpt lat="45.9285" lon="4.64035">
        <ele>324</ele>
        <time>2018-11-02T10:27:23Z</time>
      </trkpt>
      <trkpt lat="45.92849" lon="4.64031">
        <ele>324</ele>
        <time>2018-11-02T10:27:24Z</time>
      </trkpt>
      <trkpt lat="45.92848" lon="4.64019">
        <ele>325</ele>
        <time>2018-11-02T10:27:27Z</time>
      </trkpt>
      <trkpt lat="45.92847" lon="4.64016">
        <ele>325</ele>
        <time>2018-11-02T10:27:28Z</time>
      </trkpt>
      <trkpt lat="45.92846" lon="4.64006">
        <ele>326</ele>
        <time>2018-11-02T10:27:31Z</time>
      </trkpt>
      <trkpt lat="45.92845" lon="4.64003">
        <ele>326</ele>
        <time>2018-11-02T10:27:32Z</time>
      </trkpt>
      <trkpt lat="45.92843" lon="4.63992">
        <ele>327</ele>
        <time>2018-11-02T10:27:35Z</time>
      </trkpt>
      <trkpt lat="45.92843" lon="4.63989">
        <ele>327</ele>
        <time>2018-11-02T10:27:36Z</time>
      </trkpt>
      <trkpt lat="45.92841" lon="4.63979">
        <ele>327</ele>
        <time>2018-11-02T10:27:39Z</time>
      </trkpt>
      <trkpt lat="45.9284" lon="4.63976">
        <ele>327</ele>
        <time>2018-11-02T10:27:40Z</time>
      </trkpt>
      <trkpt lat="45.92839" lon="4.63965">
        <ele>327</ele>
        <time>2018-11-02T10:27:43Z</time>
      </trkpt>
      <trkpt lat="45.92839" lon="4.63961">
        <ele>327</ele>
        <time>2018-11-02T10:27:44Z</time>
      </trkpt>
      <trkpt lat="45.92839" lon="4.6395">
        <ele>327</ele>
        <time>2018-11-02T10:27:47Z</time>
      </trkpt>
      <trkpt lat="45.92839" lon="4.63946">
        <ele>327</ele>
        <time>2018-11-02T10:27:48Z</time>
      </trkpt>
      <trkpt lat="45.9284" lon="4.63938">
        <ele>327</ele>
        <time>2018-11-02T10:27:50Z</time>
      </trkpt>
      <trkpt lat="45.92841" lon="4.63933">
        <ele>327</ele>
        <time>2018-11-02T10:27:51Z</time>
      </trkpt>
      <trkpt lat="45.92843" lon="4.63924">
        <ele>327</ele>
        <time>2018-11-02T10:27:52Z</time>
      </trkpt>
      <trkpt lat="45.92844" lon="4.6392">
        <ele>327</ele>
        <time>2018-11-02T10:27:53Z</time>
      </trkpt>
      <trkpt lat="45.92848" lon="4.63909">
        <ele>328</ele>
        <time>2018-11-02T10:27:56Z</time>
      </trkpt>
      <trkpt lat="45.92849" lon="4.63904">
        <ele>327</ele>
        <time>2018-11-02T10:27:57Z</time>
      </trkpt>
      <trkpt lat="45.92852" lon="4.63897">
        <ele>327</ele>
        <time>2018-11-02T10:27:59Z</time>
      </trkpt>
      <trkpt lat="45.92853" lon="4.63892">
        <ele>327</ele>
        <time>2018-11-02T10:28:00Z</time>
      </trkpt>
      <trkpt lat="45.92857" lon="4.63883">
        <ele>327</ele>
        <time>2018-11-02T10:28:02Z</time>
      </trkpt>
      <trkpt lat="45.92858" lon="4.63878">
        <ele>327</ele>
        <time>2018-11-02T10:28:03Z</time>
      </trkpt>
      <trkpt lat="45.92861" lon="4.63869">
        <ele>327</ele>
        <time>2018-11-02T10:28:05Z</time>
      </trkpt>
      <trkpt lat="45.92863" lon="4.63864">
        <ele>327</ele>
        <time>2018-11-02T10:28:06Z</time>
      </trkpt>
      <trkpt lat="45.92865" lon="4.63857">
        <ele>327</ele>
        <time>2018-11-02T10:28:07Z</time>
      </trkpt>
      <trkpt lat="45.92867" lon="4.63853">
        <ele>327</ele>
        <time>2018-11-02T10:28:08Z</time>
      </trkpt>
      <trkpt lat="45.9287" lon="4.63843">
        <ele>327</ele>
        <time>2018-11-02T10:28:10Z</time>
      </trkpt>
      <trkpt lat="45.92872" lon="4.63838">
        <ele>327</ele>
        <time>2018-11-02T10:28:11Z</time>
      </trkpt>
      <trkpt lat="45.92874" lon="4.63826">
        <ele>326</ele>
        <time>2018-11-02T10:28:13Z</time>
      </trkpt>
      <trkpt lat="45.92874" lon="4.63819">
        <ele>326</ele>
        <time>2018-11-02T10:28:14Z</time>
      </trkpt>
      <trkpt lat="45.92875" lon="4.63813">
        <ele>326</ele>
        <time>2018-11-02T10:28:15Z</time>
      </trkpt>
      <trkpt lat="45.92876" lon="4.63806">
        <ele>326</ele>
        <time>2018-11-02T10:28:16Z</time>
      </trkpt>
      <trkpt lat="45.92876" lon="4.63798">
        <ele>326</ele>
        <time>2018-11-02T10:28:17Z</time>
      </trkpt>
      <trkpt lat="45.92876" lon="4.63789">
        <ele>326</ele>
        <time>2018-11-02T10:28:18Z</time>
      </trkpt>
      <trkpt lat="45.92875" lon="4.6378">
        <ele>326</ele>
        <time>2018-11-02T10:28:19Z</time>
      </trkpt>
      <trkpt lat="45.92874" lon="4.63771">
        <ele>326</ele>
        <time>2018-11-02T10:28:20Z</time>
      </trkpt>
      <trkpt lat="45.92873" lon="4.63762">
        <ele>326</ele>
        <time>2018-11-02T10:28:21Z</time>
      </trkpt>
      <trkpt lat="45.92871" lon="4.63753">
        <ele>326</ele>
        <time>2018-11-02T10:28:22Z</time>
      </trkpt>
      <trkpt lat="45.92868" lon="4.63745">
        <ele>326</ele>
        <time>2018-11-02T10:28:23Z</time>
      </trkpt>
      <trkpt lat="45.92865" lon="4.63738">
        <ele>326</ele>
        <time>2018-11-02T10:28:24Z</time>
      </trkpt>
      <trkpt lat="45.92861" lon="4.63732">
        <ele>327</ele>
        <time>2018-11-02T10:28:25Z</time>
      </trkpt>
      <trkpt lat="45.92857" lon="4.63728">
        <ele>327</ele>
        <time>2018-11-02T10:28:26Z</time>
      </trkpt>
      <trkpt lat="45.92851" lon="4.63721">
        <ele>327</ele>
        <time>2018-11-02T10:28:28Z</time>
      </trkpt>
      <trkpt lat="45.92849" lon="4.63719">
        <ele>327</ele>
        <time>2018-11-02T10:28:29Z</time>
      </trkpt>
      <trkpt lat="45.92845" lon="4.63712">
        <ele>327</ele>
        <time>2018-11-02T10:28:31Z</time>
      </trkpt>
      <trkpt lat="45.92843" lon="4.6371">
        <ele>327</ele>
        <time>2018-11-02T10:28:32Z</time>
      </trkpt>
      <trkpt lat="45.92836" lon="4.63701">
        <ele>328</ele>
        <time>2018-11-02T10:28:35Z</time>
      </trkpt>
      <trkpt lat="45.92834" lon="4.63697">
        <ele>328</ele>
        <time>2018-11-02T10:28:36Z</time>
      </trkpt>
      <trkpt lat="45.92829" lon="4.63688">
        <ele>330</ele>
        <time>2018-11-02T10:28:39Z</time>
      </trkpt>
      <trkpt lat="45.92827" lon="4.63685">
        <ele>330</ele>
        <time>2018-11-02T10:28:40Z</time>
      </trkpt>
      <trkpt lat="45.9282" lon="4.63678">
        <ele>330</ele>
        <time>2018-11-02T10:28:43Z</time>
      </trkpt>
      <trkpt lat="45.92818" lon="4.63674">
        <ele>330</ele>
        <time>2018-11-02T10:28:44Z</time>
      </trkpt>
      <trkpt lat="45.92814" lon="4.63668">
        <ele>330</ele>
        <time>2018-11-02T10:28:46Z</time>
      </trkpt>
      <trkpt lat="45.92812" lon="4.63664">
        <ele>330</ele>
        <time>2018-11-02T10:28:47Z</time>
      </trkpt>
      <trkpt lat="45.92807" lon="4.63657">
        <ele>331</ele>
        <time>2018-11-02T10:28:48Z</time>
      </trkpt>
      <trkpt lat="45.92804" lon="4.63653">
        <ele>331</ele>
        <time>2018-11-02T10:28:49Z</time>
      </trkpt>
      <trkpt lat="45.92799" lon="4.63646">
        <ele>331</ele>
        <time>2018-11-02T10:28:52Z</time>
      </trkpt>
      <trkpt lat="45.92797" lon="4.63642">
        <ele>331</ele>
        <time>2018-11-02T10:28:53Z</time>
      </trkpt>
      <trkpt lat="45.92792" lon="4.63636">
        <ele>331</ele>
        <time>2018-11-02T10:28:55Z</time>
      </trkpt>
      <trkpt lat="45.92789" lon="4.63632">
        <ele>331</ele>
        <time>2018-11-02T10:28:56Z</time>
      </trkpt>
      <trkpt lat="45.92784" lon="4.63625">
        <ele>331</ele>
        <time>2018-11-02T10:28:58Z</time>
      </trkpt>
      <trkpt lat="45.92781" lon="4.63623">
        <ele>331</ele>
        <time>2018-11-02T10:28:59Z</time>
      </trkpt>
      <trkpt lat="45.92774" lon="4.63615">
        <ele>331</ele>
        <time>2018-11-02T10:29:02Z</time>
      </trkpt>
      <trkpt lat="45.92772" lon="4.63613">
        <ele>331</ele>
        <time>2018-11-02T10:29:03Z</time>
      </trkpt>
      <trkpt lat="45.92767" lon="4.63605">
        <ele>332</ele>
        <time>2018-11-02T10:29:06Z</time>
      </trkpt>
      <trkpt lat="45.92765" lon="4.63602">
        <ele>332</ele>
        <time>2018-11-02T10:29:07Z</time>
      </trkpt>
      <trkpt lat="45.92764" lon="4.63593">
        <ele>332</ele>
        <time>2018-11-02T10:29:09Z</time>
      </trkpt>
      <trkpt lat="45.92763" lon="4.63589">
        <ele>332</ele>
        <time>2018-11-02T10:29:10Z</time>
      </trkpt>
      <trkpt lat="45.92763" lon="4.63579">
        <ele>333</ele>
        <time>2018-11-02T10:29:12Z</time>
      </trkpt>
      <trkpt lat="45.92763" lon="4.63574">
        <ele>333</ele>
        <time>2018-11-02T10:29:13Z</time>
      </trkpt>
      <trkpt lat="45.92762" lon="4.63564">
        <ele>333</ele>
        <time>2018-11-02T10:29:15Z</time>
      </trkpt>
      <trkpt lat="45.92762" lon="4.63559">
        <ele>333</ele>
        <time>2018-11-02T10:29:16Z</time>
      </trkpt>
      <trkpt lat="45.92762" lon="4.63549">
        <ele>333</ele>
        <time>2018-11-02T10:29:18Z</time>
      </trkpt>
      <trkpt lat="45.92762" lon="4.63544">
        <ele>333</ele>
        <time>2018-11-02T10:29:19Z</time>
      </trkpt>
      <trkpt lat="45.92762" lon="4.63534">
        <ele>333</ele>
        <time>2018-11-02T10:29:21Z</time>
      </trkpt>
      <trkpt lat="45.92762" lon="4.63529">
        <ele>333</ele>
        <time>2018-11-02T10:29:22Z</time>
      </trkpt>
      <trkpt lat="45.92762" lon="4.6352">
        <ele>333</ele>
        <time>2018-11-02T10:29:24Z</time>
      </trkpt>
      <trkpt lat="45.92763" lon="4.63516">
        <ele>333</ele>
        <time>2018-11-02T10:29:25Z</time>
      </trkpt>
      <trkpt lat="45.92763" lon="4.63505">
        <ele>333</ele>
        <time>2018-11-02T10:29:27Z</time>
      </trkpt>
      <trkpt lat="45.92763" lon="4.63501">
        <ele>333</ele>
        <time>2018-11-02T10:29:28Z</time>
      </trkpt>
      <trkpt lat="45.92764" lon="4.63492">
        <ele>334</ele>
        <time>2018-11-02T10:29:30Z</time>
      </trkpt>
      <trkpt lat="45.92764" lon="4.63488">
        <ele>334</ele>
        <time>2018-11-02T10:29:31Z</time>
      </trkpt>
      <trkpt lat="45.92764" lon="4.63479">
        <ele>334</ele>
        <time>2018-11-02T10:29:33Z</time>
      </trkpt>
      <trkpt lat="45.92764" lon="4.63473">
        <ele>334</ele>
        <time>2018-11-02T10:29:34Z</time>
      </trkpt>
      <trkpt lat="45.92764" lon="4.63464">
        <ele>334</ele>
        <time>2018-11-02T10:29:36Z</time>
      </trkpt>
      <trkpt lat="45.92764" lon="4.63459">
        <ele>334</ele>
        <time>2018-11-02T10:29:37Z</time>
      </trkpt>
      <trkpt lat="45.92764" lon="4.63448">
        <ele>334</ele>
        <time>2018-11-02T10:29:38Z</time>
      </trkpt>
      <trkpt lat="45.92764" lon="4.63443">
        <ele>334</ele>
        <time>2018-11-02T10:29:39Z</time>
      </trkpt>
      <trkpt lat="45.92763" lon="4.63432">
        <ele>334</ele>
        <time>2018-11-02T10:29:42Z</time>
      </trkpt>
      <trkpt lat="45.92762" lon="4.63423">
        <ele>334</ele>
        <time>2018-11-02T10:29:43Z</time>
      </trkpt>
      <trkpt lat="45.92761" lon="4.63412">
        <ele>334</ele>
        <time>2018-11-02T10:29:45Z</time>
      </trkpt>
      <trkpt lat="45.9276" lon="4.63409">
        <ele>334</ele>
        <time>2018-11-02T10:29:46Z</time>
      </trkpt>
      <trkpt lat="45.92759" lon="4.63397">
        <ele>334</ele>
        <time>2018-11-02T10:29:49Z</time>
      </trkpt>
      <trkpt lat="45.92759" lon="4.63393">
        <ele>334</ele>
        <time>2018-11-02T10:29:50Z</time>
      </trkpt>
      <trkpt lat="45.92759" lon="4.63383">
        <ele>334</ele>
        <time>2018-11-02T10:29:51Z</time>
      </trkpt>
      <trkpt lat="45.92759" lon="4.63378">
        <ele>334</ele>
        <time>2018-11-02T10:29:52Z</time>
      </trkpt>
      <trkpt lat="45.92758" lon="4.63368">
        <ele>335</ele>
        <time>2018-11-02T10:29:54Z</time>
      </trkpt>
      <trkpt lat="45.92758" lon="4.63364">
        <ele>335</ele>
        <time>2018-11-02T10:29:55Z</time>
      </trkpt>
      <trkpt lat="45.92757" lon="4.63352">
        <ele>335</ele>
        <time>2018-11-02T10:29:57Z</time>
      </trkpt>
      <trkpt lat="45.92757" lon="4.63347">
        <ele>335</ele>
        <time>2018-11-02T10:29:58Z</time>
      </trkpt>
      <trkpt lat="45.92756" lon="4.63336">
        <ele>335</ele>
        <time>2018-11-02T10:30:00Z</time>
      </trkpt>
      <trkpt lat="45.92755" lon="4.63331">
        <ele>335</ele>
        <time>2018-11-02T10:30:01Z</time>
      </trkpt>
      <trkpt lat="45.92754" lon="4.6332">
        <ele>335</ele>
        <time>2018-11-02T10:30:03Z</time>
      </trkpt>
      <trkpt lat="45.92754" lon="4.63315">
        <ele>335</ele>
        <time>2018-11-02T10:30:04Z</time>
      </trkpt>
      <trkpt lat="45.92754" lon="4.63307">
        <ele>335</ele>
        <time>2018-11-02T10:30:06Z</time>
      </trkpt>
      <trkpt lat="45.92753" lon="4.63299">
        <ele>336</ele>
        <time>2018-11-02T10:30:07Z</time>
      </trkpt>
      <trkpt lat="45.92753" lon="4.6329">
        <ele>336</ele>
        <time>2018-11-02T10:30:09Z</time>
      </trkpt>
      <trkpt lat="45.92752" lon="4.63284">
        <ele>336</ele>
        <time>2018-11-02T10:30:10Z</time>
      </trkpt>
      <trkpt lat="45.92752" lon="4.63273">
        <ele>336</ele>
        <time>2018-11-02T10:30:12Z</time>
      </trkpt>
      <trkpt lat="45.92753" lon="4.63268">
        <ele>336</ele>
        <time>2018-11-02T10:30:13Z</time>
      </trkpt>
      <trkpt lat="45.92752" lon="4.63259">
        <ele>336</ele>
        <time>2018-11-02T10:30:15Z</time>
      </trkpt>
      <trkpt lat="45.92752" lon="4.63252">
        <ele>336</ele>
        <time>2018-11-02T10:30:16Z</time>
      </trkpt>
      <trkpt lat="45.92752" lon="4.63239">
        <ele>337</ele>
        <time>2018-11-02T10:30:19Z</time>
      </trkpt>
      <trkpt lat="45.92753" lon="4.63235">
        <ele>337</ele>
        <time>2018-11-02T10:30:20Z</time>
      </trkpt>
      <trkpt lat="45.92753" lon="4.63226">
        <ele>337</ele>
        <time>2018-11-02T10:30:22Z</time>
      </trkpt>
      <trkpt lat="45.92754" lon="4.63216">
        <ele>337</ele>
        <time>2018-11-02T10:30:23Z</time>
      </trkpt>
      <trkpt lat="45.92756" lon="4.63206">
        <ele>338</ele>
        <time>2018-11-02T10:30:25Z</time>
      </trkpt>
      <trkpt lat="45.92756" lon="4.63201">
        <ele>338</ele>
        <time>2018-11-02T10:30:26Z</time>
      </trkpt>
      <trkpt lat="45.92757" lon="4.63189">
        <ele>338</ele>
        <time>2018-11-02T10:30:29Z</time>
      </trkpt>
      <trkpt lat="45.92757" lon="4.63184">
        <ele>338</ele>
        <time>2018-11-02T10:30:30Z</time>
      </trkpt>
      <trkpt lat="45.92758" lon="4.63175">
        <ele>338</ele>
        <time>2018-11-02T10:30:32Z</time>
      </trkpt>
      <trkpt lat="45.92758" lon="4.6317">
        <ele>338</ele>
        <time>2018-11-02T10:30:33Z</time>
      </trkpt>
      <trkpt lat="45.92759" lon="4.63157">
        <ele>339</ele>
        <time>2018-11-02T10:30:36Z</time>
      </trkpt>
      <trkpt lat="45.9276" lon="4.63153">
        <ele>339</ele>
        <time>2018-11-02T10:30:37Z</time>
      </trkpt>
      <trkpt lat="45.92761" lon="4.63143">
        <ele>340</ele>
        <time>2018-11-02T10:30:39Z</time>
      </trkpt>
      <trkpt lat="45.92762" lon="4.63138">
        <ele>340</ele>
        <time>2018-11-02T10:30:40Z</time>
      </trkpt>
      <trkpt lat="45.92763" lon="4.63129">
        <ele>340</ele>
        <time>2018-11-02T10:30:42Z</time>
      </trkpt>
      <trkpt lat="45.92763" lon="4.63124">
        <ele>340</ele>
        <time>2018-11-02T10:30:43Z</time>
      </trkpt>
      <trkpt lat="45.92765" lon="4.63115">
        <ele>340</ele>
        <time>2018-11-02T10:30:45Z</time>
      </trkpt>
      <trkpt lat="45.92766" lon="4.6311">
        <ele>341</ele>
        <time>2018-11-02T10:30:46Z</time>
      </trkpt>
      <trkpt lat="45.92767" lon="4.63101">
        <ele>341</ele>
        <time>2018-11-02T10:30:48Z</time>
      </trkpt>
      <trkpt lat="45.92768" lon="4.63097">
        <ele>341</ele>
        <time>2018-11-02T10:30:49Z</time>
      </trkpt>
      <trkpt lat="45.92768" lon="4.63088">
        <ele>341</ele>
        <time>2018-11-02T10:30:51Z</time>
      </trkpt>
      <trkpt lat="45.92769" lon="4.63084">
        <ele>341</ele>
        <time>2018-11-02T10:30:52Z</time>
      </trkpt>
      <trkpt lat="45.9277" lon="4.63071">
        <ele>342</ele>
        <time>2018-11-02T10:30:55Z</time>
      </trkpt>
      <trkpt lat="45.92771" lon="4.63067">
        <ele>342</ele>
        <time>2018-11-02T10:30:56Z</time>
      </trkpt>
      <trkpt lat="45.92771" lon="4.63055">
        <ele>343</ele>
        <time>2018-11-02T10:30:59Z</time>
      </trkpt>
      <trkpt lat="45.92771" lon="4.6305">
        <ele>343</ele>
        <time>2018-11-02T10:31:00Z</time>
      </trkpt>
      <trkpt lat="45.92772" lon="4.63038">
        <ele>343</ele>
        <time>2018-11-02T10:31:03Z</time>
      </trkpt>
      <trkpt lat="45.92772" lon="4.63033">
        <ele>343</ele>
        <time>2018-11-02T10:31:04Z</time>
      </trkpt>
      <trkpt lat="45.92772" lon="4.63024">
        <ele>343</ele>
        <time>2018-11-02T10:31:06Z</time>
      </trkpt>
      <trkpt lat="45.92772" lon="4.63019">
        <ele>343</ele>
        <time>2018-11-02T10:31:07Z</time>
      </trkpt>
      <trkpt lat="45.92772" lon="4.6301">
        <ele>343</ele>
        <time>2018-11-02T10:31:09Z</time>
      </trkpt>
      <trkpt lat="45.92771" lon="4.63006">
        <ele>343</ele>
        <time>2018-11-02T10:31:10Z</time>
      </trkpt>
      <trkpt lat="45.92771" lon="4.62997">
        <ele>344</ele>
        <time>2018-11-02T10:31:12Z</time>
      </trkpt>
      <trkpt lat="45.92771" lon="4.62993">
        <ele>344</ele>
        <time>2018-11-02T10:31:13Z</time>
      </trkpt>
      <trkpt lat="45.9277" lon="4.62981">
        <ele>345</ele>
        <time>2018-11-02T10:31:16Z</time>
      </trkpt>
      <trkpt lat="45.9277" lon="4.62977">
        <ele>345</ele>
        <time>2018-11-02T10:31:17Z</time>
      </trkpt>
      <trkpt lat="45.92769" lon="4.62965">
        <ele>345</ele>
        <time>2018-11-02T10:31:20Z</time>
      </trkpt>
      <trkpt lat="45.92769" lon="4.62961">
        <ele>345</ele>
        <time>2018-11-02T10:31:21Z</time>
      </trkpt>
      <trkpt lat="45.92769" lon="4.62949">
        <ele>345</ele>
        <time>2018-11-02T10:31:24Z</time>
      </trkpt>
      <trkpt lat="45.92769" lon="4.62945">
        <ele>345</ele>
        <time>2018-11-02T10:31:25Z</time>
      </trkpt>
      <trkpt lat="45.92769" lon="4.62932">
        <ele>346</ele>
        <time>2018-11-02T10:31:28Z</time>
      </trkpt>
      <trkpt lat="45.92769" lon="4.62928">
        <ele>346</ele>
        <time>2018-11-02T10:31:29Z</time>
      </trkpt>
      <trkpt lat="45.92769" lon="4.62917">
        <ele>346</ele>
        <time>2018-11-02T10:31:32Z</time>
      </trkpt>
      <trkpt lat="45.9277" lon="4.62913">
        <ele>347</ele>
        <time>2018-11-02T10:31:33Z</time>
      </trkpt>
      <trkpt lat="45.9277" lon="4.62903">
        <ele>348</ele>
        <time>2018-11-02T10:31:36Z</time>
      </trkpt>
      <trkpt lat="45.92771" lon="4.62899">
        <ele>348</ele>
        <time>2018-11-02T10:31:37Z</time>
      </trkpt>
      <trkpt lat="45.92771" lon="4.62888">
        <ele>348</ele>
        <time>2018-11-02T10:31:40Z</time>
      </trkpt>
      <trkpt lat="45.92771" lon="4.62885">
        <ele>348</ele>
        <time>2018-11-02T10:31:41Z</time>
      </trkpt>
      <trkpt lat="45.9277" lon="4.62875">
        <ele>348</ele>
        <time>2018-11-02T10:31:44Z</time>
      </trkpt>
      <trkpt lat="45.9277" lon="4.62872">
        <ele>349</ele>
        <time>2018-11-02T10:31:45Z</time>
      </trkpt>
      <trkpt lat="45.9277" lon="4.6286">
        <ele>349</ele>
        <time>2018-11-02T10:31:49Z</time>
      </trkpt>
      <trkpt lat="45.9277" lon="4.62857">
        <ele>349</ele>
        <time>2018-11-02T10:31:50Z</time>
      </trkpt>
      <trkpt lat="45.9277" lon="4.62844">
        <ele>349</ele>
        <time>2018-11-02T10:31:54Z</time>
      </trkpt>
      <trkpt lat="45.9277" lon="4.62841">
        <ele>350</ele>
        <time>2018-11-02T10:31:55Z</time>
      </trkpt>
      <trkpt lat="45.92771" lon="4.62829">
        <ele>352</ele>
        <time>2018-11-02T10:31:59Z</time>
      </trkpt>
      <trkpt lat="45.92771" lon="4.62826">
        <ele>352</ele>
        <time>2018-11-02T10:32:00Z</time>
      </trkpt>
      <trkpt lat="45.9277" lon="4.62814">
        <ele>352</ele>
        <time>2018-11-02T10:32:04Z</time>
      </trkpt>
      <trkpt lat="45.9277" lon="4.62812">
        <ele>352</ele>
        <time>2018-11-02T10:32:05Z</time>
      </trkpt>
      <trkpt lat="45.92768" lon="4.628">
        <ele>353</ele>
        <time>2018-11-02T10:32:09Z</time>
      </trkpt>
      <trkpt lat="45.92767" lon="4.62798">
        <ele>353</ele>
        <time>2018-11-02T10:32:10Z</time>
      </trkpt>
      <trkpt lat="45.92765" lon="4.62787">
        <ele>353</ele>
        <time>2018-11-02T10:32:14Z</time>
      </trkpt>
      <trkpt lat="45.92764" lon="4.62784">
        <ele>353</ele>
        <time>2018-11-02T10:32:15Z</time>
      </trkpt>
      <trkpt lat="45.92761" lon="4.62774">
        <ele>354</ele>
        <time>2018-11-02T10:32:19Z</time>
      </trkpt>
      <trkpt lat="45.92759" lon="4.62771">
        <ele>354</ele>
        <time>2018-11-02T10:32:20Z</time>
      </trkpt>
      <trkpt lat="45.92755" lon="4.62763">
        <ele>354</ele>
        <time>2018-11-02T10:32:23Z</time>
      </trkpt>
      <trkpt lat="45.92754" lon="4.6276">
        <ele>354</ele>
        <time>2018-11-02T10:32:24Z</time>
      </trkpt>
      <trkpt lat="45.92751" lon="4.6275">
        <ele>355</ele>
        <time>2018-11-02T10:32:27Z</time>
      </trkpt>
      <trkpt lat="45.92751" lon="4.62747">
        <ele>355</ele>
        <time>2018-11-02T10:32:28Z</time>
      </trkpt>
      <trkpt lat="45.92749" lon="4.62737">
        <ele>355</ele>
        <time>2018-11-02T10:32:31Z</time>
      </trkpt>
      <trkpt lat="45.92748" lon="4.62734">
        <ele>355</ele>
        <time>2018-11-02T10:32:32Z</time>
      </trkpt>
      <trkpt lat="45.92747" lon="4.62722">
        <ele>356</ele>
        <time>2018-11-02T10:32:36Z</time>
      </trkpt>
      <trkpt lat="45.92747" lon="4.62718">
        <ele>356</ele>
        <time>2018-11-02T10:32:37Z</time>
      </trkpt>
      <trkpt lat="45.92747" lon="4.62705">
        <ele>356</ele>
        <time>2018-11-02T10:32:41Z</time>
      </trkpt>
      <trkpt lat="45.92746" lon="4.62702">
        <ele>356</ele>
        <time>2018-11-02T10:32:42Z</time>
      </trkpt>
      <trkpt lat="45.92745" lon="4.6269">
        <ele>357</ele>
        <time>2018-11-02T10:32:46Z</time>
      </trkpt>
      <trkpt lat="45.92745" lon="4.62686">
        <ele>357</ele>
        <time>2018-11-02T10:32:47Z</time>
      </trkpt>
      <trkpt lat="45.92744" lon="4.62674">
        <ele>358</ele>
        <time>2018-11-02T10:32:51Z</time>
      </trkpt>
      <trkpt lat="45.92744" lon="4.62672">
        <ele>358</ele>
        <time>2018-11-02T10:32:52Z</time>
      </trkpt>
      <trkpt lat="45.92742" lon="4.6266">
        <ele>360</ele>
        <time>2018-11-02T10:32:56Z</time>
      </trkpt>
      <trkpt lat="45.92742" lon="4.62658">
        <ele>360</ele>
        <time>2018-11-02T10:32:57Z</time>
      </trkpt>
      <trkpt lat="45.92741" lon="4.62648">
        <ele>360</ele>
        <time>2018-11-02T10:33:00Z</time>
      </trkpt>
      <trkpt lat="45.9274" lon="4.62645">
        <ele>360</ele>
        <time>2018-11-02T10:33:01Z</time>
      </trkpt>
      <trkpt lat="45.92738" lon="4.62633">
        <ele>361</ele>
        <time>2018-11-02T10:33:05Z</time>
      </trkpt>
      <trkpt lat="45.92737" lon="4.6263">
        <ele>361</ele>
        <time>2018-11-02T10:33:06Z</time>
      </trkpt>
      <trkpt lat="45.92736" lon="4.6262">
        <ele>362</ele>
        <time>2018-11-02T10:33:09Z</time>
      </trkpt>
      <trkpt lat="45.92737" lon="4.62617">
        <ele>362</ele>
        <time>2018-11-02T10:33:10Z</time>
      </trkpt>
      <trkpt lat="45.92737" lon="4.62606">
        <ele>362</ele>
        <time>2018-11-02T10:33:13Z</time>
      </trkpt>
      <trkpt lat="45.92737" lon="4.62603">
        <ele>363</ele>
        <time>2018-11-02T10:33:14Z</time>
      </trkpt>
      <trkpt lat="45.92736" lon="4.62592">
        <ele>363</ele>
        <time>2018-11-02T10:33:18Z</time>
      </trkpt>
      <trkpt lat="45.92735" lon="4.62589">
        <ele>363</ele>
        <time>2018-11-02T10:33:19Z</time>
      </trkpt>
      <trkpt lat="45.92735" lon="4.62578">
        <ele>365</ele>
        <time>2018-11-02T10:33:23Z</time>
      </trkpt>
      <trkpt lat="45.92735" lon="4.62576">
        <ele>365</ele>
        <time>2018-11-02T10:33:24Z</time>
      </trkpt>
      <trkpt lat="45.92733" lon="4.62566">
        <ele>366</ele>
        <time>2018-11-02T10:33:27Z</time>
      </trkpt>
      <trkpt lat="45.92733" lon="4.62563">
        <ele>366</ele>
        <time>2018-11-02T10:33:28Z</time>
      </trkpt>
      <trkpt lat="45.92732" lon="4.62551">
        <ele>366</ele>
        <time>2018-11-02T10:33:32Z</time>
      </trkpt>
      <trkpt lat="45.92731" lon="4.62548">
        <ele>366</ele>
        <time>2018-11-02T10:33:33Z</time>
      </trkpt>
      <trkpt lat="45.9273" lon="4.62535">
        <ele>366</ele>
        <time>2018-11-02T10:33:37Z</time>
      </trkpt>
      <trkpt lat="45.9273" lon="4.62532">
        <ele>367</ele>
        <time>2018-11-02T10:33:38Z</time>
      </trkpt>
      <trkpt lat="45.9273" lon="4.6252">
        <ele>367</ele>
        <time>2018-11-02T10:33:42Z</time>
      </trkpt>
      <trkpt lat="45.9273" lon="4.62517">
        <ele>367</ele>
        <time>2018-11-02T10:33:43Z</time>
      </trkpt>
      <trkpt lat="45.92729" lon="4.62506">
        <ele>367</ele>
        <time>2018-11-02T10:33:47Z</time>
      </trkpt>
      <trkpt lat="45.92729" lon="4.62503">
        <ele>367</ele>
        <time>2018-11-02T10:33:48Z</time>
      </trkpt>
      <trkpt lat="45.92728" lon="4.62491">
        <ele>369</ele>
        <time>2018-11-02T10:33:52Z</time>
      </trkpt>
      <trkpt lat="45.92728" lon="4.62488">
        <ele>369</ele>
        <time>2018-11-02T10:33:53Z</time>
      </trkpt>
      <trkpt lat="45.92729" lon="4.62477">
        <ele>370</ele>
        <time>2018-11-02T10:33:57Z</time>
      </trkpt>
      <trkpt lat="45.92729" lon="4.62473">
        <ele>370</ele>
        <time>2018-11-02T10:33:58Z</time>
      </trkpt>
      <trkpt lat="45.92729" lon="4.62461">
        <ele>370</ele>
        <time>2018-11-02T10:34:02Z</time>
      </trkpt>
      <trkpt lat="45.92729" lon="4.62459">
        <ele>370</ele>
        <time>2018-11-02T10:34:03Z</time>
      </trkpt>
      <trkpt lat="45.9273" lon="4.62447">
        <ele>370</ele>
        <time>2018-11-02T10:34:08Z</time>
      </trkpt>
      <trkpt lat="45.92731" lon="4.62445">
        <ele>371</ele>
        <time>2018-11-02T10:34:09Z</time>
      </trkpt>
      <trkpt lat="45.92732" lon="4.62454">
        <ele>370</ele>
        <time>2018-11-02T10:34:58Z</time>
      </trkpt>
      <trkpt lat="45.92732" lon="4.62454">
        <ele>370</ele>
        <time>2018-11-02T10:34:59Z</time>
      </trkpt>
      <trkpt lat="45.92732" lon="4.62453">
        <ele>370</ele>
        <time>2018-11-02T10:35:00Z</time>
      </trkpt>
      <trkpt lat="45.9273" lon="4.62442">
        <ele>371</ele>
        <time>2018-11-02T10:38:27Z</time>
      </trkpt>
      <trkpt lat="45.9273" lon="4.62441">
        <ele>371</ele>
        <time>2018-11-02T10:38:28Z</time>
      </trkpt>
      <trkpt lat="45.92729" lon="4.62429">
        <ele>371</ele>
        <time>2018-11-02T10:38:33Z</time>
      </trkpt>
      <trkpt lat="45.92729" lon="4.62426">
        <ele>371</ele>
        <time>2018-11-02T10:38:34Z</time>
      </trkpt>
      <trkpt lat="45.92729" lon="4.62415">
        <ele>373</ele>
        <time>2018-11-02T10:38:38Z</time>
      </trkpt>
      <trkpt lat="45.92729" lon="4.62413">
        <ele>373</ele>
        <time>2018-11-02T10:38:39Z</time>
      </trkpt>
      <trkpt lat="45.92731" lon="4.62404">
        <ele>373</ele>
        <time>2018-11-02T10:38:42Z</time>
      </trkpt>
      <trkpt lat="45.92731" lon="4.624">
        <ele>373</ele>
        <time>2018-11-02T10:38:43Z</time>
      </trkpt>
      <trkpt lat="45.92731" lon="4.6239">
        <ele>373</ele>
        <time>2018-11-02T10:38:46Z</time>
      </trkpt>
      <trkpt lat="45.9273" lon="4.62386">
        <ele>373</ele>
        <time>2018-11-02T10:38:47Z</time>
      </trkpt>
      <trkpt lat="45.92729" lon="4.62373">
        <ele>373</ele>
        <time>2018-11-02T10:38:50Z</time>
      </trkpt>
      <trkpt lat="45.92729" lon="4.62369">
        <ele>373</ele>
        <time>2018-11-02T10:38:51Z</time>
      </trkpt>
      <trkpt lat="45.92727" lon="4.62359">
        <ele>373</ele>
        <time>2018-11-02T10:38:53Z</time>
      </trkpt>
      <trkpt lat="45.92726" lon="4.62355">
        <ele>374</ele>
        <time>2018-11-02T10:38:54Z</time>
      </trkpt>
      <trkpt lat="45.92723" lon="4.62343">
        <ele>374</ele>
        <time>2018-11-02T10:38:57Z</time>
      </trkpt>
      <trkpt lat="45.92722" lon="4.62339">
        <ele>374</ele>
        <time>2018-11-02T10:38:58Z</time>
      </trkpt>
      <trkpt lat="45.9272" lon="4.6233">
        <ele>375</ele>
        <time>2018-11-02T10:39:00Z</time>
      </trkpt>
      <trkpt lat="45.92718" lon="4.62325">
        <ele>375</ele>
        <time>2018-11-02T10:39:01Z</time>
      </trkpt>
      <trkpt lat="45.92715" lon="4.62316">
        <ele>375</ele>
        <time>2018-11-02T10:39:03Z</time>
      </trkpt>
      <trkpt lat="45.92714" lon="4.62312">
        <ele>375</ele>
        <time>2018-11-02T10:39:04Z</time>
      </trkpt>
      <trkpt lat="45.92711" lon="4.62303">
        <ele>375</ele>
        <time>2018-11-02T10:39:06Z</time>
      </trkpt>
      <trkpt lat="45.92707" lon="4.62293">
        <ele>375</ele>
        <time>2018-11-02T10:39:07Z</time>
      </trkpt>
      <trkpt lat="45.92705" lon="4.62283">
        <ele>375</ele>
        <time>2018-11-02T10:39:09Z</time>
      </trkpt>
      <trkpt lat="45.92704" lon="4.62277">
        <ele>375</ele>
        <time>2018-11-02T10:39:10Z</time>
      </trkpt>
      <trkpt lat="45.92702" lon="4.62267">
        <ele>375</ele>
        <time>2018-11-02T10:39:13Z</time>
      </trkpt>
      <trkpt lat="45.92702" lon="4.62264">
        <ele>375</ele>
        <time>2018-11-02T10:39:14Z</time>
      </trkpt>
      <trkpt lat="45.92702" lon="4.62259">
        <ele>375</ele>
        <time>2018-11-02T10:39:15Z</time>
      </trkpt>
      <trkpt lat="45.92701" lon="4.6225">
        <ele>375</ele>
        <time>2018-11-02T10:39:16Z</time>
      </trkpt>
      <trkpt lat="45.92699" lon="4.6224">
        <ele>375</ele>
        <time>2018-11-02T10:39:18Z</time>
      </trkpt>
      <trkpt lat="45.92699" lon="4.62234">
        <ele>375</ele>
        <time>2018-11-02T10:39:19Z</time>
      </trkpt>
      <trkpt lat="45.92698" lon="4.62222">
        <ele>375</ele>
        <time>2018-11-02T10:39:21Z</time>
      </trkpt>
      <trkpt lat="45.92697" lon="4.62216">
        <ele>375</ele>
        <time>2018-11-02T10:39:22Z</time>
      </trkpt>
      <trkpt lat="45.92696" lon="4.62204">
        <ele>375</ele>
        <time>2018-11-02T10:39:24Z</time>
      </trkpt>
      <trkpt lat="45.92695" lon="4.62198">
        <ele>375</ele>
        <time>2018-11-02T10:39:25Z</time>
      </trkpt>
      <trkpt lat="45.92694" lon="4.62185">
        <ele>375</ele>
        <time>2018-11-02T10:39:28Z</time>
      </trkpt>
      <trkpt lat="45.92694" lon="4.62181">
        <ele>375</ele>
        <time>2018-11-02T10:39:29Z</time>
      </trkpt>
      <trkpt lat="45.92692" lon="4.62173">
        <ele>375</ele>
        <time>2018-11-02T10:39:30Z</time>
      </trkpt>
      <trkpt lat="45.92692" lon="4.62167">
        <ele>375</ele>
        <time>2018-11-02T10:39:31Z</time>
      </trkpt>
      <trkpt lat="45.9269" lon="4.62156">
        <ele>375</ele>
        <time>2018-11-02T10:39:33Z</time>
      </trkpt>
      <trkpt lat="45.92689" lon="4.6215">
        <ele>375</ele>
        <time>2018-11-02T10:39:34Z</time>
      </trkpt>
      <trkpt lat="45.92688" lon="4.62139">
        <ele>375</ele>
        <time>2018-11-02T10:39:36Z</time>
      </trkpt>
      <trkpt lat="45.92688" lon="4.62133">
        <ele>375</ele>
        <time>2018-11-02T10:39:37Z</time>
      </trkpt>
      <trkpt lat="45.92688" lon="4.62121">
        <ele>375</ele>
        <time>2018-11-02T10:39:39Z</time>
      </trkpt>
      <trkpt lat="45.92689" lon="4.62118">
        <ele>375</ele>
        <time>2018-11-02T10:39:40Z</time>
      </trkpt>
      <trkpt lat="45.9269" lon="4.62106">
        <ele>375</ele>
        <time>2018-11-02T10:39:43Z</time>
      </trkpt>
      <trkpt lat="45.92691" lon="4.62101">
        <ele>375</ele>
        <time>2018-11-02T10:39:44Z</time>
      </trkpt>
      <trkpt lat="45.92693" lon="4.62092">
        <ele>375</ele>
        <time>2018-11-02T10:39:46Z</time>
      </trkpt>
      <trkpt lat="45.92694" lon="4.62087">
        <ele>375</ele>
        <time>2018-11-02T10:39:47Z</time>
      </trkpt>
      <trkpt lat="45.92697" lon="4.62078">
        <ele>374</ele>
        <time>2018-11-02T10:39:49Z</time>
      </trkpt>
      <trkpt lat="45.927" lon="4.62069">
        <ele>374</ele>
        <time>2018-11-02T10:39:50Z</time>
      </trkpt>
      <trkpt lat="45.92704" lon="4.62059">
        <ele>374</ele>
        <time>2018-11-02T10:39:52Z</time>
      </trkpt>
      <trkpt lat="45.92707" lon="4.62054">
        <ele>374</ele>
        <time>2018-11-02T10:39:53Z</time>
      </trkpt>
      <trkpt lat="45.92709" lon="4.62048">
        <ele>374</ele>
        <time>2018-11-02T10:39:54Z</time>
      </trkpt>
      <trkpt lat="45.92711" lon="4.62041">
        <ele>374</ele>
        <time>2018-11-02T10:39:55Z</time>
      </trkpt>
      <trkpt lat="45.92716" lon="4.62031">
        <ele>374</ele>
        <time>2018-11-02T10:39:57Z</time>
      </trkpt>
      <trkpt lat="45.92718" lon="4.62025">
        <ele>374</ele>
        <time>2018-11-02T10:39:58Z</time>
      </trkpt>
      <trkpt lat="45.92723" lon="4.62016">
        <ele>374</ele>
        <time>2018-11-02T10:40:00Z</time>
      </trkpt>
      <trkpt lat="45.92724" lon="4.6201">
        <ele>374</ele>
        <time>2018-11-02T10:40:01Z</time>
      </trkpt>
      <trkpt lat="45.92728" lon="4.62003">
        <ele>374</ele>
        <time>2018-11-02T10:40:03Z</time>
      </trkpt>
      <trkpt lat="45.92731" lon="4.61996">
        <ele>374</ele>
        <time>2018-11-02T10:40:04Z</time>
      </trkpt>
      <trkpt lat="45.92735" lon="4.61987">
        <ele>374</ele>
        <time>2018-11-02T10:40:06Z</time>
      </trkpt>
      <trkpt lat="45.92737" lon="4.61982">
        <ele>374</ele>
        <time>2018-11-02T10:40:07Z</time>
      </trkpt>
      <trkpt lat="45.92741" lon="4.61972">
        <ele>374</ele>
        <time>2018-11-02T10:40:09Z</time>
      </trkpt>
      <trkpt lat="45.92744" lon="4.61966">
        <ele>374</ele>
        <time>2018-11-02T10:40:10Z</time>
      </trkpt>
      <trkpt lat="45.92746" lon="4.61961">
        <ele>374</ele>
        <time>2018-11-02T10:40:11Z</time>
      </trkpt>
      <trkpt lat="45.92749" lon="4.61955">
        <ele>374</ele>
        <time>2018-11-02T10:40:12Z</time>
      </trkpt>
      <trkpt lat="45.92752" lon="4.6195">
        <ele>375</ele>
        <time>2018-11-02T10:40:13Z</time>
      </trkpt>
      <trkpt lat="45.92754" lon="4.61945">
        <ele>375</ele>
        <time>2018-11-02T10:40:14Z</time>
      </trkpt>
      <trkpt lat="45.92758" lon="4.61934">
        <ele>375</ele>
        <time>2018-11-02T10:40:17Z</time>
      </trkpt>
      <trkpt lat="45.92759" lon="4.6193">
        <ele>375</ele>
        <time>2018-11-02T10:40:18Z</time>
      </trkpt>
      <trkpt lat="45.92759" lon="4.61926">
        <ele>375</ele>
        <time>2018-11-02T10:40:19Z</time>
      </trkpt>
      <trkpt lat="45.9276" lon="4.61917">
        <ele>376</ele>
        <time>2018-11-02T10:40:20Z</time>
      </trkpt>
      <trkpt lat="45.92761" lon="4.61904">
        <ele>377</ele>
        <time>2018-11-02T10:40:23Z</time>
      </trkpt>
      <trkpt lat="45.9276" lon="4.619">
        <ele>377</ele>
        <time>2018-11-02T10:40:24Z</time>
      </trkpt>
      <trkpt lat="45.9276" lon="4.6189">
        <ele>377</ele>
        <time>2018-11-02T10:40:27Z</time>
      </trkpt>
      <trkpt lat="45.9276" lon="4.61886">
        <ele>377</ele>
        <time>2018-11-02T10:40:28Z</time>
      </trkpt>
      <trkpt lat="45.9276" lon="4.61874">
        <ele>377</ele>
        <time>2018-11-02T10:40:32Z</time>
      </trkpt>
      <trkpt lat="45.92761" lon="4.6187">
        <ele>377</ele>
        <time>2018-11-02T10:40:33Z</time>
      </trkpt>
      <trkpt lat="45.92766" lon="4.61862">
        <ele>377</ele>
        <time>2018-11-02T10:40:37Z</time>
      </trkpt>
      <trkpt lat="45.92769" lon="4.61862">
        <ele>377</ele>
        <time>2018-11-02T10:40:38Z</time>
      </trkpt>
      <trkpt lat="45.92777" lon="4.61866">
        <ele>377</ele>
        <time>2018-11-02T10:40:41Z</time>
      </trkpt>
      <trkpt lat="45.9278" lon="4.61868">
        <ele>377</ele>
        <time>2018-11-02T10:40:42Z</time>
      </trkpt>
      <trkpt lat="45.92786" lon="4.61872">
        <ele>377</ele>
        <time>2018-11-02T10:40:44Z</time>
      </trkpt>
      <trkpt lat="45.92789" lon="4.61874">
        <ele>377</ele>
        <time>2018-11-02T10:40:45Z</time>
      </trkpt>
      <trkpt lat="45.92795" lon="4.61876">
        <ele>377</ele>
        <time>2018-11-02T10:40:47Z</time>
      </trkpt>
      <trkpt lat="45.92798" lon="4.61876">
        <ele>377</ele>
        <time>2018-11-02T10:40:48Z</time>
      </trkpt>
      <trkpt lat="45.92801" lon="4.61876">
        <ele>377</ele>
        <time>2018-11-02T10:40:49Z</time>
      </trkpt>
      <trkpt lat="45.92809" lon="4.61876">
        <ele>377</ele>
        <time>2018-11-02T10:40:50Z</time>
      </trkpt>
      <trkpt lat="45.92817" lon="4.61876">
        <ele>377</ele>
        <time>2018-11-02T10:40:52Z</time>
      </trkpt>
      <trkpt lat="45.92821" lon="4.61875">
        <ele>377</ele>
        <time>2018-11-02T10:40:53Z</time>
      </trkpt>
      <trkpt lat="45.92828" lon="4.61874">
        <ele>377</ele>
        <time>2018-11-02T10:40:55Z</time>
      </trkpt>
      <trkpt lat="45.92831" lon="4.61874">
        <ele>377</ele>
        <time>2018-11-02T10:40:56Z</time>
      </trkpt>
      <trkpt lat="45.92836" lon="4.61873">
        <ele>377</ele>
        <time>2018-11-02T10:40:57Z</time>
      </trkpt>
      <trkpt lat="45.9284" lon="4.61872">
        <ele>377</ele>
        <time>2018-11-02T10:40:58Z</time>
      </trkpt>
      <trkpt lat="45.92845" lon="4.61871">
        <ele>377</ele>
        <time>2018-11-02T10:41:00Z</time>
      </trkpt>
      <trkpt lat="45.92851" lon="4.6187">
        <ele>377</ele>
        <time>2018-11-02T10:41:01Z</time>
      </trkpt>
      <trkpt lat="45.92859" lon="4.61868">
        <ele>377</ele>
        <time>2018-11-02T10:41:03Z</time>
      </trkpt>
      <trkpt lat="45.92863" lon="4.61867">
        <ele>377</ele>
        <time>2018-11-02T10:41:04Z</time>
      </trkpt>
      <trkpt lat="45.92871" lon="4.61866">
        <ele>376</ele>
        <time>2018-11-02T10:41:06Z</time>
      </trkpt>
      <trkpt lat="45.92875" lon="4.61866">
        <ele>376</ele>
        <time>2018-11-02T10:41:07Z</time>
      </trkpt>
      <trkpt lat="45.92884" lon="4.61866">
        <ele>376</ele>
        <time>2018-11-02T10:41:09Z</time>
      </trkpt>
      <trkpt lat="45.92888" lon="4.61866">
        <ele>376</ele>
        <time>2018-11-02T10:41:10Z</time>
      </trkpt>
      <trkpt lat="45.92897" lon="4.61867">
        <ele>376</ele>
        <time>2018-11-02T10:41:12Z</time>
      </trkpt>
      <trkpt lat="45.92901" lon="4.61866">
        <ele>376</ele>
        <time>2018-11-02T10:41:13Z</time>
      </trkpt>
      <trkpt lat="45.92906" lon="4.61866">
        <ele>376</ele>
        <time>2018-11-02T10:41:14Z</time>
      </trkpt>
      <trkpt lat="45.9291" lon="4.61867">
        <ele>376</ele>
        <time>2018-11-02T10:41:15Z</time>
      </trkpt>
      <trkpt lat="45.92915" lon="4.61868">
        <ele>376</ele>
        <time>2018-11-02T10:41:16Z</time>
      </trkpt>
      <trkpt lat="45.9292" lon="4.61868">
        <ele>373</ele>
        <time>2018-11-02T10:41:17Z</time>
      </trkpt>
      <trkpt lat="45.92925" lon="4.61869">
        <ele>372</ele>
        <time>2018-11-02T10:41:18Z</time>
      </trkpt>
      <trkpt lat="45.92931" lon="4.6187">
        <ele>372</ele>
        <time>2018-11-02T10:41:19Z</time>
      </trkpt>
      <trkpt lat="45.92936" lon="4.6187">
        <ele>372</ele>
        <time>2018-11-02T10:41:20Z</time>
      </trkpt>
      <trkpt lat="45.92941" lon="4.6187">
        <ele>372</ele>
        <time>2018-11-02T10:41:21Z</time>
      </trkpt>
      <trkpt lat="45.92948" lon="4.61869">
        <ele>372</ele>
        <time>2018-11-02T10:41:22Z</time>
      </trkpt>
      <trkpt lat="45.92954" lon="4.61866">
        <ele>371</ele>
        <time>2018-11-02T10:41:23Z</time>
      </trkpt>
      <trkpt lat="45.9296" lon="4.61864">
        <ele>371</ele>
        <time>2018-11-02T10:41:24Z</time>
      </trkpt>
      <trkpt lat="45.92965" lon="4.61861">
        <ele>371</ele>
        <time>2018-11-02T10:41:25Z</time>
      </trkpt>
      <trkpt lat="45.9297" lon="4.61858">
        <ele>371</ele>
        <time>2018-11-02T10:41:26Z</time>
      </trkpt>
      <trkpt lat="45.92975" lon="4.61853">
        <ele>371</ele>
        <time>2018-11-02T10:41:27Z</time>
      </trkpt>
      <trkpt lat="45.92981" lon="4.61848">
        <ele>370</ele>
        <time>2018-11-02T10:41:28Z</time>
      </trkpt>
      <trkpt lat="45.92985" lon="4.61843">
        <ele>370</ele>
        <time>2018-11-02T10:41:29Z</time>
      </trkpt>
      <trkpt lat="45.92991" lon="4.61836">
        <ele>370</ele>
        <time>2018-11-02T10:41:30Z</time>
      </trkpt>
      <trkpt lat="45.92995" lon="4.6183">
        <ele>370</ele>
        <time>2018-11-02T10:41:31Z</time>
      </trkpt>
      <trkpt lat="45.93" lon="4.61823">
        <ele>371</ele>
        <time>2018-11-02T10:41:32Z</time>
      </trkpt>
      <trkpt lat="45.93003" lon="4.61815">
        <ele>367</ele>
        <time>2018-11-02T10:41:33Z</time>
      </trkpt>
      <trkpt lat="45.93007" lon="4.61808">
        <ele>366</ele>
        <time>2018-11-02T10:41:34Z</time>
      </trkpt>
      <trkpt lat="45.9301" lon="4.61802">
        <ele>366</ele>
        <time>2018-11-02T10:41:35Z</time>
      </trkpt>
      <trkpt lat="45.93014" lon="4.61796">
        <ele>366</ele>
        <time>2018-11-02T10:41:36Z</time>
      </trkpt>
      <trkpt lat="45.93017" lon="4.61789">
        <ele>366</ele>
        <time>2018-11-02T10:41:37Z</time>
      </trkpt>
      <trkpt lat="45.93021" lon="4.61783">
        <ele>366</ele>
        <time>2018-11-02T10:41:38Z</time>
      </trkpt>
      <trkpt lat="45.93024" lon="4.61776">
        <ele>366</ele>
        <time>2018-11-02T10:41:39Z</time>
      </trkpt>
      <trkpt lat="45.93027" lon="4.6177">
        <ele>366</ele>
        <time>2018-11-02T10:41:40Z</time>
      </trkpt>
      <trkpt lat="45.9303" lon="4.61763">
        <ele>366</ele>
        <time>2018-11-02T10:41:41Z</time>
      </trkpt>
      <trkpt lat="45.93033" lon="4.61756">
        <ele>366</ele>
        <time>2018-11-02T10:41:42Z</time>
      </trkpt>
      <trkpt lat="45.93035" lon="4.61747">
        <ele>369</ele>
        <time>2018-11-02T10:41:43Z</time>
      </trkpt>
      <trkpt lat="45.93036" lon="4.61739">
        <ele>369</ele>
        <time>2018-11-02T10:41:44Z</time>
      </trkpt>
      <trkpt lat="45.93038" lon="4.61731">
        <ele>369</ele>
        <time>2018-11-02T10:41:45Z</time>
      </trkpt>
      <trkpt lat="45.93041" lon="4.61723">
        <ele>369</ele>
        <time>2018-11-02T10:41:46Z</time>
      </trkpt>
      <trkpt lat="45.93043" lon="4.61716">
        <ele>370</ele>
        <time>2018-11-02T10:41:47Z</time>
      </trkpt>
      <trkpt lat="45.93046" lon="4.61709">
        <ele>370</ele>
        <time>2018-11-02T10:41:48Z</time>
      </trkpt>
      <trkpt lat="45.93049" lon="4.61703">
        <ele>370</ele>
        <time>2018-11-02T10:41:49Z</time>
      </trkpt>
      <trkpt lat="45.93052" lon="4.61697">
        <ele>370</ele>
        <time>2018-11-02T10:41:50Z</time>
      </trkpt>
      <trkpt lat="45.93055" lon="4.61691">
        <ele>370</ele>
        <time>2018-11-02T10:41:51Z</time>
      </trkpt>
      <trkpt lat="45.9306" lon="4.61682">
        <ele>370</ele>
        <time>2018-11-02T10:41:53Z</time>
      </trkpt>
      <trkpt lat="45.93062" lon="4.61679">
        <ele>370</ele>
        <time>2018-11-02T10:41:54Z</time>
      </trkpt>
      <trkpt lat="45.93068" lon="4.61671">
        <ele>370</ele>
        <time>2018-11-02T10:41:56Z</time>
      </trkpt>
      <trkpt lat="45.9307" lon="4.61667">
        <ele>370</ele>
        <time>2018-11-02T10:41:57Z</time>
      </trkpt>
      <trkpt lat="45.93074" lon="4.61658">
        <ele>373</ele>
        <time>2018-11-02T10:41:59Z</time>
      </trkpt>
      <trkpt lat="45.93076" lon="4.61656">
        <ele>373</ele>
        <time>2018-11-02T10:42:00Z</time>
      </trkpt>
      <trkpt lat="45.9308" lon="4.61651">
        <ele>374</ele>
        <time>2018-11-02T10:42:02Z</time>
      </trkpt>
      <trkpt lat="45.93083" lon="4.61647">
        <ele>375</ele>
        <time>2018-11-02T10:42:03Z</time>
      </trkpt>
      <trkpt lat="45.93088" lon="4.6164">
        <ele>372</ele>
        <time>2018-11-02T10:42:05Z</time>
      </trkpt>
      <trkpt lat="45.9309" lon="4.61637">
        <ele>372</ele>
        <time>2018-11-02T10:42:06Z</time>
      </trkpt>
      <trkpt lat="45.93095" lon="4.61632">
        <ele>373</ele>
        <time>2018-11-02T10:42:08Z</time>
      </trkpt>
      <trkpt lat="45.93098" lon="4.61629">
        <ele>373</ele>
        <time>2018-11-02T10:42:09Z</time>
      </trkpt>
      <trkpt lat="45.93103" lon="4.61624">
        <ele>373</ele>
        <time>2018-11-02T10:42:11Z</time>
      </trkpt>
      <trkpt lat="45.93106" lon="4.61622">
        <ele>373</ele>
        <time>2018-11-02T10:42:12Z</time>
      </trkpt>
      <trkpt lat="45.93114" lon="4.61615">
        <ele>374</ele>
        <time>2018-11-02T10:42:15Z</time>
      </trkpt>
      <trkpt lat="45.93116" lon="4.61612">
        <ele>374</ele>
        <time>2018-11-02T10:42:16Z</time>
      </trkpt>
      <trkpt lat="45.93122" lon="4.61608">
        <ele>374</ele>
        <time>2018-11-02T10:42:18Z</time>
      </trkpt>
      <trkpt lat="45.93124" lon="4.61606">
        <ele>374</ele>
        <time>2018-11-02T10:42:19Z</time>
      </trkpt>
      <trkpt lat="45.93132" lon="4.61601">
        <ele>374</ele>
        <time>2018-11-02T10:42:22Z</time>
      </trkpt>
      <trkpt lat="45.93134" lon="4.61599">
        <ele>374</ele>
        <time>2018-11-02T10:42:23Z</time>
      </trkpt>
      <trkpt lat="45.93143" lon="4.61594">
        <ele>374</ele>
        <time>2018-11-02T10:42:26Z</time>
      </trkpt>
      <trkpt lat="45.93145" lon="4.61592">
        <ele>375</ele>
        <time>2018-11-02T10:42:27Z</time>
      </trkpt>
      <trkpt lat="45.93153" lon="4.61587">
        <ele>375</ele>
        <time>2018-11-02T10:42:30Z</time>
      </trkpt>
      <trkpt lat="45.93156" lon="4.61585">
        <ele>375</ele>
        <time>2018-11-02T10:42:31Z</time>
      </trkpt>
      <trkpt lat="45.93164" lon="4.61581">
        <ele>378</ele>
        <time>2018-11-02T10:42:34Z</time>
      </trkpt>
      <trkpt lat="45.93166" lon="4.61579">
        <ele>378</ele>
        <time>2018-11-02T10:42:35Z</time>
      </trkpt>
      <trkpt lat="45.93173" lon="4.61575">
        <ele>377</ele>
        <time>2018-11-02T10:42:38Z</time>
      </trkpt>
      <trkpt lat="45.93176" lon="4.61574">
        <ele>377</ele>
        <time>2018-11-02T10:42:39Z</time>
      </trkpt>
      <trkpt lat="45.93182" lon="4.61569">
        <ele>377</ele>
        <time>2018-11-02T10:42:42Z</time>
      </trkpt>
      <trkpt lat="45.93185" lon="4.61567">
        <ele>377</ele>
        <time>2018-11-02T10:42:43Z</time>
      </trkpt>
      <trkpt lat="45.93192" lon="4.61563">
        <ele>377</ele>
        <time>2018-11-02T10:42:46Z</time>
      </trkpt>
      <trkpt lat="45.93195" lon="4.6156">
        <ele>377</ele>
        <time>2018-11-02T10:42:47Z</time>
      </trkpt>
      <trkpt lat="45.93201" lon="4.61555">
        <ele>377</ele>
        <time>2018-11-02T10:42:50Z</time>
      </trkpt>
      <trkpt lat="45.93203" lon="4.61552">
        <ele>377</ele>
        <time>2018-11-02T10:42:51Z</time>
      </trkpt>
      <trkpt lat="45.9321" lon="4.61546">
        <ele>377</ele>
        <time>2018-11-02T10:42:54Z</time>
      </trkpt>
      <trkpt lat="45.93212" lon="4.61544">
        <ele>377</ele>
        <time>2018-11-02T10:42:55Z</time>
      </trkpt>
      <trkpt lat="45.93218" lon="4.61538">
        <ele>377</ele>
        <time>2018-11-02T10:42:58Z</time>
      </trkpt>
      <trkpt lat="45.9322" lon="4.61536">
        <ele>377</ele>
        <time>2018-11-02T10:42:59Z</time>
      </trkpt>
      <trkpt lat="45.93227" lon="4.6153">
        <ele>378</ele>
        <time>2018-11-02T10:43:02Z</time>
      </trkpt>
      <trkpt lat="45.9323" lon="4.61528">
        <ele>378</ele>
        <time>2018-11-02T10:43:03Z</time>
      </trkpt>
      <trkpt lat="45.93236" lon="4.61523">
        <ele>378</ele>
        <time>2018-11-02T10:43:06Z</time>
      </trkpt>
      <trkpt lat="45.93238" lon="4.61521">
        <ele>378</ele>
        <time>2018-11-02T10:43:07Z</time>
      </trkpt>
      <trkpt lat="45.93244" lon="4.61515">
        <ele>379</ele>
        <time>2018-11-02T10:43:10Z</time>
      </trkpt>
      <trkpt lat="45.93246" lon="4.61513">
        <ele>379</ele>
        <time>2018-11-02T10:43:11Z</time>
      </trkpt>
      <trkpt lat="45.93251" lon="4.61506">
        <ele>377</ele>
        <time>2018-11-02T10:43:14Z</time>
      </trkpt>
      <trkpt lat="45.93253" lon="4.61504">
        <ele>378</ele>
        <time>2018-11-02T10:43:15Z</time>
      </trkpt>
      <trkpt lat="45.93258" lon="4.61497">
        <ele>380</ele>
        <time>2018-11-02T10:43:18Z</time>
      </trkpt>
      <trkpt lat="45.9326" lon="4.61494">
        <ele>380</ele>
        <time>2018-11-02T10:43:19Z</time>
      </trkpt>
      <trkpt lat="45.93265" lon="4.61486">
        <ele>379</ele>
        <time>2018-11-02T10:43:22Z</time>
      </trkpt>
      <trkpt lat="45.93267" lon="4.61483">
        <ele>379</ele>
        <time>2018-11-02T10:43:23Z</time>
      </trkpt>
      <trkpt lat="45.93272" lon="4.61473">
        <ele>379</ele>
        <time>2018-11-02T10:43:26Z</time>
      </trkpt>
      <trkpt lat="45.93273" lon="4.6147">
        <ele>379</ele>
        <time>2018-11-02T10:43:27Z</time>
      </trkpt>
      <trkpt lat="45.93278" lon="4.61461">
        <ele>380</ele>
        <time>2018-11-02T10:43:30Z</time>
      </trkpt>
      <trkpt lat="45.93279" lon="4.61458">
        <ele>380</ele>
        <time>2018-11-02T10:43:31Z</time>
      </trkpt>
      <trkpt lat="45.93284" lon="4.61449">
        <ele>380</ele>
        <time>2018-11-02T10:43:34Z</time>
      </trkpt>
      <trkpt lat="45.93285" lon="4.61446">
        <ele>380</ele>
        <time>2018-11-02T10:43:35Z</time>
      </trkpt>
      <trkpt lat="45.9329" lon="4.61438">
        <ele>381</ele>
        <time>2018-11-02T10:43:38Z</time>
      </trkpt>
      <trkpt lat="45.93292" lon="4.61436">
        <ele>381</ele>
        <time>2018-11-02T10:43:39Z</time>
      </trkpt>
      <trkpt lat="45.93298" lon="4.61428">
        <ele>381</ele>
        <time>2018-11-02T10:43:42Z</time>
      </trkpt>
      <trkpt lat="45.933" lon="4.61425">
        <ele>381</ele>
        <time>2018-11-02T10:43:43Z</time>
      </trkpt>
      <trkpt lat="45.93306" lon="4.61417">
        <ele>380</ele>
        <time>2018-11-02T10:43:46Z</time>
      </trkpt>
      <trkpt lat="45.93308" lon="4.61415">
        <ele>388</ele>
        <time>2018-11-02T10:43:47Z</time>
      </trkpt>
      <trkpt lat="45.93315" lon="4.61408">
        <ele>387</ele>
        <time>2018-11-02T10:43:50Z</time>
      </trkpt>
      <trkpt lat="45.93317" lon="4.61406">
        <ele>387</ele>
        <time>2018-11-02T10:43:51Z</time>
      </trkpt>
      <trkpt lat="45.93323" lon="4.61403">
        <ele>387</ele>
        <time>2018-11-02T10:43:53Z</time>
      </trkpt>
      <trkpt lat="45.93325" lon="4.61401">
        <ele>387</ele>
        <time>2018-11-02T10:43:54Z</time>
      </trkpt>
      <trkpt lat="45.93333" lon="4.61395">
        <ele>388</ele>
        <time>2018-11-02T10:43:57Z</time>
      </trkpt>
      <trkpt lat="45.93335" lon="4.61394">
        <ele>385</ele>
        <time>2018-11-02T10:43:58Z</time>
      </trkpt>
      <trkpt lat="45.93341" lon="4.6139">
        <ele>385</ele>
        <time>2018-11-02T10:44:00Z</time>
      </trkpt>
      <trkpt lat="45.93344" lon="4.61388">
        <ele>385</ele>
        <time>2018-11-02T10:44:01Z</time>
      </trkpt>
      <trkpt lat="45.9335" lon="4.61383">
        <ele>386</ele>
        <time>2018-11-02T10:44:04Z</time>
      </trkpt>
      <trkpt lat="45.93352" lon="4.61381">
        <ele>386</ele>
        <time>2018-11-02T10:44:05Z</time>
      </trkpt>
      <trkpt lat="45.93359" lon="4.61376">
        <ele>387</ele>
        <time>2018-11-02T10:44:08Z</time>
      </trkpt>
      <trkpt lat="45.93361" lon="4.61374">
        <ele>387</ele>
        <time>2018-11-02T10:44:09Z</time>
      </trkpt>
      <trkpt lat="45.93367" lon="4.6137">
        <ele>387</ele>
        <time>2018-11-02T10:44:12Z</time>
      </trkpt>
      <trkpt lat="45.93369" lon="4.61369">
        <ele>387</ele>
        <time>2018-11-02T10:44:13Z</time>
      </trkpt>
      <trkpt lat="45.93376" lon="4.61364">
        <ele>388</ele>
        <time>2018-11-02T10:44:17Z</time>
      </trkpt>
      <trkpt lat="45.93378" lon="4.61363">
        <ele>388</ele>
        <time>2018-11-02T10:44:18Z</time>
      </trkpt>
      <trkpt lat="45.93385" lon="4.61358">
        <ele>388</ele>
        <time>2018-11-02T10:44:22Z</time>
      </trkpt>
      <trkpt lat="45.93387" lon="4.61357">
        <ele>388</ele>
        <time>2018-11-02T10:44:23Z</time>
      </trkpt>
      <trkpt lat="45.93396" lon="4.61354">
        <ele>388</ele>
        <time>2018-11-02T10:44:27Z</time>
      </trkpt>
      <trkpt lat="45.93398" lon="4.61353">
        <ele>388</ele>
        <time>2018-11-02T10:44:28Z</time>
      </trkpt>
      <trkpt lat="45.93405" lon="4.6135">
        <ele>389</ele>
        <time>2018-11-02T10:44:31Z</time>
      </trkpt>
      <trkpt lat="45.93407" lon="4.61349">
        <ele>389</ele>
        <time>2018-11-02T10:44:32Z</time>
      </trkpt>
      <trkpt lat="45.93414" lon="4.61345">
        <ele>390</ele>
        <time>2018-11-02T10:44:35Z</time>
      </trkpt>
      <trkpt lat="45.93416" lon="4.61344">
        <ele>390</ele>
        <time>2018-11-02T10:44:36Z</time>
      </trkpt>
      <trkpt lat="45.93423" lon="4.6134">
        <ele>389</ele>
        <time>2018-11-02T10:44:39Z</time>
      </trkpt>
      <trkpt lat="45.93425" lon="4.61339">
        <ele>388</ele>
        <time>2018-11-02T10:44:40Z</time>
      </trkpt>
      <trkpt lat="45.93432" lon="4.61336">
        <ele>387</ele>
        <time>2018-11-02T10:44:43Z</time>
      </trkpt>
      <trkpt lat="45.93435" lon="4.61335">
        <ele>387</ele>
        <time>2018-11-02T10:44:44Z</time>
      </trkpt>
      <trkpt lat="45.93441" lon="4.6133">
        <ele>393</ele>
        <time>2018-11-02T10:44:47Z</time>
      </trkpt>
      <trkpt lat="45.93444" lon="4.61328">
        <ele>393</ele>
        <time>2018-11-02T10:44:48Z</time>
      </trkpt>
      <trkpt lat="45.93451" lon="4.61322">
        <ele>393</ele>
        <time>2018-11-02T10:44:51Z</time>
      </trkpt>
      <trkpt lat="45.93453" lon="4.6132">
        <ele>393</ele>
        <time>2018-11-02T10:44:52Z</time>
      </trkpt>
      <trkpt lat="45.9346" lon="4.61315">
        <ele>393</ele>
        <time>2018-11-02T10:44:55Z</time>
      </trkpt>
      <trkpt lat="45.93462" lon="4.61313">
        <ele>393</ele>
        <time>2018-11-02T10:44:56Z</time>
      </trkpt>
      <trkpt lat="45.93469" lon="4.61306">
        <ele>393</ele>
        <time>2018-11-02T10:44:59Z</time>
      </trkpt>
      <trkpt lat="45.93472" lon="4.61304">
        <ele>393</ele>
        <time>2018-11-02T10:45:00Z</time>
      </trkpt>
      <trkpt lat="45.93479" lon="4.61296">
        <ele>394</ele>
        <time>2018-11-02T10:45:03Z</time>
      </trkpt>
      <trkpt lat="45.93481" lon="4.61293">
        <ele>394</ele>
        <time>2018-11-02T10:45:04Z</time>
      </trkpt>
      <trkpt lat="45.93488" lon="4.61287">
        <ele>394</ele>
        <time>2018-11-02T10:45:07Z</time>
      </trkpt>
      <trkpt lat="45.9349" lon="4.61284">
        <ele>394</ele>
        <time>2018-11-02T10:45:08Z</time>
      </trkpt>
      <trkpt lat="45.93496" lon="4.61276">
        <ele>395</ele>
        <time>2018-11-02T10:45:11Z</time>
      </trkpt>
      <trkpt lat="45.93498" lon="4.61273">
        <ele>395</ele>
        <time>2018-11-02T10:45:12Z</time>
      </trkpt>
      <trkpt lat="45.93504" lon="4.61265">
        <ele>393</ele>
        <time>2018-11-02T10:45:15Z</time>
      </trkpt>
      <trkpt lat="45.93506" lon="4.61263">
        <ele>393</ele>
        <time>2018-11-02T10:45:16Z</time>
      </trkpt>
      <trkpt lat="45.93512" lon="4.61255">
        <ele>394</ele>
        <time>2018-11-02T10:45:19Z</time>
      </trkpt>
      <trkpt lat="45.93514" lon="4.61252">
        <ele>393</ele>
        <time>2018-11-02T10:45:20Z</time>
      </trkpt>
      <trkpt lat="45.9352" lon="4.61245">
        <ele>397</ele>
        <time>2018-11-02T10:45:23Z</time>
      </trkpt>
      <trkpt lat="45.93522" lon="4.61242">
        <ele>397</ele>
        <time>2018-11-02T10:45:24Z</time>
      </trkpt>
      <trkpt lat="45.93527" lon="4.61233">
        <ele>397</ele>
        <time>2018-11-02T10:45:27Z</time>
      </trkpt>
      <trkpt lat="45.93529" lon="4.6123">
        <ele>397</ele>
        <time>2018-11-02T10:45:28Z</time>
      </trkpt>
      <trkpt lat="45.93533" lon="4.61223">
        <ele>397</ele>
        <time>2018-11-02T10:45:30Z</time>
      </trkpt>
      <trkpt lat="45.93536" lon="4.6122">
        <ele>397</ele>
        <time>2018-11-02T10:45:31Z</time>
      </trkpt>
      <trkpt lat="45.93542" lon="4.61211">
        <ele>398</ele>
        <time>2018-11-02T10:45:34Z</time>
      </trkpt>
      <trkpt lat="45.93544" lon="4.61208">
        <ele>398</ele>
        <time>2018-11-02T10:45:35Z</time>
      </trkpt>
      <trkpt lat="45.93548" lon="4.61202">
        <ele>398</ele>
        <time>2018-11-02T10:45:37Z</time>
      </trkpt>
      <trkpt lat="45.9355" lon="4.61198">
        <ele>398</ele>
        <time>2018-11-02T10:45:38Z</time>
      </trkpt>
      <trkpt lat="45.93556" lon="4.6119">
        <ele>398</ele>
        <time>2018-11-02T10:45:41Z</time>
      </trkpt>
      <trkpt lat="45.93558" lon="4.61188">
        <ele>398</ele>
        <time>2018-11-02T10:45:42Z</time>
      </trkpt>
      <trkpt lat="45.93564" lon="4.6118">
        <ele>398</ele>
        <time>2018-11-02T10:45:45Z</time>
      </trkpt>
      <trkpt lat="45.93566" lon="4.61177">
        <ele>398</ele>
        <time>2018-11-02T10:45:46Z</time>
      </trkpt>
      <trkpt lat="45.93571" lon="4.61169">
        <ele>397</ele>
        <time>2018-11-02T10:45:49Z</time>
      </trkpt>
      <trkpt lat="45.93573" lon="4.61166">
        <ele>401</ele>
        <time>2018-11-02T10:45:50Z</time>
      </trkpt>
      <trkpt lat="45.93578" lon="4.61158">
        <ele>401</ele>
        <time>2018-11-02T10:45:53Z</time>
      </trkpt>
      <trkpt lat="45.9358" lon="4.61156">
        <ele>401</ele>
        <time>2018-11-02T10:45:54Z</time>
      </trkpt>
      <trkpt lat="45.93586" lon="4.61148">
        <ele>398</ele>
        <time>2018-11-02T10:45:57Z</time>
      </trkpt>
      <trkpt lat="45.93589" lon="4.61144">
        <ele>398</ele>
        <time>2018-11-02T10:45:58Z</time>
      </trkpt>
      <trkpt lat="45.93594" lon="4.61136">
        <ele>399</ele>
        <time>2018-11-02T10:46:01Z</time>
      </trkpt>
      <trkpt lat="45.93596" lon="4.61133">
        <ele>399</ele>
        <time>2018-11-02T10:46:02Z</time>
      </trkpt>
      <trkpt lat="45.93601" lon="4.61125">
        <ele>399</ele>
        <time>2018-11-02T10:46:05Z</time>
      </trkpt>
      <trkpt lat="45.93603" lon="4.61123">
        <ele>400</ele>
        <time>2018-11-02T10:46:06Z</time>
      </trkpt>
      <trkpt lat="45.93608" lon="4.61114">
        <ele>400</ele>
        <time>2018-11-02T10:46:09Z</time>
      </trkpt>
      <trkpt lat="45.9361" lon="4.61111">
        <ele>400</ele>
        <time>2018-11-02T10:46:10Z</time>
      </trkpt>
      <trkpt lat="45.93615" lon="4.61103">
        <ele>400</ele>
        <time>2018-11-02T10:46:13Z</time>
      </trkpt>
      <trkpt lat="45.93617" lon="4.611">
        <ele>400</ele>
        <time>2018-11-02T10:46:14Z</time>
      </trkpt>
      <trkpt lat="45.93624" lon="4.61092">
        <ele>400</ele>
        <time>2018-11-02T10:46:17Z</time>
      </trkpt>
      <trkpt lat="45.93626" lon="4.6109">
        <ele>400</ele>
        <time>2018-11-02T10:46:18Z</time>
      </trkpt>
      <trkpt lat="45.93632" lon="4.61083">
        <ele>405</ele>
        <time>2018-11-02T10:46:21Z</time>
      </trkpt>
      <trkpt lat="45.93634" lon="4.6108">
        <ele>405</ele>
        <time>2018-11-02T10:46:22Z</time>
      </trkpt>
      <trkpt lat="45.93639" lon="4.6107">
        <ele>405</ele>
        <time>2018-11-02T10:46:25Z</time>
      </trkpt>
      <trkpt lat="45.93641" lon="4.61067">
        <ele>405</ele>
        <time>2018-11-02T10:46:26Z</time>
      </trkpt>
      <trkpt lat="45.93647" lon="4.61058">
        <ele>405</ele>
        <time>2018-11-02T10:46:29Z</time>
      </trkpt>
      <trkpt lat="45.93648" lon="4.61054">
        <ele>405</ele>
        <time>2018-11-02T10:46:30Z</time>
      </trkpt>
      <trkpt lat="45.93652" lon="4.61048">
        <ele>406</ele>
        <time>2018-11-02T10:46:32Z</time>
      </trkpt>
      <trkpt lat="45.93655" lon="4.61044">
        <ele>406</ele>
        <time>2018-11-02T10:46:33Z</time>
      </trkpt>
      <trkpt lat="45.9366" lon="4.61036">
        <ele>406</ele>
        <time>2018-11-02T10:46:36Z</time>
      </trkpt>
      <trkpt lat="45.93662" lon="4.61033">
        <ele>406</ele>
        <time>2018-11-02T10:46:37Z</time>
      </trkpt>
      <trkpt lat="45.93668" lon="4.61024">
        <ele>404</ele>
        <time>2018-11-02T10:46:40Z</time>
      </trkpt>
      <trkpt lat="45.93671" lon="4.61021">
        <ele>404</ele>
        <time>2018-11-02T10:46:41Z</time>
      </trkpt>
      <trkpt lat="45.93675" lon="4.61016">
        <ele>404</ele>
        <time>2018-11-02T10:46:43Z</time>
      </trkpt>
      <trkpt lat="45.93678" lon="4.61013">
        <ele>404</ele>
        <time>2018-11-02T10:46:44Z</time>
      </trkpt>
      <trkpt lat="45.93684" lon="4.61006">
        <ele>404</ele>
        <time>2018-11-02T10:46:47Z</time>
      </trkpt>
      <trkpt lat="45.93686" lon="4.61003">
        <ele>404</ele>
        <time>2018-11-02T10:46:48Z</time>
      </trkpt>
      <trkpt lat="45.93693" lon="4.60996">
        <ele>408</ele>
        <time>2018-11-02T10:46:51Z</time>
      </trkpt>
      <trkpt lat="45.93696" lon="4.60994">
        <ele>408</ele>
        <time>2018-11-02T10:46:52Z</time>
      </trkpt>
      <trkpt lat="45.93703" lon="4.60987">
        <ele>408</ele>
        <time>2018-11-02T10:46:55Z</time>
      </trkpt>
      <trkpt lat="45.93705" lon="4.60985">
        <ele>408</ele>
        <time>2018-11-02T10:46:56Z</time>
      </trkpt>
      <trkpt lat="45.93711" lon="4.60979">
        <ele>408</ele>
        <time>2018-11-02T10:46:59Z</time>
      </trkpt>
      <trkpt lat="45.93713" lon="4.60978">
        <ele>408</ele>
        <time>2018-11-02T10:47:00Z</time>
      </trkpt>
      <trkpt lat="45.9372" lon="4.60972">
        <ele>408</ele>
        <time>2018-11-02T10:47:03Z</time>
      </trkpt>
      <trkpt lat="45.93722" lon="4.6097">
        <ele>408</ele>
        <time>2018-11-02T10:47:04Z</time>
      </trkpt>
      <trkpt lat="45.93729" lon="4.60963">
        <ele>409</ele>
        <time>2018-11-02T10:47:07Z</time>
      </trkpt>
      <trkpt lat="45.93732" lon="4.60961">
        <ele>409</ele>
        <time>2018-11-02T10:47:08Z</time>
      </trkpt>
      <trkpt lat="45.93739" lon="4.60954">
        <ele>409</ele>
        <time>2018-11-02T10:47:11Z</time>
      </trkpt>
      <trkpt lat="45.93741" lon="4.60952">
        <ele>409</ele>
        <time>2018-11-02T10:47:12Z</time>
      </trkpt>
      <trkpt lat="45.93749" lon="4.60946">
        <ele>410</ele>
        <time>2018-11-02T10:47:15Z</time>
      </trkpt>
      <trkpt lat="45.93752" lon="4.60944">
        <ele>410</ele>
        <time>2018-11-02T10:47:16Z</time>
      </trkpt>
      <trkpt lat="45.93758" lon="4.6094">
        <ele>411</ele>
        <time>2018-11-02T10:47:18Z</time>
      </trkpt>
      <trkpt lat="45.93761" lon="4.60938">
        <ele>411</ele>
        <time>2018-11-02T10:47:19Z</time>
      </trkpt>
      <trkpt lat="45.93766" lon="4.60934">
        <ele>411</ele>
        <time>2018-11-02T10:47:21Z</time>
      </trkpt>
      <trkpt lat="45.93768" lon="4.60932">
        <ele>411</ele>
        <time>2018-11-02T10:47:22Z</time>
      </trkpt>
      <trkpt lat="45.93774" lon="4.60928">
        <ele>411</ele>
        <time>2018-11-02T10:47:24Z</time>
      </trkpt>
      <trkpt lat="45.93777" lon="4.60927">
        <ele>411</ele>
        <time>2018-11-02T10:47:25Z</time>
      </trkpt>
      <trkpt lat="45.93783" lon="4.60923">
        <ele>411</ele>
        <time>2018-11-02T10:47:27Z</time>
      </trkpt>
      <trkpt lat="45.93787" lon="4.60921">
        <ele>411</ele>
        <time>2018-11-02T10:47:28Z</time>
      </trkpt>
      <trkpt lat="45.93793" lon="4.6092">
        <ele>411</ele>
        <time>2018-11-02T10:47:30Z</time>
      </trkpt>
      <trkpt lat="45.93796" lon="4.6092">
        <ele>411</ele>
        <time>2018-11-02T10:47:31Z</time>
      </trkpt>
      <trkpt lat="45.93804" lon="4.60921">
        <ele>411</ele>
        <time>2018-11-02T10:47:33Z</time>
      </trkpt>
      <trkpt lat="45.93807" lon="4.60922">
        <ele>411</ele>
        <time>2018-11-02T10:47:34Z</time>
      </trkpt>
      <trkpt lat="45.93812" lon="4.60927">
        <ele>411</ele>
        <time>2018-11-02T10:47:36Z</time>
      </trkpt>
      <trkpt lat="45.93815" lon="4.6093">
        <ele>411</ele>
        <time>2018-11-02T10:47:37Z</time>
      </trkpt>
      <trkpt lat="45.93819" lon="4.60936">
        <ele>411</ele>
        <time>2018-11-02T10:47:39Z</time>
      </trkpt>
      <trkpt lat="45.93821" lon="4.6094">
        <ele>411</ele>
        <time>2018-11-02T10:47:40Z</time>
      </trkpt>
      <trkpt lat="45.93824" lon="4.6095">
        <ele>411</ele>
        <time>2018-11-02T10:47:43Z</time>
      </trkpt>
      <trkpt lat="45.93825" lon="4.60954">
        <ele>411</ele>
        <time>2018-11-02T10:47:44Z</time>
      </trkpt>
      <trkpt lat="45.93827" lon="4.60965">
        <ele>411</ele>
        <time>2018-11-02T10:47:48Z</time>
      </trkpt>
      <trkpt lat="45.93826" lon="4.60968">
        <ele>411</ele>
        <time>2018-11-02T10:47:49Z</time>
      </trkpt>
      <trkpt lat="45.93825" lon="4.60979">
        <ele>412</ele>
        <time>2018-11-02T10:47:52Z</time>
      </trkpt>
      <trkpt lat="45.93825" lon="4.60982">
        <ele>412</ele>
        <time>2018-11-02T10:47:53Z</time>
      </trkpt>
      <trkpt lat="45.93824" lon="4.60994">
        <ele>412</ele>
        <time>2018-11-02T10:47:56Z</time>
      </trkpt>
      <trkpt lat="45.93824" lon="4.60998">
        <ele>413</ele>
        <time>2018-11-02T10:47:57Z</time>
      </trkpt>
      <trkpt lat="45.93823" lon="4.61009">
        <ele>412</ele>
        <time>2018-11-02T10:48:00Z</time>
      </trkpt>
      <trkpt lat="45.93823" lon="4.61013">
        <ele>412</ele>
        <time>2018-11-02T10:48:01Z</time>
      </trkpt>
      <trkpt lat="45.93822" lon="4.61024">
        <ele>411</ele>
        <time>2018-11-02T10:48:04Z</time>
      </trkpt>
      <trkpt lat="45.93821" lon="4.61027">
        <ele>411</ele>
        <time>2018-11-02T10:48:05Z</time>
      </trkpt>
      <trkpt lat="45.93819" lon="4.61037">
        <ele>411</ele>
        <time>2018-11-02T10:48:08Z</time>
      </trkpt>
      <trkpt lat="45.93818" lon="4.6104">
        <ele>411</ele>
        <time>2018-11-02T10:48:09Z</time>
      </trkpt>
      <trkpt lat="45.93816" lon="4.61052">
        <ele>411</ele>
        <time>2018-11-02T10:48:13Z</time>
      </trkpt>
      <trkpt lat="45.93815" lon="4.61054">
        <ele>411</ele>
        <time>2018-11-02T10:48:14Z</time>
      </trkpt>
      <trkpt lat="45.93814" lon="4.61067">
        <ele>412</ele>
        <time>2018-11-02T10:48:18Z</time>
      </trkpt>
      <trkpt lat="45.93814" lon="4.6107">
        <ele>412</ele>
        <time>2018-11-02T10:48:19Z</time>
      </trkpt>
      <trkpt lat="45.93812" lon="4.6108">
        <ele>412</ele>
        <time>2018-11-02T10:48:22Z</time>
      </trkpt>
      <trkpt lat="45.93811" lon="4.61083">
        <ele>412</ele>
        <time>2018-11-02T10:48:23Z</time>
      </trkpt>
      <trkpt lat="45.93809" lon="4.61092">
        <ele>415</ele>
        <time>2018-11-02T10:48:26Z</time>
      </trkpt>
      <trkpt lat="45.93808" lon="4.61095">
        <ele>415</ele>
        <time>2018-11-02T10:48:27Z</time>
      </trkpt>
      <trkpt lat="45.93807" lon="4.61105">
        <ele>415</ele>
        <time>2018-11-02T10:48:30Z</time>
      </trkpt>
      <trkpt lat="45.93807" lon="4.61108">
        <ele>415</ele>
        <time>2018-11-02T10:48:31Z</time>
      </trkpt>
      <trkpt lat="45.93804" lon="4.61119">
        <ele>415</ele>
        <time>2018-11-02T10:48:35Z</time>
      </trkpt>
      <trkpt lat="45.93803" lon="4.61122">
        <ele>415</ele>
        <time>2018-11-02T10:48:36Z</time>
      </trkpt>
      <trkpt lat="45.938" lon="4.6113">
        <ele>415</ele>
        <time>2018-11-02T10:48:39Z</time>
      </trkpt>
      <trkpt lat="45.93799" lon="4.61133">
        <ele>415</ele>
        <time>2018-11-02T10:48:40Z</time>
      </trkpt>
      <trkpt lat="45.93796" lon="4.61142">
        <ele>415</ele>
        <time>2018-11-02T10:48:43Z</time>
      </trkpt>
      <trkpt lat="45.93795" lon="4.61145">
        <ele>415</ele>
        <time>2018-11-02T10:48:44Z</time>
      </trkpt>
      <trkpt lat="45.93791" lon="4.61155">
        <ele>415</ele>
        <time>2018-11-02T10:48:48Z</time>
      </trkpt>
      <trkpt lat="45.9379" lon="4.61158">
        <ele>415</ele>
        <time>2018-11-02T10:48:49Z</time>
      </trkpt>
      <trkpt lat="45.93786" lon="4.61165">
        <ele>414</ele>
        <time>2018-11-02T10:48:52Z</time>
      </trkpt>
      <trkpt lat="45.93785" lon="4.61168">
        <ele>419</ele>
        <time>2018-11-02T10:48:53Z</time>
      </trkpt>
      <trkpt lat="45.9378" lon="4.61177">
        <ele>419</ele>
        <time>2018-11-02T10:48:56Z</time>
      </trkpt>
      <trkpt lat="45.93779" lon="4.61179">
        <ele>419</ele>
        <time>2018-11-02T10:48:57Z</time>
      </trkpt>
      <trkpt lat="45.93775" lon="4.61188">
        <ele>419</ele>
        <time>2018-11-02T10:49:00Z</time>
      </trkpt>
      <trkpt lat="45.93774" lon="4.6119">
        <ele>419</ele>
        <time>2018-11-02T10:49:01Z</time>
      </trkpt>
      <trkpt lat="45.93768" lon="4.61198">
        <ele>419</ele>
        <time>2018-11-02T10:49:04Z</time>
      </trkpt>
      <trkpt lat="45.93767" lon="4.612">
        <ele>419</ele>
        <time>2018-11-02T10:49:05Z</time>
      </trkpt>
      <trkpt lat="45.93763" lon="4.61207">
        <ele>420</ele>
        <time>2018-11-02T10:49:08Z</time>
      </trkpt>
      <trkpt lat="45.93762" lon="4.61211">
        <ele>420</ele>
        <time>2018-11-02T10:49:09Z</time>
      </trkpt>
      <trkpt lat="45.93758" lon="4.61221">
        <ele>420</ele>
        <time>2018-11-02T10:49:12Z</time>
      </trkpt>
      <trkpt lat="45.93757" lon="4.61223">
        <ele>420</ele>
        <time>2018-11-02T10:49:13Z</time>
      </trkpt>
      <trkpt lat="45.93752" lon="4.61234">
        <ele>420</ele>
        <time>2018-11-02T10:49:17Z</time>
      </trkpt>
      <trkpt lat="45.93751" lon="4.61238">
        <ele>419</ele>
        <time>2018-11-02T10:49:18Z</time>
      </trkpt>
      <trkpt lat="45.93749" lon="4.61249">
        <ele>417</ele>
        <time>2018-11-02T10:49:22Z</time>
      </trkpt>
      <trkpt lat="45.93748" lon="4.61252">
        <ele>417</ele>
        <time>2018-11-02T10:49:23Z</time>
      </trkpt>
      <trkpt lat="45.93747" lon="4.61264">
        <ele>414</ele>
        <time>2018-11-02T10:49:27Z</time>
      </trkpt>
      <trkpt lat="45.93748" lon="4.61267">
        <ele>414</ele>
        <time>2018-11-02T10:49:28Z</time>
      </trkpt>
      <trkpt lat="45.9375" lon="4.61279">
        <ele>413</ele>
        <time>2018-11-02T10:49:33Z</time>
      </trkpt>
      <trkpt lat="45.93751" lon="4.61281">
        <ele>424</ele>
        <time>2018-11-02T10:49:34Z</time>
      </trkpt>
      <trkpt lat="45.93756" lon="4.6129">
        <ele>425</ele>
        <time>2018-11-02T10:49:38Z</time>
      </trkpt>
      <trkpt lat="45.93758" lon="4.61292">
        <ele>425</ele>
        <time>2018-11-02T10:49:39Z</time>
      </trkpt>
      <trkpt lat="45.93765" lon="4.61298">
        <ele>425</ele>
        <time>2018-11-02T10:49:43Z</time>
      </trkpt>
      <trkpt lat="45.93767" lon="4.613">
        <ele>426</ele>
        <time>2018-11-02T10:49:44Z</time>
      </trkpt>
      <trkpt lat="45.93773" lon="4.61307">
        <ele>426</ele>
        <time>2018-11-02T10:49:48Z</time>
      </trkpt>
      <trkpt lat="45.93774" lon="4.61309">
        <ele>426</ele>
        <time>2018-11-02T10:49:49Z</time>
      </trkpt>
      <trkpt lat="45.93781" lon="4.61316">
        <ele>427</ele>
        <time>2018-11-02T10:49:53Z</time>
      </trkpt>
      <trkpt lat="45.93782" lon="4.61318">
        <ele>427</ele>
        <time>2018-11-02T10:49:54Z</time>
      </trkpt>
      <trkpt lat="45.93788" lon="4.61324">
        <ele>427</ele>
        <time>2018-11-02T10:49:58Z</time>
      </trkpt>
      <trkpt lat="45.93789" lon="4.61326">
        <ele>427</ele>
        <time>2018-11-02T10:49:59Z</time>
      </trkpt>
      <trkpt lat="45.93794" lon="4.61335">
        <ele>428</ele>
        <time>2018-11-02T10:50:03Z</time>
      </trkpt>
      <trkpt lat="45.93795" lon="4.61337">
        <ele>428</ele>
        <time>2018-11-02T10:50:04Z</time>
      </trkpt>
      <trkpt lat="45.93799" lon="4.61347">
        <ele>429</ele>
        <time>2018-11-02T10:50:08Z</time>
      </trkpt>
      <trkpt lat="45.938" lon="4.6135">
        <ele>429</ele>
        <time>2018-11-02T10:50:09Z</time>
      </trkpt>
      <trkpt lat="45.93804" lon="4.61358">
        <ele>429</ele>
        <time>2018-11-02T10:50:12Z</time>
      </trkpt>
      <trkpt lat="45.93805" lon="4.61361">
        <ele>429</ele>
        <time>2018-11-02T10:50:13Z</time>
      </trkpt>
      <trkpt lat="45.9381" lon="4.61371">
        <ele>429</ele>
        <time>2018-11-02T10:50:17Z</time>
      </trkpt>
      <trkpt lat="45.93811" lon="4.61373">
        <ele>429</ele>
        <time>2018-11-02T10:50:18Z</time>
      </trkpt>
      <trkpt lat="45.93815" lon="4.61381">
        <ele>429</ele>
        <time>2018-11-02T10:50:22Z</time>
      </trkpt>
      <trkpt lat="45.93816" lon="4.61384">
        <ele>429</ele>
        <time>2018-11-02T10:50:23Z</time>
      </trkpt>
      <trkpt lat="45.93818" lon="4.61394">
        <ele>430</ele>
        <time>2018-11-02T10:50:27Z</time>
      </trkpt>
      <trkpt lat="45.93819" lon="4.61397">
        <ele>430</ele>
        <time>2018-11-02T10:50:28Z</time>
      </trkpt>
      <trkpt lat="45.93822" lon="4.61407">
        <ele>431</ele>
        <time>2018-11-02T10:50:33Z</time>
      </trkpt>
      <trkpt lat="45.93823" lon="4.61409">
        <ele>431</ele>
        <time>2018-11-02T10:50:34Z</time>
      </trkpt>
      <trkpt lat="45.93826" lon="4.61421">
        <ele>432</ele>
        <time>2018-11-02T10:50:39Z</time>
      </trkpt>
      <trkpt lat="45.93826" lon="4.61423">
        <ele>432</ele>
        <time>2018-11-02T10:50:40Z</time>
      </trkpt>
      <trkpt lat="45.93827" lon="4.61435">
        <ele>431</ele>
        <time>2018-11-02T10:50:45Z</time>
      </trkpt>
      <trkpt lat="45.93827" lon="4.61437">
        <ele>431</ele>
        <time>2018-11-02T10:50:46Z</time>
      </trkpt>
      <trkpt lat="45.93829" lon="4.6145">
        <ele>430</ele>
        <time>2018-11-02T10:50:51Z</time>
      </trkpt>
      <trkpt lat="45.9383" lon="4.61452">
        <ele>430</ele>
        <time>2018-11-02T10:50:52Z</time>
      </trkpt>
      <trkpt lat="45.93831" lon="4.61464">
        <ele>430</ele>
        <time>2018-11-02T10:50:56Z</time>
      </trkpt>
      <trkpt lat="45.93832" lon="4.61466">
        <ele>430</ele>
        <time>2018-11-02T10:50:57Z</time>
      </trkpt>
      <trkpt lat="45.93833" lon="4.61477">
        <ele>431</ele>
        <time>2018-11-02T10:51:01Z</time>
      </trkpt>
      <trkpt lat="45.93833" lon="4.6148">
        <ele>431</ele>
        <time>2018-11-02T10:51:02Z</time>
      </trkpt>
      <trkpt lat="45.93835" lon="4.61492">
        <ele>437</ele>
        <time>2018-11-02T10:51:06Z</time>
      </trkpt>
      <trkpt lat="45.93835" lon="4.61495">
        <ele>436</ele>
        <time>2018-11-02T10:51:07Z</time>
      </trkpt>
      <trkpt lat="45.93836" lon="4.61507">
        <ele>437</ele>
        <time>2018-11-02T10:51:11Z</time>
      </trkpt>
      <trkpt lat="45.93837" lon="4.6151">
        <ele>437</ele>
        <time>2018-11-02T10:51:12Z</time>
      </trkpt>
      <trkpt lat="45.93839" lon="4.61522">
        <ele>439</ele>
        <time>2018-11-02T10:51:16Z</time>
      </trkpt>
      <trkpt lat="45.93839" lon="4.61525">
        <ele>439</ele>
        <time>2018-11-02T10:51:17Z</time>
      </trkpt>
      <trkpt lat="45.93841" lon="4.61537">
        <ele>440</ele>
        <time>2018-11-02T10:51:21Z</time>
      </trkpt>
      <trkpt lat="45.93842" lon="4.6154">
        <ele>440</ele>
        <time>2018-11-02T10:51:22Z</time>
      </trkpt>
      <trkpt lat="45.93843" lon="4.61552">
        <ele>440</ele>
        <time>2018-11-02T10:51:26Z</time>
      </trkpt>
      <trkpt lat="45.93843" lon="4.61555">
        <ele>440</ele>
        <time>2018-11-02T10:51:27Z</time>
      </trkpt>
      <trkpt lat="45.93845" lon="4.61566">
        <ele>439</ele>
        <time>2018-11-02T10:51:31Z</time>
      </trkpt>
      <trkpt lat="45.93846" lon="4.61569">
        <ele>439</ele>
        <time>2018-11-02T10:51:32Z</time>
      </trkpt>
      <trkpt lat="45.93846" lon="4.6158">
        <ele>438</ele>
        <time>2018-11-02T10:51:36Z</time>
      </trkpt>
      <trkpt lat="45.93846" lon="4.61583">
        <ele>438</ele>
        <time>2018-11-02T10:51:37Z</time>
      </trkpt>
      <trkpt lat="45.93847" lon="4.61595">
        <ele>439</ele>
        <time>2018-11-02T10:51:41Z</time>
      </trkpt>
      <trkpt lat="45.93847" lon="4.61598">
        <ele>440</ele>
        <time>2018-11-02T10:51:42Z</time>
      </trkpt>
      <trkpt lat="45.93849" lon="4.61609">
        <ele>441</ele>
        <time>2018-11-02T10:51:46Z</time>
      </trkpt>
      <trkpt lat="45.93849" lon="4.61611">
        <ele>441</ele>
        <time>2018-11-02T10:51:47Z</time>
      </trkpt>
      <trkpt lat="45.93852" lon="4.61622">
        <ele>441</ele>
        <time>2018-11-02T10:51:51Z</time>
      </trkpt>
      <trkpt lat="45.93854" lon="4.61624">
        <ele>441</ele>
        <time>2018-11-02T10:51:52Z</time>
      </trkpt>
      <trkpt lat="45.93861" lon="4.61628">
        <ele>442</ele>
        <time>2018-11-02T10:51:57Z</time>
      </trkpt>
      <trkpt lat="45.93863" lon="4.61628">
        <ele>442</ele>
        <time>2018-11-02T10:51:58Z</time>
      </trkpt>
      <trkpt lat="45.9387" lon="4.61622">
        <ele>443</ele>
        <time>2018-11-02T10:52:03Z</time>
      </trkpt>
      <trkpt lat="45.93871" lon="4.61621">
        <ele>443</ele>
        <time>2018-11-02T10:52:04Z</time>
      </trkpt>
      <trkpt lat="45.93878" lon="4.61614">
        <ele>443</ele>
        <time>2018-11-02T10:52:09Z</time>
      </trkpt>
      <trkpt lat="45.9388" lon="4.61613">
        <ele>443</ele>
        <time>2018-11-02T10:52:10Z</time>
      </trkpt>
      <trkpt lat="45.93886" lon="4.61607">
        <ele>444</ele>
        <time>2018-11-02T10:52:15Z</time>
      </trkpt>
      <trkpt lat="45.93888" lon="4.61606">
        <ele>444</ele>
        <time>2018-11-02T10:52:16Z</time>
      </trkpt>
      <trkpt lat="45.93895" lon="4.61602">
        <ele>445</ele>
        <time>2018-11-02T10:52:21Z</time>
      </trkpt>
      <trkpt lat="45.93896" lon="4.61602">
        <ele>445</ele>
        <time>2018-11-02T10:52:22Z</time>
      </trkpt>
      <trkpt lat="45.93904" lon="4.61599">
        <ele>445</ele>
        <time>2018-11-02T10:52:27Z</time>
      </trkpt>
      <trkpt lat="45.93905" lon="4.61598">
        <ele>445</ele>
        <time>2018-11-02T10:52:28Z</time>
      </trkpt>
      <trkpt lat="45.93913" lon="4.61595">
        <ele>446</ele>
        <time>2018-11-02T10:52:34Z</time>
      </trkpt>
      <trkpt lat="45.93915" lon="4.61594">
        <ele>446</ele>
        <time>2018-11-02T10:52:35Z</time>
      </trkpt>
      <trkpt lat="45.93921" lon="4.6159">
        <ele>450</ele>
        <time>2018-11-02T10:52:40Z</time>
      </trkpt>
      <trkpt lat="45.93923" lon="4.61588">
        <ele>450</ele>
        <time>2018-11-02T10:52:41Z</time>
      </trkpt>
      <trkpt lat="45.93928" lon="4.61579">
        <ele>450</ele>
        <time>2018-11-02T10:52:45Z</time>
      </trkpt>
      <trkpt lat="45.93929" lon="4.61576">
        <ele>450</ele>
        <time>2018-11-02T10:52:46Z</time>
      </trkpt>
      <trkpt lat="45.93933" lon="4.61566">
        <ele>451</ele>
        <time>2018-11-02T10:52:50Z</time>
      </trkpt>
      <trkpt lat="45.93934" lon="4.61564">
        <ele>451</ele>
        <time>2018-11-02T10:52:51Z</time>
      </trkpt>
      <trkpt lat="45.93938" lon="4.61553">
        <ele>452</ele>
        <time>2018-11-02T10:52:55Z</time>
      </trkpt>
      <trkpt lat="45.93939" lon="4.61551">
        <ele>452</ele>
        <time>2018-11-02T10:52:56Z</time>
      </trkpt>
      <trkpt lat="45.93942" lon="4.6154">
        <ele>452</ele>
        <time>2018-11-02T10:53:01Z</time>
      </trkpt>
      <trkpt lat="45.93943" lon="4.61537">
        <ele>452</ele>
        <time>2018-11-02T10:53:02Z</time>
      </trkpt>
      <trkpt lat="45.93945" lon="4.61526">
        <ele>452</ele>
        <time>2018-11-02T10:53:06Z</time>
      </trkpt>
      <trkpt lat="45.93946" lon="4.61523">
        <ele>452</ele>
        <time>2018-11-02T10:53:07Z</time>
      </trkpt>
      <trkpt lat="45.93948" lon="4.61512">
        <ele>452</ele>
        <time>2018-11-02T10:53:11Z</time>
      </trkpt>
      <trkpt lat="45.93949" lon="4.61509">
        <ele>452</ele>
        <time>2018-11-02T10:53:12Z</time>
      </trkpt>
      <trkpt lat="45.93952" lon="4.615">
        <ele>452</ele>
        <time>2018-11-02T10:53:15Z</time>
      </trkpt>
      <trkpt lat="45.93953" lon="4.61497">
        <ele>452</ele>
        <time>2018-11-02T10:53:16Z</time>
      </trkpt>
      <trkpt lat="45.93957" lon="4.61487">
        <ele>452</ele>
        <time>2018-11-02T10:53:20Z</time>
      </trkpt>
      <trkpt lat="45.93958" lon="4.61484">
        <ele>452</ele>
        <time>2018-11-02T10:53:21Z</time>
      </trkpt>
      <trkpt lat="45.93962" lon="4.61475">
        <ele>453</ele>
        <time>2018-11-02T10:53:25Z</time>
      </trkpt>
      <trkpt lat="45.93964" lon="4.61473">
        <ele>453</ele>
        <time>2018-11-02T10:53:26Z</time>
      </trkpt>
      <trkpt lat="45.93968" lon="4.61464">
        <ele>453</ele>
        <time>2018-11-02T10:53:30Z</time>
      </trkpt>
      <trkpt lat="45.93969" lon="4.61461">
        <ele>453</ele>
        <time>2018-11-02T10:53:31Z</time>
      </trkpt>
      <trkpt lat="45.93975" lon="4.61455">
        <ele>453</ele>
        <time>2018-11-02T10:53:35Z</time>
      </trkpt>
      <trkpt lat="45.93977" lon="4.61453">
        <ele>453</ele>
        <time>2018-11-02T10:53:36Z</time>
      </trkpt>
      <trkpt lat="45.93983" lon="4.61448">
        <ele>454</ele>
        <time>2018-11-02T10:53:40Z</time>
      </trkpt>
      <trkpt lat="45.93984" lon="4.61446">
        <ele>454</ele>
        <time>2018-11-02T10:53:41Z</time>
      </trkpt>
      <trkpt lat="45.93986" lon="4.61436">
        <ele>454</ele>
        <time>2018-11-02T10:53:45Z</time>
      </trkpt>
      <trkpt lat="45.93987" lon="4.61433">
        <ele>454</ele>
        <time>2018-11-02T10:53:46Z</time>
      </trkpt>
      <trkpt lat="45.93989" lon="4.61421">
        <ele>455</ele>
        <time>2018-11-02T10:53:50Z</time>
      </trkpt>
      <trkpt lat="45.93989" lon="4.61418">
        <ele>455</ele>
        <time>2018-11-02T10:53:51Z</time>
      </trkpt>
      <trkpt lat="45.93993" lon="4.61408">
        <ele>455</ele>
        <time>2018-11-02T10:53:55Z</time>
      </trkpt>
      <trkpt lat="45.93995" lon="4.61405">
        <ele>455</ele>
        <time>2018-11-02T10:53:56Z</time>
      </trkpt>
      <trkpt lat="45.93999" lon="4.61396">
        <ele>454</ele>
        <time>2018-11-02T10:54:00Z</time>
      </trkpt>
      <trkpt lat="45.94" lon="4.61393">
        <ele>454</ele>
        <time>2018-11-02T10:54:01Z</time>
      </trkpt>
      <trkpt lat="45.94004" lon="4.61384">
        <ele>460</ele>
        <time>2018-11-02T10:54:05Z</time>
      </trkpt>
      <trkpt lat="45.94006" lon="4.61382">
        <ele>460</ele>
        <time>2018-11-02T10:54:06Z</time>
      </trkpt>
      <trkpt lat="45.9401" lon="4.61373">
        <ele>460</ele>
        <time>2018-11-02T10:54:10Z</time>
      </trkpt>
      <trkpt lat="45.94011" lon="4.61371">
        <ele>460</ele>
        <time>2018-11-02T10:54:11Z</time>
      </trkpt>
      <trkpt lat="45.94016" lon="4.61362">
        <ele>460</ele>
        <time>2018-11-02T10:54:15Z</time>
      </trkpt>
      <trkpt lat="45.94017" lon="4.6136">
        <ele>460</ele>
        <time>2018-11-02T10:54:16Z</time>
      </trkpt>
      <trkpt lat="45.94021" lon="4.6135">
        <ele>460</ele>
        <time>2018-11-02T10:54:20Z</time>
      </trkpt>
      <trkpt lat="45.94022" lon="4.61348">
        <ele>460</ele>
        <time>2018-11-02T10:54:21Z</time>
      </trkpt>
      <trkpt lat="45.94027" lon="4.61339">
        <ele>460</ele>
        <time>2018-11-02T10:54:25Z</time>
      </trkpt>
      <trkpt lat="45.94029" lon="4.61337">
        <ele>461</ele>
        <time>2018-11-02T10:54:26Z</time>
      </trkpt>
      <trkpt lat="45.94034" lon="4.61328">
        <ele>462</ele>
        <time>2018-11-02T10:54:30Z</time>
      </trkpt>
      <trkpt lat="45.94035" lon="4.61325">
        <ele>462</ele>
        <time>2018-11-02T10:54:31Z</time>
      </trkpt>
      <trkpt lat="45.94037" lon="4.61315">
        <ele>462</ele>
        <time>2018-11-02T10:54:35Z</time>
      </trkpt>
      <trkpt lat="45.94038" lon="4.61312">
        <ele>462</ele>
        <time>2018-11-02T10:54:36Z</time>
      </trkpt>
      <trkpt lat="45.94041" lon="4.61301">
        <ele>463</ele>
        <time>2018-11-02T10:54:40Z</time>
      </trkpt>
      <trkpt lat="45.94042" lon="4.61298">
        <ele>463</ele>
        <time>2018-11-02T10:54:41Z</time>
      </trkpt>
      <trkpt lat="45.94045" lon="4.61289">
        <ele>463</ele>
        <time>2018-11-02T10:54:45Z</time>
      </trkpt>
      <trkpt lat="45.94046" lon="4.61286">
        <ele>463</ele>
        <time>2018-11-02T10:54:46Z</time>
      </trkpt>
      <trkpt lat="45.94048" lon="4.61274">
        <ele>463</ele>
        <time>2018-11-02T10:54:50Z</time>
      </trkpt>
      <trkpt lat="45.94049" lon="4.61271">
        <ele>464</ele>
        <time>2018-11-02T10:54:51Z</time>
      </trkpt>
      <trkpt lat="45.9405" lon="4.61259">
        <ele>464</ele>
        <time>2018-11-02T10:54:55Z</time>
      </trkpt>
      <trkpt lat="45.9405" lon="4.61256">
        <ele>464</ele>
        <time>2018-11-02T10:54:56Z</time>
      </trkpt>
      <trkpt lat="45.94049" lon="4.61245">
        <ele>465</ele>
        <time>2018-11-02T10:55:00Z</time>
      </trkpt>
      <trkpt lat="45.94049" lon="4.61242">
        <ele>465</ele>
        <time>2018-11-02T10:55:01Z</time>
      </trkpt>
      <trkpt lat="45.94046" lon="4.6123">
        <ele>465</ele>
        <time>2018-11-02T10:55:05Z</time>
      </trkpt>
      <trkpt lat="45.94046" lon="4.61227">
        <ele>465</ele>
        <time>2018-11-02T10:55:06Z</time>
      </trkpt>
      <trkpt lat="45.94044" lon="4.61216">
        <ele>465</ele>
        <time>2018-11-02T10:55:10Z</time>
      </trkpt>
      <trkpt lat="45.94044" lon="4.61214">
        <ele>465</ele>
        <time>2018-11-02T10:55:11Z</time>
      </trkpt>
      <trkpt lat="45.94042" lon="4.61203">
        <ele>465</ele>
        <time>2018-11-02T10:55:15Z</time>
      </trkpt>
      <trkpt lat="45.94041" lon="4.61201">
        <ele>465</ele>
        <time>2018-11-02T10:55:16Z</time>
      </trkpt>
      <trkpt lat="45.94039" lon="4.6119">
        <ele>465</ele>
        <time>2018-11-02T10:55:20Z</time>
      </trkpt>
      <trkpt lat="45.94039" lon="4.61187">
        <ele>465</ele>
        <time>2018-11-02T10:55:21Z</time>
      </trkpt>
      <trkpt lat="45.94036" lon="4.61176">
        <ele>465</ele>
        <time>2018-11-02T10:55:25Z</time>
      </trkpt>
      <trkpt lat="45.94035" lon="4.61173">
        <ele>465</ele>
        <time>2018-11-02T10:55:26Z</time>
      </trkpt>
      <trkpt lat="45.94033" lon="4.61161">
        <ele>466</ele>
        <time>2018-11-02T10:55:30Z</time>
      </trkpt>
      <trkpt lat="45.94033" lon="4.61158">
        <ele>466</ele>
        <time>2018-11-02T10:55:31Z</time>
      </trkpt>
      <trkpt lat="45.94033" lon="4.61146">
        <ele>467</ele>
        <time>2018-11-02T10:55:35Z</time>
      </trkpt>
      <trkpt lat="45.94033" lon="4.61143">
        <ele>467</ele>
        <time>2018-11-02T10:55:36Z</time>
      </trkpt>
      <trkpt lat="45.94032" lon="4.61131">
        <ele>467</ele>
        <time>2018-11-02T10:55:40Z</time>
      </trkpt>
      <trkpt lat="45.94031" lon="4.61129">
        <ele>467</ele>
        <time>2018-11-02T10:55:41Z</time>
      </trkpt>
      <trkpt lat="45.9403" lon="4.61118">
        <ele>467</ele>
        <time>2018-11-02T10:55:45Z</time>
      </trkpt>
      <trkpt lat="45.94029" lon="4.61115">
        <ele>467</ele>
        <time>2018-11-02T10:55:46Z</time>
      </trkpt>
      <trkpt lat="45.94028" lon="4.61104">
        <ele>467</ele>
        <time>2018-11-02T10:55:50Z</time>
      </trkpt>
      <trkpt lat="45.94028" lon="4.61101">
        <ele>467</ele>
        <time>2018-11-02T10:55:51Z</time>
      </trkpt>
      <trkpt lat="45.94026" lon="4.6109">
        <ele>467</ele>
        <time>2018-11-02T10:55:55Z</time>
      </trkpt>
      <trkpt lat="45.94025" lon="4.61087">
        <ele>467</ele>
        <time>2018-11-02T10:55:56Z</time>
      </trkpt>
      <trkpt lat="45.94024" lon="4.61075">
        <ele>467</ele>
        <time>2018-11-02T10:56:00Z</time>
      </trkpt>
      <trkpt lat="45.94024" lon="4.61072">
        <ele>467</ele>
        <time>2018-11-02T10:56:01Z</time>
      </trkpt>
      <trkpt lat="45.94027" lon="4.6106">
        <ele>467</ele>
        <time>2018-11-02T10:56:05Z</time>
      </trkpt>
      <trkpt lat="45.94027" lon="4.61058">
        <ele>467</ele>
        <time>2018-11-02T10:56:06Z</time>
      </trkpt>
      <trkpt lat="45.94032" lon="4.61048">
        <ele>468</ele>
        <time>2018-11-02T10:56:10Z</time>
      </trkpt>
      <trkpt lat="45.94032" lon="4.61046">
        <ele>468</ele>
        <time>2018-11-02T10:56:11Z</time>
      </trkpt>
      <trkpt lat="45.94036" lon="4.61035">
        <ele>468</ele>
        <time>2018-11-02T10:56:15Z</time>
      </trkpt>
      <trkpt lat="45.94037" lon="4.61033">
        <ele>468</ele>
        <time>2018-11-02T10:56:16Z</time>
      </trkpt>
      <trkpt lat="45.94042" lon="4.61025">
        <ele>468</ele>
        <time>2018-11-02T10:56:20Z</time>
      </trkpt>
      <trkpt lat="45.94044" lon="4.61023">
        <ele>469</ele>
        <time>2018-11-02T10:56:21Z</time>
      </trkpt>
      <trkpt lat="45.9405" lon="4.61014">
        <ele>469</ele>
        <time>2018-11-02T10:56:26Z</time>
      </trkpt>
      <trkpt lat="45.94052" lon="4.61012">
        <ele>470</ele>
        <time>2018-11-02T10:56:27Z</time>
      </trkpt>
      <trkpt lat="45.94057" lon="4.61006">
        <ele>471</ele>
        <time>2018-11-02T10:56:31Z</time>
      </trkpt>
      <trkpt lat="45.94058" lon="4.61004">
        <ele>471</ele>
        <time>2018-11-02T10:56:32Z</time>
      </trkpt>
      <trkpt lat="45.94064" lon="4.60995">
        <ele>469</ele>
        <time>2018-11-02T10:56:37Z</time>
      </trkpt>
      <trkpt lat="45.94065" lon="4.60993">
        <ele>470</ele>
        <time>2018-11-02T10:56:38Z</time>
      </trkpt>
      <trkpt lat="45.9407" lon="4.60985">
        <ele>470</ele>
        <time>2018-11-02T10:56:42Z</time>
      </trkpt>
      <trkpt lat="45.94072" lon="4.60983">
        <ele>470</ele>
        <time>2018-11-02T10:56:43Z</time>
      </trkpt>
      <trkpt lat="45.94077" lon="4.60976">
        <ele>469</ele>
        <time>2018-11-02T10:56:47Z</time>
      </trkpt>
      <trkpt lat="45.94078" lon="4.60974">
        <ele>469</ele>
        <time>2018-11-02T10:56:48Z</time>
      </trkpt>
      <trkpt lat="45.94084" lon="4.60966">
        <ele>479</ele>
        <time>2018-11-02T10:56:52Z</time>
      </trkpt>
      <trkpt lat="45.94086" lon="4.60964">
        <ele>479</ele>
        <time>2018-11-02T10:56:53Z</time>
      </trkpt>
      <trkpt lat="45.94091" lon="4.60957">
        <ele>479</ele>
        <time>2018-11-02T10:56:57Z</time>
      </trkpt>
      <trkpt lat="45.94092" lon="4.60955">
        <ele>478</ele>
        <time>2018-11-02T10:56:58Z</time>
      </trkpt>
      <trkpt lat="45.94098" lon="4.60947">
        <ele>478</ele>
        <time>2018-11-02T10:57:02Z</time>
      </trkpt>
      <trkpt lat="45.941" lon="4.60945">
        <ele>478</ele>
        <time>2018-11-02T10:57:03Z</time>
      </trkpt>
      <trkpt lat="45.94104" lon="4.60936">
        <ele>478</ele>
        <time>2018-11-02T10:57:07Z</time>
      </trkpt>
      <trkpt lat="45.94105" lon="4.60934">
        <ele>478</ele>
        <time>2018-11-02T10:57:08Z</time>
      </trkpt>
      <trkpt lat="45.94111" lon="4.60925">
        <ele>478</ele>
        <time>2018-11-02T10:57:13Z</time>
      </trkpt>
      <trkpt lat="45.94113" lon="4.60923">
        <ele>479</ele>
        <time>2018-11-02T10:57:14Z</time>
      </trkpt>
      <trkpt lat="45.94119" lon="4.60916">
        <ele>477</ele>
        <time>2018-11-02T10:57:18Z</time>
      </trkpt>
      <trkpt lat="45.94121" lon="4.60914">
        <ele>477</ele>
        <time>2018-11-02T10:57:19Z</time>
      </trkpt>
      <trkpt lat="45.94128" lon="4.60908">
        <ele>478</ele>
        <time>2018-11-02T10:57:23Z</time>
      </trkpt>
      <trkpt lat="45.9413" lon="4.60906">
        <ele>478</ele>
        <time>2018-11-02T10:57:24Z</time>
      </trkpt>
      <trkpt lat="45.94135" lon="4.60899">
        <ele>479</ele>
        <time>2018-11-02T10:57:28Z</time>
      </trkpt>
      <trkpt lat="45.94137" lon="4.60897">
        <ele>479</ele>
        <time>2018-11-02T10:57:29Z</time>
      </trkpt>
      <trkpt lat="45.94142" lon="4.6089">
        <ele>479</ele>
        <time>2018-11-02T10:57:33Z</time>
      </trkpt>
      <trkpt lat="45.94143" lon="4.60888">
        <ele>479</ele>
        <time>2018-11-02T10:57:34Z</time>
      </trkpt>
      <trkpt lat="45.94149" lon="4.6088">
        <ele>479</ele>
        <time>2018-11-02T10:57:38Z</time>
      </trkpt>
      <trkpt lat="45.9415" lon="4.60878">
        <ele>479</ele>
        <time>2018-11-02T10:57:39Z</time>
      </trkpt>
      <trkpt lat="45.94157" lon="4.60871">
        <ele>479</ele>
        <time>2018-11-02T10:57:43Z</time>
      </trkpt>
      <trkpt lat="45.94158" lon="4.6087">
        <ele>479</ele>
        <time>2018-11-02T10:57:44Z</time>
      </trkpt>
      <trkpt lat="45.94164" lon="4.60863">
        <ele>479</ele>
        <time>2018-11-02T10:57:49Z</time>
      </trkpt>
      <trkpt lat="45.94166" lon="4.60861">
        <ele>480</ele>
        <time>2018-11-02T10:57:50Z</time>
      </trkpt>
      <trkpt lat="45.94172" lon="4.60854">
        <ele>487</ele>
        <time>2018-11-02T10:57:54Z</time>
      </trkpt>
      <trkpt lat="45.94173" lon="4.60853">
        <ele>487</ele>
        <time>2018-11-02T10:57:55Z</time>
      </trkpt>
      <trkpt lat="45.94179" lon="4.60845">
        <ele>487</ele>
        <time>2018-11-02T10:57:59Z</time>
      </trkpt>
      <trkpt lat="45.9418" lon="4.60843">
        <ele>487</ele>
        <time>2018-11-02T10:58:00Z</time>
      </trkpt>
      <trkpt lat="45.94186" lon="4.60836">
        <ele>487</ele>
        <time>2018-11-02T10:58:04Z</time>
      </trkpt>
      <trkpt lat="45.94187" lon="4.60834">
        <ele>488</ele>
        <time>2018-11-02T10:58:05Z</time>
      </trkpt>
      <trkpt lat="45.94193" lon="4.60827">
        <ele>485</ele>
        <time>2018-11-02T10:58:09Z</time>
      </trkpt>
      <trkpt lat="45.94195" lon="4.60826">
        <ele>486</ele>
        <time>2018-11-02T10:58:10Z</time>
      </trkpt>
      <trkpt lat="45.94201" lon="4.60819">
        <ele>486</ele>
        <time>2018-11-02T10:58:14Z</time>
      </trkpt>
      <trkpt lat="45.94202" lon="4.60818">
        <ele>486</ele>
        <time>2018-11-02T10:58:15Z</time>
      </trkpt>
      <trkpt lat="45.94209" lon="4.6081">
        <ele>487</ele>
        <time>2018-11-02T10:58:20Z</time>
      </trkpt>
      <trkpt lat="45.9421" lon="4.60807">
        <ele>487</ele>
        <time>2018-11-02T10:58:21Z</time>
      </trkpt>
      <trkpt lat="45.94216" lon="4.60798">
        <ele>487</ele>
        <time>2018-11-02T10:58:25Z</time>
      </trkpt>
      <trkpt lat="45.94217" lon="4.60796">
        <ele>487</ele>
        <time>2018-11-02T10:58:26Z</time>
      </trkpt>
      <trkpt lat="45.94224" lon="4.60788">
        <ele>488</ele>
        <time>2018-11-02T10:58:30Z</time>
      </trkpt>
      <trkpt lat="45.94226" lon="4.60786">
        <ele>488</ele>
        <time>2018-11-02T10:58:31Z</time>
      </trkpt>
      <trkpt lat="45.94231" lon="4.60779">
        <ele>488</ele>
        <time>2018-11-02T10:58:35Z</time>
      </trkpt>
      <trkpt lat="45.94233" lon="4.60777">
        <ele>488</ele>
        <time>2018-11-02T10:58:36Z</time>
      </trkpt>
      <trkpt lat="45.9424" lon="4.6077">
        <ele>489</ele>
        <time>2018-11-02T10:58:40Z</time>
      </trkpt>
      <trkpt lat="45.94242" lon="4.60769">
        <ele>489</ele>
        <time>2018-11-02T10:58:41Z</time>
      </trkpt>
      <trkpt lat="45.94248" lon="4.6076">
        <ele>490</ele>
        <time>2018-11-02T10:58:45Z</time>
      </trkpt>
      <trkpt lat="45.9425" lon="4.60758">
        <ele>490</ele>
        <time>2018-11-02T10:58:46Z</time>
      </trkpt>
      <trkpt lat="45.94255" lon="4.60751">
        <ele>494</ele>
        <time>2018-11-02T10:58:50Z</time>
      </trkpt>
      <trkpt lat="45.94257" lon="4.60749">
        <ele>492</ele>
        <time>2018-11-02T10:58:51Z</time>
      </trkpt>
      <trkpt lat="45.94263" lon="4.6074">
        <ele>493</ele>
        <time>2018-11-02T10:58:56Z</time>
      </trkpt>
      <trkpt lat="45.94264" lon="4.60739">
        <ele>493</ele>
        <time>2018-11-02T10:58:57Z</time>
      </trkpt>
      <trkpt lat="45.94271" lon="4.60731">
        <ele>493</ele>
        <time>2018-11-02T10:59:01Z</time>
      </trkpt>
      <trkpt lat="45.94272" lon="4.6073">
        <ele>493</ele>
        <time>2018-11-02T10:59:02Z</time>
      </trkpt>
      <trkpt lat="45.94278" lon="4.60723">
        <ele>493</ele>
        <time>2018-11-02T10:59:06Z</time>
      </trkpt>
      <trkpt lat="45.9428" lon="4.60721">
        <ele>493</ele>
        <time>2018-11-02T10:59:07Z</time>
      </trkpt>
      <trkpt lat="45.94285" lon="4.60714">
        <ele>493</ele>
        <time>2018-11-02T10:59:11Z</time>
      </trkpt>
      <trkpt lat="45.94287" lon="4.60712">
        <ele>494</ele>
        <time>2018-11-02T10:59:12Z</time>
      </trkpt>
      <trkpt lat="45.94293" lon="4.60704">
        <ele>494</ele>
        <time>2018-11-02T10:59:16Z</time>
      </trkpt>
      <trkpt lat="45.94295" lon="4.60703">
        <ele>494</ele>
        <time>2018-11-02T10:59:17Z</time>
      </trkpt>
      <trkpt lat="45.94301" lon="4.60697">
        <ele>494</ele>
        <time>2018-11-02T10:59:21Z</time>
      </trkpt>
      <trkpt lat="45.94303" lon="4.60695">
        <ele>494</ele>
        <time>2018-11-02T10:59:22Z</time>
      </trkpt>
      <trkpt lat="45.94309" lon="4.60687">
        <ele>495</ele>
        <time>2018-11-02T10:59:26Z</time>
      </trkpt>
      <trkpt lat="45.9431" lon="4.60685">
        <ele>495</ele>
        <time>2018-11-02T10:59:27Z</time>
      </trkpt>
      <trkpt lat="45.94316" lon="4.60678">
        <ele>496</ele>
        <time>2018-11-02T10:59:31Z</time>
      </trkpt>
      <trkpt lat="45.94318" lon="4.60676">
        <ele>496</ele>
        <time>2018-11-02T10:59:32Z</time>
      </trkpt>
      <trkpt lat="45.94324" lon="4.60669">
        <ele>497</ele>
        <time>2018-11-02T10:59:36Z</time>
      </trkpt>
      <trkpt lat="45.94326" lon="4.60667">
        <ele>497</ele>
        <time>2018-11-02T10:59:37Z</time>
      </trkpt>
      <trkpt lat="45.94331" lon="4.60658">
        <ele>493</ele>
        <time>2018-11-02T10:59:41Z</time>
      </trkpt>
      <trkpt lat="45.94332" lon="4.60656">
        <ele>493</ele>
        <time>2018-11-02T10:59:42Z</time>
      </trkpt>
      <trkpt lat="45.94337" lon="4.60649">
        <ele>498</ele>
        <time>2018-11-02T10:59:46Z</time>
      </trkpt>
      <trkpt lat="45.94339" lon="4.60648">
        <ele>498</ele>
        <time>2018-11-02T10:59:47Z</time>
      </trkpt>
      <trkpt lat="45.94345" lon="4.60642">
        <ele>498</ele>
        <time>2018-11-02T10:59:51Z</time>
      </trkpt>
      <trkpt lat="45.94347" lon="4.6064">
        <ele>498</ele>
        <time>2018-11-02T10:59:52Z</time>
      </trkpt>
      <trkpt lat="45.94353" lon="4.60635">
        <ele>497</ele>
        <time>2018-11-02T10:59:56Z</time>
      </trkpt>
      <trkpt lat="45.94354" lon="4.60633">
        <ele>497</ele>
        <time>2018-11-02T10:59:57Z</time>
      </trkpt>
      <trkpt lat="45.94361" lon="4.60625">
        <ele>497</ele>
        <time>2018-11-02T11:00:01Z</time>
      </trkpt>
      <trkpt lat="45.94362" lon="4.60623">
        <ele>497</ele>
        <time>2018-11-02T11:00:02Z</time>
      </trkpt>
      <trkpt lat="45.94369" lon="4.60617">
        <ele>497</ele>
        <time>2018-11-02T11:00:06Z</time>
      </trkpt>
      <trkpt lat="45.94371" lon="4.60616">
        <ele>497</ele>
        <time>2018-11-02T11:00:07Z</time>
      </trkpt>
      <trkpt lat="45.94378" lon="4.60609">
        <ele>497</ele>
        <time>2018-11-02T11:00:11Z</time>
      </trkpt>
      <trkpt lat="45.9438" lon="4.60608">
        <ele>498</ele>
        <time>2018-11-02T11:00:12Z</time>
      </trkpt>
      <trkpt lat="45.94388" lon="4.60602">
        <ele>498</ele>
        <time>2018-11-02T11:00:16Z</time>
      </trkpt>
      <trkpt lat="45.9439" lon="4.60601">
        <ele>498</ele>
        <time>2018-11-02T11:00:17Z</time>
      </trkpt>
      <trkpt lat="45.94397" lon="4.60595">
        <ele>499</ele>
        <time>2018-11-02T11:00:21Z</time>
      </trkpt>
      <trkpt lat="45.94398" lon="4.60594">
        <ele>499</ele>
        <time>2018-11-02T11:00:22Z</time>
      </trkpt>
      <trkpt lat="45.94405" lon="4.60587">
        <ele>500</ele>
        <time>2018-11-02T11:00:26Z</time>
      </trkpt>
      <trkpt lat="45.94407" lon="4.60585">
        <ele>500</ele>
        <time>2018-11-02T11:00:27Z</time>
      </trkpt>
      <trkpt lat="45.94414" lon="4.60579">
        <ele>498</ele>
        <time>2018-11-02T11:00:31Z</time>
      </trkpt>
      <trkpt lat="45.94416" lon="4.60578">
        <ele>498</ele>
        <time>2018-11-02T11:00:32Z</time>
      </trkpt>
      <trkpt lat="45.94423" lon="4.60573">
        <ele>501</ele>
        <time>2018-11-02T11:00:36Z</time>
      </trkpt>
      <trkpt lat="45.94425" lon="4.60571">
        <ele>501</ele>
        <time>2018-11-02T11:00:37Z</time>
      </trkpt>
      <trkpt lat="45.94432" lon="4.60564">
        <ele>501</ele>
        <time>2018-11-02T11:00:41Z</time>
      </trkpt>
      <trkpt lat="45.94433" lon="4.60563">
        <ele>501</ele>
        <time>2018-11-02T11:00:42Z</time>
      </trkpt>
      <trkpt lat="45.9444" lon="4.60556">
        <ele>501</ele>
        <time>2018-11-02T11:00:46Z</time>
      </trkpt>
      <trkpt lat="45.94441" lon="4.60555">
        <ele>501</ele>
        <time>2018-11-02T11:00:47Z</time>
      </trkpt>
      <trkpt lat="45.94448" lon="4.60549">
        <ele>502</ele>
        <time>2018-11-02T11:00:51Z</time>
      </trkpt>
      <trkpt lat="45.9445" lon="4.60548">
        <ele>502</ele>
        <time>2018-11-02T11:00:52Z</time>
      </trkpt>
      <trkpt lat="45.94458" lon="4.60542">
        <ele>502</ele>
        <time>2018-11-02T11:00:56Z</time>
      </trkpt>
      <trkpt lat="45.94459" lon="4.6054">
        <ele>502</ele>
        <time>2018-11-02T11:00:57Z</time>
      </trkpt>
      <trkpt lat="45.94466" lon="4.60533">
        <ele>502</ele>
        <time>2018-11-02T11:01:01Z</time>
      </trkpt>
      <trkpt lat="45.94468" lon="4.60531">
        <ele>502</ele>
        <time>2018-11-02T11:01:02Z</time>
      </trkpt>
      <trkpt lat="45.94476" lon="4.60526">
        <ele>503</ele>
        <time>2018-11-02T11:01:06Z</time>
      </trkpt>
      <trkpt lat="45.94477" lon="4.60525">
        <ele>503</ele>
        <time>2018-11-02T11:01:07Z</time>
      </trkpt>
      <trkpt lat="45.94485" lon="4.60518">
        <ele>504</ele>
        <time>2018-11-02T11:01:11Z</time>
      </trkpt>
      <trkpt lat="45.94486" lon="4.60516">
        <ele>504</ele>
        <time>2018-11-02T11:01:12Z</time>
      </trkpt>
      <trkpt lat="45.94493" lon="4.6051">
        <ele>504</ele>
        <time>2018-11-02T11:01:16Z</time>
      </trkpt>
      <trkpt lat="45.94495" lon="4.60509">
        <ele>505</ele>
        <time>2018-11-02T11:01:17Z</time>
      </trkpt>
      <trkpt lat="45.94502" lon="4.60502">
        <ele>507</ele>
        <time>2018-11-02T11:01:21Z</time>
      </trkpt>
      <trkpt lat="45.94504" lon="4.605">
        <ele>507</ele>
        <time>2018-11-02T11:01:22Z</time>
      </trkpt>
      <trkpt lat="45.94511" lon="4.60494">
        <ele>506</ele>
        <time>2018-11-02T11:01:26Z</time>
      </trkpt>
      <trkpt lat="45.94513" lon="4.60492">
        <ele>506</ele>
        <time>2018-11-02T11:01:27Z</time>
      </trkpt>
      <trkpt lat="45.94519" lon="4.60486">
        <ele>507</ele>
        <time>2018-11-02T11:01:30Z</time>
      </trkpt>
      <trkpt lat="45.94521" lon="4.60484">
        <ele>507</ele>
        <time>2018-11-02T11:01:31Z</time>
      </trkpt>
      <trkpt lat="45.94527" lon="4.60479">
        <ele>507</ele>
        <time>2018-11-02T11:01:35Z</time>
      </trkpt>
      <trkpt lat="45.94529" lon="4.60477">
        <ele>507</ele>
        <time>2018-11-02T11:01:36Z</time>
      </trkpt>
      <trkpt lat="45.94536" lon="4.60468">
        <ele>507</ele>
        <time>2018-11-02T11:01:40Z</time>
      </trkpt>
      <trkpt lat="45.94538" lon="4.60466">
        <ele>507</ele>
        <time>2018-11-02T11:01:41Z</time>
      </trkpt>
      <trkpt lat="45.94544" lon="4.60459">
        <ele>507</ele>
        <time>2018-11-02T11:01:45Z</time>
      </trkpt>
      <trkpt lat="45.94546" lon="4.60458">
        <ele>507</ele>
        <time>2018-11-02T11:01:46Z</time>
      </trkpt>
      <trkpt lat="45.94554" lon="4.60452">
        <ele>508</ele>
        <time>2018-11-02T11:01:50Z</time>
      </trkpt>
      <trkpt lat="45.94556" lon="4.60451">
        <ele>508</ele>
        <time>2018-11-02T11:01:51Z</time>
      </trkpt>
      <trkpt lat="45.94564" lon="4.60448">
        <ele>509</ele>
        <time>2018-11-02T11:01:55Z</time>
      </trkpt>
      <trkpt lat="45.94566" lon="4.60447">
        <ele>509</ele>
        <time>2018-11-02T11:01:56Z</time>
      </trkpt>
      <trkpt lat="45.94574" lon="4.60441">
        <ele>509</ele>
        <time>2018-11-02T11:02:00Z</time>
      </trkpt>
      <trkpt lat="45.94576" lon="4.60439">
        <ele>509</ele>
        <time>2018-11-02T11:02:01Z</time>
      </trkpt>
      <trkpt lat="45.94583" lon="4.60434">
        <ele>510</ele>
        <time>2018-11-02T11:02:05Z</time>
      </trkpt>
      <trkpt lat="45.94585" lon="4.60433">
        <ele>516</ele>
        <time>2018-11-02T11:02:06Z</time>
      </trkpt>
      <trkpt lat="45.94593" lon="4.60426">
        <ele>516</ele>
        <time>2018-11-02T11:02:10Z</time>
      </trkpt>
      <trkpt lat="45.94595" lon="4.60424">
        <ele>516</ele>
        <time>2018-11-02T11:02:11Z</time>
      </trkpt>
      <trkpt lat="45.946" lon="4.60417">
        <ele>517</ele>
        <time>2018-11-02T11:02:14Z</time>
      </trkpt>
      <trkpt lat="45.94602" lon="4.60415">
        <ele>513</ele>
        <time>2018-11-02T11:02:15Z</time>
      </trkpt>
      <trkpt lat="45.94607" lon="4.60408">
        <ele>513</ele>
        <time>2018-11-02T11:02:18Z</time>
      </trkpt>
      <trkpt lat="45.94609" lon="4.60406">
        <ele>513</ele>
        <time>2018-11-02T11:02:19Z</time>
      </trkpt>
      <trkpt lat="45.94615" lon="4.60399">
        <ele>513</ele>
        <time>2018-11-02T11:02:22Z</time>
      </trkpt>
      <trkpt lat="45.94617" lon="4.60396">
        <ele>514</ele>
        <time>2018-11-02T11:02:23Z</time>
      </trkpt>
      <trkpt lat="45.94622" lon="4.60389">
        <ele>514</ele>
        <time>2018-11-02T11:02:26Z</time>
      </trkpt>
      <trkpt lat="45.94624" lon="4.60387">
        <ele>514</ele>
        <time>2018-11-02T11:02:27Z</time>
      </trkpt>
      <trkpt lat="45.94629" lon="4.60378">
        <ele>514</ele>
        <time>2018-11-02T11:02:30Z</time>
      </trkpt>
      <trkpt lat="45.94631" lon="4.60375">
        <ele>514</ele>
        <time>2018-11-02T11:02:31Z</time>
      </trkpt>
      <trkpt lat="45.94636" lon="4.60368">
        <ele>513</ele>
        <time>2018-11-02T11:02:34Z</time>
      </trkpt>
      <trkpt lat="45.94638" lon="4.60365">
        <ele>514</ele>
        <time>2018-11-02T11:02:35Z</time>
      </trkpt>
      <trkpt lat="45.94643" lon="4.60359">
        <ele>514</ele>
        <time>2018-11-02T11:02:38Z</time>
      </trkpt>
      <trkpt lat="45.94645" lon="4.60356">
        <ele>514</ele>
        <time>2018-11-02T11:02:39Z</time>
      </trkpt>
      <trkpt lat="45.94652" lon="4.6035">
        <ele>514</ele>
        <time>2018-11-02T11:02:42Z</time>
      </trkpt>
      <trkpt lat="45.94653" lon="4.60347">
        <ele>514</ele>
        <time>2018-11-02T11:02:43Z</time>
      </trkpt>
      <trkpt lat="45.94659" lon="4.6034">
        <ele>515</ele>
        <time>2018-11-02T11:02:46Z</time>
      </trkpt>
      <trkpt lat="45.9466" lon="4.60337">
        <ele>515</ele>
        <time>2018-11-02T11:02:47Z</time>
      </trkpt>
      <trkpt lat="45.94666" lon="4.6033">
        <ele>514</ele>
        <time>2018-11-02T11:02:50Z</time>
      </trkpt>
      <trkpt lat="45.94668" lon="4.60328">
        <ele>517</ele>
        <time>2018-11-02T11:02:51Z</time>
      </trkpt>
      <trkpt lat="45.94674" lon="4.6032">
        <ele>518</ele>
        <time>2018-11-02T11:02:54Z</time>
      </trkpt>
      <trkpt lat="45.94676" lon="4.60318">
        <ele>518</ele>
        <time>2018-11-02T11:02:55Z</time>
      </trkpt>
      <trkpt lat="45.94681" lon="4.60311">
        <ele>518</ele>
        <time>2018-11-02T11:02:58Z</time>
      </trkpt>
      <trkpt lat="45.94683" lon="4.60308">
        <ele>519</ele>
        <time>2018-11-02T11:02:59Z</time>
      </trkpt>
      <trkpt lat="45.94688" lon="4.60301">
        <ele>519</ele>
        <time>2018-11-02T11:03:02Z</time>
      </trkpt>
      <trkpt lat="45.94689" lon="4.60299">
        <ele>519</ele>
        <time>2018-11-02T11:03:03Z</time>
      </trkpt>
      <trkpt lat="45.94694" lon="4.60291">
        <ele>519</ele>
        <time>2018-11-02T11:03:06Z</time>
      </trkpt>
      <trkpt lat="45.94696" lon="4.60289">
        <ele>519</ele>
        <time>2018-11-02T11:03:07Z</time>
      </trkpt>
      <trkpt lat="45.94701" lon="4.60282">
        <ele>519</ele>
        <time>2018-11-02T11:03:10Z</time>
      </trkpt>
      <trkpt lat="45.94702" lon="4.6028">
        <ele>519</ele>
        <time>2018-11-02T11:03:11Z</time>
      </trkpt>
      <trkpt lat="45.94707" lon="4.60273">
        <ele>519</ele>
        <time>2018-11-02T11:03:14Z</time>
      </trkpt>
      <trkpt lat="45.94708" lon="4.6027">
        <ele>519</ele>
        <time>2018-11-02T11:03:15Z</time>
      </trkpt>
      <trkpt lat="45.94712" lon="4.60261">
        <ele>520</ele>
        <time>2018-11-02T11:03:18Z</time>
      </trkpt>
      <trkpt lat="45.94713" lon="4.60258">
        <ele>520</ele>
        <time>2018-11-02T11:03:19Z</time>
      </trkpt>
      <trkpt lat="45.94716" lon="4.60249">
        <ele>517</ele>
        <time>2018-11-02T11:03:22Z</time>
      </trkpt>
      <trkpt lat="45.94718" lon="4.60246">
        <ele>517</ele>
        <time>2018-11-02T11:03:23Z</time>
      </trkpt>
      <trkpt lat="45.94721" lon="4.60237">
        <ele>518</ele>
        <time>2018-11-02T11:03:26Z</time>
      </trkpt>
      <trkpt lat="45.94722" lon="4.60234">
        <ele>518</ele>
        <time>2018-11-02T11:03:27Z</time>
      </trkpt>
      <trkpt lat="45.94727" lon="4.60223">
        <ele>518</ele>
        <time>2018-11-02T11:03:31Z</time>
      </trkpt>
      <trkpt lat="45.94728" lon="4.60221">
        <ele>518</ele>
        <time>2018-11-02T11:03:32Z</time>
      </trkpt>
      <trkpt lat="45.9473" lon="4.60212">
        <ele>518</ele>
        <time>2018-11-02T11:03:35Z</time>
      </trkpt>
      <trkpt lat="45.94731" lon="4.60209">
        <ele>518</ele>
        <time>2018-11-02T11:03:36Z</time>
      </trkpt>
      <trkpt lat="45.94735" lon="4.60197">
        <ele>518</ele>
        <time>2018-11-02T11:03:40Z</time>
      </trkpt>
      <trkpt lat="45.94737" lon="4.60194">
        <ele>518</ele>
        <time>2018-11-02T11:03:41Z</time>
      </trkpt>
      <trkpt lat="45.94741" lon="4.60183">
        <ele>519</ele>
        <time>2018-11-02T11:03:45Z</time>
      </trkpt>
      <trkpt lat="45.94743" lon="4.6018">
        <ele>520</ele>
        <time>2018-11-02T11:03:46Z</time>
      </trkpt>
      <trkpt lat="45.94746" lon="4.60171">
        <ele>522</ele>
        <time>2018-11-02T11:03:49Z</time>
      </trkpt>
      <trkpt lat="45.94747" lon="4.60168">
        <ele>523</ele>
        <time>2018-11-02T11:03:50Z</time>
      </trkpt>
      <trkpt lat="45.94751" lon="4.60158">
        <ele>525</ele>
        <time>2018-11-02T11:03:53Z</time>
      </trkpt>
      <trkpt lat="45.94752" lon="4.60154">
        <ele>525</ele>
        <time>2018-11-02T11:03:54Z</time>
      </trkpt>
      <trkpt lat="45.94757" lon="4.60144">
        <ele>525</ele>
        <time>2018-11-02T11:03:57Z</time>
      </trkpt>
      <trkpt lat="45.94758" lon="4.60141">
        <ele>525</ele>
        <time>2018-11-02T11:03:58Z</time>
      </trkpt>
      <trkpt lat="45.94763" lon="4.60131">
        <ele>526</ele>
        <time>2018-11-02T11:04:01Z</time>
      </trkpt>
      <trkpt lat="45.94765" lon="4.60127">
        <ele>525</ele>
        <time>2018-11-02T11:04:02Z</time>
      </trkpt>
      <trkpt lat="45.9477" lon="4.60116">
        <ele>525</ele>
        <time>2018-11-02T11:04:05Z</time>
      </trkpt>
      <trkpt lat="45.94771" lon="4.60113">
        <ele>525</ele>
        <time>2018-11-02T11:04:06Z</time>
      </trkpt>
      <trkpt lat="45.94776" lon="4.60103">
        <ele>525</ele>
        <time>2018-11-02T11:04:09Z</time>
      </trkpt>
      <trkpt lat="45.94778" lon="4.601">
        <ele>525</ele>
        <time>2018-11-02T11:04:10Z</time>
      </trkpt>
      <trkpt lat="45.94782" lon="4.6009">
        <ele>525</ele>
        <time>2018-11-02T11:04:13Z</time>
      </trkpt>
      <trkpt lat="45.94784" lon="4.60086">
        <ele>525</ele>
        <time>2018-11-02T11:04:14Z</time>
      </trkpt>
      <trkpt lat="45.94786" lon="4.60082">
        <ele>523</ele>
        <time>2018-11-02T11:04:15Z</time>
      </trkpt>
      <trkpt lat="45.94789" lon="4.60074">
        <ele>523</ele>
        <time>2018-11-02T11:04:16Z</time>
      </trkpt>
      <trkpt lat="45.94793" lon="4.60066">
        <ele>524</ele>
        <time>2018-11-02T11:04:19Z</time>
      </trkpt>
      <trkpt lat="45.94795" lon="4.60063">
        <ele>524</ele>
        <time>2018-11-02T11:04:20Z</time>
      </trkpt>
      <trkpt lat="45.94799" lon="4.60053">
        <ele>524</ele>
        <time>2018-11-02T11:04:23Z</time>
      </trkpt>
      <trkpt lat="45.94801" lon="4.60049">
        <ele>524</ele>
        <time>2018-11-02T11:04:24Z</time>
      </trkpt>
      <trkpt lat="45.94804" lon="4.60041">
        <ele>524</ele>
        <time>2018-11-02T11:04:26Z</time>
      </trkpt>
      <trkpt lat="45.94808" lon="4.60033">
        <ele>524</ele>
        <time>2018-11-02T11:04:27Z</time>
      </trkpt>
      <trkpt lat="45.94811" lon="4.60024">
        <ele>525</ele>
        <time>2018-11-02T11:04:29Z</time>
      </trkpt>
      <trkpt lat="45.94813" lon="4.60019">
        <ele>525</ele>
        <time>2018-11-02T11:04:30Z</time>
      </trkpt>
      <trkpt lat="45.94818" lon="4.60009">
        <ele>526</ele>
        <time>2018-11-02T11:04:33Z</time>
      </trkpt>
      <trkpt lat="45.94819" lon="4.60005">
        <ele>526</ele>
        <time>2018-11-02T11:04:34Z</time>
      </trkpt>
      <trkpt lat="45.94824" lon="4.59995">
        <ele>525</ele>
        <time>2018-11-02T11:04:37Z</time>
      </trkpt>
      <trkpt lat="45.94825" lon="4.59991">
        <ele>525</ele>
        <time>2018-11-02T11:04:38Z</time>
      </trkpt>
      <trkpt lat="45.94828" lon="4.59983">
        <ele>524</ele>
        <time>2018-11-02T11:04:39Z</time>
      </trkpt>
      <trkpt lat="45.9483" lon="4.59978">
        <ele>523</ele>
        <time>2018-11-02T11:04:40Z</time>
      </trkpt>
      <trkpt lat="45.94833" lon="4.59968">
        <ele>522</ele>
        <time>2018-11-02T11:04:42Z</time>
      </trkpt>
      <trkpt lat="45.94835" lon="4.59962">
        <ele>530</ele>
        <time>2018-11-02T11:04:43Z</time>
      </trkpt>
      <trkpt lat="45.94839" lon="4.59951">
        <ele>530</ele>
        <time>2018-11-02T11:04:45Z</time>
      </trkpt>
      <trkpt lat="45.94841" lon="4.59946">
        <ele>529</ele>
        <time>2018-11-02T11:04:46Z</time>
      </trkpt>
      <trkpt lat="45.94845" lon="4.59936">
        <ele>529</ele>
        <time>2018-11-02T11:04:48Z</time>
      </trkpt>
      <trkpt lat="45.94845" lon="4.59933">
        <ele>528</ele>
        <time>2018-11-02T11:04:49Z</time>
      </trkpt>
      <trkpt lat="45.94849" lon="4.59922">
        <ele>528</ele>
        <time>2018-11-02T11:04:52Z</time>
      </trkpt>
      <trkpt lat="45.94852" lon="4.59913">
        <ele>527</ele>
        <time>2018-11-02T11:04:53Z</time>
      </trkpt>
      <trkpt lat="45.94854" lon="4.59902">
        <ele>527</ele>
        <time>2018-11-02T11:04:55Z</time>
      </trkpt>
      <trkpt lat="45.94856" lon="4.59896">
        <ele>527</ele>
        <time>2018-11-02T11:04:56Z</time>
      </trkpt>
      <trkpt lat="45.94859" lon="4.5989">
        <ele>527</ele>
        <time>2018-11-02T11:04:57Z</time>
      </trkpt>
      <trkpt lat="45.94861" lon="4.59883">
        <ele>528</ele>
        <time>2018-11-02T11:04:58Z</time>
      </trkpt>
      <trkpt lat="45.94863" lon="4.59877">
        <ele>528</ele>
        <time>2018-11-02T11:04:59Z</time>
      </trkpt>
      <trkpt lat="45.94865" lon="4.59871">
        <ele>528</ele>
        <time>2018-11-02T11:05:00Z</time>
      </trkpt>
      <trkpt lat="45.94868" lon="4.5986">
        <ele>528</ele>
        <time>2018-11-02T11:05:02Z</time>
      </trkpt>
      <trkpt lat="45.94869" lon="4.59853">
        <ele>527</ele>
        <time>2018-11-02T11:05:03Z</time>
      </trkpt>
      <trkpt lat="45.94871" lon="4.59843">
        <ele>528</ele>
        <time>2018-11-02T11:05:05Z</time>
      </trkpt>
      <trkpt lat="45.94872" lon="4.5984">
        <ele>528</ele>
        <time>2018-11-02T11:05:06Z</time>
      </trkpt>
      <trkpt lat="45.94875" lon="4.59828">
        <ele>526</ele>
        <time>2018-11-02T11:05:08Z</time>
      </trkpt>
      <trkpt lat="45.94875" lon="4.59822">
        <ele>526</ele>
        <time>2018-11-02T11:05:09Z</time>
      </trkpt>
      <trkpt lat="45.94877" lon="4.5981">
        <ele>526</ele>
        <time>2018-11-02T11:05:11Z</time>
      </trkpt>
      <trkpt lat="45.94878" lon="4.59804">
        <ele>526</ele>
        <time>2018-11-02T11:05:12Z</time>
      </trkpt>
      <trkpt lat="45.94879" lon="4.59796">
        <ele>526</ele>
        <time>2018-11-02T11:05:13Z</time>
      </trkpt>
      <trkpt lat="45.9488" lon="4.59788">
        <ele>526</ele>
        <time>2018-11-02T11:05:14Z</time>
      </trkpt>
      <trkpt lat="45.94881" lon="4.59781">
        <ele>526</ele>
        <time>2018-11-02T11:05:15Z</time>
      </trkpt>
      <trkpt lat="45.94882" lon="4.59773">
        <ele>526</ele>
        <time>2018-11-02T11:05:16Z</time>
      </trkpt>
      <trkpt lat="45.94883" lon="4.59766">
        <ele>526</ele>
        <time>2018-11-02T11:05:17Z</time>
      </trkpt>
      <trkpt lat="45.94883" lon="4.59759">
        <ele>526</ele>
        <time>2018-11-02T11:05:18Z</time>
      </trkpt>
      <trkpt lat="45.94884" lon="4.59747">
        <ele>526</ele>
        <time>2018-11-02T11:05:20Z</time>
      </trkpt>
      <trkpt lat="45.94885" lon="4.59741">
        <ele>526</ele>
        <time>2018-11-02T11:05:21Z</time>
      </trkpt>
      <trkpt lat="45.94886" lon="4.59729">
        <ele>526</ele>
        <time>2018-11-02T11:05:23Z</time>
      </trkpt>
      <trkpt lat="45.94886" lon="4.59724">
        <ele>526</ele>
        <time>2018-11-02T11:05:24Z</time>
      </trkpt>
      <trkpt lat="45.94886" lon="4.59713">
        <ele>526</ele>
        <time>2018-11-02T11:05:26Z</time>
      </trkpt>
      <trkpt lat="45.94885" lon="4.59707">
        <ele>526</ele>
        <time>2018-11-02T11:05:27Z</time>
      </trkpt>
      <trkpt lat="45.94884" lon="4.59695">
        <ele>526</ele>
        <time>2018-11-02T11:05:29Z</time>
      </trkpt>
      <trkpt lat="45.94883" lon="4.59689">
        <ele>526</ele>
        <time>2018-11-02T11:05:30Z</time>
      </trkpt>
      <trkpt lat="45.9488" lon="4.59678">
        <ele>526</ele>
        <time>2018-11-02T11:05:32Z</time>
      </trkpt>
      <trkpt lat="45.94879" lon="4.59672">
        <ele>526</ele>
        <time>2018-11-02T11:05:33Z</time>
      </trkpt>
      <trkpt lat="45.94876" lon="4.59662">
        <ele>529</ele>
        <time>2018-11-02T11:05:35Z</time>
      </trkpt>
      <trkpt lat="45.94874" lon="4.59656">
        <ele>529</ele>
        <time>2018-11-02T11:05:36Z</time>
      </trkpt>
      <trkpt lat="45.94871" lon="4.59647">
        <ele>529</ele>
        <time>2018-11-02T11:05:38Z</time>
      </trkpt>
      <trkpt lat="45.94869" lon="4.59642">
        <ele>529</ele>
        <time>2018-11-02T11:05:39Z</time>
      </trkpt>
      <trkpt lat="45.94864" lon="4.59632">
        <ele>529</ele>
        <time>2018-11-02T11:05:41Z</time>
      </trkpt>
      <trkpt lat="45.94862" lon="4.59627">
        <ele>529</ele>
        <time>2018-11-02T11:05:42Z</time>
      </trkpt>
      <trkpt lat="45.94858" lon="4.59619">
        <ele>529</ele>
        <time>2018-11-02T11:05:44Z</time>
      </trkpt>
      <trkpt lat="45.94856" lon="4.59615">
        <ele>529</ele>
        <time>2018-11-02T11:05:45Z</time>
      </trkpt>
      <trkpt lat="45.94851" lon="4.59606">
        <ele>529</ele>
        <time>2018-11-02T11:05:47Z</time>
      </trkpt>
      <trkpt lat="45.94849" lon="4.59602">
        <ele>529</ele>
        <time>2018-11-02T11:05:48Z</time>
      </trkpt>
      <trkpt lat="45.94844" lon="4.59593">
        <ele>529</ele>
        <time>2018-11-02T11:05:50Z</time>
      </trkpt>
      <trkpt lat="45.94842" lon="4.59589">
        <ele>529</ele>
        <time>2018-11-02T11:05:51Z</time>
      </trkpt>
      <trkpt lat="45.94838" lon="4.5958">
        <ele>530</ele>
        <time>2018-11-02T11:05:53Z</time>
      </trkpt>
      <trkpt lat="45.94836" lon="4.59576">
        <ele>530</ele>
        <time>2018-11-02T11:05:54Z</time>
      </trkpt>
      <trkpt lat="45.94831" lon="4.59569">
        <ele>528</ele>
        <time>2018-11-02T11:05:56Z</time>
      </trkpt>
      <trkpt lat="45.94829" lon="4.59566">
        <ele>528</ele>
        <time>2018-11-02T11:05:57Z</time>
      </trkpt>
      <trkpt lat="45.94823" lon="4.59557">
        <ele>528</ele>
        <time>2018-11-02T11:05:59Z</time>
      </trkpt>
      <trkpt lat="45.9482" lon="4.59553">
        <ele>528</ele>
        <time>2018-11-02T11:06:00Z</time>
      </trkpt>
      <trkpt lat="45.94816" lon="4.59547">
        <ele>528</ele>
        <time>2018-11-02T11:06:02Z</time>
      </trkpt>
      <trkpt lat="45.94813" lon="4.59542">
        <ele>529</ele>
        <time>2018-11-02T11:06:03Z</time>
      </trkpt>
      <trkpt lat="45.94809" lon="4.59534">
        <ele>529</ele>
        <time>2018-11-02T11:06:06Z</time>
      </trkpt>
      <trkpt lat="45.94807" lon="4.59531">
        <ele>529</ele>
        <time>2018-11-02T11:06:07Z</time>
      </trkpt>
      <trkpt lat="45.94803" lon="4.59524">
        <ele>529</ele>
        <time>2018-11-02T11:06:09Z</time>
      </trkpt>
      <trkpt lat="45.94801" lon="4.5952">
        <ele>529</ele>
        <time>2018-11-02T11:06:10Z</time>
      </trkpt>
      <trkpt lat="45.94797" lon="4.59512">
        <ele>529</ele>
        <time>2018-11-02T11:06:12Z</time>
      </trkpt>
      <trkpt lat="45.94794" lon="4.59509">
        <ele>529</ele>
        <time>2018-11-02T11:06:13Z</time>
      </trkpt>
      <trkpt lat="45.9479" lon="4.59502">
        <ele>529</ele>
        <time>2018-11-02T11:06:15Z</time>
      </trkpt>
      <trkpt lat="45.94787" lon="4.59498">
        <ele>534</ele>
        <time>2018-11-02T11:06:16Z</time>
      </trkpt>
      <trkpt lat="45.94782" lon="4.5949">
        <ele>534</ele>
        <time>2018-11-02T11:06:18Z</time>
      </trkpt>
      <trkpt lat="45.9478" lon="4.59487">
        <ele>534</ele>
        <time>2018-11-02T11:06:19Z</time>
      </trkpt>
      <trkpt lat="45.94775" lon="4.5948">
        <ele>534</ele>
        <time>2018-11-02T11:06:21Z</time>
      </trkpt>
      <trkpt lat="45.94773" lon="4.59476">
        <ele>534</ele>
        <time>2018-11-02T11:06:22Z</time>
      </trkpt>
      <trkpt lat="45.94768" lon="4.59469">
        <ele>534</ele>
        <time>2018-11-02T11:06:24Z</time>
      </trkpt>
      <trkpt lat="45.94766" lon="4.59466">
        <ele>535</ele>
        <time>2018-11-02T11:06:25Z</time>
      </trkpt>
      <trkpt lat="45.94762" lon="4.59459">
        <ele>535</ele>
        <time>2018-11-02T11:06:27Z</time>
      </trkpt>
      <trkpt lat="45.94759" lon="4.59455">
        <ele>535</ele>
        <time>2018-11-02T11:06:28Z</time>
      </trkpt>
      <trkpt lat="45.94755" lon="4.59448">
        <ele>535</ele>
        <time>2018-11-02T11:06:30Z</time>
      </trkpt>
      <trkpt lat="45.94751" lon="4.59443">
        <ele>535</ele>
        <time>2018-11-02T11:06:31Z</time>
      </trkpt>
      <trkpt lat="45.94747" lon="4.59436">
        <ele>531</ele>
        <time>2018-11-02T11:06:33Z</time>
      </trkpt>
      <trkpt lat="45.94744" lon="4.59432">
        <ele>532</ele>
        <time>2018-11-02T11:06:34Z</time>
      </trkpt>
      <trkpt lat="45.9474" lon="4.59422">
        <ele>533</ele>
        <time>2018-11-02T11:06:35Z</time>
      </trkpt>
      <trkpt lat="45.94738" lon="4.59417">
        <ele>533</ele>
        <time>2018-11-02T11:06:36Z</time>
      </trkpt>
      <trkpt lat="45.94736" lon="4.59407">
        <ele>533</ele>
        <time>2018-11-02T11:06:38Z</time>
      </trkpt>
      <trkpt lat="45.94734" lon="4.59401">
        <ele>533</ele>
        <time>2018-11-02T11:06:39Z</time>
      </trkpt>
      <trkpt lat="45.94731" lon="4.59391">
        <ele>532</ele>
        <time>2018-11-02T11:06:41Z</time>
      </trkpt>
      <trkpt lat="45.9473" lon="4.59386">
        <ele>532</ele>
        <time>2018-11-02T11:06:42Z</time>
      </trkpt>
      <trkpt lat="45.94729" lon="4.59375">
        <ele>532</ele>
        <time>2018-11-02T11:06:44Z</time>
      </trkpt>
      <trkpt lat="45.94728" lon="4.5937">
        <ele>532</ele>
        <time>2018-11-02T11:06:45Z</time>
      </trkpt>
      <trkpt lat="45.94728" lon="4.59359">
        <ele>532</ele>
        <time>2018-11-02T11:06:47Z</time>
      </trkpt>
      <trkpt lat="45.94728" lon="4.59353">
        <ele>532</ele>
        <time>2018-11-02T11:06:48Z</time>
      </trkpt>
      <trkpt lat="45.94729" lon="4.59342">
        <ele>533</ele>
        <time>2018-11-02T11:06:50Z</time>
      </trkpt>
      <trkpt lat="45.94729" lon="4.59336">
        <ele>533</ele>
        <time>2018-11-02T11:06:51Z</time>
      </trkpt>
      <trkpt lat="45.94732" lon="4.59324">
        <ele>531</ele>
        <time>2018-11-02T11:06:53Z</time>
      </trkpt>
      <trkpt lat="45.94733" lon="4.59318">
        <ele>531</ele>
        <time>2018-11-02T11:06:54Z</time>
      </trkpt>
      <trkpt lat="45.94736" lon="4.59307">
        <ele>531</ele>
        <time>2018-11-02T11:06:56Z</time>
      </trkpt>
      <trkpt lat="45.94737" lon="4.59301">
        <ele>530</ele>
        <time>2018-11-02T11:06:57Z</time>
      </trkpt>
      <trkpt lat="45.94741" lon="4.5929">
        <ele>530</ele>
        <time>2018-11-02T11:06:59Z</time>
      </trkpt>
      <trkpt lat="45.94742" lon="4.59285">
        <ele>530</ele>
        <time>2018-11-02T11:07:00Z</time>
      </trkpt>
      <trkpt lat="45.94745" lon="4.59273">
        <ele>530</ele>
        <time>2018-11-02T11:07:02Z</time>
      </trkpt>
      <trkpt lat="45.94749" lon="4.59266">
        <ele>531</ele>
        <time>2018-11-02T11:07:03Z</time>
      </trkpt>
      <trkpt lat="45.94751" lon="4.59259">
        <ele>535</ele>
        <time>2018-11-02T11:07:04Z</time>
      </trkpt>
      <trkpt lat="45.94752" lon="4.59253">
        <ele>533</ele>
        <time>2018-11-02T11:07:05Z</time>
      </trkpt>
      <trkpt lat="45.94754" lon="4.59246">
        <ele>533</ele>
        <time>2018-11-02T11:07:06Z</time>
      </trkpt>
      <trkpt lat="45.94756" lon="4.59239">
        <ele>534</ele>
        <time>2018-11-02T11:07:07Z</time>
      </trkpt>
      <trkpt lat="45.94758" lon="4.59231">
        <ele>535</ele>
        <time>2018-11-02T11:07:08Z</time>
      </trkpt>
      <trkpt lat="45.94761" lon="4.59225">
        <ele>535</ele>
        <time>2018-11-02T11:07:09Z</time>
      </trkpt>
      <trkpt lat="45.94762" lon="4.59218">
        <ele>536</ele>
        <time>2018-11-02T11:07:10Z</time>
      </trkpt>
      <trkpt lat="45.94764" lon="4.59211">
        <ele>536</ele>
        <time>2018-11-02T11:07:11Z</time>
      </trkpt>
      <trkpt lat="45.94767" lon="4.59199">
        <ele>535</ele>
        <time>2018-11-02T11:07:13Z</time>
      </trkpt>
      <trkpt lat="45.94768" lon="4.59193">
        <ele>535</ele>
        <time>2018-11-02T11:07:14Z</time>
      </trkpt>
      <trkpt lat="45.94771" lon="4.59181">
        <ele>534</ele>
        <time>2018-11-02T11:07:16Z</time>
      </trkpt>
      <trkpt lat="45.94773" lon="4.59176">
        <ele>534</ele>
        <time>2018-11-02T11:07:17Z</time>
      </trkpt>
      <trkpt lat="45.94774" lon="4.59168">
        <ele>534</ele>
        <time>2018-11-02T11:07:19Z</time>
      </trkpt>
      <trkpt lat="45.94776" lon="4.59164">
        <ele>532</ele>
        <time>2018-11-02T11:07:20Z</time>
      </trkpt>
      <trkpt lat="45.94779" lon="4.59153">
        <ele>533</ele>
        <time>2018-11-02T11:07:22Z</time>
      </trkpt>
      <trkpt lat="45.9478" lon="4.59147">
        <ele>533</ele>
        <time>2018-11-02T11:07:23Z</time>
      </trkpt>
      <trkpt lat="45.94783" lon="4.59136">
        <ele>533</ele>
        <time>2018-11-02T11:07:25Z</time>
      </trkpt>
      <trkpt lat="45.94785" lon="4.5913">
        <ele>533</ele>
        <time>2018-11-02T11:07:26Z</time>
      </trkpt>
      <trkpt lat="45.94786" lon="4.59123">
        <ele>533</ele>
        <time>2018-11-02T11:07:27Z</time>
      </trkpt>
      <trkpt lat="45.94787" lon="4.59117">
        <ele>533</ele>
        <time>2018-11-02T11:07:28Z</time>
      </trkpt>
      <trkpt lat="45.9479" lon="4.59105">
        <ele>533</ele>
        <time>2018-11-02T11:07:30Z</time>
      </trkpt>
      <trkpt lat="45.94791" lon="4.59098">
        <ele>533</ele>
        <time>2018-11-02T11:07:31Z</time>
      </trkpt>
      <trkpt lat="45.94794" lon="4.59087">
        <ele>533</ele>
        <time>2018-11-02T11:07:33Z</time>
      </trkpt>
      <trkpt lat="45.94795" lon="4.59081">
        <ele>532</ele>
        <time>2018-11-02T11:07:34Z</time>
      </trkpt>
      <trkpt lat="45.94796" lon="4.59076">
        <ele>532</ele>
        <time>2018-11-02T11:07:35Z</time>
      </trkpt>
      <trkpt lat="45.94798" lon="4.59068">
        <ele>532</ele>
        <time>2018-11-02T11:07:36Z</time>
      </trkpt>
      <trkpt lat="45.94799" lon="4.59063">
        <ele>532</ele>
        <time>2018-11-02T11:07:37Z</time>
      </trkpt>
      <trkpt lat="45.94801" lon="4.59056">
        <ele>532</ele>
        <time>2018-11-02T11:07:38Z</time>
      </trkpt>
      <trkpt lat="45.94803" lon="4.59049">
        <ele>532</ele>
        <time>2018-11-02T11:07:39Z</time>
      </trkpt>
      <trkpt lat="45.94804" lon="4.59043">
        <ele>532</ele>
        <time>2018-11-02T11:07:40Z</time>
      </trkpt>
      <trkpt lat="45.94806" lon="4.59036">
        <ele>532</ele>
        <time>2018-11-02T11:07:41Z</time>
      </trkpt>
      <trkpt lat="45.94808" lon="4.59027">
        <ele>532</ele>
        <time>2018-11-02T11:07:42Z</time>
      </trkpt>
      <trkpt lat="45.9481" lon="4.5902">
        <ele>532</ele>
        <time>2018-11-02T11:07:43Z</time>
      </trkpt>
      <trkpt lat="45.94811" lon="4.59012">
        <ele>532</ele>
        <time>2018-11-02T11:07:44Z</time>
      </trkpt>
      <trkpt lat="45.94813" lon="4.59002">
        <ele>532</ele>
        <time>2018-11-02T11:07:45Z</time>
      </trkpt>
      <trkpt lat="45.94814" lon="4.58995">
        <ele>531</ele>
        <time>2018-11-02T11:07:46Z</time>
      </trkpt>
      <trkpt lat="45.94815" lon="4.58987">
        <ele>530</ele>
        <time>2018-11-02T11:07:47Z</time>
      </trkpt>
      <trkpt lat="45.94817" lon="4.5898">
        <ele>530</ele>
        <time>2018-11-02T11:07:48Z</time>
      </trkpt>
      <trkpt lat="45.94819" lon="4.58972">
        <ele>530</ele>
        <time>2018-11-02T11:07:49Z</time>
      </trkpt>
      <trkpt lat="45.94821" lon="4.58965">
        <ele>529</ele>
        <time>2018-11-02T11:07:50Z</time>
      </trkpt>
      <trkpt lat="45.94823" lon="4.58958">
        <ele>529</ele>
        <time>2018-11-02T11:07:51Z</time>
      </trkpt>
      <trkpt lat="45.94823" lon="4.5895">
        <ele>529</ele>
        <time>2018-11-02T11:07:52Z</time>
      </trkpt>
      <trkpt lat="45.94825" lon="4.58945">
        <ele>529</ele>
        <time>2018-11-02T11:07:53Z</time>
      </trkpt>
      <trkpt lat="45.94826" lon="4.58938">
        <ele>529</ele>
        <time>2018-11-02T11:07:54Z</time>
      </trkpt>
      <trkpt lat="45.94828" lon="4.58931">
        <ele>530</ele>
        <time>2018-11-02T11:07:55Z</time>
      </trkpt>
      <trkpt lat="45.9483" lon="4.58924">
        <ele>530</ele>
        <time>2018-11-02T11:07:56Z</time>
      </trkpt>
      <trkpt lat="45.94832" lon="4.58917">
        <ele>531</ele>
        <time>2018-11-02T11:07:57Z</time>
      </trkpt>
      <trkpt lat="45.94833" lon="4.5891">
        <ele>529</ele>
        <time>2018-11-02T11:07:58Z</time>
      </trkpt>
      <trkpt lat="45.94835" lon="4.58904">
        <ele>530</ele>
        <time>2018-11-02T11:07:59Z</time>
      </trkpt>
      <trkpt lat="45.94838" lon="4.58898">
        <ele>530</ele>
        <time>2018-11-02T11:08:00Z</time>
      </trkpt>
      <trkpt lat="45.9484" lon="4.58891">
        <ele>529</ele>
        <time>2018-11-02T11:08:01Z</time>
      </trkpt>
      <trkpt lat="45.94843" lon="4.58885">
        <ele>529</ele>
        <time>2018-11-02T11:08:02Z</time>
      </trkpt>
      <trkpt lat="45.94846" lon="4.58878">
        <ele>528</ele>
        <time>2018-11-02T11:08:03Z</time>
      </trkpt>
      <trkpt lat="45.94849" lon="4.5887">
        <ele>528</ele>
        <time>2018-11-02T11:08:04Z</time>
      </trkpt>
      <trkpt lat="45.94852" lon="4.58863">
        <ele>527</ele>
        <time>2018-11-02T11:08:05Z</time>
      </trkpt>
      <trkpt lat="45.94855" lon="4.58855">
        <ele>527</ele>
        <time>2018-11-02T11:08:06Z</time>
      </trkpt>
      <trkpt lat="45.94858" lon="4.58847">
        <ele>527</ele>
        <time>2018-11-02T11:08:07Z</time>
      </trkpt>
      <trkpt lat="45.94862" lon="4.58839">
        <ele>527</ele>
        <time>2018-11-02T11:08:08Z</time>
      </trkpt>
      <trkpt lat="45.94866" lon="4.58831">
        <ele>521</ele>
        <time>2018-11-02T11:08:09Z</time>
      </trkpt>
      <trkpt lat="45.9487" lon="4.58823">
        <ele>521</ele>
        <time>2018-11-02T11:08:10Z</time>
      </trkpt>
      <trkpt lat="45.94874" lon="4.58815">
        <ele>521</ele>
        <time>2018-11-02T11:08:11Z</time>
      </trkpt>
      <trkpt lat="45.94879" lon="4.58807">
        <ele>521</ele>
        <time>2018-11-02T11:08:12Z</time>
      </trkpt>
      <trkpt lat="45.94884" lon="4.58798">
        <ele>521</ele>
        <time>2018-11-02T11:08:13Z</time>
      </trkpt>
      <trkpt lat="45.94889" lon="4.5879">
        <ele>521</ele>
        <time>2018-11-02T11:08:14Z</time>
      </trkpt>
      <trkpt lat="45.94895" lon="4.58782">
        <ele>521</ele>
        <time>2018-11-02T11:08:15Z</time>
      </trkpt>
      <trkpt lat="45.94901" lon="4.58775">
        <ele>521</ele>
        <time>2018-11-02T11:08:16Z</time>
      </trkpt>
      <trkpt lat="45.94906" lon="4.58768">
        <ele>521</ele>
        <time>2018-11-02T11:08:17Z</time>
      </trkpt>
      <trkpt lat="45.94911" lon="4.58761">
        <ele>521</ele>
        <time>2018-11-02T11:08:18Z</time>
      </trkpt>
      <trkpt lat="45.94917" lon="4.58754">
        <ele>522</ele>
        <time>2018-11-02T11:08:19Z</time>
      </trkpt>
      <trkpt lat="45.94922" lon="4.58746">
        <ele>522</ele>
        <time>2018-11-02T11:08:20Z</time>
      </trkpt>
      <trkpt lat="45.94927" lon="4.58738">
        <ele>523</ele>
        <time>2018-11-02T11:08:21Z</time>
      </trkpt>
      <trkpt lat="45.94931" lon="4.5873">
        <ele>523</ele>
        <time>2018-11-02T11:08:22Z</time>
      </trkpt>
      <trkpt lat="45.94935" lon="4.58724">
        <ele>523</ele>
        <time>2018-11-02T11:08:23Z</time>
      </trkpt>
      <trkpt lat="45.94939" lon="4.58717">
        <ele>523</ele>
        <time>2018-11-02T11:08:24Z</time>
      </trkpt>
      <trkpt lat="45.94943" lon="4.58711">
        <ele>523</ele>
        <time>2018-11-02T11:08:25Z</time>
      </trkpt>
      <trkpt lat="45.94946" lon="4.58705">
        <ele>523</ele>
        <time>2018-11-02T11:08:26Z</time>
      </trkpt>
      <trkpt lat="45.94949" lon="4.58699">
        <ele>523</ele>
        <time>2018-11-02T11:08:27Z</time>
      </trkpt>
      <trkpt lat="45.94951" lon="4.58693">
        <ele>523</ele>
        <time>2018-11-02T11:08:28Z</time>
      </trkpt>
      <trkpt lat="45.94954" lon="4.58681">
        <ele>523</ele>
        <time>2018-11-02T11:08:30Z</time>
      </trkpt>
      <trkpt lat="45.94955" lon="4.58673">
        <ele>523</ele>
        <time>2018-11-02T11:08:31Z</time>
      </trkpt>
      <trkpt lat="45.94956" lon="4.58666">
        <ele>522</ele>
        <time>2018-11-02T11:08:32Z</time>
      </trkpt>
      <trkpt lat="45.94956" lon="4.58659">
        <ele>523</ele>
        <time>2018-11-02T11:08:33Z</time>
      </trkpt>
      <trkpt lat="45.94956" lon="4.58651">
        <ele>523</ele>
        <time>2018-11-02T11:08:34Z</time>
      </trkpt>
      <trkpt lat="45.94956" lon="4.58644">
        <ele>523</ele>
        <time>2018-11-02T11:08:35Z</time>
      </trkpt>
      <trkpt lat="45.94956" lon="4.58636">
        <ele>523</ele>
        <time>2018-11-02T11:08:36Z</time>
      </trkpt>
      <trkpt lat="45.94955" lon="4.58628">
        <ele>523</ele>
        <time>2018-11-02T11:08:37Z</time>
      </trkpt>
      <trkpt lat="45.94955" lon="4.5862">
        <ele>523</ele>
        <time>2018-11-02T11:08:38Z</time>
      </trkpt>
      <trkpt lat="45.94953" lon="4.58613">
        <ele>523</ele>
        <time>2018-11-02T11:08:39Z</time>
      </trkpt>
      <trkpt lat="45.94952" lon="4.58606">
        <ele>523</ele>
        <time>2018-11-02T11:08:40Z</time>
      </trkpt>
      <trkpt lat="45.9495" lon="4.586">
        <ele>523</ele>
        <time>2018-11-02T11:08:41Z</time>
      </trkpt>
      <trkpt lat="45.9495" lon="4.58593">
        <ele>523</ele>
        <time>2018-11-02T11:08:42Z</time>
      </trkpt>
      <trkpt lat="45.94948" lon="4.58587">
        <ele>522</ele>
        <time>2018-11-02T11:08:43Z</time>
      </trkpt>
      <trkpt lat="45.94946" lon="4.58579">
        <ele>525</ele>
        <time>2018-11-02T11:08:44Z</time>
      </trkpt>
      <trkpt lat="45.94945" lon="4.58572">
        <ele>525</ele>
        <time>2018-11-02T11:08:45Z</time>
      </trkpt>
      <trkpt lat="45.94944" lon="4.58566">
        <ele>525</ele>
        <time>2018-11-02T11:08:46Z</time>
      </trkpt>
      <trkpt lat="45.94942" lon="4.58559">
        <ele>525</ele>
        <time>2018-11-02T11:08:47Z</time>
      </trkpt>
      <trkpt lat="45.94939" lon="4.58553">
        <ele>526</ele>
        <time>2018-11-02T11:08:48Z</time>
      </trkpt>
      <trkpt lat="45.94938" lon="4.58546">
        <ele>526</ele>
        <time>2018-11-02T11:08:49Z</time>
      </trkpt>
      <trkpt lat="45.94935" lon="4.58541">
        <ele>526</ele>
        <time>2018-11-02T11:08:50Z</time>
      </trkpt>
      <trkpt lat="45.94932" lon="4.58534">
        <ele>526</ele>
        <time>2018-11-02T11:08:51Z</time>
      </trkpt>
      <trkpt lat="45.94928" lon="4.58523">
        <ele>527</ele>
        <time>2018-11-02T11:08:53Z</time>
      </trkpt>
      <trkpt lat="45.94926" lon="4.58518">
        <ele>527</ele>
        <time>2018-11-02T11:08:54Z</time>
      </trkpt>
      <trkpt lat="45.94924" lon="4.58507">
        <ele>526</ele>
        <time>2018-11-02T11:08:56Z</time>
      </trkpt>
      <trkpt lat="45.94922" lon="4.58501">
        <ele>526</ele>
        <time>2018-11-02T11:08:57Z</time>
      </trkpt>
      <trkpt lat="45.94919" lon="4.58495">
        <ele>527</ele>
        <time>2018-11-02T11:08:58Z</time>
      </trkpt>
      <trkpt lat="45.94917" lon="4.58489">
        <ele>527</ele>
        <time>2018-11-02T11:08:59Z</time>
      </trkpt>
      <trkpt lat="45.94915" lon="4.58478">
        <ele>524</ele>
        <time>2018-11-02T11:09:01Z</time>
      </trkpt>
      <trkpt lat="45.94913" lon="4.58472">
        <ele>523</ele>
        <time>2018-11-02T11:09:02Z</time>
      </trkpt>
      <trkpt lat="45.94912" lon="4.58463">
        <ele>523</ele>
        <time>2018-11-02T11:09:03Z</time>
      </trkpt>
      <trkpt lat="45.94915" lon="4.58455">
        <ele>523</ele>
        <time>2018-11-02T11:09:04Z</time>
      </trkpt>
      <trkpt lat="45.94913" lon="4.58444">
        <ele>524</ele>
        <time>2018-11-02T11:09:06Z</time>
      </trkpt>
      <trkpt lat="45.94912" lon="4.58439">
        <ele>524</ele>
        <time>2018-11-02T11:09:07Z</time>
      </trkpt>
      <trkpt lat="45.9491" lon="4.58428">
        <ele>525</ele>
        <time>2018-11-02T11:09:09Z</time>
      </trkpt>
      <trkpt lat="45.9491" lon="4.58422">
        <ele>525</ele>
        <time>2018-11-02T11:09:10Z</time>
      </trkpt>
      <trkpt lat="45.94908" lon="4.58411">
        <ele>527</ele>
        <time>2018-11-02T11:09:13Z</time>
      </trkpt>
      <trkpt lat="45.94908" lon="4.58409">
        <ele>527</ele>
        <time>2018-11-02T11:09:14Z</time>
      </trkpt>
      <trkpt lat="45.94909" lon="4.58398">
        <ele>527</ele>
        <time>2018-11-02T11:09:17Z</time>
      </trkpt>
      <trkpt lat="45.94909" lon="4.58396">
        <ele>527</ele>
        <time>2018-11-02T11:09:18Z</time>
      </trkpt>
      <trkpt lat="45.94917" lon="4.58395">
        <ele>528</ele>
        <time>2018-11-02T11:09:43Z</time>
      </trkpt>
      <trkpt lat="45.94918" lon="4.58396">
        <ele>528</ele>
        <time>2018-11-02T11:09:44Z</time>
      </trkpt>
      <trkpt lat="45.94927" lon="4.58395">
        <ele>528</ele>
        <time>2018-11-02T11:09:49Z</time>
      </trkpt>
      <trkpt lat="45.94929" lon="4.58396">
        <ele>528</ele>
        <time>2018-11-02T11:09:50Z</time>
      </trkpt>
      <trkpt lat="45.94937" lon="4.58396">
        <ele>528</ele>
        <time>2018-11-02T11:09:53Z</time>
      </trkpt>
      <trkpt lat="45.9494" lon="4.58396">
        <ele>528</ele>
        <time>2018-11-02T11:09:54Z</time>
      </trkpt>
      <trkpt lat="45.94947" lon="4.58396">
        <ele>528</ele>
        <time>2018-11-02T11:09:57Z</time>
      </trkpt>
      <trkpt lat="45.9495" lon="4.58396">
        <ele>528</ele>
        <time>2018-11-02T11:09:58Z</time>
      </trkpt>
      <trkpt lat="45.94958" lon="4.58397">
        <ele>529</ele>
        <time>2018-11-02T11:10:01Z</time>
      </trkpt>
      <trkpt lat="45.94961" lon="4.58397">
        <ele>529</ele>
        <time>2018-11-02T11:10:02Z</time>
      </trkpt>
      <trkpt lat="45.94969" lon="4.584">
        <ele>529</ele>
        <time>2018-11-02T11:10:06Z</time>
      </trkpt>
      <trkpt lat="45.94972" lon="4.58401">
        <ele>529</ele>
        <time>2018-11-02T11:10:07Z</time>
      </trkpt>
      <trkpt lat="45.94979" lon="4.58404">
        <ele>530</ele>
        <time>2018-11-02T11:10:10Z</time>
      </trkpt>
      <trkpt lat="45.94981" lon="4.58405">
        <ele>530</ele>
        <time>2018-11-02T11:10:11Z</time>
      </trkpt>
      <trkpt lat="45.94989" lon="4.58409">
        <ele>530</ele>
        <time>2018-11-02T11:10:15Z</time>
      </trkpt>
      <trkpt lat="45.94991" lon="4.5841">
        <ele>531</ele>
        <time>2018-11-02T11:10:16Z</time>
      </trkpt>
      <trkpt lat="45.94998" lon="4.58416">
        <ele>532</ele>
        <time>2018-11-02T11:10:20Z</time>
      </trkpt>
      <trkpt lat="45.94999" lon="4.58417">
        <ele>532</ele>
        <time>2018-11-02T11:10:21Z</time>
      </trkpt>
      <trkpt lat="45.95006" lon="4.58422">
        <ele>533</ele>
        <time>2018-11-02T11:10:25Z</time>
      </trkpt>
      <trkpt lat="45.95008" lon="4.58423">
        <ele>533</ele>
        <time>2018-11-02T11:10:26Z</time>
      </trkpt>
      <trkpt lat="45.95" lon="4.58417">
        <ele>532</ele>
        <time>2018-11-02T11:10:43Z</time>
      </trkpt>
      <trkpt lat="45.94995" lon="4.58413">
        <ele>531</ele>
        <time>2018-11-02T11:10:44Z</time>
      </trkpt>
      <trkpt lat="45.94991" lon="4.58414">
        <ele>531</ele>
        <time>2018-11-02T11:10:45Z</time>
      </trkpt>
      <trkpt lat="45.94985" lon="4.58412">
        <ele>530</ele>
        <time>2018-11-02T11:10:46Z</time>
      </trkpt>
      <trkpt lat="45.9498" lon="4.5841">
        <ele>530</ele>
        <time>2018-11-02T11:10:47Z</time>
      </trkpt>
      <trkpt lat="45.94974" lon="4.58407">
        <ele>529</ele>
        <time>2018-11-02T11:10:48Z</time>
      </trkpt>
      <trkpt lat="45.9497" lon="4.58405">
        <ele>529</ele>
        <time>2018-11-02T11:10:49Z</time>
      </trkpt>
      <trkpt lat="45.94964" lon="4.58402">
        <ele>529</ele>
        <time>2018-11-02T11:10:50Z</time>
      </trkpt>
      <trkpt lat="45.94958" lon="4.58402">
        <ele>529</ele>
        <time>2018-11-02T11:10:51Z</time>
      </trkpt>
      <trkpt lat="45.94952" lon="4.58402">
        <ele>528</ele>
        <time>2018-11-02T11:10:52Z</time>
      </trkpt>
      <trkpt lat="45.94947" lon="4.58402">
        <ele>528</ele>
        <time>2018-11-02T11:10:53Z</time>
      </trkpt>
      <trkpt lat="45.94941" lon="4.58402">
        <ele>528</ele>
        <time>2018-11-02T11:10:54Z</time>
      </trkpt>
      <trkpt lat="45.94936" lon="4.58403">
        <ele>528</ele>
        <time>2018-11-02T11:10:55Z</time>
      </trkpt>
      <trkpt lat="45.94931" lon="4.58403">
        <ele>528</ele>
        <time>2018-11-02T11:10:56Z</time>
      </trkpt>
      <trkpt lat="45.94923" lon="4.58402">
        <ele>528</ele>
        <time>2018-11-02T11:10:58Z</time>
      </trkpt>
      <trkpt lat="45.94921" lon="4.58401">
        <ele>528</ele>
        <time>2018-11-02T11:10:59Z</time>
      </trkpt>
      <trkpt lat="45.94914" lon="4.58399">
        <ele>527</ele>
        <time>2018-11-02T11:11:02Z</time>
      </trkpt>
      <trkpt lat="45.94912" lon="4.58397">
        <ele>527</ele>
        <time>2018-11-02T11:11:03Z</time>
      </trkpt>
      <trkpt lat="45.94904" lon="4.58394">
        <ele>527</ele>
        <time>2018-11-02T11:11:06Z</time>
      </trkpt>
      <trkpt lat="45.94903" lon="4.58393">
        <ele>527</ele>
        <time>2018-11-02T11:11:07Z</time>
      </trkpt>
      <trkpt lat="45.94911" lon="4.58393">
        <ele>527</ele>
        <time>2018-11-02T11:11:25Z</time>
      </trkpt>
      <trkpt lat="45.94913" lon="4.58395">
        <ele>527</ele>
        <time>2018-11-02T11:11:26Z</time>
      </trkpt>
      <trkpt lat="45.94921" lon="4.58396">
        <ele>528</ele>
        <time>2018-11-02T11:11:31Z</time>
      </trkpt>
      <trkpt lat="45.94924" lon="4.58396">
        <ele>528</ele>
        <time>2018-11-02T11:11:32Z</time>
      </trkpt>
      <trkpt lat="45.94932" lon="4.58396">
        <ele>528</ele>
        <time>2018-11-02T11:11:35Z</time>
      </trkpt>
      <trkpt lat="45.94934" lon="4.58397">
        <ele>528</ele>
        <time>2018-11-02T11:11:36Z</time>
      </trkpt>
      <trkpt lat="45.94941" lon="4.58397">
        <ele>528</ele>
        <time>2018-11-02T11:11:39Z</time>
      </trkpt>
      <trkpt lat="45.94944" lon="4.58397">
        <ele>528</ele>
        <time>2018-11-02T11:11:40Z</time>
      </trkpt>
      <trkpt lat="45.94952" lon="4.58396">
        <ele>528</ele>
        <time>2018-11-02T11:11:43Z</time>
      </trkpt>
      <trkpt lat="45.94954" lon="4.58397">
        <ele>528</ele>
        <time>2018-11-02T11:11:44Z</time>
      </trkpt>
      <trkpt lat="45.94961" lon="4.58397">
        <ele>529</ele>
        <time>2018-11-02T11:11:47Z</time>
      </trkpt>
      <trkpt lat="45.94964" lon="4.58398">
        <ele>529</ele>
        <time>2018-11-02T11:11:48Z</time>
      </trkpt>
      <trkpt lat="45.94971" lon="4.584">
        <ele>529</ele>
        <time>2018-11-02T11:11:51Z</time>
      </trkpt>
      <trkpt lat="45.94973" lon="4.584">
        <ele>529</ele>
        <time>2018-11-02T11:11:52Z</time>
      </trkpt>
      <trkpt lat="45.9498" lon="4.58405">
        <ele>530</ele>
        <time>2018-11-02T11:11:55Z</time>
      </trkpt>
      <trkpt lat="45.94982" lon="4.58406">
        <ele>530</ele>
        <time>2018-11-02T11:11:56Z</time>
      </trkpt>
      <trkpt lat="45.94989" lon="4.58412">
        <ele>530</ele>
        <time>2018-11-02T11:11:59Z</time>
      </trkpt>
      <trkpt lat="45.94991" lon="4.58413">
        <ele>531</ele>
        <time>2018-11-02T11:12:00Z</time>
      </trkpt>
      <trkpt lat="45.94997" lon="4.58419">
        <ele>532</ele>
        <time>2018-11-02T11:12:03Z</time>
      </trkpt>
      <trkpt lat="45.94999" lon="4.5842">
        <ele>532</ele>
        <time>2018-11-02T11:12:04Z</time>
      </trkpt>
      <trkpt lat="45.95007" lon="4.58426">
        <ele>533</ele>
        <time>2018-11-02T11:12:08Z</time>
      </trkpt>
      <trkpt lat="45.95009" lon="4.58427">
        <ele>534</ele>
        <time>2018-11-02T11:12:09Z</time>
      </trkpt>
      <trkpt lat="45.95016" lon="4.58432">
        <ele>534</ele>
        <time>2018-11-02T11:12:13Z</time>
      </trkpt>
      <trkpt lat="45.95018" lon="4.58434">
        <ele>534</ele>
        <time>2018-11-02T11:12:14Z</time>
      </trkpt>
      <trkpt lat="45.95026" lon="4.58438">
        <ele>535</ele>
        <time>2018-11-02T11:12:18Z</time>
      </trkpt>
      <trkpt lat="45.95027" lon="4.58439">
        <ele>535</ele>
        <time>2018-11-02T11:12:19Z</time>
      </trkpt>
      <trkpt lat="45.95036" lon="4.58441">
        <ele>535</ele>
        <time>2018-11-02T11:12:23Z</time>
      </trkpt>
      <trkpt lat="45.95038" lon="4.58442">
        <ele>535</ele>
        <time>2018-11-02T11:12:24Z</time>
      </trkpt>
      <trkpt lat="45.95047" lon="4.58444">
        <ele>536</ele>
        <time>2018-11-02T11:12:28Z</time>
      </trkpt>
      <trkpt lat="45.95049" lon="4.58444">
        <ele>536</ele>
        <time>2018-11-02T11:12:29Z</time>
      </trkpt>
      <trkpt lat="45.95058" lon="4.58447">
        <ele>536</ele>
        <time>2018-11-02T11:12:33Z</time>
      </trkpt>
      <trkpt lat="45.9506" lon="4.58448">
        <ele>536</ele>
        <time>2018-11-02T11:12:34Z</time>
      </trkpt>
      <trkpt lat="45.95069" lon="4.5845">
        <ele>536</ele>
        <time>2018-11-02T11:12:38Z</time>
      </trkpt>
      <trkpt lat="45.95071" lon="4.58451">
        <ele>536</ele>
        <time>2018-11-02T11:12:39Z</time>
      </trkpt>
      <trkpt lat="45.95079" lon="4.58454">
        <ele>536</ele>
        <time>2018-11-02T11:12:43Z</time>
      </trkpt>
      <trkpt lat="45.95081" lon="4.58455">
        <ele>536</ele>
        <time>2018-11-02T11:12:44Z</time>
      </trkpt>
      <trkpt lat="45.95089" lon="4.5846">
        <ele>539</ele>
        <time>2018-11-02T11:12:48Z</time>
      </trkpt>
      <trkpt lat="45.95091" lon="4.58461">
        <ele>540</ele>
        <time>2018-11-02T11:12:49Z</time>
      </trkpt>
      <trkpt lat="45.95099" lon="4.58465">
        <ele>540</ele>
        <time>2018-11-02T11:12:53Z</time>
      </trkpt>
      <trkpt lat="45.951" lon="4.58465">
        <ele>540</ele>
        <time>2018-11-02T11:12:54Z</time>
      </trkpt>
      <trkpt lat="45.95107" lon="4.58471">
        <ele>540</ele>
        <time>2018-11-02T11:12:58Z</time>
      </trkpt>
      <trkpt lat="45.95109" lon="4.58473">
        <ele>540</ele>
        <time>2018-11-02T11:12:59Z</time>
      </trkpt>
      <trkpt lat="45.95114" lon="4.58482">
        <ele>540</ele>
        <time>2018-11-02T11:13:03Z</time>
      </trkpt>
      <trkpt lat="45.95116" lon="4.58484">
        <ele>541</ele>
        <time>2018-11-02T11:13:04Z</time>
      </trkpt>
      <trkpt lat="45.95121" lon="4.58492">
        <ele>541</ele>
        <time>2018-11-02T11:13:08Z</time>
      </trkpt>
      <trkpt lat="45.95122" lon="4.58494">
        <ele>541</ele>
        <time>2018-11-02T11:13:09Z</time>
      </trkpt>
      <trkpt lat="45.95129" lon="4.58502">
        <ele>542</ele>
        <time>2018-11-02T11:13:13Z</time>
      </trkpt>
      <trkpt lat="45.95131" lon="4.58505">
        <ele>542</ele>
        <time>2018-11-02T11:13:14Z</time>
      </trkpt>
      <trkpt lat="45.95137" lon="4.58511">
        <ele>543</ele>
        <time>2018-11-02T11:13:17Z</time>
      </trkpt>
      <trkpt lat="45.95139" lon="4.58513">
        <ele>543</ele>
        <time>2018-11-02T11:13:18Z</time>
      </trkpt>
      <trkpt lat="45.95145" lon="4.58519">
        <ele>543</ele>
        <time>2018-11-02T11:13:21Z</time>
      </trkpt>
      <trkpt lat="45.95147" lon="4.58521">
        <ele>543</ele>
        <time>2018-11-02T11:13:22Z</time>
      </trkpt>
      <trkpt lat="45.95153" lon="4.58528">
        <ele>543</ele>
        <time>2018-11-02T11:13:26Z</time>
      </trkpt>
      <trkpt lat="45.95155" lon="4.58529">
        <ele>543</ele>
        <time>2018-11-02T11:13:27Z</time>
      </trkpt>
      <trkpt lat="45.9515" lon="4.58519">
        <ele>543</ele>
        <time>2018-11-02T11:13:53Z</time>
      </trkpt>
      <trkpt lat="45.95147" lon="4.58516">
        <ele>543</ele>
        <time>2018-11-02T11:13:54Z</time>
      </trkpt>
      <trkpt lat="45.95141" lon="4.5851">
        <ele>543</ele>
        <time>2018-11-02T11:13:56Z</time>
      </trkpt>
      <trkpt lat="45.95136" lon="4.58505">
        <ele>543</ele>
        <time>2018-11-02T11:13:57Z</time>
      </trkpt>
      <trkpt lat="45.95129" lon="4.58499">
        <ele>541</ele>
        <time>2018-11-02T11:13:59Z</time>
      </trkpt>
      <trkpt lat="45.95125" lon="4.58495">
        <ele>541</ele>
        <time>2018-11-02T11:14:00Z</time>
      </trkpt>
      <trkpt lat="45.95121" lon="4.58491">
        <ele>541</ele>
        <time>2018-11-02T11:14:01Z</time>
      </trkpt>
      <trkpt lat="45.95118" lon="4.58486">
        <ele>541</ele>
        <time>2018-11-02T11:14:02Z</time>
      </trkpt>
      <trkpt lat="45.95113" lon="4.58481">
        <ele>540</ele>
        <time>2018-11-02T11:14:03Z</time>
      </trkpt>
      <trkpt lat="45.9511" lon="4.58477">
        <ele>540</ele>
        <time>2018-11-02T11:14:04Z</time>
      </trkpt>
      <trkpt lat="45.95105" lon="4.58472">
        <ele>540</ele>
        <time>2018-11-02T11:14:05Z</time>
      </trkpt>
      <trkpt lat="45.95101" lon="4.58468">
        <ele>540</ele>
        <time>2018-11-02T11:14:06Z</time>
      </trkpt>
      <trkpt lat="45.95096" lon="4.58464">
        <ele>540</ele>
        <time>2018-11-02T11:14:07Z</time>
      </trkpt>
      <trkpt lat="45.9509" lon="4.5846">
        <ele>540</ele>
        <time>2018-11-02T11:14:08Z</time>
      </trkpt>
      <trkpt lat="45.95084" lon="4.58458">
        <ele>539</ele>
        <time>2018-11-02T11:14:09Z</time>
      </trkpt>
      <trkpt lat="45.95076" lon="4.58455">
        <ele>536</ele>
        <time>2018-11-02T11:14:10Z</time>
      </trkpt>
      <trkpt lat="45.95069" lon="4.58453">
        <ele>536</ele>
        <time>2018-11-02T11:14:11Z</time>
      </trkpt>
      <trkpt lat="45.95062" lon="4.58451">
        <ele>536</ele>
        <time>2018-11-02T11:14:12Z</time>
      </trkpt>
      <trkpt lat="45.95056" lon="4.58448">
        <ele>536</ele>
        <time>2018-11-02T11:14:13Z</time>
      </trkpt>
      <trkpt lat="45.95049" lon="4.58446">
        <ele>536</ele>
        <time>2018-11-02T11:14:14Z</time>
      </trkpt>
      <trkpt lat="45.95043" lon="4.58443">
        <ele>535</ele>
        <time>2018-11-02T11:14:15Z</time>
      </trkpt>
      <trkpt lat="45.95037" lon="4.58442">
        <ele>535</ele>
        <time>2018-11-02T11:14:16Z</time>
      </trkpt>
      <trkpt lat="45.95031" lon="4.5844">
        <ele>535</ele>
        <time>2018-11-02T11:14:17Z</time>
      </trkpt>
      <trkpt lat="45.95026" lon="4.58437">
        <ele>535</ele>
        <time>2018-11-02T11:14:18Z</time>
      </trkpt>
      <trkpt lat="45.9502" lon="4.58434">
        <ele>534</ele>
        <time>2018-11-02T11:14:19Z</time>
      </trkpt>
      <trkpt lat="45.95015" lon="4.58432">
        <ele>534</ele>
        <time>2018-11-02T11:14:20Z</time>
      </trkpt>
      <trkpt lat="45.95009" lon="4.58428">
        <ele>534</ele>
        <time>2018-11-02T11:14:21Z</time>
      </trkpt>
      <trkpt lat="45.95004" lon="4.58425">
        <ele>533</ele>
        <time>2018-11-02T11:14:22Z</time>
      </trkpt>
      <trkpt lat="45.95" lon="4.58421">
        <ele>532</ele>
        <time>2018-11-02T11:14:23Z</time>
      </trkpt>
      <trkpt lat="45.94995" lon="4.58418">
        <ele>532</ele>
        <time>2018-11-02T11:14:24Z</time>
      </trkpt>
      <trkpt lat="45.94988" lon="4.58414">
        <ele>530</ele>
        <time>2018-11-02T11:14:25Z</time>
      </trkpt>
      <trkpt lat="45.94983" lon="4.5841">
        <ele>530</ele>
        <time>2018-11-02T11:14:26Z</time>
      </trkpt>
      <trkpt lat="45.94977" lon="4.58406">
        <ele>529</ele>
        <time>2018-11-02T11:14:27Z</time>
      </trkpt>
      <trkpt lat="45.94971" lon="4.58402">
        <ele>529</ele>
        <time>2018-11-02T11:14:28Z</time>
      </trkpt>
      <trkpt lat="45.94965" lon="4.58401">
        <ele>529</ele>
        <time>2018-11-02T11:14:29Z</time>
      </trkpt>
      <trkpt lat="45.94958" lon="4.584">
        <ele>529</ele>
        <time>2018-11-02T11:14:30Z</time>
      </trkpt>
      <trkpt lat="45.94952" lon="4.58399">
        <ele>528</ele>
        <time>2018-11-02T11:14:31Z</time>
      </trkpt>
      <trkpt lat="45.94945" lon="4.58398">
        <ele>528</ele>
        <time>2018-11-02T11:14:32Z</time>
      </trkpt>
      <trkpt lat="45.94938" lon="4.58399">
        <ele>528</ele>
        <time>2018-11-02T11:14:33Z</time>
      </trkpt>
      <trkpt lat="45.94932" lon="4.58398">
        <ele>528</ele>
        <time>2018-11-02T11:14:34Z</time>
      </trkpt>
      <trkpt lat="45.94927" lon="4.58397">
        <ele>528</ele>
        <time>2018-11-02T11:14:35Z</time>
      </trkpt>
      <trkpt lat="45.94922" lon="4.58397">
        <ele>528</ele>
        <time>2018-11-02T11:14:36Z</time>
      </trkpt>
      <trkpt lat="45.94917" lon="4.58396">
        <ele>528</ele>
        <time>2018-11-02T11:14:37Z</time>
      </trkpt>
      <trkpt lat="45.94913" lon="4.58394">
        <ele>527</ele>
        <time>2018-11-02T11:14:38Z</time>
      </trkpt>
      <trkpt lat="45.94906" lon="4.58388">
        <ele>527</ele>
        <time>2018-11-02T11:14:40Z</time>
      </trkpt>
      <trkpt lat="45.94904" lon="4.58383">
        <ele>527</ele>
        <time>2018-11-02T11:14:41Z</time>
      </trkpt>
      <trkpt lat="45.94902" lon="4.58371">
        <ele>527</ele>
        <time>2018-11-02T11:14:44Z</time>
      </trkpt>
      <trkpt lat="45.94903" lon="4.58367">
        <ele>527</ele>
        <time>2018-11-02T11:14:45Z</time>
      </trkpt>
      <trkpt lat="45.94903" lon="4.58359">
        <ele>527</ele>
        <time>2018-11-02T11:14:46Z</time>
      </trkpt>
      <trkpt lat="45.94903" lon="4.58354">
        <ele>527</ele>
        <time>2018-11-02T11:14:47Z</time>
      </trkpt>
      <trkpt lat="45.94903" lon="4.58342">
        <ele>527</ele>
        <time>2018-11-02T11:14:49Z</time>
      </trkpt>
      <trkpt lat="45.94904" lon="4.58337">
        <ele>527</ele>
        <time>2018-11-02T11:14:50Z</time>
      </trkpt>
      <trkpt lat="45.9491" lon="4.58329">
        <ele>527</ele>
        <time>2018-11-02T11:14:52Z</time>
      </trkpt>
      <trkpt lat="45.94914" lon="4.58327">
        <ele>527</ele>
        <time>2018-11-02T11:14:53Z</time>
      </trkpt>
      <trkpt lat="45.94922" lon="4.58322">
        <ele>526</ele>
        <time>2018-11-02T11:14:55Z</time>
      </trkpt>
      <trkpt lat="45.94926" lon="4.5832">
        <ele>525</ele>
        <time>2018-11-02T11:14:56Z</time>
      </trkpt>
      <trkpt lat="45.9493" lon="4.58317">
        <ele>525</ele>
        <time>2018-11-02T11:14:57Z</time>
      </trkpt>
      <trkpt lat="45.94934" lon="4.58315">
        <ele>525</ele>
        <time>2018-11-02T11:14:58Z</time>
      </trkpt>
      <trkpt lat="45.94941" lon="4.58309">
        <ele>524</ele>
        <time>2018-11-02T11:15:00Z</time>
      </trkpt>
      <trkpt lat="45.94946" lon="4.58308">
        <ele>524</ele>
        <time>2018-11-02T11:15:01Z</time>
      </trkpt>
      <trkpt lat="45.94953" lon="4.58306">
        <ele>524</ele>
        <time>2018-11-02T11:15:03Z</time>
      </trkpt>
      <trkpt lat="45.94957" lon="4.58305">
        <ele>524</ele>
        <time>2018-11-02T11:15:04Z</time>
      </trkpt>
      <trkpt lat="45.94962" lon="4.58303">
        <ele>524</ele>
        <time>2018-11-02T11:15:05Z</time>
      </trkpt>
      <trkpt lat="45.94966" lon="4.58302">
        <ele>524</ele>
        <time>2018-11-02T11:15:06Z</time>
      </trkpt>
      <trkpt lat="45.94974" lon="4.583">
        <ele>524</ele>
        <time>2018-11-02T11:15:08Z</time>
      </trkpt>
      <trkpt lat="45.94979" lon="4.583">
        <ele>524</ele>
        <time>2018-11-02T11:15:09Z</time>
      </trkpt>
      <trkpt lat="45.94984" lon="4.583">
        <ele>524</ele>
        <time>2018-11-02T11:15:10Z</time>
      </trkpt>
      <trkpt lat="45.94988" lon="4.583">
        <ele>524</ele>
        <time>2018-11-02T11:15:11Z</time>
      </trkpt>
      <trkpt lat="45.94997" lon="4.58301">
        <ele>524</ele>
        <time>2018-11-02T11:15:13Z</time>
      </trkpt>
      <trkpt lat="45.95001" lon="4.58301">
        <ele>523</ele>
        <time>2018-11-02T11:15:14Z</time>
      </trkpt>
      <trkpt lat="45.95009" lon="4.58302">
        <ele>523</ele>
        <time>2018-11-02T11:15:16Z</time>
      </trkpt>
      <trkpt lat="45.95013" lon="4.58302">
        <ele>523</ele>
        <time>2018-11-02T11:15:17Z</time>
      </trkpt>
      <trkpt lat="45.95018" lon="4.58303">
        <ele>523</ele>
        <time>2018-11-02T11:15:18Z</time>
      </trkpt>
      <trkpt lat="45.95023" lon="4.58303">
        <ele>523</ele>
        <time>2018-11-02T11:15:19Z</time>
      </trkpt>
      <trkpt lat="45.95028" lon="4.58304">
        <ele>523</ele>
        <time>2018-11-02T11:15:20Z</time>
      </trkpt>
      <trkpt lat="45.95033" lon="4.58305">
        <ele>523</ele>
        <time>2018-11-02T11:15:21Z</time>
      </trkpt>
      <trkpt lat="45.95038" lon="4.58305">
        <ele>523</ele>
        <time>2018-11-02T11:15:22Z</time>
      </trkpt>
      <trkpt lat="45.95044" lon="4.58304">
        <ele>522</ele>
        <time>2018-11-02T11:15:23Z</time>
      </trkpt>
      <trkpt lat="45.95048" lon="4.58304">
        <ele>522</ele>
        <time>2018-11-02T11:15:24Z</time>
      </trkpt>
      <trkpt lat="45.95053" lon="4.58305">
        <ele>522</ele>
        <time>2018-11-02T11:15:25Z</time>
      </trkpt>
      <trkpt lat="45.95059" lon="4.58306">
        <ele>523</ele>
        <time>2018-11-02T11:15:26Z</time>
      </trkpt>
      <trkpt lat="45.95064" lon="4.58307">
        <ele>523</ele>
        <time>2018-11-02T11:15:27Z</time>
      </trkpt>
      <trkpt lat="45.95068" lon="4.58308">
        <ele>523</ele>
        <time>2018-11-02T11:15:28Z</time>
      </trkpt>
      <trkpt lat="45.95073" lon="4.58308">
        <ele>523</ele>
        <time>2018-11-02T11:15:29Z</time>
      </trkpt>
      <trkpt lat="45.95078" lon="4.58309">
        <ele>523</ele>
        <time>2018-11-02T11:15:30Z</time>
      </trkpt>
      <trkpt lat="45.95083" lon="4.58308">
        <ele>523</ele>
        <time>2018-11-02T11:15:31Z</time>
      </trkpt>
      <trkpt lat="45.95088" lon="4.58308">
        <ele>522</ele>
        <time>2018-11-02T11:15:32Z</time>
      </trkpt>
      <trkpt lat="45.95093" lon="4.58309">
        <ele>522</ele>
        <time>2018-11-02T11:15:33Z</time>
      </trkpt>
      <trkpt lat="45.95098" lon="4.5831">
        <ele>522</ele>
        <time>2018-11-02T11:15:34Z</time>
      </trkpt>
      <trkpt lat="45.95103" lon="4.58311">
        <ele>522</ele>
        <time>2018-11-02T11:15:35Z</time>
      </trkpt>
      <trkpt lat="45.95109" lon="4.58312">
        <ele>522</ele>
        <time>2018-11-02T11:15:36Z</time>
      </trkpt>
      <trkpt lat="45.95114" lon="4.58312">
        <ele>521</ele>
        <time>2018-11-02T11:15:37Z</time>
      </trkpt>
      <trkpt lat="45.95119" lon="4.58312">
        <ele>521</ele>
        <time>2018-11-02T11:15:38Z</time>
      </trkpt>
      <trkpt lat="45.95124" lon="4.58312">
        <ele>521</ele>
        <time>2018-11-02T11:15:39Z</time>
      </trkpt>
      <trkpt lat="45.95129" lon="4.58313">
        <ele>521</ele>
        <time>2018-11-02T11:15:40Z</time>
      </trkpt>
      <trkpt lat="45.95133" lon="4.58312">
        <ele>521</ele>
        <time>2018-11-02T11:15:41Z</time>
      </trkpt>
      <trkpt lat="45.95138" lon="4.58313">
        <ele>522</ele>
        <time>2018-11-02T11:15:42Z</time>
      </trkpt>
      <trkpt lat="45.95143" lon="4.58314">
        <ele>522</ele>
        <time>2018-11-02T11:15:43Z</time>
      </trkpt>
      <trkpt lat="45.95151" lon="4.58315">
        <ele>522</ele>
        <time>2018-11-02T11:15:45Z</time>
      </trkpt>
      <trkpt lat="45.95156" lon="4.58315">
        <ele>523</ele>
        <time>2018-11-02T11:15:46Z</time>
      </trkpt>
      <trkpt lat="45.95161" lon="4.58316">
        <ele>523</ele>
        <time>2018-11-02T11:15:47Z</time>
      </trkpt>
      <trkpt lat="45.95166" lon="4.58317">
        <ele>523</ele>
        <time>2018-11-02T11:15:48Z</time>
      </trkpt>
      <trkpt lat="45.95171" lon="4.58318">
        <ele>522</ele>
        <time>2018-11-02T11:15:49Z</time>
      </trkpt>
      <trkpt lat="45.95176" lon="4.58318">
        <ele>521</ele>
        <time>2018-11-02T11:15:50Z</time>
      </trkpt>
      <trkpt lat="45.95182" lon="4.58319">
        <ele>521</ele>
        <time>2018-11-02T11:15:51Z</time>
      </trkpt>
      <trkpt lat="45.95187" lon="4.5832">
        <ele>520</ele>
        <time>2018-11-02T11:15:52Z</time>
      </trkpt>
      <trkpt lat="45.95193" lon="4.58321">
        <ele>520</ele>
        <time>2018-11-02T11:15:53Z</time>
      </trkpt>
      <trkpt lat="45.95197" lon="4.58322">
        <ele>519</ele>
        <time>2018-11-02T11:15:54Z</time>
      </trkpt>
      <trkpt lat="45.95202" lon="4.58323">
        <ele>519</ele>
        <time>2018-11-02T11:15:55Z</time>
      </trkpt>
      <trkpt lat="45.95207" lon="4.58324">
        <ele>519</ele>
        <time>2018-11-02T11:15:56Z</time>
      </trkpt>
      <trkpt lat="45.95211" lon="4.58327">
        <ele>519</ele>
        <time>2018-11-02T11:15:57Z</time>
      </trkpt>
      <trkpt lat="45.95216" lon="4.58328">
        <ele>519</ele>
        <time>2018-11-02T11:15:58Z</time>
      </trkpt>
      <trkpt lat="45.95221" lon="4.58329">
        <ele>519</ele>
        <time>2018-11-02T11:15:59Z</time>
      </trkpt>
      <trkpt lat="45.95225" lon="4.5833">
        <ele>519</ele>
        <time>2018-11-02T11:16:00Z</time>
      </trkpt>
      <trkpt lat="45.95233" lon="4.58332">
        <ele>519</ele>
        <time>2018-11-02T11:16:02Z</time>
      </trkpt>
      <trkpt lat="45.95237" lon="4.58333">
        <ele>519</ele>
        <time>2018-11-02T11:16:03Z</time>
      </trkpt>
      <trkpt lat="45.95241" lon="4.58334">
        <ele>524</ele>
        <time>2018-11-02T11:16:04Z</time>
      </trkpt>
      <trkpt lat="45.95246" lon="4.58336">
        <ele>523</ele>
        <time>2018-11-02T11:16:05Z</time>
      </trkpt>
      <trkpt lat="45.95251" lon="4.58338">
        <ele>521</ele>
        <time>2018-11-02T11:16:06Z</time>
      </trkpt>
      <trkpt lat="45.95256" lon="4.5834">
        <ele>522</ele>
        <time>2018-11-02T11:16:07Z</time>
      </trkpt>
      <trkpt lat="45.95262" lon="4.58343">
        <ele>522</ele>
        <time>2018-11-02T11:16:08Z</time>
      </trkpt>
      <trkpt lat="45.95267" lon="4.58346">
        <ele>522</ele>
        <time>2018-11-02T11:16:09Z</time>
      </trkpt>
      <trkpt lat="45.95272" lon="4.58348">
        <ele>522</ele>
        <time>2018-11-02T11:16:10Z</time>
      </trkpt>
      <trkpt lat="45.95277" lon="4.5835">
        <ele>522</ele>
        <time>2018-11-02T11:16:11Z</time>
      </trkpt>
      <trkpt lat="45.95282" lon="4.58353">
        <ele>522</ele>
        <time>2018-11-02T11:16:12Z</time>
      </trkpt>
      <trkpt lat="45.95287" lon="4.58356">
        <ele>522</ele>
        <time>2018-11-02T11:16:13Z</time>
      </trkpt>
      <trkpt lat="45.95291" lon="4.5836">
        <ele>522</ele>
        <time>2018-11-02T11:16:14Z</time>
      </trkpt>
      <trkpt lat="45.95296" lon="4.58363">
        <ele>522</ele>
        <time>2018-11-02T11:16:15Z</time>
      </trkpt>
      <trkpt lat="45.95301" lon="4.58364">
        <ele>522</ele>
        <time>2018-11-02T11:16:16Z</time>
      </trkpt>
      <trkpt lat="45.95305" lon="4.58368">
        <ele>522</ele>
        <time>2018-11-02T11:16:17Z</time>
      </trkpt>
      <trkpt lat="45.95313" lon="4.58373">
        <ele>522</ele>
        <time>2018-11-02T11:16:19Z</time>
      </trkpt>
      <trkpt lat="45.95316" lon="4.58377">
        <ele>522</ele>
        <time>2018-11-02T11:16:20Z</time>
      </trkpt>
      <trkpt lat="45.95321" lon="4.5838">
        <ele>522</ele>
        <time>2018-11-02T11:16:21Z</time>
      </trkpt>
      <trkpt lat="45.95325" lon="4.58385">
        <ele>523</ele>
        <time>2018-11-02T11:16:22Z</time>
      </trkpt>
      <trkpt lat="45.95329" lon="4.58389">
        <ele>523</ele>
        <time>2018-11-02T11:16:23Z</time>
      </trkpt>
      <trkpt lat="45.95334" lon="4.58393">
        <ele>517</ele>
        <time>2018-11-02T11:16:24Z</time>
      </trkpt>
      <trkpt lat="45.95338" lon="4.58397">
        <ele>518</ele>
        <time>2018-11-02T11:16:25Z</time>
      </trkpt>
      <trkpt lat="45.95342" lon="4.58401">
        <ele>519</ele>
        <time>2018-11-02T11:16:26Z</time>
      </trkpt>
      <trkpt lat="45.95346" lon="4.58406">
        <ele>519</ele>
        <time>2018-11-02T11:16:27Z</time>
      </trkpt>
      <trkpt lat="45.95349" lon="4.5841">
        <ele>519</ele>
        <time>2018-11-02T11:16:28Z</time>
      </trkpt>
      <trkpt lat="45.95357" lon="4.58417">
        <ele>524</ele>
        <time>2018-11-02T11:16:30Z</time>
      </trkpt>
      <trkpt lat="45.95361" lon="4.5842">
        <ele>524</ele>
        <time>2018-11-02T11:16:31Z</time>
      </trkpt>
      <trkpt lat="45.95365" lon="4.58424">
        <ele>524</ele>
        <time>2018-11-02T11:16:32Z</time>
      </trkpt>
      <trkpt lat="45.95368" lon="4.58428">
        <ele>524</ele>
        <time>2018-11-02T11:16:33Z</time>
      </trkpt>
      <trkpt lat="45.95372" lon="4.58431">
        <ele>523</ele>
        <time>2018-11-02T11:16:34Z</time>
      </trkpt>
      <trkpt lat="45.95376" lon="4.58436">
        <ele>523</ele>
        <time>2018-11-02T11:16:35Z</time>
      </trkpt>
      <trkpt lat="45.95383" lon="4.58443">
        <ele>523</ele>
        <time>2018-11-02T11:16:37Z</time>
      </trkpt>
      <trkpt lat="45.95386" lon="4.58447">
        <ele>523</ele>
        <time>2018-11-02T11:16:38Z</time>
      </trkpt>
      <trkpt lat="45.9539" lon="4.58452">
        <ele>523</ele>
        <time>2018-11-02T11:16:39Z</time>
      </trkpt>
      <trkpt lat="45.95393" lon="4.58457">
        <ele>524</ele>
        <time>2018-11-02T11:16:40Z</time>
      </trkpt>
      <trkpt lat="45.95397" lon="4.58462">
        <ele>524</ele>
        <time>2018-11-02T11:16:41Z</time>
      </trkpt>
      <trkpt lat="45.95401" lon="4.58466">
        <ele>524</ele>
        <time>2018-11-02T11:16:42Z</time>
      </trkpt>
      <trkpt lat="45.95405" lon="4.58471">
        <ele>525</ele>
        <time>2018-11-02T11:16:43Z</time>
      </trkpt>
      <trkpt lat="45.95409" lon="4.58476">
        <ele>525</ele>
        <time>2018-11-02T11:16:44Z</time>
      </trkpt>
      <trkpt lat="45.95413" lon="4.5848">
        <ele>525</ele>
        <time>2018-11-02T11:16:45Z</time>
      </trkpt>
      <trkpt lat="45.95416" lon="4.58485">
        <ele>526</ele>
        <time>2018-11-02T11:16:46Z</time>
      </trkpt>
      <trkpt lat="45.9542" lon="4.5849">
        <ele>521</ele>
        <time>2018-11-02T11:16:47Z</time>
      </trkpt>
      <trkpt lat="45.95425" lon="4.58496">
        <ele>521</ele>
        <time>2018-11-02T11:16:48Z</time>
      </trkpt>
      <trkpt lat="45.95429" lon="4.58501">
        <ele>524</ele>
        <time>2018-11-02T11:16:49Z</time>
      </trkpt>
      <trkpt lat="45.95432" lon="4.58506">
        <ele>523</ele>
        <time>2018-11-02T11:16:50Z</time>
      </trkpt>
      <trkpt lat="45.95436" lon="4.58511">
        <ele>522</ele>
        <time>2018-11-02T11:16:51Z</time>
      </trkpt>
      <trkpt lat="45.95441" lon="4.58515">
        <ele>521</ele>
        <time>2018-11-02T11:16:52Z</time>
      </trkpt>
      <trkpt lat="45.95444" lon="4.58519">
        <ele>520</ele>
        <time>2018-11-02T11:16:53Z</time>
      </trkpt>
      <trkpt lat="45.95447" lon="4.58525">
        <ele>520</ele>
        <time>2018-11-02T11:16:54Z</time>
      </trkpt>
      <trkpt lat="45.9545" lon="4.58531">
        <ele>520</ele>
        <time>2018-11-02T11:16:55Z</time>
      </trkpt>
      <trkpt lat="45.95453" lon="4.58538">
        <ele>520</ele>
        <time>2018-11-02T11:16:56Z</time>
      </trkpt>
      <trkpt lat="45.95456" lon="4.58543">
        <ele>519</ele>
        <time>2018-11-02T11:16:57Z</time>
      </trkpt>
      <trkpt lat="45.95459" lon="4.58549">
        <ele>519</ele>
        <time>2018-11-02T11:16:58Z</time>
      </trkpt>
      <trkpt lat="45.95463" lon="4.58555">
        <ele>519</ele>
        <time>2018-11-02T11:16:59Z</time>
      </trkpt>
      <trkpt lat="45.95465" lon="4.58563">
        <ele>519</ele>
        <time>2018-11-02T11:17:00Z</time>
      </trkpt>
      <trkpt lat="45.95468" lon="4.5857">
        <ele>518</ele>
        <time>2018-11-02T11:17:01Z</time>
      </trkpt>
      <trkpt lat="45.9547" lon="4.58577">
        <ele>518</ele>
        <time>2018-11-02T11:17:02Z</time>
      </trkpt>
      <trkpt lat="45.9547" lon="4.58584">
        <ele>521</ele>
        <time>2018-11-02T11:17:03Z</time>
      </trkpt>
      <trkpt lat="45.95472" lon="4.5859">
        <ele>521</ele>
        <time>2018-11-02T11:17:04Z</time>
      </trkpt>
      <trkpt lat="45.95477" lon="4.586">
        <ele>520</ele>
        <time>2018-11-02T11:17:06Z</time>
      </trkpt>
      <trkpt lat="45.95478" lon="4.58606">
        <ele>520</ele>
        <time>2018-11-02T11:17:07Z</time>
      </trkpt>
      <trkpt lat="45.95481" lon="4.58617">
        <ele>521</ele>
        <time>2018-11-02T11:17:09Z</time>
      </trkpt>
      <trkpt lat="45.95482" lon="4.58623">
        <ele>521</ele>
        <time>2018-11-02T11:17:10Z</time>
      </trkpt>
      <trkpt lat="45.95485" lon="4.58635">
        <ele>521</ele>
        <time>2018-11-02T11:17:12Z</time>
      </trkpt>
      <trkpt lat="45.95485" lon="4.58641">
        <ele>520</ele>
        <time>2018-11-02T11:17:13Z</time>
      </trkpt>
      <trkpt lat="45.95486" lon="4.58648">
        <ele>520</ele>
        <time>2018-11-02T11:17:14Z</time>
      </trkpt>
      <trkpt lat="45.95488" lon="4.58654">
        <ele>519</ele>
        <time>2018-11-02T11:17:15Z</time>
      </trkpt>
      <trkpt lat="45.95489" lon="4.58661">
        <ele>518</ele>
        <time>2018-11-02T11:17:16Z</time>
      </trkpt>
      <trkpt lat="45.9549" lon="4.58668">
        <ele>519</ele>
        <time>2018-11-02T11:17:17Z</time>
      </trkpt>
      <trkpt lat="45.95491" lon="4.58675">
        <ele>519</ele>
        <time>2018-11-02T11:17:18Z</time>
      </trkpt>
      <trkpt lat="45.95492" lon="4.58682">
        <ele>521</ele>
        <time>2018-11-02T11:17:19Z</time>
      </trkpt>
      <trkpt lat="45.95493" lon="4.58688">
        <ele>521</ele>
        <time>2018-11-02T11:17:20Z</time>
      </trkpt>
      <trkpt lat="45.95494" lon="4.58696">
        <ele>522</ele>
        <time>2018-11-02T11:17:21Z</time>
      </trkpt>
      <trkpt lat="45.95494" lon="4.58703">
        <ele>523</ele>
        <time>2018-11-02T11:17:22Z</time>
      </trkpt>
      <trkpt lat="45.95494" lon="4.58711">
        <ele>523</ele>
        <time>2018-11-02T11:17:23Z</time>
      </trkpt>
      <trkpt lat="45.95495" lon="4.5872">
        <ele>523</ele>
        <time>2018-11-02T11:17:24Z</time>
      </trkpt>
      <trkpt lat="45.95493" lon="4.58728">
        <ele>523</ele>
        <time>2018-11-02T11:17:25Z</time>
      </trkpt>
      <trkpt lat="45.95493" lon="4.58734">
        <ele>523</ele>
        <time>2018-11-02T11:17:26Z</time>
      </trkpt>
      <trkpt lat="45.95493" lon="4.58742">
        <ele>522</ele>
        <time>2018-11-02T11:17:27Z</time>
      </trkpt>
      <trkpt lat="45.95492" lon="4.58749">
        <ele>522</ele>
        <time>2018-11-02T11:17:28Z</time>
      </trkpt>
      <trkpt lat="45.95491" lon="4.58757">
        <ele>524</ele>
        <time>2018-11-02T11:17:29Z</time>
      </trkpt>
      <trkpt lat="45.95491" lon="4.58764">
        <ele>525</ele>
        <time>2018-11-02T11:17:30Z</time>
      </trkpt>
      <trkpt lat="45.95491" lon="4.58771">
        <ele>526</ele>
        <time>2018-11-02T11:17:31Z</time>
      </trkpt>
      <trkpt lat="45.95493" lon="4.58777">
        <ele>527</ele>
        <time>2018-11-02T11:17:32Z</time>
      </trkpt>
      <trkpt lat="45.95494" lon="4.58784">
        <ele>527</ele>
        <time>2018-11-02T11:17:33Z</time>
      </trkpt>
      <trkpt lat="45.95496" lon="4.5879">
        <ele>528</ele>
        <time>2018-11-02T11:17:34Z</time>
      </trkpt>
      <trkpt lat="45.95498" lon="4.58797">
        <ele>528</ele>
        <time>2018-11-02T11:17:35Z</time>
      </trkpt>
      <trkpt lat="45.95501" lon="4.58803">
        <ele>520</ele>
        <time>2018-11-02T11:17:36Z</time>
      </trkpt>
      <trkpt lat="45.95503" lon="4.58809">
        <ele>521</ele>
        <time>2018-11-02T11:17:37Z</time>
      </trkpt>
      <trkpt lat="45.95507" lon="4.58816">
        <ele>521</ele>
        <time>2018-11-02T11:17:38Z</time>
      </trkpt>
      <trkpt lat="45.9551" lon="4.58823">
        <ele>522</ele>
        <time>2018-11-02T11:17:39Z</time>
      </trkpt>
      <trkpt lat="45.95515" lon="4.58828">
        <ele>522</ele>
        <time>2018-11-02T11:17:40Z</time>
      </trkpt>
      <trkpt lat="45.95518" lon="4.58836">
        <ele>527</ele>
        <time>2018-11-02T11:17:41Z</time>
      </trkpt>
      <trkpt lat="45.95522" lon="4.58842">
        <ele>527</ele>
        <time>2018-11-02T11:17:42Z</time>
      </trkpt>
      <trkpt lat="45.95526" lon="4.58847">
        <ele>527</ele>
        <time>2018-11-02T11:17:43Z</time>
      </trkpt>
      <trkpt lat="45.95531" lon="4.58852">
        <ele>527</ele>
        <time>2018-11-02T11:17:44Z</time>
      </trkpt>
      <trkpt lat="45.95535" lon="4.58855">
        <ele>527</ele>
        <time>2018-11-02T11:17:45Z</time>
      </trkpt>
      <trkpt lat="45.9554" lon="4.58858">
        <ele>527</ele>
        <time>2018-11-02T11:17:46Z</time>
      </trkpt>
      <trkpt lat="45.95545" lon="4.58859">
        <ele>527</ele>
        <time>2018-11-02T11:17:47Z</time>
      </trkpt>
      <trkpt lat="45.95551" lon="4.58861">
        <ele>527</ele>
        <time>2018-11-02T11:17:48Z</time>
      </trkpt>
      <trkpt lat="45.95556" lon="4.58862">
        <ele>527</ele>
        <time>2018-11-02T11:17:49Z</time>
      </trkpt>
      <trkpt lat="45.95561" lon="4.58863">
        <ele>526</ele>
        <time>2018-11-02T11:17:50Z</time>
      </trkpt>
      <trkpt lat="45.95567" lon="4.58863">
        <ele>526</ele>
        <time>2018-11-02T11:17:51Z</time>
      </trkpt>
      <trkpt lat="45.95572" lon="4.58863">
        <ele>526</ele>
        <time>2018-11-02T11:17:52Z</time>
      </trkpt>
      <trkpt lat="45.95577" lon="4.58863">
        <ele>526</ele>
        <time>2018-11-02T11:17:53Z</time>
      </trkpt>
      <trkpt lat="45.95583" lon="4.58863">
        <ele>525</ele>
        <time>2018-11-02T11:17:54Z</time>
      </trkpt>
      <trkpt lat="45.95588" lon="4.58863">
        <ele>525</ele>
        <time>2018-11-02T11:17:55Z</time>
      </trkpt>
      <trkpt lat="45.95593" lon="4.58864">
        <ele>525</ele>
        <time>2018-11-02T11:17:56Z</time>
      </trkpt>
      <trkpt lat="45.95598" lon="4.58864">
        <ele>525</ele>
        <time>2018-11-02T11:17:57Z</time>
      </trkpt>
      <trkpt lat="45.95604" lon="4.58865">
        <ele>525</ele>
        <time>2018-11-02T11:17:58Z</time>
      </trkpt>
      <trkpt lat="45.95609" lon="4.58864">
        <ele>525</ele>
        <time>2018-11-02T11:17:59Z</time>
      </trkpt>
      <trkpt lat="45.95616" lon="4.58863">
        <ele>525</ele>
        <time>2018-11-02T11:18:00Z</time>
      </trkpt>
      <trkpt lat="45.95621" lon="4.58863">
        <ele>525</ele>
        <time>2018-11-02T11:18:01Z</time>
      </trkpt>
      <trkpt lat="45.95627" lon="4.58863">
        <ele>525</ele>
        <time>2018-11-02T11:18:02Z</time>
      </trkpt>
      <trkpt lat="45.95633" lon="4.58862">
        <ele>525</ele>
        <time>2018-11-02T11:18:03Z</time>
      </trkpt>
      <trkpt lat="45.95638" lon="4.5886">
        <ele>525</ele>
        <time>2018-11-02T11:18:04Z</time>
      </trkpt>
      <trkpt lat="45.95644" lon="4.58857">
        <ele>524</ele>
        <time>2018-11-02T11:18:05Z</time>
      </trkpt>
      <trkpt lat="45.95649" lon="4.58855">
        <ele>524</ele>
        <time>2018-11-02T11:18:06Z</time>
      </trkpt>
      <trkpt lat="45.95655" lon="4.58854">
        <ele>523</ele>
        <time>2018-11-02T11:18:07Z</time>
      </trkpt>
      <trkpt lat="45.95661" lon="4.58853">
        <ele>523</ele>
        <time>2018-11-02T11:18:08Z</time>
      </trkpt>
      <trkpt lat="45.95666" lon="4.58853">
        <ele>522</ele>
        <time>2018-11-02T11:18:09Z</time>
      </trkpt>
      <trkpt lat="45.95672" lon="4.58851">
        <ele>525</ele>
        <time>2018-11-02T11:18:10Z</time>
      </trkpt>
      <trkpt lat="45.95677" lon="4.58849">
        <ele>526</ele>
        <time>2018-11-02T11:18:11Z</time>
      </trkpt>
      <trkpt lat="45.95682" lon="4.58847">
        <ele>526</ele>
        <time>2018-11-02T11:18:12Z</time>
      </trkpt>
      <trkpt lat="45.95687" lon="4.58846">
        <ele>527</ele>
        <time>2018-11-02T11:18:13Z</time>
      </trkpt>
      <trkpt lat="45.95691" lon="4.58844">
        <ele>528</ele>
        <time>2018-11-02T11:18:14Z</time>
      </trkpt>
      <trkpt lat="45.95697" lon="4.58842">
        <ele>528</ele>
        <time>2018-11-02T11:18:15Z</time>
      </trkpt>
      <trkpt lat="45.95702" lon="4.58839">
        <ele>529</ele>
        <time>2018-11-02T11:18:16Z</time>
      </trkpt>
      <trkpt lat="45.95706" lon="4.58838">
        <ele>529</ele>
        <time>2018-11-02T11:18:17Z</time>
      </trkpt>
      <trkpt lat="45.9571" lon="4.58834">
        <ele>530</ele>
        <time>2018-11-02T11:18:18Z</time>
      </trkpt>
      <trkpt lat="45.95714" lon="4.5883">
        <ele>518</ele>
        <time>2018-11-02T11:18:19Z</time>
      </trkpt>
      <trkpt lat="45.95719" lon="4.58826">
        <ele>518</ele>
        <time>2018-11-02T11:18:20Z</time>
      </trkpt>
      <trkpt lat="45.95722" lon="4.58822">
        <ele>518</ele>
        <time>2018-11-02T11:18:21Z</time>
      </trkpt>
      <trkpt lat="45.95726" lon="4.58818">
        <ele>519</ele>
        <time>2018-11-02T11:18:22Z</time>
      </trkpt>
      <trkpt lat="45.9573" lon="4.58814">
        <ele>519</ele>
        <time>2018-11-02T11:18:23Z</time>
      </trkpt>
      <trkpt lat="45.95735" lon="4.58811">
        <ele>519</ele>
        <time>2018-11-02T11:18:24Z</time>
      </trkpt>
      <trkpt lat="45.95739" lon="4.58808">
        <ele>519</ele>
        <time>2018-11-02T11:18:25Z</time>
      </trkpt>
      <trkpt lat="45.95744" lon="4.58805">
        <ele>518</ele>
        <time>2018-11-02T11:18:26Z</time>
      </trkpt>
      <trkpt lat="45.95748" lon="4.58801">
        <ele>518</ele>
        <time>2018-11-02T11:18:27Z</time>
      </trkpt>
      <trkpt lat="45.95752" lon="4.58799">
        <ele>525</ele>
        <time>2018-11-02T11:18:28Z</time>
      </trkpt>
      <trkpt lat="45.95756" lon="4.58795">
        <ele>525</ele>
        <time>2018-11-02T11:18:29Z</time>
      </trkpt>
      <trkpt lat="45.95764" lon="4.5879">
        <ele>524</ele>
        <time>2018-11-02T11:18:31Z</time>
      </trkpt>
      <trkpt lat="45.95768" lon="4.58787">
        <ele>524</ele>
        <time>2018-11-02T11:18:32Z</time>
      </trkpt>
      <trkpt lat="45.95773" lon="4.58784">
        <ele>524</ele>
        <time>2018-11-02T11:18:33Z</time>
      </trkpt>
      <trkpt lat="45.95778" lon="4.58782">
        <ele>524</ele>
        <time>2018-11-02T11:18:34Z</time>
      </trkpt>
      <trkpt lat="45.95782" lon="4.5878">
        <ele>524</ele>
        <time>2018-11-02T11:18:35Z</time>
      </trkpt>
      <trkpt lat="45.95787" lon="4.58778">
        <ele>524</ele>
        <time>2018-11-02T11:18:36Z</time>
      </trkpt>
      <trkpt lat="45.95793" lon="4.58775">
        <ele>525</ele>
        <time>2018-11-02T11:18:37Z</time>
      </trkpt>
      <trkpt lat="45.95797" lon="4.58773">
        <ele>525</ele>
        <time>2018-11-02T11:18:38Z</time>
      </trkpt>
      <trkpt lat="45.95802" lon="4.5877">
        <ele>525</ele>
        <time>2018-11-02T11:18:39Z</time>
      </trkpt>
      <trkpt lat="45.95807" lon="4.58766">
        <ele>525</ele>
        <time>2018-11-02T11:18:40Z</time>
      </trkpt>
      <trkpt lat="45.95811" lon="4.58763">
        <ele>525</ele>
        <time>2018-11-02T11:18:41Z</time>
      </trkpt>
      <trkpt lat="45.95815" lon="4.5876">
        <ele>525</ele>
        <time>2018-11-02T11:18:42Z</time>
      </trkpt>
      <trkpt lat="45.9582" lon="4.58756">
        <ele>525</ele>
        <time>2018-11-02T11:18:43Z</time>
      </trkpt>
      <trkpt lat="45.95824" lon="4.58753">
        <ele>525</ele>
        <time>2018-11-02T11:18:44Z</time>
      </trkpt>
      <trkpt lat="45.95828" lon="4.58751">
        <ele>524</ele>
        <time>2018-11-02T11:18:45Z</time>
      </trkpt>
      <trkpt lat="45.95833" lon="4.58747">
        <ele>522</ele>
        <time>2018-11-02T11:18:46Z</time>
      </trkpt>
      <trkpt lat="45.95839" lon="4.58741">
        <ele>525</ele>
        <time>2018-11-02T11:18:47Z</time>
      </trkpt>
      <trkpt lat="45.95844" lon="4.58737">
        <ele>526</ele>
        <time>2018-11-02T11:18:48Z</time>
      </trkpt>
      <trkpt lat="45.9585" lon="4.5873">
        <ele>526</ele>
        <time>2018-11-02T11:18:50Z</time>
      </trkpt>
      <trkpt lat="45.95855" lon="4.58726">
        <ele>526</ele>
        <time>2018-11-02T11:18:51Z</time>
      </trkpt>
      <trkpt lat="45.95859" lon="4.58722">
        <ele>527</ele>
        <time>2018-11-02T11:18:52Z</time>
      </trkpt>
      <trkpt lat="45.95863" lon="4.58717">
        <ele>527</ele>
        <time>2018-11-02T11:18:53Z</time>
      </trkpt>
      <trkpt lat="45.95867" lon="4.58712">
        <ele>527</ele>
        <time>2018-11-02T11:18:54Z</time>
      </trkpt>
      <trkpt lat="45.95871" lon="4.58707">
        <ele>527</ele>
        <time>2018-11-02T11:18:55Z</time>
      </trkpt>
      <trkpt lat="45.95874" lon="4.58702">
        <ele>526</ele>
        <time>2018-11-02T11:18:56Z</time>
      </trkpt>
      <trkpt lat="45.95877" lon="4.58696">
        <ele>526</ele>
        <time>2018-11-02T11:18:57Z</time>
      </trkpt>
      <trkpt lat="45.9588" lon="4.5869">
        <ele>526</ele>
        <time>2018-11-02T11:18:58Z</time>
      </trkpt>
      <trkpt lat="45.95884" lon="4.58684">
        <ele>527</ele>
        <time>2018-11-02T11:18:59Z</time>
      </trkpt>
      <trkpt lat="45.95889" lon="4.58677">
        <ele>527</ele>
        <time>2018-11-02T11:19:00Z</time>
      </trkpt>
      <trkpt lat="45.95891" lon="4.5867">
        <ele>527</ele>
        <time>2018-11-02T11:19:01Z</time>
      </trkpt>
      <trkpt lat="45.95895" lon="4.58661">
        <ele>519</ele>
        <time>2018-11-02T11:19:03Z</time>
      </trkpt>
      <trkpt lat="45.95899" lon="4.58654">
        <ele>519</ele>
        <time>2018-11-02T11:19:04Z</time>
      </trkpt>
      <trkpt lat="45.95902" lon="4.58647">
        <ele>518</ele>
        <time>2018-11-02T11:19:05Z</time>
      </trkpt>
      <trkpt lat="45.95906" lon="4.58641">
        <ele>518</ele>
        <time>2018-11-02T11:19:06Z</time>
      </trkpt>
      <trkpt lat="45.95909" lon="4.58635">
        <ele>517</ele>
        <time>2018-11-02T11:19:07Z</time>
      </trkpt>
      <trkpt lat="45.95912" lon="4.58628">
        <ele>516</ele>
        <time>2018-11-02T11:19:08Z</time>
      </trkpt>
      <trkpt lat="45.95916" lon="4.58622">
        <ele>515</ele>
        <time>2018-11-02T11:19:09Z</time>
      </trkpt>
      <trkpt lat="45.95919" lon="4.58616">
        <ele>524</ele>
        <time>2018-11-02T11:19:10Z</time>
      </trkpt>
      <trkpt lat="45.95923" lon="4.58613">
        <ele>524</ele>
        <time>2018-11-02T11:19:11Z</time>
      </trkpt>
      <trkpt lat="45.95927" lon="4.58604">
        <ele>523</ele>
        <time>2018-11-02T11:19:12Z</time>
      </trkpt>
      <trkpt lat="45.95931" lon="4.58599">
        <ele>522</ele>
        <time>2018-11-02T11:19:13Z</time>
      </trkpt>
      <trkpt lat="45.95935" lon="4.58592">
        <ele>522</ele>
        <time>2018-11-02T11:19:14Z</time>
      </trkpt>
      <trkpt lat="45.9594" lon="4.58588">
        <ele>522</ele>
        <time>2018-11-02T11:19:15Z</time>
      </trkpt>
      <trkpt lat="45.95944" lon="4.58584">
        <ele>522</ele>
        <time>2018-11-02T11:19:16Z</time>
      </trkpt>
      <trkpt lat="45.9595" lon="4.5858">
        <ele>514</ele>
        <time>2018-11-02T11:19:17Z</time>
      </trkpt>
      <trkpt lat="45.95955" lon="4.58577">
        <ele>514</ele>
        <time>2018-11-02T11:19:18Z</time>
      </trkpt>
      <trkpt lat="45.9596" lon="4.58577">
        <ele>514</ele>
        <time>2018-11-02T11:19:19Z</time>
      </trkpt>
      <trkpt lat="45.95967" lon="4.58575">
        <ele>514</ele>
        <time>2018-11-02T11:19:20Z</time>
      </trkpt>
      <trkpt lat="45.95973" lon="4.58575">
        <ele>514</ele>
        <time>2018-11-02T11:19:21Z</time>
      </trkpt>
      <trkpt lat="45.95979" lon="4.58575">
        <ele>515</ele>
        <time>2018-11-02T11:19:22Z</time>
      </trkpt>
      <trkpt lat="45.95985" lon="4.58578">
        <ele>516</ele>
        <time>2018-11-02T11:19:23Z</time>
      </trkpt>
      <trkpt lat="45.9599" lon="4.58581">
        <ele>517</ele>
        <time>2018-11-02T11:19:24Z</time>
      </trkpt>
      <trkpt lat="45.95995" lon="4.58585">
        <ele>521</ele>
        <time>2018-11-02T11:19:25Z</time>
      </trkpt>
      <trkpt lat="45.96002" lon="4.58591">
        <ele>522</ele>
        <time>2018-11-02T11:19:26Z</time>
      </trkpt>
      <trkpt lat="45.96007" lon="4.58593">
        <ele>523</ele>
        <time>2018-11-02T11:19:27Z</time>
      </trkpt>
      <trkpt lat="45.96013" lon="4.58598">
        <ele>524</ele>
        <time>2018-11-02T11:19:28Z</time>
      </trkpt>
      <trkpt lat="45.96019" lon="4.58602">
        <ele>525</ele>
        <time>2018-11-02T11:19:29Z</time>
      </trkpt>
      <trkpt lat="45.96025" lon="4.58609">
        <ele>526</ele>
        <time>2018-11-02T11:19:30Z</time>
      </trkpt>
      <trkpt lat="45.96031" lon="4.58612">
        <ele>526</ele>
        <time>2018-11-02T11:19:31Z</time>
      </trkpt>
      <trkpt lat="45.96037" lon="4.58616">
        <ele>526</ele>
        <time>2018-11-02T11:19:32Z</time>
      </trkpt>
      <trkpt lat="45.96042" lon="4.58619">
        <ele>526</ele>
        <time>2018-11-02T11:19:33Z</time>
      </trkpt>
      <trkpt lat="45.96049" lon="4.58621">
        <ele>526</ele>
        <time>2018-11-02T11:19:34Z</time>
      </trkpt>
      <trkpt lat="45.96055" lon="4.58622">
        <ele>526</ele>
        <time>2018-11-02T11:19:35Z</time>
      </trkpt>
      <trkpt lat="45.96061" lon="4.58624">
        <ele>526</ele>
        <time>2018-11-02T11:19:36Z</time>
      </trkpt>
      <trkpt lat="45.96067" lon="4.58626">
        <ele>527</ele>
        <time>2018-11-02T11:19:37Z</time>
      </trkpt>
      <trkpt lat="45.96072" lon="4.58627">
        <ele>527</ele>
        <time>2018-11-02T11:19:38Z</time>
      </trkpt>
      <trkpt lat="45.96078" lon="4.58629">
        <ele>527</ele>
        <time>2018-11-02T11:19:39Z</time>
      </trkpt>
      <trkpt lat="45.96083" lon="4.58629">
        <ele>531</ele>
        <time>2018-11-02T11:19:40Z</time>
      </trkpt>
      <trkpt lat="45.96089" lon="4.58628">
        <ele>531</ele>
        <time>2018-11-02T11:19:41Z</time>
      </trkpt>
      <trkpt lat="45.96094" lon="4.58628">
        <ele>531</ele>
        <time>2018-11-02T11:19:42Z</time>
      </trkpt>
      <trkpt lat="45.96099" lon="4.58628">
        <ele>531</ele>
        <time>2018-11-02T11:19:43Z</time>
      </trkpt>
      <trkpt lat="45.96104" lon="4.58627">
        <ele>531</ele>
        <time>2018-11-02T11:19:44Z</time>
      </trkpt>
      <trkpt lat="45.96109" lon="4.58625">
        <ele>532</ele>
        <time>2018-11-02T11:19:45Z</time>
      </trkpt>
      <trkpt lat="45.96114" lon="4.58623">
        <ele>532</ele>
        <time>2018-11-02T11:19:46Z</time>
      </trkpt>
      <trkpt lat="45.96118" lon="4.58619">
        <ele>532</ele>
        <time>2018-11-02T11:19:47Z</time>
      </trkpt>
      <trkpt lat="45.96122" lon="4.58615">
        <ele>531</ele>
        <time>2018-11-02T11:19:48Z</time>
      </trkpt>
      <trkpt lat="45.96126" lon="4.5861">
        <ele>531</ele>
        <time>2018-11-02T11:19:49Z</time>
      </trkpt>
      <trkpt lat="45.96129" lon="4.58605">
        <ele>531</ele>
        <time>2018-11-02T11:19:50Z</time>
      </trkpt>
      <trkpt lat="45.96133" lon="4.586">
        <ele>531</ele>
        <time>2018-11-02T11:19:51Z</time>
      </trkpt>
      <trkpt lat="45.96137" lon="4.58594">
        <ele>531</ele>
        <time>2018-11-02T11:19:52Z</time>
      </trkpt>
      <trkpt lat="45.96142" lon="4.58588">
        <ele>531</ele>
        <time>2018-11-02T11:19:53Z</time>
      </trkpt>
      <trkpt lat="45.96146" lon="4.58583">
        <ele>520</ele>
        <time>2018-11-02T11:19:54Z</time>
      </trkpt>
      <trkpt lat="45.9615" lon="4.58578">
        <ele>521</ele>
        <time>2018-11-02T11:19:55Z</time>
      </trkpt>
      <trkpt lat="45.96155" lon="4.5857">
        <ele>521</ele>
        <time>2018-11-02T11:19:56Z</time>
      </trkpt>
      <trkpt lat="45.96158" lon="4.58565">
        <ele>520</ele>
        <time>2018-11-02T11:19:57Z</time>
      </trkpt>
      <trkpt lat="45.96162" lon="4.58559">
        <ele>519</ele>
        <time>2018-11-02T11:19:58Z</time>
      </trkpt>
      <trkpt lat="45.96166" lon="4.58553">
        <ele>517</ele>
        <time>2018-11-02T11:19:59Z</time>
      </trkpt>
      <trkpt lat="45.9617" lon="4.58548">
        <ele>525</ele>
        <time>2018-11-02T11:20:00Z</time>
      </trkpt>
      <trkpt lat="45.96174" lon="4.58543">
        <ele>524</ele>
        <time>2018-11-02T11:20:01Z</time>
      </trkpt>
      <trkpt lat="45.96178" lon="4.58538">
        <ele>523</ele>
        <time>2018-11-02T11:20:02Z</time>
      </trkpt>
      <trkpt lat="45.96183" lon="4.58533">
        <ele>523</ele>
        <time>2018-11-02T11:20:03Z</time>
      </trkpt>
      <trkpt lat="45.96187" lon="4.58529">
        <ele>522</ele>
        <time>2018-11-02T11:20:04Z</time>
      </trkpt>
      <trkpt lat="45.9619" lon="4.58525">
        <ele>522</ele>
        <time>2018-11-02T11:20:05Z</time>
      </trkpt>
      <trkpt lat="45.96194" lon="4.5852">
        <ele>521</ele>
        <time>2018-11-02T11:20:06Z</time>
      </trkpt>
      <trkpt lat="45.96202" lon="4.58515">
        <ele>522</ele>
        <time>2018-11-02T11:20:08Z</time>
      </trkpt>
      <trkpt lat="45.96206" lon="4.58512">
        <ele>522</ele>
        <time>2018-11-02T11:20:09Z</time>
      </trkpt>
      <trkpt lat="45.96214" lon="4.58508">
        <ele>522</ele>
        <time>2018-11-02T11:20:11Z</time>
      </trkpt>
      <trkpt lat="45.96218" lon="4.58506">
        <ele>522</ele>
        <time>2018-11-02T11:20:12Z</time>
      </trkpt>
      <trkpt lat="45.96227" lon="4.58504">
        <ele>522</ele>
        <time>2018-11-02T11:20:14Z</time>
      </trkpt>
      <trkpt lat="45.96233" lon="4.58503">
        <ele>521</ele>
        <time>2018-11-02T11:20:15Z</time>
      </trkpt>
      <trkpt lat="45.96239" lon="4.58503">
        <ele>521</ele>
        <time>2018-11-02T11:20:16Z</time>
      </trkpt>
      <trkpt lat="45.96244" lon="4.58503">
        <ele>520</ele>
        <time>2018-11-02T11:20:17Z</time>
      </trkpt>
      <trkpt lat="45.96249" lon="4.58504">
        <ele>519</ele>
        <time>2018-11-02T11:20:18Z</time>
      </trkpt>
      <trkpt lat="45.96254" lon="4.58505">
        <ele>520</ele>
        <time>2018-11-02T11:20:19Z</time>
      </trkpt>
      <trkpt lat="45.96259" lon="4.58507">
        <ele>522</ele>
        <time>2018-11-02T11:20:20Z</time>
      </trkpt>
      <trkpt lat="45.96264" lon="4.5851">
        <ele>523</ele>
        <time>2018-11-02T11:20:21Z</time>
      </trkpt>
      <trkpt lat="45.96268" lon="4.58513">
        <ele>523</ele>
        <time>2018-11-02T11:20:22Z</time>
      </trkpt>
      <trkpt lat="45.96273" lon="4.58515">
        <ele>524</ele>
        <time>2018-11-02T11:20:23Z</time>
      </trkpt>
      <trkpt lat="45.96279" lon="4.58519">
        <ele>525</ele>
        <time>2018-11-02T11:20:24Z</time>
      </trkpt>
      <trkpt lat="45.96284" lon="4.58522">
        <ele>525</ele>
        <time>2018-11-02T11:20:25Z</time>
      </trkpt>
      <trkpt lat="45.96289" lon="4.58525">
        <ele>525</ele>
        <time>2018-11-02T11:20:26Z</time>
      </trkpt>
      <trkpt lat="45.96295" lon="4.58527">
        <ele>525</ele>
        <time>2018-11-02T11:20:27Z</time>
      </trkpt>
      <trkpt lat="45.963" lon="4.58529">
        <ele>525</ele>
        <time>2018-11-02T11:20:28Z</time>
      </trkpt>
      <trkpt lat="45.96305" lon="4.58532">
        <ele>525</ele>
        <time>2018-11-02T11:20:29Z</time>
      </trkpt>
      <trkpt lat="45.96309" lon="4.58535">
        <ele>526</ele>
        <time>2018-11-02T11:20:30Z</time>
      </trkpt>
      <trkpt lat="45.96313" lon="4.58537">
        <ele>526</ele>
        <time>2018-11-02T11:20:31Z</time>
      </trkpt>
      <trkpt lat="45.96321" lon="4.58539">
        <ele>526</ele>
        <time>2018-11-02T11:20:33Z</time>
      </trkpt>
      <trkpt lat="45.96325" lon="4.5854">
        <ele>526</ele>
        <time>2018-11-02T11:20:34Z</time>
      </trkpt>
      <trkpt lat="45.96334" lon="4.58542">
        <ele>530</ele>
        <time>2018-11-02T11:20:36Z</time>
      </trkpt>
      <trkpt lat="45.96338" lon="4.58542">
        <ele>530</ele>
        <time>2018-11-02T11:20:37Z</time>
      </trkpt>
      <trkpt lat="45.96343" lon="4.5854">
        <ele>530</ele>
        <time>2018-11-02T11:20:38Z</time>
      </trkpt>
      <trkpt lat="45.96347" lon="4.5854">
        <ele>530</ele>
        <time>2018-11-02T11:20:39Z</time>
      </trkpt>
      <trkpt lat="45.96352" lon="4.58538">
        <ele>530</ele>
        <time>2018-11-02T11:20:40Z</time>
      </trkpt>
      <trkpt lat="45.96357" lon="4.58536">
        <ele>531</ele>
        <time>2018-11-02T11:20:41Z</time>
      </trkpt>
      <trkpt lat="45.96361" lon="4.58534">
        <ele>531</ele>
        <time>2018-11-02T11:20:42Z</time>
      </trkpt>
      <trkpt lat="45.96365" lon="4.58531">
        <ele>531</ele>
        <time>2018-11-02T11:20:43Z</time>
      </trkpt>
      <trkpt lat="45.96372" lon="4.58524">
        <ele>531</ele>
        <time>2018-11-02T11:20:45Z</time>
      </trkpt>
      <trkpt lat="45.96377" lon="4.5852">
        <ele>531</ele>
        <time>2018-11-02T11:20:46Z</time>
      </trkpt>
      <trkpt lat="45.9638" lon="4.58516">
        <ele>531</ele>
        <time>2018-11-02T11:20:47Z</time>
      </trkpt>
      <trkpt lat="45.96384" lon="4.58512">
        <ele>532</ele>
        <time>2018-11-02T11:20:48Z</time>
      </trkpt>
      <trkpt lat="45.96388" lon="4.58508">
        <ele>532</ele>
        <time>2018-11-02T11:20:49Z</time>
      </trkpt>
      <trkpt lat="45.96392" lon="4.58504">
        <ele>532</ele>
        <time>2018-11-02T11:20:50Z</time>
      </trkpt>
      <trkpt lat="45.96398" lon="4.58497">
        <ele>522</ele>
        <time>2018-11-02T11:20:52Z</time>
      </trkpt>
      <trkpt lat="45.96401" lon="4.58494">
        <ele>523</ele>
        <time>2018-11-02T11:20:53Z</time>
      </trkpt>
      <trkpt lat="45.96405" lon="4.5849">
        <ele>524</ele>
        <time>2018-11-02T11:20:54Z</time>
      </trkpt>
      <trkpt lat="45.96408" lon="4.58481">
        <ele>522</ele>
        <time>2018-11-02T11:20:55Z</time>
      </trkpt>
      <trkpt lat="45.96414" lon="4.58475">
        <ele>520</ele>
        <time>2018-11-02T11:20:57Z</time>
      </trkpt>
      <trkpt lat="45.96418" lon="4.58471">
        <ele>530</ele>
        <time>2018-11-02T11:20:58Z</time>
      </trkpt>
      <trkpt lat="45.96425" lon="4.58465">
        <ele>529</ele>
        <time>2018-11-02T11:21:00Z</time>
      </trkpt>
      <trkpt lat="45.96428" lon="4.58462">
        <ele>529</ele>
        <time>2018-11-02T11:21:01Z</time>
      </trkpt>
      <trkpt lat="45.96434" lon="4.58454">
        <ele>528</ele>
        <time>2018-11-02T11:21:03Z</time>
      </trkpt>
      <trkpt lat="45.96438" lon="4.5845">
        <ele>527</ele>
        <time>2018-11-02T11:21:04Z</time>
      </trkpt>
      <trkpt lat="45.96442" lon="4.58445">
        <ele>527</ele>
        <time>2018-11-02T11:21:05Z</time>
      </trkpt>
      <trkpt lat="45.96445" lon="4.5844">
        <ele>527</ele>
        <time>2018-11-02T11:21:06Z</time>
      </trkpt>
      <trkpt lat="45.96449" lon="4.58436">
        <ele>527</ele>
        <time>2018-11-02T11:21:07Z</time>
      </trkpt>
      <trkpt lat="45.96453" lon="4.58432">
        <ele>527</ele>
        <time>2018-11-02T11:21:08Z</time>
      </trkpt>
      <trkpt lat="45.96457" lon="4.58427">
        <ele>527</ele>
        <time>2018-11-02T11:21:09Z</time>
      </trkpt>
      <trkpt lat="45.9646" lon="4.58423">
        <ele>527</ele>
        <time>2018-11-02T11:21:10Z</time>
      </trkpt>
      <trkpt lat="45.96465" lon="4.58419">
        <ele>527</ele>
        <time>2018-11-02T11:21:11Z</time>
      </trkpt>
      <trkpt lat="45.96469" lon="4.58416">
        <ele>515</ele>
        <time>2018-11-02T11:21:12Z</time>
      </trkpt>
      <trkpt lat="45.96473" lon="4.58412">
        <ele>516</ele>
        <time>2018-11-02T11:21:13Z</time>
      </trkpt>
      <trkpt lat="45.96477" lon="4.5841">
        <ele>517</ele>
        <time>2018-11-02T11:21:14Z</time>
      </trkpt>
      <trkpt lat="45.96483" lon="4.58404">
        <ele>517</ele>
        <time>2018-11-02T11:21:15Z</time>
      </trkpt>
      <trkpt lat="45.96488" lon="4.58401">
        <ele>518</ele>
        <time>2018-11-02T11:21:16Z</time>
      </trkpt>
      <trkpt lat="45.96492" lon="4.584">
        <ele>518</ele>
        <time>2018-11-02T11:21:17Z</time>
      </trkpt>
      <trkpt lat="45.96497" lon="4.58399">
        <ele>519</ele>
        <time>2018-11-02T11:21:18Z</time>
      </trkpt>
      <trkpt lat="45.96504" lon="4.58398">
        <ele>518</ele>
        <time>2018-11-02T11:21:19Z</time>
      </trkpt>
      <trkpt lat="45.96508" lon="4.58397">
        <ele>517</ele>
        <time>2018-11-02T11:21:20Z</time>
      </trkpt>
      <trkpt lat="45.96513" lon="4.58398">
        <ele>517</ele>
        <time>2018-11-02T11:21:21Z</time>
      </trkpt>
      <trkpt lat="45.9652" lon="4.58402">
        <ele>516</ele>
        <time>2018-11-02T11:21:22Z</time>
      </trkpt>
      <trkpt lat="45.96528" lon="4.58407">
        <ele>516</ele>
        <time>2018-11-02T11:21:24Z</time>
      </trkpt>
      <trkpt lat="45.96532" lon="4.58409">
        <ele>515</ele>
        <time>2018-11-02T11:21:25Z</time>
      </trkpt>
      <trkpt lat="45.96539" lon="4.58413">
        <ele>514</ele>
        <time>2018-11-02T11:21:27Z</time>
      </trkpt>
      <trkpt lat="45.96542" lon="4.58416">
        <ele>514</ele>
        <time>2018-11-02T11:21:28Z</time>
      </trkpt>
      <trkpt lat="45.96548" lon="4.5842">
        <ele>527</ele>
        <time>2018-11-02T11:21:30Z</time>
      </trkpt>
      <trkpt lat="45.96552" lon="4.58422">
        <ele>526</ele>
        <time>2018-11-02T11:21:31Z</time>
      </trkpt>
      <trkpt lat="45.9656" lon="4.58428">
        <ele>525</ele>
        <time>2018-11-02T11:21:33Z</time>
      </trkpt>
      <trkpt lat="45.96565" lon="4.58432">
        <ele>525</ele>
        <time>2018-11-02T11:21:34Z</time>
      </trkpt>
      <trkpt lat="45.96569" lon="4.58435">
        <ele>524</ele>
        <time>2018-11-02T11:21:35Z</time>
      </trkpt>
      <trkpt lat="45.96574" lon="4.58438">
        <ele>525</ele>
        <time>2018-11-02T11:21:36Z</time>
      </trkpt>
      <trkpt lat="45.96578" lon="4.58441">
        <ele>525</ele>
        <time>2018-11-02T11:21:37Z</time>
      </trkpt>
      <trkpt lat="45.96583" lon="4.58445">
        <ele>526</ele>
        <time>2018-11-02T11:21:38Z</time>
      </trkpt>
      <trkpt lat="45.96588" lon="4.58449">
        <ele>518</ele>
        <time>2018-11-02T11:21:39Z</time>
      </trkpt>
      <trkpt lat="45.96592" lon="4.58452">
        <ele>519</ele>
        <time>2018-11-02T11:21:40Z</time>
      </trkpt>
      <trkpt lat="45.96596" lon="4.58456">
        <ele>519</ele>
        <time>2018-11-02T11:21:41Z</time>
      </trkpt>
      <trkpt lat="45.96599" lon="4.5846">
        <ele>520</ele>
        <time>2018-11-02T11:21:42Z</time>
      </trkpt>
      <trkpt lat="45.96603" lon="4.58465">
        <ele>520</ele>
        <time>2018-11-02T11:21:43Z</time>
      </trkpt>
      <trkpt lat="45.96607" lon="4.58469">
        <ele>521</ele>
        <time>2018-11-02T11:21:44Z</time>
      </trkpt>
      <trkpt lat="45.9661" lon="4.58472">
        <ele>521</ele>
        <time>2018-11-02T11:21:45Z</time>
      </trkpt>
      <trkpt lat="45.96614" lon="4.58476">
        <ele>521</ele>
        <time>2018-11-02T11:21:46Z</time>
      </trkpt>
      <trkpt lat="45.96618" lon="4.5848">
        <ele>521</ele>
        <time>2018-11-02T11:21:47Z</time>
      </trkpt>
      <trkpt lat="45.96622" lon="4.58484">
        <ele>521</ele>
        <time>2018-11-02T11:21:48Z</time>
      </trkpt>
      <trkpt lat="45.96627" lon="4.58488">
        <ele>520</ele>
        <time>2018-11-02T11:21:49Z</time>
      </trkpt>
      <trkpt lat="45.96631" lon="4.58492">
        <ele>520</ele>
        <time>2018-11-02T11:21:50Z</time>
      </trkpt>
      <trkpt lat="45.96635" lon="4.58498">
        <ele>520</ele>
        <time>2018-11-02T11:21:51Z</time>
      </trkpt>
      <trkpt lat="45.96639" lon="4.58503">
        <ele>531</ele>
        <time>2018-11-02T11:21:52Z</time>
      </trkpt>
      <trkpt lat="45.96642" lon="4.58508">
        <ele>531</ele>
        <time>2018-11-02T11:21:53Z</time>
      </trkpt>
      <trkpt lat="45.96645" lon="4.58513">
        <ele>531</ele>
        <time>2018-11-02T11:21:54Z</time>
      </trkpt>
      <trkpt lat="45.96649" lon="4.58517">
        <ele>531</ele>
        <time>2018-11-02T11:21:55Z</time>
      </trkpt>
      <trkpt lat="45.96653" lon="4.58521">
        <ele>531</ele>
        <time>2018-11-02T11:21:56Z</time>
      </trkpt>
      <trkpt lat="45.96657" lon="4.58524">
        <ele>531</ele>
        <time>2018-11-02T11:21:57Z</time>
      </trkpt>
      <trkpt lat="45.96661" lon="4.58527">
        <ele>532</ele>
        <time>2018-11-02T11:21:58Z</time>
      </trkpt>
      <trkpt lat="45.96669" lon="4.58531">
        <ele>531</ele>
        <time>2018-11-02T11:22:00Z</time>
      </trkpt>
      <trkpt lat="45.96673" lon="4.58533">
        <ele>531</ele>
        <time>2018-11-02T11:22:01Z</time>
      </trkpt>
      <trkpt lat="45.96681" lon="4.58537">
        <ele>532</ele>
        <time>2018-11-02T11:22:03Z</time>
      </trkpt>
      <trkpt lat="45.96686" lon="4.58538">
        <ele>533</ele>
        <time>2018-11-02T11:22:04Z</time>
      </trkpt>
      <trkpt lat="45.96691" lon="4.58538">
        <ele>533</ele>
        <time>2018-11-02T11:22:05Z</time>
      </trkpt>
      <trkpt lat="45.96696" lon="4.58539">
        <ele>534</ele>
        <time>2018-11-02T11:22:06Z</time>
      </trkpt>
      <trkpt lat="45.96701" lon="4.5854">
        <ele>534</ele>
        <time>2018-11-02T11:22:07Z</time>
      </trkpt>
      <trkpt lat="45.96706" lon="4.5854">
        <ele>535</ele>
        <time>2018-11-02T11:22:08Z</time>
      </trkpt>
      <trkpt lat="45.96712" lon="4.58539">
        <ele>535</ele>
        <time>2018-11-02T11:22:09Z</time>
      </trkpt>
      <trkpt lat="45.96717" lon="4.58538">
        <ele>535</ele>
        <time>2018-11-02T11:22:10Z</time>
      </trkpt>
      <trkpt lat="45.96722" lon="4.58533">
        <ele>535</ele>
        <time>2018-11-02T11:22:11Z</time>
      </trkpt>
      <trkpt lat="45.96726" lon="4.58528">
        <ele>535</ele>
        <time>2018-11-02T11:22:12Z</time>
      </trkpt>
      <trkpt lat="45.96734" lon="4.5852">
        <ele>535</ele>
        <time>2018-11-02T11:22:13Z</time>
      </trkpt>
      <trkpt lat="45.96737" lon="4.58514">
        <ele>535</ele>
        <time>2018-11-02T11:22:14Z</time>
      </trkpt>
      <trkpt lat="45.96741" lon="4.58507">
        <ele>535</ele>
        <time>2018-11-02T11:22:15Z</time>
      </trkpt>
      <trkpt lat="45.96743" lon="4.585">
        <ele>532</ele>
        <time>2018-11-02T11:22:16Z</time>
      </trkpt>
      <trkpt lat="45.96745" lon="4.58492">
        <ele>531</ele>
        <time>2018-11-02T11:22:17Z</time>
      </trkpt>
      <trkpt lat="45.96748" lon="4.58486">
        <ele>529</ele>
        <time>2018-11-02T11:22:18Z</time>
      </trkpt>
      <trkpt lat="45.9675" lon="4.58478">
        <ele>528</ele>
        <time>2018-11-02T11:22:19Z</time>
      </trkpt>
      <trkpt lat="45.96751" lon="4.58471">
        <ele>545</ele>
        <time>2018-11-02T11:22:20Z</time>
      </trkpt>
      <trkpt lat="45.96752" lon="4.58464">
        <ele>545</ele>
        <time>2018-11-02T11:22:21Z</time>
      </trkpt>
      <trkpt lat="45.96753" lon="4.58458">
        <ele>545</ele>
        <time>2018-11-02T11:22:22Z</time>
      </trkpt>
      <trkpt lat="45.96755" lon="4.58446">
        <ele>544</ele>
        <time>2018-11-02T11:22:24Z</time>
      </trkpt>
      <trkpt lat="45.96757" lon="4.58441">
        <ele>543</ele>
        <time>2018-11-02T11:22:25Z</time>
      </trkpt>
      <trkpt lat="45.96759" lon="4.5843">
        <ele>540</ele>
        <time>2018-11-02T11:22:27Z</time>
      </trkpt>
      <trkpt lat="45.9676" lon="4.58426">
        <ele>539</ele>
        <time>2018-11-02T11:22:28Z</time>
      </trkpt>
      <trkpt lat="45.9676" lon="4.58415">
        <ele>537</ele>
        <time>2018-11-02T11:22:30Z</time>
      </trkpt>
      <trkpt lat="45.9676" lon="4.58409">
        <ele>539</ele>
        <time>2018-11-02T11:22:31Z</time>
      </trkpt>
      <trkpt lat="45.96759" lon="4.58401">
        <ele>541</ele>
        <time>2018-11-02T11:22:32Z</time>
      </trkpt>
      <trkpt lat="45.96758" lon="4.58393">
        <ele>543</ele>
        <time>2018-11-02T11:22:33Z</time>
      </trkpt>
      <trkpt lat="45.96757" lon="4.58386">
        <ele>545</ele>
        <time>2018-11-02T11:22:34Z</time>
      </trkpt>
      <trkpt lat="45.96755" lon="4.58378">
        <ele>545</ele>
        <time>2018-11-02T11:22:35Z</time>
      </trkpt>
      <trkpt lat="45.96755" lon="4.58372">
        <ele>546</ele>
        <time>2018-11-02T11:22:36Z</time>
      </trkpt>
      <trkpt lat="45.96752" lon="4.58362">
        <ele>545</ele>
        <time>2018-11-02T11:22:37Z</time>
      </trkpt>
      <trkpt lat="45.96751" lon="4.58355">
        <ele>544</ele>
        <time>2018-11-02T11:22:38Z</time>
      </trkpt>
      <trkpt lat="45.9675" lon="4.5835">
        <ele>526</ele>
        <time>2018-11-02T11:22:39Z</time>
      </trkpt>
      <trkpt lat="45.96748" lon="4.58338">
        <ele>531</ele>
        <time>2018-11-02T11:22:41Z</time>
      </trkpt>
      <trkpt lat="45.96746" lon="4.58332">
        <ele>532</ele>
        <time>2018-11-02T11:22:42Z</time>
      </trkpt>
      <trkpt lat="45.96743" lon="4.58326">
        <ele>529</ele>
        <time>2018-11-02T11:22:43Z</time>
      </trkpt>
      <trkpt lat="45.9674" lon="4.5832">
        <ele>527</ele>
        <time>2018-11-02T11:22:44Z</time>
      </trkpt>
      <trkpt lat="45.9674" lon="4.58311">
        <ele>525</ele>
        <time>2018-11-02T11:22:46Z</time>
      </trkpt>
      <trkpt lat="45.96738" lon="4.58304">
        <ele>524</ele>
        <time>2018-11-02T11:22:47Z</time>
      </trkpt>
      <trkpt lat="45.96737" lon="4.58297">
        <ele>524</ele>
        <time>2018-11-02T11:22:48Z</time>
      </trkpt>
      <trkpt lat="45.96736" lon="4.58292">
        <ele>524</ele>
        <time>2018-11-02T11:22:49Z</time>
      </trkpt>
      <trkpt lat="45.96734" lon="4.58284">
        <ele>524</ele>
        <time>2018-11-02T11:22:50Z</time>
      </trkpt>
      <trkpt lat="45.96732" lon="4.58277">
        <ele>524</ele>
        <time>2018-11-02T11:22:51Z</time>
      </trkpt>
      <trkpt lat="45.9673" lon="4.58271">
        <ele>525</ele>
        <time>2018-11-02T11:22:52Z</time>
      </trkpt>
      <trkpt lat="45.96729" lon="4.58263">
        <ele>525</ele>
        <time>2018-11-02T11:22:53Z</time>
      </trkpt>
      <trkpt lat="45.96727" lon="4.58255">
        <ele>526</ele>
        <time>2018-11-02T11:22:54Z</time>
      </trkpt>
      <trkpt lat="45.96724" lon="4.58249">
        <ele>524</ele>
        <time>2018-11-02T11:22:55Z</time>
      </trkpt>
      <trkpt lat="45.96724" lon="4.58241">
        <ele>523</ele>
        <time>2018-11-02T11:22:56Z</time>
      </trkpt>
      <trkpt lat="45.96723" lon="4.58234">
        <ele>523</ele>
        <time>2018-11-02T11:22:57Z</time>
      </trkpt>
      <trkpt lat="45.96724" lon="4.58227">
        <ele>522</ele>
        <time>2018-11-02T11:22:58Z</time>
      </trkpt>
      <trkpt lat="45.96723" lon="4.58221">
        <ele>521</ele>
        <time>2018-11-02T11:22:59Z</time>
      </trkpt>
      <trkpt lat="45.96724" lon="4.58209">
        <ele>520</ele>
        <time>2018-11-02T11:23:01Z</time>
      </trkpt>
      <trkpt lat="45.96726" lon="4.58203">
        <ele>520</ele>
        <time>2018-11-02T11:23:02Z</time>
      </trkpt>
      <trkpt lat="45.96726" lon="4.58195">
        <ele>520</ele>
        <time>2018-11-02T11:23:03Z</time>
      </trkpt>
      <trkpt lat="45.96727" lon="4.58188">
        <ele>521</ele>
        <time>2018-11-02T11:23:04Z</time>
      </trkpt>
      <trkpt lat="45.96729" lon="4.58182">
        <ele>521</ele>
        <time>2018-11-02T11:23:05Z</time>
      </trkpt>
      <trkpt lat="45.96732" lon="4.58176">
        <ele>522</ele>
        <time>2018-11-02T11:23:06Z</time>
      </trkpt>
      <trkpt lat="45.96736" lon="4.58167">
        <ele>521</ele>
        <time>2018-11-02T11:23:08Z</time>
      </trkpt>
      <trkpt lat="45.96738" lon="4.5816">
        <ele>521</ele>
        <time>2018-11-02T11:23:09Z</time>
      </trkpt>
      <trkpt lat="45.9674" lon="4.58154">
        <ele>520</ele>
        <time>2018-11-02T11:23:10Z</time>
      </trkpt>
      <trkpt lat="45.96744" lon="4.5815">
        <ele>519</ele>
        <time>2018-11-02T11:23:11Z</time>
      </trkpt>
      <trkpt lat="45.96749" lon="4.58139">
        <ele>517</ele>
        <time>2018-11-02T11:23:13Z</time>
      </trkpt>
      <trkpt lat="45.96751" lon="4.58135">
        <ele>531</ele>
        <time>2018-11-02T11:23:14Z</time>
      </trkpt>
      <trkpt lat="45.96757" lon="4.58126">
        <ele>531</ele>
        <time>2018-11-02T11:23:16Z</time>
      </trkpt>
      <trkpt lat="45.96759" lon="4.58121">
        <ele>530</ele>
        <time>2018-11-02T11:23:17Z</time>
      </trkpt>
      <trkpt lat="45.96764" lon="4.58112">
        <ele>530</ele>
        <time>2018-11-02T11:23:19Z</time>
      </trkpt>
      <trkpt lat="45.96767" lon="4.58107">
        <ele>529</ele>
        <time>2018-11-02T11:23:20Z</time>
      </trkpt>
      <trkpt lat="45.96771" lon="4.58098">
        <ele>528</ele>
        <time>2018-11-02T11:23:22Z</time>
      </trkpt>
      <trkpt lat="45.96774" lon="4.58093">
        <ele>528</ele>
        <time>2018-11-02T11:23:23Z</time>
      </trkpt>
      <trkpt lat="45.96779" lon="4.58084">
        <ele>529</ele>
        <time>2018-11-02T11:23:25Z</time>
      </trkpt>
      <trkpt lat="45.96781" lon="4.58079">
        <ele>522</ele>
        <time>2018-11-02T11:23:26Z</time>
      </trkpt>
      <trkpt lat="45.96786" lon="4.5807">
        <ele>522</ele>
        <time>2018-11-02T11:23:28Z</time>
      </trkpt>
      <trkpt lat="45.96789" lon="4.58066">
        <ele>523</ele>
        <time>2018-11-02T11:23:29Z</time>
      </trkpt>
      <trkpt lat="45.96794" lon="4.58057">
        <ele>523</ele>
        <time>2018-11-02T11:23:31Z</time>
      </trkpt>
      <trkpt lat="45.96796" lon="4.58052">
        <ele>523</ele>
        <time>2018-11-02T11:23:32Z</time>
      </trkpt>
      <trkpt lat="45.96801" lon="4.58045">
        <ele>523</ele>
        <time>2018-11-02T11:23:34Z</time>
      </trkpt>
      <trkpt lat="45.96804" lon="4.58041">
        <ele>523</ele>
        <time>2018-11-02T11:23:35Z</time>
      </trkpt>
      <trkpt lat="45.9681" lon="4.58032">
        <ele>522</ele>
        <time>2018-11-02T11:23:37Z</time>
      </trkpt>
      <trkpt lat="45.96813" lon="4.58028">
        <ele>522</ele>
        <time>2018-11-02T11:23:38Z</time>
      </trkpt>
      <trkpt lat="45.96819" lon="4.58022">
        <ele>522</ele>
        <time>2018-11-02T11:23:40Z</time>
      </trkpt>
      <trkpt lat="45.96823" lon="4.58019">
        <ele>522</ele>
        <time>2018-11-02T11:23:41Z</time>
      </trkpt>
      <trkpt lat="45.9683" lon="4.58015">
        <ele>523</ele>
        <time>2018-11-02T11:23:43Z</time>
      </trkpt>
      <trkpt lat="45.96834" lon="4.58013">
        <ele>526</ele>
        <time>2018-11-02T11:23:44Z</time>
      </trkpt>
      <trkpt lat="45.96841" lon="4.58011">
        <ele>526</ele>
        <time>2018-11-02T11:23:46Z</time>
      </trkpt>
      <trkpt lat="45.96845" lon="4.5801">
        <ele>526</ele>
        <time>2018-11-02T11:23:47Z</time>
      </trkpt>
      <trkpt lat="45.96853" lon="4.58011">
        <ele>527</ele>
        <time>2018-11-02T11:23:49Z</time>
      </trkpt>
      <trkpt lat="45.96857" lon="4.58012">
        <ele>528</ele>
        <time>2018-11-02T11:23:50Z</time>
      </trkpt>
      <trkpt lat="45.96864" lon="4.58014">
        <ele>528</ele>
        <time>2018-11-02T11:23:52Z</time>
      </trkpt>
      <trkpt lat="45.96868" lon="4.58015">
        <ele>528</ele>
        <time>2018-11-02T11:23:53Z</time>
      </trkpt>
      <trkpt lat="45.96876" lon="4.58018">
        <ele>528</ele>
        <time>2018-11-02T11:23:56Z</time>
      </trkpt>
      <trkpt lat="45.96878" lon="4.58019">
        <ele>528</ele>
        <time>2018-11-02T11:23:57Z</time>
      </trkpt>
      <trkpt lat="45.96884" lon="4.58022">
        <ele>529</ele>
        <time>2018-11-02T11:23:59Z</time>
      </trkpt>
      <trkpt lat="45.96887" lon="4.58024">
        <ele>529</ele>
        <time>2018-11-02T11:24:00Z</time>
      </trkpt>
      <trkpt lat="45.96891" lon="4.58027">
        <ele>529</ele>
        <time>2018-11-02T11:24:01Z</time>
      </trkpt>
      <trkpt lat="45.96897" lon="4.58031">
        <ele>529</ele>
        <time>2018-11-02T11:24:02Z</time>
      </trkpt>
      <trkpt lat="45.96903" lon="4.58037">
        <ele>530</ele>
        <time>2018-11-02T11:24:04Z</time>
      </trkpt>
      <trkpt lat="45.96906" lon="4.5804">
        <ele>530</ele>
        <time>2018-11-02T11:24:05Z</time>
      </trkpt>
      <trkpt lat="45.96912" lon="4.58046">
        <ele>531</ele>
        <time>2018-11-02T11:24:07Z</time>
      </trkpt>
      <trkpt lat="45.96915" lon="4.58049">
        <ele>531</ele>
        <time>2018-11-02T11:24:08Z</time>
      </trkpt>
      <trkpt lat="45.96921" lon="4.58056">
        <ele>530</ele>
        <time>2018-11-02T11:24:10Z</time>
      </trkpt>
      <trkpt lat="45.96924" lon="4.58059">
        <ele>531</ele>
        <time>2018-11-02T11:24:11Z</time>
      </trkpt>
      <trkpt lat="45.96929" lon="4.58065">
        <ele>532</ele>
        <time>2018-11-02T11:24:13Z</time>
      </trkpt>
      <trkpt lat="45.96933" lon="4.5807">
        <ele>532</ele>
        <time>2018-11-02T11:24:14Z</time>
      </trkpt>
      <trkpt lat="45.96938" lon="4.58076">
        <ele>532</ele>
        <time>2018-11-02T11:24:16Z</time>
      </trkpt>
      <trkpt lat="45.96942" lon="4.5808">
        <ele>532</ele>
        <time>2018-11-02T11:24:17Z</time>
      </trkpt>
      <trkpt lat="45.96946" lon="4.58087">
        <ele>542</ele>
        <time>2018-11-02T11:24:19Z</time>
      </trkpt>
      <trkpt lat="45.96948" lon="4.58089">
        <ele>542</ele>
        <time>2018-11-02T11:24:20Z</time>
      </trkpt>
      <trkpt lat="45.96953" lon="4.58095">
        <ele>543</ele>
        <time>2018-11-02T11:24:21Z</time>
      </trkpt>
      <trkpt lat="45.96956" lon="4.58098">
        <ele>543</ele>
        <time>2018-11-02T11:24:22Z</time>
      </trkpt>
      <trkpt lat="45.96961" lon="4.58103">
        <ele>543</ele>
        <time>2018-11-02T11:24:24Z</time>
      </trkpt>
      <trkpt lat="45.96965" lon="4.58107">
        <ele>544</ele>
        <time>2018-11-02T11:24:25Z</time>
      </trkpt>
      <trkpt lat="45.96971" lon="4.58113">
        <ele>544</ele>
        <time>2018-11-02T11:24:27Z</time>
      </trkpt>
      <trkpt lat="45.96975" lon="4.58116">
        <ele>544</ele>
        <time>2018-11-02T11:24:28Z</time>
      </trkpt>
      <trkpt lat="45.96983" lon="4.58119">
        <ele>544</ele>
        <time>2018-11-02T11:24:30Z</time>
      </trkpt>
      <trkpt lat="45.96987" lon="4.5812">
        <ele>544</ele>
        <time>2018-11-02T11:24:31Z</time>
      </trkpt>
      <trkpt lat="45.96995" lon="4.5812">
        <ele>544</ele>
        <time>2018-11-02T11:24:33Z</time>
      </trkpt>
      <trkpt lat="45.96999" lon="4.5812">
        <ele>544</ele>
        <time>2018-11-02T11:24:34Z</time>
      </trkpt>
      <trkpt lat="45.97007" lon="4.58118">
        <ele>546</ele>
        <time>2018-11-02T11:24:36Z</time>
      </trkpt>
      <trkpt lat="45.9701" lon="4.58115">
        <ele>545</ele>
        <time>2018-11-02T11:24:37Z</time>
      </trkpt>
      <trkpt lat="45.97018" lon="4.58108">
        <ele>545</ele>
        <time>2018-11-02T11:24:39Z</time>
      </trkpt>
      <trkpt lat="45.97022" lon="4.58099">
        <ele>544</ele>
        <time>2018-11-02T11:24:40Z</time>
      </trkpt>
      <trkpt lat="45.97028" lon="4.58093">
        <ele>544</ele>
        <time>2018-11-02T11:24:42Z</time>
      </trkpt>
      <trkpt lat="45.97031" lon="4.58088">
        <ele>544</ele>
        <time>2018-11-02T11:24:43Z</time>
      </trkpt>
      <trkpt lat="45.97036" lon="4.5808">
        <ele>533</ele>
        <time>2018-11-02T11:24:45Z</time>
      </trkpt>
      <trkpt lat="45.9704" lon="4.58076">
        <ele>534</ele>
        <time>2018-11-02T11:24:46Z</time>
      </trkpt>
      <trkpt lat="45.97045" lon="4.58067">
        <ele>533</ele>
        <time>2018-11-02T11:24:48Z</time>
      </trkpt>
      <trkpt lat="45.97048" lon="4.58062">
        <ele>533</ele>
        <time>2018-11-02T11:24:49Z</time>
      </trkpt>
      <trkpt lat="45.97052" lon="4.58058">
        <ele>533</ele>
        <time>2018-11-02T11:24:50Z</time>
      </trkpt>
      <trkpt lat="45.97055" lon="4.58054">
        <ele>533</ele>
        <time>2018-11-02T11:24:51Z</time>
      </trkpt>
      <trkpt lat="45.97061" lon="4.58046">
        <ele>533</ele>
        <time>2018-11-02T11:24:53Z</time>
      </trkpt>
      <trkpt lat="45.97065" lon="4.58042">
        <ele>532</ele>
        <time>2018-11-02T11:24:54Z</time>
      </trkpt>
      <trkpt lat="45.97071" lon="4.58034">
        <ele>532</ele>
        <time>2018-11-02T11:24:56Z</time>
      </trkpt>
      <trkpt lat="45.97074" lon="4.58031">
        <ele>532</ele>
        <time>2018-11-02T11:24:57Z</time>
      </trkpt>
      <trkpt lat="45.9708" lon="4.58023">
        <ele>531</ele>
        <time>2018-11-02T11:24:59Z</time>
      </trkpt>
      <trkpt lat="45.97083" lon="4.58019">
        <ele>531</ele>
        <time>2018-11-02T11:25:00Z</time>
      </trkpt>
      <trkpt lat="45.9709" lon="4.58012">
        <ele>534</ele>
        <time>2018-11-02T11:25:02Z</time>
      </trkpt>
      <trkpt lat="45.97093" lon="4.58009">
        <ele>534</ele>
        <time>2018-11-02T11:25:03Z</time>
      </trkpt>
      <trkpt lat="45.97101" lon="4.58003">
        <ele>534</ele>
        <time>2018-11-02T11:25:05Z</time>
      </trkpt>
      <trkpt lat="45.97105" lon="4.58001">
        <ele>535</ele>
        <time>2018-11-02T11:25:06Z</time>
      </trkpt>
      <trkpt lat="45.97113" lon="4.57998">
        <ele>527</ele>
        <time>2018-11-02T11:25:08Z</time>
      </trkpt>
      <trkpt lat="45.97117" lon="4.57997">
        <ele>526</ele>
        <time>2018-11-02T11:25:09Z</time>
      </trkpt>
      <trkpt lat="45.97126" lon="4.57997">
        <ele>526</ele>
        <time>2018-11-02T11:25:11Z</time>
      </trkpt>
      <trkpt lat="45.9713" lon="4.57997">
        <ele>527</ele>
        <time>2018-11-02T11:25:12Z</time>
      </trkpt>
      <trkpt lat="45.97138" lon="4.57999">
        <ele>527</ele>
        <time>2018-11-02T11:25:14Z</time>
      </trkpt>
      <trkpt lat="45.97142" lon="4.58001">
        <ele>536</ele>
        <time>2018-11-02T11:25:15Z</time>
      </trkpt>
      <trkpt lat="45.9715" lon="4.58006">
        <ele>535</ele>
        <time>2018-11-02T11:25:17Z</time>
      </trkpt>
      <trkpt lat="45.97154" lon="4.58008">
        <ele>535</ele>
        <time>2018-11-02T11:25:18Z</time>
      </trkpt>
      <trkpt lat="45.97162" lon="4.58013">
        <ele>535</ele>
        <time>2018-11-02T11:25:20Z</time>
      </trkpt>
      <trkpt lat="45.97167" lon="4.58016">
        <ele>535</ele>
        <time>2018-11-02T11:25:21Z</time>
      </trkpt>
      <trkpt lat="45.97174" lon="4.58022">
        <ele>535</ele>
        <time>2018-11-02T11:25:23Z</time>
      </trkpt>
      <trkpt lat="45.97178" lon="4.58024">
        <ele>536</ele>
        <time>2018-11-02T11:25:24Z</time>
      </trkpt>
      <trkpt lat="45.97185" lon="4.58031">
        <ele>537</ele>
        <time>2018-11-02T11:25:26Z</time>
      </trkpt>
      <trkpt lat="45.97188" lon="4.58035">
        <ele>537</ele>
        <time>2018-11-02T11:25:27Z</time>
      </trkpt>
      <trkpt lat="45.97195" lon="4.58042">
        <ele>538</ele>
        <time>2018-11-02T11:25:29Z</time>
      </trkpt>
      <trkpt lat="45.97198" lon="4.58046">
        <ele>538</ele>
        <time>2018-11-02T11:25:30Z</time>
      </trkpt>
      <trkpt lat="45.97204" lon="4.58053">
        <ele>539</ele>
        <time>2018-11-02T11:25:32Z</time>
      </trkpt>
      <trkpt lat="45.97207" lon="4.58057">
        <ele>539</ele>
        <time>2018-11-02T11:25:33Z</time>
      </trkpt>
      <trkpt lat="45.97214" lon="4.58065">
        <ele>539</ele>
        <time>2018-11-02T11:25:35Z</time>
      </trkpt>
      <trkpt lat="45.97216" lon="4.58068">
        <ele>540</ele>
        <time>2018-11-02T11:25:36Z</time>
      </trkpt>
      <trkpt lat="45.97222" lon="4.58076">
        <ele>540</ele>
        <time>2018-11-02T11:25:38Z</time>
      </trkpt>
      <trkpt lat="45.97225" lon="4.58079">
        <ele>540</ele>
        <time>2018-11-02T11:25:39Z</time>
      </trkpt>
      <trkpt lat="45.97231" lon="4.58087">
        <ele>550</ele>
        <time>2018-11-02T11:25:41Z</time>
      </trkpt>
      <trkpt lat="45.97234" lon="4.5809">
        <ele>549</ele>
        <time>2018-11-02T11:25:42Z</time>
      </trkpt>
      <trkpt lat="45.97241" lon="4.58097">
        <ele>549</ele>
        <time>2018-11-02T11:25:44Z</time>
      </trkpt>
      <trkpt lat="45.97244" lon="4.58099">
        <ele>550</ele>
        <time>2018-11-02T11:25:45Z</time>
      </trkpt>
      <trkpt lat="45.97252" lon="4.58103">
        <ele>549</ele>
        <time>2018-11-02T11:25:47Z</time>
      </trkpt>
      <trkpt lat="45.97256" lon="4.58105">
        <ele>550</ele>
        <time>2018-11-02T11:25:48Z</time>
      </trkpt>
      <trkpt lat="45.97263" lon="4.58107">
        <ele>551</ele>
        <time>2018-11-02T11:25:50Z</time>
      </trkpt>
      <trkpt lat="45.97267" lon="4.58107">
        <ele>551</ele>
        <time>2018-11-02T11:25:51Z</time>
      </trkpt>
      <trkpt lat="45.97275" lon="4.58106">
        <ele>551</ele>
        <time>2018-11-02T11:25:53Z</time>
      </trkpt>
      <trkpt lat="45.97279" lon="4.58105">
        <ele>551</ele>
        <time>2018-11-02T11:25:54Z</time>
      </trkpt>
      <trkpt lat="45.97287" lon="4.58103">
        <ele>551</ele>
        <time>2018-11-02T11:25:56Z</time>
      </trkpt>
      <trkpt lat="45.97291" lon="4.58102">
        <ele>551</ele>
        <time>2018-11-02T11:25:57Z</time>
      </trkpt>
      <trkpt lat="45.97298" lon="4.58096">
        <ele>551</ele>
        <time>2018-11-02T11:25:59Z</time>
      </trkpt>
      <trkpt lat="45.97301" lon="4.58094">
        <ele>550</ele>
        <time>2018-11-02T11:26:00Z</time>
      </trkpt>
      <trkpt lat="45.97308" lon="4.58088">
        <ele>549</ele>
        <time>2018-11-02T11:26:02Z</time>
      </trkpt>
      <trkpt lat="45.97311" lon="4.58084">
        <ele>549</ele>
        <time>2018-11-02T11:26:03Z</time>
      </trkpt>
      <trkpt lat="45.97318" lon="4.58077">
        <ele>539</ele>
        <time>2018-11-02T11:26:05Z</time>
      </trkpt>
      <trkpt lat="45.97321" lon="4.58074">
        <ele>539</ele>
        <time>2018-11-02T11:26:06Z</time>
      </trkpt>
      <trkpt lat="45.97327" lon="4.58068">
        <ele>539</ele>
        <time>2018-11-02T11:26:08Z</time>
      </trkpt>
      <trkpt lat="45.9733" lon="4.58064">
        <ele>538</ele>
        <time>2018-11-02T11:26:09Z</time>
      </trkpt>
      <trkpt lat="45.97336" lon="4.58057">
        <ele>538</ele>
        <time>2018-11-02T11:26:11Z</time>
      </trkpt>
      <trkpt lat="45.9734" lon="4.58055">
        <ele>537</ele>
        <time>2018-11-02T11:26:12Z</time>
      </trkpt>
      <trkpt lat="45.97346" lon="4.5805">
        <ele>536</ele>
        <time>2018-11-02T11:26:14Z</time>
      </trkpt>
      <trkpt lat="45.9735" lon="4.58049">
        <ele>536</ele>
        <time>2018-11-02T11:26:15Z</time>
      </trkpt>
      <trkpt lat="45.97358" lon="4.58046">
        <ele>536</ele>
        <time>2018-11-02T11:26:17Z</time>
      </trkpt>
      <trkpt lat="45.97361" lon="4.58045">
        <ele>536</ele>
        <time>2018-11-02T11:26:18Z</time>
      </trkpt>
      <trkpt lat="45.97369" lon="4.58044">
        <ele>536</ele>
        <time>2018-11-02T11:26:20Z</time>
      </trkpt>
      <trkpt lat="45.97373" lon="4.58044">
        <ele>536</ele>
        <time>2018-11-02T11:26:21Z</time>
      </trkpt>
      <trkpt lat="45.97381" lon="4.58046">
        <ele>536</ele>
        <time>2018-11-02T11:26:23Z</time>
      </trkpt>
      <trkpt lat="45.97385" lon="4.58047">
        <ele>536</ele>
        <time>2018-11-02T11:26:24Z</time>
      </trkpt>
      <trkpt lat="45.97392" lon="4.5805">
        <ele>537</ele>
        <time>2018-11-02T11:26:26Z</time>
      </trkpt>
      <trkpt lat="45.97396" lon="4.58053">
        <ele>537</ele>
        <time>2018-11-02T11:26:27Z</time>
      </trkpt>
      <trkpt lat="45.97403" lon="4.58057">
        <ele>538</ele>
        <time>2018-11-02T11:26:29Z</time>
      </trkpt>
      <trkpt lat="45.97406" lon="4.5806">
        <ele>538</ele>
        <time>2018-11-02T11:26:30Z</time>
      </trkpt>
      <trkpt lat="45.97412" lon="4.58067">
        <ele>540</ele>
        <time>2018-11-02T11:26:32Z</time>
      </trkpt>
      <trkpt lat="45.97415" lon="4.5807">
        <ele>541</ele>
        <time>2018-11-02T11:26:33Z</time>
      </trkpt>
      <trkpt lat="45.97421" lon="4.58078">
        <ele>541</ele>
        <time>2018-11-02T11:26:35Z</time>
      </trkpt>
      <trkpt lat="45.97424" lon="4.58081">
        <ele>540</ele>
        <time>2018-11-02T11:26:36Z</time>
      </trkpt>
      <trkpt lat="45.97431" lon="4.58089">
        <ele>545</ele>
        <time>2018-11-02T11:26:38Z</time>
      </trkpt>
      <trkpt lat="45.97434" lon="4.58092">
        <ele>545</ele>
        <time>2018-11-02T11:26:39Z</time>
      </trkpt>
      <trkpt lat="45.9744" lon="4.58099">
        <ele>545</ele>
        <time>2018-11-02T11:26:41Z</time>
      </trkpt>
      <trkpt lat="45.97443" lon="4.58103">
        <ele>545</ele>
        <time>2018-11-02T11:26:42Z</time>
      </trkpt>
      <trkpt lat="45.9745" lon="4.58109">
        <ele>545</ele>
        <time>2018-11-02T11:26:44Z</time>
      </trkpt>
      <trkpt lat="45.97454" lon="4.58112">
        <ele>545</ele>
        <time>2018-11-02T11:26:45Z</time>
      </trkpt>
      <trkpt lat="45.97462" lon="4.58117">
        <ele>545</ele>
        <time>2018-11-02T11:26:47Z</time>
      </trkpt>
      <trkpt lat="45.97466" lon="4.5812">
        <ele>545</ele>
        <time>2018-11-02T11:26:48Z</time>
      </trkpt>
      <trkpt lat="45.97473" lon="4.58125">
        <ele>545</ele>
        <time>2018-11-02T11:26:50Z</time>
      </trkpt>
      <trkpt lat="45.97477" lon="4.58127">
        <ele>545</ele>
        <time>2018-11-02T11:26:51Z</time>
      </trkpt>
      <trkpt lat="45.97484" lon="4.58131">
        <ele>546</ele>
        <time>2018-11-02T11:26:53Z</time>
      </trkpt>
      <trkpt lat="45.97488" lon="4.58133">
        <ele>546</ele>
        <time>2018-11-02T11:26:54Z</time>
      </trkpt>
      <trkpt lat="45.97495" lon="4.58138">
        <ele>546</ele>
        <time>2018-11-02T11:26:56Z</time>
      </trkpt>
      <trkpt lat="45.97499" lon="4.5814">
        <ele>546</ele>
        <time>2018-11-02T11:26:57Z</time>
      </trkpt>
      <trkpt lat="45.97506" lon="4.58144">
        <ele>542</ele>
        <time>2018-11-02T11:26:59Z</time>
      </trkpt>
      <trkpt lat="45.9751" lon="4.58146">
        <ele>542</ele>
        <time>2018-11-02T11:27:00Z</time>
      </trkpt>
      <trkpt lat="45.97518" lon="4.58149">
        <ele>542</ele>
        <time>2018-11-02T11:27:02Z</time>
      </trkpt>
      <trkpt lat="45.97522" lon="4.58151">
        <ele>542</ele>
        <time>2018-11-02T11:27:03Z</time>
      </trkpt>
      <trkpt lat="45.97526" lon="4.58152">
        <ele>541</ele>
        <time>2018-11-02T11:27:04Z</time>
      </trkpt>
      <trkpt lat="45.97531" lon="4.58154">
        <ele>541</ele>
        <time>2018-11-02T11:27:05Z</time>
      </trkpt>
      <trkpt lat="45.97535" lon="4.58156">
        <ele>540</ele>
        <time>2018-11-02T11:27:06Z</time>
      </trkpt>
      <trkpt lat="45.9754" lon="4.58157">
        <ele>540</ele>
        <time>2018-11-02T11:27:07Z</time>
      </trkpt>
      <trkpt lat="45.97548" lon="4.58157">
        <ele>540</ele>
        <time>2018-11-02T11:27:09Z</time>
      </trkpt>
      <trkpt lat="45.97553" lon="4.58158">
        <ele>539</ele>
        <time>2018-11-02T11:27:10Z</time>
      </trkpt>
      <trkpt lat="45.9756" lon="4.58161">
        <ele>539</ele>
        <time>2018-11-02T11:27:12Z</time>
      </trkpt>
      <trkpt lat="45.97564" lon="4.58161">
        <ele>539</ele>
        <time>2018-11-02T11:27:13Z</time>
      </trkpt>
      <trkpt lat="45.97572" lon="4.58163">
        <ele>540</ele>
        <time>2018-11-02T11:27:15Z</time>
      </trkpt>
      <trkpt lat="45.97576" lon="4.58163">
        <ele>540</ele>
        <time>2018-11-02T11:27:16Z</time>
      </trkpt>
      <trkpt lat="45.97585" lon="4.58164">
        <ele>540</ele>
        <time>2018-11-02T11:27:18Z</time>
      </trkpt>
      <trkpt lat="45.97589" lon="4.58164">
        <ele>539</ele>
        <time>2018-11-02T11:27:19Z</time>
      </trkpt>
      <trkpt lat="45.97597" lon="4.58166">
        <ele>538</ele>
        <time>2018-11-02T11:27:21Z</time>
      </trkpt>
      <trkpt lat="45.97601" lon="4.58166">
        <ele>537</ele>
        <time>2018-11-02T11:27:22Z</time>
      </trkpt>
      <trkpt lat="45.97609" lon="4.58167">
        <ele>537</ele>
        <time>2018-11-02T11:27:24Z</time>
      </trkpt>
      <trkpt lat="45.97613" lon="4.58167">
        <ele>545</ele>
        <time>2018-11-02T11:27:25Z</time>
      </trkpt>
      <trkpt lat="45.97622" lon="4.58169">
        <ele>546</ele>
        <time>2018-11-02T11:27:27Z</time>
      </trkpt>
      <trkpt lat="45.97626" lon="4.58169">
        <ele>546</ele>
        <time>2018-11-02T11:27:28Z</time>
      </trkpt>
      <trkpt lat="45.97634" lon="4.5817">
        <ele>546</ele>
        <time>2018-11-02T11:27:30Z</time>
      </trkpt>
      <trkpt lat="45.97638" lon="4.58171">
        <ele>545</ele>
        <time>2018-11-02T11:27:31Z</time>
      </trkpt>
      <trkpt lat="45.97647" lon="4.58173">
        <ele>545</ele>
        <time>2018-11-02T11:27:33Z</time>
      </trkpt>
      <trkpt lat="45.97651" lon="4.58174">
        <ele>545</ele>
        <time>2018-11-02T11:27:34Z</time>
      </trkpt>
      <trkpt lat="45.97659" lon="4.58177">
        <ele>544</ele>
        <time>2018-11-02T11:27:36Z</time>
      </trkpt>
      <trkpt lat="45.97663" lon="4.58178">
        <ele>544</ele>
        <time>2018-11-02T11:27:37Z</time>
      </trkpt>
      <trkpt lat="45.97671" lon="4.58181">
        <ele>545</ele>
        <time>2018-11-02T11:27:39Z</time>
      </trkpt>
      <trkpt lat="45.97675" lon="4.58183">
        <ele>545</ele>
        <time>2018-11-02T11:27:40Z</time>
      </trkpt>
      <trkpt lat="45.97683" lon="4.58186">
        <ele>546</ele>
        <time>2018-11-02T11:27:42Z</time>
      </trkpt>
      <trkpt lat="45.97687" lon="4.58187">
        <ele>546</ele>
        <time>2018-11-02T11:27:43Z</time>
      </trkpt>
      <trkpt lat="45.97695" lon="4.5819">
        <ele>546</ele>
        <time>2018-11-02T11:27:45Z</time>
      </trkpt>
      <trkpt lat="45.97699" lon="4.58192">
        <ele>546</ele>
        <time>2018-11-02T11:27:46Z</time>
      </trkpt>
      <trkpt lat="45.97707" lon="4.58195">
        <ele>547</ele>
        <time>2018-11-02T11:27:48Z</time>
      </trkpt>
      <trkpt lat="45.97711" lon="4.58197">
        <ele>547</ele>
        <time>2018-11-02T11:27:49Z</time>
      </trkpt>
      <trkpt lat="45.97718" lon="4.58201">
        <ele>547</ele>
        <time>2018-11-02T11:27:51Z</time>
      </trkpt>
      <trkpt lat="45.97722" lon="4.58203">
        <ele>547</ele>
        <time>2018-11-02T11:27:52Z</time>
      </trkpt>
      <trkpt lat="45.97727" lon="4.58206">
        <ele>547</ele>
        <time>2018-11-02T11:27:54Z</time>
      </trkpt>
      <trkpt lat="45.97732" lon="4.58209">
        <ele>548</ele>
        <time>2018-11-02T11:27:55Z</time>
      </trkpt>
      <trkpt lat="45.97739" lon="4.58213">
        <ele>548</ele>
        <time>2018-11-02T11:27:57Z</time>
      </trkpt>
      <trkpt lat="45.97742" lon="4.58216">
        <ele>548</ele>
        <time>2018-11-02T11:27:58Z</time>
      </trkpt>
      <trkpt lat="45.97749" lon="4.5822">
        <ele>548</ele>
        <time>2018-11-02T11:28:00Z</time>
      </trkpt>
      <trkpt lat="45.97752" lon="4.58223">
        <ele>549</ele>
        <time>2018-11-02T11:28:01Z</time>
      </trkpt>
      <trkpt lat="45.97759" lon="4.58229">
        <ele>549</ele>
        <time>2018-11-02T11:28:03Z</time>
      </trkpt>
      <trkpt lat="45.97762" lon="4.58232">
        <ele>550</ele>
        <time>2018-11-02T11:28:04Z</time>
      </trkpt>
      <trkpt lat="45.97768" lon="4.58239">
        <ele>550</ele>
        <time>2018-11-02T11:28:06Z</time>
      </trkpt>
      <trkpt lat="45.97772" lon="4.58243">
        <ele>550</ele>
        <time>2018-11-02T11:28:07Z</time>
      </trkpt>
      <trkpt lat="45.97778" lon="4.5825">
        <ele>551</ele>
        <time>2018-11-02T11:28:09Z</time>
      </trkpt>
      <trkpt lat="45.97781" lon="4.58255">
        <ele>551</ele>
        <time>2018-11-02T11:28:10Z</time>
      </trkpt>
      <trkpt lat="45.97787" lon="4.58264">
        <ele>551</ele>
        <time>2018-11-02T11:28:13Z</time>
      </trkpt>
      <trkpt lat="45.97789" lon="4.58267">
        <ele>551</ele>
        <time>2018-11-02T11:28:14Z</time>
      </trkpt>
      <trkpt lat="45.97792" lon="4.58273">
        <ele>551</ele>
        <time>2018-11-02T11:28:16Z</time>
      </trkpt>
      <trkpt lat="45.97795" lon="4.58277">
        <ele>551</ele>
        <time>2018-11-02T11:28:17Z</time>
      </trkpt>
      <trkpt lat="45.97798" lon="4.58284">
        <ele>551</ele>
        <time>2018-11-02T11:28:19Z</time>
      </trkpt>
      <trkpt lat="45.97803" lon="4.58293">
        <ele>551</ele>
        <time>2018-11-02T11:28:20Z</time>
      </trkpt>
      <trkpt lat="45.97806" lon="4.58303">
        <ele>551</ele>
        <time>2018-11-02T11:28:23Z</time>
      </trkpt>
      <trkpt lat="45.97807" lon="4.58307">
        <ele>551</ele>
        <time>2018-11-02T11:28:24Z</time>
      </trkpt>
      <trkpt lat="45.97809" lon="4.58319">
        <ele>551</ele>
        <time>2018-11-02T11:28:27Z</time>
      </trkpt>
      <trkpt lat="45.9781" lon="4.58323">
        <ele>551</ele>
        <time>2018-11-02T11:28:28Z</time>
      </trkpt>
      <trkpt lat="45.97814" lon="4.58334">
        <ele>551</ele>
        <time>2018-11-02T11:28:47Z</time>
      </trkpt>
      <trkpt lat="45.97814" lon="4.58334">
        <ele>551</ele>
        <time>2018-11-02T11:28:48Z</time>
      </trkpt>
      <trkpt lat="45.97817" lon="4.58332">
        <ele>551</ele>
        <time>2018-11-02T11:34:50Z</time>
      </trkpt>
      <trkpt lat="45.97817" lon="4.58332">
        <ele>551</ele>
        <time>2018-11-02T11:34:51Z</time>
      </trkpt>
      <trkpt lat="45.97817" lon="4.58332">
        <ele>551</ele>
        <time>2018-11-02T11:34:54Z</time>
      </trkpt>
      <trkpt lat="45.97817" lon="4.58332">
        <ele>551</ele>
        <time>2018-11-02T11:34:55Z</time>
      </trkpt>
      <trkpt lat="45.97821" lon="4.58342">
        <ele>551</ele>
        <time>2018-11-02T11:38:01Z</time>
      </trkpt>
      <trkpt lat="45.97822" lon="4.58344">
        <ele>551</ele>
        <time>2018-11-02T11:38:02Z</time>
      </trkpt>
      <trkpt lat="45.97822" lon="4.58344">
        <ele>551</ele>
        <time>2018-11-02T11:38:03Z</time>
      </trkpt>
      <trkpt lat="45.97822" lon="4.58344">
        <ele>551</ele>
        <time>2018-11-02T11:38:04Z</time>
      </trkpt>
      <trkpt lat="45.97822" lon="4.58354">
        <ele>551</ele>
        <time>2018-11-02T11:38:15Z</time>
      </trkpt>
      <trkpt lat="45.97822" lon="4.58358">
        <ele>551</ele>
        <time>2018-11-02T11:38:16Z</time>
      </trkpt>
      <trkpt lat="45.97823" lon="4.58369">
        <ele>551</ele>
        <time>2018-11-02T11:38:19Z</time>
      </trkpt>
      <trkpt lat="45.97823" lon="4.58378">
        <ele>551</ele>
        <time>2018-11-02T11:38:20Z</time>
      </trkpt>
      <trkpt lat="45.97822" lon="4.5839">
        <ele>551</ele>
        <time>2018-11-02T11:38:22Z</time>
      </trkpt>
      <trkpt lat="45.97821" lon="4.58397">
        <ele>551</ele>
        <time>2018-11-02T11:38:23Z</time>
      </trkpt>
      <trkpt lat="45.9782" lon="4.58405">
        <ele>551</ele>
        <time>2018-11-02T11:38:24Z</time>
      </trkpt>
      <trkpt lat="45.9782" lon="4.58412">
        <ele>551</ele>
        <time>2018-11-02T11:38:25Z</time>
      </trkpt>
      <trkpt lat="45.97819" lon="4.5842">
        <ele>550</ele>
        <time>2018-11-02T11:38:26Z</time>
      </trkpt>
      <trkpt lat="45.97819" lon="4.58429">
        <ele>550</ele>
        <time>2018-11-02T11:38:27Z</time>
      </trkpt>
      <trkpt lat="45.97819" lon="4.58438">
        <ele>549</ele>
        <time>2018-11-02T11:38:28Z</time>
      </trkpt>
      <trkpt lat="45.97819" lon="4.58447">
        <ele>549</ele>
        <time>2018-11-02T11:38:29Z</time>
      </trkpt>
      <trkpt lat="45.9782" lon="4.58456">
        <ele>549</ele>
        <time>2018-11-02T11:38:30Z</time>
      </trkpt>
      <trkpt lat="45.9782" lon="4.58466">
        <ele>548</ele>
        <time>2018-11-02T11:38:31Z</time>
      </trkpt>
      <trkpt lat="45.9782" lon="4.58476">
        <ele>548</ele>
        <time>2018-11-02T11:38:32Z</time>
      </trkpt>
      <trkpt lat="45.9782" lon="4.58485">
        <ele>547</ele>
        <time>2018-11-02T11:38:33Z</time>
      </trkpt>
      <trkpt lat="45.97821" lon="4.58493">
        <ele>547</ele>
        <time>2018-11-02T11:38:34Z</time>
      </trkpt>
      <trkpt lat="45.97821" lon="4.58501">
        <ele>545</ele>
        <time>2018-11-02T11:38:35Z</time>
      </trkpt>
      <trkpt lat="45.9782" lon="4.58509">
        <ele>545</ele>
        <time>2018-11-02T11:38:36Z</time>
      </trkpt>
      <trkpt lat="45.97823" lon="4.58517">
        <ele>544</ele>
        <time>2018-11-02T11:38:37Z</time>
      </trkpt>
      <trkpt lat="45.97824" lon="4.58526">
        <ele>544</ele>
        <time>2018-11-02T11:38:38Z</time>
      </trkpt>
      <trkpt lat="45.97826" lon="4.58532">
        <ele>544</ele>
        <time>2018-11-02T11:38:39Z</time>
      </trkpt>
      <trkpt lat="45.97831" lon="4.58542">
        <ele>543</ele>
        <time>2018-11-02T11:38:41Z</time>
      </trkpt>
      <trkpt lat="45.97834" lon="4.58546">
        <ele>541</ele>
        <time>2018-11-02T11:38:42Z</time>
      </trkpt>
      <trkpt lat="45.97838" lon="4.58549">
        <ele>541</ele>
        <time>2018-11-02T11:38:43Z</time>
      </trkpt>
      <trkpt lat="45.97844" lon="4.58551">
        <ele>540</ele>
        <time>2018-11-02T11:38:44Z</time>
      </trkpt>
      <trkpt lat="45.97849" lon="4.58551">
        <ele>540</ele>
        <time>2018-11-02T11:38:45Z</time>
      </trkpt>
      <trkpt lat="45.97854" lon="4.58553">
        <ele>540</ele>
        <time>2018-11-02T11:38:46Z</time>
      </trkpt>
      <trkpt lat="45.9786" lon="4.58552">
        <ele>540</ele>
        <time>2018-11-02T11:38:47Z</time>
      </trkpt>
      <trkpt lat="45.97865" lon="4.5855">
        <ele>540</ele>
        <time>2018-11-02T11:38:48Z</time>
      </trkpt>
      <trkpt lat="45.97872" lon="4.58549">
        <ele>540</ele>
        <time>2018-11-02T11:38:49Z</time>
      </trkpt>
      <trkpt lat="45.97879" lon="4.58549">
        <ele>540</ele>
        <time>2018-11-02T11:38:50Z</time>
      </trkpt>
      <trkpt lat="45.97887" lon="4.58548">
        <ele>540</ele>
        <time>2018-11-02T11:38:51Z</time>
      </trkpt>
      <trkpt lat="45.97894" lon="4.58548">
        <ele>540</ele>
        <time>2018-11-02T11:38:52Z</time>
      </trkpt>
      <trkpt lat="45.97902" lon="4.58548">
        <ele>539</ele>
        <time>2018-11-02T11:38:53Z</time>
      </trkpt>
      <trkpt lat="45.97909" lon="4.58547">
        <ele>539</ele>
        <time>2018-11-02T11:38:54Z</time>
      </trkpt>
      <trkpt lat="45.97917" lon="4.58547">
        <ele>536</ele>
        <time>2018-11-02T11:38:55Z</time>
      </trkpt>
      <trkpt lat="45.97925" lon="4.58547">
        <ele>536</ele>
        <time>2018-11-02T11:38:56Z</time>
      </trkpt>
      <trkpt lat="45.97933" lon="4.58548">
        <ele>536</ele>
        <time>2018-11-02T11:38:57Z</time>
      </trkpt>
      <trkpt lat="45.97942" lon="4.58547">
        <ele>536</ele>
        <time>2018-11-02T11:38:58Z</time>
      </trkpt>
      <trkpt lat="45.97951" lon="4.58547">
        <ele>536</ele>
        <time>2018-11-02T11:38:59Z</time>
      </trkpt>
      <trkpt lat="45.9796" lon="4.58547">
        <ele>535</ele>
        <time>2018-11-02T11:39:00Z</time>
      </trkpt>
      <trkpt lat="45.97969" lon="4.58547">
        <ele>535</ele>
        <time>2018-11-02T11:39:01Z</time>
      </trkpt>
      <trkpt lat="45.97978" lon="4.58547">
        <ele>534</ele>
        <time>2018-11-02T11:39:02Z</time>
      </trkpt>
      <trkpt lat="45.97987" lon="4.58546">
        <ele>534</ele>
        <time>2018-11-02T11:39:03Z</time>
      </trkpt>
      <trkpt lat="45.97997" lon="4.58546">
        <ele>534</ele>
        <time>2018-11-02T11:39:04Z</time>
      </trkpt>
      <trkpt lat="45.98006" lon="4.58546">
        <ele>530</ele>
        <time>2018-11-02T11:39:05Z</time>
      </trkpt>
      <trkpt lat="45.98016" lon="4.58547">
        <ele>530</ele>
        <time>2018-11-02T11:39:06Z</time>
      </trkpt>
      <trkpt lat="45.98026" lon="4.58547">
        <ele>530</ele>
        <time>2018-11-02T11:39:07Z</time>
      </trkpt>
      <trkpt lat="45.98035" lon="4.58547">
        <ele>530</ele>
        <time>2018-11-02T11:39:08Z</time>
      </trkpt>
      <trkpt lat="45.98045" lon="4.58547">
        <ele>529</ele>
        <time>2018-11-02T11:39:09Z</time>
      </trkpt>
      <trkpt lat="45.98055" lon="4.58547">
        <ele>529</ele>
        <time>2018-11-02T11:39:10Z</time>
      </trkpt>
      <trkpt lat="45.98066" lon="4.58549">
        <ele>528</ele>
        <time>2018-11-02T11:39:11Z</time>
      </trkpt>
      <trkpt lat="45.98076" lon="4.58549">
        <ele>528</ele>
        <time>2018-11-02T11:39:12Z</time>
      </trkpt>
      <trkpt lat="45.98086" lon="4.58552">
        <ele>525</ele>
        <time>2018-11-02T11:39:13Z</time>
      </trkpt>
      <trkpt lat="45.98097" lon="4.58553">
        <ele>525</ele>
        <time>2018-11-02T11:39:14Z</time>
      </trkpt>
      <trkpt lat="45.98107" lon="4.58555">
        <ele>525</ele>
        <time>2018-11-02T11:39:15Z</time>
      </trkpt>
      <trkpt lat="45.98118" lon="4.58557">
        <ele>525</ele>
        <time>2018-11-02T11:39:16Z</time>
      </trkpt>
      <trkpt lat="45.98128" lon="4.58559">
        <ele>525</ele>
        <time>2018-11-02T11:39:17Z</time>
      </trkpt>
      <trkpt lat="45.98139" lon="4.58561">
        <ele>524</ele>
        <time>2018-11-02T11:39:18Z</time>
      </trkpt>
      <trkpt lat="45.9815" lon="4.58563">
        <ele>523</ele>
        <time>2018-11-02T11:39:19Z</time>
      </trkpt>
      <trkpt lat="45.98161" lon="4.58566">
        <ele>522</ele>
        <time>2018-11-02T11:39:20Z</time>
      </trkpt>
      <trkpt lat="45.98172" lon="4.58566">
        <ele>521</ele>
        <time>2018-11-02T11:39:21Z</time>
      </trkpt>
      <trkpt lat="45.98182" lon="4.58568">
        <ele>522</ele>
        <time>2018-11-02T11:39:22Z</time>
      </trkpt>
      <trkpt lat="45.98193" lon="4.58571">
        <ele>522</ele>
        <time>2018-11-02T11:39:23Z</time>
      </trkpt>
      <trkpt lat="45.98204" lon="4.58573">
        <ele>522</ele>
        <time>2018-11-02T11:39:24Z</time>
      </trkpt>
      <trkpt lat="45.98215" lon="4.58575">
        <ele>522</ele>
        <time>2018-11-02T11:39:25Z</time>
      </trkpt>
      <trkpt lat="45.98225" lon="4.58577">
        <ele>521</ele>
        <time>2018-11-02T11:39:26Z</time>
      </trkpt>
      <trkpt lat="45.98236" lon="4.58579">
        <ele>520</ele>
        <time>2018-11-02T11:39:27Z</time>
      </trkpt>
      <trkpt lat="45.98247" lon="4.58581">
        <ele>519</ele>
        <time>2018-11-02T11:39:28Z</time>
      </trkpt>
      <trkpt lat="45.98257" lon="4.58581">
        <ele>518</ele>
        <time>2018-11-02T11:39:29Z</time>
      </trkpt>
      <trkpt lat="45.98266" lon="4.58581">
        <ele>518</ele>
        <time>2018-11-02T11:39:30Z</time>
      </trkpt>
      <trkpt lat="45.98276" lon="4.58582">
        <ele>518</ele>
        <time>2018-11-02T11:39:31Z</time>
      </trkpt>
      <trkpt lat="45.98285" lon="4.58582">
        <ele>518</ele>
        <time>2018-11-02T11:39:32Z</time>
      </trkpt>
      <trkpt lat="45.98293" lon="4.5858">
        <ele>517</ele>
        <time>2018-11-02T11:39:33Z</time>
      </trkpt>
      <trkpt lat="45.98301" lon="4.58579">
        <ele>517</ele>
        <time>2018-11-02T11:39:34Z</time>
      </trkpt>
      <trkpt lat="45.98309" lon="4.58579">
        <ele>516</ele>
        <time>2018-11-02T11:39:35Z</time>
      </trkpt>
      <trkpt lat="45.98317" lon="4.58575">
        <ele>515</ele>
        <time>2018-11-02T11:39:36Z</time>
      </trkpt>
      <trkpt lat="45.98326" lon="4.58574">
        <ele>514</ele>
        <time>2018-11-02T11:39:37Z</time>
      </trkpt>
      <trkpt lat="45.98333" lon="4.58573">
        <ele>513</ele>
        <time>2018-11-02T11:39:38Z</time>
      </trkpt>
      <trkpt lat="45.98341" lon="4.58571">
        <ele>511</ele>
        <time>2018-11-02T11:39:39Z</time>
      </trkpt>
      <trkpt lat="45.98347" lon="4.58571">
        <ele>511</ele>
        <time>2018-11-02T11:39:40Z</time>
      </trkpt>
      <trkpt lat="45.98353" lon="4.58569">
        <ele>511</ele>
        <time>2018-11-02T11:39:41Z</time>
      </trkpt>
      <trkpt lat="45.98359" lon="4.58569">
        <ele>510</ele>
        <time>2018-11-02T11:39:42Z</time>
      </trkpt>
      <trkpt lat="45.98365" lon="4.58569">
        <ele>510</ele>
        <time>2018-11-02T11:39:43Z</time>
      </trkpt>
      <trkpt lat="45.9837" lon="4.58571">
        <ele>510</ele>
        <time>2018-11-02T11:39:44Z</time>
      </trkpt>
      <trkpt lat="45.98375" lon="4.58576">
        <ele>509</ele>
        <time>2018-11-02T11:39:45Z</time>
      </trkpt>
      <trkpt lat="45.9838" lon="4.58581">
        <ele>509</ele>
        <time>2018-11-02T11:39:46Z</time>
      </trkpt>
      <trkpt lat="45.98382" lon="4.5859">
        <ele>504</ele>
        <time>2018-11-02T11:39:47Z</time>
      </trkpt>
      <trkpt lat="45.98382" lon="4.58598">
        <ele>504</ele>
        <time>2018-11-02T11:39:48Z</time>
      </trkpt>
      <trkpt lat="45.9838" lon="4.58607">
        <ele>503</ele>
        <time>2018-11-02T11:39:49Z</time>
      </trkpt>
      <trkpt lat="45.98376" lon="4.58616">
        <ele>503</ele>
        <time>2018-11-02T11:39:50Z</time>
      </trkpt>
      <trkpt lat="45.98371" lon="4.58622">
        <ele>503</ele>
        <time>2018-11-02T11:39:51Z</time>
      </trkpt>
      <trkpt lat="45.98365" lon="4.58627">
        <ele>503</ele>
        <time>2018-11-02T11:39:52Z</time>
      </trkpt>
      <trkpt lat="45.9836" lon="4.58633">
        <ele>503</ele>
        <time>2018-11-02T11:39:53Z</time>
      </trkpt>
      <trkpt lat="45.98353" lon="4.58637">
        <ele>503</ele>
        <time>2018-11-02T11:39:54Z</time>
      </trkpt>
      <trkpt lat="45.98347" lon="4.58642">
        <ele>503</ele>
        <time>2018-11-02T11:39:55Z</time>
      </trkpt>
      <trkpt lat="45.9834" lon="4.58647">
        <ele>503</ele>
        <time>2018-11-02T11:39:56Z</time>
      </trkpt>
      <trkpt lat="45.98334" lon="4.58654">
        <ele>502</ele>
        <time>2018-11-02T11:39:57Z</time>
      </trkpt>
      <trkpt lat="45.98327" lon="4.5866">
        <ele>504</ele>
        <time>2018-11-02T11:39:58Z</time>
      </trkpt>
      <trkpt lat="45.98321" lon="4.58666">
        <ele>504</ele>
        <time>2018-11-02T11:39:59Z</time>
      </trkpt>
      <trkpt lat="45.98314" lon="4.58673">
        <ele>500</ele>
        <time>2018-11-02T11:40:00Z</time>
      </trkpt>
      <trkpt lat="45.98307" lon="4.58678">
        <ele>500</ele>
        <time>2018-11-02T11:40:01Z</time>
      </trkpt>
      <trkpt lat="45.983" lon="4.58685">
        <ele>500</ele>
        <time>2018-11-02T11:40:02Z</time>
      </trkpt>
      <trkpt lat="45.98292" lon="4.5869">
        <ele>500</ele>
        <time>2018-11-02T11:40:03Z</time>
      </trkpt>
      <trkpt lat="45.98285" lon="4.58696">
        <ele>499</ele>
        <time>2018-11-02T11:40:04Z</time>
      </trkpt>
      <trkpt lat="45.98278" lon="4.58702">
        <ele>499</ele>
        <time>2018-11-02T11:40:05Z</time>
      </trkpt>
      <trkpt lat="45.98271" lon="4.58709">
        <ele>499</ele>
        <time>2018-11-02T11:40:06Z</time>
      </trkpt>
      <trkpt lat="45.98263" lon="4.58715">
        <ele>498</ele>
        <time>2018-11-02T11:40:07Z</time>
      </trkpt>
      <trkpt lat="45.98255" lon="4.5872">
        <ele>498</ele>
        <time>2018-11-02T11:40:08Z</time>
      </trkpt>
      <trkpt lat="45.98248" lon="4.58728">
        <ele>499</ele>
        <time>2018-11-02T11:40:09Z</time>
      </trkpt>
      <trkpt lat="45.9824" lon="4.58735">
        <ele>498</ele>
        <time>2018-11-02T11:40:10Z</time>
      </trkpt>
      <trkpt lat="45.98231" lon="4.58741">
        <ele>498</ele>
        <time>2018-11-02T11:40:11Z</time>
      </trkpt>
      <trkpt lat="45.98224" lon="4.5875">
        <ele>499</ele>
        <time>2018-11-02T11:40:12Z</time>
      </trkpt>
      <trkpt lat="45.98215" lon="4.58757">
        <ele>493</ele>
        <time>2018-11-02T11:40:13Z</time>
      </trkpt>
      <trkpt lat="45.98207" lon="4.58764">
        <ele>493</ele>
        <time>2018-11-02T11:40:14Z</time>
      </trkpt>
      <trkpt lat="45.98199" lon="4.58773">
        <ele>493</ele>
        <time>2018-11-02T11:40:15Z</time>
      </trkpt>
      <trkpt lat="45.98187" lon="4.58779">
        <ele>493</ele>
        <time>2018-11-02T11:40:16Z</time>
      </trkpt>
      <trkpt lat="45.98177" lon="4.58787">
        <ele>493</ele>
        <time>2018-11-02T11:40:17Z</time>
      </trkpt>
      <trkpt lat="45.98167" lon="4.58796">
        <ele>494</ele>
        <time>2018-11-02T11:40:18Z</time>
      </trkpt>
      <trkpt lat="45.9816" lon="4.58803">
        <ele>494</ele>
        <time>2018-11-02T11:40:19Z</time>
      </trkpt>
      <trkpt lat="45.98153" lon="4.58809">
        <ele>493</ele>
        <time>2018-11-02T11:40:20Z</time>
      </trkpt>
      <trkpt lat="45.98146" lon="4.58817">
        <ele>493</ele>
        <time>2018-11-02T11:40:21Z</time>
      </trkpt>
      <trkpt lat="45.98137" lon="4.58824">
        <ele>493</ele>
        <time>2018-11-02T11:40:22Z</time>
      </trkpt>
      <trkpt lat="45.98127" lon="4.5883">
        <ele>493</ele>
        <time>2018-11-02T11:40:23Z</time>
      </trkpt>
      <trkpt lat="45.9812" lon="4.58837">
        <ele>486</ele>
        <time>2018-11-02T11:40:24Z</time>
      </trkpt>
      <trkpt lat="45.98111" lon="4.58844">
        <ele>486</ele>
        <time>2018-11-02T11:40:25Z</time>
      </trkpt>
      <trkpt lat="45.98104" lon="4.58852">
        <ele>486</ele>
        <time>2018-11-02T11:40:26Z</time>
      </trkpt>
      <trkpt lat="45.981" lon="4.58863">
        <ele>486</ele>
        <time>2018-11-02T11:40:27Z</time>
      </trkpt>
      <trkpt lat="45.98097" lon="4.58876">
        <ele>485</ele>
        <time>2018-11-02T11:40:28Z</time>
      </trkpt>
      <trkpt lat="45.98095" lon="4.58889">
        <ele>484</ele>
        <time>2018-11-02T11:40:29Z</time>
      </trkpt>
      <trkpt lat="45.98096" lon="4.58901">
        <ele>484</ele>
        <time>2018-11-02T11:40:30Z</time>
      </trkpt>
      <trkpt lat="45.98097" lon="4.58915">
        <ele>484</ele>
        <time>2018-11-02T11:40:31Z</time>
      </trkpt>
      <trkpt lat="45.98098" lon="4.58929">
        <ele>479</ele>
        <time>2018-11-02T11:40:32Z</time>
      </trkpt>
      <trkpt lat="45.98099" lon="4.58943">
        <ele>478</ele>
        <time>2018-11-02T11:40:33Z</time>
      </trkpt>
      <trkpt lat="45.981" lon="4.58958">
        <ele>477</ele>
        <time>2018-11-02T11:40:34Z</time>
      </trkpt>
      <trkpt lat="45.98099" lon="4.58972">
        <ele>476</ele>
        <time>2018-11-02T11:40:35Z</time>
      </trkpt>
      <trkpt lat="45.98098" lon="4.58987">
        <ele>477</ele>
        <time>2018-11-02T11:40:36Z</time>
      </trkpt>
      <trkpt lat="45.98095" lon="4.59001">
        <ele>475</ele>
        <time>2018-11-02T11:40:37Z</time>
      </trkpt>
      <trkpt lat="45.98091" lon="4.59015">
        <ele>473</ele>
        <time>2018-11-02T11:40:38Z</time>
      </trkpt>
      <trkpt lat="45.98086" lon="4.59029">
        <ele>471</ele>
        <time>2018-11-02T11:40:39Z</time>
      </trkpt>
      <trkpt lat="45.98081" lon="4.59042">
        <ele>480</ele>
        <time>2018-11-02T11:40:40Z</time>
      </trkpt>
      <trkpt lat="45.98076" lon="4.59055">
        <ele>479</ele>
        <time>2018-11-02T11:40:41Z</time>
      </trkpt>
      <trkpt lat="45.9807" lon="4.59067">
        <ele>478</ele>
        <time>2018-11-02T11:40:42Z</time>
      </trkpt>
      <trkpt lat="45.98065" lon="4.59081">
        <ele>478</ele>
        <time>2018-11-02T11:40:43Z</time>
      </trkpt>
      <trkpt lat="45.98059" lon="4.59093">
        <ele>473</ele>
        <time>2018-11-02T11:40:44Z</time>
      </trkpt>
      <trkpt lat="45.98052" lon="4.59106">
        <ele>473</ele>
        <time>2018-11-02T11:40:45Z</time>
      </trkpt>
      <trkpt lat="45.98045" lon="4.59118">
        <ele>472</ele>
        <time>2018-11-02T11:40:46Z</time>
      </trkpt>
      <trkpt lat="45.98038" lon="4.59129">
        <ele>472</ele>
        <time>2018-11-02T11:40:47Z</time>
      </trkpt>
      <trkpt lat="45.9803" lon="4.5914">
        <ele>471</ele>
        <time>2018-11-02T11:40:48Z</time>
      </trkpt>
      <trkpt lat="45.98021" lon="4.5915">
        <ele>471</ele>
        <time>2018-11-02T11:40:49Z</time>
      </trkpt>
      <trkpt lat="45.98012" lon="4.59159">
        <ele>470</ele>
        <time>2018-11-02T11:40:50Z</time>
      </trkpt>
      <trkpt lat="45.98002" lon="4.59166">
        <ele>469</ele>
        <time>2018-11-02T11:40:51Z</time>
      </trkpt>
      <trkpt lat="45.97992" lon="4.59173">
        <ele>470</ele>
        <time>2018-11-02T11:40:52Z</time>
      </trkpt>
      <trkpt lat="45.97983" lon="4.59181">
        <ele>471</ele>
        <time>2018-11-02T11:40:53Z</time>
      </trkpt>
      <trkpt lat="45.97974" lon="4.5919">
        <ele>472</ele>
        <time>2018-11-02T11:40:54Z</time>
      </trkpt>
      <trkpt lat="45.97967" lon="4.59204">
        <ele>472</ele>
        <time>2018-11-02T11:40:55Z</time>
      </trkpt>
      <trkpt lat="45.97961" lon="4.59219">
        <ele>472</ele>
        <time>2018-11-02T11:40:56Z</time>
      </trkpt>
      <trkpt lat="45.97958" lon="4.59236">
        <ele>472</ele>
        <time>2018-11-02T11:40:57Z</time>
      </trkpt>
      <trkpt lat="45.97957" lon="4.59252">
        <ele>470</ele>
        <time>2018-11-02T11:40:58Z</time>
      </trkpt>
      <trkpt lat="45.97959" lon="4.59267">
        <ele>469</ele>
        <time>2018-11-02T11:40:59Z</time>
      </trkpt>
      <trkpt lat="45.97962" lon="4.59282">
        <ele>469</ele>
        <time>2018-11-02T11:41:00Z</time>
      </trkpt>
      <trkpt lat="45.97965" lon="4.59297">
        <ele>468</ele>
        <time>2018-11-02T11:41:01Z</time>
      </trkpt>
      <trkpt lat="45.97968" lon="4.59312">
        <ele>467</ele>
        <time>2018-11-02T11:41:02Z</time>
      </trkpt>
      <trkpt lat="45.97972" lon="4.59327">
        <ele>466</ele>
        <time>2018-11-02T11:41:03Z</time>
      </trkpt>
      <trkpt lat="45.97975" lon="4.59341">
        <ele>464</ele>
        <time>2018-11-02T11:41:04Z</time>
      </trkpt>
      <trkpt lat="45.97978" lon="4.59356">
        <ele>464</ele>
        <time>2018-11-02T11:41:05Z</time>
      </trkpt>
      <trkpt lat="45.9798" lon="4.59371">
        <ele>464</ele>
        <time>2018-11-02T11:41:06Z</time>
      </trkpt>
      <trkpt lat="45.97981" lon="4.59385">
        <ele>463</ele>
        <time>2018-11-02T11:41:07Z</time>
      </trkpt>
      <trkpt lat="45.97981" lon="4.59399">
        <ele>462</ele>
        <time>2018-11-02T11:41:08Z</time>
      </trkpt>
      <trkpt lat="45.97979" lon="4.5941">
        <ele>462</ele>
        <time>2018-11-02T11:41:09Z</time>
      </trkpt>
      <trkpt lat="45.97975" lon="4.59423">
        <ele>458</ele>
        <time>2018-11-02T11:41:10Z</time>
      </trkpt>
      <trkpt lat="45.97971" lon="4.59434">
        <ele>459</ele>
        <time>2018-11-02T11:41:11Z</time>
      </trkpt>
      <trkpt lat="45.97964" lon="4.59445">
        <ele>459</ele>
        <time>2018-11-02T11:41:12Z</time>
      </trkpt>
      <trkpt lat="45.9796" lon="4.59456">
        <ele>459</ele>
        <time>2018-11-02T11:41:13Z</time>
      </trkpt>
      <trkpt lat="45.97955" lon="4.59468">
        <ele>459</ele>
        <time>2018-11-02T11:41:14Z</time>
      </trkpt>
      <trkpt lat="45.9795" lon="4.59481">
        <ele>459</ele>
        <time>2018-11-02T11:41:15Z</time>
      </trkpt>
      <trkpt lat="45.97947" lon="4.59495">
        <ele>459</ele>
        <time>2018-11-02T11:41:16Z</time>
      </trkpt>
      <trkpt lat="45.97944" lon="4.59509">
        <ele>452</ele>
        <time>2018-11-02T11:41:17Z</time>
      </trkpt>
      <trkpt lat="45.97943" lon="4.59522">
        <ele>450</ele>
        <time>2018-11-02T11:41:18Z</time>
      </trkpt>
      <trkpt lat="45.97943" lon="4.59537">
        <ele>449</ele>
        <time>2018-11-02T11:41:19Z</time>
      </trkpt>
      <trkpt lat="45.97941" lon="4.5955">
        <ele>448</ele>
        <time>2018-11-02T11:41:20Z</time>
      </trkpt>
      <trkpt lat="45.97938" lon="4.59563">
        <ele>447</ele>
        <time>2018-11-02T11:41:21Z</time>
      </trkpt>
      <trkpt lat="45.97933" lon="4.59575">
        <ele>447</ele>
        <time>2018-11-02T11:41:22Z</time>
      </trkpt>
      <trkpt lat="45.97926" lon="4.59584">
        <ele>444</ele>
        <time>2018-11-02T11:41:23Z</time>
      </trkpt>
      <trkpt lat="45.97917" lon="4.59593">
        <ele>444</ele>
        <time>2018-11-02T11:41:24Z</time>
      </trkpt>
      <trkpt lat="45.97908" lon="4.59599">
        <ele>447</ele>
        <time>2018-11-02T11:41:25Z</time>
      </trkpt>
      <trkpt lat="45.97897" lon="4.59604">
        <ele>447</ele>
        <time>2018-11-02T11:41:26Z</time>
      </trkpt>
      <trkpt lat="45.97888" lon="4.59607">
        <ele>447</ele>
        <time>2018-11-02T11:41:27Z</time>
      </trkpt>
      <trkpt lat="45.97877" lon="4.59611">
        <ele>447</ele>
        <time>2018-11-02T11:41:28Z</time>
      </trkpt>
      <trkpt lat="45.97868" lon="4.59615">
        <ele>447</ele>
        <time>2018-11-02T11:41:29Z</time>
      </trkpt>
      <trkpt lat="45.97858" lon="4.5962">
        <ele>447</ele>
        <time>2018-11-02T11:41:30Z</time>
      </trkpt>
      <trkpt lat="45.97848" lon="4.59627">
        <ele>447</ele>
        <time>2018-11-02T11:41:31Z</time>
      </trkpt>
      <trkpt lat="45.97839" lon="4.59636">
        <ele>445</ele>
        <time>2018-11-02T11:41:32Z</time>
      </trkpt>
      <trkpt lat="45.9783" lon="4.59645">
        <ele>448</ele>
        <time>2018-11-02T11:41:33Z</time>
      </trkpt>
      <trkpt lat="45.97821" lon="4.59655">
        <ele>446</ele>
        <time>2018-11-02T11:41:34Z</time>
      </trkpt>
      <trkpt lat="45.97814" lon="4.59666">
        <ele>447</ele>
        <time>2018-11-02T11:41:35Z</time>
      </trkpt>
      <trkpt lat="45.97807" lon="4.59678">
        <ele>441</ele>
        <time>2018-11-02T11:41:36Z</time>
      </trkpt>
      <trkpt lat="45.97801" lon="4.59689">
        <ele>441</ele>
        <time>2018-11-02T11:41:37Z</time>
      </trkpt>
      <trkpt lat="45.97796" lon="4.59703">
        <ele>440</ele>
        <time>2018-11-02T11:41:38Z</time>
      </trkpt>
      <trkpt lat="45.97792" lon="4.59717">
        <ele>440</ele>
        <time>2018-11-02T11:41:39Z</time>
      </trkpt>
      <trkpt lat="45.97788" lon="4.59732">
        <ele>440</ele>
        <time>2018-11-02T11:41:40Z</time>
      </trkpt>
      <trkpt lat="45.97785" lon="4.59747">
        <ele>440</ele>
        <time>2018-11-02T11:41:41Z</time>
      </trkpt>
      <trkpt lat="45.97784" lon="4.59763">
        <ele>436</ele>
        <time>2018-11-02T11:41:42Z</time>
      </trkpt>
      <trkpt lat="45.97782" lon="4.59779">
        <ele>435</ele>
        <time>2018-11-02T11:41:43Z</time>
      </trkpt>
      <trkpt lat="45.9778" lon="4.59793">
        <ele>435</ele>
        <time>2018-11-02T11:41:44Z</time>
      </trkpt>
      <trkpt lat="45.97779" lon="4.59808">
        <ele>434</ele>
        <time>2018-11-02T11:41:45Z</time>
      </trkpt>
      <trkpt lat="45.97777" lon="4.59823">
        <ele>434</ele>
        <time>2018-11-02T11:41:46Z</time>
      </trkpt>
      <trkpt lat="45.97776" lon="4.59839">
        <ele>432</ele>
        <time>2018-11-02T11:41:47Z</time>
      </trkpt>
      <trkpt lat="45.97774" lon="4.59854">
        <ele>431</ele>
        <time>2018-11-02T11:41:48Z</time>
      </trkpt>
      <trkpt lat="45.97772" lon="4.59869">
        <ele>430</ele>
        <time>2018-11-02T11:41:49Z</time>
      </trkpt>
      <trkpt lat="45.9777" lon="4.59885">
        <ele>430</ele>
        <time>2018-11-02T11:41:50Z</time>
      </trkpt>
      <trkpt lat="45.97768" lon="4.599">
        <ele>430</ele>
        <time>2018-11-02T11:41:51Z</time>
      </trkpt>
      <trkpt lat="45.97766" lon="4.59916">
        <ele>430</ele>
        <time>2018-11-02T11:41:52Z</time>
      </trkpt>
      <trkpt lat="45.97764" lon="4.59933">
        <ele>427</ele>
        <time>2018-11-02T11:41:53Z</time>
      </trkpt>
      <trkpt lat="45.97763" lon="4.59947">
        <ele>426</ele>
        <time>2018-11-02T11:41:54Z</time>
      </trkpt>
      <trkpt lat="45.97761" lon="4.59963">
        <ele>425</ele>
        <time>2018-11-02T11:41:55Z</time>
      </trkpt>
      <trkpt lat="45.97759" lon="4.59978">
        <ele>424</ele>
        <time>2018-11-02T11:41:56Z</time>
      </trkpt>
      <trkpt lat="45.97756" lon="4.59994">
        <ele>425</ele>
        <time>2018-11-02T11:41:57Z</time>
      </trkpt>
      <trkpt lat="45.97754" lon="4.60009">
        <ele>422</ele>
        <time>2018-11-02T11:41:58Z</time>
      </trkpt>
      <trkpt lat="45.97752" lon="4.60024">
        <ele>420</ele>
        <time>2018-11-02T11:41:59Z</time>
      </trkpt>
      <trkpt lat="45.9775" lon="4.60039">
        <ele>425</ele>
        <time>2018-11-02T11:42:00Z</time>
      </trkpt>
      <trkpt lat="45.97748" lon="4.60054">
        <ele>424</ele>
        <time>2018-11-02T11:42:01Z</time>
      </trkpt>
      <trkpt lat="45.97745" lon="4.60069">
        <ele>422</ele>
        <time>2018-11-02T11:42:02Z</time>
      </trkpt>
      <trkpt lat="45.97742" lon="4.60083">
        <ele>421</ele>
        <time>2018-11-02T11:42:03Z</time>
      </trkpt>
      <trkpt lat="45.9774" lon="4.60099">
        <ele>420</ele>
        <time>2018-11-02T11:42:04Z</time>
      </trkpt>
      <trkpt lat="45.97737" lon="4.60113">
        <ele>420</ele>
        <time>2018-11-02T11:42:05Z</time>
      </trkpt>
      <trkpt lat="45.97732" lon="4.60126">
        <ele>420</ele>
        <time>2018-11-02T11:42:06Z</time>
      </trkpt>
      <trkpt lat="45.97728" lon="4.6014">
        <ele>419</ele>
        <time>2018-11-02T11:42:07Z</time>
      </trkpt>
      <trkpt lat="45.97724" lon="4.60153">
        <ele>419</ele>
        <time>2018-11-02T11:42:08Z</time>
      </trkpt>
      <trkpt lat="45.9772" lon="4.60166">
        <ele>419</ele>
        <time>2018-11-02T11:42:09Z</time>
      </trkpt>
      <trkpt lat="45.97716" lon="4.60178">
        <ele>417</ele>
        <time>2018-11-02T11:42:10Z</time>
      </trkpt>
      <trkpt lat="45.97712" lon="4.6019">
        <ele>417</ele>
        <time>2018-11-02T11:42:11Z</time>
      </trkpt>
      <trkpt lat="45.97708" lon="4.60202">
        <ele>417</ele>
        <time>2018-11-02T11:42:12Z</time>
      </trkpt>
      <trkpt lat="45.97704" lon="4.60214">
        <ele>417</ele>
        <time>2018-11-02T11:42:13Z</time>
      </trkpt>
      <trkpt lat="45.977" lon="4.60225">
        <ele>417</ele>
        <time>2018-11-02T11:42:14Z</time>
      </trkpt>
      <trkpt lat="45.97696" lon="4.60237">
        <ele>417</ele>
        <time>2018-11-02T11:42:15Z</time>
      </trkpt>
      <trkpt lat="45.97693" lon="4.60249">
        <ele>417</ele>
        <time>2018-11-02T11:42:16Z</time>
      </trkpt>
      <trkpt lat="45.97689" lon="4.6026">
        <ele>415</ele>
        <time>2018-11-02T11:42:17Z</time>
      </trkpt>
      <trkpt lat="45.97686" lon="4.60272">
        <ele>415</ele>
        <time>2018-11-02T11:42:18Z</time>
      </trkpt>
      <trkpt lat="45.97682" lon="4.60283">
        <ele>414</ele>
        <time>2018-11-02T11:42:19Z</time>
      </trkpt>
      <trkpt lat="45.97678" lon="4.60294">
        <ele>414</ele>
        <time>2018-11-02T11:42:20Z</time>
      </trkpt>
      <trkpt lat="45.97675" lon="4.60305">
        <ele>413</ele>
        <time>2018-11-02T11:42:21Z</time>
      </trkpt>
      <trkpt lat="45.97671" lon="4.60316">
        <ele>413</ele>
        <time>2018-11-02T11:42:22Z</time>
      </trkpt>
      <trkpt lat="45.97668" lon="4.60327">
        <ele>413</ele>
        <time>2018-11-02T11:42:23Z</time>
      </trkpt>
      <trkpt lat="45.97666" lon="4.60337">
        <ele>413</ele>
        <time>2018-11-02T11:42:24Z</time>
      </trkpt>
      <trkpt lat="45.97662" lon="4.60347">
        <ele>414</ele>
        <time>2018-11-02T11:42:25Z</time>
      </trkpt>
      <trkpt lat="45.97659" lon="4.60357">
        <ele>414</ele>
        <time>2018-11-02T11:42:26Z</time>
      </trkpt>
      <trkpt lat="45.97657" lon="4.60367">
        <ele>414</ele>
        <time>2018-11-02T11:42:27Z</time>
      </trkpt>
      <trkpt lat="45.97653" lon="4.60377">
        <ele>413</ele>
        <time>2018-11-02T11:42:28Z</time>
      </trkpt>
      <trkpt lat="45.97649" lon="4.60387">
        <ele>413</ele>
        <time>2018-11-02T11:42:29Z</time>
      </trkpt>
      <trkpt lat="45.97646" lon="4.60397">
        <ele>413</ele>
        <time>2018-11-02T11:42:30Z</time>
      </trkpt>
      <trkpt lat="45.97643" lon="4.60406">
        <ele>412</ele>
        <time>2018-11-02T11:42:31Z</time>
      </trkpt>
      <trkpt lat="45.97639" lon="4.60416">
        <ele>412</ele>
        <time>2018-11-02T11:42:32Z</time>
      </trkpt>
      <trkpt lat="45.97637" lon="4.60427">
        <ele>410</ele>
        <time>2018-11-02T11:42:33Z</time>
      </trkpt>
      <trkpt lat="45.97634" lon="4.60436">
        <ele>410</ele>
        <time>2018-11-02T11:42:34Z</time>
      </trkpt>
      <trkpt lat="45.9763" lon="4.60447">
        <ele>410</ele>
        <time>2018-11-02T11:42:35Z</time>
      </trkpt>
      <trkpt lat="45.97625" lon="4.60456">
        <ele>410</ele>
        <time>2018-11-02T11:42:36Z</time>
      </trkpt>
      <trkpt lat="45.97621" lon="4.60466">
        <ele>409</ele>
        <time>2018-11-02T11:42:37Z</time>
      </trkpt>
      <trkpt lat="45.97616" lon="4.60475">
        <ele>409</ele>
        <time>2018-11-02T11:42:38Z</time>
      </trkpt>
      <trkpt lat="45.97611" lon="4.60486">
        <ele>409</ele>
        <time>2018-11-02T11:42:39Z</time>
      </trkpt>
      <trkpt lat="45.97608" lon="4.60496">
        <ele>409</ele>
        <time>2018-11-02T11:42:40Z</time>
      </trkpt>
      <trkpt lat="45.97603" lon="4.60505">
        <ele>407</ele>
        <time>2018-11-02T11:42:41Z</time>
      </trkpt>
      <trkpt lat="45.97598" lon="4.60514">
        <ele>407</ele>
        <time>2018-11-02T11:42:42Z</time>
      </trkpt>
      <trkpt lat="45.97593" lon="4.60524">
        <ele>406</ele>
        <time>2018-11-02T11:42:43Z</time>
      </trkpt>
      <trkpt lat="45.97589" lon="4.60534">
        <ele>405</ele>
        <time>2018-11-02T11:42:44Z</time>
      </trkpt>
      <trkpt lat="45.97583" lon="4.60545">
        <ele>405</ele>
        <time>2018-11-02T11:42:45Z</time>
      </trkpt>
      <trkpt lat="45.97578" lon="4.60555">
        <ele>405</ele>
        <time>2018-11-02T11:42:46Z</time>
      </trkpt>
      <trkpt lat="45.97573" lon="4.60564">
        <ele>405</ele>
        <time>2018-11-02T11:42:47Z</time>
      </trkpt>
      <trkpt lat="45.97568" lon="4.60575">
        <ele>404</ele>
        <time>2018-11-02T11:42:48Z</time>
      </trkpt>
      <trkpt lat="45.97563" lon="4.60585">
        <ele>402</ele>
        <time>2018-11-02T11:42:49Z</time>
      </trkpt>
      <trkpt lat="45.97558" lon="4.60594">
        <ele>402</ele>
        <time>2018-11-02T11:42:50Z</time>
      </trkpt>
      <trkpt lat="45.97553" lon="4.60604">
        <ele>402</ele>
        <time>2018-11-02T11:42:51Z</time>
      </trkpt>
      <trkpt lat="45.97549" lon="4.60614">
        <ele>402</ele>
        <time>2018-11-02T11:42:52Z</time>
      </trkpt>
      <trkpt lat="45.97544" lon="4.60624">
        <ele>402</ele>
        <time>2018-11-02T11:42:53Z</time>
      </trkpt>
      <trkpt lat="45.97539" lon="4.60635">
        <ele>402</ele>
        <time>2018-11-02T11:42:54Z</time>
      </trkpt>
      <trkpt lat="45.97534" lon="4.60644">
        <ele>402</ele>
        <time>2018-11-02T11:42:55Z</time>
      </trkpt>
      <trkpt lat="45.97529" lon="4.60654">
        <ele>402</ele>
        <time>2018-11-02T11:42:56Z</time>
      </trkpt>
      <trkpt lat="45.97523" lon="4.60663">
        <ele>402</ele>
        <time>2018-11-02T11:42:57Z</time>
      </trkpt>
      <trkpt lat="45.97518" lon="4.60673">
        <ele>399</ele>
        <time>2018-11-02T11:42:58Z</time>
      </trkpt>
      <trkpt lat="45.97513" lon="4.60682">
        <ele>399</ele>
        <time>2018-11-02T11:42:59Z</time>
      </trkpt>
      <trkpt lat="45.97507" lon="4.60689">
        <ele>399</ele>
        <time>2018-11-02T11:43:00Z</time>
      </trkpt>
      <trkpt lat="45.97503" lon="4.60698">
        <ele>398</ele>
        <time>2018-11-02T11:43:01Z</time>
      </trkpt>
      <trkpt lat="45.97499" lon="4.60706">
        <ele>403</ele>
        <time>2018-11-02T11:43:02Z</time>
      </trkpt>
      <trkpt lat="45.97496" lon="4.60715">
        <ele>403</ele>
        <time>2018-11-02T11:43:03Z</time>
      </trkpt>
      <trkpt lat="45.97492" lon="4.60725">
        <ele>403</ele>
        <time>2018-11-02T11:43:04Z</time>
      </trkpt>
      <trkpt lat="45.97489" lon="4.60733">
        <ele>402</ele>
        <time>2018-11-02T11:43:05Z</time>
      </trkpt>
      <trkpt lat="45.97486" lon="4.60742">
        <ele>402</ele>
        <time>2018-11-02T11:43:06Z</time>
      </trkpt>
      <trkpt lat="45.97483" lon="4.6075">
        <ele>402</ele>
        <time>2018-11-02T11:43:07Z</time>
      </trkpt>
      <trkpt lat="45.97481" lon="4.60758">
        <ele>402</ele>
        <time>2018-11-02T11:43:08Z</time>
      </trkpt>
      <trkpt lat="45.97478" lon="4.60767">
        <ele>403</ele>
        <time>2018-11-02T11:43:09Z</time>
      </trkpt>
      <trkpt lat="45.97476" lon="4.60775">
        <ele>403</ele>
        <time>2018-11-02T11:43:10Z</time>
      </trkpt>
      <trkpt lat="45.97474" lon="4.60783">
        <ele>404</ele>
        <time>2018-11-02T11:43:11Z</time>
      </trkpt>
      <trkpt lat="45.97473" lon="4.60792">
        <ele>404</ele>
        <time>2018-11-02T11:43:12Z</time>
      </trkpt>
      <trkpt lat="45.97472" lon="4.608">
        <ele>404</ele>
        <time>2018-11-02T11:43:13Z</time>
      </trkpt>
      <trkpt lat="45.97471" lon="4.60807">
        <ele>403</ele>
        <time>2018-11-02T11:43:14Z</time>
      </trkpt>
      <trkpt lat="45.9747" lon="4.60814">
        <ele>403</ele>
        <time>2018-11-02T11:43:15Z</time>
      </trkpt>
      <trkpt lat="45.97471" lon="4.60821">
        <ele>403</ele>
        <time>2018-11-02T11:43:16Z</time>
      </trkpt>
      <trkpt lat="45.97469" lon="4.60829">
        <ele>403</ele>
        <time>2018-11-02T11:43:17Z</time>
      </trkpt>
      <trkpt lat="45.97468" lon="4.60838">
        <ele>401</ele>
        <time>2018-11-02T11:43:18Z</time>
      </trkpt>
      <trkpt lat="45.97467" lon="4.60843">
        <ele>401</ele>
        <time>2018-11-02T11:43:19Z</time>
      </trkpt>
      <trkpt lat="45.97466" lon="4.60852">
        <ele>402</ele>
        <time>2018-11-02T11:43:20Z</time>
      </trkpt>
      <trkpt lat="45.97465" lon="4.60859">
        <ele>402</ele>
        <time>2018-11-02T11:43:21Z</time>
      </trkpt>
      <trkpt lat="45.97463" lon="4.60867">
        <ele>402</ele>
        <time>2018-11-02T11:43:22Z</time>
      </trkpt>
      <trkpt lat="45.97463" lon="4.60878">
        <ele>401</ele>
        <time>2018-11-02T11:43:23Z</time>
      </trkpt>
      <trkpt lat="45.97461" lon="4.60887">
        <ele>401</ele>
        <time>2018-11-02T11:43:24Z</time>
      </trkpt>
      <trkpt lat="45.97459" lon="4.60896">
        <ele>401</ele>
        <time>2018-11-02T11:43:25Z</time>
      </trkpt>
      <trkpt lat="45.97457" lon="4.60906">
        <ele>402</ele>
        <time>2018-11-02T11:43:26Z</time>
      </trkpt>
      <trkpt lat="45.97455" lon="4.60916">
        <ele>402</ele>
        <time>2018-11-02T11:43:27Z</time>
      </trkpt>
      <trkpt lat="45.97454" lon="4.60926">
        <ele>399</ele>
        <time>2018-11-02T11:43:28Z</time>
      </trkpt>
      <trkpt lat="45.97451" lon="4.60935">
        <ele>399</ele>
        <time>2018-11-02T11:43:29Z</time>
      </trkpt>
      <trkpt lat="45.9745" lon="4.60944">
        <ele>399</ele>
        <time>2018-11-02T11:43:30Z</time>
      </trkpt>
      <trkpt lat="45.97447" lon="4.60952">
        <ele>399</ele>
        <time>2018-11-02T11:43:31Z</time>
      </trkpt>
      <trkpt lat="45.97445" lon="4.60961">
        <ele>399</ele>
        <time>2018-11-02T11:43:32Z</time>
      </trkpt>
      <trkpt lat="45.97443" lon="4.6097">
        <ele>399</ele>
        <time>2018-11-02T11:43:33Z</time>
      </trkpt>
      <trkpt lat="45.97441" lon="4.60978">
        <ele>399</ele>
        <time>2018-11-02T11:43:34Z</time>
      </trkpt>
      <trkpt lat="45.97439" lon="4.60987">
        <ele>400</ele>
        <time>2018-11-02T11:43:35Z</time>
      </trkpt>
      <trkpt lat="45.97436" lon="4.60997">
        <ele>401</ele>
        <time>2018-11-02T11:43:36Z</time>
      </trkpt>
      <trkpt lat="45.97435" lon="4.61006">
        <ele>397</ele>
        <time>2018-11-02T11:43:37Z</time>
      </trkpt>
      <trkpt lat="45.97432" lon="4.61017">
        <ele>396</ele>
        <time>2018-11-02T11:43:38Z</time>
      </trkpt>
      <trkpt lat="45.97429" lon="4.61026">
        <ele>395</ele>
        <time>2018-11-02T11:43:39Z</time>
      </trkpt>
      <trkpt lat="45.97427" lon="4.61037">
        <ele>393</ele>
        <time>2018-11-02T11:43:40Z</time>
      </trkpt>
      <trkpt lat="45.97425" lon="4.61049">
        <ele>392</ele>
        <time>2018-11-02T11:43:41Z</time>
      </trkpt>
      <trkpt lat="45.97422" lon="4.61059">
        <ele>392</ele>
        <time>2018-11-02T11:43:42Z</time>
      </trkpt>
      <trkpt lat="45.97419" lon="4.6107">
        <ele>392</ele>
        <time>2018-11-02T11:43:43Z</time>
      </trkpt>
      <trkpt lat="45.97416" lon="4.6108">
        <ele>395</ele>
        <time>2018-11-02T11:43:44Z</time>
      </trkpt>
      <trkpt lat="45.97413" lon="4.61091">
        <ele>395</ele>
        <time>2018-11-02T11:43:45Z</time>
      </trkpt>
      <trkpt lat="45.9741" lon="4.611">
        <ele>396</ele>
        <time>2018-11-02T11:43:46Z</time>
      </trkpt>
      <trkpt lat="45.97408" lon="4.6111">
        <ele>397</ele>
        <time>2018-11-02T11:43:47Z</time>
      </trkpt>
      <trkpt lat="45.97405" lon="4.61121">
        <ele>397</ele>
        <time>2018-11-02T11:43:48Z</time>
      </trkpt>
      <trkpt lat="45.97403" lon="4.61132">
        <ele>397</ele>
        <time>2018-11-02T11:43:49Z</time>
      </trkpt>
      <trkpt lat="45.97401" lon="4.61143">
        <ele>396</ele>
        <time>2018-11-02T11:43:50Z</time>
      </trkpt>
      <trkpt lat="45.974" lon="4.61154">
        <ele>395</ele>
        <time>2018-11-02T11:43:51Z</time>
      </trkpt>
      <trkpt lat="45.97398" lon="4.61164">
        <ele>394</ele>
        <time>2018-11-02T11:43:52Z</time>
      </trkpt>
      <trkpt lat="45.97397" lon="4.61173">
        <ele>393</ele>
        <time>2018-11-02T11:43:53Z</time>
      </trkpt>
      <trkpt lat="45.97396" lon="4.61184">
        <ele>394</ele>
        <time>2018-11-02T11:43:54Z</time>
      </trkpt>
      <trkpt lat="45.97397" lon="4.61195">
        <ele>394</ele>
        <time>2018-11-02T11:43:55Z</time>
      </trkpt>
      <trkpt lat="45.97397" lon="4.61205">
        <ele>395</ele>
        <time>2018-11-02T11:43:56Z</time>
      </trkpt>
      <trkpt lat="45.97398" lon="4.61213">
        <ele>395</ele>
        <time>2018-11-02T11:43:57Z</time>
      </trkpt>
      <trkpt lat="45.97398" lon="4.61222">
        <ele>395</ele>
        <time>2018-11-02T11:43:58Z</time>
      </trkpt>
      <trkpt lat="45.974" lon="4.6123">
        <ele>395</ele>
        <time>2018-11-02T11:43:59Z</time>
      </trkpt>
      <trkpt lat="45.97401" lon="4.61238">
        <ele>394</ele>
        <time>2018-11-02T11:44:00Z</time>
      </trkpt>
      <trkpt lat="45.97402" lon="4.61246">
        <ele>394</ele>
        <time>2018-11-02T11:44:01Z</time>
      </trkpt>
      <trkpt lat="45.97403" lon="4.61254">
        <ele>395</ele>
        <time>2018-11-02T11:44:02Z</time>
      </trkpt>
      <trkpt lat="45.97404" lon="4.61262">
        <ele>395</ele>
        <time>2018-11-02T11:44:03Z</time>
      </trkpt>
      <trkpt lat="45.97405" lon="4.61269">
        <ele>396</ele>
        <time>2018-11-02T11:44:04Z</time>
      </trkpt>
      <trkpt lat="45.97408" lon="4.61277">
        <ele>396</ele>
        <time>2018-11-02T11:44:05Z</time>
      </trkpt>
      <trkpt lat="45.9741" lon="4.61286">
        <ele>397</ele>
        <time>2018-11-02T11:44:06Z</time>
      </trkpt>
      <trkpt lat="45.97412" lon="4.61294">
        <ele>397</ele>
        <time>2018-11-02T11:44:07Z</time>
      </trkpt>
      <trkpt lat="45.97414" lon="4.61302">
        <ele>397</ele>
        <time>2018-11-02T11:44:08Z</time>
      </trkpt>
      <trkpt lat="45.97416" lon="4.61309">
        <ele>397</ele>
        <time>2018-11-02T11:44:09Z</time>
      </trkpt>
      <trkpt lat="45.97418" lon="4.61317">
        <ele>392</ele>
        <time>2018-11-02T11:44:10Z</time>
      </trkpt>
      <trkpt lat="45.9742" lon="4.61324">
        <ele>393</ele>
        <time>2018-11-02T11:44:11Z</time>
      </trkpt>
      <trkpt lat="45.97422" lon="4.61332">
        <ele>394</ele>
        <time>2018-11-02T11:44:12Z</time>
      </trkpt>
      <trkpt lat="45.97423" lon="4.61341">
        <ele>395</ele>
        <time>2018-11-02T11:44:13Z</time>
      </trkpt>
      <trkpt lat="45.97425" lon="4.61348">
        <ele>394</ele>
        <time>2018-11-02T11:44:14Z</time>
      </trkpt>
      <trkpt lat="45.97427" lon="4.61356">
        <ele>394</ele>
        <time>2018-11-02T11:44:15Z</time>
      </trkpt>
      <trkpt lat="45.97428" lon="4.61363">
        <ele>394</ele>
        <time>2018-11-02T11:44:16Z</time>
      </trkpt>
      <trkpt lat="45.9743" lon="4.61369">
        <ele>394</ele>
        <time>2018-11-02T11:44:17Z</time>
      </trkpt>
      <trkpt lat="45.97431" lon="4.61377">
        <ele>394</ele>
        <time>2018-11-02T11:44:18Z</time>
      </trkpt>
      <trkpt lat="45.97433" lon="4.61383">
        <ele>394</ele>
        <time>2018-11-02T11:44:19Z</time>
      </trkpt>
      <trkpt lat="45.97434" lon="4.6139">
        <ele>394</ele>
        <time>2018-11-02T11:44:20Z</time>
      </trkpt>
      <trkpt lat="45.97436" lon="4.61397">
        <ele>394</ele>
        <time>2018-11-02T11:44:21Z</time>
      </trkpt>
      <trkpt lat="45.97437" lon="4.61405">
        <ele>395</ele>
        <time>2018-11-02T11:44:22Z</time>
      </trkpt>
      <trkpt lat="45.97439" lon="4.61412">
        <ele>395</ele>
        <time>2018-11-02T11:44:23Z</time>
      </trkpt>
      <trkpt lat="45.9744" lon="4.6142">
        <ele>396</ele>
        <time>2018-11-02T11:44:24Z</time>
      </trkpt>
      <trkpt lat="45.97441" lon="4.61428">
        <ele>396</ele>
        <time>2018-11-02T11:44:25Z</time>
      </trkpt>
      <trkpt lat="45.97442" lon="4.61436">
        <ele>396</ele>
        <time>2018-11-02T11:44:26Z</time>
      </trkpt>
      <trkpt lat="45.97444" lon="4.61443">
        <ele>395</ele>
        <time>2018-11-02T11:44:27Z</time>
      </trkpt>
      <trkpt lat="45.97444" lon="4.61451">
        <ele>395</ele>
        <time>2018-11-02T11:44:28Z</time>
      </trkpt>
      <trkpt lat="45.97446" lon="4.61459">
        <ele>395</ele>
        <time>2018-11-02T11:44:29Z</time>
      </trkpt>
      <trkpt lat="45.97448" lon="4.61467">
        <ele>395</ele>
        <time>2018-11-02T11:44:30Z</time>
      </trkpt>
      <trkpt lat="45.97449" lon="4.61474">
        <ele>395</ele>
        <time>2018-11-02T11:44:31Z</time>
      </trkpt>
      <trkpt lat="45.97451" lon="4.61482">
        <ele>395</ele>
        <time>2018-11-02T11:44:32Z</time>
      </trkpt>
      <trkpt lat="45.97452" lon="4.6149">
        <ele>395</ele>
        <time>2018-11-02T11:44:33Z</time>
      </trkpt>
      <trkpt lat="45.97453" lon="4.61497">
        <ele>395</ele>
        <time>2018-11-02T11:44:34Z</time>
      </trkpt>
      <trkpt lat="45.97454" lon="4.61505">
        <ele>396</ele>
        <time>2018-11-02T11:44:35Z</time>
      </trkpt>
      <trkpt lat="45.97455" lon="4.61512">
        <ele>396</ele>
        <time>2018-11-02T11:44:36Z</time>
      </trkpt>
      <trkpt lat="45.97456" lon="4.61519">
        <ele>396</ele>
        <time>2018-11-02T11:44:37Z</time>
      </trkpt>
      <trkpt lat="45.97457" lon="4.61527">
        <ele>396</ele>
        <time>2018-11-02T11:44:38Z</time>
      </trkpt>
      <trkpt lat="45.97458" lon="4.61533">
        <ele>396</ele>
        <time>2018-11-02T11:44:39Z</time>
      </trkpt>
      <trkpt lat="45.97459" lon="4.61541">
        <ele>395</ele>
        <time>2018-11-02T11:44:40Z</time>
      </trkpt>
      <trkpt lat="45.9746" lon="4.6155">
        <ele>395</ele>
        <time>2018-11-02T11:44:41Z</time>
      </trkpt>
      <trkpt lat="45.97461" lon="4.61558">
        <ele>395</ele>
        <time>2018-11-02T11:44:42Z</time>
      </trkpt>
      <trkpt lat="45.97462" lon="4.61566">
        <ele>395</ele>
        <time>2018-11-02T11:44:43Z</time>
      </trkpt>
      <trkpt lat="45.97463" lon="4.61574">
        <ele>395</ele>
        <time>2018-11-02T11:44:44Z</time>
      </trkpt>
      <trkpt lat="45.97463" lon="4.61582">
        <ele>395</ele>
        <time>2018-11-02T11:44:45Z</time>
      </trkpt>
      <trkpt lat="45.97464" lon="4.61589">
        <ele>394</ele>
        <time>2018-11-02T11:44:46Z</time>
      </trkpt>
      <trkpt lat="45.97465" lon="4.61596">
        <ele>394</ele>
        <time>2018-11-02T11:44:47Z</time>
      </trkpt>
      <trkpt lat="45.97467" lon="4.61605">
        <ele>394</ele>
        <time>2018-11-02T11:44:48Z</time>
      </trkpt>
      <trkpt lat="45.97468" lon="4.61612">
        <ele>393</ele>
        <time>2018-11-02T11:44:49Z</time>
      </trkpt>
      <trkpt lat="45.97469" lon="4.6162">
        <ele>393</ele>
        <time>2018-11-02T11:44:50Z</time>
      </trkpt>
      <trkpt lat="45.97468" lon="4.61628">
        <ele>393</ele>
        <time>2018-11-02T11:44:51Z</time>
      </trkpt>
      <trkpt lat="45.97468" lon="4.61636">
        <ele>393</ele>
        <time>2018-11-02T11:44:52Z</time>
      </trkpt>
      <trkpt lat="45.97467" lon="4.61645">
        <ele>393</ele>
        <time>2018-11-02T11:44:53Z</time>
      </trkpt>
      <trkpt lat="45.97467" lon="4.61654">
        <ele>393</ele>
        <time>2018-11-02T11:44:54Z</time>
      </trkpt>
      <trkpt lat="45.97466" lon="4.61663">
        <ele>392</ele>
        <time>2018-11-02T11:44:55Z</time>
      </trkpt>
      <trkpt lat="45.97465" lon="4.61673">
        <ele>390</ele>
        <time>2018-11-02T11:44:56Z</time>
      </trkpt>
      <trkpt lat="45.97464" lon="4.61682">
        <ele>390</ele>
        <time>2018-11-02T11:44:57Z</time>
      </trkpt>
      <trkpt lat="45.97464" lon="4.61692">
        <ele>390</ele>
        <time>2018-11-02T11:44:58Z</time>
      </trkpt>
      <trkpt lat="45.97462" lon="4.61703">
        <ele>390</ele>
        <time>2018-11-02T11:44:59Z</time>
      </trkpt>
      <trkpt lat="45.97461" lon="4.61713">
        <ele>390</ele>
        <time>2018-11-02T11:45:00Z</time>
      </trkpt>
      <trkpt lat="45.97459" lon="4.61722">
        <ele>390</ele>
        <time>2018-11-02T11:45:01Z</time>
      </trkpt>
      <trkpt lat="45.97457" lon="4.61733">
        <ele>390</ele>
        <time>2018-11-02T11:45:02Z</time>
      </trkpt>
      <trkpt lat="45.97455" lon="4.61743">
        <ele>390</ele>
        <time>2018-11-02T11:45:03Z</time>
      </trkpt>
      <trkpt lat="45.97452" lon="4.61753">
        <ele>387</ele>
        <time>2018-11-02T11:45:04Z</time>
      </trkpt>
      <trkpt lat="45.97449" lon="4.61763">
        <ele>387</ele>
        <time>2018-11-02T11:45:05Z</time>
      </trkpt>
      <trkpt lat="45.97445" lon="4.61774">
        <ele>387</ele>
        <time>2018-11-02T11:45:06Z</time>
      </trkpt>
      <trkpt lat="45.97441" lon="4.61785">
        <ele>387</ele>
        <time>2018-11-02T11:45:07Z</time>
      </trkpt>
      <trkpt lat="45.97438" lon="4.61795">
        <ele>387</ele>
        <time>2018-11-02T11:45:08Z</time>
      </trkpt>
      <trkpt lat="45.97436" lon="4.61806">
        <ele>387</ele>
        <time>2018-11-02T11:45:09Z</time>
      </trkpt>
      <trkpt lat="45.97435" lon="4.61818">
        <ele>386</ele>
        <time>2018-11-02T11:45:10Z</time>
      </trkpt>
      <trkpt lat="45.97434" lon="4.6183">
        <ele>386</ele>
        <time>2018-11-02T11:45:11Z</time>
      </trkpt>
      <trkpt lat="45.97433" lon="4.61841">
        <ele>385</ele>
        <time>2018-11-02T11:45:12Z</time>
      </trkpt>
      <trkpt lat="45.97433" lon="4.61853">
        <ele>384</ele>
        <time>2018-11-02T11:45:13Z</time>
      </trkpt>
      <trkpt lat="45.97433" lon="4.61866">
        <ele>384</ele>
        <time>2018-11-02T11:45:14Z</time>
      </trkpt>
      <trkpt lat="45.97434" lon="4.61879">
        <ele>383</ele>
        <time>2018-11-02T11:45:15Z</time>
      </trkpt>
      <trkpt lat="45.97434" lon="4.61891">
        <ele>383</ele>
        <time>2018-11-02T11:45:16Z</time>
      </trkpt>
      <trkpt lat="45.97435" lon="4.61904">
        <ele>383</ele>
        <time>2018-11-02T11:45:17Z</time>
      </trkpt>
      <trkpt lat="45.97436" lon="4.61918">
        <ele>382</ele>
        <time>2018-11-02T11:45:18Z</time>
      </trkpt>
      <trkpt lat="45.97436" lon="4.61931">
        <ele>381</ele>
        <time>2018-11-02T11:45:19Z</time>
      </trkpt>
      <trkpt lat="45.97437" lon="4.61945">
        <ele>381</ele>
        <time>2018-11-02T11:45:20Z</time>
      </trkpt>
      <trkpt lat="45.97438" lon="4.61958">
        <ele>380</ele>
        <time>2018-11-02T11:45:21Z</time>
      </trkpt>
      <trkpt lat="45.9744" lon="4.61971">
        <ele>380</ele>
        <time>2018-11-02T11:45:22Z</time>
      </trkpt>
      <trkpt lat="45.97441" lon="4.61985">
        <ele>380</ele>
        <time>2018-11-02T11:45:23Z</time>
      </trkpt>
      <trkpt lat="45.97442" lon="4.61999">
        <ele>380</ele>
        <time>2018-11-02T11:45:24Z</time>
      </trkpt>
      <trkpt lat="45.97442" lon="4.62015">
        <ele>379</ele>
        <time>2018-11-02T11:45:25Z</time>
      </trkpt>
      <trkpt lat="45.97442" lon="4.62029">
        <ele>379</ele>
        <time>2018-11-02T11:45:26Z</time>
      </trkpt>
      <trkpt lat="45.97442" lon="4.62044">
        <ele>379</ele>
        <time>2018-11-02T11:45:27Z</time>
      </trkpt>
      <trkpt lat="45.97443" lon="4.62059">
        <ele>379</ele>
        <time>2018-11-02T11:45:28Z</time>
      </trkpt>
      <trkpt lat="45.97443" lon="4.62073">
        <ele>379</ele>
        <time>2018-11-02T11:45:29Z</time>
      </trkpt>
      <trkpt lat="45.97443" lon="4.62087">
        <ele>377</ele>
        <time>2018-11-02T11:45:30Z</time>
      </trkpt>
      <trkpt lat="45.97442" lon="4.62101">
        <ele>377</ele>
        <time>2018-11-02T11:45:31Z</time>
      </trkpt>
      <trkpt lat="45.97442" lon="4.62115">
        <ele>376</ele>
        <time>2018-11-02T11:45:32Z</time>
      </trkpt>
      <trkpt lat="45.97441" lon="4.62129">
        <ele>376</ele>
        <time>2018-11-02T11:45:33Z</time>
      </trkpt>
      <trkpt lat="45.9744" lon="4.62142">
        <ele>375</ele>
        <time>2018-11-02T11:45:34Z</time>
      </trkpt>
      <trkpt lat="45.97439" lon="4.62156">
        <ele>375</ele>
        <time>2018-11-02T11:45:35Z</time>
      </trkpt>
      <trkpt lat="45.97438" lon="4.6217">
        <ele>372</ele>
        <time>2018-11-02T11:45:36Z</time>
      </trkpt>
      <trkpt lat="45.97438" lon="4.62184">
        <ele>371</ele>
        <time>2018-11-02T11:45:37Z</time>
      </trkpt>
      <trkpt lat="45.97437" lon="4.62198">
        <ele>371</ele>
        <time>2018-11-02T11:45:38Z</time>
      </trkpt>
      <trkpt lat="45.97436" lon="4.62213">
        <ele>370</ele>
        <time>2018-11-02T11:45:39Z</time>
      </trkpt>
      <trkpt lat="45.97435" lon="4.62227">
        <ele>370</ele>
        <time>2018-11-02T11:45:40Z</time>
      </trkpt>
      <trkpt lat="45.97434" lon="4.62242">
        <ele>370</ele>
        <time>2018-11-02T11:45:41Z</time>
      </trkpt>
      <trkpt lat="45.97433" lon="4.62256">
        <ele>368</ele>
        <time>2018-11-02T11:45:42Z</time>
      </trkpt>
      <trkpt lat="45.97431" lon="4.6227">
        <ele>368</ele>
        <time>2018-11-02T11:45:43Z</time>
      </trkpt>
      <trkpt lat="45.9743" lon="4.62286">
        <ele>367</ele>
        <time>2018-11-02T11:45:44Z</time>
      </trkpt>
      <trkpt lat="45.97429" lon="4.62299">
        <ele>367</ele>
        <time>2018-11-02T11:45:45Z</time>
      </trkpt>
      <trkpt lat="45.97428" lon="4.62314">
        <ele>367</ele>
        <time>2018-11-02T11:45:46Z</time>
      </trkpt>
      <trkpt lat="45.97427" lon="4.62329">
        <ele>367</ele>
        <time>2018-11-02T11:45:47Z</time>
      </trkpt>
      <trkpt lat="45.97426" lon="4.62343">
        <ele>365</ele>
        <time>2018-11-02T11:45:48Z</time>
      </trkpt>
      <trkpt lat="45.97425" lon="4.62357">
        <ele>364</ele>
        <time>2018-11-02T11:45:49Z</time>
      </trkpt>
      <trkpt lat="45.97423" lon="4.62371">
        <ele>363</ele>
        <time>2018-11-02T11:45:50Z</time>
      </trkpt>
      <trkpt lat="45.97421" lon="4.62385">
        <ele>362</ele>
        <time>2018-11-02T11:45:51Z</time>
      </trkpt>
      <trkpt lat="45.97419" lon="4.62399">
        <ele>362</ele>
        <time>2018-11-02T11:45:52Z</time>
      </trkpt>
      <trkpt lat="45.97417" lon="4.62413">
        <ele>364</ele>
        <time>2018-11-02T11:45:53Z</time>
      </trkpt>
      <trkpt lat="45.97414" lon="4.62426">
        <ele>364</ele>
        <time>2018-11-02T11:45:54Z</time>
      </trkpt>
      <trkpt lat="45.97411" lon="4.6244">
        <ele>364</ele>
        <time>2018-11-02T11:45:55Z</time>
      </trkpt>
      <trkpt lat="45.97408" lon="4.62454">
        <ele>364</ele>
        <time>2018-11-02T11:45:56Z</time>
      </trkpt>
      <trkpt lat="45.97405" lon="4.62468">
        <ele>364</ele>
        <time>2018-11-02T11:45:57Z</time>
      </trkpt>
      <trkpt lat="45.97403" lon="4.62482">
        <ele>363</ele>
        <time>2018-11-02T11:45:58Z</time>
      </trkpt>
      <trkpt lat="45.97401" lon="4.62495">
        <ele>362</ele>
        <time>2018-11-02T11:45:59Z</time>
      </trkpt>
      <trkpt lat="45.974" lon="4.62509">
        <ele>360</ele>
        <time>2018-11-02T11:46:00Z</time>
      </trkpt>
      <trkpt lat="45.97399" lon="4.62523">
        <ele>361</ele>
        <time>2018-11-02T11:46:01Z</time>
      </trkpt>
      <trkpt lat="45.97398" lon="4.62536">
        <ele>360</ele>
        <time>2018-11-02T11:46:02Z</time>
      </trkpt>
      <trkpt lat="45.97398" lon="4.6255">
        <ele>360</ele>
        <time>2018-11-02T11:46:03Z</time>
      </trkpt>
      <trkpt lat="45.97398" lon="4.62564">
        <ele>359</ele>
        <time>2018-11-02T11:46:04Z</time>
      </trkpt>
      <trkpt lat="45.97398" lon="4.62578">
        <ele>359</ele>
        <time>2018-11-02T11:46:05Z</time>
      </trkpt>
      <trkpt lat="45.97399" lon="4.62592">
        <ele>357</ele>
        <time>2018-11-02T11:46:06Z</time>
      </trkpt>
      <trkpt lat="45.97401" lon="4.62606">
        <ele>357</ele>
        <time>2018-11-02T11:46:07Z</time>
      </trkpt>
      <trkpt lat="45.97403" lon="4.6262">
        <ele>357</ele>
        <time>2018-11-02T11:46:08Z</time>
      </trkpt>
      <trkpt lat="45.97405" lon="4.62636">
        <ele>356</ele>
        <time>2018-11-02T11:46:09Z</time>
      </trkpt>
      <trkpt lat="45.97408" lon="4.62649">
        <ele>355</ele>
        <time>2018-11-02T11:46:10Z</time>
      </trkpt>
      <trkpt lat="45.97411" lon="4.62663">
        <ele>354</ele>
        <time>2018-11-02T11:46:11Z</time>
      </trkpt>
      <trkpt lat="45.97414" lon="4.62676">
        <ele>353</ele>
        <time>2018-11-02T11:46:12Z</time>
      </trkpt>
      <trkpt lat="45.97416" lon="4.62688">
        <ele>354</ele>
        <time>2018-11-02T11:46:13Z</time>
      </trkpt>
      <trkpt lat="45.97419" lon="4.62701">
        <ele>350</ele>
        <time>2018-11-02T11:46:14Z</time>
      </trkpt>
      <trkpt lat="45.97422" lon="4.62714">
        <ele>349</ele>
        <time>2018-11-02T11:46:15Z</time>
      </trkpt>
      <trkpt lat="45.97425" lon="4.62726">
        <ele>350</ele>
        <time>2018-11-02T11:46:16Z</time>
      </trkpt>
      <trkpt lat="45.97428" lon="4.62737">
        <ele>350</ele>
        <time>2018-11-02T11:46:17Z</time>
      </trkpt>
      <trkpt lat="45.97431" lon="4.62751">
        <ele>350</ele>
        <time>2018-11-02T11:46:18Z</time>
      </trkpt>
      <trkpt lat="45.97435" lon="4.62764">
        <ele>349</ele>
        <time>2018-11-02T11:46:19Z</time>
      </trkpt>
      <trkpt lat="45.97438" lon="4.62778">
        <ele>348</ele>
        <time>2018-11-02T11:46:20Z</time>
      </trkpt>
      <trkpt lat="45.9744" lon="4.6279">
        <ele>348</ele>
        <time>2018-11-02T11:46:21Z</time>
      </trkpt>
      <trkpt lat="45.97443" lon="4.62802">
        <ele>347</ele>
        <time>2018-11-02T11:46:22Z</time>
      </trkpt>
      <trkpt lat="45.97445" lon="4.62815">
        <ele>347</ele>
        <time>2018-11-02T11:46:23Z</time>
      </trkpt>
      <trkpt lat="45.97448" lon="4.62828">
        <ele>347</ele>
        <time>2018-11-02T11:46:24Z</time>
      </trkpt>
      <trkpt lat="45.97451" lon="4.62841">
        <ele>346</ele>
        <time>2018-11-02T11:46:25Z</time>
      </trkpt>
      <trkpt lat="45.97453" lon="4.62853">
        <ele>346</ele>
        <time>2018-11-02T11:46:26Z</time>
      </trkpt>
      <trkpt lat="45.97455" lon="4.62866">
        <ele>346</ele>
        <time>2018-11-02T11:46:27Z</time>
      </trkpt>
      <trkpt lat="45.97457" lon="4.62879">
        <ele>346</ele>
        <time>2018-11-02T11:46:28Z</time>
      </trkpt>
      <trkpt lat="45.9746" lon="4.62892">
        <ele>345</ele>
        <time>2018-11-02T11:46:29Z</time>
      </trkpt>
      <trkpt lat="45.97461" lon="4.62903">
        <ele>345</ele>
        <time>2018-11-02T11:46:30Z</time>
      </trkpt>
      <trkpt lat="45.97464" lon="4.62915">
        <ele>345</ele>
        <time>2018-11-02T11:46:31Z</time>
      </trkpt>
      <trkpt lat="45.97466" lon="4.62927">
        <ele>345</ele>
        <time>2018-11-02T11:46:32Z</time>
      </trkpt>
      <trkpt lat="45.97468" lon="4.62939">
        <ele>345</ele>
        <time>2018-11-02T11:46:33Z</time>
      </trkpt>
      <trkpt lat="45.9747" lon="4.6295">
        <ele>345</ele>
        <time>2018-11-02T11:46:34Z</time>
      </trkpt>
      <trkpt lat="45.97473" lon="4.62963">
        <ele>345</ele>
        <time>2018-11-02T11:46:35Z</time>
      </trkpt>
      <trkpt lat="45.97476" lon="4.62974">
        <ele>345</ele>
        <time>2018-11-02T11:46:36Z</time>
      </trkpt>
      <trkpt lat="45.97478" lon="4.62985">
        <ele>345</ele>
        <time>2018-11-02T11:46:37Z</time>
      </trkpt>
      <trkpt lat="45.97482" lon="4.62996">
        <ele>344</ele>
        <time>2018-11-02T11:46:38Z</time>
      </trkpt>
      <trkpt lat="45.97484" lon="4.63006">
        <ele>344</ele>
        <time>2018-11-02T11:46:39Z</time>
      </trkpt>
      <trkpt lat="45.97486" lon="4.63016">
        <ele>344</ele>
        <time>2018-11-02T11:46:40Z</time>
      </trkpt>
      <trkpt lat="45.97488" lon="4.63027">
        <ele>344</ele>
        <time>2018-11-02T11:46:41Z</time>
      </trkpt>
      <trkpt lat="45.9749" lon="4.63037">
        <ele>344</ele>
        <time>2018-11-02T11:46:42Z</time>
      </trkpt>
      <trkpt lat="45.97492" lon="4.63048">
        <ele>344</ele>
        <time>2018-11-02T11:46:43Z</time>
      </trkpt>
      <trkpt lat="45.97494" lon="4.63058">
        <ele>343</ele>
        <time>2018-11-02T11:46:44Z</time>
      </trkpt>
      <trkpt lat="45.97497" lon="4.63068">
        <ele>343</ele>
        <time>2018-11-02T11:46:45Z</time>
      </trkpt>
      <trkpt lat="45.97497" lon="4.63079">
        <ele>341</ele>
        <time>2018-11-02T11:46:46Z</time>
      </trkpt>
      <trkpt lat="45.97499" lon="4.63088">
        <ele>341</ele>
        <time>2018-11-02T11:46:47Z</time>
      </trkpt>
      <trkpt lat="45.975" lon="4.63098">
        <ele>338</ele>
        <time>2018-11-02T11:46:48Z</time>
      </trkpt>
      <trkpt lat="45.97501" lon="4.63109">
        <ele>338</ele>
        <time>2018-11-02T11:46:49Z</time>
      </trkpt>
      <trkpt lat="45.97503" lon="4.63118">
        <ele>337</ele>
        <time>2018-11-02T11:46:50Z</time>
      </trkpt>
      <trkpt lat="45.97504" lon="4.63128">
        <ele>337</ele>
        <time>2018-11-02T11:46:51Z</time>
      </trkpt>
      <trkpt lat="45.97505" lon="4.63139">
        <ele>337</ele>
        <time>2018-11-02T11:46:52Z</time>
      </trkpt>
      <trkpt lat="45.97506" lon="4.63149">
        <ele>337</ele>
        <time>2018-11-02T11:46:53Z</time>
      </trkpt>
      <trkpt lat="45.97507" lon="4.63159">
        <ele>338</ele>
        <time>2018-11-02T11:46:54Z</time>
      </trkpt>
      <trkpt lat="45.97508" lon="4.63169">
        <ele>338</ele>
        <time>2018-11-02T11:46:55Z</time>
      </trkpt>
      <trkpt lat="45.97509" lon="4.63179">
        <ele>337</ele>
        <time>2018-11-02T11:46:56Z</time>
      </trkpt>
      <trkpt lat="45.9751" lon="4.63189">
        <ele>337</ele>
        <time>2018-11-02T11:46:57Z</time>
      </trkpt>
      <trkpt lat="45.97511" lon="4.63199">
        <ele>336</ele>
        <time>2018-11-02T11:46:58Z</time>
      </trkpt>
      <trkpt lat="45.97513" lon="4.63209">
        <ele>336</ele>
        <time>2018-11-02T11:46:59Z</time>
      </trkpt>
      <trkpt lat="45.97514" lon="4.6322">
        <ele>336</ele>
        <time>2018-11-02T11:47:00Z</time>
      </trkpt>
      <trkpt lat="45.97515" lon="4.6323">
        <ele>336</ele>
        <time>2018-11-02T11:47:01Z</time>
      </trkpt>
      <trkpt lat="45.97516" lon="4.6324">
        <ele>337</ele>
        <time>2018-11-02T11:47:02Z</time>
      </trkpt>
      <trkpt lat="45.97517" lon="4.63251">
        <ele>336</ele>
        <time>2018-11-02T11:47:03Z</time>
      </trkpt>
      <trkpt lat="45.97518" lon="4.63261">
        <ele>336</ele>
        <time>2018-11-02T11:47:04Z</time>
      </trkpt>
      <trkpt lat="45.97519" lon="4.63272">
        <ele>335</ele>
        <time>2018-11-02T11:47:05Z</time>
      </trkpt>
      <trkpt lat="45.9752" lon="4.63283">
        <ele>335</ele>
        <time>2018-11-02T11:47:06Z</time>
      </trkpt>
      <trkpt lat="45.97521" lon="4.63293">
        <ele>335</ele>
        <time>2018-11-02T11:47:07Z</time>
      </trkpt>
      <trkpt lat="45.97522" lon="4.63304">
        <ele>335</ele>
        <time>2018-11-02T11:47:08Z</time>
      </trkpt>
      <trkpt lat="45.97523" lon="4.63315">
        <ele>335</ele>
        <time>2018-11-02T11:47:09Z</time>
      </trkpt>
      <trkpt lat="45.97524" lon="4.63326">
        <ele>335</ele>
        <time>2018-11-02T11:47:10Z</time>
      </trkpt>
      <trkpt lat="45.97525" lon="4.63337">
        <ele>334</ele>
        <time>2018-11-02T11:47:11Z</time>
      </trkpt>
      <trkpt lat="45.97526" lon="4.63348">
        <ele>334</ele>
        <time>2018-11-02T11:47:12Z</time>
      </trkpt>
      <trkpt lat="45.97527" lon="4.63359">
        <ele>333</ele>
        <time>2018-11-02T11:47:13Z</time>
      </trkpt>
      <trkpt lat="45.97527" lon="4.63371">
        <ele>333</ele>
        <time>2018-11-02T11:47:14Z</time>
      </trkpt>
      <trkpt lat="45.97529" lon="4.63382">
        <ele>333</ele>
        <time>2018-11-02T11:47:15Z</time>
      </trkpt>
      <trkpt lat="45.9753" lon="4.63394">
        <ele>333</ele>
        <time>2018-11-02T11:47:16Z</time>
      </trkpt>
      <trkpt lat="45.97532" lon="4.63406">
        <ele>333</ele>
        <time>2018-11-02T11:47:17Z</time>
      </trkpt>
      <trkpt lat="45.97532" lon="4.63418">
        <ele>332</ele>
        <time>2018-11-02T11:47:18Z</time>
      </trkpt>
      <trkpt lat="45.97534" lon="4.63429">
        <ele>332</ele>
        <time>2018-11-02T11:47:19Z</time>
      </trkpt>
      <trkpt lat="45.97535" lon="4.63442">
        <ele>331</ele>
        <time>2018-11-02T11:47:20Z</time>
      </trkpt>
      <trkpt lat="45.97537" lon="4.63454">
        <ele>331</ele>
        <time>2018-11-02T11:47:21Z</time>
      </trkpt>
      <trkpt lat="45.97538" lon="4.63467">
        <ele>331</ele>
        <time>2018-11-02T11:47:22Z</time>
      </trkpt>
      <trkpt lat="45.9754" lon="4.63481">
        <ele>331</ele>
        <time>2018-11-02T11:47:23Z</time>
      </trkpt>
      <trkpt lat="45.97541" lon="4.63492">
        <ele>331</ele>
        <time>2018-11-02T11:47:24Z</time>
      </trkpt>
      <trkpt lat="45.97542" lon="4.63506">
        <ele>329</ele>
        <time>2018-11-02T11:47:25Z</time>
      </trkpt>
      <trkpt lat="45.97544" lon="4.63519">
        <ele>329</ele>
        <time>2018-11-02T11:47:26Z</time>
      </trkpt>
      <trkpt lat="45.97546" lon="4.63533">
        <ele>329</ele>
        <time>2018-11-02T11:47:27Z</time>
      </trkpt>
      <trkpt lat="45.97547" lon="4.63545">
        <ele>329</ele>
        <time>2018-11-02T11:47:28Z</time>
      </trkpt>
      <trkpt lat="45.97549" lon="4.63558">
        <ele>329</ele>
        <time>2018-11-02T11:47:29Z</time>
      </trkpt>
      <trkpt lat="45.97551" lon="4.63572">
        <ele>328</ele>
        <time>2018-11-02T11:47:30Z</time>
      </trkpt>
      <trkpt lat="45.97552" lon="4.63585">
        <ele>327</ele>
        <time>2018-11-02T11:47:31Z</time>
      </trkpt>
      <trkpt lat="45.97554" lon="4.636">
        <ele>327</ele>
        <time>2018-11-02T11:47:32Z</time>
      </trkpt>
      <trkpt lat="45.97555" lon="4.63613">
        <ele>327</ele>
        <time>2018-11-02T11:47:33Z</time>
      </trkpt>
      <trkpt lat="45.97558" lon="4.63626">
        <ele>327</ele>
        <time>2018-11-02T11:47:34Z</time>
      </trkpt>
      <trkpt lat="45.9756" lon="4.63639">
        <ele>327</ele>
        <time>2018-11-02T11:47:35Z</time>
      </trkpt>
      <trkpt lat="45.97561" lon="4.63653">
        <ele>326</ele>
        <time>2018-11-02T11:47:36Z</time>
      </trkpt>
      <trkpt lat="45.97563" lon="4.63665">
        <ele>326</ele>
        <time>2018-11-02T11:47:37Z</time>
      </trkpt>
      <trkpt lat="45.97565" lon="4.63678">
        <ele>325</ele>
        <time>2018-11-02T11:47:38Z</time>
      </trkpt>
      <trkpt lat="45.97566" lon="4.63692">
        <ele>325</ele>
        <time>2018-11-02T11:47:39Z</time>
      </trkpt>
      <trkpt lat="45.97567" lon="4.63705">
        <ele>325</ele>
        <time>2018-11-02T11:47:40Z</time>
      </trkpt>
      <trkpt lat="45.97569" lon="4.63718">
        <ele>324</ele>
        <time>2018-11-02T11:47:41Z</time>
      </trkpt>
      <trkpt lat="45.9757" lon="4.63731">
        <ele>324</ele>
        <time>2018-11-02T11:47:42Z</time>
      </trkpt>
      <trkpt lat="45.97571" lon="4.63745">
        <ele>323</ele>
        <time>2018-11-02T11:47:43Z</time>
      </trkpt>
      <trkpt lat="45.97572" lon="4.63758">
        <ele>322</ele>
        <time>2018-11-02T11:47:44Z</time>
      </trkpt>
      <trkpt lat="45.97573" lon="4.63772">
        <ele>322</ele>
        <time>2018-11-02T11:47:45Z</time>
      </trkpt>
      <trkpt lat="45.97574" lon="4.63784">
        <ele>322</ele>
        <time>2018-11-02T11:47:46Z</time>
      </trkpt>
      <trkpt lat="45.97576" lon="4.63797">
        <ele>321</ele>
        <time>2018-11-02T11:47:47Z</time>
      </trkpt>
      <trkpt lat="45.97577" lon="4.63812">
        <ele>321</ele>
        <time>2018-11-02T11:47:48Z</time>
      </trkpt>
      <trkpt lat="45.97577" lon="4.63826">
        <ele>319</ele>
        <time>2018-11-02T11:47:49Z</time>
      </trkpt>
      <trkpt lat="45.9758" lon="4.63839">
        <ele>318</ele>
        <time>2018-11-02T11:47:50Z</time>
      </trkpt>
      <trkpt lat="45.97582" lon="4.63853">
        <ele>318</ele>
        <time>2018-11-02T11:47:51Z</time>
      </trkpt>
      <trkpt lat="45.97583" lon="4.63867">
        <ele>315</ele>
        <time>2018-11-02T11:47:52Z</time>
      </trkpt>
      <trkpt lat="45.97585" lon="4.6388">
        <ele>314</ele>
        <time>2018-11-02T11:47:53Z</time>
      </trkpt>
      <trkpt lat="45.97585" lon="4.63895">
        <ele>315</ele>
        <time>2018-11-02T11:47:54Z</time>
      </trkpt>
      <trkpt lat="45.97588" lon="4.63907">
        <ele>315</ele>
        <time>2018-11-02T11:47:55Z</time>
      </trkpt>
      <trkpt lat="45.9759" lon="4.63919">
        <ele>315</ele>
        <time>2018-11-02T11:47:56Z</time>
      </trkpt>
      <trkpt lat="45.97591" lon="4.63932">
        <ele>313</ele>
        <time>2018-11-02T11:47:57Z</time>
      </trkpt>
      <trkpt lat="45.97592" lon="4.63946">
        <ele>313</ele>
        <time>2018-11-02T11:47:58Z</time>
      </trkpt>
      <trkpt lat="45.97594" lon="4.63959">
        <ele>312</ele>
        <time>2018-11-02T11:47:59Z</time>
      </trkpt>
      <trkpt lat="45.97595" lon="4.63971">
        <ele>312</ele>
        <time>2018-11-02T11:48:00Z</time>
      </trkpt>
      <trkpt lat="45.97596" lon="4.63984">
        <ele>312</ele>
        <time>2018-11-02T11:48:01Z</time>
      </trkpt>
      <trkpt lat="45.97598" lon="4.63996">
        <ele>312</ele>
        <time>2018-11-02T11:48:02Z</time>
      </trkpt>
      <trkpt lat="45.97599" lon="4.64009">
        <ele>311</ele>
        <time>2018-11-02T11:48:03Z</time>
      </trkpt>
      <trkpt lat="45.976" lon="4.64022">
        <ele>310</ele>
        <time>2018-11-02T11:48:04Z</time>
      </trkpt>
      <trkpt lat="45.97602" lon="4.64035">
        <ele>310</ele>
        <time>2018-11-02T11:48:05Z</time>
      </trkpt>
      <trkpt lat="45.97603" lon="4.64046">
        <ele>310</ele>
        <time>2018-11-02T11:48:06Z</time>
      </trkpt>
      <trkpt lat="45.97605" lon="4.64058">
        <ele>310</ele>
        <time>2018-11-02T11:48:07Z</time>
      </trkpt>
      <trkpt lat="45.97608" lon="4.64069">
        <ele>309</ele>
        <time>2018-11-02T11:48:08Z</time>
      </trkpt>
      <trkpt lat="45.9761" lon="4.64082">
        <ele>309</ele>
        <time>2018-11-02T11:48:09Z</time>
      </trkpt>
      <trkpt lat="45.97611" lon="4.64094">
        <ele>308</ele>
        <time>2018-11-02T11:48:10Z</time>
      </trkpt>
      <trkpt lat="45.97611" lon="4.64106">
        <ele>308</ele>
        <time>2018-11-02T11:48:11Z</time>
      </trkpt>
      <trkpt lat="45.97613" lon="4.64118">
        <ele>307</ele>
        <time>2018-11-02T11:48:12Z</time>
      </trkpt>
      <trkpt lat="45.97615" lon="4.64129">
        <ele>307</ele>
        <time>2018-11-02T11:48:13Z</time>
      </trkpt>
      <trkpt lat="45.97616" lon="4.64141">
        <ele>307</ele>
        <time>2018-11-02T11:48:14Z</time>
      </trkpt>
      <trkpt lat="45.97617" lon="4.64154">
        <ele>307</ele>
        <time>2018-11-02T11:48:15Z</time>
      </trkpt>
      <trkpt lat="45.97618" lon="4.64166">
        <ele>306</ele>
        <time>2018-11-02T11:48:16Z</time>
      </trkpt>
      <trkpt lat="45.97619" lon="4.64178">
        <ele>306</ele>
        <time>2018-11-02T11:48:17Z</time>
      </trkpt>
      <trkpt lat="45.97621" lon="4.64189">
        <ele>306</ele>
        <time>2018-11-02T11:48:18Z</time>
      </trkpt>
      <trkpt lat="45.97622" lon="4.642">
        <ele>306</ele>
        <time>2018-11-02T11:48:19Z</time>
      </trkpt>
      <trkpt lat="45.97623" lon="4.64211">
        <ele>306</ele>
        <time>2018-11-02T11:48:20Z</time>
      </trkpt>
      <trkpt lat="45.97624" lon="4.64222">
        <ele>306</ele>
        <time>2018-11-02T11:48:21Z</time>
      </trkpt>
      <trkpt lat="45.97626" lon="4.64234">
        <ele>305</ele>
        <time>2018-11-02T11:48:22Z</time>
      </trkpt>
      <trkpt lat="45.97627" lon="4.64245">
        <ele>305</ele>
        <time>2018-11-02T11:48:23Z</time>
      </trkpt>
      <trkpt lat="45.97628" lon="4.64257">
        <ele>305</ele>
        <time>2018-11-02T11:48:24Z</time>
      </trkpt>
      <trkpt lat="45.9763" lon="4.6427">
        <ele>305</ele>
        <time>2018-11-02T11:48:25Z</time>
      </trkpt>
      <trkpt lat="45.97631" lon="4.64282">
        <ele>305</ele>
        <time>2018-11-02T11:48:26Z</time>
      </trkpt>
      <trkpt lat="45.97632" lon="4.64295">
        <ele>304</ele>
        <time>2018-11-02T11:48:27Z</time>
      </trkpt>
      <trkpt lat="45.97633" lon="4.64307">
        <ele>304</ele>
        <time>2018-11-02T11:48:28Z</time>
      </trkpt>
      <trkpt lat="45.97634" lon="4.6432">
        <ele>304</ele>
        <time>2018-11-02T11:48:29Z</time>
      </trkpt>
      <trkpt lat="45.97636" lon="4.64333">
        <ele>304</ele>
        <time>2018-11-02T11:48:30Z</time>
      </trkpt>
      <trkpt lat="45.97636" lon="4.64347">
        <ele>303</ele>
        <time>2018-11-02T11:48:31Z</time>
      </trkpt>
      <trkpt lat="45.97638" lon="4.6436">
        <ele>303</ele>
        <time>2018-11-02T11:48:32Z</time>
      </trkpt>
      <trkpt lat="45.97639" lon="4.64373">
        <ele>303</ele>
        <time>2018-11-02T11:48:33Z</time>
      </trkpt>
      <trkpt lat="45.9764" lon="4.64385">
        <ele>303</ele>
        <time>2018-11-02T11:48:34Z</time>
      </trkpt>
      <trkpt lat="45.97641" lon="4.64399">
        <ele>302</ele>
        <time>2018-11-02T11:48:35Z</time>
      </trkpt>
      <trkpt lat="45.97644" lon="4.64412">
        <ele>302</ele>
        <time>2018-11-02T11:48:36Z</time>
      </trkpt>
      <trkpt lat="45.97644" lon="4.64424">
        <ele>302</ele>
        <time>2018-11-02T11:48:37Z</time>
      </trkpt>
      <trkpt lat="45.97646" lon="4.64437">
        <ele>302</ele>
        <time>2018-11-02T11:48:38Z</time>
      </trkpt>
      <trkpt lat="45.97648" lon="4.6445">
        <ele>302</ele>
        <time>2018-11-02T11:48:39Z</time>
      </trkpt>
      <trkpt lat="45.97649" lon="4.64463">
        <ele>302</ele>
        <time>2018-11-02T11:48:40Z</time>
      </trkpt>
      <trkpt lat="45.9765" lon="4.64475">
        <ele>302</ele>
        <time>2018-11-02T11:48:41Z</time>
      </trkpt>
      <trkpt lat="45.97651" lon="4.64487">
        <ele>302</ele>
        <time>2018-11-02T11:48:42Z</time>
      </trkpt>
      <trkpt lat="45.97653" lon="4.64499">
        <ele>302</ele>
        <time>2018-11-02T11:48:43Z</time>
      </trkpt>
      <trkpt lat="45.97654" lon="4.64512">
        <ele>300</ele>
        <time>2018-11-02T11:48:44Z</time>
      </trkpt>
      <trkpt lat="45.97655" lon="4.64524">
        <ele>300</ele>
        <time>2018-11-02T11:48:45Z</time>
      </trkpt>
      <trkpt lat="45.97656" lon="4.64536">
        <ele>299</ele>
        <time>2018-11-02T11:48:46Z</time>
      </trkpt>
      <trkpt lat="45.97658" lon="4.64548">
        <ele>299</ele>
        <time>2018-11-02T11:48:47Z</time>
      </trkpt>
      <trkpt lat="45.97659" lon="4.6456">
        <ele>298</ele>
        <time>2018-11-02T11:48:48Z</time>
      </trkpt>
      <trkpt lat="45.9766" lon="4.64571">
        <ele>298</ele>
        <time>2018-11-02T11:48:49Z</time>
      </trkpt>
      <trkpt lat="45.97661" lon="4.64583">
        <ele>297</ele>
        <time>2018-11-02T11:48:50Z</time>
      </trkpt>
      <trkpt lat="45.97662" lon="4.64595">
        <ele>296</ele>
        <time>2018-11-02T11:48:51Z</time>
      </trkpt>
      <trkpt lat="45.97664" lon="4.64607">
        <ele>296</ele>
        <time>2018-11-02T11:48:52Z</time>
      </trkpt>
      <trkpt lat="45.97666" lon="4.64621">
        <ele>295</ele>
        <time>2018-11-02T11:48:53Z</time>
      </trkpt>
      <trkpt lat="45.97667" lon="4.64633">
        <ele>294</ele>
        <time>2018-11-02T11:48:54Z</time>
      </trkpt>
      <trkpt lat="45.97668" lon="4.64645">
        <ele>293</ele>
        <time>2018-11-02T11:48:55Z</time>
      </trkpt>
      <trkpt lat="45.9767" lon="4.64658">
        <ele>293</ele>
        <time>2018-11-02T11:48:56Z</time>
      </trkpt>
      <trkpt lat="45.97671" lon="4.6467">
        <ele>292</ele>
        <time>2018-11-02T11:48:57Z</time>
      </trkpt>
      <trkpt lat="45.97674" lon="4.64682">
        <ele>292</ele>
        <time>2018-11-02T11:48:58Z</time>
      </trkpt>
      <trkpt lat="45.97675" lon="4.64694">
        <ele>291</ele>
        <time>2018-11-02T11:48:59Z</time>
      </trkpt>
      <trkpt lat="45.97676" lon="4.64706">
        <ele>291</ele>
        <time>2018-11-02T11:49:00Z</time>
      </trkpt>
      <trkpt lat="45.97678" lon="4.64718">
        <ele>291</ele>
        <time>2018-11-02T11:49:01Z</time>
      </trkpt>
      <trkpt lat="45.97679" lon="4.6473">
        <ele>291</ele>
        <time>2018-11-02T11:49:02Z</time>
      </trkpt>
      <trkpt lat="45.97681" lon="4.64742">
        <ele>291</ele>
        <time>2018-11-02T11:49:03Z</time>
      </trkpt>
      <trkpt lat="45.97683" lon="4.64755">
        <ele>290</ele>
        <time>2018-11-02T11:49:04Z</time>
      </trkpt>
      <trkpt lat="45.97683" lon="4.64768">
        <ele>290</ele>
        <time>2018-11-02T11:49:05Z</time>
      </trkpt>
      <trkpt lat="45.97685" lon="4.64781">
        <ele>290</ele>
        <time>2018-11-02T11:49:06Z</time>
      </trkpt>
      <trkpt lat="45.97686" lon="4.64793">
        <ele>290</ele>
        <time>2018-11-02T11:49:07Z</time>
      </trkpt>
      <trkpt lat="45.97687" lon="4.64807">
        <ele>290</ele>
        <time>2018-11-02T11:49:08Z</time>
      </trkpt>
      <trkpt lat="45.97688" lon="4.64819">
        <ele>289</ele>
        <time>2018-11-02T11:49:09Z</time>
      </trkpt>
      <trkpt lat="45.9769" lon="4.64832">
        <ele>289</ele>
        <time>2018-11-02T11:49:10Z</time>
      </trkpt>
      <trkpt lat="45.97691" lon="4.64845">
        <ele>289</ele>
        <time>2018-11-02T11:49:11Z</time>
      </trkpt>
      <trkpt lat="45.97692" lon="4.64857">
        <ele>289</ele>
        <time>2018-11-02T11:49:12Z</time>
      </trkpt>
      <trkpt lat="45.97693" lon="4.6487">
        <ele>289</ele>
        <time>2018-11-02T11:49:13Z</time>
      </trkpt>
      <trkpt lat="45.97695" lon="4.64883">
        <ele>288</ele>
        <time>2018-11-02T11:49:14Z</time>
      </trkpt>
      <trkpt lat="45.97696" lon="4.64895">
        <ele>288</ele>
        <time>2018-11-02T11:49:15Z</time>
      </trkpt>
      <trkpt lat="45.97698" lon="4.64908">
        <ele>288</ele>
        <time>2018-11-02T11:49:16Z</time>
      </trkpt>
      <trkpt lat="45.977" lon="4.64921">
        <ele>288</ele>
        <time>2018-11-02T11:49:17Z</time>
      </trkpt>
      <trkpt lat="45.97701" lon="4.64934">
        <ele>287</ele>
        <time>2018-11-02T11:49:18Z</time>
      </trkpt>
      <trkpt lat="45.97702" lon="4.64947">
        <ele>287</ele>
        <time>2018-11-02T11:49:19Z</time>
      </trkpt>
      <trkpt lat="45.97704" lon="4.64959">
        <ele>287</ele>
        <time>2018-11-02T11:49:20Z</time>
      </trkpt>
      <trkpt lat="45.97705" lon="4.64972">
        <ele>287</ele>
        <time>2018-11-02T11:49:21Z</time>
      </trkpt>
      <trkpt lat="45.97706" lon="4.64984">
        <ele>287</ele>
        <time>2018-11-02T11:49:22Z</time>
      </trkpt>
      <trkpt lat="45.97707" lon="4.64996">
        <ele>287</ele>
        <time>2018-11-02T11:49:23Z</time>
      </trkpt>
      <trkpt lat="45.97708" lon="4.65006">
        <ele>286</ele>
        <time>2018-11-02T11:49:24Z</time>
      </trkpt>
      <trkpt lat="45.9771" lon="4.65016">
        <ele>286</ele>
        <time>2018-11-02T11:49:25Z</time>
      </trkpt>
      <trkpt lat="45.9771" lon="4.65025">
        <ele>286</ele>
        <time>2018-11-02T11:49:26Z</time>
      </trkpt>
      <trkpt lat="45.9771" lon="4.65034">
        <ele>286</ele>
        <time>2018-11-02T11:49:27Z</time>
      </trkpt>
      <trkpt lat="45.9771" lon="4.65044">
        <ele>285</ele>
        <time>2018-11-02T11:49:28Z</time>
      </trkpt>
      <trkpt lat="45.9771" lon="4.65052">
        <ele>285</ele>
        <time>2018-11-02T11:49:29Z</time>
      </trkpt>
      <trkpt lat="45.97712" lon="4.65061">
        <ele>285</ele>
        <time>2018-11-02T11:49:30Z</time>
      </trkpt>
      <trkpt lat="45.97715" lon="4.65069">
        <ele>285</ele>
        <time>2018-11-02T11:49:31Z</time>
      </trkpt>
      <trkpt lat="45.97719" lon="4.65076">
        <ele>285</ele>
        <time>2018-11-02T11:49:32Z</time>
      </trkpt>
      <trkpt lat="45.9772" lon="4.65084">
        <ele>285</ele>
        <time>2018-11-02T11:49:33Z</time>
      </trkpt>
      <trkpt lat="45.97721" lon="4.65092">
        <ele>285</ele>
        <time>2018-11-02T11:49:34Z</time>
      </trkpt>
      <trkpt lat="45.97723" lon="4.65101">
        <ele>285</ele>
        <time>2018-11-02T11:49:35Z</time>
      </trkpt>
      <trkpt lat="45.97725" lon="4.65109">
        <ele>285</ele>
        <time>2018-11-02T11:49:36Z</time>
      </trkpt>
      <trkpt lat="45.97726" lon="4.65118">
        <ele>285</ele>
        <time>2018-11-02T11:49:37Z</time>
      </trkpt>
      <trkpt lat="45.97727" lon="4.65126">
        <ele>285</ele>
        <time>2018-11-02T11:49:38Z</time>
      </trkpt>
      <trkpt lat="45.97727" lon="4.65135">
        <ele>285</ele>
        <time>2018-11-02T11:49:39Z</time>
      </trkpt>
      <trkpt lat="45.97728" lon="4.65144">
        <ele>285</ele>
        <time>2018-11-02T11:49:40Z</time>
      </trkpt>
      <trkpt lat="45.97729" lon="4.65154">
        <ele>285</ele>
        <time>2018-11-02T11:49:41Z</time>
      </trkpt>
      <trkpt lat="45.9773" lon="4.65164">
        <ele>285</ele>
        <time>2018-11-02T11:49:42Z</time>
      </trkpt>
      <trkpt lat="45.9773" lon="4.65173">
        <ele>284</ele>
        <time>2018-11-02T11:49:43Z</time>
      </trkpt>
      <trkpt lat="45.97731" lon="4.65183">
        <ele>284</ele>
        <time>2018-11-02T11:49:44Z</time>
      </trkpt>
      <trkpt lat="45.97731" lon="4.65192">
        <ele>284</ele>
        <time>2018-11-02T11:49:45Z</time>
      </trkpt>
      <trkpt lat="45.97732" lon="4.65202">
        <ele>284</ele>
        <time>2018-11-02T11:49:46Z</time>
      </trkpt>
      <trkpt lat="45.97733" lon="4.65211">
        <ele>284</ele>
        <time>2018-11-02T11:49:47Z</time>
      </trkpt>
      <trkpt lat="45.97734" lon="4.65221">
        <ele>284</ele>
        <time>2018-11-02T11:49:48Z</time>
      </trkpt>
      <trkpt lat="45.97735" lon="4.6523">
        <ele>284</ele>
        <time>2018-11-02T11:49:49Z</time>
      </trkpt>
      <trkpt lat="45.97736" lon="4.6524">
        <ele>284</ele>
        <time>2018-11-02T11:49:50Z</time>
      </trkpt>
      <trkpt lat="45.97737" lon="4.6525">
        <ele>284</ele>
        <time>2018-11-02T11:49:51Z</time>
      </trkpt>
      <trkpt lat="45.97738" lon="4.6526">
        <ele>283</ele>
        <time>2018-11-02T11:49:52Z</time>
      </trkpt>
      <trkpt lat="45.9774" lon="4.6527">
        <ele>283</ele>
        <time>2018-11-02T11:49:53Z</time>
      </trkpt>
      <trkpt lat="45.97742" lon="4.6528">
        <ele>283</ele>
        <time>2018-11-02T11:49:54Z</time>
      </trkpt>
      <trkpt lat="45.97743" lon="4.6529">
        <ele>283</ele>
        <time>2018-11-02T11:49:55Z</time>
      </trkpt>
      <trkpt lat="45.97745" lon="4.65299">
        <ele>282</ele>
        <time>2018-11-02T11:49:56Z</time>
      </trkpt>
      <trkpt lat="45.97748" lon="4.65308">
        <ele>282</ele>
        <time>2018-11-02T11:49:57Z</time>
      </trkpt>
      <trkpt lat="45.9775" lon="4.65317">
        <ele>282</ele>
        <time>2018-11-02T11:49:58Z</time>
      </trkpt>
      <trkpt lat="45.97752" lon="4.65326">
        <ele>282</ele>
        <time>2018-11-02T11:49:59Z</time>
      </trkpt>
      <trkpt lat="45.97755" lon="4.65334">
        <ele>282</ele>
        <time>2018-11-02T11:50:00Z</time>
      </trkpt>
      <trkpt lat="45.97758" lon="4.65343">
        <ele>282</ele>
        <time>2018-11-02T11:50:01Z</time>
      </trkpt>
      <trkpt lat="45.97761" lon="4.65351">
        <ele>282</ele>
        <time>2018-11-02T11:50:02Z</time>
      </trkpt>
      <trkpt lat="45.97764" lon="4.65359">
        <ele>282</ele>
        <time>2018-11-02T11:50:03Z</time>
      </trkpt>
      <trkpt lat="45.97767" lon="4.65368">
        <ele>282</ele>
        <time>2018-11-02T11:50:04Z</time>
      </trkpt>
      <trkpt lat="45.97771" lon="4.65377">
        <ele>282</ele>
        <time>2018-11-02T11:50:05Z</time>
      </trkpt>
      <trkpt lat="45.97774" lon="4.65385">
        <ele>282</ele>
        <time>2018-11-02T11:50:06Z</time>
      </trkpt>
      <trkpt lat="45.97777" lon="4.65394">
        <ele>282</ele>
        <time>2018-11-02T11:50:07Z</time>
      </trkpt>
      <trkpt lat="45.9778" lon="4.65403">
        <ele>282</ele>
        <time>2018-11-02T11:50:08Z</time>
      </trkpt>
      <trkpt lat="45.97783" lon="4.65411">
        <ele>282</ele>
        <time>2018-11-02T11:50:09Z</time>
      </trkpt>
      <trkpt lat="45.97785" lon="4.65419">
        <ele>281</ele>
        <time>2018-11-02T11:50:10Z</time>
      </trkpt>
      <trkpt lat="45.97788" lon="4.65427">
        <ele>281</ele>
        <time>2018-11-02T11:50:11Z</time>
      </trkpt>
      <trkpt lat="45.97791" lon="4.65435">
        <ele>281</ele>
        <time>2018-11-02T11:50:12Z</time>
      </trkpt>
      <trkpt lat="45.97793" lon="4.65443">
        <ele>281</ele>
        <time>2018-11-02T11:50:13Z</time>
      </trkpt>
      <trkpt lat="45.97796" lon="4.65451">
        <ele>281</ele>
        <time>2018-11-02T11:50:14Z</time>
      </trkpt>
      <trkpt lat="45.97799" lon="4.65459">
        <ele>281</ele>
        <time>2018-11-02T11:50:15Z</time>
      </trkpt>
      <trkpt lat="45.97802" lon="4.65467">
        <ele>281</ele>
        <time>2018-11-02T11:50:16Z</time>
      </trkpt>
      <trkpt lat="45.97805" lon="4.65475">
        <ele>281</ele>
        <time>2018-11-02T11:50:17Z</time>
      </trkpt>
      <trkpt lat="45.97808" lon="4.65482">
        <ele>281</ele>
        <time>2018-11-02T11:50:18Z</time>
      </trkpt>
      <trkpt lat="45.97811" lon="4.65491">
        <ele>280</ele>
        <time>2018-11-02T11:50:19Z</time>
      </trkpt>
      <trkpt lat="45.97813" lon="4.655">
        <ele>280</ele>
        <time>2018-11-02T11:50:20Z</time>
      </trkpt>
      <trkpt lat="45.97815" lon="4.65509">
        <ele>280</ele>
        <time>2018-11-02T11:50:21Z</time>
      </trkpt>
      <trkpt lat="45.97817" lon="4.65519">
        <ele>280</ele>
        <time>2018-11-02T11:50:22Z</time>
      </trkpt>
      <trkpt lat="45.97818" lon="4.65529">
        <ele>280</ele>
        <time>2018-11-02T11:50:23Z</time>
      </trkpt>
      <trkpt lat="45.9782" lon="4.65538">
        <ele>280</ele>
        <time>2018-11-02T11:50:24Z</time>
      </trkpt>
      <trkpt lat="45.97822" lon="4.65549">
        <ele>280</ele>
        <time>2018-11-02T11:50:25Z</time>
      </trkpt>
      <trkpt lat="45.97825" lon="4.65558">
        <ele>280</ele>
        <time>2018-11-02T11:50:26Z</time>
      </trkpt>
      <trkpt lat="45.97826" lon="4.65568">
        <ele>280</ele>
        <time>2018-11-02T11:50:27Z</time>
      </trkpt>
      <trkpt lat="45.97829" lon="4.65578">
        <ele>280</ele>
        <time>2018-11-02T11:50:28Z</time>
      </trkpt>
      <trkpt lat="45.9783" lon="4.65587">
        <ele>280</ele>
        <time>2018-11-02T11:50:29Z</time>
      </trkpt>
      <trkpt lat="45.97833" lon="4.65597">
        <ele>280</ele>
        <time>2018-11-02T11:50:30Z</time>
      </trkpt>
      <trkpt lat="45.97835" lon="4.65606">
        <ele>280</ele>
        <time>2018-11-02T11:50:31Z</time>
      </trkpt>
      <trkpt lat="45.97838" lon="4.65614">
        <ele>279</ele>
        <time>2018-11-02T11:50:32Z</time>
      </trkpt>
      <trkpt lat="45.97842" lon="4.65622">
        <ele>279</ele>
        <time>2018-11-02T11:50:33Z</time>
      </trkpt>
      <trkpt lat="45.97844" lon="4.65631">
        <ele>279</ele>
        <time>2018-11-02T11:50:34Z</time>
      </trkpt>
      <trkpt lat="45.97847" lon="4.6564">
        <ele>279</ele>
        <time>2018-11-02T11:50:35Z</time>
      </trkpt>
      <trkpt lat="45.97849" lon="4.6565">
        <ele>279</ele>
        <time>2018-11-02T11:50:36Z</time>
      </trkpt>
      <trkpt lat="45.97852" lon="4.65659">
        <ele>279</ele>
        <time>2018-11-02T11:50:37Z</time>
      </trkpt>
      <trkpt lat="45.97855" lon="4.65667">
        <ele>278</ele>
        <time>2018-11-02T11:50:38Z</time>
      </trkpt>
      <trkpt lat="45.97858" lon="4.65677">
        <ele>278</ele>
        <time>2018-11-02T11:50:39Z</time>
      </trkpt>
      <trkpt lat="45.97861" lon="4.65685">
        <ele>278</ele>
        <time>2018-11-02T11:50:40Z</time>
      </trkpt>
      <trkpt lat="45.97863" lon="4.65694">
        <ele>278</ele>
        <time>2018-11-02T11:50:41Z</time>
      </trkpt>
      <trkpt lat="45.97867" lon="4.65705">
        <ele>278</ele>
        <time>2018-11-02T11:50:42Z</time>
      </trkpt>
      <trkpt lat="45.9787" lon="4.65714">
        <ele>278</ele>
        <time>2018-11-02T11:50:43Z</time>
      </trkpt>
      <trkpt lat="45.97873" lon="4.65723">
        <ele>278</ele>
        <time>2018-11-02T11:50:44Z</time>
      </trkpt>
      <trkpt lat="45.97876" lon="4.65733">
        <ele>278</ele>
        <time>2018-11-02T11:50:45Z</time>
      </trkpt>
      <trkpt lat="45.97879" lon="4.65742">
        <ele>278</ele>
        <time>2018-11-02T11:50:46Z</time>
      </trkpt>
      <trkpt lat="45.97881" lon="4.65751">
        <ele>277</ele>
        <time>2018-11-02T11:50:47Z</time>
      </trkpt>
      <trkpt lat="45.97884" lon="4.6576">
        <ele>277</ele>
        <time>2018-11-02T11:50:48Z</time>
      </trkpt>
      <trkpt lat="45.97886" lon="4.65768">
        <ele>277</ele>
        <time>2018-11-02T11:50:49Z</time>
      </trkpt>
      <trkpt lat="45.97889" lon="4.65776">
        <ele>277</ele>
        <time>2018-11-02T11:50:50Z</time>
      </trkpt>
      <trkpt lat="45.97891" lon="4.65784">
        <ele>277</ele>
        <time>2018-11-02T11:50:51Z</time>
      </trkpt>
      <trkpt lat="45.97894" lon="4.65792">
        <ele>277</ele>
        <time>2018-11-02T11:50:52Z</time>
      </trkpt>
      <trkpt lat="45.97896" lon="4.658">
        <ele>277</ele>
        <time>2018-11-02T11:50:53Z</time>
      </trkpt>
      <trkpt lat="45.97899" lon="4.65807">
        <ele>277</ele>
        <time>2018-11-02T11:50:54Z</time>
      </trkpt>
      <trkpt lat="45.97902" lon="4.65815">
        <ele>277</ele>
        <time>2018-11-02T11:50:55Z</time>
      </trkpt>
      <trkpt lat="45.97904" lon="4.65822">
        <ele>277</ele>
        <time>2018-11-02T11:50:56Z</time>
      </trkpt>
      <trkpt lat="45.97907" lon="4.6583">
        <ele>278</ele>
        <time>2018-11-02T11:50:57Z</time>
      </trkpt>
      <trkpt lat="45.97909" lon="4.65838">
        <ele>277</ele>
        <time>2018-11-02T11:50:58Z</time>
      </trkpt>
      <trkpt lat="45.97912" lon="4.65846">
        <ele>277</ele>
        <time>2018-11-02T11:50:59Z</time>
      </trkpt>
      <trkpt lat="45.97915" lon="4.65855">
        <ele>277</ele>
        <time>2018-11-02T11:51:00Z</time>
      </trkpt>
      <trkpt lat="45.97918" lon="4.65863">
        <ele>276</ele>
        <time>2018-11-02T11:51:01Z</time>
      </trkpt>
      <trkpt lat="45.97921" lon="4.65872">
        <ele>276</ele>
        <time>2018-11-02T11:51:02Z</time>
      </trkpt>
      <trkpt lat="45.97923" lon="4.65882">
        <ele>276</ele>
        <time>2018-11-02T11:51:03Z</time>
      </trkpt>
      <trkpt lat="45.97925" lon="4.65891">
        <ele>276</ele>
        <time>2018-11-02T11:51:04Z</time>
      </trkpt>
      <trkpt lat="45.97927" lon="4.65901">
        <ele>276</ele>
        <time>2018-11-02T11:51:05Z</time>
      </trkpt>
      <trkpt lat="45.97928" lon="4.65911">
        <ele>276</ele>
        <time>2018-11-02T11:51:06Z</time>
      </trkpt>
      <trkpt lat="45.97929" lon="4.65922">
        <ele>275</ele>
        <time>2018-11-02T11:51:07Z</time>
      </trkpt>
      <trkpt lat="45.9793" lon="4.65932">
        <ele>274</ele>
        <time>2018-11-02T11:51:08Z</time>
      </trkpt>
      <trkpt lat="45.97932" lon="4.6594">
        <ele>273</ele>
        <time>2018-11-02T11:51:09Z</time>
      </trkpt>
      <trkpt lat="45.97932" lon="4.65951">
        <ele>273</ele>
        <time>2018-11-02T11:51:10Z</time>
      </trkpt>
      <trkpt lat="45.97932" lon="4.65961">
        <ele>272</ele>
        <time>2018-11-02T11:51:11Z</time>
      </trkpt>
      <trkpt lat="45.97932" lon="4.65972">
        <ele>272</ele>
        <time>2018-11-02T11:51:12Z</time>
      </trkpt>
      <trkpt lat="45.97934" lon="4.65981">
        <ele>272</ele>
        <time>2018-11-02T11:51:13Z</time>
      </trkpt>
      <trkpt lat="45.97934" lon="4.65991">
        <ele>272</ele>
        <time>2018-11-02T11:51:14Z</time>
      </trkpt>
      <trkpt lat="45.97933" lon="4.66001">
        <ele>271</ele>
        <time>2018-11-02T11:51:15Z</time>
      </trkpt>
      <trkpt lat="45.97932" lon="4.66011">
        <ele>270</ele>
        <time>2018-11-02T11:51:16Z</time>
      </trkpt>
      <trkpt lat="45.97931" lon="4.66022">
        <ele>270</ele>
        <time>2018-11-02T11:51:17Z</time>
      </trkpt>
      <trkpt lat="45.9793" lon="4.66032">
        <ele>270</ele>
        <time>2018-11-02T11:51:18Z</time>
      </trkpt>
      <trkpt lat="45.9793" lon="4.66042">
        <ele>270</ele>
        <time>2018-11-02T11:51:19Z</time>
      </trkpt>
      <trkpt lat="45.9793" lon="4.66052">
        <ele>270</ele>
        <time>2018-11-02T11:51:20Z</time>
      </trkpt>
      <trkpt lat="45.9793" lon="4.66061">
        <ele>270</ele>
        <time>2018-11-02T11:51:21Z</time>
      </trkpt>
      <trkpt lat="45.9793" lon="4.66071">
        <ele>270</ele>
        <time>2018-11-02T11:51:22Z</time>
      </trkpt>
      <trkpt lat="45.97929" lon="4.6608">
        <ele>270</ele>
        <time>2018-11-02T11:51:23Z</time>
      </trkpt>
      <trkpt lat="45.9793" lon="4.6609">
        <ele>270</ele>
        <time>2018-11-02T11:51:24Z</time>
      </trkpt>
      <trkpt lat="45.97932" lon="4.66098">
        <ele>270</ele>
        <time>2018-11-02T11:51:25Z</time>
      </trkpt>
      <trkpt lat="45.97933" lon="4.66108">
        <ele>269</ele>
        <time>2018-11-02T11:51:26Z</time>
      </trkpt>
      <trkpt lat="45.97935" lon="4.66118">
        <ele>269</ele>
        <time>2018-11-02T11:51:27Z</time>
      </trkpt>
      <trkpt lat="45.97937" lon="4.66126">
        <ele>269</ele>
        <time>2018-11-02T11:51:28Z</time>
      </trkpt>
      <trkpt lat="45.97939" lon="4.66136">
        <ele>269</ele>
        <time>2018-11-02T11:51:29Z</time>
      </trkpt>
      <trkpt lat="45.97942" lon="4.66147">
        <ele>269</ele>
        <time>2018-11-02T11:51:30Z</time>
      </trkpt>
      <trkpt lat="45.97944" lon="4.66156">
        <ele>269</ele>
        <time>2018-11-02T11:51:31Z</time>
      </trkpt>
      <trkpt lat="45.97945" lon="4.66166">
        <ele>269</ele>
        <time>2018-11-02T11:51:32Z</time>
      </trkpt>
      <trkpt lat="45.97947" lon="4.66177">
        <ele>270</ele>
        <time>2018-11-02T11:51:33Z</time>
      </trkpt>
      <trkpt lat="45.97949" lon="4.66186">
        <ele>270</ele>
        <time>2018-11-02T11:51:34Z</time>
      </trkpt>
      <trkpt lat="45.97951" lon="4.66196">
        <ele>270</ele>
        <time>2018-11-02T11:51:35Z</time>
      </trkpt>
      <trkpt lat="45.97953" lon="4.66206">
        <ele>270</ele>
        <time>2018-11-02T11:51:36Z</time>
      </trkpt>
      <trkpt lat="45.97956" lon="4.66215">
        <ele>270</ele>
        <time>2018-11-02T11:51:37Z</time>
      </trkpt>
      <trkpt lat="45.97958" lon="4.66223">
        <ele>270</ele>
        <time>2018-11-02T11:51:38Z</time>
      </trkpt>
      <trkpt lat="45.97962" lon="4.66232">
        <ele>270</ele>
        <time>2018-11-02T11:51:39Z</time>
      </trkpt>
      <trkpt lat="45.97964" lon="4.6624">
        <ele>270</ele>
        <time>2018-11-02T11:51:40Z</time>
      </trkpt>
      <trkpt lat="45.97972" lon="4.66247">
        <ele>270</ele>
        <time>2018-11-02T11:51:41Z</time>
      </trkpt>
      <trkpt lat="45.97976" lon="4.66253">
        <ele>270</ele>
        <time>2018-11-02T11:51:42Z</time>
      </trkpt>
      <trkpt lat="45.9798" lon="4.66259">
        <ele>270</ele>
        <time>2018-11-02T11:51:43Z</time>
      </trkpt>
      <trkpt lat="45.97985" lon="4.66265">
        <ele>270</ele>
        <time>2018-11-02T11:51:44Z</time>
      </trkpt>
      <trkpt lat="45.97989" lon="4.66272">
        <ele>270</ele>
        <time>2018-11-02T11:51:45Z</time>
      </trkpt>
      <trkpt lat="45.97994" lon="4.66278">
        <ele>270</ele>
        <time>2018-11-02T11:51:46Z</time>
      </trkpt>
      <trkpt lat="45.97999" lon="4.66284">
        <ele>270</ele>
        <time>2018-11-02T11:51:47Z</time>
      </trkpt>
      <trkpt lat="45.98005" lon="4.66289">
        <ele>268</ele>
        <time>2018-11-02T11:51:48Z</time>
      </trkpt>
      <trkpt lat="45.9801" lon="4.66295">
        <ele>268</ele>
        <time>2018-11-02T11:51:49Z</time>
      </trkpt>
      <trkpt lat="45.98017" lon="4.66303">
        <ele>268</ele>
        <time>2018-11-02T11:51:50Z</time>
      </trkpt>
      <trkpt lat="45.98022" lon="4.66311">
        <ele>268</ele>
        <time>2018-11-02T11:51:51Z</time>
      </trkpt>
      <trkpt lat="45.98027" lon="4.66319">
        <ele>268</ele>
        <time>2018-11-02T11:51:52Z</time>
      </trkpt>
      <trkpt lat="45.98033" lon="4.66328">
        <ele>268</ele>
        <time>2018-11-02T11:51:53Z</time>
      </trkpt>
      <trkpt lat="45.98037" lon="4.66338">
        <ele>267</ele>
        <time>2018-11-02T11:51:54Z</time>
      </trkpt>
      <trkpt lat="45.98042" lon="4.66348">
        <ele>267</ele>
        <time>2018-11-02T11:51:55Z</time>
      </trkpt>
      <trkpt lat="45.98047" lon="4.66359">
        <ele>267</ele>
        <time>2018-11-02T11:51:56Z</time>
      </trkpt>
      <trkpt lat="45.9805" lon="4.66369">
        <ele>267</ele>
        <time>2018-11-02T11:51:57Z</time>
      </trkpt>
      <trkpt lat="45.98054" lon="4.6638">
        <ele>267</ele>
        <time>2018-11-02T11:51:58Z</time>
      </trkpt>
      <trkpt lat="45.98057" lon="4.66391">
        <ele>267</ele>
        <time>2018-11-02T11:51:59Z</time>
      </trkpt>
      <trkpt lat="45.9806" lon="4.66402">
        <ele>266</ele>
        <time>2018-11-02T11:52:00Z</time>
      </trkpt>
      <trkpt lat="45.98063" lon="4.66413">
        <ele>266</ele>
        <time>2018-11-02T11:52:01Z</time>
      </trkpt>
      <trkpt lat="45.98065" lon="4.66424">
        <ele>266</ele>
        <time>2018-11-02T11:52:02Z</time>
      </trkpt>
      <trkpt lat="45.98067" lon="4.66435">
        <ele>266</ele>
        <time>2018-11-02T11:52:03Z</time>
      </trkpt>
      <trkpt lat="45.98068" lon="4.66445">
        <ele>266</ele>
        <time>2018-11-02T11:52:04Z</time>
      </trkpt>
      <trkpt lat="45.98069" lon="4.66456">
        <ele>266</ele>
        <time>2018-11-02T11:52:05Z</time>
      </trkpt>
      <trkpt lat="45.98071" lon="4.66466">
        <ele>266</ele>
        <time>2018-11-02T11:52:06Z</time>
      </trkpt>
      <trkpt lat="45.98072" lon="4.66477">
        <ele>266</ele>
        <time>2018-11-02T11:52:07Z</time>
      </trkpt>
      <trkpt lat="45.98073" lon="4.66487">
        <ele>265</ele>
        <time>2018-11-02T11:52:08Z</time>
      </trkpt>
      <trkpt lat="45.98073" lon="4.66498">
        <ele>265</ele>
        <time>2018-11-02T11:52:09Z</time>
      </trkpt>
      <trkpt lat="45.98074" lon="4.66508">
        <ele>265</ele>
        <time>2018-11-02T11:52:10Z</time>
      </trkpt>
      <trkpt lat="45.98074" lon="4.66519">
        <ele>265</ele>
        <time>2018-11-02T11:52:11Z</time>
      </trkpt>
      <trkpt lat="45.98075" lon="4.66529">
        <ele>264</ele>
        <time>2018-11-02T11:52:12Z</time>
      </trkpt>
      <trkpt lat="45.98075" lon="4.6654">
        <ele>264</ele>
        <time>2018-11-02T11:52:13Z</time>
      </trkpt>
      <trkpt lat="45.98076" lon="4.6655">
        <ele>264</ele>
        <time>2018-11-02T11:52:14Z</time>
      </trkpt>
      <trkpt lat="45.98077" lon="4.66561">
        <ele>263</ele>
        <time>2018-11-02T11:52:15Z</time>
      </trkpt>
      <trkpt lat="45.98078" lon="4.66571">
        <ele>263</ele>
        <time>2018-11-02T11:52:16Z</time>
      </trkpt>
      <trkpt lat="45.9808" lon="4.66582">
        <ele>262</ele>
        <time>2018-11-02T11:52:17Z</time>
      </trkpt>
      <trkpt lat="45.98082" lon="4.66592">
        <ele>262</ele>
        <time>2018-11-02T11:52:18Z</time>
      </trkpt>
      <trkpt lat="45.98084" lon="4.66602">
        <ele>260</ele>
        <time>2018-11-02T11:52:19Z</time>
      </trkpt>
      <trkpt lat="45.98085" lon="4.66613">
        <ele>260</ele>
        <time>2018-11-02T11:52:20Z</time>
      </trkpt>
      <trkpt lat="45.98087" lon="4.66624">
        <ele>259</ele>
        <time>2018-11-02T11:52:21Z</time>
      </trkpt>
      <trkpt lat="45.98089" lon="4.66634">
        <ele>259</ele>
        <time>2018-11-02T11:52:22Z</time>
      </trkpt>
      <trkpt lat="45.98092" lon="4.66645">
        <ele>259</ele>
        <time>2018-11-02T11:52:23Z</time>
      </trkpt>
      <trkpt lat="45.98094" lon="4.66656">
        <ele>259</ele>
        <time>2018-11-02T11:52:24Z</time>
      </trkpt>
      <trkpt lat="45.98096" lon="4.66667">
        <ele>259</ele>
        <time>2018-11-02T11:52:25Z</time>
      </trkpt>
      <trkpt lat="45.98098" lon="4.66677">
        <ele>258</ele>
        <time>2018-11-02T11:52:26Z</time>
      </trkpt>
      <trkpt lat="45.981" lon="4.66688">
        <ele>258</ele>
        <time>2018-11-02T11:52:27Z</time>
      </trkpt>
      <trkpt lat="45.98103" lon="4.66698">
        <ele>257</ele>
        <time>2018-11-02T11:52:28Z</time>
      </trkpt>
      <trkpt lat="45.98105" lon="4.66709">
        <ele>257</ele>
        <time>2018-11-02T11:52:29Z</time>
      </trkpt>
      <trkpt lat="45.98107" lon="4.6672">
        <ele>257</ele>
        <time>2018-11-02T11:52:30Z</time>
      </trkpt>
      <trkpt lat="45.98109" lon="4.6673">
        <ele>257</ele>
        <time>2018-11-02T11:52:31Z</time>
      </trkpt>
      <trkpt lat="45.98111" lon="4.66742">
        <ele>256</ele>
        <time>2018-11-02T11:52:32Z</time>
      </trkpt>
      <trkpt lat="45.98113" lon="4.66753">
        <ele>255</ele>
        <time>2018-11-02T11:52:33Z</time>
      </trkpt>
      <trkpt lat="45.98115" lon="4.66765">
        <ele>255</ele>
        <time>2018-11-02T11:52:34Z</time>
      </trkpt>
      <trkpt lat="45.98117" lon="4.66776">
        <ele>255</ele>
        <time>2018-11-02T11:52:35Z</time>
      </trkpt>
      <trkpt lat="45.9812" lon="4.66787">
        <ele>255</ele>
        <time>2018-11-02T11:52:36Z</time>
      </trkpt>
      <trkpt lat="45.98121" lon="4.66799">
        <ele>255</ele>
        <time>2018-11-02T11:52:37Z</time>
      </trkpt>
      <trkpt lat="45.98123" lon="4.66809">
        <ele>254</ele>
        <time>2018-11-02T11:52:38Z</time>
      </trkpt>
      <trkpt lat="45.98125" lon="4.6682">
        <ele>254</ele>
        <time>2018-11-02T11:52:39Z</time>
      </trkpt>
      <trkpt lat="45.98127" lon="4.66831">
        <ele>254</ele>
        <time>2018-11-02T11:52:40Z</time>
      </trkpt>
      <trkpt lat="45.98129" lon="4.66841">
        <ele>254</ele>
        <time>2018-11-02T11:52:41Z</time>
      </trkpt>
      <trkpt lat="45.98132" lon="4.66853">
        <ele>254</ele>
        <time>2018-11-02T11:52:42Z</time>
      </trkpt>
      <trkpt lat="45.98135" lon="4.66864">
        <ele>254</ele>
        <time>2018-11-02T11:52:43Z</time>
      </trkpt>
      <trkpt lat="45.98136" lon="4.66876">
        <ele>254</ele>
        <time>2018-11-02T11:52:44Z</time>
      </trkpt>
      <trkpt lat="45.98138" lon="4.66887">
        <ele>254</ele>
        <time>2018-11-02T11:52:45Z</time>
      </trkpt>
      <trkpt lat="45.98139" lon="4.66899">
        <ele>254</ele>
        <time>2018-11-02T11:52:46Z</time>
      </trkpt>
      <trkpt lat="45.98139" lon="4.6691">
        <ele>254</ele>
        <time>2018-11-02T11:52:47Z</time>
      </trkpt>
      <trkpt lat="45.9814" lon="4.66922">
        <ele>253</ele>
        <time>2018-11-02T11:52:48Z</time>
      </trkpt>
      <trkpt lat="45.9814" lon="4.66934">
        <ele>253</ele>
        <time>2018-11-02T11:52:49Z</time>
      </trkpt>
      <trkpt lat="45.98141" lon="4.66944">
        <ele>253</ele>
        <time>2018-11-02T11:52:50Z</time>
      </trkpt>
      <trkpt lat="45.98141" lon="4.66955">
        <ele>253</ele>
        <time>2018-11-02T11:52:51Z</time>
      </trkpt>
      <trkpt lat="45.98142" lon="4.66965">
        <ele>253</ele>
        <time>2018-11-02T11:52:52Z</time>
      </trkpt>
      <trkpt lat="45.98142" lon="4.66977">
        <ele>253</ele>
        <time>2018-11-02T11:52:53Z</time>
      </trkpt>
      <trkpt lat="45.98143" lon="4.66988">
        <ele>253</ele>
        <time>2018-11-02T11:52:54Z</time>
      </trkpt>
      <trkpt lat="45.98143" lon="4.66999">
        <ele>253</ele>
        <time>2018-11-02T11:52:55Z</time>
      </trkpt>
      <trkpt lat="45.98143" lon="4.6701">
        <ele>251</ele>
        <time>2018-11-02T11:52:56Z</time>
      </trkpt>
      <trkpt lat="45.98143" lon="4.67021">
        <ele>251</ele>
        <time>2018-11-02T11:52:57Z</time>
      </trkpt>
      <trkpt lat="45.98144" lon="4.67031">
        <ele>251</ele>
        <time>2018-11-02T11:52:58Z</time>
      </trkpt>
      <trkpt lat="45.98145" lon="4.67042">
        <ele>251</ele>
        <time>2018-11-02T11:52:59Z</time>
      </trkpt>
      <trkpt lat="45.98146" lon="4.67051">
        <ele>251</ele>
        <time>2018-11-02T11:53:00Z</time>
      </trkpt>
      <trkpt lat="45.98148" lon="4.6706">
        <ele>251</ele>
        <time>2018-11-02T11:53:01Z</time>
      </trkpt>
      <trkpt lat="45.9815" lon="4.67069">
        <ele>251</ele>
        <time>2018-11-02T11:53:02Z</time>
      </trkpt>
      <trkpt lat="45.98152" lon="4.67077">
        <ele>251</ele>
        <time>2018-11-02T11:53:03Z</time>
      </trkpt>
      <trkpt lat="45.98154" lon="4.67086">
        <ele>251</ele>
        <time>2018-11-02T11:53:04Z</time>
      </trkpt>
      <trkpt lat="45.98157" lon="4.67094">
        <ele>251</ele>
        <time>2018-11-02T11:53:05Z</time>
      </trkpt>
      <trkpt lat="45.9816" lon="4.67103">
        <ele>251</ele>
        <time>2018-11-02T11:53:06Z</time>
      </trkpt>
      <trkpt lat="45.98162" lon="4.67112">
        <ele>251</ele>
        <time>2018-11-02T11:53:07Z</time>
      </trkpt>
      <trkpt lat="45.98165" lon="4.67121">
        <ele>251</ele>
        <time>2018-11-02T11:53:08Z</time>
      </trkpt>
      <trkpt lat="45.98167" lon="4.67129">
        <ele>249</ele>
        <time>2018-11-02T11:53:09Z</time>
      </trkpt>
      <trkpt lat="45.9817" lon="4.67138">
        <ele>249</ele>
        <time>2018-11-02T11:53:10Z</time>
      </trkpt>
      <trkpt lat="45.98173" lon="4.67147">
        <ele>250</ele>
        <time>2018-11-02T11:53:11Z</time>
      </trkpt>
      <trkpt lat="45.98175" lon="4.67156">
        <ele>250</ele>
        <time>2018-11-02T11:53:12Z</time>
      </trkpt>
      <trkpt lat="45.98178" lon="4.67165">
        <ele>250</ele>
        <time>2018-11-02T11:53:13Z</time>
      </trkpt>
      <trkpt lat="45.9818" lon="4.67174">
        <ele>250</ele>
        <time>2018-11-02T11:53:14Z</time>
      </trkpt>
      <trkpt lat="45.98182" lon="4.67183">
        <ele>250</ele>
        <time>2018-11-02T11:53:15Z</time>
      </trkpt>
      <trkpt lat="45.98184" lon="4.67193">
        <ele>250</ele>
        <time>2018-11-02T11:53:16Z</time>
      </trkpt>
      <trkpt lat="45.98187" lon="4.67202">
        <ele>250</ele>
        <time>2018-11-02T11:53:17Z</time>
      </trkpt>
      <trkpt lat="45.98189" lon="4.67212">
        <ele>250</ele>
        <time>2018-11-02T11:53:18Z</time>
      </trkpt>
      <trkpt lat="45.98191" lon="4.67222">
        <ele>250</ele>
        <time>2018-11-02T11:53:19Z</time>
      </trkpt>
      <trkpt lat="45.98192" lon="4.67232">
        <ele>250</ele>
        <time>2018-11-02T11:53:20Z</time>
      </trkpt>
      <trkpt lat="45.98194" lon="4.67241">
        <ele>250</ele>
        <time>2018-11-02T11:53:21Z</time>
      </trkpt>
      <trkpt lat="45.98195" lon="4.67251">
        <ele>250</ele>
        <time>2018-11-02T11:53:22Z</time>
      </trkpt>
      <trkpt lat="45.98196" lon="4.6726">
        <ele>250</ele>
        <time>2018-11-02T11:53:23Z</time>
      </trkpt>
      <trkpt lat="45.98197" lon="4.67269">
        <ele>250</ele>
        <time>2018-11-02T11:53:24Z</time>
      </trkpt>
      <trkpt lat="45.98198" lon="4.67278">
        <ele>249</ele>
        <time>2018-11-02T11:53:25Z</time>
      </trkpt>
      <trkpt lat="45.98199" lon="4.67286">
        <ele>249</ele>
        <time>2018-11-02T11:53:26Z</time>
      </trkpt>
      <trkpt lat="45.98199" lon="4.67295">
        <ele>249</ele>
        <time>2018-11-02T11:53:27Z</time>
      </trkpt>
      <trkpt lat="45.98199" lon="4.67304">
        <ele>249</ele>
        <time>2018-11-02T11:53:28Z</time>
      </trkpt>
      <trkpt lat="45.98199" lon="4.67312">
        <ele>249</ele>
        <time>2018-11-02T11:53:29Z</time>
      </trkpt>
      <trkpt lat="45.982" lon="4.67322">
        <ele>249</ele>
        <time>2018-11-02T11:53:30Z</time>
      </trkpt>
      <trkpt lat="45.982" lon="4.67331">
        <ele>249</ele>
        <time>2018-11-02T11:53:31Z</time>
      </trkpt>
      <trkpt lat="45.982" lon="4.67341">
        <ele>248</ele>
        <time>2018-11-02T11:53:32Z</time>
      </trkpt>
      <trkpt lat="45.98201" lon="4.6735">
        <ele>248</ele>
        <time>2018-11-02T11:53:33Z</time>
      </trkpt>
      <trkpt lat="45.98201" lon="4.67359">
        <ele>248</ele>
        <time>2018-11-02T11:53:34Z</time>
      </trkpt>
      <trkpt lat="45.98201" lon="4.67369">
        <ele>248</ele>
        <time>2018-11-02T11:53:35Z</time>
      </trkpt>
      <trkpt lat="45.98201" lon="4.67378">
        <ele>248</ele>
        <time>2018-11-02T11:53:36Z</time>
      </trkpt>
      <trkpt lat="45.98201" lon="4.67387">
        <ele>248</ele>
        <time>2018-11-02T11:53:37Z</time>
      </trkpt>
      <trkpt lat="45.98202" lon="4.67395">
        <ele>248</ele>
        <time>2018-11-02T11:53:38Z</time>
      </trkpt>
      <trkpt lat="45.98202" lon="4.67404">
        <ele>248</ele>
        <time>2018-11-02T11:53:39Z</time>
      </trkpt>
      <trkpt lat="45.98202" lon="4.67412">
        <ele>248</ele>
        <time>2018-11-02T11:53:40Z</time>
      </trkpt>
      <trkpt lat="45.98203" lon="4.6742">
        <ele>247</ele>
        <time>2018-11-02T11:53:41Z</time>
      </trkpt>
      <trkpt lat="45.98203" lon="4.67429">
        <ele>247</ele>
        <time>2018-11-02T11:53:42Z</time>
      </trkpt>
      <trkpt lat="45.98202" lon="4.67436">
        <ele>247</ele>
        <time>2018-11-02T11:53:43Z</time>
      </trkpt>
      <trkpt lat="45.98203" lon="4.67444">
        <ele>247</ele>
        <time>2018-11-02T11:53:44Z</time>
      </trkpt>
      <trkpt lat="45.98203" lon="4.67453">
        <ele>247</ele>
        <time>2018-11-02T11:53:45Z</time>
      </trkpt>
      <trkpt lat="45.98204" lon="4.67461">
        <ele>247</ele>
        <time>2018-11-02T11:53:46Z</time>
      </trkpt>
      <trkpt lat="45.98205" lon="4.6747">
        <ele>247</ele>
        <time>2018-11-02T11:53:47Z</time>
      </trkpt>
      <trkpt lat="45.98206" lon="4.67479">
        <ele>247</ele>
        <time>2018-11-02T11:53:48Z</time>
      </trkpt>
      <trkpt lat="45.98206" lon="4.67487">
        <ele>247</ele>
        <time>2018-11-02T11:53:49Z</time>
      </trkpt>
      <trkpt lat="45.98206" lon="4.67494">
        <ele>247</ele>
        <time>2018-11-02T11:53:50Z</time>
      </trkpt>
      <trkpt lat="45.98205" lon="4.67503">
        <ele>247</ele>
        <time>2018-11-02T11:53:51Z</time>
      </trkpt>
      <trkpt lat="45.98206" lon="4.67511">
        <ele>247</ele>
        <time>2018-11-02T11:53:52Z</time>
      </trkpt>
      <trkpt lat="45.98207" lon="4.67519">
        <ele>247</ele>
        <time>2018-11-02T11:53:53Z</time>
      </trkpt>
      <trkpt lat="45.98207" lon="4.67528">
        <ele>247</ele>
        <time>2018-11-02T11:53:54Z</time>
      </trkpt>
      <trkpt lat="45.98208" lon="4.67537">
        <ele>247</ele>
        <time>2018-11-02T11:53:55Z</time>
      </trkpt>
      <trkpt lat="45.98209" lon="4.67548">
        <ele>247</ele>
        <time>2018-11-02T11:53:56Z</time>
      </trkpt>
      <trkpt lat="45.9821" lon="4.67557">
        <ele>247</ele>
        <time>2018-11-02T11:53:57Z</time>
      </trkpt>
      <trkpt lat="45.98211" lon="4.67567">
        <ele>247</ele>
        <time>2018-11-02T11:53:58Z</time>
      </trkpt>
      <trkpt lat="45.98214" lon="4.67576">
        <ele>247</ele>
        <time>2018-11-02T11:53:59Z</time>
      </trkpt>
      <trkpt lat="45.98215" lon="4.67587">
        <ele>246</ele>
        <time>2018-11-02T11:54:00Z</time>
      </trkpt>
      <trkpt lat="45.98216" lon="4.67597">
        <ele>246</ele>
        <time>2018-11-02T11:54:01Z</time>
      </trkpt>
      <trkpt lat="45.98218" lon="4.67607">
        <ele>246</ele>
        <time>2018-11-02T11:54:02Z</time>
      </trkpt>
      <trkpt lat="45.9822" lon="4.67617">
        <ele>246</ele>
        <time>2018-11-02T11:54:03Z</time>
      </trkpt>
      <trkpt lat="45.98223" lon="4.67627">
        <ele>246</ele>
        <time>2018-11-02T11:54:04Z</time>
      </trkpt>
      <trkpt lat="45.98225" lon="4.67637">
        <ele>246</ele>
        <time>2018-11-02T11:54:05Z</time>
      </trkpt>
      <trkpt lat="45.98227" lon="4.67648">
        <ele>246</ele>
        <time>2018-11-02T11:54:06Z</time>
      </trkpt>
      <trkpt lat="45.98228" lon="4.67658">
        <ele>246</ele>
        <time>2018-11-02T11:54:07Z</time>
      </trkpt>
      <trkpt lat="45.9823" lon="4.6767">
        <ele>244</ele>
        <time>2018-11-02T11:54:08Z</time>
      </trkpt>
      <trkpt lat="45.98231" lon="4.6768">
        <ele>244</ele>
        <time>2018-11-02T11:54:09Z</time>
      </trkpt>
      <trkpt lat="45.98232" lon="4.67694">
        <ele>244</ele>
        <time>2018-11-02T11:54:10Z</time>
      </trkpt>
      <trkpt lat="45.98233" lon="4.67705">
        <ele>243</ele>
        <time>2018-11-02T11:54:11Z</time>
      </trkpt>
      <trkpt lat="45.98234" lon="4.67717">
        <ele>243</ele>
        <time>2018-11-02T11:54:12Z</time>
      </trkpt>
      <trkpt lat="45.98234" lon="4.67729">
        <ele>243</ele>
        <time>2018-11-02T11:54:13Z</time>
      </trkpt>
      <trkpt lat="45.98233" lon="4.67742">
        <ele>242</ele>
        <time>2018-11-02T11:54:14Z</time>
      </trkpt>
      <trkpt lat="45.98231" lon="4.67755">
        <ele>240</ele>
        <time>2018-11-02T11:54:15Z</time>
      </trkpt>
      <trkpt lat="45.9823" lon="4.67768">
        <ele>239</ele>
        <time>2018-11-02T11:54:16Z</time>
      </trkpt>
      <trkpt lat="45.98226" lon="4.67781">
        <ele>239</ele>
        <time>2018-11-02T11:54:17Z</time>
      </trkpt>
      <trkpt lat="45.98224" lon="4.67795">
        <ele>238</ele>
        <time>2018-11-02T11:54:18Z</time>
      </trkpt>
      <trkpt lat="45.9822" lon="4.67809">
        <ele>237</ele>
        <time>2018-11-02T11:54:19Z</time>
      </trkpt>
      <trkpt lat="45.98218" lon="4.67823">
        <ele>237</ele>
        <time>2018-11-02T11:54:20Z</time>
      </trkpt>
      <trkpt lat="45.98215" lon="4.67837">
        <ele>234</ele>
        <time>2018-11-02T11:54:21Z</time>
      </trkpt>
      <trkpt lat="45.98214" lon="4.67852">
        <ele>233</ele>
        <time>2018-11-02T11:54:22Z</time>
      </trkpt>
      <trkpt lat="45.98213" lon="4.67867">
        <ele>233</ele>
        <time>2018-11-02T11:54:23Z</time>
      </trkpt>
      <trkpt lat="45.98214" lon="4.67881">
        <ele>232</ele>
        <time>2018-11-02T11:54:24Z</time>
      </trkpt>
      <trkpt lat="45.98216" lon="4.67896">
        <ele>232</ele>
        <time>2018-11-02T11:54:25Z</time>
      </trkpt>
      <trkpt lat="45.98217" lon="4.67911">
        <ele>232</ele>
        <time>2018-11-02T11:54:26Z</time>
      </trkpt>
      <trkpt lat="45.98219" lon="4.67926">
        <ele>230</ele>
        <time>2018-11-02T11:54:27Z</time>
      </trkpt>
      <trkpt lat="45.9822" lon="4.67938">
        <ele>230</ele>
        <time>2018-11-02T11:54:28Z</time>
      </trkpt>
      <trkpt lat="45.98221" lon="4.67953">
        <ele>229</ele>
        <time>2018-11-02T11:54:29Z</time>
      </trkpt>
      <trkpt lat="45.98221" lon="4.67967">
        <ele>229</ele>
        <time>2018-11-02T11:54:30Z</time>
      </trkpt>
      <trkpt lat="45.98222" lon="4.6798">
        <ele>229</ele>
        <time>2018-11-02T11:54:31Z</time>
      </trkpt>
      <trkpt lat="45.98222" lon="4.67993">
        <ele>229</ele>
        <time>2018-11-02T11:54:32Z</time>
      </trkpt>
      <trkpt lat="45.98224" lon="4.68004">
        <ele>228</ele>
        <time>2018-11-02T11:54:33Z</time>
      </trkpt>
      <trkpt lat="45.98223" lon="4.68017">
        <ele>228</ele>
        <time>2018-11-02T11:54:34Z</time>
      </trkpt>
      <trkpt lat="45.98223" lon="4.68028">
        <ele>228</ele>
        <time>2018-11-02T11:54:35Z</time>
      </trkpt>
      <trkpt lat="45.98223" lon="4.6804">
        <ele>228</ele>
        <time>2018-11-02T11:54:36Z</time>
      </trkpt>
      <trkpt lat="45.98223" lon="4.6805">
        <ele>228</ele>
        <time>2018-11-02T11:54:37Z</time>
      </trkpt>
      <trkpt lat="45.98223" lon="4.68059">
        <ele>228</ele>
        <time>2018-11-02T11:54:38Z</time>
      </trkpt>
      <trkpt lat="45.98222" lon="4.6807">
        <ele>228</ele>
        <time>2018-11-02T11:54:39Z</time>
      </trkpt>
      <trkpt lat="45.98223" lon="4.6808">
        <ele>228</ele>
        <time>2018-11-02T11:54:40Z</time>
      </trkpt>
      <trkpt lat="45.98223" lon="4.68089">
        <ele>228</ele>
        <time>2018-11-02T11:54:41Z</time>
      </trkpt>
      <trkpt lat="45.98223" lon="4.68101">
        <ele>228</ele>
        <time>2018-11-02T11:54:42Z</time>
      </trkpt>
      <trkpt lat="45.98223" lon="4.6811">
        <ele>228</ele>
        <time>2018-11-02T11:54:43Z</time>
      </trkpt>
      <trkpt lat="45.98223" lon="4.6812">
        <ele>228</ele>
        <time>2018-11-02T11:54:44Z</time>
      </trkpt>
      <trkpt lat="45.98224" lon="4.6813">
        <ele>228</ele>
        <time>2018-11-02T11:54:45Z</time>
      </trkpt>
      <trkpt lat="45.98224" lon="4.68139">
        <ele>228</ele>
        <time>2018-11-02T11:54:46Z</time>
      </trkpt>
      <trkpt lat="45.98224" lon="4.68149">
        <ele>228</ele>
        <time>2018-11-02T11:54:47Z</time>
      </trkpt>
      <trkpt lat="45.98224" lon="4.68158">
        <ele>228</ele>
        <time>2018-11-02T11:54:48Z</time>
      </trkpt>
      <trkpt lat="45.98224" lon="4.68167">
        <ele>227</ele>
        <time>2018-11-02T11:54:49Z</time>
      </trkpt>
      <trkpt lat="45.98224" lon="4.68175">
        <ele>227</ele>
        <time>2018-11-02T11:54:50Z</time>
      </trkpt>
      <trkpt lat="45.98223" lon="4.68183">
        <ele>227</ele>
        <time>2018-11-02T11:54:51Z</time>
      </trkpt>
      <trkpt lat="45.98222" lon="4.68191">
        <ele>227</ele>
        <time>2018-11-02T11:54:52Z</time>
      </trkpt>
      <trkpt lat="45.98223" lon="4.68199">
        <ele>226</ele>
        <time>2018-11-02T11:54:53Z</time>
      </trkpt>
      <trkpt lat="45.98223" lon="4.68207">
        <ele>226</ele>
        <time>2018-11-02T11:54:54Z</time>
      </trkpt>
      <trkpt lat="45.98223" lon="4.68216">
        <ele>226</ele>
        <time>2018-11-02T11:54:55Z</time>
      </trkpt>
      <trkpt lat="45.98224" lon="4.68225">
        <ele>226</ele>
        <time>2018-11-02T11:54:56Z</time>
      </trkpt>
      <trkpt lat="45.98225" lon="4.68234">
        <ele>225</ele>
        <time>2018-11-02T11:54:57Z</time>
      </trkpt>
      <trkpt lat="45.98226" lon="4.68242">
        <ele>225</ele>
        <time>2018-11-02T11:54:58Z</time>
      </trkpt>
      <trkpt lat="45.98227" lon="4.68252">
        <ele>223</ele>
        <time>2018-11-02T11:54:59Z</time>
      </trkpt>
      <trkpt lat="45.98229" lon="4.68262">
        <ele>223</ele>
        <time>2018-11-02T11:55:00Z</time>
      </trkpt>
      <trkpt lat="45.98229" lon="4.68273">
        <ele>222</ele>
        <time>2018-11-02T11:55:01Z</time>
      </trkpt>
      <trkpt lat="45.9823" lon="4.68283">
        <ele>222</ele>
        <time>2018-11-02T11:55:02Z</time>
      </trkpt>
      <trkpt lat="45.98231" lon="4.68294">
        <ele>222</ele>
        <time>2018-11-02T11:55:03Z</time>
      </trkpt>
      <trkpt lat="45.98232" lon="4.68304">
        <ele>221</ele>
        <time>2018-11-02T11:55:04Z</time>
      </trkpt>
      <trkpt lat="45.98233" lon="4.68316">
        <ele>221</ele>
        <time>2018-11-02T11:55:05Z</time>
      </trkpt>
      <trkpt lat="45.98232" lon="4.68328">
        <ele>221</ele>
        <time>2018-11-02T11:55:06Z</time>
      </trkpt>
      <trkpt lat="45.98232" lon="4.68339">
        <ele>218</ele>
        <time>2018-11-02T11:55:07Z</time>
      </trkpt>
      <trkpt lat="45.98231" lon="4.68352">
        <ele>218</ele>
        <time>2018-11-02T11:55:08Z</time>
      </trkpt>
      <trkpt lat="45.98231" lon="4.68365">
        <ele>218</ele>
        <time>2018-11-02T11:55:09Z</time>
      </trkpt>
      <trkpt lat="45.98232" lon="4.68378">
        <ele>217</ele>
        <time>2018-11-02T11:55:10Z</time>
      </trkpt>
      <trkpt lat="45.98231" lon="4.68391">
        <ele>217</ele>
        <time>2018-11-02T11:55:11Z</time>
      </trkpt>
      <trkpt lat="45.98232" lon="4.68403">
        <ele>217</ele>
        <time>2018-11-02T11:55:12Z</time>
      </trkpt>
      <trkpt lat="45.98232" lon="4.68415">
        <ele>217</ele>
        <time>2018-11-02T11:55:13Z</time>
      </trkpt>
      <trkpt lat="45.98232" lon="4.68429">
        <ele>215</ele>
        <time>2018-11-02T11:55:14Z</time>
      </trkpt>
      <trkpt lat="45.98232" lon="4.68443">
        <ele>214</ele>
        <time>2018-11-02T11:55:15Z</time>
      </trkpt>
      <trkpt lat="45.98232" lon="4.68455">
        <ele>213</ele>
        <time>2018-11-02T11:55:16Z</time>
      </trkpt>
      <trkpt lat="45.98232" lon="4.68468">
        <ele>213</ele>
        <time>2018-11-02T11:55:17Z</time>
      </trkpt>
      <trkpt lat="45.98231" lon="4.68482">
        <ele>213</ele>
        <time>2018-11-02T11:55:18Z</time>
      </trkpt>
      <trkpt lat="45.9823" lon="4.68494">
        <ele>213</ele>
        <time>2018-11-02T11:55:19Z</time>
      </trkpt>
      <trkpt lat="45.9823" lon="4.68508">
        <ele>211</ele>
        <time>2018-11-02T11:55:20Z</time>
      </trkpt>
      <trkpt lat="45.9823" lon="4.68522">
        <ele>210</ele>
        <time>2018-11-02T11:55:21Z</time>
      </trkpt>
      <trkpt lat="45.9823" lon="4.68537">
        <ele>210</ele>
        <time>2018-11-02T11:55:22Z</time>
      </trkpt>
      <trkpt lat="45.98229" lon="4.68551">
        <ele>210</ele>
        <time>2018-11-02T11:55:23Z</time>
      </trkpt>
      <trkpt lat="45.9823" lon="4.68566">
        <ele>210</ele>
        <time>2018-11-02T11:55:24Z</time>
      </trkpt>
      <trkpt lat="45.98232" lon="4.68581">
        <ele>210</ele>
        <time>2018-11-02T11:55:25Z</time>
      </trkpt>
      <trkpt lat="45.98233" lon="4.68596">
        <ele>209</ele>
        <time>2018-11-02T11:55:26Z</time>
      </trkpt>
      <trkpt lat="45.98234" lon="4.68612">
        <ele>209</ele>
        <time>2018-11-02T11:55:27Z</time>
      </trkpt>
      <trkpt lat="45.98235" lon="4.68629">
        <ele>208</ele>
        <time>2018-11-02T11:55:28Z</time>
      </trkpt>
      <trkpt lat="45.98232" lon="4.68644">
        <ele>208</ele>
        <time>2018-11-02T11:55:29Z</time>
      </trkpt>
      <trkpt lat="45.9823" lon="4.68658">
        <ele>209</ele>
        <time>2018-11-02T11:55:30Z</time>
      </trkpt>
      <trkpt lat="45.98227" lon="4.68672">
        <ele>207</ele>
        <time>2018-11-02T11:55:31Z</time>
      </trkpt>
      <trkpt lat="45.98224" lon="4.68686">
        <ele>207</ele>
        <time>2018-11-02T11:55:32Z</time>
      </trkpt>
      <trkpt lat="45.98221" lon="4.687">
        <ele>207</ele>
        <time>2018-11-02T11:55:33Z</time>
      </trkpt>
      <trkpt lat="45.98218" lon="4.68715">
        <ele>206</ele>
        <time>2018-11-02T11:55:34Z</time>
      </trkpt>
      <trkpt lat="45.98215" lon="4.68728">
        <ele>206</ele>
        <time>2018-11-02T11:55:35Z</time>
      </trkpt>
      <trkpt lat="45.98212" lon="4.68741">
        <ele>206</ele>
        <time>2018-11-02T11:55:36Z</time>
      </trkpt>
      <trkpt lat="45.98211" lon="4.68755">
        <ele>205</ele>
        <time>2018-11-02T11:55:37Z</time>
      </trkpt>
      <trkpt lat="45.9821" lon="4.68769">
        <ele>204</ele>
        <time>2018-11-02T11:55:38Z</time>
      </trkpt>
      <trkpt lat="45.98208" lon="4.68783">
        <ele>204</ele>
        <time>2018-11-02T11:55:39Z</time>
      </trkpt>
      <trkpt lat="45.98207" lon="4.68797">
        <ele>204</ele>
        <time>2018-11-02T11:55:40Z</time>
      </trkpt>
      <trkpt lat="45.98205" lon="4.6881">
        <ele>204</ele>
        <time>2018-11-02T11:55:41Z</time>
      </trkpt>
      <trkpt lat="45.98205" lon="4.68822">
        <ele>204</ele>
        <time>2018-11-02T11:55:42Z</time>
      </trkpt>
      <trkpt lat="45.98203" lon="4.68835">
        <ele>203</ele>
        <time>2018-11-02T11:55:43Z</time>
      </trkpt>
      <trkpt lat="45.98202" lon="4.68847">
        <ele>203</ele>
        <time>2018-11-02T11:55:44Z</time>
      </trkpt>
      <trkpt lat="45.98201" lon="4.68858">
        <ele>203</ele>
        <time>2018-11-02T11:55:45Z</time>
      </trkpt>
      <trkpt lat="45.98201" lon="4.6887">
        <ele>203</ele>
        <time>2018-11-02T11:55:46Z</time>
      </trkpt>
      <trkpt lat="45.982" lon="4.68881">
        <ele>202</ele>
        <time>2018-11-02T11:55:47Z</time>
      </trkpt>
      <trkpt lat="45.98198" lon="4.68892">
        <ele>202</ele>
        <time>2018-11-02T11:55:48Z</time>
      </trkpt>
      <trkpt lat="45.98197" lon="4.68902">
        <ele>202</ele>
        <time>2018-11-02T11:55:49Z</time>
      </trkpt>
      <trkpt lat="45.98196" lon="4.68913">
        <ele>202</ele>
        <time>2018-11-02T11:55:50Z</time>
      </trkpt>
      <trkpt lat="45.98194" lon="4.68922">
        <ele>202</ele>
        <time>2018-11-02T11:55:51Z</time>
      </trkpt>
      <trkpt lat="45.98193" lon="4.68933">
        <ele>202</ele>
        <time>2018-11-02T11:55:52Z</time>
      </trkpt>
      <trkpt lat="45.98192" lon="4.68944">
        <ele>202</ele>
        <time>2018-11-02T11:55:53Z</time>
      </trkpt>
      <trkpt lat="45.9819" lon="4.68953">
        <ele>202</ele>
        <time>2018-11-02T11:55:54Z</time>
      </trkpt>
      <trkpt lat="45.9819" lon="4.68963">
        <ele>202</ele>
        <time>2018-11-02T11:55:55Z</time>
      </trkpt>
      <trkpt lat="45.98189" lon="4.6897">
        <ele>202</ele>
        <time>2018-11-02T11:55:56Z</time>
      </trkpt>
      <trkpt lat="45.98188" lon="4.6898">
        <ele>202</ele>
        <time>2018-11-02T11:55:57Z</time>
      </trkpt>
      <trkpt lat="45.98188" lon="4.68989">
        <ele>201</ele>
        <time>2018-11-02T11:55:58Z</time>
      </trkpt>
      <trkpt lat="45.98187" lon="4.68999">
        <ele>201</ele>
        <time>2018-11-02T11:55:59Z</time>
      </trkpt>
      <trkpt lat="45.98187" lon="4.69008">
        <ele>201</ele>
        <time>2018-11-02T11:56:00Z</time>
      </trkpt>
      <trkpt lat="45.98187" lon="4.69017">
        <ele>201</ele>
        <time>2018-11-02T11:56:01Z</time>
      </trkpt>
      <trkpt lat="45.98188" lon="4.69026">
        <ele>201</ele>
        <time>2018-11-02T11:56:02Z</time>
      </trkpt>
      <trkpt lat="45.98191" lon="4.69036">
        <ele>201</ele>
        <time>2018-11-02T11:56:03Z</time>
      </trkpt>
      <trkpt lat="45.98194" lon="4.69045">
        <ele>201</ele>
        <time>2018-11-02T11:56:04Z</time>
      </trkpt>
      <trkpt lat="45.98197" lon="4.69053">
        <ele>201</ele>
        <time>2018-11-02T11:56:05Z</time>
      </trkpt>
      <trkpt lat="45.982" lon="4.69061">
        <ele>201</ele>
        <time>2018-11-02T11:56:06Z</time>
      </trkpt>
      <trkpt lat="45.98203" lon="4.6907">
        <ele>201</ele>
        <time>2018-11-02T11:56:07Z</time>
      </trkpt>
      <trkpt lat="45.98206" lon="4.69077">
        <ele>201</ele>
        <time>2018-11-02T11:56:08Z</time>
      </trkpt>
      <trkpt lat="45.98209" lon="4.69086">
        <ele>200</ele>
        <time>2018-11-02T11:56:09Z</time>
      </trkpt>
      <trkpt lat="45.98213" lon="4.69093">
        <ele>200</ele>
        <time>2018-11-02T11:56:10Z</time>
      </trkpt>
      <trkpt lat="45.98216" lon="4.69102">
        <ele>200</ele>
        <time>2018-11-02T11:56:11Z</time>
      </trkpt>
      <trkpt lat="45.98219" lon="4.69111">
        <ele>200</ele>
        <time>2018-11-02T11:56:12Z</time>
      </trkpt>
      <trkpt lat="45.98222" lon="4.69119">
        <ele>199</ele>
        <time>2018-11-02T11:56:13Z</time>
      </trkpt>
      <trkpt lat="45.98224" lon="4.69129">
        <ele>199</ele>
        <time>2018-11-02T11:56:14Z</time>
      </trkpt>
      <trkpt lat="45.98226" lon="4.69136">
        <ele>199</ele>
        <time>2018-11-02T11:56:15Z</time>
      </trkpt>
      <trkpt lat="45.98227" lon="4.69147">
        <ele>199</ele>
        <time>2018-11-02T11:56:16Z</time>
      </trkpt>
      <trkpt lat="45.98228" lon="4.69157">
        <ele>199</ele>
        <time>2018-11-02T11:56:17Z</time>
      </trkpt>
      <trkpt lat="45.98227" lon="4.69167">
        <ele>197</ele>
        <time>2018-11-02T11:56:18Z</time>
      </trkpt>
      <trkpt lat="45.98228" lon="4.69178">
        <ele>197</ele>
        <time>2018-11-02T11:56:19Z</time>
      </trkpt>
      <trkpt lat="45.98228" lon="4.69189">
        <ele>197</ele>
        <time>2018-11-02T11:56:20Z</time>
      </trkpt>
      <trkpt lat="45.98226" lon="4.69202">
        <ele>196</ele>
        <time>2018-11-02T11:56:21Z</time>
      </trkpt>
      <trkpt lat="45.98225" lon="4.69212">
        <ele>196</ele>
        <time>2018-11-02T11:56:22Z</time>
      </trkpt>
      <trkpt lat="45.98224" lon="4.69224">
        <ele>196</ele>
        <time>2018-11-02T11:56:23Z</time>
      </trkpt>
      <trkpt lat="45.98223" lon="4.69236">
        <ele>196</ele>
        <time>2018-11-02T11:56:24Z</time>
      </trkpt>
      <trkpt lat="45.98221" lon="4.69249">
        <ele>195</ele>
        <time>2018-11-02T11:56:25Z</time>
      </trkpt>
      <trkpt lat="45.98218" lon="4.69261">
        <ele>194</ele>
        <time>2018-11-02T11:56:26Z</time>
      </trkpt>
      <trkpt lat="45.98216" lon="4.69273">
        <ele>194</ele>
        <time>2018-11-02T11:56:27Z</time>
      </trkpt>
      <trkpt lat="45.98214" lon="4.69283">
        <ele>194</ele>
        <time>2018-11-02T11:56:28Z</time>
      </trkpt>
      <trkpt lat="45.98212" lon="4.69294">
        <ele>194</ele>
        <time>2018-11-02T11:56:29Z</time>
      </trkpt>
      <trkpt lat="45.9821" lon="4.69303">
        <ele>194</ele>
        <time>2018-11-02T11:56:30Z</time>
      </trkpt>
      <trkpt lat="45.98208" lon="4.69311">
        <ele>194</ele>
        <time>2018-11-02T11:56:31Z</time>
      </trkpt>
      <trkpt lat="45.98206" lon="4.69318">
        <ele>194</ele>
        <time>2018-11-02T11:56:32Z</time>
      </trkpt>
      <trkpt lat="45.98203" lon="4.69327">
        <ele>194</ele>
        <time>2018-11-02T11:56:33Z</time>
      </trkpt>
      <trkpt lat="45.98201" lon="4.69334">
        <ele>193</ele>
        <time>2018-11-02T11:56:34Z</time>
      </trkpt>
      <trkpt lat="45.982" lon="4.69342">
        <ele>193</ele>
        <time>2018-11-02T11:56:35Z</time>
      </trkpt>
      <trkpt lat="45.98199" lon="4.69349">
        <ele>193</ele>
        <time>2018-11-02T11:56:36Z</time>
      </trkpt>
      <trkpt lat="45.98198" lon="4.69357">
        <ele>193</ele>
        <time>2018-11-02T11:56:37Z</time>
      </trkpt>
      <trkpt lat="45.98197" lon="4.69364">
        <ele>193</ele>
        <time>2018-11-02T11:56:38Z</time>
      </trkpt>
      <trkpt lat="45.98194" lon="4.69372">
        <ele>193</ele>
        <time>2018-11-02T11:56:39Z</time>
      </trkpt>
      <trkpt lat="45.98192" lon="4.6938">
        <ele>194</ele>
        <time>2018-11-02T11:56:40Z</time>
      </trkpt>
      <trkpt lat="45.9819" lon="4.69387">
        <ele>194</ele>
        <time>2018-11-02T11:56:41Z</time>
      </trkpt>
      <trkpt lat="45.98188" lon="4.69395">
        <ele>194</ele>
        <time>2018-11-02T11:56:42Z</time>
      </trkpt>
      <trkpt lat="45.98186" lon="4.69403">
        <ele>194</ele>
        <time>2018-11-02T11:56:43Z</time>
      </trkpt>
      <trkpt lat="45.98184" lon="4.69411">
        <ele>194</ele>
        <time>2018-11-02T11:56:44Z</time>
      </trkpt>
      <trkpt lat="45.98181" lon="4.69419">
        <ele>194</ele>
        <time>2018-11-02T11:56:45Z</time>
      </trkpt>
      <trkpt lat="45.98179" lon="4.69427">
        <ele>194</ele>
        <time>2018-11-02T11:56:46Z</time>
      </trkpt>
      <trkpt lat="45.98178" lon="4.69433">
        <ele>194</ele>
        <time>2018-11-02T11:56:47Z</time>
      </trkpt>
      <trkpt lat="45.98176" lon="4.69441">
        <ele>194</ele>
        <time>2018-11-02T11:56:48Z</time>
      </trkpt>
      <trkpt lat="45.98175" lon="4.69447">
        <ele>194</ele>
        <time>2018-11-02T11:56:49Z</time>
      </trkpt>
      <trkpt lat="45.98171" lon="4.69458">
        <ele>194</ele>
        <time>2018-11-02T11:56:51Z</time>
      </trkpt>
      <trkpt lat="45.98169" lon="4.69464">
        <ele>194</ele>
        <time>2018-11-02T11:56:52Z</time>
      </trkpt>
      <trkpt lat="45.98166" lon="4.69469">
        <ele>195</ele>
        <time>2018-11-02T11:56:53Z</time>
      </trkpt>
      <trkpt lat="45.98163" lon="4.69474">
        <ele>195</ele>
        <time>2018-11-02T11:56:54Z</time>
      </trkpt>
      <trkpt lat="45.9816" lon="4.6948">
        <ele>195</ele>
        <time>2018-11-02T11:56:55Z</time>
      </trkpt>
      <trkpt lat="45.98159" lon="4.69487">
        <ele>195</ele>
        <time>2018-11-02T11:56:56Z</time>
      </trkpt>
      <trkpt lat="45.98158" lon="4.69494">
        <ele>195</ele>
        <time>2018-11-02T11:56:57Z</time>
      </trkpt>
      <trkpt lat="45.98156" lon="4.69502">
        <ele>196</ele>
        <time>2018-11-02T11:56:58Z</time>
      </trkpt>
      <trkpt lat="45.98154" lon="4.6951">
        <ele>196</ele>
        <time>2018-11-02T11:56:59Z</time>
      </trkpt>
      <trkpt lat="45.98153" lon="4.69517">
        <ele>196</ele>
        <time>2018-11-02T11:57:00Z</time>
      </trkpt>
      <trkpt lat="45.9815" lon="4.69525">
        <ele>196</ele>
        <time>2018-11-02T11:57:01Z</time>
      </trkpt>
      <trkpt lat="45.98149" lon="4.69532">
        <ele>196</ele>
        <time>2018-11-02T11:57:02Z</time>
      </trkpt>
      <trkpt lat="45.98146" lon="4.69539">
        <ele>197</ele>
        <time>2018-11-02T11:57:03Z</time>
      </trkpt>
      <trkpt lat="45.98144" lon="4.69546">
        <ele>197</ele>
        <time>2018-11-02T11:57:04Z</time>
      </trkpt>
      <trkpt lat="45.98143" lon="4.69553">
        <ele>197</ele>
        <time>2018-11-02T11:57:05Z</time>
      </trkpt>
      <trkpt lat="45.98141" lon="4.6956">
        <ele>197</ele>
        <time>2018-11-02T11:57:06Z</time>
      </trkpt>
      <trkpt lat="45.98139" lon="4.69568">
        <ele>197</ele>
        <time>2018-11-02T11:57:07Z</time>
      </trkpt>
      <trkpt lat="45.98138" lon="4.69573">
        <ele>197</ele>
        <time>2018-11-02T11:57:08Z</time>
      </trkpt>
      <trkpt lat="45.98137" lon="4.6958">
        <ele>197</ele>
        <time>2018-11-02T11:57:09Z</time>
      </trkpt>
      <trkpt lat="45.98136" lon="4.69586">
        <ele>198</ele>
        <time>2018-11-02T11:57:10Z</time>
      </trkpt>
      <trkpt lat="45.98133" lon="4.69592">
        <ele>198</ele>
        <time>2018-11-02T11:57:11Z</time>
      </trkpt>
      <trkpt lat="45.9813" lon="4.69597">
        <ele>198</ele>
        <time>2018-11-02T11:57:12Z</time>
      </trkpt>
      <trkpt lat="45.98128" lon="4.69607">
        <ele>198</ele>
        <time>2018-11-02T11:57:14Z</time>
      </trkpt>
      <trkpt lat="45.98126" lon="4.69614">
        <ele>198</ele>
        <time>2018-11-02T11:57:15Z</time>
      </trkpt>
      <trkpt lat="45.98122" lon="4.69624">
        <ele>199</ele>
        <time>2018-11-02T11:57:17Z</time>
      </trkpt>
      <trkpt lat="45.98121" lon="4.69628">
        <ele>199</ele>
        <time>2018-11-02T11:57:18Z</time>
      </trkpt>
      <trkpt lat="45.98118" lon="4.6964">
        <ele>199</ele>
        <time>2018-11-02T11:57:20Z</time>
      </trkpt>
      <trkpt lat="45.98115" lon="4.69645">
        <ele>199</ele>
        <time>2018-11-02T11:57:21Z</time>
      </trkpt>
      <trkpt lat="45.98112" lon="4.69656">
        <ele>199</ele>
        <time>2018-11-02T11:57:24Z</time>
      </trkpt>
      <trkpt lat="45.9811" lon="4.6966">
        <ele>199</ele>
        <time>2018-11-02T11:57:25Z</time>
      </trkpt>
      <trkpt lat="45.98106" lon="4.69672">
        <ele>200</ele>
        <time>2018-11-02T11:57:28Z</time>
      </trkpt>
      <trkpt lat="45.98105" lon="4.69675">
        <ele>200</ele>
        <time>2018-11-02T11:57:29Z</time>
      </trkpt>
      <trkpt lat="45.98101" lon="4.69682">
        <ele>200</ele>
        <time>2018-11-02T11:57:31Z</time>
      </trkpt>
      <trkpt lat="45.98098" lon="4.69687">
        <ele>200</ele>
        <time>2018-11-02T11:57:32Z</time>
      </trkpt>
      <trkpt lat="45.98094" lon="4.69693">
        <ele>200</ele>
        <time>2018-11-02T11:57:34Z</time>
      </trkpt>
      <trkpt lat="45.98091" lon="4.69697">
        <ele>200</ele>
        <time>2018-11-02T11:57:35Z</time>
      </trkpt>
      <trkpt lat="45.98087" lon="4.69704">
        <ele>201</ele>
        <time>2018-11-02T11:57:37Z</time>
      </trkpt>
      <trkpt lat="45.98086" lon="4.69708">
        <ele>201</ele>
        <time>2018-11-02T11:57:38Z</time>
      </trkpt>
      <trkpt lat="45.98082" lon="4.69715">
        <ele>202</ele>
        <time>2018-11-02T11:57:40Z</time>
      </trkpt>
      <trkpt lat="45.9808" lon="4.69718">
        <ele>202</ele>
        <time>2018-11-02T11:57:41Z</time>
      </trkpt>
      <trkpt lat="45.98075" lon="4.69725">
        <ele>202</ele>
        <time>2018-11-02T11:57:43Z</time>
      </trkpt>
      <trkpt lat="45.98073" lon="4.69729">
        <ele>202</ele>
        <time>2018-11-02T11:57:44Z</time>
      </trkpt>
      <trkpt lat="45.98069" lon="4.69736">
        <ele>202</ele>
        <time>2018-11-02T11:57:46Z</time>
      </trkpt>
      <trkpt lat="45.98067" lon="4.69738">
        <ele>203</ele>
        <time>2018-11-02T11:57:47Z</time>
      </trkpt>
      <trkpt lat="45.98061" lon="4.69747">
        <ele>203</ele>
        <time>2018-11-02T11:57:50Z</time>
      </trkpt>
      <trkpt lat="45.98059" lon="4.6975">
        <ele>205</ele>
        <time>2018-11-02T11:57:51Z</time>
      </trkpt>
      <trkpt lat="45.98055" lon="4.69757">
        <ele>205</ele>
        <time>2018-11-02T11:57:53Z</time>
      </trkpt>
      <trkpt lat="45.98052" lon="4.69761">
        <ele>205</ele>
        <time>2018-11-02T11:57:54Z</time>
      </trkpt>
      <trkpt lat="45.98046" lon="4.6977">
        <ele>205</ele>
        <time>2018-11-02T11:57:57Z</time>
      </trkpt>
      <trkpt lat="45.98045" lon="4.69773">
        <ele>206</ele>
        <time>2018-11-02T11:57:58Z</time>
      </trkpt>
      <trkpt lat="45.98039" lon="4.6978">
        <ele>206</ele>
        <time>2018-11-02T11:58:01Z</time>
      </trkpt>
      <trkpt lat="45.98036" lon="4.69783">
        <ele>206</ele>
        <time>2018-11-02T11:58:02Z</time>
      </trkpt>
      <trkpt lat="45.98029" lon="4.6979">
        <ele>206</ele>
        <time>2018-11-02T11:58:05Z</time>
      </trkpt>
      <trkpt lat="45.98026" lon="4.69792">
        <ele>206</ele>
        <time>2018-11-02T11:58:06Z</time>
      </trkpt>
      <trkpt lat="45.98021" lon="4.69797">
        <ele>206</ele>
        <time>2018-11-02T11:58:08Z</time>
      </trkpt>
      <trkpt lat="45.98019" lon="4.69799">
        <ele>206</ele>
        <time>2018-11-02T11:58:09Z</time>
      </trkpt>
      <trkpt lat="45.98013" lon="4.69806">
        <ele>207</ele>
        <time>2018-11-02T11:58:11Z</time>
      </trkpt>
      <trkpt lat="45.9801" lon="4.6981">
        <ele>207</ele>
        <time>2018-11-02T11:58:12Z</time>
      </trkpt>
      <trkpt lat="45.98008" lon="4.69814">
        <ele>207</ele>
        <time>2018-11-02T11:58:13Z</time>
      </trkpt>
      <trkpt lat="45.98002" lon="4.69819">
        <ele>207</ele>
        <time>2018-11-02T11:58:14Z</time>
      </trkpt>
      <trkpt lat="45.97995" lon="4.69824">
        <ele>207</ele>
        <time>2018-11-02T11:58:16Z</time>
      </trkpt>
      <trkpt lat="45.97991" lon="4.69827">
        <ele>207</ele>
        <time>2018-11-02T11:58:17Z</time>
      </trkpt>
      <trkpt lat="45.97985" lon="4.69835">
        <ele>208</ele>
        <time>2018-11-02T11:58:19Z</time>
      </trkpt>
      <trkpt lat="45.97983" lon="4.69837">
        <ele>208</ele>
        <time>2018-11-02T11:58:20Z</time>
      </trkpt>
      <trkpt lat="45.97978" lon="4.69845">
        <ele>209</ele>
        <time>2018-11-02T11:58:22Z</time>
      </trkpt>
      <trkpt lat="45.97975" lon="4.69851">
        <ele>209</ele>
        <time>2018-11-02T11:58:23Z</time>
      </trkpt>
      <trkpt lat="45.97972" lon="4.69855">
        <ele>209</ele>
        <time>2018-11-02T11:58:25Z</time>
      </trkpt>
      <trkpt lat="45.97966" lon="4.69859">
        <ele>209</ele>
        <time>2018-11-02T11:58:26Z</time>
      </trkpt>
      <trkpt lat="45.97961" lon="4.69866">
        <ele>209</ele>
        <time>2018-11-02T11:58:28Z</time>
      </trkpt>
      <trkpt lat="45.9796" lon="4.69869">
        <ele>209</ele>
        <time>2018-11-02T11:58:29Z</time>
      </trkpt>
      <trkpt lat="45.97954" lon="4.69877">
        <ele>209</ele>
        <time>2018-11-02T11:58:32Z</time>
      </trkpt>
      <trkpt lat="45.97952" lon="4.6988">
        <ele>209</ele>
        <time>2018-11-02T11:58:33Z</time>
      </trkpt>
      <trkpt lat="45.97948" lon="4.69886">
        <ele>209</ele>
        <time>2018-11-02T11:58:35Z</time>
      </trkpt>
      <trkpt lat="45.97946" lon="4.69889">
        <ele>210</ele>
        <time>2018-11-02T11:58:36Z</time>
      </trkpt>
      <trkpt lat="45.97939" lon="4.69898">
        <ele>210</ele>
        <time>2018-11-02T11:58:39Z</time>
      </trkpt>
      <trkpt lat="45.97936" lon="4.69901">
        <ele>210</ele>
        <time>2018-11-02T11:58:40Z</time>
      </trkpt>
      <trkpt lat="45.9793" lon="4.69909">
        <ele>210</ele>
        <time>2018-11-02T11:58:43Z</time>
      </trkpt>
      <trkpt lat="45.97928" lon="4.69911">
        <ele>210</ele>
        <time>2018-11-02T11:58:44Z</time>
      </trkpt>
      <trkpt lat="45.97923" lon="4.69917">
        <ele>212</ele>
        <time>2018-11-02T11:58:46Z</time>
      </trkpt>
      <trkpt lat="45.9792" lon="4.69919">
        <ele>212</ele>
        <time>2018-11-02T11:58:47Z</time>
      </trkpt>
      <trkpt lat="45.97914" lon="4.69927">
        <ele>212</ele>
        <time>2018-11-02T11:58:50Z</time>
      </trkpt>
      <trkpt lat="45.97912" lon="4.6993">
        <ele>212</ele>
        <time>2018-11-02T11:58:51Z</time>
      </trkpt>
      <trkpt lat="45.97906" lon="4.69938">
        <ele>213</ele>
        <time>2018-11-02T11:58:54Z</time>
      </trkpt>
      <trkpt lat="45.97904" lon="4.6994">
        <ele>213</ele>
        <time>2018-11-02T11:58:55Z</time>
      </trkpt>
      <trkpt lat="45.97898" lon="4.69947">
        <ele>214</ele>
        <time>2018-11-02T11:58:58Z</time>
      </trkpt>
      <trkpt lat="45.97896" lon="4.6995">
        <ele>214</ele>
        <time>2018-11-02T11:58:59Z</time>
      </trkpt>
      <trkpt lat="45.9789" lon="4.69956">
        <ele>214</ele>
        <time>2018-11-02T11:59:02Z</time>
      </trkpt>
      <trkpt lat="45.97888" lon="4.69958">
        <ele>214</ele>
        <time>2018-11-02T11:59:03Z</time>
      </trkpt>
      <trkpt lat="45.97881" lon="4.69965">
        <ele>214</ele>
        <time>2018-11-02T11:59:06Z</time>
      </trkpt>
      <trkpt lat="45.97879" lon="4.69967">
        <ele>215</ele>
        <time>2018-11-02T11:59:07Z</time>
      </trkpt>
      <trkpt lat="45.97872" lon="4.69974">
        <ele>215</ele>
        <time>2018-11-02T11:59:10Z</time>
      </trkpt>
      <trkpt lat="45.9787" lon="4.69976">
        <ele>215</ele>
        <time>2018-11-02T11:59:11Z</time>
      </trkpt>
      <trkpt lat="45.97863" lon="4.69983">
        <ele>215</ele>
        <time>2018-11-02T11:59:14Z</time>
      </trkpt>
      <trkpt lat="45.97861" lon="4.69985">
        <ele>215</ele>
        <time>2018-11-02T11:59:15Z</time>
      </trkpt>
      <trkpt lat="45.97854" lon="4.69993">
        <ele>216</ele>
        <time>2018-11-02T11:59:18Z</time>
      </trkpt>
      <trkpt lat="45.97852" lon="4.69995">
        <ele>216</ele>
        <time>2018-11-02T11:59:19Z</time>
      </trkpt>
      <trkpt lat="45.97845" lon="4.70002">
        <ele>217</ele>
        <time>2018-11-02T11:59:22Z</time>
      </trkpt>
      <trkpt lat="45.97843" lon="4.70004">
        <ele>217</ele>
        <time>2018-11-02T11:59:23Z</time>
      </trkpt>
      <trkpt lat="45.97837" lon="4.70011">
        <ele>217</ele>
        <time>2018-11-02T11:59:26Z</time>
      </trkpt>
      <trkpt lat="45.97835" lon="4.70013">
        <ele>217</ele>
        <time>2018-11-02T11:59:27Z</time>
      </trkpt>
      <trkpt lat="45.97829" lon="4.7002">
        <ele>218</ele>
        <time>2018-11-02T11:59:30Z</time>
      </trkpt>
      <trkpt lat="45.97828" lon="4.70023">
        <ele>218</ele>
        <time>2018-11-02T11:59:31Z</time>
      </trkpt>
      <trkpt lat="45.97823" lon="4.70032">
        <ele>218</ele>
        <time>2018-11-02T11:59:34Z</time>
      </trkpt>
      <trkpt lat="45.97822" lon="4.70036">
        <ele>219</ele>
        <time>2018-11-02T11:59:35Z</time>
      </trkpt>
      <trkpt lat="45.97818" lon="4.70046">
        <ele>219</ele>
        <time>2018-11-02T11:59:38Z</time>
      </trkpt>
      <trkpt lat="45.97817" lon="4.7005">
        <ele>219</ele>
        <time>2018-11-02T11:59:39Z</time>
      </trkpt>
      <trkpt lat="45.97816" lon="4.7006">
        <ele>219</ele>
        <time>2018-11-02T11:59:42Z</time>
      </trkpt>
      <trkpt lat="45.97816" lon="4.70064">
        <ele>219</ele>
        <time>2018-11-02T11:59:43Z</time>
      </trkpt>
      <trkpt lat="45.97817" lon="4.70073">
        <ele>219</ele>
        <time>2018-11-02T11:59:45Z</time>
      </trkpt>
      <trkpt lat="45.97817" lon="4.70078">
        <ele>219</ele>
        <time>2018-11-02T11:59:46Z</time>
      </trkpt>
      <trkpt lat="45.97817" lon="4.70087">
        <ele>220</ele>
        <time>2018-11-02T11:59:48Z</time>
      </trkpt>
      <trkpt lat="45.97816" lon="4.70092">
        <ele>220</ele>
        <time>2018-11-02T11:59:49Z</time>
      </trkpt>
      <trkpt lat="45.97816" lon="4.70101">
        <ele>221</ele>
        <time>2018-11-02T11:59:51Z</time>
      </trkpt>
      <trkpt lat="45.97816" lon="4.70112">
        <ele>221</ele>
        <time>2018-11-02T11:59:52Z</time>
      </trkpt>
      <trkpt lat="45.97817" lon="4.70123">
        <ele>221</ele>
        <time>2018-11-02T11:59:54Z</time>
      </trkpt>
      <trkpt lat="45.97817" lon="4.70129">
        <ele>221</ele>
        <time>2018-11-02T11:59:55Z</time>
      </trkpt>
      <trkpt lat="45.97817" lon="4.7014">
        <ele>221</ele>
        <time>2018-11-02T11:59:57Z</time>
      </trkpt>
      <trkpt lat="45.97817" lon="4.70146">
        <ele>221</ele>
        <time>2018-11-02T11:59:58Z</time>
      </trkpt>
      <trkpt lat="45.97817" lon="4.70157">
        <ele>221</ele>
        <time>2018-11-02T12:00:00Z</time>
      </trkpt>
      <trkpt lat="45.97816" lon="4.70163">
        <ele>221</ele>
        <time>2018-11-02T12:00:01Z</time>
      </trkpt>
      <trkpt lat="45.97815" lon="4.70174">
        <ele>222</ele>
        <time>2018-11-02T12:00:03Z</time>
      </trkpt>
      <trkpt lat="45.97815" lon="4.70179">
        <ele>222</ele>
        <time>2018-11-02T12:00:04Z</time>
      </trkpt>
      <trkpt lat="45.97815" lon="4.7019">
        <ele>223</ele>
        <time>2018-11-02T12:00:06Z</time>
      </trkpt>
      <trkpt lat="45.97815" lon="4.70196">
        <ele>223</ele>
        <time>2018-11-02T12:00:07Z</time>
      </trkpt>
      <trkpt lat="45.97814" lon="4.70208">
        <ele>223</ele>
        <time>2018-11-02T12:00:09Z</time>
      </trkpt>
      <trkpt lat="45.97814" lon="4.70214">
        <ele>223</ele>
        <time>2018-11-02T12:00:10Z</time>
      </trkpt>
      <trkpt lat="45.97814" lon="4.70227">
        <ele>223</ele>
        <time>2018-11-02T12:00:13Z</time>
      </trkpt>
      <trkpt lat="45.97814" lon="4.70231">
        <ele>223</ele>
        <time>2018-11-02T12:00:14Z</time>
      </trkpt>
      <trkpt lat="45.97814" lon="4.70236">
        <ele>223</ele>
        <time>2018-11-02T12:00:15Z</time>
      </trkpt>
      <trkpt lat="45.97814" lon="4.70244">
        <ele>223</ele>
        <time>2018-11-02T12:00:16Z</time>
      </trkpt>
      <trkpt lat="45.97814" lon="4.70255">
        <ele>223</ele>
        <time>2018-11-02T12:00:18Z</time>
      </trkpt>
      <trkpt lat="45.97814" lon="4.7026">
        <ele>223</ele>
        <time>2018-11-02T12:00:19Z</time>
      </trkpt>
      <trkpt lat="45.97815" lon="4.70271">
        <ele>223</ele>
        <time>2018-11-02T12:00:21Z</time>
      </trkpt>
      <trkpt lat="45.97815" lon="4.70277">
        <ele>223</ele>
        <time>2018-11-02T12:00:22Z</time>
      </trkpt>
      <trkpt lat="45.97814" lon="4.70287">
        <ele>223</ele>
        <time>2018-11-02T12:00:24Z</time>
      </trkpt>
      <trkpt lat="45.97814" lon="4.7029">
        <ele>223</ele>
        <time>2018-11-02T12:00:25Z</time>
      </trkpt>
      <trkpt lat="45.97814" lon="4.70303">
        <ele>223</ele>
        <time>2018-11-02T12:00:27Z</time>
      </trkpt>
      <trkpt lat="45.97814" lon="4.70309">
        <ele>223</ele>
        <time>2018-11-02T12:00:28Z</time>
      </trkpt>
      <trkpt lat="45.97813" lon="4.70321">
        <ele>223</ele>
        <time>2018-11-02T12:00:30Z</time>
      </trkpt>
      <trkpt lat="45.97812" lon="4.70327">
        <ele>223</ele>
        <time>2018-11-02T12:00:31Z</time>
      </trkpt>
      <trkpt lat="45.9781" lon="4.70338">
        <ele>222</ele>
        <time>2018-11-02T12:00:33Z</time>
      </trkpt>
      <trkpt lat="45.97808" lon="4.70344">
        <ele>222</ele>
        <time>2018-11-02T12:00:34Z</time>
      </trkpt>
      <trkpt lat="45.97807" lon="4.70356">
        <ele>222</ele>
        <time>2018-11-02T12:00:36Z</time>
      </trkpt>
      <trkpt lat="45.97804" lon="4.70364">
        <ele>222</ele>
        <time>2018-11-02T12:00:37Z</time>
      </trkpt>
      <trkpt lat="45.97804" lon="4.70371">
        <ele>222</ele>
        <time>2018-11-02T12:00:38Z</time>
      </trkpt>
      <trkpt lat="45.97803" lon="4.70378">
        <ele>222</ele>
        <time>2018-11-02T12:00:39Z</time>
      </trkpt>
      <trkpt lat="45.97802" lon="4.70386">
        <ele>222</ele>
        <time>2018-11-02T12:00:40Z</time>
      </trkpt>
      <trkpt lat="45.97802" lon="4.70392">
        <ele>222</ele>
        <time>2018-11-02T12:00:41Z</time>
      </trkpt>
      <trkpt lat="45.97802" lon="4.70404">
        <ele>222</ele>
        <time>2018-11-02T12:00:43Z</time>
      </trkpt>
      <trkpt lat="45.978" lon="4.70411">
        <ele>222</ele>
        <time>2018-11-02T12:00:44Z</time>
      </trkpt>
      <trkpt lat="45.97798" lon="4.70423">
        <ele>221</ele>
        <time>2018-11-02T12:00:46Z</time>
      </trkpt>
      <trkpt lat="45.97798" lon="4.70429">
        <ele>221</ele>
        <time>2018-11-02T12:00:47Z</time>
      </trkpt>
      <trkpt lat="45.97798" lon="4.70436">
        <ele>221</ele>
        <time>2018-11-02T12:00:48Z</time>
      </trkpt>
      <trkpt lat="45.97796" lon="4.70443">
        <ele>221</ele>
        <time>2018-11-02T12:00:49Z</time>
      </trkpt>
      <trkpt lat="45.97795" lon="4.70456">
        <ele>221</ele>
        <time>2018-11-02T12:00:51Z</time>
      </trkpt>
      <trkpt lat="45.97794" lon="4.70463">
        <ele>221</ele>
        <time>2018-11-02T12:00:52Z</time>
      </trkpt>
      <trkpt lat="45.97794" lon="4.70472">
        <ele>221</ele>
        <time>2018-11-02T12:00:53Z</time>
      </trkpt>
      <trkpt lat="45.97794" lon="4.70479">
        <ele>221</ele>
        <time>2018-11-02T12:00:54Z</time>
      </trkpt>
      <trkpt lat="45.97793" lon="4.70487">
        <ele>221</ele>
        <time>2018-11-02T12:00:55Z</time>
      </trkpt>
      <trkpt lat="45.97793" lon="4.70494">
        <ele>221</ele>
        <time>2018-11-02T12:00:56Z</time>
      </trkpt>
      <trkpt lat="45.97793" lon="4.70501">
        <ele>222</ele>
        <time>2018-11-02T12:00:57Z</time>
      </trkpt>
      <trkpt lat="45.97793" lon="4.70509">
        <ele>222</ele>
        <time>2018-11-02T12:00:58Z</time>
      </trkpt>
      <trkpt lat="45.97792" lon="4.70517">
        <ele>222</ele>
        <time>2018-11-02T12:00:59Z</time>
      </trkpt>
      <trkpt lat="45.97792" lon="4.70525">
        <ele>222</ele>
        <time>2018-11-02T12:01:00Z</time>
      </trkpt>
      <trkpt lat="45.97792" lon="4.70532">
        <ele>222</ele>
        <time>2018-11-02T12:01:01Z</time>
      </trkpt>
      <trkpt lat="45.97792" lon="4.70541">
        <ele>222</ele>
        <time>2018-11-02T12:01:02Z</time>
      </trkpt>
      <trkpt lat="45.97792" lon="4.70549">
        <ele>222</ele>
        <time>2018-11-02T12:01:03Z</time>
      </trkpt>
      <trkpt lat="45.97792" lon="4.70558">
        <ele>222</ele>
        <time>2018-11-02T12:01:04Z</time>
      </trkpt>
      <trkpt lat="45.97792" lon="4.70565">
        <ele>222</ele>
        <time>2018-11-02T12:01:05Z</time>
      </trkpt>
      <trkpt lat="45.97792" lon="4.70573">
        <ele>222</ele>
        <time>2018-11-02T12:01:06Z</time>
      </trkpt>
      <trkpt lat="45.97792" lon="4.70579">
        <ele>223</ele>
        <time>2018-11-02T12:01:07Z</time>
      </trkpt>
      <trkpt lat="45.97791" lon="4.70587">
        <ele>223</ele>
        <time>2018-11-02T12:01:08Z</time>
      </trkpt>
      <trkpt lat="45.97791" lon="4.70594">
        <ele>223</ele>
        <time>2018-11-02T12:01:09Z</time>
      </trkpt>
      <trkpt lat="45.97791" lon="4.70601">
        <ele>223</ele>
        <time>2018-11-02T12:01:10Z</time>
      </trkpt>
      <trkpt lat="45.9779" lon="4.70608">
        <ele>223</ele>
        <time>2018-11-02T12:01:11Z</time>
      </trkpt>
      <trkpt lat="45.9779" lon="4.70614">
        <ele>223</ele>
        <time>2018-11-02T12:01:12Z</time>
      </trkpt>
      <trkpt lat="45.9779" lon="4.70621">
        <ele>223</ele>
        <time>2018-11-02T12:01:13Z</time>
      </trkpt>
      <trkpt lat="45.9779" lon="4.70629">
        <ele>223</ele>
        <time>2018-11-02T12:01:14Z</time>
      </trkpt>
      <trkpt lat="45.9779" lon="4.70635">
        <ele>222</ele>
        <time>2018-11-02T12:01:15Z</time>
      </trkpt>
      <trkpt lat="45.97789" lon="4.70642">
        <ele>222</ele>
        <time>2018-11-02T12:01:16Z</time>
      </trkpt>
      <trkpt lat="45.97789" lon="4.7065">
        <ele>222</ele>
        <time>2018-11-02T12:01:17Z</time>
      </trkpt>
      <trkpt lat="45.97788" lon="4.70656">
        <ele>222</ele>
        <time>2018-11-02T12:01:18Z</time>
      </trkpt>
      <trkpt lat="45.97788" lon="4.70664">
        <ele>222</ele>
        <time>2018-11-02T12:01:19Z</time>
      </trkpt>
      <trkpt lat="45.97788" lon="4.70671">
        <ele>222</ele>
        <time>2018-11-02T12:01:20Z</time>
      </trkpt>
      <trkpt lat="45.97788" lon="4.70678">
        <ele>222</ele>
        <time>2018-11-02T12:01:21Z</time>
      </trkpt>
      <trkpt lat="45.9779" lon="4.70685">
        <ele>222</ele>
        <time>2018-11-02T12:01:22Z</time>
      </trkpt>
      <trkpt lat="45.97789" lon="4.70692">
        <ele>222</ele>
        <time>2018-11-02T12:01:23Z</time>
      </trkpt>
      <trkpt lat="45.97789" lon="4.707">
        <ele>222</ele>
        <time>2018-11-02T12:01:24Z</time>
      </trkpt>
      <trkpt lat="45.97789" lon="4.70707">
        <ele>222</ele>
        <time>2018-11-02T12:01:25Z</time>
      </trkpt>
      <trkpt lat="45.97788" lon="4.70715">
        <ele>222</ele>
        <time>2018-11-02T12:01:26Z</time>
      </trkpt>
      <trkpt lat="45.97788" lon="4.70722">
        <ele>222</ele>
        <time>2018-11-02T12:01:27Z</time>
      </trkpt>
      <trkpt lat="45.97788" lon="4.7073">
        <ele>222</ele>
        <time>2018-11-02T12:01:28Z</time>
      </trkpt>
      <trkpt lat="45.9779" lon="4.70738">
        <ele>222</ele>
        <time>2018-11-02T12:01:29Z</time>
      </trkpt>
      <trkpt lat="45.97789" lon="4.70746">
        <ele>222</ele>
        <time>2018-11-02T12:01:30Z</time>
      </trkpt>
      <trkpt lat="45.97788" lon="4.70752">
        <ele>221</ele>
        <time>2018-11-02T12:01:31Z</time>
      </trkpt>
      <trkpt lat="45.97787" lon="4.70758">
        <ele>221</ele>
        <time>2018-11-02T12:01:32Z</time>
      </trkpt>
      <trkpt lat="45.97787" lon="4.70765">
        <ele>221</ele>
        <time>2018-11-02T12:01:33Z</time>
      </trkpt>
      <trkpt lat="45.97786" lon="4.70772">
        <ele>221</ele>
        <time>2018-11-02T12:01:34Z</time>
      </trkpt>
      <trkpt lat="45.97786" lon="4.70779">
        <ele>221</ele>
        <time>2018-11-02T12:01:35Z</time>
      </trkpt>
      <trkpt lat="45.97787" lon="4.70786">
        <ele>221</ele>
        <time>2018-11-02T12:01:36Z</time>
      </trkpt>
      <trkpt lat="45.97789" lon="4.70794">
        <ele>221</ele>
        <time>2018-11-02T12:01:37Z</time>
      </trkpt>
      <trkpt lat="45.97794" lon="4.70798">
        <ele>221</ele>
        <time>2018-11-02T12:01:38Z</time>
      </trkpt>
      <trkpt lat="45.97798" lon="4.70802">
        <ele>221</ele>
        <time>2018-11-02T12:01:39Z</time>
      </trkpt>
      <trkpt lat="45.97803" lon="4.70807">
        <ele>221</ele>
        <time>2018-11-02T12:01:40Z</time>
      </trkpt>
      <trkpt lat="45.97808" lon="4.70811">
        <ele>221</ele>
        <time>2018-11-02T12:01:41Z</time>
      </trkpt>
      <trkpt lat="45.9781" lon="4.70818">
        <ele>221</ele>
        <time>2018-11-02T12:01:42Z</time>
      </trkpt>
      <trkpt lat="45.97813" lon="4.70825">
        <ele>221</ele>
        <time>2018-11-02T12:01:43Z</time>
      </trkpt>
      <trkpt lat="45.97817" lon="4.70832">
        <ele>221</ele>
        <time>2018-11-02T12:01:44Z</time>
      </trkpt>
      <trkpt lat="45.97819" lon="4.70839">
        <ele>221</ele>
        <time>2018-11-02T12:01:45Z</time>
      </trkpt>
      <trkpt lat="45.97819" lon="4.70848">
        <ele>220</ele>
        <time>2018-11-02T12:01:46Z</time>
      </trkpt>
      <trkpt lat="45.9782" lon="4.70856">
        <ele>220</ele>
        <time>2018-11-02T12:01:47Z</time>
      </trkpt>
      <trkpt lat="45.9782" lon="4.70865">
        <ele>220</ele>
        <time>2018-11-02T12:01:48Z</time>
      </trkpt>
      <trkpt lat="45.9782" lon="4.70874">
        <ele>220</ele>
        <time>2018-11-02T12:01:49Z</time>
      </trkpt>
      <trkpt lat="45.97821" lon="4.70882">
        <ele>220</ele>
        <time>2018-11-02T12:01:50Z</time>
      </trkpt>
      <trkpt lat="45.97822" lon="4.70891">
        <ele>220</ele>
        <time>2018-11-02T12:01:51Z</time>
      </trkpt>
      <trkpt lat="45.97822" lon="4.709">
        <ele>220</ele>
        <time>2018-11-02T12:01:52Z</time>
      </trkpt>
      <trkpt lat="45.97822" lon="4.70909">
        <ele>219</ele>
        <time>2018-11-02T12:01:53Z</time>
      </trkpt>
      <trkpt lat="45.97822" lon="4.70919">
        <ele>219</ele>
        <time>2018-11-02T12:01:54Z</time>
      </trkpt>
      <trkpt lat="45.97822" lon="4.70929">
        <ele>219</ele>
        <time>2018-11-02T12:01:55Z</time>
      </trkpt>
      <trkpt lat="45.97824" lon="4.70938">
        <ele>218</ele>
        <time>2018-11-02T12:01:56Z</time>
      </trkpt>
      <trkpt lat="45.97829" lon="4.70947">
        <ele>218</ele>
        <time>2018-11-02T12:01:57Z</time>
      </trkpt>
      <trkpt lat="45.97831" lon="4.70957">
        <ele>218</ele>
        <time>2018-11-02T12:01:58Z</time>
      </trkpt>
      <trkpt lat="45.97832" lon="4.70968">
        <ele>218</ele>
        <time>2018-11-02T12:01:59Z</time>
      </trkpt>
      <trkpt lat="45.97833" lon="4.70979">
        <ele>217</ele>
        <time>2018-11-02T12:02:00Z</time>
      </trkpt>
      <trkpt lat="45.97834" lon="4.7099">
        <ele>217</ele>
        <time>2018-11-02T12:02:01Z</time>
      </trkpt>
      <trkpt lat="45.97835" lon="4.71003">
        <ele>216</ele>
        <time>2018-11-02T12:02:02Z</time>
      </trkpt>
      <trkpt lat="45.97836" lon="4.71016">
        <ele>216</ele>
        <time>2018-11-02T12:02:03Z</time>
      </trkpt>
      <trkpt lat="45.97838" lon="4.71028">
        <ele>216</ele>
        <time>2018-11-02T12:02:04Z</time>
      </trkpt>
      <trkpt lat="45.97839" lon="4.7104">
        <ele>216</ele>
        <time>2018-11-02T12:02:05Z</time>
      </trkpt>
      <trkpt lat="45.9784" lon="4.71053">
        <ele>215</ele>
        <time>2018-11-02T12:02:06Z</time>
      </trkpt>
      <trkpt lat="45.97842" lon="4.71065">
        <ele>215</ele>
        <time>2018-11-02T12:02:07Z</time>
      </trkpt>
      <trkpt lat="45.97843" lon="4.71077">
        <ele>215</ele>
        <time>2018-11-02T12:02:08Z</time>
      </trkpt>
      <trkpt lat="45.97844" lon="4.71089">
        <ele>214</ele>
        <time>2018-11-02T12:02:09Z</time>
      </trkpt>
      <trkpt lat="45.97846" lon="4.71098">
        <ele>213</ele>
        <time>2018-11-02T12:02:10Z</time>
      </trkpt>
      <trkpt lat="45.97845" lon="4.71108">
        <ele>213</ele>
        <time>2018-11-02T12:02:11Z</time>
      </trkpt>
      <trkpt lat="45.97846" lon="4.71117">
        <ele>213</ele>
        <time>2018-11-02T12:02:12Z</time>
      </trkpt>
      <trkpt lat="45.97846" lon="4.71126">
        <ele>212</ele>
        <time>2018-11-02T12:02:13Z</time>
      </trkpt>
      <trkpt lat="45.97847" lon="4.71135">
        <ele>212</ele>
        <time>2018-11-02T12:02:14Z</time>
      </trkpt>
      <trkpt lat="45.97848" lon="4.71143">
        <ele>212</ele>
        <time>2018-11-02T12:02:15Z</time>
      </trkpt>
      <trkpt lat="45.97851" lon="4.71151">
        <ele>212</ele>
        <time>2018-11-02T12:02:16Z</time>
      </trkpt>
      <trkpt lat="45.97851" lon="4.7116">
        <ele>212</ele>
        <time>2018-11-02T12:02:17Z</time>
      </trkpt>
      <trkpt lat="45.97852" lon="4.71168">
        <ele>210</ele>
        <time>2018-11-02T12:02:18Z</time>
      </trkpt>
      <trkpt lat="45.97852" lon="4.71177">
        <ele>209</ele>
        <time>2018-11-02T12:02:19Z</time>
      </trkpt>
      <trkpt lat="45.97852" lon="4.71187">
        <ele>209</ele>
        <time>2018-11-02T12:02:20Z</time>
      </trkpt>
      <trkpt lat="45.97853" lon="4.71197">
        <ele>209</ele>
        <time>2018-11-02T12:02:21Z</time>
      </trkpt>
      <trkpt lat="45.97853" lon="4.71206">
        <ele>209</ele>
        <time>2018-11-02T12:02:22Z</time>
      </trkpt>
      <trkpt lat="45.97852" lon="4.71217">
        <ele>208</ele>
        <time>2018-11-02T12:02:23Z</time>
      </trkpt>
      <trkpt lat="45.97851" lon="4.71227">
        <ele>208</ele>
        <time>2018-11-02T12:02:24Z</time>
      </trkpt>
      <trkpt lat="45.97851" lon="4.71238">
        <ele>208</ele>
        <time>2018-11-02T12:02:25Z</time>
      </trkpt>
      <trkpt lat="45.97851" lon="4.71248">
        <ele>208</ele>
        <time>2018-11-02T12:02:26Z</time>
      </trkpt>
      <trkpt lat="45.97851" lon="4.71259">
        <ele>207</ele>
        <time>2018-11-02T12:02:27Z</time>
      </trkpt>
      <trkpt lat="45.97851" lon="4.7127">
        <ele>206</ele>
        <time>2018-11-02T12:02:28Z</time>
      </trkpt>
      <trkpt lat="45.9785" lon="4.71281">
        <ele>206</ele>
        <time>2018-11-02T12:02:29Z</time>
      </trkpt>
      <trkpt lat="45.9785" lon="4.71291">
        <ele>206</ele>
        <time>2018-11-02T12:02:30Z</time>
      </trkpt>
      <trkpt lat="45.9785" lon="4.71303">
        <ele>206</ele>
        <time>2018-11-02T12:02:31Z</time>
      </trkpt>
      <trkpt lat="45.9785" lon="4.71314">
        <ele>205</ele>
        <time>2018-11-02T12:02:32Z</time>
      </trkpt>
      <trkpt lat="45.97849" lon="4.71324">
        <ele>205</ele>
        <time>2018-11-02T12:02:33Z</time>
      </trkpt>
      <trkpt lat="45.97849" lon="4.71335">
        <ele>204</ele>
        <time>2018-11-02T12:02:34Z</time>
      </trkpt>
      <trkpt lat="45.97849" lon="4.71346">
        <ele>204</ele>
        <time>2018-11-02T12:02:35Z</time>
      </trkpt>
      <trkpt lat="45.97849" lon="4.71358">
        <ele>204</ele>
        <time>2018-11-02T12:02:36Z</time>
      </trkpt>
      <trkpt lat="45.9785" lon="4.71369">
        <ele>203</ele>
        <time>2018-11-02T12:02:37Z</time>
      </trkpt>
      <trkpt lat="45.9785" lon="4.7138">
        <ele>203</ele>
        <time>2018-11-02T12:02:38Z</time>
      </trkpt>
      <trkpt lat="45.97851" lon="4.7139">
        <ele>203</ele>
        <time>2018-11-02T12:02:39Z</time>
      </trkpt>
      <trkpt lat="45.97852" lon="4.71401">
        <ele>203</ele>
        <time>2018-11-02T12:02:40Z</time>
      </trkpt>
      <trkpt lat="45.97855" lon="4.71412">
        <ele>203</ele>
        <time>2018-11-02T12:02:41Z</time>
      </trkpt>
      <trkpt lat="45.97856" lon="4.71423">
        <ele>202</ele>
        <time>2018-11-02T12:02:42Z</time>
      </trkpt>
      <trkpt lat="45.97857" lon="4.71433">
        <ele>201</ele>
        <time>2018-11-02T12:02:43Z</time>
      </trkpt>
      <trkpt lat="45.97859" lon="4.71445">
        <ele>201</ele>
        <time>2018-11-02T12:02:44Z</time>
      </trkpt>
      <trkpt lat="45.97861" lon="4.71456">
        <ele>201</ele>
        <time>2018-11-02T12:02:45Z</time>
      </trkpt>
      <trkpt lat="45.97864" lon="4.71467">
        <ele>201</ele>
        <time>2018-11-02T12:02:46Z</time>
      </trkpt>
      <trkpt lat="45.97866" lon="4.71478">
        <ele>201</ele>
        <time>2018-11-02T12:02:47Z</time>
      </trkpt>
      <trkpt lat="45.97868" lon="4.71489">
        <ele>201</ele>
        <time>2018-11-02T12:02:48Z</time>
      </trkpt>
      <trkpt lat="45.9787" lon="4.715">
        <ele>201</ele>
        <time>2018-11-02T12:02:49Z</time>
      </trkpt>
      <trkpt lat="45.97872" lon="4.71511">
        <ele>199</ele>
        <time>2018-11-02T12:02:50Z</time>
      </trkpt>
      <trkpt lat="45.97873" lon="4.71522">
        <ele>199</ele>
        <time>2018-11-02T12:02:51Z</time>
      </trkpt>
      <trkpt lat="45.97875" lon="4.71534">
        <ele>199</ele>
        <time>2018-11-02T12:02:52Z</time>
      </trkpt>
      <trkpt lat="45.97876" lon="4.71544">
        <ele>199</ele>
        <time>2018-11-02T12:02:53Z</time>
      </trkpt>
      <trkpt lat="45.97877" lon="4.71555">
        <ele>199</ele>
        <time>2018-11-02T12:02:54Z</time>
      </trkpt>
      <trkpt lat="45.97878" lon="4.71565">
        <ele>198</ele>
        <time>2018-11-02T12:02:55Z</time>
      </trkpt>
      <trkpt lat="45.97879" lon="4.71576">
        <ele>198</ele>
        <time>2018-11-02T12:02:56Z</time>
      </trkpt>
      <trkpt lat="45.97879" lon="4.71588">
        <ele>197</ele>
        <time>2018-11-02T12:02:57Z</time>
      </trkpt>
      <trkpt lat="45.97879" lon="4.71598">
        <ele>197</ele>
        <time>2018-11-02T12:02:58Z</time>
      </trkpt>
      <trkpt lat="45.97879" lon="4.71609">
        <ele>197</ele>
        <time>2018-11-02T12:02:59Z</time>
      </trkpt>
      <trkpt lat="45.97879" lon="4.71621">
        <ele>197</ele>
        <time>2018-11-02T12:03:00Z</time>
      </trkpt>
      <trkpt lat="45.97879" lon="4.71631">
        <ele>197</ele>
        <time>2018-11-02T12:03:01Z</time>
      </trkpt>
      <trkpt lat="45.97879" lon="4.71639">
        <ele>197</ele>
        <time>2018-11-02T12:03:02Z</time>
      </trkpt>
      <trkpt lat="45.97878" lon="4.71649">
        <ele>197</ele>
        <time>2018-11-02T12:03:03Z</time>
      </trkpt>
      <trkpt lat="45.97876" lon="4.71659">
        <ele>197</ele>
        <time>2018-11-02T12:03:04Z</time>
      </trkpt>
      <trkpt lat="45.97873" lon="4.7167">
        <ele>196</ele>
        <time>2018-11-02T12:03:05Z</time>
      </trkpt>
      <trkpt lat="45.97871" lon="4.7168">
        <ele>196</ele>
        <time>2018-11-02T12:03:06Z</time>
      </trkpt>
      <trkpt lat="45.97868" lon="4.71689">
        <ele>196</ele>
        <time>2018-11-02T12:03:07Z</time>
      </trkpt>
      <trkpt lat="45.97867" lon="4.71699">
        <ele>196</ele>
        <time>2018-11-02T12:03:08Z</time>
      </trkpt>
      <trkpt lat="45.97865" lon="4.71708">
        <ele>196</ele>
        <time>2018-11-02T12:03:09Z</time>
      </trkpt>
      <trkpt lat="45.97862" lon="4.71717">
        <ele>196</ele>
        <time>2018-11-02T12:03:10Z</time>
      </trkpt>
      <trkpt lat="45.97859" lon="4.71725">
        <ele>196</ele>
        <time>2018-11-02T12:03:11Z</time>
      </trkpt>
      <trkpt lat="45.97855" lon="4.71732">
        <ele>196</ele>
        <time>2018-11-02T12:03:12Z</time>
      </trkpt>
      <trkpt lat="45.97852" lon="4.71738">
        <ele>196</ele>
        <time>2018-11-02T12:03:13Z</time>
      </trkpt>
      <trkpt lat="45.97848" lon="4.71743">
        <ele>195</ele>
        <time>2018-11-02T12:03:14Z</time>
      </trkpt>
      <trkpt lat="45.97842" lon="4.71746">
        <ele>195</ele>
        <time>2018-11-02T12:03:15Z</time>
      </trkpt>
      <trkpt lat="45.97838" lon="4.71747">
        <ele>195</ele>
        <time>2018-11-02T12:03:16Z</time>
      </trkpt>
      <trkpt lat="45.97833" lon="4.71748">
        <ele>195</ele>
        <time>2018-11-02T12:03:17Z</time>
      </trkpt>
      <trkpt lat="45.97827" lon="4.71747">
        <ele>195</ele>
        <time>2018-11-02T12:03:18Z</time>
      </trkpt>
      <trkpt lat="45.97821" lon="4.71746">
        <ele>196</ele>
        <time>2018-11-02T12:03:19Z</time>
      </trkpt>
      <trkpt lat="45.97816" lon="4.71745">
        <ele>196</ele>
        <time>2018-11-02T12:03:20Z</time>
      </trkpt>
      <trkpt lat="45.97811" lon="4.71743">
        <ele>196</ele>
        <time>2018-11-02T12:03:21Z</time>
      </trkpt>
      <trkpt lat="45.97806" lon="4.71743">
        <ele>196</ele>
        <time>2018-11-02T12:03:22Z</time>
      </trkpt>
      <trkpt lat="45.97801" lon="4.71742">
        <ele>196</ele>
        <time>2018-11-02T12:03:23Z</time>
      </trkpt>
      <trkpt lat="45.97796" lon="4.71742">
        <ele>196</ele>
        <time>2018-11-02T12:03:24Z</time>
      </trkpt>
      <trkpt lat="45.97791" lon="4.71742">
        <ele>196</ele>
        <time>2018-11-02T12:03:25Z</time>
      </trkpt>
      <trkpt lat="45.97785" lon="4.71742">
        <ele>196</ele>
        <time>2018-11-02T12:03:26Z</time>
      </trkpt>
      <trkpt lat="45.9778" lon="4.71741">
        <ele>196</ele>
        <time>2018-11-02T12:03:27Z</time>
      </trkpt>
      <trkpt lat="45.97775" lon="4.71741">
        <ele>196</ele>
        <time>2018-11-02T12:03:28Z</time>
      </trkpt>
      <trkpt lat="45.97769" lon="4.71738">
        <ele>196</ele>
        <time>2018-11-02T12:03:29Z</time>
      </trkpt>
      <trkpt lat="45.97763" lon="4.71736">
        <ele>196</ele>
        <time>2018-11-02T12:03:30Z</time>
      </trkpt>
      <trkpt lat="45.97757" lon="4.71737">
        <ele>196</ele>
        <time>2018-11-02T12:03:31Z</time>
      </trkpt>
      <trkpt lat="45.9775" lon="4.71738">
        <ele>196</ele>
        <time>2018-11-02T12:03:32Z</time>
      </trkpt>
      <trkpt lat="45.97743" lon="4.71738">
        <ele>196</ele>
        <time>2018-11-02T12:03:33Z</time>
      </trkpt>
      <trkpt lat="45.97737" lon="4.71737">
        <ele>196</ele>
        <time>2018-11-02T12:03:34Z</time>
      </trkpt>
      <trkpt lat="45.97731" lon="4.71735">
        <ele>196</ele>
        <time>2018-11-02T12:03:35Z</time>
      </trkpt>
      <trkpt lat="45.97726" lon="4.71736">
        <ele>196</ele>
        <time>2018-11-02T12:03:36Z</time>
      </trkpt>
      <trkpt lat="45.97719" lon="4.71735">
        <ele>196</ele>
        <time>2018-11-02T12:03:37Z</time>
      </trkpt>
      <trkpt lat="45.97714" lon="4.71734">
        <ele>196</ele>
        <time>2018-11-02T12:03:38Z</time>
      </trkpt>
      <trkpt lat="45.97709" lon="4.71733">
        <ele>196</ele>
        <time>2018-11-02T12:03:39Z</time>
      </trkpt>
      <trkpt lat="45.97703" lon="4.71733">
        <ele>196</ele>
        <time>2018-11-02T12:03:40Z</time>
      </trkpt>
      <trkpt lat="45.97697" lon="4.71732">
        <ele>196</ele>
        <time>2018-11-02T12:03:41Z</time>
      </trkpt>
      <trkpt lat="45.97691" lon="4.71732">
        <ele>196</ele>
        <time>2018-11-02T12:03:42Z</time>
      </trkpt>
      <trkpt lat="45.97685" lon="4.7173">
        <ele>196</ele>
        <time>2018-11-02T12:03:43Z</time>
      </trkpt>
      <trkpt lat="45.97677" lon="4.7173">
        <ele>196</ele>
        <time>2018-11-02T12:03:44Z</time>
      </trkpt>
      <trkpt lat="45.97671" lon="4.71729">
        <ele>196</ele>
        <time>2018-11-02T12:03:45Z</time>
      </trkpt>
      <trkpt lat="45.97664" lon="4.71728">
        <ele>196</ele>
        <time>2018-11-02T12:03:46Z</time>
      </trkpt>
      <trkpt lat="45.97657" lon="4.71729">
        <ele>196</ele>
        <time>2018-11-02T12:03:47Z</time>
      </trkpt>
      <trkpt lat="45.97651" lon="4.71727">
        <ele>196</ele>
        <time>2018-11-02T12:03:48Z</time>
      </trkpt>
      <trkpt lat="45.97643" lon="4.71727">
        <ele>196</ele>
        <time>2018-11-02T12:03:49Z</time>
      </trkpt>
      <trkpt lat="45.97637" lon="4.71724">
        <ele>196</ele>
        <time>2018-11-02T12:03:50Z</time>
      </trkpt>
      <trkpt lat="45.97632" lon="4.71721">
        <ele>197</ele>
        <time>2018-11-02T12:03:51Z</time>
      </trkpt>
      <trkpt lat="45.97627" lon="4.71717">
        <ele>197</ele>
        <time>2018-11-02T12:03:52Z</time>
      </trkpt>
      <trkpt lat="45.97622" lon="4.71713">
        <ele>197</ele>
        <time>2018-11-02T12:03:53Z</time>
      </trkpt>
      <trkpt lat="45.97616" lon="4.71713">
        <ele>197</ele>
        <time>2018-11-02T12:03:54Z</time>
      </trkpt>
      <trkpt lat="45.9761" lon="4.71714">
        <ele>197</ele>
        <time>2018-11-02T12:03:55Z</time>
      </trkpt>
      <trkpt lat="45.97603" lon="4.71716">
        <ele>197</ele>
        <time>2018-11-02T12:03:56Z</time>
      </trkpt>
      <trkpt lat="45.97596" lon="4.71718">
        <ele>197</ele>
        <time>2018-11-02T12:03:57Z</time>
      </trkpt>
      <trkpt lat="45.97589" lon="4.7172">
        <ele>197</ele>
        <time>2018-11-02T12:03:58Z</time>
      </trkpt>
      <trkpt lat="45.97583" lon="4.71721">
        <ele>197</ele>
        <time>2018-11-02T12:03:59Z</time>
      </trkpt>
      <trkpt lat="45.97576" lon="4.7172">
        <ele>198</ele>
        <time>2018-11-02T12:04:00Z</time>
      </trkpt>
      <trkpt lat="45.97569" lon="4.71718">
        <ele>198</ele>
        <time>2018-11-02T12:04:01Z</time>
      </trkpt>
      <trkpt lat="45.97563" lon="4.71715">
        <ele>198</ele>
        <time>2018-11-02T12:04:02Z</time>
      </trkpt>
      <trkpt lat="45.97555" lon="4.71715">
        <ele>198</ele>
        <time>2018-11-02T12:04:03Z</time>
      </trkpt>
      <trkpt lat="45.97549" lon="4.71715">
        <ele>198</ele>
        <time>2018-11-02T12:04:04Z</time>
      </trkpt>
      <trkpt lat="45.97543" lon="4.71715">
        <ele>198</ele>
        <time>2018-11-02T12:04:05Z</time>
      </trkpt>
      <trkpt lat="45.97537" lon="4.71713">
        <ele>198</ele>
        <time>2018-11-02T12:04:06Z</time>
      </trkpt>
      <trkpt lat="45.97531" lon="4.71712">
        <ele>198</ele>
        <time>2018-11-02T12:04:07Z</time>
      </trkpt>
      <trkpt lat="45.97524" lon="4.71713">
        <ele>198</ele>
        <time>2018-11-02T12:04:08Z</time>
      </trkpt>
      <trkpt lat="45.97516" lon="4.7171">
        <ele>199</ele>
        <time>2018-11-02T12:04:10Z</time>
      </trkpt>
      <trkpt lat="45.9751" lon="4.71709">
        <ele>199</ele>
        <time>2018-11-02T12:04:11Z</time>
      </trkpt>
      <trkpt lat="45.97505" lon="4.7171">
        <ele>199</ele>
        <time>2018-11-02T12:04:12Z</time>
      </trkpt>
      <trkpt lat="45.975" lon="4.7171">
        <ele>198</ele>
        <time>2018-11-02T12:04:13Z</time>
      </trkpt>
      <trkpt lat="45.97494" lon="4.71711">
        <ele>198</ele>
        <time>2018-11-02T12:04:14Z</time>
      </trkpt>
      <trkpt lat="45.97487" lon="4.71713">
        <ele>198</ele>
        <time>2018-11-02T12:04:15Z</time>
      </trkpt>
      <trkpt lat="45.97482" lon="4.71713">
        <ele>198</ele>
        <time>2018-11-02T12:04:16Z</time>
      </trkpt>
      <trkpt lat="45.97477" lon="4.71711">
        <ele>198</ele>
        <time>2018-11-02T12:04:17Z</time>
      </trkpt>
      <trkpt lat="45.9747" lon="4.71708">
        <ele>198</ele>
        <time>2018-11-02T12:04:19Z</time>
      </trkpt>
      <trkpt lat="45.97464" lon="4.71708">
        <ele>197</ele>
        <time>2018-11-02T12:04:20Z</time>
      </trkpt>
      <trkpt lat="45.97458" lon="4.71707">
        <ele>197</ele>
        <time>2018-11-02T12:04:21Z</time>
      </trkpt>
      <trkpt lat="45.97451" lon="4.71708">
        <ele>197</ele>
        <time>2018-11-02T12:04:22Z</time>
      </trkpt>
      <trkpt lat="45.97445" lon="4.71708">
        <ele>197</ele>
        <time>2018-11-02T12:04:23Z</time>
      </trkpt>
      <trkpt lat="45.97438" lon="4.7171">
        <ele>197</ele>
        <time>2018-11-02T12:04:24Z</time>
      </trkpt>
      <trkpt lat="45.97432" lon="4.71709">
        <ele>197</ele>
        <time>2018-11-02T12:04:25Z</time>
      </trkpt>
      <trkpt lat="45.97425" lon="4.7171">
        <ele>196</ele>
        <time>2018-11-02T12:04:26Z</time>
      </trkpt>
      <trkpt lat="45.97419" lon="4.71709">
        <ele>196</ele>
        <time>2018-11-02T12:04:27Z</time>
      </trkpt>
      <trkpt lat="45.97413" lon="4.71709">
        <ele>195</ele>
        <time>2018-11-02T12:04:28Z</time>
      </trkpt>
      <trkpt lat="45.97408" lon="4.71708">
        <ele>195</ele>
        <time>2018-11-02T12:04:29Z</time>
      </trkpt>
      <trkpt lat="45.97402" lon="4.71708">
        <ele>195</ele>
        <time>2018-11-02T12:04:30Z</time>
      </trkpt>
      <trkpt lat="45.97396" lon="4.71707">
        <ele>195</ele>
        <time>2018-11-02T12:04:31Z</time>
      </trkpt>
      <trkpt lat="45.9739" lon="4.71707">
        <ele>195</ele>
        <time>2018-11-02T12:04:32Z</time>
      </trkpt>
      <trkpt lat="45.97384" lon="4.71707">
        <ele>195</ele>
        <time>2018-11-02T12:04:33Z</time>
      </trkpt>
      <trkpt lat="45.97378" lon="4.71707">
        <ele>195</ele>
        <time>2018-11-02T12:04:34Z</time>
      </trkpt>
      <trkpt lat="45.97372" lon="4.71706">
        <ele>195</ele>
        <time>2018-11-02T12:04:35Z</time>
      </trkpt>
      <trkpt lat="45.97367" lon="4.71705">
        <ele>195</ele>
        <time>2018-11-02T12:04:36Z</time>
      </trkpt>
      <trkpt lat="45.97361" lon="4.71704">
        <ele>195</ele>
        <time>2018-11-02T12:04:37Z</time>
      </trkpt>
      <trkpt lat="45.97355" lon="4.71705">
        <ele>195</ele>
        <time>2018-11-02T12:04:38Z</time>
      </trkpt>
      <trkpt lat="45.97349" lon="4.71705">
        <ele>195</ele>
        <time>2018-11-02T12:04:39Z</time>
      </trkpt>
      <trkpt lat="45.97344" lon="4.71705">
        <ele>195</ele>
        <time>2018-11-02T12:04:40Z</time>
      </trkpt>
      <trkpt lat="45.97338" lon="4.71704">
        <ele>195</ele>
        <time>2018-11-02T12:04:41Z</time>
      </trkpt>
      <trkpt lat="45.97333" lon="4.71702">
        <ele>196</ele>
        <time>2018-11-02T12:04:42Z</time>
      </trkpt>
      <trkpt lat="45.97327" lon="4.717">
        <ele>196</ele>
        <time>2018-11-02T12:04:45Z</time>
      </trkpt>
      <trkpt lat="45.97324" lon="4.71699">
        <ele>196</ele>
        <time>2018-11-02T12:04:46Z</time>
      </trkpt>
      <trkpt lat="45.9732" lon="4.71694">
        <ele>196</ele>
        <time>2018-11-02T12:04:48Z</time>
      </trkpt>
      <trkpt lat="45.97314" lon="4.71688">
        <ele>196</ele>
        <time>2018-11-02T12:04:49Z</time>
      </trkpt>
      <trkpt lat="45.9731" lon="4.71687">
        <ele>197</ele>
        <time>2018-11-02T12:04:50Z</time>
      </trkpt>
      <trkpt lat="45.97305" lon="4.71689">
        <ele>197</ele>
        <time>2018-11-02T12:04:51Z</time>
      </trkpt>
      <trkpt lat="45.97301" lon="4.71691">
        <ele>197</ele>
        <time>2018-11-02T12:04:52Z</time>
      </trkpt>
      <trkpt lat="45.97296" lon="4.71693">
        <ele>197</ele>
        <time>2018-11-02T12:04:53Z</time>
      </trkpt>
      <trkpt lat="45.97291" lon="4.71697">
        <ele>196</ele>
        <time>2018-11-02T12:04:54Z</time>
      </trkpt>
      <trkpt lat="45.97286" lon="4.71699">
        <ele>196</ele>
        <time>2018-11-02T12:04:55Z</time>
      </trkpt>
      <trkpt lat="45.97282" lon="4.71701">
        <ele>197</ele>
        <time>2018-11-02T12:04:56Z</time>
      </trkpt>
      <trkpt lat="45.97277" lon="4.71701">
        <ele>197</ele>
        <time>2018-11-02T12:04:57Z</time>
      </trkpt>
      <trkpt lat="45.97272" lon="4.717">
        <ele>197</ele>
        <time>2018-11-02T12:04:58Z</time>
      </trkpt>
      <trkpt lat="45.97267" lon="4.71699">
        <ele>197</ele>
        <time>2018-11-02T12:04:59Z</time>
      </trkpt>
      <trkpt lat="45.97262" lon="4.71699">
        <ele>197</ele>
        <time>2018-11-02T12:05:00Z</time>
      </trkpt>
      <trkpt lat="45.97257" lon="4.71698">
        <ele>197</ele>
        <time>2018-11-02T12:05:01Z</time>
      </trkpt>
      <trkpt lat="45.97252" lon="4.71697">
        <ele>197</ele>
        <time>2018-11-02T12:05:02Z</time>
      </trkpt>
      <trkpt lat="45.97247" lon="4.71696">
        <ele>197</ele>
        <time>2018-11-02T12:05:03Z</time>
      </trkpt>
      <trkpt lat="45.97241" lon="4.71695">
        <ele>197</ele>
        <time>2018-11-02T12:05:04Z</time>
      </trkpt>
      <trkpt lat="45.97235" lon="4.71693">
        <ele>197</ele>
        <time>2018-11-02T12:05:05Z</time>
      </trkpt>
      <trkpt lat="45.97229" lon="4.71693">
        <ele>197</ele>
        <time>2018-11-02T12:05:06Z</time>
      </trkpt>
      <trkpt lat="45.97223" lon="4.71692">
        <ele>197</ele>
        <time>2018-11-02T12:05:07Z</time>
      </trkpt>
      <trkpt lat="45.97216" lon="4.71691">
        <ele>197</ele>
        <time>2018-11-02T12:05:08Z</time>
      </trkpt>
      <trkpt lat="45.97209" lon="4.7169">
        <ele>197</ele>
        <time>2018-11-02T12:05:09Z</time>
      </trkpt>
      <trkpt lat="45.97202" lon="4.71688">
        <ele>197</ele>
        <time>2018-11-02T12:05:10Z</time>
      </trkpt>
      <trkpt lat="45.97195" lon="4.71687">
        <ele>197</ele>
        <time>2018-11-02T12:05:11Z</time>
      </trkpt>
      <trkpt lat="45.97189" lon="4.71685">
        <ele>197</ele>
        <time>2018-11-02T12:05:12Z</time>
      </trkpt>
      <trkpt lat="45.97182" lon="4.71683">
        <ele>197</ele>
        <time>2018-11-02T12:05:13Z</time>
      </trkpt>
      <trkpt lat="45.97175" lon="4.71683">
        <ele>197</ele>
        <time>2018-11-02T12:05:14Z</time>
      </trkpt>
      <trkpt lat="45.97168" lon="4.71682">
        <ele>197</ele>
        <time>2018-11-02T12:05:15Z</time>
      </trkpt>
      <trkpt lat="45.9716" lon="4.71683">
        <ele>196</ele>
        <time>2018-11-02T12:05:16Z</time>
      </trkpt>
      <trkpt lat="45.97153" lon="4.71683">
        <ele>196</ele>
        <time>2018-11-02T12:05:17Z</time>
      </trkpt>
      <trkpt lat="45.97147" lon="4.71682">
        <ele>195</ele>
        <time>2018-11-02T12:05:18Z</time>
      </trkpt>
      <trkpt lat="45.97141" lon="4.71682">
        <ele>195</ele>
        <time>2018-11-02T12:05:19Z</time>
      </trkpt>
      <trkpt lat="45.97134" lon="4.71682">
        <ele>195</ele>
        <time>2018-11-02T12:05:20Z</time>
      </trkpt>
      <trkpt lat="45.97128" lon="4.71682">
        <ele>195</ele>
        <time>2018-11-02T12:05:21Z</time>
      </trkpt>
      <trkpt lat="45.97123" lon="4.71682">
        <ele>195</ele>
        <time>2018-11-02T12:05:22Z</time>
      </trkpt>
      <trkpt lat="45.97116" lon="4.71681">
        <ele>195</ele>
        <time>2018-11-02T12:05:23Z</time>
      </trkpt>
      <trkpt lat="45.97109" lon="4.71681">
        <ele>194</ele>
        <time>2018-11-02T12:05:24Z</time>
      </trkpt>
      <trkpt lat="45.97102" lon="4.71681">
        <ele>194</ele>
        <time>2018-11-02T12:05:25Z</time>
      </trkpt>
      <trkpt lat="45.97095" lon="4.7168">
        <ele>194</ele>
        <time>2018-11-02T12:05:26Z</time>
      </trkpt>
      <trkpt lat="45.97088" lon="4.7168">
        <ele>194</ele>
        <time>2018-11-02T12:05:27Z</time>
      </trkpt>
      <trkpt lat="45.9708" lon="4.7168">
        <ele>194</ele>
        <time>2018-11-02T12:05:28Z</time>
      </trkpt>
      <trkpt lat="45.97072" lon="4.71678">
        <ele>194</ele>
        <time>2018-11-02T12:05:29Z</time>
      </trkpt>
      <trkpt lat="45.97064" lon="4.71679">
        <ele>193</ele>
        <time>2018-11-02T12:05:30Z</time>
      </trkpt>
      <trkpt lat="45.97057" lon="4.71678">
        <ele>193</ele>
        <time>2018-11-02T12:05:31Z</time>
      </trkpt>
      <trkpt lat="45.97048" lon="4.71676">
        <ele>193</ele>
        <time>2018-11-02T12:05:32Z</time>
      </trkpt>
      <trkpt lat="45.97039" lon="4.71676">
        <ele>193</ele>
        <time>2018-11-02T12:05:33Z</time>
      </trkpt>
      <trkpt lat="45.9703" lon="4.71675">
        <ele>193</ele>
        <time>2018-11-02T12:05:34Z</time>
      </trkpt>
      <trkpt lat="45.97022" lon="4.71675">
        <ele>193</ele>
        <time>2018-11-02T12:05:35Z</time>
      </trkpt>
      <trkpt lat="45.97014" lon="4.71674">
        <ele>193</ele>
        <time>2018-11-02T12:05:36Z</time>
      </trkpt>
      <trkpt lat="45.97007" lon="4.71673">
        <ele>193</ele>
        <time>2018-11-02T12:05:37Z</time>
      </trkpt>
      <trkpt lat="45.96999" lon="4.71674">
        <ele>193</ele>
        <time>2018-11-02T12:05:38Z</time>
      </trkpt>
      <trkpt lat="45.9699" lon="4.71673">
        <ele>193</ele>
        <time>2018-11-02T12:05:39Z</time>
      </trkpt>
      <trkpt lat="45.96982" lon="4.71673">
        <ele>192</ele>
        <time>2018-11-02T12:05:40Z</time>
      </trkpt>
      <trkpt lat="45.96975" lon="4.71673">
        <ele>192</ele>
        <time>2018-11-02T12:05:41Z</time>
      </trkpt>
      <trkpt lat="45.96969" lon="4.71672">
        <ele>192</ele>
        <time>2018-11-02T12:05:42Z</time>
      </trkpt>
      <trkpt lat="45.96961" lon="4.71672">
        <ele>192</ele>
        <time>2018-11-02T12:05:43Z</time>
      </trkpt>
      <trkpt lat="45.96952" lon="4.71671">
        <ele>192</ele>
        <time>2018-11-02T12:05:44Z</time>
      </trkpt>
      <trkpt lat="45.96945" lon="4.71669">
        <ele>192</ele>
        <time>2018-11-02T12:05:45Z</time>
      </trkpt>
      <trkpt lat="45.96937" lon="4.7167">
        <ele>193</ele>
        <time>2018-11-02T12:05:46Z</time>
      </trkpt>
      <trkpt lat="45.9693" lon="4.71669">
        <ele>193</ele>
        <time>2018-11-02T12:05:47Z</time>
      </trkpt>
      <trkpt lat="45.96922" lon="4.71669">
        <ele>194</ele>
        <time>2018-11-02T12:05:48Z</time>
      </trkpt>
      <trkpt lat="45.96916" lon="4.71669">
        <ele>194</ele>
        <time>2018-11-02T12:05:49Z</time>
      </trkpt>
      <trkpt lat="45.96908" lon="4.71668">
        <ele>193</ele>
        <time>2018-11-02T12:05:50Z</time>
      </trkpt>
      <trkpt lat="45.96901" lon="4.71667">
        <ele>192</ele>
        <time>2018-11-02T12:05:51Z</time>
      </trkpt>
      <trkpt lat="45.96893" lon="4.71667">
        <ele>191</ele>
        <time>2018-11-02T12:05:52Z</time>
      </trkpt>
      <trkpt lat="45.96886" lon="4.71666">
        <ele>195</ele>
        <time>2018-11-02T12:05:53Z</time>
      </trkpt>
      <trkpt lat="45.96879" lon="4.71665">
        <ele>195</ele>
        <time>2018-11-02T12:05:54Z</time>
      </trkpt>
      <trkpt lat="45.96872" lon="4.71664">
        <ele>195</ele>
        <time>2018-11-02T12:05:55Z</time>
      </trkpt>
      <trkpt lat="45.96864" lon="4.71663">
        <ele>195</ele>
        <time>2018-11-02T12:05:56Z</time>
      </trkpt>
      <trkpt lat="45.96857" lon="4.71662">
        <ele>194</ele>
        <time>2018-11-02T12:05:57Z</time>
      </trkpt>
      <trkpt lat="45.96849" lon="4.7166">
        <ele>194</ele>
        <time>2018-11-02T12:05:58Z</time>
      </trkpt>
      <trkpt lat="45.9684" lon="4.7166">
        <ele>193</ele>
        <time>2018-11-02T12:05:59Z</time>
      </trkpt>
      <trkpt lat="45.96833" lon="4.71659">
        <ele>192</ele>
        <time>2018-11-02T12:06:00Z</time>
      </trkpt>
      <trkpt lat="45.96825" lon="4.71657">
        <ele>193</ele>
        <time>2018-11-02T12:06:01Z</time>
      </trkpt>
      <trkpt lat="45.96816" lon="4.71655">
        <ele>193</ele>
        <time>2018-11-02T12:06:02Z</time>
      </trkpt>
      <trkpt lat="45.96807" lon="4.71653">
        <ele>193</ele>
        <time>2018-11-02T12:06:03Z</time>
      </trkpt>
      <trkpt lat="45.96799" lon="4.71653">
        <ele>193</ele>
        <time>2018-11-02T12:06:04Z</time>
      </trkpt>
      <trkpt lat="45.9679" lon="4.71652">
        <ele>192</ele>
        <time>2018-11-02T12:06:05Z</time>
      </trkpt>
      <trkpt lat="45.96782" lon="4.71652">
        <ele>192</ele>
        <time>2018-11-02T12:06:06Z</time>
      </trkpt>
      <trkpt lat="45.96774" lon="4.71651">
        <ele>192</ele>
        <time>2018-11-02T12:06:07Z</time>
      </trkpt>
      <trkpt lat="45.96766" lon="4.71649">
        <ele>192</ele>
        <time>2018-11-02T12:06:08Z</time>
      </trkpt>
      <trkpt lat="45.96758" lon="4.71648">
        <ele>191</ele>
        <time>2018-11-02T12:06:09Z</time>
      </trkpt>
      <trkpt lat="45.9675" lon="4.71646">
        <ele>190</ele>
        <time>2018-11-02T12:06:10Z</time>
      </trkpt>
      <trkpt lat="45.96742" lon="4.71645">
        <ele>190</ele>
        <time>2018-11-02T12:06:11Z</time>
      </trkpt>
      <trkpt lat="45.96734" lon="4.71645">
        <ele>190</ele>
        <time>2018-11-02T12:06:12Z</time>
      </trkpt>
      <trkpt lat="45.96726" lon="4.71643">
        <ele>190</ele>
        <time>2018-11-02T12:06:13Z</time>
      </trkpt>
      <trkpt lat="45.96719" lon="4.71642">
        <ele>190</ele>
        <time>2018-11-02T12:06:14Z</time>
      </trkpt>
      <trkpt lat="45.96711" lon="4.71641">
        <ele>190</ele>
        <time>2018-11-02T12:06:15Z</time>
      </trkpt>
      <trkpt lat="45.96703" lon="4.71639">
        <ele>190</ele>
        <time>2018-11-02T12:06:16Z</time>
      </trkpt>
      <trkpt lat="45.96695" lon="4.71638">
        <ele>190</ele>
        <time>2018-11-02T12:06:17Z</time>
      </trkpt>
      <trkpt lat="45.96688" lon="4.71637">
        <ele>190</ele>
        <time>2018-11-02T12:06:18Z</time>
      </trkpt>
      <trkpt lat="45.96681" lon="4.71636">
        <ele>190</ele>
        <time>2018-11-02T12:06:19Z</time>
      </trkpt>
      <trkpt lat="45.96674" lon="4.71634">
        <ele>190</ele>
        <time>2018-11-02T12:06:20Z</time>
      </trkpt>
      <trkpt lat="45.96667" lon="4.71633">
        <ele>188</ele>
        <time>2018-11-02T12:06:21Z</time>
      </trkpt>
      <trkpt lat="45.96659" lon="4.71632">
        <ele>188</ele>
        <time>2018-11-02T12:06:22Z</time>
      </trkpt>
      <trkpt lat="45.96651" lon="4.7163">
        <ele>188</ele>
        <time>2018-11-02T12:06:23Z</time>
      </trkpt>
      <trkpt lat="45.96644" lon="4.71629">
        <ele>188</ele>
        <time>2018-11-02T12:06:24Z</time>
      </trkpt>
      <trkpt lat="45.96637" lon="4.71628">
        <ele>188</ele>
        <time>2018-11-02T12:06:25Z</time>
      </trkpt>
      <trkpt lat="45.96629" lon="4.71628">
        <ele>188</ele>
        <time>2018-11-02T12:06:26Z</time>
      </trkpt>
      <trkpt lat="45.96622" lon="4.71626">
        <ele>188</ele>
        <time>2018-11-02T12:06:27Z</time>
      </trkpt>
      <trkpt lat="45.96615" lon="4.71625">
        <ele>188</ele>
        <time>2018-11-02T12:06:28Z</time>
      </trkpt>
      <trkpt lat="45.96608" lon="4.71625">
        <ele>187</ele>
        <time>2018-11-02T12:06:29Z</time>
      </trkpt>
      <trkpt lat="45.96601" lon="4.71624">
        <ele>187</ele>
        <time>2018-11-02T12:06:30Z</time>
      </trkpt>
      <trkpt lat="45.96593" lon="4.71623">
        <ele>187</ele>
        <time>2018-11-02T12:06:31Z</time>
      </trkpt>
      <trkpt lat="45.96586" lon="4.71622">
        <ele>187</ele>
        <time>2018-11-02T12:06:32Z</time>
      </trkpt>
      <trkpt lat="45.96579" lon="4.71621">
        <ele>185</ele>
        <time>2018-11-02T12:06:33Z</time>
      </trkpt>
      <trkpt lat="45.96571" lon="4.7162">
        <ele>185</ele>
        <time>2018-11-02T12:06:34Z</time>
      </trkpt>
      <trkpt lat="45.96565" lon="4.71618">
        <ele>185</ele>
        <time>2018-11-02T12:06:35Z</time>
      </trkpt>
      <trkpt lat="45.96558" lon="4.71616">
        <ele>185</ele>
        <time>2018-11-02T12:06:36Z</time>
      </trkpt>
      <trkpt lat="45.96551" lon="4.71613">
        <ele>185</ele>
        <time>2018-11-02T12:06:37Z</time>
      </trkpt>
      <trkpt lat="45.96544" lon="4.71608">
        <ele>185</ele>
        <time>2018-11-02T12:06:38Z</time>
      </trkpt>
      <trkpt lat="45.96537" lon="4.71606">
        <ele>185</ele>
        <time>2018-11-02T12:06:39Z</time>
      </trkpt>
      <trkpt lat="45.9653" lon="4.71605">
        <ele>185</ele>
        <time>2018-11-02T12:06:40Z</time>
      </trkpt>
      <trkpt lat="45.96523" lon="4.71605">
        <ele>185</ele>
        <time>2018-11-02T12:06:41Z</time>
      </trkpt>
      <trkpt lat="45.96515" lon="4.71607">
        <ele>184</ele>
        <time>2018-11-02T12:06:42Z</time>
      </trkpt>
      <trkpt lat="45.96507" lon="4.71609">
        <ele>184</ele>
        <time>2018-11-02T12:06:43Z</time>
      </trkpt>
      <trkpt lat="45.96499" lon="4.71609">
        <ele>183</ele>
        <time>2018-11-02T12:06:44Z</time>
      </trkpt>
      <trkpt lat="45.96492" lon="4.71608">
        <ele>183</ele>
        <time>2018-11-02T12:06:45Z</time>
      </trkpt>
      <trkpt lat="45.96484" lon="4.71606">
        <ele>183</ele>
        <time>2018-11-02T12:06:46Z</time>
      </trkpt>
      <trkpt lat="45.96476" lon="4.71606">
        <ele>183</ele>
        <time>2018-11-02T12:06:47Z</time>
      </trkpt>
      <trkpt lat="45.96466" lon="4.71605">
        <ele>183</ele>
        <time>2018-11-02T12:06:48Z</time>
      </trkpt>
      <trkpt lat="45.96458" lon="4.71602">
        <ele>183</ele>
        <time>2018-11-02T12:06:49Z</time>
      </trkpt>
      <trkpt lat="45.96449" lon="4.716">
        <ele>183</ele>
        <time>2018-11-02T12:06:50Z</time>
      </trkpt>
      <trkpt lat="45.96442" lon="4.71599">
        <ele>183</ele>
        <time>2018-11-02T12:06:51Z</time>
      </trkpt>
      <trkpt lat="45.96433" lon="4.71599">
        <ele>184</ele>
        <time>2018-11-02T12:06:52Z</time>
      </trkpt>
      <trkpt lat="45.96425" lon="4.71597">
        <ele>184</ele>
        <time>2018-11-02T12:06:53Z</time>
      </trkpt>
      <trkpt lat="45.96417" lon="4.71596">
        <ele>184</ele>
        <time>2018-11-02T12:06:54Z</time>
      </trkpt>
      <trkpt lat="45.96409" lon="4.71595">
        <ele>183</ele>
        <time>2018-11-02T12:06:55Z</time>
      </trkpt>
      <trkpt lat="45.96401" lon="4.71594">
        <ele>183</ele>
        <time>2018-11-02T12:06:56Z</time>
      </trkpt>
      <trkpt lat="45.96393" lon="4.71593">
        <ele>183</ele>
        <time>2018-11-02T12:06:57Z</time>
      </trkpt>
      <trkpt lat="45.96385" lon="4.71591">
        <ele>183</ele>
        <time>2018-11-02T12:06:58Z</time>
      </trkpt>
      <trkpt lat="45.96377" lon="4.7159">
        <ele>182</ele>
        <time>2018-11-02T12:06:59Z</time>
      </trkpt>
      <trkpt lat="45.96371" lon="4.71588">
        <ele>182</ele>
        <time>2018-11-02T12:07:00Z</time>
      </trkpt>
      <trkpt lat="45.96363" lon="4.71586">
        <ele>182</ele>
        <time>2018-11-02T12:07:01Z</time>
      </trkpt>
      <trkpt lat="45.96356" lon="4.71584">
        <ele>182</ele>
        <time>2018-11-02T12:07:02Z</time>
      </trkpt>
      <trkpt lat="45.96349" lon="4.71583">
        <ele>185</ele>
        <time>2018-11-02T12:07:03Z</time>
      </trkpt>
      <trkpt lat="45.96341" lon="4.71582">
        <ele>184</ele>
        <time>2018-11-02T12:07:04Z</time>
      </trkpt>
      <trkpt lat="45.96333" lon="4.7158">
        <ele>183</ele>
        <time>2018-11-02T12:07:05Z</time>
      </trkpt>
      <trkpt lat="45.96328" lon="4.7158">
        <ele>184</ele>
        <time>2018-11-02T12:07:06Z</time>
      </trkpt>
      <trkpt lat="45.96321" lon="4.71578">
        <ele>184</ele>
        <time>2018-11-02T12:07:07Z</time>
      </trkpt>
      <trkpt lat="45.96314" lon="4.71577">
        <ele>184</ele>
        <time>2018-11-02T12:07:08Z</time>
      </trkpt>
      <trkpt lat="45.96307" lon="4.71576">
        <ele>184</ele>
        <time>2018-11-02T12:07:09Z</time>
      </trkpt>
      <trkpt lat="45.963" lon="4.71574">
        <ele>184</ele>
        <time>2018-11-02T12:07:10Z</time>
      </trkpt>
      <trkpt lat="45.96292" lon="4.71572">
        <ele>184</ele>
        <time>2018-11-02T12:07:11Z</time>
      </trkpt>
      <trkpt lat="45.96285" lon="4.7157">
        <ele>184</ele>
        <time>2018-11-02T12:07:12Z</time>
      </trkpt>
      <trkpt lat="45.96276" lon="4.71568">
        <ele>184</ele>
        <time>2018-11-02T12:07:13Z</time>
      </trkpt>
      <trkpt lat="45.96269" lon="4.71567">
        <ele>184</ele>
        <time>2018-11-02T12:07:14Z</time>
      </trkpt>
      <trkpt lat="45.96261" lon="4.71567">
        <ele>183</ele>
        <time>2018-11-02T12:07:15Z</time>
      </trkpt>
      <trkpt lat="45.96254" lon="4.71566">
        <ele>183</ele>
        <time>2018-11-02T12:07:16Z</time>
      </trkpt>
      <trkpt lat="45.96246" lon="4.71565">
        <ele>183</ele>
        <time>2018-11-02T12:07:17Z</time>
      </trkpt>
      <trkpt lat="45.96239" lon="4.71564">
        <ele>183</ele>
        <time>2018-11-02T12:07:18Z</time>
      </trkpt>
      <trkpt lat="45.96232" lon="4.71563">
        <ele>183</ele>
        <time>2018-11-02T12:07:19Z</time>
      </trkpt>
      <trkpt lat="45.96225" lon="4.71562">
        <ele>183</ele>
        <time>2018-11-02T12:07:20Z</time>
      </trkpt>
      <trkpt lat="45.96219" lon="4.7156">
        <ele>183</ele>
        <time>2018-11-02T12:07:21Z</time>
      </trkpt>
      <trkpt lat="45.96213" lon="4.71558">
        <ele>184</ele>
        <time>2018-11-02T12:07:22Z</time>
      </trkpt>
      <trkpt lat="45.96206" lon="4.71557">
        <ele>184</ele>
        <time>2018-11-02T12:07:23Z</time>
      </trkpt>
      <trkpt lat="45.962" lon="4.71554">
        <ele>184</ele>
        <time>2018-11-02T12:07:24Z</time>
      </trkpt>
      <trkpt lat="45.96194" lon="4.71553">
        <ele>184</ele>
        <time>2018-11-02T12:07:25Z</time>
      </trkpt>
      <trkpt lat="45.96187" lon="4.71552">
        <ele>184</ele>
        <time>2018-11-02T12:07:26Z</time>
      </trkpt>
      <trkpt lat="45.9618" lon="4.71552">
        <ele>184</ele>
        <time>2018-11-02T12:07:27Z</time>
      </trkpt>
      <trkpt lat="45.96175" lon="4.71551">
        <ele>184</ele>
        <time>2018-11-02T12:07:28Z</time>
      </trkpt>
      <trkpt lat="45.96168" lon="4.71549">
        <ele>184</ele>
        <time>2018-11-02T12:07:29Z</time>
      </trkpt>
      <trkpt lat="45.96163" lon="4.71549">
        <ele>184</ele>
        <time>2018-11-02T12:07:30Z</time>
      </trkpt>
      <trkpt lat="45.96156" lon="4.71548">
        <ele>184</ele>
        <time>2018-11-02T12:07:31Z</time>
      </trkpt>
      <trkpt lat="45.9615" lon="4.71546">
        <ele>184</ele>
        <time>2018-11-02T12:07:32Z</time>
      </trkpt>
      <trkpt lat="45.96143" lon="4.71545">
        <ele>184</ele>
        <time>2018-11-02T12:07:33Z</time>
      </trkpt>
      <trkpt lat="45.96136" lon="4.71544">
        <ele>185</ele>
        <time>2018-11-02T12:07:34Z</time>
      </trkpt>
      <trkpt lat="45.9613" lon="4.71542">
        <ele>185</ele>
        <time>2018-11-02T12:07:35Z</time>
      </trkpt>
      <trkpt lat="45.96126" lon="4.7154">
        <ele>185</ele>
        <time>2018-11-02T12:07:36Z</time>
      </trkpt>
      <trkpt lat="45.96121" lon="4.71539">
        <ele>185</ele>
        <time>2018-11-02T12:07:37Z</time>
      </trkpt>
      <trkpt lat="45.96114" lon="4.71538">
        <ele>185</ele>
        <time>2018-11-02T12:07:38Z</time>
      </trkpt>
      <trkpt lat="45.96108" lon="4.71537">
        <ele>185</ele>
        <time>2018-11-02T12:07:39Z</time>
      </trkpt>
      <trkpt lat="45.96103" lon="4.71536">
        <ele>185</ele>
        <time>2018-11-02T12:07:40Z</time>
      </trkpt>
      <trkpt lat="45.96097" lon="4.71536">
        <ele>185</ele>
        <time>2018-11-02T12:07:41Z</time>
      </trkpt>
      <trkpt lat="45.96091" lon="4.71535">
        <ele>185</ele>
        <time>2018-11-02T12:07:42Z</time>
      </trkpt>
      <trkpt lat="45.96086" lon="4.71532">
        <ele>186</ele>
        <time>2018-11-02T12:07:43Z</time>
      </trkpt>
      <trkpt lat="45.9608" lon="4.71531">
        <ele>186</ele>
        <time>2018-11-02T12:07:44Z</time>
      </trkpt>
      <trkpt lat="45.96076" lon="4.7153">
        <ele>186</ele>
        <time>2018-11-02T12:07:45Z</time>
      </trkpt>
      <trkpt lat="45.9607" lon="4.71529">
        <ele>186</ele>
        <time>2018-11-02T12:07:46Z</time>
      </trkpt>
      <trkpt lat="45.96064" lon="4.71528">
        <ele>186</ele>
        <time>2018-11-02T12:07:47Z</time>
      </trkpt>
      <trkpt lat="45.96059" lon="4.71526">
        <ele>186</ele>
        <time>2018-11-02T12:07:48Z</time>
      </trkpt>
      <trkpt lat="45.96053" lon="4.71525">
        <ele>186</ele>
        <time>2018-11-02T12:07:49Z</time>
      </trkpt>
      <trkpt lat="45.96048" lon="4.71523">
        <ele>186</ele>
        <time>2018-11-02T12:07:50Z</time>
      </trkpt>
      <trkpt lat="45.96042" lon="4.71521">
        <ele>186</ele>
        <time>2018-11-02T12:07:51Z</time>
      </trkpt>
      <trkpt lat="45.96035" lon="4.7152">
        <ele>186</ele>
        <time>2018-11-02T12:07:52Z</time>
      </trkpt>
      <trkpt lat="45.9603" lon="4.71519">
        <ele>186</ele>
        <time>2018-11-02T12:07:53Z</time>
      </trkpt>
      <trkpt lat="45.96024" lon="4.71518">
        <ele>186</ele>
        <time>2018-11-02T12:07:54Z</time>
      </trkpt>
      <trkpt lat="45.96019" lon="4.71516">
        <ele>186</ele>
        <time>2018-11-02T12:07:55Z</time>
      </trkpt>
      <trkpt lat="45.96014" lon="4.71515">
        <ele>186</ele>
        <time>2018-11-02T12:07:56Z</time>
      </trkpt>
      <trkpt lat="45.96008" lon="4.71513">
        <ele>187</ele>
        <time>2018-11-02T12:07:57Z</time>
      </trkpt>
      <trkpt lat="45.96004" lon="4.71511">
        <ele>187</ele>
        <time>2018-11-02T12:07:58Z</time>
      </trkpt>
      <trkpt lat="45.95998" lon="4.71507">
        <ele>187</ele>
        <time>2018-11-02T12:08:00Z</time>
      </trkpt>
      <trkpt lat="45.95993" lon="4.71508">
        <ele>186</ele>
        <time>2018-11-02T12:08:01Z</time>
      </trkpt>
      <trkpt lat="45.95987" lon="4.71508">
        <ele>186</ele>
        <time>2018-11-02T12:08:02Z</time>
      </trkpt>
      <trkpt lat="45.95982" lon="4.71509">
        <ele>185</ele>
        <time>2018-11-02T12:08:03Z</time>
      </trkpt>
      <trkpt lat="45.95976" lon="4.71511">
        <ele>185</ele>
        <time>2018-11-02T12:08:04Z</time>
      </trkpt>
      <trkpt lat="45.9597" lon="4.71513">
        <ele>185</ele>
        <time>2018-11-02T12:08:05Z</time>
      </trkpt>
      <trkpt lat="45.95964" lon="4.71515">
        <ele>184</ele>
        <time>2018-11-02T12:08:06Z</time>
      </trkpt>
      <trkpt lat="45.95958" lon="4.71515">
        <ele>184</ele>
        <time>2018-11-02T12:08:07Z</time>
      </trkpt>
      <trkpt lat="45.9595" lon="4.71515">
        <ele>184</ele>
        <time>2018-11-02T12:08:08Z</time>
      </trkpt>
      <trkpt lat="45.95942" lon="4.71515">
        <ele>184</ele>
        <time>2018-11-02T12:08:09Z</time>
      </trkpt>
      <trkpt lat="45.95934" lon="4.71516">
        <ele>184</ele>
        <time>2018-11-02T12:08:10Z</time>
      </trkpt>
      <trkpt lat="45.95926" lon="4.71516">
        <ele>184</ele>
        <time>2018-11-02T12:08:11Z</time>
      </trkpt>
      <trkpt lat="45.95919" lon="4.71517">
        <ele>184</ele>
        <time>2018-11-02T12:08:12Z</time>
      </trkpt>
      <trkpt lat="45.95911" lon="4.71516">
        <ele>183</ele>
        <time>2018-11-02T12:08:13Z</time>
      </trkpt>
      <trkpt lat="45.95904" lon="4.71516">
        <ele>183</ele>
        <time>2018-11-02T12:08:14Z</time>
      </trkpt>
      <trkpt lat="45.95896" lon="4.71515">
        <ele>183</ele>
        <time>2018-11-02T12:08:15Z</time>
      </trkpt>
      <trkpt lat="45.95889" lon="4.71516">
        <ele>182</ele>
        <time>2018-11-02T12:08:16Z</time>
      </trkpt>
      <trkpt lat="45.95881" lon="4.71516">
        <ele>182</ele>
        <time>2018-11-02T12:08:17Z</time>
      </trkpt>
      <trkpt lat="45.95873" lon="4.71516">
        <ele>182</ele>
        <time>2018-11-02T12:08:18Z</time>
      </trkpt>
      <trkpt lat="45.95865" lon="4.71516">
        <ele>182</ele>
        <time>2018-11-02T12:08:19Z</time>
      </trkpt>
      <trkpt lat="45.95858" lon="4.71516">
        <ele>182</ele>
        <time>2018-11-02T12:08:20Z</time>
      </trkpt>
      <trkpt lat="45.9585" lon="4.71515">
        <ele>182</ele>
        <time>2018-11-02T12:08:21Z</time>
      </trkpt>
      <trkpt lat="45.95843" lon="4.71515">
        <ele>183</ele>
        <time>2018-11-02T12:08:22Z</time>
      </trkpt>
      <trkpt lat="45.95835" lon="4.71516">
        <ele>183</ele>
        <time>2018-11-02T12:08:23Z</time>
      </trkpt>
      <trkpt lat="45.95827" lon="4.71516">
        <ele>182</ele>
        <time>2018-11-02T12:08:24Z</time>
      </trkpt>
      <trkpt lat="45.9582" lon="4.71515">
        <ele>182</ele>
        <time>2018-11-02T12:08:25Z</time>
      </trkpt>
      <trkpt lat="45.95812" lon="4.71514">
        <ele>182</ele>
        <time>2018-11-02T12:08:26Z</time>
      </trkpt>
      <trkpt lat="45.95804" lon="4.71514">
        <ele>181</ele>
        <time>2018-11-02T12:08:27Z</time>
      </trkpt>
      <trkpt lat="45.95797" lon="4.71514">
        <ele>181</ele>
        <time>2018-11-02T12:08:28Z</time>
      </trkpt>
      <trkpt lat="45.95789" lon="4.71512">
        <ele>181</ele>
        <time>2018-11-02T12:08:29Z</time>
      </trkpt>
      <trkpt lat="45.95781" lon="4.71512">
        <ele>181</ele>
        <time>2018-11-02T12:08:30Z</time>
      </trkpt>
      <trkpt lat="45.95773" lon="4.71512">
        <ele>181</ele>
        <time>2018-11-02T12:08:31Z</time>
      </trkpt>
      <trkpt lat="45.95765" lon="4.71511">
        <ele>181</ele>
        <time>2018-11-02T12:08:32Z</time>
      </trkpt>
      <trkpt lat="45.95757" lon="4.71511">
        <ele>181</ele>
        <time>2018-11-02T12:08:33Z</time>
      </trkpt>
      <trkpt lat="45.95749" lon="4.71511">
        <ele>181</ele>
        <time>2018-11-02T12:08:34Z</time>
      </trkpt>
      <trkpt lat="45.95742" lon="4.71512">
        <ele>181</ele>
        <time>2018-11-02T12:08:35Z</time>
      </trkpt>
      <trkpt lat="45.95734" lon="4.71511">
        <ele>181</ele>
        <time>2018-11-02T12:08:36Z</time>
      </trkpt>
      <trkpt lat="45.95725" lon="4.7151">
        <ele>180</ele>
        <time>2018-11-02T12:08:37Z</time>
      </trkpt>
      <trkpt lat="45.95717" lon="4.7151">
        <ele>180</ele>
        <time>2018-11-02T12:08:38Z</time>
      </trkpt>
      <trkpt lat="45.95709" lon="4.7151">
        <ele>180</ele>
        <time>2018-11-02T12:08:39Z</time>
      </trkpt>
      <trkpt lat="45.95702" lon="4.7151">
        <ele>180</ele>
        <time>2018-11-02T12:08:40Z</time>
      </trkpt>
      <trkpt lat="45.95693" lon="4.71509">
        <ele>180</ele>
        <time>2018-11-02T12:08:41Z</time>
      </trkpt>
      <trkpt lat="45.95685" lon="4.71509">
        <ele>181</ele>
        <time>2018-11-02T12:08:42Z</time>
      </trkpt>
      <trkpt lat="45.95677" lon="4.71508">
        <ele>181</ele>
        <time>2018-11-02T12:08:43Z</time>
      </trkpt>
      <trkpt lat="45.95668" lon="4.71508">
        <ele>181</ele>
        <time>2018-11-02T12:08:44Z</time>
      </trkpt>
      <trkpt lat="45.9566" lon="4.71509">
        <ele>181</ele>
        <time>2018-11-02T12:08:45Z</time>
      </trkpt>
      <trkpt lat="45.95651" lon="4.71508">
        <ele>180</ele>
        <time>2018-11-02T12:08:46Z</time>
      </trkpt>
      <trkpt lat="45.95643" lon="4.71508">
        <ele>180</ele>
        <time>2018-11-02T12:08:47Z</time>
      </trkpt>
      <trkpt lat="45.95635" lon="4.71508">
        <ele>180</ele>
        <time>2018-11-02T12:08:48Z</time>
      </trkpt>
      <trkpt lat="45.95626" lon="4.71507">
        <ele>180</ele>
        <time>2018-11-02T12:08:49Z</time>
      </trkpt>
      <trkpt lat="45.95618" lon="4.71505">
        <ele>179</ele>
        <time>2018-11-02T12:08:50Z</time>
      </trkpt>
      <trkpt lat="45.95609" lon="4.71504">
        <ele>179</ele>
        <time>2018-11-02T12:08:51Z</time>
      </trkpt>
      <trkpt lat="45.95601" lon="4.71503">
        <ele>179</ele>
        <time>2018-11-02T12:08:52Z</time>
      </trkpt>
      <trkpt lat="45.95593" lon="4.71503">
        <ele>180</ele>
        <time>2018-11-02T12:08:53Z</time>
      </trkpt>
      <trkpt lat="45.95585" lon="4.71502">
        <ele>180</ele>
        <time>2018-11-02T12:08:54Z</time>
      </trkpt>
      <trkpt lat="45.95577" lon="4.71502">
        <ele>179</ele>
        <time>2018-11-02T12:08:55Z</time>
      </trkpt>
      <trkpt lat="45.95569" lon="4.71502">
        <ele>179</ele>
        <time>2018-11-02T12:08:56Z</time>
      </trkpt>
      <trkpt lat="45.95561" lon="4.71501">
        <ele>178</ele>
        <time>2018-11-02T12:08:57Z</time>
      </trkpt>
      <trkpt lat="45.95553" lon="4.71501">
        <ele>178</ele>
        <time>2018-11-02T12:08:58Z</time>
      </trkpt>
      <trkpt lat="45.95545" lon="4.715">
        <ele>179</ele>
        <time>2018-11-02T12:08:59Z</time>
      </trkpt>
      <trkpt lat="45.95537" lon="4.71499">
        <ele>179</ele>
        <time>2018-11-02T12:09:00Z</time>
      </trkpt>
      <trkpt lat="45.95529" lon="4.71498">
        <ele>178</ele>
        <time>2018-11-02T12:09:01Z</time>
      </trkpt>
      <trkpt lat="45.95521" lon="4.71497">
        <ele>178</ele>
        <time>2018-11-02T12:09:02Z</time>
      </trkpt>
      <trkpt lat="45.95513" lon="4.71497">
        <ele>178</ele>
        <time>2018-11-02T12:09:03Z</time>
      </trkpt>
      <trkpt lat="45.95506" lon="4.71497">
        <ele>177</ele>
        <time>2018-11-02T12:09:04Z</time>
      </trkpt>
      <trkpt lat="45.95498" lon="4.71494">
        <ele>177</ele>
        <time>2018-11-02T12:09:05Z</time>
      </trkpt>
      <trkpt lat="45.95491" lon="4.71493">
        <ele>177</ele>
        <time>2018-11-02T12:09:06Z</time>
      </trkpt>
      <trkpt lat="45.95483" lon="4.71491">
        <ele>177</ele>
        <time>2018-11-02T12:09:07Z</time>
      </trkpt>
      <trkpt lat="45.95474" lon="4.71491">
        <ele>176</ele>
        <time>2018-11-02T12:09:08Z</time>
      </trkpt>
      <trkpt lat="45.95466" lon="4.7149">
        <ele>176</ele>
        <time>2018-11-02T12:09:09Z</time>
      </trkpt>
      <trkpt lat="45.95459" lon="4.7149">
        <ele>176</ele>
        <time>2018-11-02T12:09:10Z</time>
      </trkpt>
      <trkpt lat="45.95451" lon="4.7149">
        <ele>176</ele>
        <time>2018-11-02T12:09:11Z</time>
      </trkpt>
      <trkpt lat="45.95443" lon="4.71489">
        <ele>176</ele>
        <time>2018-11-02T12:09:12Z</time>
      </trkpt>
      <trkpt lat="45.95436" lon="4.71489">
        <ele>175</ele>
        <time>2018-11-02T12:09:13Z</time>
      </trkpt>
      <trkpt lat="45.95428" lon="4.71488">
        <ele>175</ele>
        <time>2018-11-02T12:09:14Z</time>
      </trkpt>
      <trkpt lat="45.95422" lon="4.71487">
        <ele>175</ele>
        <time>2018-11-02T12:09:15Z</time>
      </trkpt>
      <trkpt lat="45.95415" lon="4.71486">
        <ele>175</ele>
        <time>2018-11-02T12:09:16Z</time>
      </trkpt>
      <trkpt lat="45.95407" lon="4.71484">
        <ele>175</ele>
        <time>2018-11-02T12:09:17Z</time>
      </trkpt>
      <trkpt lat="45.954" lon="4.71484">
        <ele>175</ele>
        <time>2018-11-02T12:09:18Z</time>
      </trkpt>
      <trkpt lat="45.95393" lon="4.71483">
        <ele>175</ele>
        <time>2018-11-02T12:09:19Z</time>
      </trkpt>
      <trkpt lat="45.95386" lon="4.71483">
        <ele>175</ele>
        <time>2018-11-02T12:09:20Z</time>
      </trkpt>
      <trkpt lat="45.95379" lon="4.71482">
        <ele>175</ele>
        <time>2018-11-02T12:09:21Z</time>
      </trkpt>
      <trkpt lat="45.95372" lon="4.71481">
        <ele>175</ele>
        <time>2018-11-02T12:09:22Z</time>
      </trkpt>
      <trkpt lat="45.95366" lon="4.71481">
        <ele>175</ele>
        <time>2018-11-02T12:09:23Z</time>
      </trkpt>
      <trkpt lat="45.95359" lon="4.7148">
        <ele>175</ele>
        <time>2018-11-02T12:09:24Z</time>
      </trkpt>
      <trkpt lat="45.95351" lon="4.71481">
        <ele>175</ele>
        <time>2018-11-02T12:09:25Z</time>
      </trkpt>
      <trkpt lat="45.95345" lon="4.71481">
        <ele>175</ele>
        <time>2018-11-02T12:09:26Z</time>
      </trkpt>
      <trkpt lat="45.95338" lon="4.71483">
        <ele>175</ele>
        <time>2018-11-02T12:09:27Z</time>
      </trkpt>
      <trkpt lat="45.95332" lon="4.71482">
        <ele>175</ele>
        <time>2018-11-02T12:09:28Z</time>
      </trkpt>
      <trkpt lat="45.95325" lon="4.71482">
        <ele>175</ele>
        <time>2018-11-02T12:09:29Z</time>
      </trkpt>
      <trkpt lat="45.95318" lon="4.71482">
        <ele>175</ele>
        <time>2018-11-02T12:09:30Z</time>
      </trkpt>
      <trkpt lat="45.95312" lon="4.71483">
        <ele>175</ele>
        <time>2018-11-02T12:09:31Z</time>
      </trkpt>
      <trkpt lat="45.95305" lon="4.71482">
        <ele>175</ele>
        <time>2018-11-02T12:09:32Z</time>
      </trkpt>
      <trkpt lat="45.95299" lon="4.71482">
        <ele>176</ele>
        <time>2018-11-02T12:09:33Z</time>
      </trkpt>
      <trkpt lat="45.95293" lon="4.71482">
        <ele>176</ele>
        <time>2018-11-02T12:09:34Z</time>
      </trkpt>
      <trkpt lat="45.95287" lon="4.71481">
        <ele>176</ele>
        <time>2018-11-02T12:09:35Z</time>
      </trkpt>
      <trkpt lat="45.9528" lon="4.71481">
        <ele>176</ele>
        <time>2018-11-02T12:09:36Z</time>
      </trkpt>
      <trkpt lat="45.95272" lon="4.71481">
        <ele>176</ele>
        <time>2018-11-02T12:09:37Z</time>
      </trkpt>
      <trkpt lat="45.95265" lon="4.7148">
        <ele>176</ele>
        <time>2018-11-02T12:09:38Z</time>
      </trkpt>
      <trkpt lat="45.95258" lon="4.7148">
        <ele>176</ele>
        <time>2018-11-02T12:09:39Z</time>
      </trkpt>
      <trkpt lat="45.95252" lon="4.71479">
        <ele>176</ele>
        <time>2018-11-02T12:09:40Z</time>
      </trkpt>
      <trkpt lat="45.95245" lon="4.71479">
        <ele>177</ele>
        <time>2018-11-02T12:09:41Z</time>
      </trkpt>
      <trkpt lat="45.95238" lon="4.71479">
        <ele>177</ele>
        <time>2018-11-02T12:09:42Z</time>
      </trkpt>
      <trkpt lat="45.95232" lon="4.71479">
        <ele>177</ele>
        <time>2018-11-02T12:09:43Z</time>
      </trkpt>
      <trkpt lat="45.95226" lon="4.71478">
        <ele>177</ele>
        <time>2018-11-02T12:09:44Z</time>
      </trkpt>
      <trkpt lat="45.95219" lon="4.71478">
        <ele>177</ele>
        <time>2018-11-02T12:09:45Z</time>
      </trkpt>
      <trkpt lat="45.95212" lon="4.71477">
        <ele>177</ele>
        <time>2018-11-02T12:09:46Z</time>
      </trkpt>
      <trkpt lat="45.95205" lon="4.71476">
        <ele>177</ele>
        <time>2018-11-02T12:09:47Z</time>
      </trkpt>
      <trkpt lat="45.95198" lon="4.71475">
        <ele>177</ele>
        <time>2018-11-02T12:09:48Z</time>
      </trkpt>
      <trkpt lat="45.95191" lon="4.71475">
        <ele>177</ele>
        <time>2018-11-02T12:09:49Z</time>
      </trkpt>
      <trkpt lat="45.95184" lon="4.71474">
        <ele>177</ele>
        <time>2018-11-02T12:09:50Z</time>
      </trkpt>
      <trkpt lat="45.95177" lon="4.71474">
        <ele>177</ele>
        <time>2018-11-02T12:09:51Z</time>
      </trkpt>
      <trkpt lat="45.9517" lon="4.71473">
        <ele>177</ele>
        <time>2018-11-02T12:09:52Z</time>
      </trkpt>
      <trkpt lat="45.95164" lon="4.71472">
        <ele>178</ele>
        <time>2018-11-02T12:09:53Z</time>
      </trkpt>
      <trkpt lat="45.95156" lon="4.71472">
        <ele>178</ele>
        <time>2018-11-02T12:09:54Z</time>
      </trkpt>
      <trkpt lat="45.95149" lon="4.7147">
        <ele>178</ele>
        <time>2018-11-02T12:09:55Z</time>
      </trkpt>
      <trkpt lat="45.95142" lon="4.71469">
        <ele>178</ele>
        <time>2018-11-02T12:09:56Z</time>
      </trkpt>
      <trkpt lat="45.95135" lon="4.71466">
        <ele>178</ele>
        <time>2018-11-02T12:09:57Z</time>
      </trkpt>
      <trkpt lat="45.95129" lon="4.71466">
        <ele>178</ele>
        <time>2018-11-02T12:09:58Z</time>
      </trkpt>
      <trkpt lat="45.95122" lon="4.71465">
        <ele>179</ele>
        <time>2018-11-02T12:09:59Z</time>
      </trkpt>
      <trkpt lat="45.95115" lon="4.71465">
        <ele>179</ele>
        <time>2018-11-02T12:10:00Z</time>
      </trkpt>
      <trkpt lat="45.95109" lon="4.71465">
        <ele>179</ele>
        <time>2018-11-02T12:10:01Z</time>
      </trkpt>
      <trkpt lat="45.95103" lon="4.71465">
        <ele>179</ele>
        <time>2018-11-02T12:10:02Z</time>
      </trkpt>
      <trkpt lat="45.95096" lon="4.71464">
        <ele>179</ele>
        <time>2018-11-02T12:10:03Z</time>
      </trkpt>
      <trkpt lat="45.9509" lon="4.71464">
        <ele>179</ele>
        <time>2018-11-02T12:10:04Z</time>
      </trkpt>
      <trkpt lat="45.95084" lon="4.71463">
        <ele>179</ele>
        <time>2018-11-02T12:10:05Z</time>
      </trkpt>
      <trkpt lat="45.95079" lon="4.71463">
        <ele>181</ele>
        <time>2018-11-02T12:10:06Z</time>
      </trkpt>
      <trkpt lat="45.95074" lon="4.71462">
        <ele>181</ele>
        <time>2018-11-02T12:10:07Z</time>
      </trkpt>
      <trkpt lat="45.95068" lon="4.71461">
        <ele>181</ele>
        <time>2018-11-02T12:10:08Z</time>
      </trkpt>
      <trkpt lat="45.95062" lon="4.71461">
        <ele>181</ele>
        <time>2018-11-02T12:10:09Z</time>
      </trkpt>
      <trkpt lat="45.95057" lon="4.71461">
        <ele>181</ele>
        <time>2018-11-02T12:10:10Z</time>
      </trkpt>
      <trkpt lat="45.95052" lon="4.71461">
        <ele>181</ele>
        <time>2018-11-02T12:10:11Z</time>
      </trkpt>
      <trkpt lat="45.95047" lon="4.71461">
        <ele>182</ele>
        <time>2018-11-02T12:10:12Z</time>
      </trkpt>
      <trkpt lat="45.95042" lon="4.7146">
        <ele>182</ele>
        <time>2018-11-02T12:10:13Z</time>
      </trkpt>
      <trkpt lat="45.95037" lon="4.7146">
        <ele>182</ele>
        <time>2018-11-02T12:10:14Z</time>
      </trkpt>
      <trkpt lat="45.95032" lon="4.7146">
        <ele>182</ele>
        <time>2018-11-02T12:10:15Z</time>
      </trkpt>
      <trkpt lat="45.95028" lon="4.71459">
        <ele>182</ele>
        <time>2018-11-02T12:10:16Z</time>
      </trkpt>
      <trkpt lat="45.95019" lon="4.71458">
        <ele>182</ele>
        <time>2018-11-02T12:10:18Z</time>
      </trkpt>
      <trkpt lat="45.95013" lon="4.71457">
        <ele>182</ele>
        <time>2018-11-02T12:10:19Z</time>
      </trkpt>
      <trkpt lat="45.95005" lon="4.71456">
        <ele>182</ele>
        <time>2018-11-02T12:10:21Z</time>
      </trkpt>
      <trkpt lat="45.95001" lon="4.71454">
        <ele>183</ele>
        <time>2018-11-02T12:10:22Z</time>
      </trkpt>
      <trkpt lat="45.94996" lon="4.71454">
        <ele>184</ele>
        <time>2018-11-02T12:10:23Z</time>
      </trkpt>
      <trkpt lat="45.94992" lon="4.71451">
        <ele>184</ele>
        <time>2018-11-02T12:10:24Z</time>
      </trkpt>
      <trkpt lat="45.94986" lon="4.71442">
        <ele>184</ele>
        <time>2018-11-02T12:10:26Z</time>
      </trkpt>
      <trkpt lat="45.94981" lon="4.71437">
        <ele>185</ele>
        <time>2018-11-02T12:10:27Z</time>
      </trkpt>
      <trkpt lat="45.94977" lon="4.71435">
        <ele>185</ele>
        <time>2018-11-02T12:10:28Z</time>
      </trkpt>
      <trkpt lat="45.94972" lon="4.71432">
        <ele>185</ele>
        <time>2018-11-02T12:10:29Z</time>
      </trkpt>
      <trkpt lat="45.94966" lon="4.71432">
        <ele>185</ele>
        <time>2018-11-02T12:10:30Z</time>
      </trkpt>
      <trkpt lat="45.94961" lon="4.71437">
        <ele>184</ele>
        <time>2018-11-02T12:10:31Z</time>
      </trkpt>
      <trkpt lat="45.94955" lon="4.71441">
        <ele>184</ele>
        <time>2018-11-02T12:10:32Z</time>
      </trkpt>
      <trkpt lat="45.9495" lon="4.71446">
        <ele>184</ele>
        <time>2018-11-02T12:10:33Z</time>
      </trkpt>
      <trkpt lat="45.94944" lon="4.7145">
        <ele>184</ele>
        <time>2018-11-02T12:10:34Z</time>
      </trkpt>
      <trkpt lat="45.94939" lon="4.71454">
        <ele>184</ele>
        <time>2018-11-02T12:10:35Z</time>
      </trkpt>
      <trkpt lat="45.94933" lon="4.71456">
        <ele>184</ele>
        <time>2018-11-02T12:10:36Z</time>
      </trkpt>
      <trkpt lat="45.94927" lon="4.71457">
        <ele>184</ele>
        <time>2018-11-02T12:10:37Z</time>
      </trkpt>
      <trkpt lat="45.94921" lon="4.71457">
        <ele>184</ele>
        <time>2018-11-02T12:10:38Z</time>
      </trkpt>
      <trkpt lat="45.94916" lon="4.71458">
        <ele>184</ele>
        <time>2018-11-02T12:10:39Z</time>
      </trkpt>
      <trkpt lat="45.94911" lon="4.71457">
        <ele>184</ele>
        <time>2018-11-02T12:10:40Z</time>
      </trkpt>
      <trkpt lat="45.94906" lon="4.71457">
        <ele>184</ele>
        <time>2018-11-02T12:10:41Z</time>
      </trkpt>
      <trkpt lat="45.94901" lon="4.71457">
        <ele>184</ele>
        <time>2018-11-02T12:10:42Z</time>
      </trkpt>
      <trkpt lat="45.94897" lon="4.71456">
        <ele>184</ele>
        <time>2018-11-02T12:10:43Z</time>
      </trkpt>
      <trkpt lat="45.94892" lon="4.71456">
        <ele>184</ele>
        <time>2018-11-02T12:10:44Z</time>
      </trkpt>
      <trkpt lat="45.94887" lon="4.71457">
        <ele>184</ele>
        <time>2018-11-02T12:10:45Z</time>
      </trkpt>
      <trkpt lat="45.94882" lon="4.71456">
        <ele>184</ele>
        <time>2018-11-02T12:10:46Z</time>
      </trkpt>
      <trkpt lat="45.94875" lon="4.71456">
        <ele>184</ele>
        <time>2018-11-02T12:10:47Z</time>
      </trkpt>
      <trkpt lat="45.9487" lon="4.71455">
        <ele>184</ele>
        <time>2018-11-02T12:10:48Z</time>
      </trkpt>
      <trkpt lat="45.94864" lon="4.71453">
        <ele>184</ele>
        <time>2018-11-02T12:10:49Z</time>
      </trkpt>
      <trkpt lat="45.94858" lon="4.71452">
        <ele>184</ele>
        <time>2018-11-02T12:10:50Z</time>
      </trkpt>
      <trkpt lat="45.94853" lon="4.71452">
        <ele>184</ele>
        <time>2018-11-02T12:10:51Z</time>
      </trkpt>
      <trkpt lat="45.94847" lon="4.71451">
        <ele>184</ele>
        <time>2018-11-02T12:10:52Z</time>
      </trkpt>
      <trkpt lat="45.94842" lon="4.7145">
        <ele>184</ele>
        <time>2018-11-02T12:10:53Z</time>
      </trkpt>
      <trkpt lat="45.94837" lon="4.71449">
        <ele>184</ele>
        <time>2018-11-02T12:10:54Z</time>
      </trkpt>
      <trkpt lat="45.94832" lon="4.71449">
        <ele>184</ele>
        <time>2018-11-02T12:10:55Z</time>
      </trkpt>
      <trkpt lat="45.94827" lon="4.71448">
        <ele>184</ele>
        <time>2018-11-02T12:10:56Z</time>
      </trkpt>
      <trkpt lat="45.94822" lon="4.71448">
        <ele>184</ele>
        <time>2018-11-02T12:10:57Z</time>
      </trkpt>
      <trkpt lat="45.94817" lon="4.71446">
        <ele>184</ele>
        <time>2018-11-02T12:10:58Z</time>
      </trkpt>
      <trkpt lat="45.94812" lon="4.71446">
        <ele>184</ele>
        <time>2018-11-02T12:10:59Z</time>
      </trkpt>
      <trkpt lat="45.94807" lon="4.71446">
        <ele>184</ele>
        <time>2018-11-02T12:11:00Z</time>
      </trkpt>
      <trkpt lat="45.94803" lon="4.71444">
        <ele>184</ele>
        <time>2018-11-02T12:11:01Z</time>
      </trkpt>
      <trkpt lat="45.94797" lon="4.71445">
        <ele>183</ele>
        <time>2018-11-02T12:11:02Z</time>
      </trkpt>
      <trkpt lat="45.94792" lon="4.71444">
        <ele>183</ele>
        <time>2018-11-02T12:11:03Z</time>
      </trkpt>
      <trkpt lat="45.94787" lon="4.71443">
        <ele>184</ele>
        <time>2018-11-02T12:11:04Z</time>
      </trkpt>
      <trkpt lat="45.94782" lon="4.71443">
        <ele>184</ele>
        <time>2018-11-02T12:11:05Z</time>
      </trkpt>
      <trkpt lat="45.94777" lon="4.71442">
        <ele>184</ele>
        <time>2018-11-02T12:11:06Z</time>
      </trkpt>
      <trkpt lat="45.94772" lon="4.71441">
        <ele>184</ele>
        <time>2018-11-02T12:11:07Z</time>
      </trkpt>
      <trkpt lat="45.94763" lon="4.7144">
        <ele>184</ele>
        <time>2018-11-02T12:11:09Z</time>
      </trkpt>
      <trkpt lat="45.94758" lon="4.7144">
        <ele>184</ele>
        <time>2018-11-02T12:11:10Z</time>
      </trkpt>
      <trkpt lat="45.94752" lon="4.71438">
        <ele>184</ele>
        <time>2018-11-02T12:11:11Z</time>
      </trkpt>
      <trkpt lat="45.94746" lon="4.71438">
        <ele>183</ele>
        <time>2018-11-02T12:11:12Z</time>
      </trkpt>
      <trkpt lat="45.9474" lon="4.71437">
        <ele>183</ele>
        <time>2018-11-02T12:11:13Z</time>
      </trkpt>
      <trkpt lat="45.94734" lon="4.71437">
        <ele>183</ele>
        <time>2018-11-02T12:11:14Z</time>
      </trkpt>
      <trkpt lat="45.94727" lon="4.71437">
        <ele>183</ele>
        <time>2018-11-02T12:11:15Z</time>
      </trkpt>
      <trkpt lat="45.94722" lon="4.71438">
        <ele>183</ele>
        <time>2018-11-02T12:11:16Z</time>
      </trkpt>
      <trkpt lat="45.94717" lon="4.71437">
        <ele>182</ele>
        <time>2018-11-02T12:11:17Z</time>
      </trkpt>
      <trkpt lat="45.94712" lon="4.71436">
        <ele>182</ele>
        <time>2018-11-02T12:11:18Z</time>
      </trkpt>
      <trkpt lat="45.94706" lon="4.71436">
        <ele>182</ele>
        <time>2018-11-02T12:11:19Z</time>
      </trkpt>
      <trkpt lat="45.947" lon="4.71435">
        <ele>182</ele>
        <time>2018-11-02T12:11:20Z</time>
      </trkpt>
      <trkpt lat="45.94693" lon="4.71435">
        <ele>182</ele>
        <time>2018-11-02T12:11:21Z</time>
      </trkpt>
      <trkpt lat="45.94688" lon="4.71435">
        <ele>182</ele>
        <time>2018-11-02T12:11:22Z</time>
      </trkpt>
      <trkpt lat="45.94681" lon="4.71435">
        <ele>182</ele>
        <time>2018-11-02T12:11:23Z</time>
      </trkpt>
      <trkpt lat="45.94675" lon="4.71436">
        <ele>182</ele>
        <time>2018-11-02T12:11:24Z</time>
      </trkpt>
      <trkpt lat="45.94667" lon="4.71435">
        <ele>183</ele>
        <time>2018-11-02T12:11:25Z</time>
      </trkpt>
      <trkpt lat="45.94661" lon="4.71436">
        <ele>182</ele>
        <time>2018-11-02T12:11:26Z</time>
      </trkpt>
      <trkpt lat="45.94654" lon="4.71437">
        <ele>182</ele>
        <time>2018-11-02T12:11:27Z</time>
      </trkpt>
      <trkpt lat="45.94648" lon="4.71437">
        <ele>182</ele>
        <time>2018-11-02T12:11:28Z</time>
      </trkpt>
      <trkpt lat="45.94641" lon="4.71437">
        <ele>182</ele>
        <time>2018-11-02T12:11:29Z</time>
      </trkpt>
      <trkpt lat="45.94634" lon="4.71436">
        <ele>182</ele>
        <time>2018-11-02T12:11:30Z</time>
      </trkpt>
      <trkpt lat="45.94628" lon="4.7144">
        <ele>181</ele>
        <time>2018-11-02T12:11:31Z</time>
      </trkpt>
      <trkpt lat="45.94622" lon="4.71441">
        <ele>181</ele>
        <time>2018-11-02T12:11:32Z</time>
      </trkpt>
      <trkpt lat="45.94616" lon="4.7144">
        <ele>181</ele>
        <time>2018-11-02T12:11:33Z</time>
      </trkpt>
      <trkpt lat="45.9461" lon="4.71441">
        <ele>181</ele>
        <time>2018-11-02T12:11:34Z</time>
      </trkpt>
      <trkpt lat="45.94603" lon="4.71441">
        <ele>182</ele>
        <time>2018-11-02T12:11:35Z</time>
      </trkpt>
      <trkpt lat="45.94597" lon="4.7144">
        <ele>182</ele>
        <time>2018-11-02T12:11:36Z</time>
      </trkpt>
      <trkpt lat="45.94589" lon="4.71439">
        <ele>182</ele>
        <time>2018-11-02T12:11:37Z</time>
      </trkpt>
      <trkpt lat="45.94583" lon="4.71439">
        <ele>182</ele>
        <time>2018-11-02T12:11:38Z</time>
      </trkpt>
      <trkpt lat="45.94577" lon="4.71439">
        <ele>182</ele>
        <time>2018-11-02T12:11:39Z</time>
      </trkpt>
      <trkpt lat="45.94571" lon="4.7144">
        <ele>182</ele>
        <time>2018-11-02T12:11:40Z</time>
      </trkpt>
      <trkpt lat="45.94565" lon="4.71441">
        <ele>181</ele>
        <time>2018-11-02T12:11:41Z</time>
      </trkpt>
      <trkpt lat="45.94559" lon="4.71444">
        <ele>181</ele>
        <time>2018-11-02T12:11:42Z</time>
      </trkpt>
      <trkpt lat="45.94552" lon="4.71446">
        <ele>181</ele>
        <time>2018-11-02T12:11:43Z</time>
      </trkpt>
      <trkpt lat="45.94546" lon="4.71449">
        <ele>180</ele>
        <time>2018-11-02T12:11:44Z</time>
      </trkpt>
      <trkpt lat="45.94539" lon="4.71451">
        <ele>180</ele>
        <time>2018-11-02T12:11:45Z</time>
      </trkpt>
      <trkpt lat="45.94532" lon="4.71455">
        <ele>180</ele>
        <time>2018-11-02T12:11:46Z</time>
      </trkpt>
      <trkpt lat="45.94524" lon="4.71456">
        <ele>180</ele>
        <time>2018-11-02T12:11:47Z</time>
      </trkpt>
      <trkpt lat="45.94517" lon="4.71457">
        <ele>180</ele>
        <time>2018-11-02T12:11:48Z</time>
      </trkpt>
      <trkpt lat="45.9451" lon="4.7146">
        <ele>180</ele>
        <time>2018-11-02T12:11:49Z</time>
      </trkpt>
      <trkpt lat="45.94502" lon="4.71463">
        <ele>180</ele>
        <time>2018-11-02T12:11:50Z</time>
      </trkpt>
      <trkpt lat="45.94495" lon="4.71466">
        <ele>179</ele>
        <time>2018-11-02T12:11:51Z</time>
      </trkpt>
      <trkpt lat="45.94487" lon="4.71469">
        <ele>179</ele>
        <time>2018-11-02T12:11:52Z</time>
      </trkpt>
      <trkpt lat="45.9448" lon="4.71472">
        <ele>179</ele>
        <time>2018-11-02T12:11:53Z</time>
      </trkpt>
      <trkpt lat="45.94472" lon="4.71475">
        <ele>179</ele>
        <time>2018-11-02T12:11:54Z</time>
      </trkpt>
      <trkpt lat="45.94465" lon="4.71478">
        <ele>179</ele>
        <time>2018-11-02T12:11:55Z</time>
      </trkpt>
      <trkpt lat="45.94457" lon="4.71481">
        <ele>179</ele>
        <time>2018-11-02T12:11:56Z</time>
      </trkpt>
      <trkpt lat="45.9445" lon="4.71485">
        <ele>179</ele>
        <time>2018-11-02T12:11:57Z</time>
      </trkpt>
      <trkpt lat="45.94442" lon="4.71487">
        <ele>179</ele>
        <time>2018-11-02T12:11:58Z</time>
      </trkpt>
      <trkpt lat="45.94435" lon="4.7149">
        <ele>178</ele>
        <time>2018-11-02T12:11:59Z</time>
      </trkpt>
      <trkpt lat="45.94427" lon="4.71493">
        <ele>178</ele>
        <time>2018-11-02T12:12:00Z</time>
      </trkpt>
      <trkpt lat="45.9442" lon="4.71493">
        <ele>178</ele>
        <time>2018-11-02T12:12:01Z</time>
      </trkpt>
      <trkpt lat="45.94412" lon="4.71496">
        <ele>178</ele>
        <time>2018-11-02T12:12:02Z</time>
      </trkpt>
      <trkpt lat="45.94404" lon="4.71499">
        <ele>178</ele>
        <time>2018-11-02T12:12:03Z</time>
      </trkpt>
      <trkpt lat="45.94397" lon="4.71502">
        <ele>177</ele>
        <time>2018-11-02T12:12:04Z</time>
      </trkpt>
      <trkpt lat="45.9439" lon="4.71505">
        <ele>177</ele>
        <time>2018-11-02T12:12:05Z</time>
      </trkpt>
      <trkpt lat="45.94383" lon="4.71508">
        <ele>177</ele>
        <time>2018-11-02T12:12:06Z</time>
      </trkpt>
      <trkpt lat="45.94376" lon="4.7151">
        <ele>177</ele>
        <time>2018-11-02T12:12:07Z</time>
      </trkpt>
      <trkpt lat="45.94369" lon="4.71513">
        <ele>176</ele>
        <time>2018-11-02T12:12:08Z</time>
      </trkpt>
      <trkpt lat="45.94362" lon="4.71515">
        <ele>176</ele>
        <time>2018-11-02T12:12:09Z</time>
      </trkpt>
      <trkpt lat="45.94354" lon="4.71519">
        <ele>176</ele>
        <time>2018-11-02T12:12:10Z</time>
      </trkpt>
      <trkpt lat="45.94347" lon="4.71522">
        <ele>176</ele>
        <time>2018-11-02T12:12:11Z</time>
      </trkpt>
      <trkpt lat="45.94339" lon="4.71524">
        <ele>176</ele>
        <time>2018-11-02T12:12:12Z</time>
      </trkpt>
      <trkpt lat="45.94331" lon="4.71527">
        <ele>176</ele>
        <time>2018-11-02T12:12:13Z</time>
      </trkpt>
      <trkpt lat="45.94324" lon="4.7153">
        <ele>176</ele>
        <time>2018-11-02T12:12:14Z</time>
      </trkpt>
      <trkpt lat="45.94316" lon="4.71533">
        <ele>175</ele>
        <time>2018-11-02T12:12:15Z</time>
      </trkpt>
      <trkpt lat="45.94308" lon="4.71534">
        <ele>175</ele>
        <time>2018-11-02T12:12:16Z</time>
      </trkpt>
      <trkpt lat="45.943" lon="4.71537">
        <ele>175</ele>
        <time>2018-11-02T12:12:17Z</time>
      </trkpt>
      <trkpt lat="45.94294" lon="4.71541">
        <ele>175</ele>
        <time>2018-11-02T12:12:18Z</time>
      </trkpt>
      <trkpt lat="45.94286" lon="4.71543">
        <ele>175</ele>
        <time>2018-11-02T12:12:19Z</time>
      </trkpt>
      <trkpt lat="45.9428" lon="4.71545">
        <ele>175</ele>
        <time>2018-11-02T12:12:20Z</time>
      </trkpt>
      <trkpt lat="45.94272" lon="4.71549">
        <ele>175</ele>
        <time>2018-11-02T12:12:21Z</time>
      </trkpt>
      <trkpt lat="45.94265" lon="4.7155">
        <ele>175</ele>
        <time>2018-11-02T12:12:22Z</time>
      </trkpt>
      <trkpt lat="45.94258" lon="4.71553">
        <ele>175</ele>
        <time>2018-11-02T12:12:23Z</time>
      </trkpt>
      <trkpt lat="45.94251" lon="4.71556">
        <ele>175</ele>
        <time>2018-11-02T12:12:24Z</time>
      </trkpt>
      <trkpt lat="45.94244" lon="4.71558">
        <ele>174</ele>
        <time>2018-11-02T12:12:25Z</time>
      </trkpt>
      <trkpt lat="45.94237" lon="4.7156">
        <ele>174</ele>
        <time>2018-11-02T12:12:26Z</time>
      </trkpt>
      <trkpt lat="45.9423" lon="4.71564">
        <ele>174</ele>
        <time>2018-11-02T12:12:27Z</time>
      </trkpt>
      <trkpt lat="45.94224" lon="4.71567">
        <ele>174</ele>
        <time>2018-11-02T12:12:28Z</time>
      </trkpt>
      <trkpt lat="45.94218" lon="4.71569">
        <ele>174</ele>
        <time>2018-11-02T12:12:29Z</time>
      </trkpt>
      <trkpt lat="45.94211" lon="4.7157">
        <ele>174</ele>
        <time>2018-11-02T12:12:30Z</time>
      </trkpt>
      <trkpt lat="45.94205" lon="4.71572">
        <ele>174</ele>
        <time>2018-11-02T12:12:31Z</time>
      </trkpt>
      <trkpt lat="45.94199" lon="4.71575">
        <ele>174</ele>
        <time>2018-11-02T12:12:32Z</time>
      </trkpt>
      <trkpt lat="45.94194" lon="4.71577">
        <ele>174</ele>
        <time>2018-11-02T12:12:33Z</time>
      </trkpt>
      <trkpt lat="45.9419" lon="4.71579">
        <ele>174</ele>
        <time>2018-11-02T12:12:34Z</time>
      </trkpt>
      <trkpt lat="45.94184" lon="4.71582">
        <ele>174</ele>
        <time>2018-11-02T12:12:35Z</time>
      </trkpt>
      <trkpt lat="45.94178" lon="4.71584">
        <ele>174</ele>
        <time>2018-11-02T12:12:36Z</time>
      </trkpt>
      <trkpt lat="45.94172" lon="4.71587">
        <ele>174</ele>
        <time>2018-11-02T12:12:37Z</time>
      </trkpt>
      <trkpt lat="45.94167" lon="4.71588">
        <ele>174</ele>
        <time>2018-11-02T12:12:38Z</time>
      </trkpt>
      <trkpt lat="45.9416" lon="4.71591">
        <ele>174</ele>
        <time>2018-11-02T12:12:39Z</time>
      </trkpt>
      <trkpt lat="45.94154" lon="4.71593">
        <ele>173</ele>
        <time>2018-11-02T12:12:40Z</time>
      </trkpt>
      <trkpt lat="45.94148" lon="4.71595">
        <ele>173</ele>
        <time>2018-11-02T12:12:41Z</time>
      </trkpt>
      <trkpt lat="45.94141" lon="4.71598">
        <ele>173</ele>
        <time>2018-11-02T12:12:42Z</time>
      </trkpt>
      <trkpt lat="45.94134" lon="4.71599">
        <ele>173</ele>
        <time>2018-11-02T12:12:43Z</time>
      </trkpt>
      <trkpt lat="45.94128" lon="4.71601">
        <ele>173</ele>
        <time>2018-11-02T12:12:44Z</time>
      </trkpt>
      <trkpt lat="45.94123" lon="4.71606">
        <ele>173</ele>
        <time>2018-11-02T12:12:45Z</time>
      </trkpt>
      <trkpt lat="45.94116" lon="4.71608">
        <ele>173</ele>
        <time>2018-11-02T12:12:46Z</time>
      </trkpt>
      <trkpt lat="45.9411" lon="4.7161">
        <ele>173</ele>
        <time>2018-11-02T12:12:47Z</time>
      </trkpt>
      <trkpt lat="45.94105" lon="4.71612">
        <ele>173</ele>
        <time>2018-11-02T12:12:48Z</time>
      </trkpt>
      <trkpt lat="45.94099" lon="4.71614">
        <ele>173</ele>
        <time>2018-11-02T12:12:49Z</time>
      </trkpt>
      <trkpt lat="45.94093" lon="4.71616">
        <ele>173</ele>
        <time>2018-11-02T12:12:50Z</time>
      </trkpt>
      <trkpt lat="45.94088" lon="4.71618">
        <ele>173</ele>
        <time>2018-11-02T12:12:51Z</time>
      </trkpt>
      <trkpt lat="45.94083" lon="4.7162">
        <ele>174</ele>
        <time>2018-11-02T12:12:52Z</time>
      </trkpt>
      <trkpt lat="45.94078" lon="4.71621">
        <ele>174</ele>
        <time>2018-11-02T12:12:53Z</time>
      </trkpt>
      <trkpt lat="45.94072" lon="4.71624">
        <ele>174</ele>
        <time>2018-11-02T12:12:54Z</time>
      </trkpt>
      <trkpt lat="45.94067" lon="4.71625">
        <ele>174</ele>
        <time>2018-11-02T12:12:55Z</time>
      </trkpt>
      <trkpt lat="45.94062" lon="4.71629">
        <ele>174</ele>
        <time>2018-11-02T12:12:56Z</time>
      </trkpt>
      <trkpt lat="45.94056" lon="4.71631">
        <ele>174</ele>
        <time>2018-11-02T12:12:57Z</time>
      </trkpt>
      <trkpt lat="45.9405" lon="4.71633">
        <ele>175</ele>
        <time>2018-11-02T12:12:58Z</time>
      </trkpt>
      <trkpt lat="45.94044" lon="4.71636">
        <ele>175</ele>
        <time>2018-11-02T12:12:59Z</time>
      </trkpt>
      <trkpt lat="45.94037" lon="4.71638">
        <ele>175</ele>
        <time>2018-11-02T12:13:00Z</time>
      </trkpt>
      <trkpt lat="45.94031" lon="4.71641">
        <ele>175</ele>
        <time>2018-11-02T12:13:01Z</time>
      </trkpt>
      <trkpt lat="45.94025" lon="4.71643">
        <ele>175</ele>
        <time>2018-11-02T12:13:02Z</time>
      </trkpt>
      <trkpt lat="45.94019" lon="4.71646">
        <ele>175</ele>
        <time>2018-11-02T12:13:03Z</time>
      </trkpt>
      <trkpt lat="45.94013" lon="4.71648">
        <ele>176</ele>
        <time>2018-11-02T12:13:04Z</time>
      </trkpt>
      <trkpt lat="45.94005" lon="4.71654">
        <ele>176</ele>
        <time>2018-11-02T12:13:05Z</time>
      </trkpt>
      <trkpt lat="45.93999" lon="4.71656">
        <ele>177</ele>
        <time>2018-11-02T12:13:06Z</time>
      </trkpt>
      <trkpt lat="45.93994" lon="4.71656">
        <ele>177</ele>
        <time>2018-11-02T12:13:07Z</time>
      </trkpt>
      <trkpt lat="45.93987" lon="4.71658">
        <ele>177</ele>
        <time>2018-11-02T12:13:08Z</time>
      </trkpt>
      <trkpt lat="45.9398" lon="4.71661">
        <ele>177</ele>
        <time>2018-11-02T12:13:09Z</time>
      </trkpt>
      <trkpt lat="45.93973" lon="4.71663">
        <ele>177</ele>
        <time>2018-11-02T12:13:10Z</time>
      </trkpt>
      <trkpt lat="45.93967" lon="4.71666">
        <ele>177</ele>
        <time>2018-11-02T12:13:11Z</time>
      </trkpt>
      <trkpt lat="45.93962" lon="4.71667">
        <ele>175</ele>
        <time>2018-11-02T12:13:12Z</time>
      </trkpt>
      <trkpt lat="45.93955" lon="4.7167">
        <ele>175</ele>
        <time>2018-11-02T12:13:13Z</time>
      </trkpt>
      <trkpt lat="45.93948" lon="4.71673">
        <ele>175</ele>
        <time>2018-11-02T12:13:14Z</time>
      </trkpt>
      <trkpt lat="45.93942" lon="4.71676">
        <ele>175</ele>
        <time>2018-11-02T12:13:15Z</time>
      </trkpt>
      <trkpt lat="45.93934" lon="4.71678">
        <ele>175</ele>
        <time>2018-11-02T12:13:16Z</time>
      </trkpt>
      <trkpt lat="45.93928" lon="4.71681">
        <ele>175</ele>
        <time>2018-11-02T12:13:17Z</time>
      </trkpt>
      <trkpt lat="45.93921" lon="4.71685">
        <ele>175</ele>
        <time>2018-11-02T12:13:18Z</time>
      </trkpt>
      <trkpt lat="45.93914" lon="4.71688">
        <ele>174</ele>
        <time>2018-11-02T12:13:19Z</time>
      </trkpt>
      <trkpt lat="45.93907" lon="4.7169">
        <ele>174</ele>
        <time>2018-11-02T12:13:20Z</time>
      </trkpt>
      <trkpt lat="45.93901" lon="4.71692">
        <ele>174</ele>
        <time>2018-11-02T12:13:21Z</time>
      </trkpt>
      <trkpt lat="45.93894" lon="4.71695">
        <ele>174</ele>
        <time>2018-11-02T12:13:22Z</time>
      </trkpt>
      <trkpt lat="45.93887" lon="4.71697">
        <ele>174</ele>
        <time>2018-11-02T12:13:23Z</time>
      </trkpt>
      <trkpt lat="45.9388" lon="4.71699">
        <ele>174</ele>
        <time>2018-11-02T12:13:24Z</time>
      </trkpt>
      <trkpt lat="45.93874" lon="4.71701">
        <ele>174</ele>
        <time>2018-11-02T12:13:25Z</time>
      </trkpt>
      <trkpt lat="45.93868" lon="4.71704">
        <ele>174</ele>
        <time>2018-11-02T12:13:26Z</time>
      </trkpt>
      <trkpt lat="45.93862" lon="4.71705">
        <ele>174</ele>
        <time>2018-11-02T12:13:27Z</time>
      </trkpt>
      <trkpt lat="45.93856" lon="4.71707">
        <ele>174</ele>
        <time>2018-11-02T12:13:28Z</time>
      </trkpt>
      <trkpt lat="45.93849" lon="4.71711">
        <ele>174</ele>
        <time>2018-11-02T12:13:29Z</time>
      </trkpt>
      <trkpt lat="45.93842" lon="4.7171">
        <ele>174</ele>
        <time>2018-11-02T12:13:30Z</time>
      </trkpt>
      <trkpt lat="45.93833" lon="4.71713">
        <ele>175</ele>
        <time>2018-11-02T12:13:31Z</time>
      </trkpt>
      <trkpt lat="45.93825" lon="4.71714">
        <ele>175</ele>
        <time>2018-11-02T12:13:32Z</time>
      </trkpt>
      <trkpt lat="45.93818" lon="4.71718">
        <ele>175</ele>
        <time>2018-11-02T12:13:33Z</time>
      </trkpt>
      <trkpt lat="45.9381" lon="4.71723">
        <ele>175</ele>
        <time>2018-11-02T12:13:34Z</time>
      </trkpt>
      <trkpt lat="45.93803" lon="4.71726">
        <ele>175</ele>
        <time>2018-11-02T12:13:35Z</time>
      </trkpt>
      <trkpt lat="45.93796" lon="4.71729">
        <ele>175</ele>
        <time>2018-11-02T12:13:36Z</time>
      </trkpt>
      <trkpt lat="45.93789" lon="4.71732">
        <ele>175</ele>
        <time>2018-11-02T12:13:37Z</time>
      </trkpt>
      <trkpt lat="45.93782" lon="4.71736">
        <ele>175</ele>
        <time>2018-11-02T12:13:38Z</time>
      </trkpt>
      <trkpt lat="45.93774" lon="4.71738">
        <ele>175</ele>
        <time>2018-11-02T12:13:39Z</time>
      </trkpt>
      <trkpt lat="45.93767" lon="4.71742">
        <ele>175</ele>
        <time>2018-11-02T12:13:40Z</time>
      </trkpt>
      <trkpt lat="45.9376" lon="4.71745">
        <ele>175</ele>
        <time>2018-11-02T12:13:41Z</time>
      </trkpt>
      <trkpt lat="45.93753" lon="4.71747">
        <ele>175</ele>
        <time>2018-11-02T12:13:42Z</time>
      </trkpt>
      <trkpt lat="45.93748" lon="4.71748">
        <ele>175</ele>
        <time>2018-11-02T12:13:43Z</time>
      </trkpt>
      <trkpt lat="45.93741" lon="4.7175">
        <ele>175</ele>
        <time>2018-11-02T12:13:44Z</time>
      </trkpt>
      <trkpt lat="45.93735" lon="4.71754">
        <ele>176</ele>
        <time>2018-11-02T12:13:45Z</time>
      </trkpt>
      <trkpt lat="45.93729" lon="4.7176">
        <ele>176</ele>
        <time>2018-11-02T12:13:46Z</time>
      </trkpt>
      <trkpt lat="45.93725" lon="4.71765">
        <ele>176</ele>
        <time>2018-11-02T12:13:47Z</time>
      </trkpt>
      <trkpt lat="45.93721" lon="4.71773">
        <ele>176</ele>
        <time>2018-11-02T12:13:48Z</time>
      </trkpt>
      <trkpt lat="45.93718" lon="4.7178">
        <ele>176</ele>
        <time>2018-11-02T12:13:49Z</time>
      </trkpt>
      <trkpt lat="45.93716" lon="4.7179">
        <ele>176</ele>
        <time>2018-11-02T12:13:50Z</time>
      </trkpt>
      <trkpt lat="45.93713" lon="4.71798">
        <ele>176</ele>
        <time>2018-11-02T12:13:51Z</time>
      </trkpt>
      <trkpt lat="45.9371" lon="4.71805">
        <ele>176</ele>
        <time>2018-11-02T12:13:52Z</time>
      </trkpt>
      <trkpt lat="45.93704" lon="4.71817">
        <ele>176</ele>
        <time>2018-11-02T12:13:53Z</time>
      </trkpt>
      <trkpt lat="45.937" lon="4.71827">
        <ele>176</ele>
        <time>2018-11-02T12:13:54Z</time>
      </trkpt>
      <trkpt lat="45.93701" lon="4.71833">
        <ele>176</ele>
        <time>2018-11-02T12:13:55Z</time>
      </trkpt>
      <trkpt lat="45.93698" lon="4.71841">
        <ele>175</ele>
        <time>2018-11-02T12:13:56Z</time>
      </trkpt>
      <trkpt lat="45.93694" lon="4.71849">
        <ele>175</ele>
        <time>2018-11-02T12:13:57Z</time>
      </trkpt>
      <trkpt lat="45.93694" lon="4.71857">
        <ele>175</ele>
        <time>2018-11-02T12:13:58Z</time>
      </trkpt>
      <trkpt lat="45.93691" lon="4.71865">
        <ele>175</ele>
        <time>2018-11-02T12:13:59Z</time>
      </trkpt>
      <trkpt lat="45.93689" lon="4.71874">
        <ele>175</ele>
        <time>2018-11-02T12:14:01Z</time>
      </trkpt>
      <trkpt lat="45.9369" lon="4.71879">
        <ele>175</ele>
        <time>2018-11-02T12:14:02Z</time>
      </trkpt>
      <trkpt lat="45.93687" lon="4.71886">
        <ele>175</ele>
        <time>2018-11-02T12:14:03Z</time>
      </trkpt>
      <trkpt lat="45.93683" lon="4.71895">
        <ele>175</ele>
        <time>2018-11-02T12:14:04Z</time>
      </trkpt>
      <trkpt lat="45.93679" lon="4.71904">
        <ele>175</ele>
        <time>2018-11-02T12:14:05Z</time>
      </trkpt>
      <trkpt lat="45.93675" lon="4.71913">
        <ele>175</ele>
        <time>2018-11-02T12:14:06Z</time>
      </trkpt>
      <trkpt lat="45.93672" lon="4.71922">
        <ele>174</ele>
        <time>2018-11-02T12:14:07Z</time>
      </trkpt>
      <trkpt lat="45.93667" lon="4.71933">
        <ele>174</ele>
        <time>2018-11-02T12:14:08Z</time>
      </trkpt>
      <trkpt lat="45.93662" lon="4.71942">
        <ele>175</ele>
        <time>2018-11-02T12:14:09Z</time>
      </trkpt>
      <trkpt lat="45.93659" lon="4.71951">
        <ele>175</ele>
        <time>2018-11-02T12:14:10Z</time>
      </trkpt>
      <trkpt lat="45.93656" lon="4.71959">
        <ele>175</ele>
        <time>2018-11-02T12:14:11Z</time>
      </trkpt>
      <trkpt lat="45.93653" lon="4.71968">
        <ele>175</ele>
        <time>2018-11-02T12:14:12Z</time>
      </trkpt>
      <trkpt lat="45.93649" lon="4.71976">
        <ele>175</ele>
        <time>2018-11-02T12:14:13Z</time>
      </trkpt>
      <trkpt lat="45.93648" lon="4.71985">
        <ele>175</ele>
        <time>2018-11-02T12:14:14Z</time>
      </trkpt>
      <trkpt lat="45.93644" lon="4.71992">
        <ele>175</ele>
        <time>2018-11-02T12:14:15Z</time>
      </trkpt>
      <trkpt lat="45.93641" lon="4.72">
        <ele>175</ele>
        <time>2018-11-02T12:14:16Z</time>
      </trkpt>
      <trkpt lat="45.93638" lon="4.72008">
        <ele>174</ele>
        <time>2018-11-02T12:14:17Z</time>
      </trkpt>
      <trkpt lat="45.93635" lon="4.72015">
        <ele>174</ele>
        <time>2018-11-02T12:14:18Z</time>
      </trkpt>
      <trkpt lat="45.93632" lon="4.72025">
        <ele>174</ele>
        <time>2018-11-02T12:14:19Z</time>
      </trkpt>
      <trkpt lat="45.93629" lon="4.72032">
        <ele>174</ele>
        <time>2018-11-02T12:14:20Z</time>
      </trkpt>
      <trkpt lat="45.93626" lon="4.72039">
        <ele>174</ele>
        <time>2018-11-02T12:14:21Z</time>
      </trkpt>
      <trkpt lat="45.93623" lon="4.72047">
        <ele>175</ele>
        <time>2018-11-02T12:14:22Z</time>
      </trkpt>
      <trkpt lat="45.9362" lon="4.72052">
        <ele>175</ele>
        <time>2018-11-02T12:14:23Z</time>
      </trkpt>
      <trkpt lat="45.93618" lon="4.7206">
        <ele>175</ele>
        <time>2018-11-02T12:14:24Z</time>
      </trkpt>
      <trkpt lat="45.93616" lon="4.72066">
        <ele>175</ele>
        <time>2018-11-02T12:14:25Z</time>
      </trkpt>
      <trkpt lat="45.93614" lon="4.72074">
        <ele>175</ele>
        <time>2018-11-02T12:14:26Z</time>
      </trkpt>
      <trkpt lat="45.9361" lon="4.72081">
        <ele>175</ele>
        <time>2018-11-02T12:14:27Z</time>
      </trkpt>
      <trkpt lat="45.93607" lon="4.72089">
        <ele>174</ele>
        <time>2018-11-02T12:14:28Z</time>
      </trkpt>
      <trkpt lat="45.93604" lon="4.72096">
        <ele>174</ele>
        <time>2018-11-02T12:14:29Z</time>
      </trkpt>
      <trkpt lat="45.936" lon="4.72103">
        <ele>174</ele>
        <time>2018-11-02T12:14:30Z</time>
      </trkpt>
      <trkpt lat="45.93598" lon="4.72109">
        <ele>174</ele>
        <time>2018-11-02T12:14:31Z</time>
      </trkpt>
      <trkpt lat="45.93595" lon="4.72115">
        <ele>174</ele>
        <time>2018-11-02T12:14:32Z</time>
      </trkpt>
      <trkpt lat="45.93592" lon="4.72119">
        <ele>174</ele>
        <time>2018-11-02T12:14:33Z</time>
      </trkpt>
      <trkpt lat="45.93588" lon="4.72125">
        <ele>174</ele>
        <time>2018-11-02T12:14:34Z</time>
      </trkpt>
      <trkpt lat="45.93586" lon="4.72131">
        <ele>174</ele>
        <time>2018-11-02T12:14:35Z</time>
      </trkpt>
      <trkpt lat="45.93582" lon="4.7214">
        <ele>174</ele>
        <time>2018-11-02T12:14:36Z</time>
      </trkpt>
      <trkpt lat="45.9358" lon="4.72147">
        <ele>174</ele>
        <time>2018-11-02T12:14:37Z</time>
      </trkpt>
      <trkpt lat="45.93574" lon="4.72156">
        <ele>174</ele>
        <time>2018-11-02T12:14:38Z</time>
      </trkpt>
      <trkpt lat="45.93573" lon="4.72163">
        <ele>174</ele>
        <time>2018-11-02T12:14:39Z</time>
      </trkpt>
      <trkpt lat="45.9357" lon="4.72171">
        <ele>173</ele>
        <time>2018-11-02T12:14:40Z</time>
      </trkpt>
      <trkpt lat="45.93567" lon="4.72179">
        <ele>173</ele>
        <time>2018-11-02T12:14:41Z</time>
      </trkpt>
      <trkpt lat="45.93563" lon="4.72186">
        <ele>173</ele>
        <time>2018-11-02T12:14:42Z</time>
      </trkpt>
      <trkpt lat="45.9356" lon="4.72194">
        <ele>173</ele>
        <time>2018-11-02T12:14:43Z</time>
      </trkpt>
      <trkpt lat="45.93558" lon="4.72201">
        <ele>173</ele>
        <time>2018-11-02T12:14:44Z</time>
      </trkpt>
      <trkpt lat="45.93555" lon="4.72208">
        <ele>173</ele>
        <time>2018-11-02T12:14:45Z</time>
      </trkpt>
      <trkpt lat="45.93551" lon="4.72217">
        <ele>173</ele>
        <time>2018-11-02T12:14:46Z</time>
      </trkpt>
      <trkpt lat="45.93548" lon="4.72224">
        <ele>172</ele>
        <time>2018-11-02T12:14:47Z</time>
      </trkpt>
      <trkpt lat="45.93546" lon="4.72231">
        <ele>172</ele>
        <time>2018-11-02T12:14:48Z</time>
      </trkpt>
      <trkpt lat="45.93545" lon="4.72238">
        <ele>172</ele>
        <time>2018-11-02T12:14:49Z</time>
      </trkpt>
      <trkpt lat="45.93542" lon="4.72245">
        <ele>172</ele>
        <time>2018-11-02T12:14:50Z</time>
      </trkpt>
      <trkpt lat="45.9354" lon="4.72251">
        <ele>172</ele>
        <time>2018-11-02T12:14:51Z</time>
      </trkpt>
      <trkpt lat="45.93536" lon="4.72258">
        <ele>172</ele>
        <time>2018-11-02T12:14:52Z</time>
      </trkpt>
      <trkpt lat="45.93533" lon="4.72264">
        <ele>172</ele>
        <time>2018-11-02T12:14:53Z</time>
      </trkpt>
      <trkpt lat="45.93531" lon="4.72271">
        <ele>172</ele>
        <time>2018-11-02T12:14:54Z</time>
      </trkpt>
      <trkpt lat="45.93528" lon="4.72277">
        <ele>172</ele>
        <time>2018-11-02T12:14:55Z</time>
      </trkpt>
      <trkpt lat="45.93525" lon="4.72282">
        <ele>172</ele>
        <time>2018-11-02T12:14:56Z</time>
      </trkpt>
      <trkpt lat="45.93522" lon="4.72288">
        <ele>172</ele>
        <time>2018-11-02T12:14:57Z</time>
      </trkpt>
      <trkpt lat="45.93519" lon="4.72294">
        <ele>172</ele>
        <time>2018-11-02T12:14:58Z</time>
      </trkpt>
      <trkpt lat="45.93516" lon="4.723">
        <ele>172</ele>
        <time>2018-11-02T12:14:59Z</time>
      </trkpt>
      <trkpt lat="45.93512" lon="4.72307">
        <ele>173</ele>
        <time>2018-11-02T12:15:00Z</time>
      </trkpt>
      <trkpt lat="45.93507" lon="4.72313">
        <ele>173</ele>
        <time>2018-11-02T12:15:01Z</time>
      </trkpt>
      <trkpt lat="45.93503" lon="4.72318">
        <ele>173</ele>
        <time>2018-11-02T12:15:02Z</time>
      </trkpt>
      <trkpt lat="45.93499" lon="4.72324">
        <ele>173</ele>
        <time>2018-11-02T12:15:03Z</time>
      </trkpt>
      <trkpt lat="45.93494" lon="4.7233">
        <ele>173</ele>
        <time>2018-11-02T12:15:04Z</time>
      </trkpt>
      <trkpt lat="45.93491" lon="4.72335">
        <ele>173</ele>
        <time>2018-11-02T12:15:05Z</time>
      </trkpt>
      <trkpt lat="45.93486" lon="4.72341">
        <ele>173</ele>
        <time>2018-11-02T12:15:06Z</time>
      </trkpt>
      <trkpt lat="45.93482" lon="4.72346">
        <ele>173</ele>
        <time>2018-11-02T12:15:07Z</time>
      </trkpt>
      <trkpt lat="45.93478" lon="4.72351">
        <ele>173</ele>
        <time>2018-11-02T12:15:08Z</time>
      </trkpt>
      <trkpt lat="45.93474" lon="4.72357">
        <ele>173</ele>
        <time>2018-11-02T12:15:09Z</time>
      </trkpt>
      <trkpt lat="45.9347" lon="4.72363">
        <ele>173</ele>
        <time>2018-11-02T12:15:10Z</time>
      </trkpt>
      <trkpt lat="45.93466" lon="4.72368">
        <ele>173</ele>
        <time>2018-11-02T12:15:11Z</time>
      </trkpt>
      <trkpt lat="45.93462" lon="4.72374">
        <ele>173</ele>
        <time>2018-11-02T12:15:12Z</time>
      </trkpt>
      <trkpt lat="45.93458" lon="4.72379">
        <ele>173</ele>
        <time>2018-11-02T12:15:13Z</time>
      </trkpt>
      <trkpt lat="45.93453" lon="4.72385">
        <ele>173</ele>
        <time>2018-11-02T12:15:14Z</time>
      </trkpt>
      <trkpt lat="45.93449" lon="4.7239">
        <ele>173</ele>
        <time>2018-11-02T12:15:15Z</time>
      </trkpt>
      <trkpt lat="45.93444" lon="4.72393">
        <ele>173</ele>
        <time>2018-11-02T12:15:16Z</time>
      </trkpt>
      <trkpt lat="45.93439" lon="4.72396">
        <ele>173</ele>
        <time>2018-11-02T12:15:17Z</time>
      </trkpt>
      <trkpt lat="45.93434" lon="4.72399">
        <ele>174</ele>
        <time>2018-11-02T12:15:18Z</time>
      </trkpt>
      <trkpt lat="45.93428" lon="4.72401">
        <ele>174</ele>
        <time>2018-11-02T12:15:19Z</time>
      </trkpt>
      <trkpt lat="45.93423" lon="4.72402">
        <ele>174</ele>
        <time>2018-11-02T12:15:20Z</time>
      </trkpt>
      <trkpt lat="45.93418" lon="4.72404">
        <ele>174</ele>
        <time>2018-11-02T12:15:21Z</time>
      </trkpt>
      <trkpt lat="45.93412" lon="4.72407">
        <ele>174</ele>
        <time>2018-11-02T12:15:22Z</time>
      </trkpt>
      <trkpt lat="45.93406" lon="4.72408">
        <ele>174</ele>
        <time>2018-11-02T12:15:23Z</time>
      </trkpt>
      <trkpt lat="45.93401" lon="4.72407">
        <ele>174</ele>
        <time>2018-11-02T12:15:24Z</time>
      </trkpt>
      <trkpt lat="45.93395" lon="4.72406">
        <ele>174</ele>
        <time>2018-11-02T12:15:25Z</time>
      </trkpt>
      <trkpt lat="45.9339" lon="4.72408">
        <ele>174</ele>
        <time>2018-11-02T12:15:26Z</time>
      </trkpt>
      <trkpt lat="45.93386" lon="4.72413">
        <ele>174</ele>
        <time>2018-11-02T12:15:27Z</time>
      </trkpt>
      <trkpt lat="45.93384" lon="4.7242">
        <ele>173</ele>
        <time>2018-11-02T12:15:28Z</time>
      </trkpt>
      <trkpt lat="45.93384" lon="4.72428">
        <ele>173</ele>
        <time>2018-11-02T12:15:29Z</time>
      </trkpt>
      <trkpt lat="45.93388" lon="4.72436">
        <ele>173</ele>
        <time>2018-11-02T12:15:30Z</time>
      </trkpt>
      <trkpt lat="45.93391" lon="4.72442">
        <ele>173</ele>
        <time>2018-11-02T12:15:31Z</time>
      </trkpt>
      <trkpt lat="45.93392" lon="4.7245">
        <ele>173</ele>
        <time>2018-11-02T12:15:32Z</time>
      </trkpt>
      <trkpt lat="45.93391" lon="4.72459">
        <ele>173</ele>
        <time>2018-11-02T12:15:33Z</time>
      </trkpt>
      <trkpt lat="45.93389" lon="4.72466">
        <ele>173</ele>
        <time>2018-11-02T12:15:34Z</time>
      </trkpt>
      <trkpt lat="45.93385" lon="4.72471">
        <ele>173</ele>
        <time>2018-11-02T12:15:35Z</time>
      </trkpt>
      <trkpt lat="45.93381" lon="4.72477">
        <ele>173</ele>
        <time>2018-11-02T12:15:36Z</time>
      </trkpt>
      <trkpt lat="45.93377" lon="4.72482">
        <ele>173</ele>
        <time>2018-11-02T12:15:37Z</time>
      </trkpt>
      <trkpt lat="45.93372" lon="4.72488">
        <ele>173</ele>
        <time>2018-11-02T12:15:38Z</time>
      </trkpt>
      <trkpt lat="45.93367" lon="4.72494">
        <ele>173</ele>
        <time>2018-11-02T12:15:39Z</time>
      </trkpt>
      <trkpt lat="45.93362" lon="4.725">
        <ele>172</ele>
        <time>2018-11-02T12:15:40Z</time>
      </trkpt>
      <trkpt lat="45.93357" lon="4.72506">
        <ele>172</ele>
        <time>2018-11-02T12:15:41Z</time>
      </trkpt>
      <trkpt lat="45.93352" lon="4.72511">
        <ele>172</ele>
        <time>2018-11-02T12:15:42Z</time>
      </trkpt>
      <trkpt lat="45.93347" lon="4.72517">
        <ele>172</ele>
        <time>2018-11-02T12:15:43Z</time>
      </trkpt>
      <trkpt lat="45.93341" lon="4.72524">
        <ele>172</ele>
        <time>2018-11-02T12:15:44Z</time>
      </trkpt>
      <trkpt lat="45.93336" lon="4.72529">
        <ele>172</ele>
        <time>2018-11-02T12:15:45Z</time>
      </trkpt>
      <trkpt lat="45.9333" lon="4.72535">
        <ele>172</ele>
        <time>2018-11-02T12:15:46Z</time>
      </trkpt>
      <trkpt lat="45.93326" lon="4.72541">
        <ele>172</ele>
        <time>2018-11-02T12:15:47Z</time>
      </trkpt>
      <trkpt lat="45.93319" lon="4.72548">
        <ele>172</ele>
        <time>2018-11-02T12:15:48Z</time>
      </trkpt>
      <trkpt lat="45.93314" lon="4.72553">
        <ele>172</ele>
        <time>2018-11-02T12:15:49Z</time>
      </trkpt>
      <trkpt lat="45.9331" lon="4.72558">
        <ele>172</ele>
        <time>2018-11-02T12:15:50Z</time>
      </trkpt>
      <trkpt lat="45.93306" lon="4.72563">
        <ele>171</ele>
        <time>2018-11-02T12:15:51Z</time>
      </trkpt>
      <trkpt lat="45.93302" lon="4.72568">
        <ele>171</ele>
        <time>2018-11-02T12:15:52Z</time>
      </trkpt>
      <trkpt lat="45.93298" lon="4.72573">
        <ele>171</ele>
        <time>2018-11-02T12:15:53Z</time>
      </trkpt>
      <trkpt lat="45.93294" lon="4.72577">
        <ele>171</ele>
        <time>2018-11-02T12:15:54Z</time>
      </trkpt>
      <trkpt lat="45.93289" lon="4.72583">
        <ele>171</ele>
        <time>2018-11-02T12:15:55Z</time>
      </trkpt>
      <trkpt lat="45.93284" lon="4.72589">
        <ele>170</ele>
        <time>2018-11-02T12:15:56Z</time>
      </trkpt>
      <trkpt lat="45.93279" lon="4.72594">
        <ele>170</ele>
        <time>2018-11-02T12:15:57Z</time>
      </trkpt>
      <trkpt lat="45.93275" lon="4.72602">
        <ele>170</ele>
        <time>2018-11-02T12:15:58Z</time>
      </trkpt>
      <trkpt lat="45.9327" lon="4.72606">
        <ele>170</ele>
        <time>2018-11-02T12:15:59Z</time>
      </trkpt>
      <trkpt lat="45.93264" lon="4.72611">
        <ele>170</ele>
        <time>2018-11-02T12:16:00Z</time>
      </trkpt>
      <trkpt lat="45.93259" lon="4.72617">
        <ele>170</ele>
        <time>2018-11-02T12:16:01Z</time>
      </trkpt>
      <trkpt lat="45.93255" lon="4.72623">
        <ele>170</ele>
        <time>2018-11-02T12:16:02Z</time>
      </trkpt>
      <trkpt lat="45.9325" lon="4.72628">
        <ele>170</ele>
        <time>2018-11-02T12:16:03Z</time>
      </trkpt>
      <trkpt lat="45.93245" lon="4.72632">
        <ele>170</ele>
        <time>2018-11-02T12:16:04Z</time>
      </trkpt>
      <trkpt lat="45.93241" lon="4.72638">
        <ele>170</ele>
        <time>2018-11-02T12:16:05Z</time>
      </trkpt>
      <trkpt lat="45.93236" lon="4.72643">
        <ele>170</ele>
        <time>2018-11-02T12:16:06Z</time>
      </trkpt>
      <trkpt lat="45.93232" lon="4.72649">
        <ele>170</ele>
        <time>2018-11-02T12:16:07Z</time>
      </trkpt>
      <trkpt lat="45.93227" lon="4.72656">
        <ele>170</ele>
        <time>2018-11-02T12:16:08Z</time>
      </trkpt>
      <trkpt lat="45.93222" lon="4.72662">
        <ele>170</ele>
        <time>2018-11-02T12:16:09Z</time>
      </trkpt>
      <trkpt lat="45.93217" lon="4.72667">
        <ele>170</ele>
        <time>2018-11-02T12:16:10Z</time>
      </trkpt>
      <trkpt lat="45.93213" lon="4.72672">
        <ele>169</ele>
        <time>2018-11-02T12:16:11Z</time>
      </trkpt>
      <trkpt lat="45.93207" lon="4.72679">
        <ele>169</ele>
        <time>2018-11-02T12:16:12Z</time>
      </trkpt>
      <trkpt lat="45.93201" lon="4.72684">
        <ele>169</ele>
        <time>2018-11-02T12:16:13Z</time>
      </trkpt>
      <trkpt lat="45.93197" lon="4.72689">
        <ele>169</ele>
        <time>2018-11-02T12:16:14Z</time>
      </trkpt>
      <trkpt lat="45.93192" lon="4.72696">
        <ele>169</ele>
        <time>2018-11-02T12:16:15Z</time>
      </trkpt>
      <trkpt lat="45.93187" lon="4.72702">
        <ele>169</ele>
        <time>2018-11-02T12:16:16Z</time>
      </trkpt>
      <trkpt lat="45.93183" lon="4.72708">
        <ele>169</ele>
        <time>2018-11-02T12:16:17Z</time>
      </trkpt>
      <trkpt lat="45.93178" lon="4.72714">
        <ele>169</ele>
        <time>2018-11-02T12:16:18Z</time>
      </trkpt>
      <trkpt lat="45.93173" lon="4.7272">
        <ele>170</ele>
        <time>2018-11-02T12:16:19Z</time>
      </trkpt>
      <trkpt lat="45.93168" lon="4.72725">
        <ele>170</ele>
        <time>2018-11-02T12:16:20Z</time>
      </trkpt>
      <trkpt lat="45.93163" lon="4.72732">
        <ele>170</ele>
        <time>2018-11-02T12:16:21Z</time>
      </trkpt>
      <trkpt lat="45.93158" lon="4.72737">
        <ele>170</ele>
        <time>2018-11-02T12:16:22Z</time>
      </trkpt>
      <trkpt lat="45.93153" lon="4.72743">
        <ele>170</ele>
        <time>2018-11-02T12:16:23Z</time>
      </trkpt>
      <trkpt lat="45.93148" lon="4.7275">
        <ele>170</ele>
        <time>2018-11-02T12:16:24Z</time>
      </trkpt>
      <trkpt lat="45.93142" lon="4.72757">
        <ele>171</ele>
        <time>2018-11-02T12:16:25Z</time>
      </trkpt>
      <trkpt lat="45.93136" lon="4.72763">
        <ele>171</ele>
        <time>2018-11-02T12:16:26Z</time>
      </trkpt>
      <trkpt lat="45.93131" lon="4.7277">
        <ele>171</ele>
        <time>2018-11-02T12:16:27Z</time>
      </trkpt>
      <trkpt lat="45.93126" lon="4.72776">
        <ele>171</ele>
        <time>2018-11-02T12:16:28Z</time>
      </trkpt>
      <trkpt lat="45.93121" lon="4.72783">
        <ele>171</ele>
        <time>2018-11-02T12:16:29Z</time>
      </trkpt>
      <trkpt lat="45.93116" lon="4.72789">
        <ele>171</ele>
        <time>2018-11-02T12:16:30Z</time>
      </trkpt>
      <trkpt lat="45.93111" lon="4.72795">
        <ele>171</ele>
        <time>2018-11-02T12:16:31Z</time>
      </trkpt>
      <trkpt lat="45.93106" lon="4.72803">
        <ele>171</ele>
        <time>2018-11-02T12:16:32Z</time>
      </trkpt>
      <trkpt lat="45.93101" lon="4.72808">
        <ele>172</ele>
        <time>2018-11-02T12:16:33Z</time>
      </trkpt>
      <trkpt lat="45.93095" lon="4.72814">
        <ele>172</ele>
        <time>2018-11-02T12:16:34Z</time>
      </trkpt>
      <trkpt lat="45.9309" lon="4.72819">
        <ele>172</ele>
        <time>2018-11-02T12:16:35Z</time>
      </trkpt>
      <trkpt lat="45.93085" lon="4.72825">
        <ele>172</ele>
        <time>2018-11-02T12:16:36Z</time>
      </trkpt>
      <trkpt lat="45.93081" lon="4.7283">
        <ele>173</ele>
        <time>2018-11-02T12:16:37Z</time>
      </trkpt>
      <trkpt lat="45.93076" lon="4.72835">
        <ele>173</ele>
        <time>2018-11-02T12:16:38Z</time>
      </trkpt>
      <trkpt lat="45.93072" lon="4.7284">
        <ele>173</ele>
        <time>2018-11-02T12:16:39Z</time>
      </trkpt>
      <trkpt lat="45.93068" lon="4.72846">
        <ele>172</ele>
        <time>2018-11-02T12:16:40Z</time>
      </trkpt>
      <trkpt lat="45.93063" lon="4.72851">
        <ele>172</ele>
        <time>2018-11-02T12:16:41Z</time>
      </trkpt>
      <trkpt lat="45.93054" lon="4.72857">
        <ele>172</ele>
        <time>2018-11-02T12:16:43Z</time>
      </trkpt>
      <trkpt lat="45.93049" lon="4.72861">
        <ele>172</ele>
        <time>2018-11-02T12:16:44Z</time>
      </trkpt>
      <trkpt lat="45.93041" lon="4.72865">
        <ele>172</ele>
        <time>2018-11-02T12:16:45Z</time>
      </trkpt>
      <trkpt lat="45.93035" lon="4.72874">
        <ele>172</ele>
        <time>2018-11-02T12:16:47Z</time>
      </trkpt>
      <trkpt lat="45.9303" lon="4.72881">
        <ele>172</ele>
        <time>2018-11-02T12:16:48Z</time>
      </trkpt>
      <trkpt lat="45.93025" lon="4.72887">
        <ele>172</ele>
        <time>2018-11-02T12:16:49Z</time>
      </trkpt>
      <trkpt lat="45.9302" lon="4.72893">
        <ele>172</ele>
        <time>2018-11-02T12:16:50Z</time>
      </trkpt>
      <trkpt lat="45.93014" lon="4.72899">
        <ele>172</ele>
        <time>2018-11-02T12:16:51Z</time>
      </trkpt>
      <trkpt lat="45.9301" lon="4.72906">
        <ele>171</ele>
        <time>2018-11-02T12:16:52Z</time>
      </trkpt>
      <trkpt lat="45.93005" lon="4.72911">
        <ele>171</ele>
        <time>2018-11-02T12:16:53Z</time>
      </trkpt>
      <trkpt lat="45.93" lon="4.72917">
        <ele>171</ele>
        <time>2018-11-02T12:16:54Z</time>
      </trkpt>
      <trkpt lat="45.92994" lon="4.72923">
        <ele>171</ele>
        <time>2018-11-02T12:16:55Z</time>
      </trkpt>
      <trkpt lat="45.9299" lon="4.72928">
        <ele>171</ele>
        <time>2018-11-02T12:16:56Z</time>
      </trkpt>
      <trkpt lat="45.92985" lon="4.72934">
        <ele>171</ele>
        <time>2018-11-02T12:16:57Z</time>
      </trkpt>
      <trkpt lat="45.9298" lon="4.72939">
        <ele>171</ele>
        <time>2018-11-02T12:16:58Z</time>
      </trkpt>
      <trkpt lat="45.92975" lon="4.72944">
        <ele>171</ele>
        <time>2018-11-02T12:16:59Z</time>
      </trkpt>
      <trkpt lat="45.9297" lon="4.7295">
        <ele>171</ele>
        <time>2018-11-02T12:17:00Z</time>
      </trkpt>
      <trkpt lat="45.92965" lon="4.72956">
        <ele>171</ele>
        <time>2018-11-02T12:17:01Z</time>
      </trkpt>
      <trkpt lat="45.92961" lon="4.72961">
        <ele>171</ele>
        <time>2018-11-02T12:17:02Z</time>
      </trkpt>
      <trkpt lat="45.92956" lon="4.72968">
        <ele>171</ele>
        <time>2018-11-02T12:17:03Z</time>
      </trkpt>
      <trkpt lat="45.92952" lon="4.72974">
        <ele>171</ele>
        <time>2018-11-02T12:17:04Z</time>
      </trkpt>
      <trkpt lat="45.92948" lon="4.7298">
        <ele>171</ele>
        <time>2018-11-02T12:17:05Z</time>
      </trkpt>
      <trkpt lat="45.92942" lon="4.72986">
        <ele>171</ele>
        <time>2018-11-02T12:17:06Z</time>
      </trkpt>
      <trkpt lat="45.92938" lon="4.72992">
        <ele>171</ele>
        <time>2018-11-02T12:17:07Z</time>
      </trkpt>
      <trkpt lat="45.92933" lon="4.72997">
        <ele>172</ele>
        <time>2018-11-02T12:17:08Z</time>
      </trkpt>
      <trkpt lat="45.92929" lon="4.73004">
        <ele>172</ele>
        <time>2018-11-02T12:17:09Z</time>
      </trkpt>
      <trkpt lat="45.92924" lon="4.73009">
        <ele>172</ele>
        <time>2018-11-02T12:17:10Z</time>
      </trkpt>
      <trkpt lat="45.9292" lon="4.73015">
        <ele>172</ele>
        <time>2018-11-02T12:17:11Z</time>
      </trkpt>
      <trkpt lat="45.92916" lon="4.7302">
        <ele>172</ele>
        <time>2018-11-02T12:17:12Z</time>
      </trkpt>
      <trkpt lat="45.92912" lon="4.73026">
        <ele>172</ele>
        <time>2018-11-02T12:17:13Z</time>
      </trkpt>
      <trkpt lat="45.92907" lon="4.73031">
        <ele>172</ele>
        <time>2018-11-02T12:17:14Z</time>
      </trkpt>
      <trkpt lat="45.92903" lon="4.73036">
        <ele>172</ele>
        <time>2018-11-02T12:17:15Z</time>
      </trkpt>
      <trkpt lat="45.929" lon="4.73041">
        <ele>172</ele>
        <time>2018-11-02T12:17:16Z</time>
      </trkpt>
      <trkpt lat="45.92896" lon="4.73046">
        <ele>172</ele>
        <time>2018-11-02T12:17:17Z</time>
      </trkpt>
      <trkpt lat="45.92893" lon="4.7305">
        <ele>172</ele>
        <time>2018-11-02T12:17:18Z</time>
      </trkpt>
      <trkpt lat="45.92888" lon="4.73059">
        <ele>172</ele>
        <time>2018-11-02T12:17:20Z</time>
      </trkpt>
      <trkpt lat="45.92885" lon="4.73064">
        <ele>172</ele>
        <time>2018-11-02T12:17:21Z</time>
      </trkpt>
      <trkpt lat="45.92881" lon="4.73069">
        <ele>172</ele>
        <time>2018-11-02T12:17:22Z</time>
      </trkpt>
      <trkpt lat="45.92878" lon="4.73074">
        <ele>172</ele>
        <time>2018-11-02T12:17:23Z</time>
      </trkpt>
      <trkpt lat="45.92874" lon="4.73078">
        <ele>172</ele>
        <time>2018-11-02T12:17:24Z</time>
      </trkpt>
      <trkpt lat="45.92871" lon="4.73084">
        <ele>172</ele>
        <time>2018-11-02T12:17:25Z</time>
      </trkpt>
      <trkpt lat="45.92867" lon="4.73088">
        <ele>172</ele>
        <time>2018-11-02T12:17:26Z</time>
      </trkpt>
      <trkpt lat="45.92863" lon="4.73092">
        <ele>171</ele>
        <time>2018-11-02T12:17:27Z</time>
      </trkpt>
      <trkpt lat="45.92856" lon="4.73099">
        <ele>171</ele>
        <time>2018-11-02T12:17:29Z</time>
      </trkpt>
      <trkpt lat="45.92854" lon="4.731">
        <ele>171</ele>
        <time>2018-11-02T12:17:30Z</time>
      </trkpt>
      <trkpt lat="45.92846" lon="4.73096">
        <ele>171</ele>
        <time>2018-11-02T12:17:32Z</time>
      </trkpt>
      <trkpt lat="45.92846" lon="4.7309">
        <ele>171</ele>
        <time>2018-11-02T12:17:33Z</time>
      </trkpt>
      <trkpt lat="45.92844" lon="4.73079">
        <ele>171</ele>
        <time>2018-11-02T12:17:35Z</time>
      </trkpt>
      <trkpt lat="45.92843" lon="4.73072">
        <ele>171</ele>
        <time>2018-11-02T12:17:36Z</time>
      </trkpt>
      <trkpt lat="45.92842" lon="4.73065">
        <ele>171</ele>
        <time>2018-11-02T12:17:37Z</time>
      </trkpt>
      <trkpt lat="45.92841" lon="4.73058">
        <ele>171</ele>
        <time>2018-11-02T12:17:38Z</time>
      </trkpt>
      <trkpt lat="45.92839" lon="4.7305">
        <ele>171</ele>
        <time>2018-11-02T12:17:39Z</time>
      </trkpt>
      <trkpt lat="45.92837" lon="4.73043">
        <ele>171</ele>
        <time>2018-11-02T12:17:40Z</time>
      </trkpt>
      <trkpt lat="45.92835" lon="4.73035">
        <ele>171</ele>
        <time>2018-11-02T12:17:41Z</time>
      </trkpt>
      <trkpt lat="45.92834" lon="4.73026">
        <ele>171</ele>
        <time>2018-11-02T12:17:42Z</time>
      </trkpt>
      <trkpt lat="45.92834" lon="4.73016">
        <ele>171</ele>
        <time>2018-11-02T12:17:43Z</time>
      </trkpt>
      <trkpt lat="45.92833" lon="4.73007">
        <ele>170</ele>
        <time>2018-11-02T12:17:44Z</time>
      </trkpt>
      <trkpt lat="45.92832" lon="4.72997">
        <ele>170</ele>
        <time>2018-11-02T12:17:45Z</time>
      </trkpt>
      <trkpt lat="45.9283" lon="4.72988">
        <ele>170</ele>
        <time>2018-11-02T12:17:46Z</time>
      </trkpt>
      <trkpt lat="45.92829" lon="4.72979">
        <ele>170</ele>
        <time>2018-11-02T12:17:47Z</time>
      </trkpt>
      <trkpt lat="45.92828" lon="4.72969">
        <ele>170</ele>
        <time>2018-11-02T12:17:48Z</time>
      </trkpt>
      <trkpt lat="45.92828" lon="4.72961">
        <ele>170</ele>
        <time>2018-11-02T12:17:49Z</time>
      </trkpt>
      <trkpt lat="45.92828" lon="4.72954">
        <ele>170</ele>
        <time>2018-11-02T12:17:50Z</time>
      </trkpt>
      <trkpt lat="45.92827" lon="4.72946">
        <ele>170</ele>
        <time>2018-11-02T12:17:51Z</time>
      </trkpt>
      <trkpt lat="45.92825" lon="4.72938">
        <ele>170</ele>
        <time>2018-11-02T12:17:52Z</time>
      </trkpt>
      <trkpt lat="45.92825" lon="4.72931">
        <ele>170</ele>
        <time>2018-11-02T12:17:53Z</time>
      </trkpt>
      <trkpt lat="45.92825" lon="4.72924">
        <ele>170</ele>
        <time>2018-11-02T12:17:54Z</time>
      </trkpt>
      <trkpt lat="45.92823" lon="4.72917">
        <ele>170</ele>
        <time>2018-11-02T12:17:55Z</time>
      </trkpt>
      <trkpt lat="45.92823" lon="4.7291">
        <ele>170</ele>
        <time>2018-11-02T12:17:56Z</time>
      </trkpt>
      <trkpt lat="45.92822" lon="4.72901">
        <ele>170</ele>
        <time>2018-11-02T12:17:57Z</time>
      </trkpt>
      <trkpt lat="45.92821" lon="4.72893">
        <ele>170</ele>
        <time>2018-11-02T12:17:58Z</time>
      </trkpt>
      <trkpt lat="45.92819" lon="4.72887">
        <ele>170</ele>
        <time>2018-11-02T12:17:59Z</time>
      </trkpt>
      <trkpt lat="45.92818" lon="4.72879">
        <ele>170</ele>
        <time>2018-11-02T12:18:00Z</time>
      </trkpt>
      <trkpt lat="45.92815" lon="4.7287">
        <ele>170</ele>
        <time>2018-11-02T12:18:01Z</time>
      </trkpt>
      <trkpt lat="45.92813" lon="4.72862">
        <ele>170</ele>
        <time>2018-11-02T12:18:02Z</time>
      </trkpt>
      <trkpt lat="45.92812" lon="4.72855">
        <ele>170</ele>
        <time>2018-11-02T12:18:03Z</time>
      </trkpt>
      <trkpt lat="45.92811" lon="4.72847">
        <ele>170</ele>
        <time>2018-11-02T12:18:04Z</time>
      </trkpt>
      <trkpt lat="45.92809" lon="4.72839">
        <ele>170</ele>
        <time>2018-11-02T12:18:05Z</time>
      </trkpt>
      <trkpt lat="45.92807" lon="4.72831">
        <ele>171</ele>
        <time>2018-11-02T12:18:06Z</time>
      </trkpt>
      <trkpt lat="45.92805" lon="4.72819">
        <ele>171</ele>
        <time>2018-11-02T12:18:08Z</time>
      </trkpt>
      <trkpt lat="45.92804" lon="4.72813">
        <ele>171</ele>
        <time>2018-11-02T12:18:09Z</time>
      </trkpt>
      <trkpt lat="45.92802" lon="4.72802">
        <ele>171</ele>
        <time>2018-11-02T12:18:11Z</time>
      </trkpt>
      <trkpt lat="45.92801" lon="4.72796">
        <ele>171</ele>
        <time>2018-11-02T12:18:12Z</time>
      </trkpt>
      <trkpt lat="45.92796" lon="4.72788">
        <ele>171</ele>
        <time>2018-11-02T12:18:14Z</time>
      </trkpt>
      <trkpt lat="45.92792" lon="4.72788">
        <ele>171</ele>
        <time>2018-11-02T12:18:15Z</time>
      </trkpt>
      <trkpt lat="45.92785" lon="4.72792">
        <ele>170</ele>
        <time>2018-11-02T12:18:17Z</time>
      </trkpt>
      <trkpt lat="45.92781" lon="4.72794">
        <ele>170</ele>
        <time>2018-11-02T12:18:18Z</time>
      </trkpt>
      <trkpt lat="45.92778" lon="4.72797">
        <ele>170</ele>
        <time>2018-11-02T12:18:19Z</time>
      </trkpt>
      <trkpt lat="45.92774" lon="4.72801">
        <ele>170</ele>
        <time>2018-11-02T12:18:20Z</time>
      </trkpt>
      <trkpt lat="45.9277" lon="4.72805">
        <ele>170</ele>
        <time>2018-11-02T12:18:21Z</time>
      </trkpt>
      <trkpt lat="45.92764" lon="4.7281">
        <ele>170</ele>
        <time>2018-11-02T12:18:22Z</time>
      </trkpt>
      <trkpt lat="45.9276" lon="4.72813">
        <ele>170</ele>
        <time>2018-11-02T12:18:23Z</time>
      </trkpt>
      <trkpt lat="45.92755" lon="4.72816">
        <ele>170</ele>
        <time>2018-11-02T12:18:24Z</time>
      </trkpt>
      <trkpt lat="45.92752" lon="4.7282">
        <ele>170</ele>
        <time>2018-11-02T12:18:25Z</time>
      </trkpt>
      <trkpt lat="45.92747" lon="4.72823">
        <ele>169</ele>
        <time>2018-11-02T12:18:26Z</time>
      </trkpt>
      <trkpt lat="45.92743" lon="4.72828">
        <ele>169</ele>
        <time>2018-11-02T12:18:27Z</time>
      </trkpt>
      <trkpt lat="45.92737" lon="4.72832">
        <ele>169</ele>
        <time>2018-11-02T12:18:28Z</time>
      </trkpt>
      <trkpt lat="45.92732" lon="4.72835">
        <ele>169</ele>
        <time>2018-11-02T12:18:29Z</time>
      </trkpt>
      <trkpt lat="45.92727" lon="4.72839">
        <ele>169</ele>
        <time>2018-11-02T12:18:30Z</time>
      </trkpt>
      <trkpt lat="45.92723" lon="4.72843">
        <ele>169</ele>
        <time>2018-11-02T12:18:31Z</time>
      </trkpt>
      <trkpt lat="45.92718" lon="4.72847">
        <ele>169</ele>
        <time>2018-11-02T12:18:32Z</time>
      </trkpt>
      <trkpt lat="45.92713" lon="4.7285">
        <ele>169</ele>
        <time>2018-11-02T12:18:33Z</time>
      </trkpt>
      <trkpt lat="45.92708" lon="4.72854">
        <ele>169</ele>
        <time>2018-11-02T12:18:34Z</time>
      </trkpt>
      <trkpt lat="45.92703" lon="4.72857">
        <ele>169</ele>
        <time>2018-11-02T12:18:35Z</time>
      </trkpt>
      <trkpt lat="45.92699" lon="4.7286">
        <ele>169</ele>
        <time>2018-11-02T12:18:36Z</time>
      </trkpt>
      <trkpt lat="45.92694" lon="4.72863">
        <ele>169</ele>
        <time>2018-11-02T12:18:37Z</time>
      </trkpt>
      <trkpt lat="45.92689" lon="4.72867">
        <ele>169</ele>
        <time>2018-11-02T12:18:38Z</time>
      </trkpt>
      <trkpt lat="45.92684" lon="4.7287">
        <ele>169</ele>
        <time>2018-11-02T12:18:39Z</time>
      </trkpt>
      <trkpt lat="45.92679" lon="4.72875">
        <ele>169</ele>
        <time>2018-11-02T12:18:40Z</time>
      </trkpt>
      <trkpt lat="45.92673" lon="4.72879">
        <ele>170</ele>
        <time>2018-11-02T12:18:41Z</time>
      </trkpt>
      <trkpt lat="45.92668" lon="4.72884">
        <ele>170</ele>
        <time>2018-11-02T12:18:42Z</time>
      </trkpt>
      <trkpt lat="45.92662" lon="4.72888">
        <ele>169</ele>
        <time>2018-11-02T12:18:43Z</time>
      </trkpt>
      <trkpt lat="45.92655" lon="4.72893">
        <ele>169</ele>
        <time>2018-11-02T12:18:44Z</time>
      </trkpt>
      <trkpt lat="45.92649" lon="4.72897">
        <ele>169</ele>
        <time>2018-11-02T12:18:45Z</time>
      </trkpt>
      <trkpt lat="45.92643" lon="4.72902">
        <ele>169</ele>
        <time>2018-11-02T12:18:46Z</time>
      </trkpt>
      <trkpt lat="45.92637" lon="4.72909">
        <ele>169</ele>
        <time>2018-11-02T12:18:47Z</time>
      </trkpt>
      <trkpt lat="45.9263" lon="4.72915">
        <ele>169</ele>
        <time>2018-11-02T12:18:48Z</time>
      </trkpt>
      <trkpt lat="45.92625" lon="4.7292">
        <ele>169</ele>
        <time>2018-11-02T12:18:49Z</time>
      </trkpt>
      <trkpt lat="45.92619" lon="4.72925">
        <ele>169</ele>
        <time>2018-11-02T12:18:50Z</time>
      </trkpt>
      <trkpt lat="45.92612" lon="4.72931">
        <ele>169</ele>
        <time>2018-11-02T12:18:51Z</time>
      </trkpt>
      <trkpt lat="45.92607" lon="4.72937">
        <ele>169</ele>
        <time>2018-11-02T12:18:52Z</time>
      </trkpt>
      <trkpt lat="45.926" lon="4.72944">
        <ele>169</ele>
        <time>2018-11-02T12:18:53Z</time>
      </trkpt>
      <trkpt lat="45.92594" lon="4.7295">
        <ele>169</ele>
        <time>2018-11-02T12:18:54Z</time>
      </trkpt>
      <trkpt lat="45.92587" lon="4.72957">
        <ele>169</ele>
        <time>2018-11-02T12:18:55Z</time>
      </trkpt>
      <trkpt lat="45.92582" lon="4.72965">
        <ele>169</ele>
        <time>2018-11-02T12:18:56Z</time>
      </trkpt>
      <trkpt lat="45.92575" lon="4.72971">
        <ele>169</ele>
        <time>2018-11-02T12:18:57Z</time>
      </trkpt>
      <trkpt lat="45.9257" lon="4.72978">
        <ele>169</ele>
        <time>2018-11-02T12:18:58Z</time>
      </trkpt>
      <trkpt lat="45.92564" lon="4.72984">
        <ele>169</ele>
        <time>2018-11-02T12:18:59Z</time>
      </trkpt>
      <trkpt lat="45.92556" lon="4.72992">
        <ele>169</ele>
        <time>2018-11-02T12:19:00Z</time>
      </trkpt>
      <trkpt lat="45.9255" lon="4.72997">
        <ele>169</ele>
        <time>2018-11-02T12:19:01Z</time>
      </trkpt>
      <trkpt lat="45.92544" lon="4.73003">
        <ele>169</ele>
        <time>2018-11-02T12:19:02Z</time>
      </trkpt>
      <trkpt lat="45.92537" lon="4.73009">
        <ele>169</ele>
        <time>2018-11-02T12:19:03Z</time>
      </trkpt>
      <trkpt lat="45.92531" lon="4.73016">
        <ele>169</ele>
        <time>2018-11-02T12:19:04Z</time>
      </trkpt>
      <trkpt lat="45.92524" lon="4.73022">
        <ele>169</ele>
        <time>2018-11-02T12:19:05Z</time>
      </trkpt>
      <trkpt lat="45.92518" lon="4.73028">
        <ele>169</ele>
        <time>2018-11-02T12:19:06Z</time>
      </trkpt>
      <trkpt lat="45.92512" lon="4.73033">
        <ele>169</ele>
        <time>2018-11-02T12:19:07Z</time>
      </trkpt>
      <trkpt lat="45.92506" lon="4.73038">
        <ele>169</ele>
        <time>2018-11-02T12:19:08Z</time>
      </trkpt>
      <trkpt lat="45.92501" lon="4.73043">
        <ele>170</ele>
        <time>2018-11-02T12:19:09Z</time>
      </trkpt>
      <trkpt lat="45.92495" lon="4.73048">
        <ele>170</ele>
        <time>2018-11-02T12:19:10Z</time>
      </trkpt>
      <trkpt lat="45.92489" lon="4.73053">
        <ele>170</ele>
        <time>2018-11-02T12:19:11Z</time>
      </trkpt>
      <trkpt lat="45.92483" lon="4.73058">
        <ele>170</ele>
        <time>2018-11-02T12:19:12Z</time>
      </trkpt>
      <trkpt lat="45.92478" lon="4.73062">
        <ele>170</ele>
        <time>2018-11-02T12:19:13Z</time>
      </trkpt>
      <trkpt lat="45.92473" lon="4.73066">
        <ele>170</ele>
        <time>2018-11-02T12:19:14Z</time>
      </trkpt>
      <trkpt lat="45.92467" lon="4.73071">
        <ele>170</ele>
        <time>2018-11-02T12:19:15Z</time>
      </trkpt>
      <trkpt lat="45.92462" lon="4.73075">
        <ele>170</ele>
        <time>2018-11-02T12:19:16Z</time>
      </trkpt>
      <trkpt lat="45.92458" lon="4.7308">
        <ele>170</ele>
        <time>2018-11-02T12:19:17Z</time>
      </trkpt>
      <trkpt lat="45.92454" lon="4.73084">
        <ele>170</ele>
        <time>2018-11-02T12:19:18Z</time>
      </trkpt>
      <trkpt lat="45.92449" lon="4.73089">
        <ele>170</ele>
        <time>2018-11-02T12:19:19Z</time>
      </trkpt>
      <trkpt lat="45.92445" lon="4.73092">
        <ele>170</ele>
        <time>2018-11-02T12:19:20Z</time>
      </trkpt>
      <trkpt lat="45.9244" lon="4.73096">
        <ele>170</ele>
        <time>2018-11-02T12:19:21Z</time>
      </trkpt>
      <trkpt lat="45.92435" lon="4.73098">
        <ele>171</ele>
        <time>2018-11-02T12:19:22Z</time>
      </trkpt>
      <trkpt lat="45.92431" lon="4.73102">
        <ele>171</ele>
        <time>2018-11-02T12:19:23Z</time>
      </trkpt>
      <trkpt lat="45.92426" lon="4.73106">
        <ele>171</ele>
        <time>2018-11-02T12:19:24Z</time>
      </trkpt>
      <trkpt lat="45.92422" lon="4.7311">
        <ele>170</ele>
        <time>2018-11-02T12:19:25Z</time>
      </trkpt>
      <trkpt lat="45.92418" lon="4.73114">
        <ele>170</ele>
        <time>2018-11-02T12:19:26Z</time>
      </trkpt>
      <trkpt lat="45.92412" lon="4.73123">
        <ele>171</ele>
        <time>2018-11-02T12:19:28Z</time>
      </trkpt>
      <trkpt lat="45.9241" lon="4.73129">
        <ele>171</ele>
        <time>2018-11-02T12:19:29Z</time>
      </trkpt>
      <trkpt lat="45.9241" lon="4.73136">
        <ele>171</ele>
        <time>2018-11-02T12:19:30Z</time>
      </trkpt>
      <trkpt lat="45.92409" lon="4.73143">
        <ele>171</ele>
        <time>2018-11-02T12:19:31Z</time>
      </trkpt>
      <trkpt lat="45.92408" lon="4.7315">
        <ele>171</ele>
        <time>2018-11-02T12:19:32Z</time>
      </trkpt>
      <trkpt lat="45.92408" lon="4.73157">
        <ele>170</ele>
        <time>2018-11-02T12:19:33Z</time>
      </trkpt>
      <trkpt lat="45.92408" lon="4.73165">
        <ele>170</ele>
        <time>2018-11-02T12:19:34Z</time>
      </trkpt>
      <trkpt lat="45.92408" lon="4.73171">
        <ele>170</ele>
        <time>2018-11-02T12:19:35Z</time>
      </trkpt>
      <trkpt lat="45.92408" lon="4.73179">
        <ele>171</ele>
        <time>2018-11-02T12:19:36Z</time>
      </trkpt>
      <trkpt lat="45.92408" lon="4.73187">
        <ele>171</ele>
        <time>2018-11-02T12:19:37Z</time>
      </trkpt>
      <trkpt lat="45.92409" lon="4.73194">
        <ele>171</ele>
        <time>2018-11-02T12:19:38Z</time>
      </trkpt>
      <trkpt lat="45.92409" lon="4.73202">
        <ele>171</ele>
        <time>2018-11-02T12:19:39Z</time>
      </trkpt>
      <trkpt lat="45.92409" lon="4.7321">
        <ele>171</ele>
        <time>2018-11-02T12:19:40Z</time>
      </trkpt>
      <trkpt lat="45.92409" lon="4.73219">
        <ele>171</ele>
        <time>2018-11-02T12:19:41Z</time>
      </trkpt>
      <trkpt lat="45.92409" lon="4.73227">
        <ele>171</ele>
        <time>2018-11-02T12:19:42Z</time>
      </trkpt>
      <trkpt lat="45.9241" lon="4.73235">
        <ele>171</ele>
        <time>2018-11-02T12:19:43Z</time>
      </trkpt>
      <trkpt lat="45.9241" lon="4.73244">
        <ele>171</ele>
        <time>2018-11-02T12:19:44Z</time>
      </trkpt>
      <trkpt lat="45.9241" lon="4.73252">
        <ele>171</ele>
        <time>2018-11-02T12:19:45Z</time>
      </trkpt>
      <trkpt lat="45.92411" lon="4.7326">
        <ele>171</ele>
        <time>2018-11-02T12:19:46Z</time>
      </trkpt>
      <trkpt lat="45.92411" lon="4.73268">
        <ele>171</ele>
        <time>2018-11-02T12:19:47Z</time>
      </trkpt>
      <trkpt lat="45.92412" lon="4.73276">
        <ele>171</ele>
        <time>2018-11-02T12:19:48Z</time>
      </trkpt>
      <trkpt lat="45.92413" lon="4.73284">
        <ele>171</ele>
        <time>2018-11-02T12:19:49Z</time>
      </trkpt>
      <trkpt lat="45.92414" lon="4.73292">
        <ele>171</ele>
        <time>2018-11-02T12:19:50Z</time>
      </trkpt>
      <trkpt lat="45.92414" lon="4.733">
        <ele>171</ele>
        <time>2018-11-02T12:19:51Z</time>
      </trkpt>
      <trkpt lat="45.92414" lon="4.73309">
        <ele>171</ele>
        <time>2018-11-02T12:19:52Z</time>
      </trkpt>
      <trkpt lat="45.92415" lon="4.73318">
        <ele>171</ele>
        <time>2018-11-02T12:19:53Z</time>
      </trkpt>
      <trkpt lat="45.92416" lon="4.73325">
        <ele>171</ele>
        <time>2018-11-02T12:19:54Z</time>
      </trkpt>
      <trkpt lat="45.92417" lon="4.73332">
        <ele>171</ele>
        <time>2018-11-02T12:19:55Z</time>
      </trkpt>
      <trkpt lat="45.92417" lon="4.73341">
        <ele>171</ele>
        <time>2018-11-02T12:19:56Z</time>
      </trkpt>
      <trkpt lat="45.92418" lon="4.73349">
        <ele>171</ele>
        <time>2018-11-02T12:19:57Z</time>
      </trkpt>
      <trkpt lat="45.92419" lon="4.73357">
        <ele>171</ele>
        <time>2018-11-02T12:19:58Z</time>
      </trkpt>
      <trkpt lat="45.9242" lon="4.73366">
        <ele>172</ele>
        <time>2018-11-02T12:19:59Z</time>
      </trkpt>
      <trkpt lat="45.92421" lon="4.73375">
        <ele>172</ele>
        <time>2018-11-02T12:20:00Z</time>
      </trkpt>
      <trkpt lat="45.92422" lon="4.73383">
        <ele>172</ele>
        <time>2018-11-02T12:20:01Z</time>
      </trkpt>
      <trkpt lat="45.92424" lon="4.73392">
        <ele>172</ele>
        <time>2018-11-02T12:20:02Z</time>
      </trkpt>
      <trkpt lat="45.92426" lon="4.73399">
        <ele>172</ele>
        <time>2018-11-02T12:20:03Z</time>
      </trkpt>
      <trkpt lat="45.92429" lon="4.73406">
        <ele>172</ele>
        <time>2018-11-02T12:20:04Z</time>
      </trkpt>
      <trkpt lat="45.92432" lon="4.73412">
        <ele>172</ele>
        <time>2018-11-02T12:20:05Z</time>
      </trkpt>
      <trkpt lat="45.92436" lon="4.73416">
        <ele>172</ele>
        <time>2018-11-02T12:20:06Z</time>
      </trkpt>
      <trkpt lat="45.92441" lon="4.73419">
        <ele>173</ele>
        <time>2018-11-02T12:20:07Z</time>
      </trkpt>
      <trkpt lat="45.92449" lon="4.73424">
        <ele>173</ele>
        <time>2018-11-02T12:20:09Z</time>
      </trkpt>
      <trkpt lat="45.92452" lon="4.73427">
        <ele>173</ele>
        <time>2018-11-02T12:20:10Z</time>
      </trkpt>
      <trkpt lat="45.92456" lon="4.73432">
        <ele>173</ele>
        <time>2018-11-02T12:20:11Z</time>
      </trkpt>
      <trkpt lat="45.9246" lon="4.73436">
        <ele>173</ele>
        <time>2018-11-02T12:20:12Z</time>
      </trkpt>
      <trkpt lat="45.92465" lon="4.73446">
        <ele>173</ele>
        <time>2018-11-02T12:20:14Z</time>
      </trkpt>
      <trkpt lat="45.92467" lon="4.73452">
        <ele>173</ele>
        <time>2018-11-02T12:20:15Z</time>
      </trkpt>
      <trkpt lat="45.92468" lon="4.73458">
        <ele>173</ele>
        <time>2018-11-02T12:20:16Z</time>
      </trkpt>
      <trkpt lat="45.92468" lon="4.73465">
        <ele>173</ele>
        <time>2018-11-02T12:20:17Z</time>
      </trkpt>
      <trkpt lat="45.92468" lon="4.73472">
        <ele>173</ele>
        <time>2018-11-02T12:20:18Z</time>
      </trkpt>
      <trkpt lat="45.92468" lon="4.7348">
        <ele>173</ele>
        <time>2018-11-02T12:20:19Z</time>
      </trkpt>
      <trkpt lat="45.92468" lon="4.73488">
        <ele>173</ele>
        <time>2018-11-02T12:20:20Z</time>
      </trkpt>
      <trkpt lat="45.92468" lon="4.73495">
        <ele>173</ele>
        <time>2018-11-02T12:20:21Z</time>
      </trkpt>
      <trkpt lat="45.92468" lon="4.73502">
        <ele>174</ele>
        <time>2018-11-02T12:20:22Z</time>
      </trkpt>
      <trkpt lat="45.92468" lon="4.73509">
        <ele>174</ele>
        <time>2018-11-02T12:20:23Z</time>
      </trkpt>
      <trkpt lat="45.92467" lon="4.73522">
        <ele>174</ele>
        <time>2018-11-02T12:20:25Z</time>
      </trkpt>
      <trkpt lat="45.92467" lon="4.73528">
        <ele>174</ele>
        <time>2018-11-02T12:20:26Z</time>
      </trkpt>
      <trkpt lat="45.92465" lon="4.7354">
        <ele>174</ele>
        <time>2018-11-02T12:20:28Z</time>
      </trkpt>
      <trkpt lat="45.92465" lon="4.73545">
        <ele>173</ele>
        <time>2018-11-02T12:20:29Z</time>
      </trkpt>
      <trkpt lat="45.92466" lon="4.73557">
        <ele>173</ele>
        <time>2018-11-02T12:20:31Z</time>
      </trkpt>
      <trkpt lat="45.92466" lon="4.73565">
        <ele>173</ele>
        <time>2018-11-02T12:20:32Z</time>
      </trkpt>
      <trkpt lat="45.92467" lon="4.73571">
        <ele>173</ele>
        <time>2018-11-02T12:20:33Z</time>
      </trkpt>
      <trkpt lat="45.92466" lon="4.73578">
        <ele>173</ele>
        <time>2018-11-02T12:20:34Z</time>
      </trkpt>
      <trkpt lat="45.92467" lon="4.73585">
        <ele>174</ele>
        <time>2018-11-02T12:20:35Z</time>
      </trkpt>
      <trkpt lat="45.92467" lon="4.73593">
        <ele>174</ele>
        <time>2018-11-02T12:20:36Z</time>
      </trkpt>
      <trkpt lat="45.92467" lon="4.736">
        <ele>174</ele>
        <time>2018-11-02T12:20:37Z</time>
      </trkpt>
      <trkpt lat="45.92469" lon="4.73607">
        <ele>174</ele>
        <time>2018-11-02T12:20:38Z</time>
      </trkpt>
      <trkpt lat="45.9247" lon="4.73614">
        <ele>174</ele>
        <time>2018-11-02T12:20:39Z</time>
      </trkpt>
      <trkpt lat="45.9247" lon="4.7362">
        <ele>174</ele>
        <time>2018-11-02T12:20:40Z</time>
      </trkpt>
      <trkpt lat="45.92471" lon="4.73627">
        <ele>174</ele>
        <time>2018-11-02T12:20:41Z</time>
      </trkpt>
      <trkpt lat="45.9247" lon="4.73634">
        <ele>174</ele>
        <time>2018-11-02T12:20:42Z</time>
      </trkpt>
      <trkpt lat="45.9247" lon="4.73641">
        <ele>174</ele>
        <time>2018-11-02T12:20:43Z</time>
      </trkpt>
      <trkpt lat="45.92471" lon="4.73648">
        <ele>174</ele>
        <time>2018-11-02T12:20:44Z</time>
      </trkpt>
      <trkpt lat="45.9247" lon="4.7366">
        <ele>174</ele>
        <time>2018-11-02T12:20:46Z</time>
      </trkpt>
      <trkpt lat="45.9247" lon="4.73665">
        <ele>174</ele>
        <time>2018-11-02T12:20:47Z</time>
      </trkpt>
      <trkpt lat="45.92468" lon="4.73676">
        <ele>174</ele>
        <time>2018-11-02T12:20:49Z</time>
      </trkpt>
      <trkpt lat="45.92468" lon="4.73679">
        <ele>174</ele>
        <time>2018-11-02T12:20:50Z</time>
      </trkpt>
      <trkpt lat="45.92466" lon="4.73689">
        <ele>174</ele>
        <time>2018-11-02T12:20:52Z</time>
      </trkpt>
      <trkpt lat="45.92465" lon="4.73692">
        <ele>174</ele>
        <time>2018-11-02T12:20:53Z</time>
      </trkpt>
      <trkpt lat="45.92464" lon="4.73704">
        <ele>174</ele>
        <time>2018-11-02T12:20:57Z</time>
      </trkpt>
      <trkpt lat="45.92464" lon="4.73705">
        <ele>174</ele>
        <time>2018-11-02T12:20:58Z</time>
      </trkpt>
      <trkpt lat="45.92462" lon="4.73709">
        <ele>174</ele>
        <time>2018-11-02T12:21:32.091Z</time>
      </trkpt>
    </trkseg>
  </trk>
</gpx>